<?xml version='1.0' encoding='UTF-8'?><gpx version="1.1" creator="JPX - https://github.com/jenetics/jpx" xmlns="http://www.topografix.com/GPX/1/1"><trk><trkseg><trkpt lat="43.118566205105466" lon="13.648390235735503"><ele>63.0</ele><time>2026-04-18T07:40:21.998Z</time></trkpt><trkpt lat="43.118483602465446" lon="13.648172614798666"><ele>63.0</ele><time>2026-04-18T07:40:22.998Z</time></trkpt><trkpt lat="43.11839163087934" lon="13.647954824229505"><ele>63.0</ele><time>2026-04-18T07:40:23.998Z</time></trkpt><trkpt lat="43.11829779806384" lon="13.647742069885094"><ele>64.0</ele><time>2026-04-18T07:40:24.998Z</time></trkpt><trkpt lat="43.11818808833177" lon="13.647537273685408"><ele>65.0</ele><time>2026-04-18T07:40:25.998Z</time></trkpt><trkpt lat="43.11807658667604" lon="13.647343318413736"><ele>66.0</ele><time>2026-04-18T07:40:26.998Z</time></trkpt><trkpt lat="43.11796017334947" lon="13.64715141324539"><ele>66.0</ele><time>2026-04-18T07:40:27.998Z</time></trkpt><trkpt lat="43.11783762397228" lon="13.64696191092715"><ele>66.0</ele><time>2026-04-18T07:40:28.998Z</time></trkpt><trkpt lat="43.11771825090873" lon="13.646772457095807"><ele>66.0</ele><time>2026-04-18T07:40:29.998Z</time></trkpt><trkpt lat="43.11759928379754" lon="13.64658512444771"><ele>66.0</ele><time>2026-04-18T07:40:30.998Z</time></trkpt><trkpt lat="43.117480289335056" lon="13.646392823781627"><ele>66.0</ele><time>2026-04-18T07:40:31.998Z</time></trkpt><trkpt lat="43.11736289089504" lon="13.646207744535296"><ele>66.0</ele><time>2026-04-18T07:40:32.998Z</time></trkpt><trkpt lat="43.11724111296116" lon="13.646014278648678"><ele>66.0</ele><time>2026-04-18T07:40:33.998Z</time></trkpt><trkpt lat="43.11712362269706" lon="13.645822747250646"><ele>66.0</ele><time>2026-04-18T07:40:34.998Z</time></trkpt><trkpt lat="43.11700947295247" lon="13.64562767177664"><ele>66.0</ele><time>2026-04-18T07:40:35.998Z</time></trkpt><trkpt lat="43.116892218261974" lon="13.645431013852571"><ele>66.66666666666667</ele><time>2026-04-18T07:40:36.998Z</time></trkpt><trkpt lat="43.11677951420452" lon="13.645231799764769"><ele>67.33333333333334</ele><time>2026-04-18T07:40:37.998Z</time></trkpt><trkpt lat="43.11667259368456" lon="13.64502709004358"><ele>68.0</ele><time>2026-04-18T07:40:38.998Z</time></trkpt><trkpt lat="43.116568303146856" lon="13.644811684892012"><ele>68.0</ele><time>2026-04-18T07:40:39.998Z</time></trkpt><trkpt lat="43.11647973775642" lon="13.644602573164805"><ele>68.0</ele><time>2026-04-18T07:40:40.998Z</time></trkpt><trkpt lat="43.11640066719426" lon="13.64437062650036"><ele>68.0</ele><time>2026-04-18T07:40:41.998Z</time></trkpt><trkpt lat="43.11633191244856" lon="13.644144864011082"><ele>66.66666666666667</ele><time>2026-04-18T07:40:42.998Z</time></trkpt><trkpt lat="43.116270498351376" lon="13.643917827912547"><ele>65.33333333333333</ele><time>2026-04-18T07:40:43.998Z</time></trkpt><trkpt lat="43.11620220244871" lon="13.643689015883425"><ele>64.0</ele><time>2026-04-18T07:40:44.997Z</time></trkpt><trkpt lat="43.11613737876153" lon="13.643456388713176"><ele>64.0</ele><time>2026-04-18T07:40:46Z</time></trkpt><trkpt lat="43.11607422530876" lon="13.643233506095122"><ele>64.0</ele><time>2026-04-18T07:40:47Z</time></trkpt><trkpt lat="43.11601342482338" lon="13.643008544900031"><ele>64.0</ele><time>2026-04-18T07:40:48Z</time></trkpt><trkpt lat="43.11594999608295" lon="13.642779856502273"><ele>63.666666666666664</ele><time>2026-04-18T07:40:49Z</time></trkpt><trkpt lat="43.11588781909247" lon="13.642554072401527"><ele>63.33333333333333</ele><time>2026-04-18T07:40:50Z</time></trkpt><trkpt lat="43.115824723427735" lon="13.642328560736294"><ele>63.0</ele><time>2026-04-18T07:40:51Z</time></trkpt><trkpt lat="43.11576410118415" lon="13.6421028941803"><ele>63.33333333333333</ele><time>2026-04-18T07:40:52Z</time></trkpt><trkpt lat="43.11569947208725" lon="13.641874601415333"><ele>63.666666666666664</ele><time>2026-04-18T07:40:53Z</time></trkpt><trkpt lat="43.115637169916546" lon="13.641650884757041"><ele>64.0</ele><time>2026-04-18T07:40:54Z</time></trkpt><trkpt lat="43.11557505917048" lon="13.641427629153256"><ele>64.0</ele><time>2026-04-18T07:40:55Z</time></trkpt><trkpt lat="43.11551099255672" lon="13.641202039984885"><ele>64.0</ele><time>2026-04-18T07:40:56Z</time></trkpt><trkpt lat="43.11545266773751" lon="13.640978859845145"><ele>64.0</ele><time>2026-04-18T07:40:57Z</time></trkpt><trkpt lat="43.11538808315488" lon="13.640747518067696"><ele>64.33333333333333</ele><time>2026-04-18T07:40:58Z</time></trkpt><trkpt lat="43.11532699677919" lon="13.640519485376084"><ele>64.66666666666667</ele><time>2026-04-18T07:40:59Z</time></trkpt><trkpt lat="43.11527006935869" lon="13.640292552893664"><ele>65.0</ele><time>2026-04-18T07:41:00Z</time></trkpt><trkpt lat="43.11521626298945" lon="13.640062039158037"><ele>65.33333333333334</ele><time>2026-04-18T07:41:01Z</time></trkpt><trkpt lat="43.115165989233375" lon="13.639827037606103"><ele>65.66666666666667</ele><time>2026-04-18T07:41:02Z</time></trkpt><trkpt lat="43.115121108265654" lon="13.63958797624359"><ele>66.0</ele><time>2026-04-18T07:41:03Z</time></trkpt><trkpt lat="43.11507800205066" lon="13.63935202113157"><ele>66.0</ele><time>2026-04-18T07:41:04Z</time></trkpt><trkpt lat="43.11503253740617" lon="13.639112333096957"><ele>66.0</ele><time>2026-04-18T07:41:05Z</time></trkpt><trkpt lat="43.114987062771476" lon="13.638866273965624"><ele>66.0</ele><time>2026-04-18T07:41:06Z</time></trkpt><trkpt lat="43.11494350855756" lon="13.638634190275148"><ele>66.66666666666667</ele><time>2026-04-18T07:41:07Z</time></trkpt><trkpt lat="43.11489965005822" lon="13.638392412168901"><ele>67.33333333333334</ele><time>2026-04-18T07:41:08Z</time></trkpt><trkpt lat="43.11485616459635" lon="13.638151778849329"><ele>68.0</ele><time>2026-04-18T07:41:09Z</time></trkpt><trkpt lat="43.11480820912252" lon="13.637901426950624"><ele>68.0</ele><time>2026-04-18T07:41:10Z</time></trkpt><trkpt lat="43.11476519134084" lon="13.637662377235952"><ele>68.0</ele><time>2026-04-18T07:41:11Z</time></trkpt><trkpt lat="43.11472249125296" lon="13.637420534649202"><ele>68.0</ele><time>2026-04-18T07:41:12Z</time></trkpt><trkpt lat="43.11467402836428" lon="13.637172202734638"><ele>68.33333333333334</ele><time>2026-04-18T07:41:13Z</time></trkpt><trkpt lat="43.11463298453341" lon="13.636929672969243"><ele>68.66666666666667</ele><time>2026-04-18T07:41:14Z</time></trkpt><trkpt lat="43.11458313943884" lon="13.636683040312457"><ele>69.0</ele><time>2026-04-18T07:41:15Z</time></trkpt><trkpt lat="43.11454120199092" lon="13.636448991494047"><ele>69.0</ele><time>2026-04-18T07:41:15.999Z</time></trkpt><trkpt lat="43.11448593331046" lon="13.636206731828276"><ele>69.0</ele><time>2026-04-18T07:41:16.999Z</time></trkpt><trkpt lat="43.11442707464838" lon="13.63596306933174"><ele>69.0</ele><time>2026-04-18T07:41:17.999Z</time></trkpt><trkpt lat="43.11436986647142" lon="13.635732858524475"><ele>69.0</ele><time>2026-04-18T07:41:18.999Z</time></trkpt><trkpt lat="43.11431072188751" lon="13.635493733079281"><ele>69.0</ele><time>2026-04-18T07:41:19.999Z</time></trkpt><trkpt lat="43.11424896703758" lon="13.635252822621137"><ele>69.0</ele><time>2026-04-18T07:41:20.999Z</time></trkpt><trkpt lat="43.11418599281447" lon="13.635025683818355"><ele>68.66666666666667</ele><time>2026-04-18T07:41:21.999Z</time></trkpt><trkpt lat="43.11411600694186" lon="13.634787155811381"><ele>68.33333333333334</ele><time>2026-04-18T07:41:22.999Z</time></trkpt><trkpt lat="43.1140462246717" lon="13.634558871718465"><ele>68.0</ele><time>2026-04-18T07:41:23.999Z</time></trkpt><trkpt lat="43.11397467386987" lon="13.63432479951244"><ele>69.0</ele><time>2026-04-18T07:41:24.999Z</time></trkpt><trkpt lat="43.11390264827031" lon="13.634089645743954"><ele>70.0</ele><time>2026-04-18T07:41:25.999Z</time></trkpt><trkpt lat="43.1138294835248" lon="13.633853178554793"><ele>71.0</ele><time>2026-04-18T07:41:26.999Z</time></trkpt><trkpt lat="43.11374988371467" lon="13.633616540924475"><ele>71.0</ele><time>2026-04-18T07:41:27.999Z</time></trkpt><trkpt lat="43.11366967576851" lon="13.633375487150012"><ele>71.0</ele><time>2026-04-18T07:41:28.999Z</time></trkpt><trkpt lat="43.11359604390766" lon="13.633141036789691"><ele>71.0</ele><time>2026-04-18T07:41:29.999Z</time></trkpt><trkpt lat="43.11351906309641" lon="13.632901728662057"><ele>71.0</ele><time>2026-04-18T07:41:30.999Z</time></trkpt><trkpt lat="43.11344026991379" lon="13.632663636815053"><ele>71.0</ele><time>2026-04-18T07:41:31.999Z</time></trkpt><trkpt lat="43.113360274292354" lon="13.632422114014782"><ele>71.0</ele><time>2026-04-18T07:41:32.999Z</time></trkpt><trkpt lat="43.113204998315936" lon="13.631937852728896"><ele>71.0</ele><time>2026-04-18T07:41:34.999Z</time></trkpt><trkpt lat="43.1131290223183" lon="13.63169400632562"><ele>71.0</ele><time>2026-04-18T07:41:35.999Z</time></trkpt><trkpt lat="43.1130572356042" lon="13.631449575207093"><ele>71.0</ele><time>2026-04-18T07:41:36.999Z</time></trkpt><trkpt lat="43.112998882931706" lon="13.631199986980414"><ele>70.66666666666667</ele><time>2026-04-18T07:41:37.999Z</time></trkpt><trkpt lat="43.11294377185679" lon="13.63094440415588"><ele>70.33333333333333</ele><time>2026-04-18T07:41:38.999Z</time></trkpt><trkpt lat="43.112897332920014" lon="13.630692911451211"><ele>70.0</ele><time>2026-04-18T07:41:39.999Z</time></trkpt><trkpt lat="43.11285038028161" lon="13.630434977771316"><ele>70.0</ele><time>2026-04-18T07:41:40.999Z</time></trkpt><trkpt lat="43.112801377560515" lon="13.630188387645838"><ele>70.0</ele><time>2026-04-18T07:41:41.999Z</time></trkpt><trkpt lat="43.11275627360358" lon="13.629934053076243"><ele>70.0</ele><time>2026-04-18T07:41:42.999Z</time></trkpt><trkpt lat="43.11270749190048" lon="13.62967737580222"><ele>70.0</ele><time>2026-04-18T07:41:43.999Z</time></trkpt><trkpt lat="43.112656443493904" lon="13.629408016712372"><ele>70.0</ele><time>2026-04-18T07:41:44.999Z</time></trkpt><trkpt lat="43.11261092466415" lon="13.629140444884364"><ele>70.0</ele><time>2026-04-18T07:41:45.999Z</time></trkpt><trkpt lat="43.11256144659794" lon="13.628870830483551"><ele>70.33333333333333</ele><time>2026-04-18T07:41:46.999Z</time></trkpt><trkpt lat="43.11251255893895" lon="13.62859152259952"><ele>70.66666666666667</ele><time>2026-04-18T07:41:47.999Z</time></trkpt><trkpt lat="43.112465824159244" lon="13.6283248355795"><ele>71.0</ele><time>2026-04-18T07:41:48.999Z</time></trkpt><trkpt lat="43.112415480693066" lon="13.628055928747782"><ele>71.33333333333334</ele><time>2026-04-18T07:41:49.999Z</time></trkpt><trkpt lat="43.11236390450707" lon="13.627786220502614"><ele>71.66666666666667</ele><time>2026-04-18T07:41:50.999Z</time></trkpt><trkpt lat="43.112313503188496" lon="13.627515215938153"><ele>72.0</ele><time>2026-04-18T07:41:51.999Z</time></trkpt><trkpt lat="43.11226653047439" lon="13.62724047290303"><ele>72.0</ele><time>2026-04-18T07:41:52.999Z</time></trkpt><trkpt lat="43.11221547083006" lon="13.626971924942646"><ele>72.0</ele><time>2026-04-18T07:41:53.999Z</time></trkpt><trkpt lat="43.11216005977844" lon="13.626706989658482"><ele>72.0</ele><time>2026-04-18T07:41:54.999Z</time></trkpt><trkpt lat="43.11209964552486" lon="13.626446045423934"><ele>72.0</ele><time>2026-04-18T07:41:55.999Z</time></trkpt><trkpt lat="43.1120346077509" lon="13.626187772508825"><ele>72.0</ele><time>2026-04-18T07:41:56.999Z</time></trkpt><trkpt lat="43.11195178683138" lon="13.625945953895902"><ele>72.0</ele><time>2026-04-18T07:41:57.999Z</time></trkpt><trkpt lat="43.11185870756709" lon="13.625710027897192"><ele>72.0</ele><time>2026-04-18T07:41:58.999Z</time></trkpt><trkpt lat="43.11175371266653" lon="13.625484832611262"><ele>72.0</ele><time>2026-04-18T07:41:59.999Z</time></trkpt><trkpt lat="43.11164189690867" lon="13.625261932551105"><ele>72.0</ele><time>2026-04-18T07:42:00.999Z</time></trkpt><trkpt lat="43.1115399766441" lon="13.62504209627504"><ele>72.66666666666667</ele><time>2026-04-18T07:42:01.998Z</time></trkpt><trkpt lat="43.111443993592204" lon="13.624810152618595"><ele>73.33333333333334</ele><time>2026-04-18T07:42:02.998Z</time></trkpt><trkpt lat="43.11134888667175" lon="13.624568401365357"><ele>74.0</ele><time>2026-04-18T07:42:03.998Z</time></trkpt><trkpt lat="43.11126337964864" lon="13.62432966070815"><ele>74.0</ele><time>2026-04-18T07:42:04.998Z</time></trkpt><trkpt lat="43.111183610438914" lon="13.624077456193683"><ele>74.0</ele><time>2026-04-18T07:42:05.998Z</time></trkpt><trkpt lat="43.111109476094114" lon="13.62382450822766"><ele>74.0</ele><time>2026-04-18T07:42:06.998Z</time></trkpt><trkpt lat="43.11103652351996" lon="13.623569663758069"><ele>73.66666666666667</ele><time>2026-04-18T07:42:07.998Z</time></trkpt><trkpt lat="43.1109606506333" lon="13.623315490332487"><ele>73.33333333333333</ele><time>2026-04-18T07:42:08.998Z</time></trkpt><trkpt lat="43.11087747902459" lon="13.623059025084014"><ele>73.0</ele><time>2026-04-18T07:42:09.998Z</time></trkpt><trkpt lat="43.11079168016463" lon="13.622802866038361"><ele>75.33333333333333</ele><time>2026-04-18T07:42:10.998Z</time></trkpt><trkpt lat="43.11070640740401" lon="13.622547254461134"><ele>77.66666666666667</ele><time>2026-04-18T07:42:11.998Z</time></trkpt><trkpt lat="43.11062134290471" lon="13.622288057367662"><ele>80.0</ele><time>2026-04-18T07:42:12.998Z</time></trkpt><trkpt lat="43.110536403027766" lon="13.622036527529914"><ele>79.0</ele><time>2026-04-18T07:42:13.998Z</time></trkpt><trkpt lat="43.11045189649513" lon="13.621784272922445"><ele>78.0</ele><time>2026-04-18T07:42:14.998Z</time></trkpt><trkpt lat="43.11036581625371" lon="13.621534129084422"><ele>77.0</ele><time>2026-04-18T07:42:15.998Z</time></trkpt><trkpt lat="43.11027666230437" lon="13.621286563663702"><ele>76.33333333333334</ele><time>2026-04-18T07:42:16.998Z</time></trkpt><trkpt lat="43.11018859952351" lon="13.621041173136996"><ele>75.66666666666667</ele><time>2026-04-18T07:42:17.998Z</time></trkpt><trkpt lat="43.110101578604834" lon="13.620796786142332"><ele>75.0</ele><time>2026-04-18T07:42:18.998Z</time></trkpt><trkpt lat="43.11001602574166" lon="13.620549985622718"><ele>74.66666666666667</ele><time>2026-04-18T07:42:19.998Z</time></trkpt><trkpt lat="43.10993472370718" lon="13.6203050917131"><ele>74.33333333333334</ele><time>2026-04-18T07:42:20.998Z</time></trkpt><trkpt lat="43.109859424888526" lon="13.620061305864935"><ele>74.0</ele><time>2026-04-18T07:42:21.998Z</time></trkpt><trkpt lat="43.10979036709746" lon="13.619810688753573"><ele>75.0</ele><time>2026-04-18T07:42:22.998Z</time></trkpt><trkpt lat="43.10975097900316" lon="13.619551063887506"><ele>76.0</ele><time>2026-04-18T07:42:23.998Z</time></trkpt><trkpt lat="43.109745368329484" lon="13.619283365913445"><ele>77.0</ele><time>2026-04-18T07:42:24.998Z</time></trkpt><trkpt lat="43.109753092996755" lon="13.619009302028928"><ele>77.0</ele><time>2026-04-18T07:42:25.998Z</time></trkpt><trkpt lat="43.109761584456095" lon="13.61873580175523"><ele>77.0</ele><time>2026-04-18T07:42:26.998Z</time></trkpt><trkpt lat="43.109762966848685" lon="13.618463491013891"><ele>77.0</ele><time>2026-04-18T07:42:27.998Z</time></trkpt><trkpt lat="43.1097538054179" lon="13.618191009799814"><ele>77.0</ele><time>2026-04-18T07:42:28.998Z</time></trkpt><trkpt lat="43.10972995866518" lon="13.61792576157642"><ele>77.0</ele><time>2026-04-18T07:42:29.998Z</time></trkpt><trkpt lat="43.10967718976833" lon="13.617663832640302"><ele>77.0</ele><time>2026-04-18T07:42:30.998Z</time></trkpt><trkpt lat="43.10960339886519" lon="13.61740945898151"><ele>77.0</ele><time>2026-04-18T07:42:31.998Z</time></trkpt><trkpt lat="43.10950343931421" lon="13.617173877828998"><ele>77.0</ele><time>2026-04-18T07:42:32.998Z</time></trkpt><trkpt lat="43.109386790206976" lon="13.616957690477282"><ele>77.0</ele><time>2026-04-18T07:42:33.998Z</time></trkpt><trkpt lat="43.109257004030546" lon="13.616751314472092"><ele>76.66666666666667</ele><time>2026-04-18T07:42:34.998Z</time></trkpt><trkpt lat="43.10912471549419" lon="13.616547522295251"><ele>76.33333333333333</ele><time>2026-04-18T07:42:35.998Z</time></trkpt><trkpt lat="43.1089844460478" lon="13.61634446928636"><ele>76.0</ele><time>2026-04-18T07:42:36.998Z</time></trkpt><trkpt lat="43.108838397218754" lon="13.616152368578962"><ele>77.0</ele><time>2026-04-18T07:42:37.998Z</time></trkpt><trkpt lat="43.10868406904905" lon="13.615974972911973"><ele>78.0</ele><time>2026-04-18T07:42:38.998Z</time></trkpt><trkpt lat="43.10852202343563" lon="13.615805692933964"><ele>79.0</ele><time>2026-04-18T07:42:39.998Z</time></trkpt><trkpt lat="43.10835551608455" lon="13.615646212774193"><ele>79.66666666666666</ele><time>2026-04-18T07:42:40.998Z</time></trkpt><trkpt lat="43.108184589275304" lon="13.615492089443572"><ele>80.33333333333333</ele><time>2026-04-18T07:42:41.998Z</time></trkpt><trkpt lat="43.10801517824602" lon="13.615333208076782"><ele>81.0</ele><time>2026-04-18T07:42:42.998Z</time></trkpt><trkpt lat="43.10784846777035" lon="13.6151686161876"><ele>79.66666666666667</ele><time>2026-04-18T07:42:43.998Z</time></trkpt><trkpt lat="43.10768866367866" lon="13.61499721496662"><ele>78.33333333333334</ele><time>2026-04-18T07:42:44.998Z</time></trkpt><trkpt lat="43.107531955605914" lon="13.61481180843409"><ele>77.0</ele><time>2026-04-18T07:42:45.998Z</time></trkpt><trkpt lat="43.10738398471055" lon="13.614614828415652"><ele>78.33333333333334</ele><time>2026-04-18T07:42:46.998Z</time></trkpt><trkpt lat="43.1072472270292" lon="13.614402038778271"><ele>79.66666666666667</ele><time>2026-04-18T07:42:47.998Z</time></trkpt><trkpt lat="43.10712039444286" lon="13.614176986640873"><ele>81.0</ele><time>2026-04-18T07:42:48.998Z</time></trkpt><trkpt lat="43.10700227984811" lon="13.613946937841664"><ele>81.0</ele><time>2026-04-18T07:42:49.997Z</time></trkpt><trkpt lat="43.106883711498654" lon="13.613718782784364"><ele>81.0</ele><time>2026-04-18T07:42:50.997Z</time></trkpt><trkpt lat="43.10675891013181" lon="13.61349641753631"><ele>81.0</ele><time>2026-04-18T07:42:51.999Z</time></trkpt><trkpt lat="43.10662534098905" lon="13.613290542688375"><ele>81.0</ele><time>2026-04-18T07:42:52.999Z</time></trkpt><trkpt lat="43.106483958957845" lon="13.613098563420534"><ele>81.0</ele><time>2026-04-18T07:42:53.999Z</time></trkpt><trkpt lat="43.106336710819434" lon="13.612917468918406"><ele>81.0</ele><time>2026-04-18T07:42:54.999Z</time></trkpt><trkpt lat="43.1061908934071" lon="13.612738636807586"><ele>80.66666666666667</ele><time>2026-04-18T07:42:55.999Z</time></trkpt><trkpt lat="43.10605359052198" lon="13.612570241988644"><ele>80.33333333333334</ele><time>2026-04-18T07:42:56.999Z</time></trkpt><trkpt lat="43.1059212702524" lon="13.612413575278993"><ele>80.0</ele><time>2026-04-18T07:42:57.999Z</time></trkpt><trkpt lat="43.10579430096562" lon="13.612264810199532"><ele>80.66666666666667</ele><time>2026-04-18T07:42:58.999Z</time></trkpt><trkpt lat="43.105673890776266" lon="13.612120912605349"><ele>81.33333333333333</ele><time>2026-04-18T07:42:59.999Z</time></trkpt><trkpt lat="43.10556163415323" lon="13.61198049929808"><ele>82.0</ele><time>2026-04-18T07:43:00.999Z</time></trkpt><trkpt lat="43.10545806119741" lon="13.611854195555907"><ele>82.0</ele><time>2026-04-18T07:43:01.999Z</time></trkpt><trkpt lat="43.1053597324505" lon="13.611734924633323"><ele>82.0</ele><time>2026-04-18T07:43:02.999Z</time></trkpt><trkpt lat="43.105276572452574" lon="13.6116249934155"><ele>82.0</ele><time>2026-04-18T07:43:03.999Z</time></trkpt><trkpt lat="43.10522151409902" lon="13.611536251795428"><ele>82.0</ele><time>2026-04-18T07:43:04.999Z</time></trkpt><trkpt lat="43.1051682149134" lon="13.611469372429273"><ele>82.0</ele><time>2026-04-18T07:43:05.999Z</time></trkpt><trkpt lat="43.10510468989677" lon="13.61139951811978"><ele>82.0</ele><time>2026-04-18T07:43:07.999Z</time></trkpt><trkpt lat="43.10496224460865" lon="13.611539800098324"><ele>82.0</ele><time>2026-04-18T07:43:08.999Z</time></trkpt><trkpt lat="43.10487911442668" lon="13.611616678413421"><ele>82.0</ele><time>2026-04-18T07:43:09.999Z</time></trkpt><trkpt lat="43.1047934369316" lon="13.61166192487204"><ele>82.0</ele><time>2026-04-18T07:43:10.999Z</time></trkpt><trkpt lat="43.1046221405105" lon="13.611570853175841"><ele>82.0</ele><time>2026-04-18T07:43:12.999Z</time></trkpt><trkpt lat="43.1045332369443" lon="13.611454052639179"><ele>82.0</ele><time>2026-04-18T07:43:13.999Z</time></trkpt><trkpt lat="43.10443299353564" lon="13.61132412074109"><ele>82.0</ele><time>2026-04-18T07:43:14.999Z</time></trkpt><trkpt lat="43.10431865271052" lon="13.611175234022665"><ele>82.0</ele><time>2026-04-18T07:43:15.999Z</time></trkpt><trkpt lat="43.1041880075191" lon="13.611004415466876"><ele>82.0</ele><time>2026-04-18T07:43:16.999Z</time></trkpt><trkpt lat="43.10403820282167" lon="13.610803478299369"><ele>82.0</ele><time>2026-04-18T07:43:17.999Z</time></trkpt><trkpt lat="43.10388109048837" lon="13.610587228503029"><ele>82.0</ele><time>2026-04-18T07:43:18.999Z</time></trkpt><trkpt lat="43.103715008733026" lon="13.61034784036487"><ele>82.0</ele><time>2026-04-18T07:43:19.999Z</time></trkpt><trkpt lat="43.103544458015335" lon="13.610093691015079"><ele>82.0</ele><time>2026-04-18T07:43:20.999Z</time></trkpt><trkpt lat="43.103374224037324" lon="13.609835389534998"><ele>83.0</ele><time>2026-04-18T07:43:21.999Z</time></trkpt><trkpt lat="43.10323970997083" lon="13.609683656898014"><ele>84.0</ele><time>2026-04-18T07:43:22.999Z</time></trkpt><trkpt lat="43.103090366475634" lon="13.609451565320109"><ele>85.0</ele><time>2026-04-18T07:43:23.999Z</time></trkpt><trkpt lat="43.10294990666677" lon="13.609232681287088"><ele>85.0</ele><time>2026-04-18T07:43:24.999Z</time></trkpt><trkpt lat="43.102819881519196" lon="13.609028039124043"><ele>85.0</ele><time>2026-04-18T07:43:25.999Z</time></trkpt><trkpt lat="43.10269465811567" lon="13.608839271608275"><ele>85.0</ele><time>2026-04-18T07:43:26.999Z</time></trkpt><trkpt lat="43.10257581781344" lon="13.608658372356658"><ele>85.0</ele><time>2026-04-18T07:43:27.999Z</time></trkpt><trkpt lat="43.102455622421715" lon="13.60847911697206"><ele>85.0</ele><time>2026-04-18T07:43:28.999Z</time></trkpt><trkpt lat="43.10233633948236" lon="13.608292036159643"><ele>85.0</ele><time>2026-04-18T07:43:29.999Z</time></trkpt><trkpt lat="43.1022132076694" lon="13.608106694242421"><ele>84.66666666666666</ele><time>2026-04-18T07:43:30.999Z</time></trkpt><trkpt lat="43.10208781715735" lon="13.60792230196823"><ele>84.33333333333333</ele><time>2026-04-18T07:43:31.999Z</time></trkpt><trkpt lat="43.10196316344521" lon="13.6077435112688"><ele>84.0</ele><time>2026-04-18T07:43:32.999Z</time></trkpt><trkpt lat="43.10182965370376" lon="13.607567185994393"><ele>84.0</ele><time>2026-04-18T07:43:33.999Z</time></trkpt><trkpt lat="43.101689626838066" lon="13.607393044739199"><ele>84.0</ele><time>2026-04-18T07:43:34.999Z</time></trkpt><trkpt lat="43.10154193697704" lon="13.60722831175278"><ele>84.0</ele><time>2026-04-18T07:43:35.999Z</time></trkpt><trkpt lat="43.101385652611064" lon="13.607077454727387"><ele>84.33333333333333</ele><time>2026-04-18T07:43:36.999Z</time></trkpt><trkpt lat="43.101221655047986" lon="13.606934262306993"><ele>84.66666666666666</ele><time>2026-04-18T07:43:37.999Z</time></trkpt><trkpt lat="43.101059508266275" lon="13.60678520896429"><ele>85.0</ele><time>2026-04-18T07:43:38.999Z</time></trkpt><trkpt lat="43.100898919016366" lon="13.6066319437575"><ele>85.0</ele><time>2026-04-18T07:43:39.999Z</time></trkpt><trkpt lat="43.100736017762" lon="13.606481451887817"><ele>85.0</ele><time>2026-04-18T07:43:40.999Z</time></trkpt><trkpt lat="43.100572046540385" lon="13.606332928618235"><ele>85.0</ele><time>2026-04-18T07:43:41.999Z</time></trkpt><trkpt lat="43.10041315944865" lon="13.606186070924931"><ele>85.33333333333333</ele><time>2026-04-18T07:43:42.999Z</time></trkpt><trkpt lat="43.10026405731521" lon="13.606023373677512"><ele>85.66666666666667</ele><time>2026-04-18T07:43:43.999Z</time></trkpt><trkpt lat="43.10011913007331" lon="13.605858093656753"><ele>86.0</ele><time>2026-04-18T07:43:44.999Z</time></trkpt><trkpt lat="43.09998354130843" lon="13.605672093501676"><ele>86.0</ele><time>2026-04-18T07:43:45.999Z</time></trkpt><trkpt lat="43.09985461954021" lon="13.605473839022588"><ele>86.0</ele><time>2026-04-18T07:43:46.999Z</time></trkpt><trkpt lat="43.09974016006782" lon="13.605265538830395"><ele>86.0</ele><time>2026-04-18T07:43:47.999Z</time></trkpt><trkpt lat="43.099646432627516" lon="13.605058275510325"><ele>86.0</ele><time>2026-04-18T07:43:48.999Z</time></trkpt><trkpt lat="43.09953127564158" lon="13.604854709020398"><ele>86.0</ele><time>2026-04-18T07:43:49.999Z</time></trkpt><trkpt lat="43.099376517862275" lon="13.604646878705449"><ele>86.0</ele><time>2026-04-18T07:43:50.999Z</time></trkpt><trkpt lat="43.09925035469392" lon="13.604442228628496"><ele>86.33333333333334</ele><time>2026-04-18T07:43:51.999Z</time></trkpt><trkpt lat="43.099128240509856" lon="13.604233514593451"><ele>86.66666666666667</ele><time>2026-04-18T07:43:52.999Z</time></trkpt><trkpt lat="43.09900170326808" lon="13.604031869411129"><ele>87.0</ele><time>2026-04-18T07:43:53.999Z</time></trkpt><trkpt lat="43.09887718912802" lon="13.60382208576669"><ele>87.33333333333333</ele><time>2026-04-18T07:43:54.999Z</time></trkpt><trkpt lat="43.098754177404906" lon="13.60361600915825"><ele>87.66666666666666</ele><time>2026-04-18T07:43:55.998Z</time></trkpt><trkpt lat="43.09862987508388" lon="13.603408021552696"><ele>88.0</ele><time>2026-04-18T07:43:56.998Z</time></trkpt><trkpt lat="43.09850847225503" lon="13.603199208061364"><ele>88.0</ele><time>2026-04-18T07:43:57.998Z</time></trkpt><trkpt lat="43.098387894142135" lon="13.602989565163705"><ele>88.0</ele><time>2026-04-18T07:43:58.998Z</time></trkpt><trkpt lat="43.09826719363812" lon="13.602785749310891"><ele>88.0</ele><time>2026-04-18T07:43:59.998Z</time></trkpt><trkpt lat="43.0981436926908" lon="13.602581602334778"><ele>88.0</ele><time>2026-04-18T07:44:00.998Z</time></trkpt><trkpt lat="43.09802386183286" lon="13.602377458919856"><ele>88.0</ele><time>2026-04-18T07:44:01.998Z</time></trkpt><trkpt lat="43.097903230431754" lon="13.602172131025641"><ele>88.0</ele><time>2026-04-18T07:44:02.998Z</time></trkpt><trkpt lat="43.09778146473596" lon="13.601971052268647"><ele>88.0</ele><time>2026-04-18T07:44:03.998Z</time></trkpt><trkpt lat="43.097657186122035" lon="13.601770727420988"><ele>88.0</ele><time>2026-04-18T07:44:04.998Z</time></trkpt><trkpt lat="43.097537821965794" lon="13.601566264589211"><ele>88.0</ele><time>2026-04-18T07:44:05.998Z</time></trkpt><trkpt lat="43.097416566899014" lon="13.601367046839922"><ele>88.66666666666666</ele><time>2026-04-18T07:44:06.998Z</time></trkpt><trkpt lat="43.09729307425787" lon="13.60116417682541"><ele>89.33333333333333</ele><time>2026-04-18T07:44:07.998Z</time></trkpt><trkpt lat="43.09717143240736" lon="13.600961012140157"><ele>90.0</ele><time>2026-04-18T07:44:08.998Z</time></trkpt><trkpt lat="43.09704922022374" lon="13.600763034420055"><ele>90.0</ele><time>2026-04-18T07:44:09.998Z</time></trkpt><trkpt lat="43.096926582848276" lon="13.600562885747678"><ele>90.0</ele><time>2026-04-18T07:44:10.998Z</time></trkpt><trkpt lat="43.09680634340761" lon="13.60035997870008"><ele>90.0</ele><time>2026-04-18T07:44:11.998Z</time></trkpt><trkpt lat="43.09668694939426" lon="13.600158361922157"><ele>90.33333333333333</ele><time>2026-04-18T07:44:12.998Z</time></trkpt><trkpt lat="43.09656149516888" lon="13.599959819881947"><ele>90.66666666666666</ele><time>2026-04-18T07:44:13.998Z</time></trkpt><trkpt lat="43.096431424963896" lon="13.599767212403076"><ele>91.0</ele><time>2026-04-18T07:44:14.998Z</time></trkpt><trkpt lat="43.0962948512554" lon="13.59958568927662"><ele>91.0</ele><time>2026-04-18T07:44:15.998Z</time></trkpt><trkpt lat="43.09614904128074" lon="13.599412870010376"><ele>91.0</ele><time>2026-04-18T07:44:16.998Z</time></trkpt><trkpt lat="43.09599169539555" lon="13.599269891715013"><ele>91.0</ele><time>2026-04-18T07:44:17.998Z</time></trkpt><trkpt lat="43.09583046403086" lon="13.599108753118156"><ele>91.33333333333333</ele><time>2026-04-18T07:44:18.998Z</time></trkpt><trkpt lat="43.09568224894456" lon="13.598950638394392"><ele>91.66666666666667</ele><time>2026-04-18T07:44:19.998Z</time></trkpt><trkpt lat="43.09552633059851" lon="13.598793422854554"><ele>92.0</ele><time>2026-04-18T07:44:20.998Z</time></trkpt><trkpt lat="43.09538567959705" lon="13.598635048884313"><ele>91.66666666666667</ele><time>2026-04-18T07:44:21.998Z</time></trkpt><trkpt lat="43.095219216285244" lon="13.598479694945864"><ele>91.33333333333333</ele><time>2026-04-18T07:44:22.998Z</time></trkpt><trkpt lat="43.09504398348855" lon="13.598348854590538"><ele>91.0</ele><time>2026-04-18T07:44:23.998Z</time></trkpt><trkpt lat="43.09487130014154" lon="13.598232391957204"><ele>91.0</ele><time>2026-04-18T07:44:24.998Z</time></trkpt><trkpt lat="43.094692920628844" lon="13.598114382495979"><ele>91.0</ele><time>2026-04-18T07:44:25.998Z</time></trkpt><trkpt lat="43.0945257397332" lon="13.597981162416191"><ele>91.0</ele><time>2026-04-18T07:44:26.998Z</time></trkpt><trkpt lat="43.09434155397687" lon="13.597884296964438"><ele>91.33333333333333</ele><time>2026-04-18T07:44:27.998Z</time></trkpt><trkpt lat="43.094169337853444" lon="13.59778390907584"><ele>91.66666666666667</ele><time>2026-04-18T07:44:28.998Z</time></trkpt><trkpt lat="43.09399168199998" lon="13.597668784121906"><ele>92.0</ele><time>2026-04-18T07:44:29.998Z</time></trkpt><trkpt lat="43.093814739966184" lon="13.597573902942512"><ele>92.66666666666667</ele><time>2026-04-18T07:44:30.998Z</time></trkpt><trkpt lat="43.09362590717352" lon="13.597502833730989"><ele>93.33333333333333</ele><time>2026-04-18T07:44:31.998Z</time></trkpt><trkpt lat="43.09343387536659" lon="13.59746547658029"><ele>94.0</ele><time>2026-04-18T07:44:32.998Z</time></trkpt><trkpt lat="43.09324173957552" lon="13.597441734345503"><ele>96.0</ele><time>2026-04-18T07:44:33.998Z</time></trkpt><trkpt lat="43.093050825349806" lon="13.597435410524966"><ele>98.0</ele><time>2026-04-18T07:44:34.998Z</time></trkpt><trkpt lat="43.092860441344406" lon="13.597409551281324"><ele>100.0</ele><time>2026-04-18T07:44:35.998Z</time></trkpt><trkpt lat="43.09267500586667" lon="13.597402338214922"><ele>100.0</ele><time>2026-04-18T07:44:36.998Z</time></trkpt><trkpt lat="43.09248190005918" lon="13.597382854769792"><ele>100.0</ele><time>2026-04-18T07:44:37.998Z</time></trkpt><trkpt lat="43.09228450763334" lon="13.597381456790268"><ele>100.0</ele><time>2026-04-18T07:44:38.998Z</time></trkpt><trkpt lat="43.09210191747527" lon="13.597366522804695"><ele>102.0</ele><time>2026-04-18T07:44:39.998Z</time></trkpt><trkpt lat="43.09191757686985" lon="13.597350067414578"><ele>104.0</ele><time>2026-04-18T07:44:40.998Z</time></trkpt><trkpt lat="43.09172788344529" lon="13.597334471533447"><ele>106.0</ele><time>2026-04-18T07:44:41.998Z</time></trkpt><trkpt lat="43.091544925816855" lon="13.597299635226724"><ele>108.33333333333334</ele><time>2026-04-18T07:44:42.998Z</time></trkpt><trkpt lat="43.091367068273385" lon="13.597223830296842"><ele>110.66666666666666</ele><time>2026-04-18T07:44:43.998Z</time></trkpt><trkpt lat="43.09119332082456" lon="13.59714441241364"><ele>113.0</ele><time>2026-04-18T07:44:44.998Z</time></trkpt><trkpt lat="43.091015007448846" lon="13.597079337317997"><ele>113.0</ele><time>2026-04-18T07:44:45.998Z</time></trkpt><trkpt lat="43.09082816237275" lon="13.597026228320757"><ele>113.0</ele><time>2026-04-18T07:44:46.997Z</time></trkpt><trkpt lat="43.090629780887774" lon="13.597004024826026"><ele>113.0</ele><time>2026-04-18T07:44:47.997Z</time></trkpt><trkpt lat="43.09042774740945" lon="13.59701377056233"><ele>114.0</ele><time>2026-04-18T07:44:48.997Z</time></trkpt><trkpt lat="43.09018126989924" lon="13.597044998059422"><ele>115.0</ele><time>2026-04-18T07:44:49.997Z</time></trkpt><trkpt lat="43.08992641499147" lon="13.597067510095801"><ele>114.66666666666667</ele><time>2026-04-18T07:44:50.997Z</time></trkpt><trkpt lat="43.08965299680576" lon="13.597088060766241"><ele>114.33333333333334</ele><time>2026-04-18T07:44:51.997Z</time></trkpt><trkpt lat="43.08978825311756" lon="13.597110918310024"><ele>114.0</ele><time>2026-04-18T07:44:52.997Z</time></trkpt><trkpt lat="43.089659334460464" lon="13.597128805308959"><ele>114.0</ele><time>2026-04-18T07:44:53.997Z</time></trkpt><trkpt lat="43.08954497592861" lon="13.597153575131419"><ele>114.0</ele><time>2026-04-18T07:44:54.997Z</time></trkpt><trkpt lat="43.08944398974592" lon="13.597178413830816"><ele>114.0</ele><time>2026-04-18T07:44:55.997Z</time></trkpt><trkpt lat="43.089337506797214" lon="13.597191825122826"><ele>114.0</ele><time>2026-04-18T07:44:56.997Z</time></trkpt><trkpt lat="43.089215349944915" lon="13.597143719406246"><ele>111.75</ele><time>2026-04-18T07:44:57.999Z</time></trkpt><trkpt lat="43.089071284394876" lon="13.59711752595451"><ele>109.5</ele><time>2026-04-18T07:44:58.999Z</time></trkpt><trkpt lat="43.08893185502309" lon="13.597068890938155"><ele>107.25</ele><time>2026-04-18T07:44:59.999Z</time></trkpt><trkpt lat="43.0887980800496" lon="13.597026462889989"><ele>105.0</ele><time>2026-04-18T07:45:00.999Z</time></trkpt><trkpt lat="43.08866792232823" lon="13.59698904709495"><ele>103.75</ele><time>2026-04-18T07:45:01.999Z</time></trkpt><trkpt lat="43.08854667571092" lon="13.59694219165911"><ele>102.5</ele><time>2026-04-18T07:45:02.999Z</time></trkpt><trkpt lat="43.08845689575104" lon="13.596827947703614"><ele>101.25</ele><time>2026-04-18T07:45:03.999Z</time></trkpt><trkpt lat="43.088397320614725" lon="13.59669377911332"><ele>100.0</ele><time>2026-04-18T07:45:04.999Z</time></trkpt><trkpt lat="43.08834937582411" lon="13.596542558682852"><ele>100.0</ele><time>2026-04-18T07:45:05.999Z</time></trkpt><trkpt lat="43.08830238487481" lon="13.596384430251804"><ele>100.0</ele><time>2026-04-18T07:45:06.999Z</time></trkpt><trkpt lat="43.08824812397955" lon="13.596236050272212"><ele>100.0</ele><time>2026-04-18T07:45:07.999Z</time></trkpt><trkpt lat="43.08821398598732" lon="13.59607751648751"><ele>100.0</ele><time>2026-04-18T07:45:08.999Z</time></trkpt><trkpt lat="43.088181238921464" lon="13.595919096767975"><ele>101.2</ele><time>2026-04-18T07:45:09.999Z</time></trkpt><trkpt lat="43.088150626543886" lon="13.595772216952936"><ele>102.4</ele><time>2026-04-18T07:45:10.999Z</time></trkpt><trkpt lat="43.08812308253356" lon="13.59564355257857"><ele>103.6</ele><time>2026-04-18T07:45:11.999Z</time></trkpt><trkpt lat="43.08809193350448" lon="13.595508187609743"><ele>104.8</ele><time>2026-04-18T07:45:12.999Z</time></trkpt><trkpt lat="43.08806252151198" lon="13.595358901990677"><ele>106.0</ele><time>2026-04-18T07:45:13.999Z</time></trkpt><trkpt lat="43.088038053584214" lon="13.595198128606963"><ele>108.5</ele><time>2026-04-18T07:45:14.999Z</time></trkpt><trkpt lat="43.088023903646565" lon="13.595035519981835"><ele>111.0</ele><time>2026-04-18T07:45:15.999Z</time></trkpt><trkpt lat="43.0880259657762" lon="13.594880057149265"><ele>113.5</ele><time>2026-04-18T07:45:16.999Z</time></trkpt><trkpt lat="43.08804669311101" lon="13.594726337427298"><ele>116.0</ele><time>2026-04-18T07:45:17.999Z</time></trkpt><trkpt lat="43.08808574069885" lon="13.59457408149492"><ele>113.75</ele><time>2026-04-18T07:45:18.999Z</time></trkpt><trkpt lat="43.08816195804142" lon="13.594443839846225"><ele>111.5</ele><time>2026-04-18T07:45:19.999Z</time></trkpt><trkpt lat="43.08822221028041" lon="13.594300393297688"><ele>109.25</ele><time>2026-04-18T07:45:20.999Z</time></trkpt><trkpt lat="43.08831352556785" lon="13.59419467989473"><ele>107.0</ele><time>2026-04-18T07:45:21.999Z</time></trkpt><trkpt lat="43.088396275421744" lon="13.594090759212595"><ele>107.0</ele><time>2026-04-18T07:45:22.999Z</time></trkpt><trkpt lat="43.0885501465189" lon="13.594104274012821"><ele>107.0</ele><time>2026-04-18T07:45:23.999Z</time></trkpt><trkpt lat="43.08869192982455" lon="13.594057510943081"><ele>107.0</ele><time>2026-04-18T07:45:24.999Z</time></trkpt><trkpt lat="43.08883832554915" lon="13.594022269427285"><ele>107.0</ele><time>2026-04-18T07:45:25.999Z</time></trkpt><trkpt lat="43.08898600253323" lon="13.593972052574761"><ele>104.0</ele><time>2026-04-18T07:45:26.999Z</time></trkpt><trkpt lat="43.089139678139986" lon="13.59391864060577"><ele>101.0</ele><time>2026-04-18T07:45:27.999Z</time></trkpt><trkpt lat="43.08929265994464" lon="13.593866335021763"><ele>98.0</ele><time>2026-04-18T07:45:28.999Z</time></trkpt><trkpt lat="43.08945056190967" lon="13.59381674264927"><ele>98.0</ele><time>2026-04-18T07:45:29.999Z</time></trkpt><trkpt lat="43.08960830317079" lon="13.593766668267445"><ele>98.0</ele><time>2026-04-18T07:45:30.999Z</time></trkpt><trkpt lat="43.089759947150334" lon="13.593720314685395"><ele>98.0</ele><time>2026-04-18T07:45:31.999Z</time></trkpt><trkpt lat="43.08990672343142" lon="13.593674518828088"><ele>98.0</ele><time>2026-04-18T07:45:32.999Z</time></trkpt><trkpt lat="43.09004763874004" lon="13.593627590818404"><ele>98.0</ele><time>2026-04-18T07:45:33.999Z</time></trkpt><trkpt lat="43.09017671420645" lon="13.593585156954743"><ele>98.0</ele><time>2026-04-18T07:45:34.999Z</time></trkpt><trkpt lat="43.09029713851817" lon="13.593544735945366"><ele>98.0</ele><time>2026-04-18T07:45:35.999Z</time></trkpt><trkpt lat="43.09039833468013" lon="13.593511625995975"><ele>98.0</ele><time>2026-04-18T07:45:36.999Z</time></trkpt><trkpt lat="43.090470834111095" lon="13.593482135356034"><ele>98.0</ele><time>2026-04-18T07:45:37.999Z</time></trkpt><trkpt lat="43.09045371960969" lon="13.593285171837199"><ele>98.0</ele><time>2026-04-18T07:45:39.999Z</time></trkpt><trkpt lat="43.09042721740936" lon="13.593144478818298"><ele>98.0</ele><time>2026-04-18T07:45:41.999Z</time></trkpt><trkpt lat="43.09033160341281" lon="13.593038533497445"><ele>98.0</ele><time>2026-04-18T07:45:42.999Z</time></trkpt><trkpt lat="43.09022227086089" lon="13.592900716346833"><ele>98.0</ele><time>2026-04-18T07:45:43.999Z</time></trkpt><trkpt lat="43.090106967105235" lon="13.592727365691747"><ele>98.0</ele><time>2026-04-18T07:45:44.999Z</time></trkpt><trkpt lat="43.089984866231624" lon="13.592532156853032"><ele>98.0</ele><time>2026-04-18T07:45:45.999Z</time></trkpt><trkpt lat="43.08985833890438" lon="13.59233105596853"><ele>98.0</ele><time>2026-04-18T07:45:46.999Z</time></trkpt><trkpt lat="43.08973162500661" lon="13.592127992224787"><ele>98.0</ele><time>2026-04-18T07:45:47.999Z</time></trkpt><trkpt lat="43.0896165712447" lon="13.591905952843799"><ele>97.66666666666666</ele><time>2026-04-18T07:45:48.999Z</time></trkpt><trkpt lat="43.08957002224822" lon="13.591661985366985"><ele>97.33333333333334</ele><time>2026-04-18T07:45:49.999Z</time></trkpt><trkpt lat="43.08956793581039" lon="13.591412310103768"><ele>97.0</ele><time>2026-04-18T07:45:50.999Z</time></trkpt><trkpt lat="43.089564719921576" lon="13.591129051987238"><ele>97.0</ele><time>2026-04-18T07:45:51.999Z</time></trkpt><trkpt lat="43.089571325740614" lon="13.590849253148466"><ele>97.0</ele><time>2026-04-18T07:45:52.999Z</time></trkpt><trkpt lat="43.08956032452976" lon="13.590570393873113"><ele>97.0</ele><time>2026-04-18T07:45:53.999Z</time></trkpt><trkpt lat="43.08953727448532" lon="13.59028848169399"><ele>97.66666666666667</ele><time>2026-04-18T07:45:54.999Z</time></trkpt><trkpt lat="43.08949614922116" lon="13.590005600406107"><ele>98.33333333333334</ele><time>2026-04-18T07:45:55.999Z</time></trkpt><trkpt lat="43.089434205719634" lon="13.589725640434578"><ele>99.0</ele><time>2026-04-18T07:45:56.999Z</time></trkpt><trkpt lat="43.089354573666" lon="13.589452795324439"><ele>99.33333333333334</ele><time>2026-04-18T07:45:57.999Z</time></trkpt><trkpt lat="43.08926279292197" lon="13.589182808825537"><ele>99.66666666666667</ele><time>2026-04-18T07:45:58.999Z</time></trkpt><trkpt lat="43.08917494980648" lon="13.588909078647216"><ele>100.0</ele><time>2026-04-18T07:45:59.999Z</time></trkpt><trkpt lat="43.08909737431349" lon="13.588633723136846"><ele>99.66666666666667</ele><time>2026-04-18T07:46:00.999Z</time></trkpt><trkpt lat="43.089033738717724" lon="13.588352656077255"><ele>99.33333333333334</ele><time>2026-04-18T07:46:01.998Z</time></trkpt><trkpt lat="43.08899931907751" lon="13.588060150997737"><ele>99.0</ele><time>2026-04-18T07:46:02.998Z</time></trkpt><trkpt lat="43.08898590034505" lon="13.58776158333187"><ele>99.33333333333334</ele><time>2026-04-18T07:46:03.998Z</time></trkpt><trkpt lat="43.08897107266629" lon="13.587460537408022"><ele>99.66666666666667</ele><time>2026-04-18T07:46:04.998Z</time></trkpt><trkpt lat="43.08894821001342" lon="13.587171717212795"><ele>100.0</ele><time>2026-04-18T07:46:05.998Z</time></trkpt><trkpt lat="43.08892199451405" lon="13.58687524971647"><ele>100.0</ele><time>2026-04-18T07:46:06.998Z</time></trkpt><trkpt lat="43.08889167531456" lon="13.586581057807592"><ele>100.0</ele><time>2026-04-18T07:46:07.998Z</time></trkpt><trkpt lat="43.08885967608257" lon="13.58629065875872"><ele>100.0</ele><time>2026-04-18T07:46:08.998Z</time></trkpt><trkpt lat="43.08882031081076" lon="13.586005331371375"><ele>100.33333333333334</ele><time>2026-04-18T07:46:09.998Z</time></trkpt><trkpt lat="43.08873837915779" lon="13.585739127180902"><ele>100.66666666666666</ele><time>2026-04-18T07:46:10.998Z</time></trkpt><trkpt lat="43.088631510682376" lon="13.585483375277795"><ele>101.0</ele><time>2026-04-18T07:46:11.998Z</time></trkpt><trkpt lat="43.08850799458021" lon="13.585235353205972"><ele>101.0</ele><time>2026-04-18T07:46:12.998Z</time></trkpt><trkpt lat="43.08836957755421" lon="13.585007086980866"><ele>101.0</ele><time>2026-04-18T07:46:13.998Z</time></trkpt><trkpt lat="43.08820664287411" lon="13.584804336203357"><ele>101.0</ele><time>2026-04-18T07:46:14.998Z</time></trkpt><trkpt lat="43.08803484955925" lon="13.584622924469974"><ele>101.0</ele><time>2026-04-18T07:46:15.998Z</time></trkpt><trkpt lat="43.08787614184283" lon="13.584445767521297"><ele>101.0</ele><time>2026-04-18T07:46:16.998Z</time></trkpt><trkpt lat="43.08773396730755" lon="13.584274273655804"><ele>101.0</ele><time>2026-04-18T07:46:17.998Z</time></trkpt><trkpt lat="43.08759487759196" lon="13.584108547727347"><ele>101.0</ele><time>2026-04-18T07:46:18.998Z</time></trkpt><trkpt lat="43.08745383388717" lon="13.583960999445532"><ele>101.0</ele><time>2026-04-18T07:46:19.998Z</time></trkpt><trkpt lat="43.087301199970085" lon="13.583842701621872"><ele>101.0</ele><time>2026-04-18T07:46:20.998Z</time></trkpt><trkpt lat="43.08713832853259" lon="13.58374454917912"><ele>102.33333333333333</ele><time>2026-04-18T07:46:21.998Z</time></trkpt><trkpt lat="43.086978159402335" lon="13.583663125943625"><ele>103.66666666666666</ele><time>2026-04-18T07:46:22.998Z</time></trkpt><trkpt lat="43.086827561328576" lon="13.583567859525033"><ele>105.0</ele><time>2026-04-18T07:46:23.998Z</time></trkpt><trkpt lat="43.08668096755277" lon="13.583465911294544"><ele>106.0</ele><time>2026-04-18T07:46:24.998Z</time></trkpt><trkpt lat="43.08652450018874" lon="13.583365544843327"><ele>107.0</ele><time>2026-04-18T07:46:25.998Z</time></trkpt><trkpt lat="43.0863675197386" lon="13.58326318767942"><ele>108.0</ele><time>2026-04-18T07:46:26.998Z</time></trkpt><trkpt lat="43.08621617621921" lon="13.583149036063348"><ele>108.0</ele><time>2026-04-18T07:46:27.998Z</time></trkpt><trkpt lat="43.08607929017226" lon="13.58303849850488"><ele>108.0</ele><time>2026-04-18T07:46:28.998Z</time></trkpt><trkpt lat="43.0859481143744" lon="13.582937604537403"><ele>108.0</ele><time>2026-04-18T07:46:29.998Z</time></trkpt><trkpt lat="43.08582195513776" lon="13.582836140950178"><ele>108.33333333333334</ele><time>2026-04-18T07:46:30.998Z</time></trkpt><trkpt lat="43.08568814825711" lon="13.582729914792449"><ele>108.66666666666667</ele><time>2026-04-18T07:46:31.998Z</time></trkpt><trkpt lat="43.08555255516342" lon="13.582627531407596"><ele>109.0</ele><time>2026-04-18T07:46:32.998Z</time></trkpt><trkpt lat="43.08540680157215" lon="13.582528852150453"><ele>109.0</ele><time>2026-04-18T07:46:33.998Z</time></trkpt><trkpt lat="43.08525228834082" lon="13.582426733295335"><ele>109.0</ele><time>2026-04-18T07:46:34.998Z</time></trkpt><trkpt lat="43.08510493539552" lon="13.582300265623596"><ele>109.0</ele><time>2026-04-18T07:46:35.998Z</time></trkpt><trkpt lat="43.08494904981406" lon="13.58220060626727"><ele>108.66666666666667</ele><time>2026-04-18T07:46:36.998Z</time></trkpt><trkpt lat="43.084847096675254" lon="13.581965009033215"><ele>108.33333333333334</ele><time>2026-04-18T07:46:37.998Z</time></trkpt><trkpt lat="43.084733243706864" lon="13.58178120313631"><ele>108.0</ele><time>2026-04-18T07:46:38.998Z</time></trkpt><trkpt lat="43.08462735601807" lon="13.581589670746805"><ele>108.0</ele><time>2026-04-18T07:46:39.998Z</time></trkpt><trkpt lat="43.084557412720244" lon="13.581368229413915"><ele>108.0</ele><time>2026-04-18T07:46:40.998Z</time></trkpt><trkpt lat="43.084524407900076" lon="13.581126449427831"><ele>108.0</ele><time>2026-04-18T07:46:41.998Z</time></trkpt><trkpt lat="43.08450001956837" lon="13.580868632867192"><ele>107.66666666666666</ele><time>2026-04-18T07:46:42.998Z</time></trkpt><trkpt lat="43.084474694302045" lon="13.580609482349894"><ele>107.33333333333333</ele><time>2026-04-18T07:46:43.998Z</time></trkpt><trkpt lat="43.084449440297945" lon="13.580339076526311"><ele>107.0</ele><time>2026-04-18T07:46:44.998Z</time></trkpt><trkpt lat="43.08443665798155" lon="13.580045157369355"><ele>107.0</ele><time>2026-04-18T07:46:45.998Z</time></trkpt><trkpt lat="43.08443604400445" lon="13.579737033522305"><ele>107.0</ele><time>2026-04-18T07:46:46.998Z</time></trkpt><trkpt lat="43.0844325732027" lon="13.579423194587928"><ele>107.0</ele><time>2026-04-18T07:46:47.998Z</time></trkpt><trkpt lat="43.08442322942145" lon="13.579109225358454"><ele>107.0</ele><time>2026-04-18T07:46:48.998Z</time></trkpt><trkpt lat="43.08441421750883" lon="13.578796039058544"><ele>108.0</ele><time>2026-04-18T07:46:49.998Z</time></trkpt><trkpt lat="43.08441051751445" lon="13.578474012311947"><ele>109.0</ele><time>2026-04-18T07:46:50.998Z</time></trkpt><trkpt lat="43.08440594738878" lon="13.578153182469201"><ele>108.5</ele><time>2026-04-18T07:46:51.998Z</time></trkpt><trkpt lat="43.084402182477874" lon="13.577834390773404"><ele>108.0</ele><time>2026-04-18T07:46:52.998Z</time></trkpt><trkpt lat="43.08440040559019" lon="13.57751119617976"><ele>108.0</ele><time>2026-04-18T07:46:53.998Z</time></trkpt><trkpt lat="43.084400774159036" lon="13.577186414872468"><ele>108.0</ele><time>2026-04-18T07:46:54.998Z</time></trkpt><trkpt lat="43.08439858364993" lon="13.576862514798728"><ele>108.0</ele><time>2026-04-18T07:46:55.997Z</time></trkpt><trkpt lat="43.08439324275315" lon="13.576539960752044"><ele>108.0</ele><time>2026-04-18T07:46:56.997Z</time></trkpt><trkpt lat="43.0843862495158" lon="13.576217769560765"><ele>107.0</ele><time>2026-04-18T07:46:57.997Z</time></trkpt><trkpt lat="43.08437895481671" lon="13.57589692602861"><ele>106.0</ele><time>2026-04-18T07:46:58.997Z</time></trkpt><trkpt lat="43.08437246216225" lon="13.575577483239123"><ele>107.0</ele><time>2026-04-18T07:46:59.997Z</time></trkpt><trkpt lat="43.0843681874285" lon="13.575256449528165"><ele>108.0</ele><time>2026-04-18T07:47:00.997Z</time></trkpt><trkpt lat="43.08436835780237" lon="13.574937620921592"><ele>108.0</ele><time>2026-04-18T07:47:01.997Z</time></trkpt><trkpt lat="43.084370522142194" lon="13.57461637694162"><ele>108.0</ele><time>2026-04-18T07:47:02.999Z</time></trkpt><trkpt lat="43.08437989051264" lon="13.574302554267442"><ele>108.5</ele><time>2026-04-18T07:47:03.999Z</time></trkpt><trkpt lat="43.0843957399106" lon="13.57398864147473"><ele>109.0</ele><time>2026-04-18T07:47:04.999Z</time></trkpt><trkpt lat="43.08441157651907" lon="13.573673905635392"><ele>109.0</ele><time>2026-04-18T07:47:05.999Z</time></trkpt><trkpt lat="43.084422909549815" lon="13.573365354644423"><ele>109.0</ele><time>2026-04-18T07:47:06.999Z</time></trkpt><trkpt lat="43.08443163923171" lon="13.57305911665554"><ele>109.0</ele><time>2026-04-18T07:47:07.999Z</time></trkpt><trkpt lat="43.0844392316262" lon="13.57275333665399"><ele>109.0</ele><time>2026-04-18T07:47:08.999Z</time></trkpt><trkpt lat="43.08444168368349" lon="13.572455142079187"><ele>109.0</ele><time>2026-04-18T07:47:09.999Z</time></trkpt><trkpt lat="43.08443407159717" lon="13.572154606293067"><ele>109.0</ele><time>2026-04-18T07:47:10.999Z</time></trkpt><trkpt lat="43.08440222229547" lon="13.571859755309497"><ele>109.0</ele><time>2026-04-18T07:47:11.999Z</time></trkpt><trkpt lat="43.084353408176824" lon="13.571569248844664"><ele>109.0</ele><time>2026-04-18T07:47:12.999Z</time></trkpt><trkpt lat="43.08428259134026" lon="13.571291427413911"><ele>109.0</ele><time>2026-04-18T07:47:13.999Z</time></trkpt><trkpt lat="43.08419556214758" lon="13.571024596681871"><ele>109.66666666666667</ele><time>2026-04-18T07:47:14.999Z</time></trkpt><trkpt lat="43.08409647188521" lon="13.57076634340658"><ele>110.33333333333334</ele><time>2026-04-18T07:47:15.999Z</time></trkpt><trkpt lat="43.08398967527659" lon="13.570516461801967"><ele>111.0</ele><time>2026-04-18T07:47:16.999Z</time></trkpt><trkpt lat="43.08388327498981" lon="13.570272154412892"><ele>111.0</ele><time>2026-04-18T07:47:17.999Z</time></trkpt><trkpt lat="43.08376505385602" lon="13.570038547339578"><ele>111.0</ele><time>2026-04-18T07:47:18.999Z</time></trkpt><trkpt lat="43.08363141524328" lon="13.56983681553275"><ele>111.0</ele><time>2026-04-18T07:47:19.999Z</time></trkpt><trkpt lat="43.08347250587264" lon="13.569674455911969"><ele>111.66666666666666</ele><time>2026-04-18T07:47:20.999Z</time></trkpt><trkpt lat="43.08330749989357" lon="13.569514384418296"><ele>112.33333333333333</ele><time>2026-04-18T07:47:21.999Z</time></trkpt><trkpt lat="43.08313787577748" lon="13.56935835635519"><ele>113.0</ele><time>2026-04-18T07:47:22.999Z</time></trkpt><trkpt lat="43.082966846961746" lon="13.569210812826471"><ele>113.0</ele><time>2026-04-18T07:47:23.999Z</time></trkpt><trkpt lat="43.08279043331988" lon="13.569062805293507"><ele>113.0</ele><time>2026-04-18T07:47:24.999Z</time></trkpt><trkpt lat="43.082607448261626" lon="13.568923683188823"><ele>113.0</ele><time>2026-04-18T07:47:25.999Z</time></trkpt><trkpt lat="43.082419723946366" lon="13.568792783436502"><ele>114.0</ele><time>2026-04-18T07:47:26.999Z</time></trkpt><trkpt lat="43.0822338161394" lon="13.568663153013684"><ele>115.0</ele><time>2026-04-18T07:47:27.999Z</time></trkpt><trkpt lat="43.08203723482635" lon="13.568522859921682"><ele>116.0</ele><time>2026-04-18T07:47:28.999Z</time></trkpt><trkpt lat="43.08184369653627" lon="13.568387134731198"><ele>116.0</ele><time>2026-04-18T07:47:29.999Z</time></trkpt><trkpt lat="43.08165247448643" lon="13.56824612066173"><ele>116.0</ele><time>2026-04-18T07:47:30.999Z</time></trkpt><trkpt lat="43.08146355867113" lon="13.56810196023998"><ele>116.0</ele><time>2026-04-18T07:47:31.999Z</time></trkpt><trkpt lat="43.08128332580429" lon="13.56795025301859"><ele>116.0</ele><time>2026-04-18T07:47:32.999Z</time></trkpt><trkpt lat="43.081117534991165" lon="13.567775499265277"><ele>116.0</ele><time>2026-04-18T07:47:33.999Z</time></trkpt><trkpt lat="43.08097257191719" lon="13.567563411330138"><ele>116.0</ele><time>2026-04-18T07:47:34.999Z</time></trkpt><trkpt lat="43.08084556973501" lon="13.56732977213548"><ele>115.66666666666666</ele><time>2026-04-18T07:47:35.999Z</time></trkpt><trkpt lat="43.080732497850775" lon="13.567084296900475"><ele>115.33333333333334</ele><time>2026-04-18T07:47:36.999Z</time></trkpt><trkpt lat="43.0806292109516" lon="13.56682812117499"><ele>115.0</ele><time>2026-04-18T07:47:37.999Z</time></trkpt><trkpt lat="43.080533384817656" lon="13.566565551805313"><ele>115.66666666666667</ele><time>2026-04-18T07:47:38.999Z</time></trkpt><trkpt lat="43.08044796345053" lon="13.56629560666585"><ele>116.33333333333334</ele><time>2026-04-18T07:47:39.999Z</time></trkpt><trkpt lat="43.080375419052096" lon="13.566017255470788"><ele>117.0</ele><time>2026-04-18T07:47:40.999Z</time></trkpt><trkpt lat="43.080308329421996" lon="13.565741039107856"><ele>117.0</ele><time>2026-04-18T07:47:41.999Z</time></trkpt><trkpt lat="43.08023895401789" lon="13.565463202565267"><ele>117.0</ele><time>2026-04-18T07:47:42.999Z</time></trkpt><trkpt lat="43.08016999831348" lon="13.565186689764"><ele>117.0</ele><time>2026-04-18T07:47:43.999Z</time></trkpt><trkpt lat="43.0801055577305" lon="13.564921654023852"><ele>117.0</ele><time>2026-04-18T07:47:44.999Z</time></trkpt><trkpt lat="43.08005040557284" lon="13.564660413216313"><ele>117.0</ele><time>2026-04-18T07:47:45.999Z</time></trkpt><trkpt lat="43.080000943016216" lon="13.564398135047776"><ele>117.0</ele><time>2026-04-18T07:47:46.999Z</time></trkpt><trkpt lat="43.0799564194183" lon="13.564139048959595"><ele>120.0</ele><time>2026-04-18T07:47:47.999Z</time></trkpt><trkpt lat="43.079911251463905" lon="13.563882466924584"><ele>123.0</ele><time>2026-04-18T07:47:48.999Z</time></trkpt><trkpt lat="43.07985617911055" lon="13.563631161242661"><ele>126.0</ele><time>2026-04-18T07:47:49.999Z</time></trkpt><trkpt lat="43.07978955562354" lon="13.563385541528666"><ele>126.0</ele><time>2026-04-18T07:47:50.999Z</time></trkpt><trkpt lat="43.07972289062233" lon="13.563147989092702"><ele>126.0</ele><time>2026-04-18T07:47:51.999Z</time></trkpt><trkpt lat="43.07965904686209" lon="13.562925863178187"><ele>126.0</ele><time>2026-04-18T07:47:52.999Z</time></trkpt><trkpt lat="43.079598308372134" lon="13.562715274752493"><ele>126.0</ele><time>2026-04-18T07:47:53.999Z</time></trkpt><trkpt lat="43.07955139022969" lon="13.562515351687107"><ele>126.0</ele><time>2026-04-18T07:47:54.999Z</time></trkpt><trkpt lat="43.07953642479406" lon="13.562319273848027"><ele>126.0</ele><time>2026-04-18T07:47:55.999Z</time></trkpt><trkpt lat="43.07956181263623" lon="13.562120678578198"><ele>126.0</ele><time>2026-04-18T07:47:56.999Z</time></trkpt><trkpt lat="43.0796277972252" lon="13.56193372088494"><ele>126.0</ele><time>2026-04-18T07:47:57.999Z</time></trkpt><trkpt lat="43.079713984657715" lon="13.561766526051029"><ele>126.0</ele><time>2026-04-18T07:47:58.999Z</time></trkpt><trkpt lat="43.07979448388853" lon="13.561598623023622"><ele>126.0</ele><time>2026-04-18T07:47:59.999Z</time></trkpt><trkpt lat="43.07985685065552" lon="13.561435083948368"><ele>126.0</ele><time>2026-04-18T07:48:00.999Z</time></trkpt><trkpt lat="43.079879448737564" lon="13.56126850779828"><ele>124.75</ele><time>2026-04-18T07:48:01.999Z</time></trkpt><trkpt lat="43.079856606383295" lon="13.56110182386515"><ele>123.5</ele><time>2026-04-18T07:48:02.999Z</time></trkpt><trkpt lat="43.079792813025804" lon="13.5609481200994"><ele>122.25</ele><time>2026-04-18T07:48:03.999Z</time></trkpt><trkpt lat="43.079709503750024" lon="13.56079361551716"><ele>121.0</ele><time>2026-04-18T07:48:04.999Z</time></trkpt><trkpt lat="43.07961786639548" lon="13.560635219640083"><ele>121.0</ele><time>2026-04-18T07:48:05.999Z</time></trkpt><trkpt lat="43.07954488466332" lon="13.560451403678075"><ele>121.0</ele><time>2026-04-18T07:48:06.999Z</time></trkpt><trkpt lat="43.07950629901021" lon="13.560247182521948"><ele>121.0</ele><time>2026-04-18T07:48:07.999Z</time></trkpt><trkpt lat="43.079534772953146" lon="13.560034774597797"><ele>121.0</ele><time>2026-04-18T07:48:08.999Z</time></trkpt><trkpt lat="43.07960223756141" lon="13.55982687604912"><ele>121.0</ele><time>2026-04-18T07:48:09.999Z</time></trkpt><trkpt lat="43.079667581468605" lon="13.559599737342753"><ele>121.0</ele><time>2026-04-18T07:48:10.999Z</time></trkpt><trkpt lat="43.079729743395966" lon="13.55936520555189"><ele>121.33333333333334</ele><time>2026-04-18T07:48:11.999Z</time></trkpt><trkpt lat="43.07978519695554" lon="13.559132770633443"><ele>121.66666666666666</ele><time>2026-04-18T07:48:12.999Z</time></trkpt><trkpt lat="43.079817587986874" lon="13.558900629331022"><ele>122.0</ele><time>2026-04-18T07:48:13.999Z</time></trkpt><trkpt lat="43.07982280169109" lon="13.558655524161562"><ele>122.66666666666666</ele><time>2026-04-18T07:48:14.999Z</time></trkpt><trkpt lat="43.07979758641717" lon="13.558395681202935"><ele>123.33333333333334</ele><time>2026-04-18T07:48:15.999Z</time></trkpt><trkpt lat="43.07976217888911" lon="13.558133648199886"><ele>124.0</ele><time>2026-04-18T07:48:16.998Z</time></trkpt><trkpt lat="43.079733220757554" lon="13.557871759832288"><ele>124.33333333333334</ele><time>2026-04-18T07:48:17.998Z</time></trkpt><trkpt lat="43.079696845309336" lon="13.557601165270205"><ele>124.66666666666666</ele><time>2026-04-18T07:48:18.998Z</time></trkpt><trkpt lat="43.079648162916854" lon="13.557339170677082"><ele>125.0</ele><time>2026-04-18T07:48:19.998Z</time></trkpt><trkpt lat="43.07959107379045" lon="13.557073989771762"><ele>125.0</ele><time>2026-04-18T07:48:20.998Z</time></trkpt><trkpt lat="43.079534438389395" lon="13.556803404805994"><ele>125.0</ele><time>2026-04-18T07:48:21.998Z</time></trkpt><trkpt lat="43.07947761929041" lon="13.556529259248945"><ele>125.0</ele><time>2026-04-18T07:48:22.998Z</time></trkpt><trkpt lat="43.07942237342118" lon="13.556259815330355"><ele>124.33333333333333</ele><time>2026-04-18T07:48:23.998Z</time></trkpt><trkpt lat="43.07936359581637" lon="13.555983498310411"><ele>123.66666666666666</ele><time>2026-04-18T07:48:24.998Z</time></trkpt><trkpt lat="43.07930689547383" lon="13.555714268584957"><ele>123.0</ele><time>2026-04-18T07:48:25.998Z</time></trkpt><trkpt lat="43.07925063606418" lon="13.555445598691474"><ele>122.66666666666666</ele><time>2026-04-18T07:48:26.998Z</time></trkpt><trkpt lat="43.07919552374051" lon="13.555180761102054"><ele>122.33333333333333</ele><time>2026-04-18T07:48:27.998Z</time></trkpt><trkpt lat="43.07914254172453" lon="13.554913960807951"><ele>122.0</ele><time>2026-04-18T07:48:28.998Z</time></trkpt><trkpt lat="43.079087952469315" lon="13.55465153403826"><ele>125.33333333333333</ele><time>2026-04-18T07:48:29.998Z</time></trkpt><trkpt lat="43.07903296577579" lon="13.554391399794657"><ele>128.66666666666666</ele><time>2026-04-18T07:48:30.998Z</time></trkpt><trkpt lat="43.07897893619429" lon="13.554152713297986"><ele>132.0</ele><time>2026-04-18T07:48:31.998Z</time></trkpt><trkpt lat="43.0789145730138" lon="13.55391439066775"><ele>132.33333333333334</ele><time>2026-04-18T07:48:32.998Z</time></trkpt><trkpt lat="43.07883507600196" lon="13.553683111059463"><ele>132.66666666666669</ele><time>2026-04-18T07:48:33.998Z</time></trkpt><trkpt lat="43.07873807405348" lon="13.553456505466151"><ele>133.0</ele><time>2026-04-18T07:48:34.998Z</time></trkpt><trkpt lat="43.078623186566645" lon="13.553239068892168"><ele>133.0</ele><time>2026-04-18T07:48:35.998Z</time></trkpt><trkpt lat="43.07850027783192" lon="13.553033586881162"><ele>133.0</ele><time>2026-04-18T07:48:36.998Z</time></trkpt><trkpt lat="43.07837856156012" lon="13.55284290163051"><ele>133.0</ele><time>2026-04-18T07:48:37.998Z</time></trkpt><trkpt lat="43.078266622657154" lon="13.552665707374455"><ele>136.5</ele><time>2026-04-18T07:48:38.998Z</time></trkpt><trkpt lat="43.078164619644724" lon="13.552510365110527"><ele>140.0</ele><time>2026-04-18T07:48:39.998Z</time></trkpt><trkpt lat="43.07806987520454" lon="13.55236971422175"><ele>143.5</ele><time>2026-04-18T07:48:40.998Z</time></trkpt><trkpt lat="43.07797249500908" lon="13.552249130598907"><ele>147.0</ele><time>2026-04-18T07:48:41.998Z</time></trkpt><trkpt lat="43.0778403202467" lon="13.552165076752544"><ele>147.0</ele><time>2026-04-18T07:48:42.998Z</time></trkpt><trkpt lat="43.07769751280036" lon="13.552111329120763"><ele>147.0</ele><time>2026-04-18T07:48:43.998Z</time></trkpt><trkpt lat="43.07754500704448" lon="13.552102496587025"><ele>147.0</ele><time>2026-04-18T07:48:44.998Z</time></trkpt><trkpt lat="43.07739978178015" lon="13.552100278066725"><ele>147.0</ele><time>2026-04-18T07:48:45.998Z</time></trkpt><trkpt lat="43.07727286894534" lon="13.551993009051618"><ele>143.66666666666666</ele><time>2026-04-18T07:48:46.998Z</time></trkpt><trkpt lat="43.07713296103178" lon="13.551872281495092"><ele>140.33333333333331</ele><time>2026-04-18T07:48:47.998Z</time></trkpt><trkpt lat="43.07698593627879" lon="13.551722724751526"><ele>137.0</ele><time>2026-04-18T07:48:48.998Z</time></trkpt><trkpt lat="43.07683129799296" lon="13.551561582488842"><ele>137.0</ele><time>2026-04-18T07:48:49.998Z</time></trkpt><trkpt lat="43.07668109823015" lon="13.55139174050573"><ele>137.0</ele><time>2026-04-18T07:48:50.998Z</time></trkpt><trkpt lat="43.076536812246644" lon="13.551206207424618"><ele>137.0</ele><time>2026-04-18T07:48:51.998Z</time></trkpt><trkpt lat="43.076394145185354" lon="13.551008566391785"><ele>137.66666666666666</ele><time>2026-04-18T07:48:52.998Z</time></trkpt><trkpt lat="43.07624404456131" lon="13.550818300856795"><ele>138.33333333333334</ele><time>2026-04-18T07:48:53.998Z</time></trkpt><trkpt lat="43.07611741283272" lon="13.550601617734815"><ele>139.0</ele><time>2026-04-18T07:48:54.998Z</time></trkpt><trkpt lat="43.07599133632802" lon="13.55037837989678"><ele>137.0</ele><time>2026-04-18T07:48:55.998Z</time></trkpt><trkpt lat="43.075869978723425" lon="13.550168513177017"><ele>135.0</ele><time>2026-04-18T07:48:56.998Z</time></trkpt><trkpt lat="43.075755876223674" lon="13.549972966370087"><ele>133.0</ele><time>2026-04-18T07:48:57.998Z</time></trkpt><trkpt lat="43.0756581867276" lon="13.549778224013034"><ele>136.66666666666669</ele><time>2026-04-18T07:48:58.998Z</time></trkpt><trkpt lat="43.07558848956015" lon="13.549573855713058"><ele>140.33333333333334</ele><time>2026-04-18T07:48:59.998Z</time></trkpt><trkpt lat="43.07556907550632" lon="13.549331901329488"><ele>144.0</ele><time>2026-04-18T07:49:00.998Z</time></trkpt><trkpt lat="43.07555053189905" lon="13.549081417030482"><ele>144.0</ele><time>2026-04-18T07:49:01.998Z</time></trkpt><trkpt lat="43.075532738521765" lon="13.548834507235773"><ele>144.0</ele><time>2026-04-18T07:49:02.998Z</time></trkpt><trkpt lat="43.07551251905702" lon="13.54857613289434"><ele>144.0</ele><time>2026-04-18T07:49:03.998Z</time></trkpt><trkpt lat="43.07549415687906" lon="13.54830711468858"><ele>144.0</ele><time>2026-04-18T07:49:04.998Z</time></trkpt><trkpt lat="43.07547222468845" lon="13.54803484819454"><ele>144.0</ele><time>2026-04-18T07:49:05.998Z</time></trkpt><trkpt lat="43.07544212023999" lon="13.547764651808373"><ele>144.0</ele><time>2026-04-18T07:49:06.998Z</time></trkpt><trkpt lat="43.075421685150495" lon="13.547496504811"><ele>144.0</ele><time>2026-04-18T07:49:07.998Z</time></trkpt><trkpt lat="43.07539733054296" lon="13.547228881765724"><ele>144.0</ele><time>2026-04-18T07:49:08.999Z</time></trkpt><trkpt lat="43.07537976558098" lon="13.546959939774613"><ele>144.0</ele><time>2026-04-18T07:49:09.999Z</time></trkpt><trkpt lat="43.075372588225456" lon="13.54667794602832"><ele>144.0</ele><time>2026-04-18T07:49:10.999Z</time></trkpt><trkpt lat="43.07538293148017" lon="13.546391474675568"><ele>144.0</ele><time>2026-04-18T07:49:11.999Z</time></trkpt><trkpt lat="43.07540147338014" lon="13.546102950095014"><ele>144.0</ele><time>2026-04-18T07:49:12.999Z</time></trkpt><trkpt lat="43.0754194163043" lon="13.545809747916614"><ele>143.66666666666666</ele><time>2026-04-18T07:49:13.999Z</time></trkpt><trkpt lat="43.07543678191777" lon="13.545515673653039"><ele>143.33333333333331</ele><time>2026-04-18T07:49:14.999Z</time></trkpt><trkpt lat="43.07545251834251" lon="13.545219370192534"><ele>143.0</ele><time>2026-04-18T07:49:15.999Z</time></trkpt><trkpt lat="43.07546831179648" lon="13.544924620526126"><ele>142.66666666666666</ele><time>2026-04-18T07:49:16.999Z</time></trkpt><trkpt lat="43.07548271201223" lon="13.544635340876281"><ele>142.33333333333334</ele><time>2026-04-18T07:49:17.999Z</time></trkpt><trkpt lat="43.07549742150249" lon="13.544350249213695"><ele>142.0</ele><time>2026-04-18T07:49:18.999Z</time></trkpt><trkpt lat="43.075514462197646" lon="13.544068225830884"><ele>141.0</ele><time>2026-04-18T07:49:19.999Z</time></trkpt><trkpt lat="43.07553328600196" lon="13.54379231240023"><ele>140.0</ele><time>2026-04-18T07:49:20.999Z</time></trkpt><trkpt lat="43.07554961069865" lon="13.543527297853858"><ele>139.0</ele><time>2026-04-18T07:49:21.999Z</time></trkpt><trkpt lat="43.0755626731477" lon="13.543262131903978"><ele>139.0</ele><time>2026-04-18T07:49:22.999Z</time></trkpt><trkpt lat="43.07557617553078" lon="13.543008366622981"><ele>139.0</ele><time>2026-04-18T07:49:23.999Z</time></trkpt><trkpt lat="43.07558228186993" lon="13.54276663576983"><ele>139.0</ele><time>2026-04-18T07:49:24.999Z</time></trkpt><trkpt lat="43.075555420356224" lon="13.542539083889196"><ele>138.66666666666669</ele><time>2026-04-18T07:49:25.999Z</time></trkpt><trkpt lat="43.07547670491574" lon="13.542327856866683"><ele>138.33333333333334</ele><time>2026-04-18T07:49:26.999Z</time></trkpt><trkpt lat="43.07536783379556" lon="13.542135309467405"><ele>138.0</ele><time>2026-04-18T07:49:27.999Z</time></trkpt><trkpt lat="43.07524151364468" lon="13.541946437565889"><ele>136.66666666666666</ele><time>2026-04-18T07:49:28.999Z</time></trkpt><trkpt lat="43.075124973336706" lon="13.541748828791398"><ele>135.33333333333331</ele><time>2026-04-18T07:49:29.999Z</time></trkpt><trkpt lat="43.075012802917975" lon="13.541550656757362"><ele>134.0</ele><time>2026-04-18T07:49:30.999Z</time></trkpt><trkpt lat="43.07489817970819" lon="13.541367513382419"><ele>136.33333333333331</ele><time>2026-04-18T07:49:31.999Z</time></trkpt><trkpt lat="43.074774065402146" lon="13.541191967430143"><ele>138.66666666666666</ele><time>2026-04-18T07:49:32.999Z</time></trkpt><trkpt lat="43.07462861746532" lon="13.541029829029076"><ele>141.0</ele><time>2026-04-18T07:49:33.999Z</time></trkpt><trkpt lat="43.074345343118495" lon="13.54075936255649"><ele>141.0</ele><time>2026-04-18T07:49:35.999Z</time></trkpt><trkpt lat="43.074221216755866" lon="13.540632939009633"><ele>141.0</ele><time>2026-04-18T07:49:36.999Z</time></trkpt><trkpt lat="43.074113871160506" lon="13.540504575865123"><ele>141.0</ele><time>2026-04-18T07:49:37.999Z</time></trkpt><trkpt lat="43.07401663443637" lon="13.54037697548571"><ele>141.0</ele><time>2026-04-18T07:49:38.999Z</time></trkpt><trkpt lat="43.073921631011245" lon="13.540241069903967"><ele>143.25</ele><time>2026-04-18T07:49:39.999Z</time></trkpt><trkpt lat="43.07385090554753" lon="13.540100160747746"><ele>145.5</ele><time>2026-04-18T07:49:40.999Z</time></trkpt><trkpt lat="43.073795979010434" lon="13.539964603276303"><ele>147.75</ele><time>2026-04-18T07:49:41.999Z</time></trkpt><trkpt lat="43.07374273956225" lon="13.539847333870386"><ele>150.0</ele><time>2026-04-18T07:49:42.999Z</time></trkpt><trkpt lat="43.073871801058935" lon="13.539609085489875"><ele>146.33333333333334</ele><time>2026-04-18T07:49:43.999Z</time></trkpt><trkpt lat="43.073897015962025" lon="13.539386571538854"><ele>142.66666666666669</ele><time>2026-04-18T07:49:44.999Z</time></trkpt><trkpt lat="43.07394598425755" lon="13.539166160749195"><ele>139.0</ele><time>2026-04-18T07:49:45.999Z</time></trkpt><trkpt lat="43.07399133840523" lon="13.538946205656151"><ele>139.0</ele><time>2026-04-18T07:49:46.999Z</time></trkpt><trkpt lat="43.07404045941032" lon="13.538726644972717"><ele>139.0</ele><time>2026-04-18T07:49:47.999Z</time></trkpt><trkpt lat="43.074094297102086" lon="13.538507379084898"><ele>139.0</ele><time>2026-04-18T07:49:48.999Z</time></trkpt><trkpt lat="43.074150839652745" lon="13.538292294921504"><ele>139.66666666666669</ele><time>2026-04-18T07:49:49.999Z</time></trkpt><trkpt lat="43.07420545873957" lon="13.53807454073759"><ele>140.33333333333334</ele><time>2026-04-18T07:49:50.999Z</time></trkpt><trkpt lat="43.07425686075906" lon="13.537849359645229"><ele>141.0</ele><time>2026-04-18T07:49:51.999Z</time></trkpt><trkpt lat="43.07429709518002" lon="13.537628686507901"><ele>142.0</ele><time>2026-04-18T07:49:52.999Z</time></trkpt><trkpt lat="43.074322987907124" lon="13.537391297938264"><ele>143.0</ele><time>2026-04-18T07:49:53.999Z</time></trkpt><trkpt lat="43.074333164009076" lon="13.53714972712064"><ele>144.0</ele><time>2026-04-18T07:49:54.999Z</time></trkpt><trkpt lat="43.07434161346133" lon="13.536903288055582"><ele>144.33333333333334</ele><time>2026-04-18T07:49:55.999Z</time></trkpt><trkpt lat="43.07435951106055" lon="13.536650927798716"><ele>144.66666666666669</ele><time>2026-04-18T07:49:56.999Z</time></trkpt><trkpt lat="43.074389679819916" lon="13.536406762243978"><ele>145.0</ele><time>2026-04-18T07:49:57.999Z</time></trkpt><trkpt lat="43.074440098125514" lon="13.53617604278196"><ele>146.66666666666669</ele><time>2026-04-18T07:49:58.999Z</time></trkpt><trkpt lat="43.0745093360757" lon="13.535951502557662"><ele>148.33333333333334</ele><time>2026-04-18T07:49:59.999Z</time></trkpt><trkpt lat="43.07458630325758" lon="13.53573996368087"><ele>150.0</ele><time>2026-04-18T07:50:00.999Z</time></trkpt><trkpt lat="43.07466161672317" lon="13.53553923172742"><ele>152.33333333333334</ele><time>2026-04-18T07:50:01.999Z</time></trkpt><trkpt lat="43.0747415873462" lon="13.535338926478913"><ele>154.66666666666669</ele><time>2026-04-18T07:50:02.999Z</time></trkpt><trkpt lat="43.074828296194276" lon="13.53515223937123"><ele>157.0</ele><time>2026-04-18T07:50:03.999Z</time></trkpt><trkpt lat="43.074914757300284" lon="13.53497536151898"><ele>155.0</ele><time>2026-04-18T07:50:04.999Z</time></trkpt><trkpt lat="43.07500130473696" lon="13.534799173420982"><ele>153.0</ele><time>2026-04-18T07:50:05.999Z</time></trkpt><trkpt lat="43.07507657096851" lon="13.534619177064442"><ele>151.0</ele><time>2026-04-18T07:50:06.999Z</time></trkpt><trkpt lat="43.07511010166258" lon="13.534413392426146"><ele>151.0</ele><time>2026-04-18T07:50:07.999Z</time></trkpt><trkpt lat="43.07510926006172" lon="13.534201409938364"><ele>151.0</ele><time>2026-04-18T07:50:08.999Z</time></trkpt><trkpt lat="43.07508571941121" lon="13.53398744913061"><ele>151.0</ele><time>2026-04-18T07:50:09.999Z</time></trkpt><trkpt lat="43.07505361278158" lon="13.533771980888215"><ele>151.66666666666669</ele><time>2026-04-18T07:50:10.999Z</time></trkpt><trkpt lat="43.075024198435166" lon="13.533550343888486"><ele>152.33333333333334</ele><time>2026-04-18T07:50:11.999Z</time></trkpt><trkpt lat="43.07500398497579" lon="13.53332750908066"><ele>153.0</ele><time>2026-04-18T07:50:12.999Z</time></trkpt><trkpt lat="43.07499411152686" lon="13.533103450905196"><ele>154.0</ele><time>2026-04-18T07:50:13.999Z</time></trkpt><trkpt lat="43.074990519689294" lon="13.53288293641467"><ele>155.0</ele><time>2026-04-18T07:50:14.999Z</time></trkpt><trkpt lat="43.074986291231546" lon="13.53266161486564"><ele>156.0</ele><time>2026-04-18T07:50:15.999Z</time></trkpt><trkpt lat="43.07497313930143" lon="13.5324412727463"><ele>156.0</ele><time>2026-04-18T07:50:16.999Z</time></trkpt><trkpt lat="43.074954796672635" lon="13.532218978946329"><ele>156.0</ele><time>2026-04-18T07:50:17.999Z</time></trkpt><trkpt lat="43.07493203845909" lon="13.532002428099833"><ele>156.0</ele><time>2026-04-18T07:50:18.999Z</time></trkpt><trkpt lat="43.07490775378778" lon="13.53178389115593"><ele>160.66666666666666</ele><time>2026-04-18T07:50:19.999Z</time></trkpt><trkpt lat="43.074881491421145" lon="13.53156285441218"><ele>165.33333333333331</ele><time>2026-04-18T07:50:20.999Z</time></trkpt><trkpt lat="43.074854539493664" lon="13.531341133028192"><ele>170.0</ele><time>2026-04-18T07:50:21.999Z</time></trkpt><trkpt lat="43.07482697663369" lon="13.531116167413069"><ele>170.0</ele><time>2026-04-18T07:50:22.999Z</time></trkpt><trkpt lat="43.074796156420824" lon="13.5309002219118"><ele>170.0</ele><time>2026-04-18T07:50:23.999Z</time></trkpt><trkpt lat="43.0747561853387" lon="13.530683762623976"><ele>170.0</ele><time>2026-04-18T07:50:24.999Z</time></trkpt><trkpt lat="43.07471119179416" lon="13.530464471862208"><ele>168.0</ele><time>2026-04-18T07:50:25.999Z</time></trkpt><trkpt lat="43.07465977769937" lon="13.530255197121098"><ele>166.0</ele><time>2026-04-18T07:50:26.999Z</time></trkpt><trkpt lat="43.07460473125469" lon="13.530057840542847"><ele>164.0</ele><time>2026-04-18T07:50:27.999Z</time></trkpt><trkpt lat="43.07455047572451" lon="13.529876021179136"><ele>164.0</ele><time>2026-04-18T07:50:28.999Z</time></trkpt><trkpt lat="43.07450280582848" lon="13.529707631472354"><ele>164.0</ele><time>2026-04-18T07:50:29.999Z</time></trkpt><trkpt lat="43.074450324895864" lon="13.52955358880349"><ele>164.0</ele><time>2026-04-18T07:50:30.999Z</time></trkpt><trkpt lat="43.074392522681535" lon="13.52941427285345"><ele>164.0</ele><time>2026-04-18T07:50:31.999Z</time></trkpt><trkpt lat="43.074320952538066" lon="13.52928793844963"><ele>162.79999999999998</ele><time>2026-04-18T07:50:32.999Z</time></trkpt><trkpt lat="43.0742455059853" lon="13.529180986093827"><ele>161.6</ele><time>2026-04-18T07:50:33.999Z</time></trkpt><trkpt lat="43.074171098724015" lon="13.529085067846335"><ele>160.4</ele><time>2026-04-18T07:50:34.999Z</time></trkpt><trkpt lat="43.07409872896156" lon="13.528995218387443"><ele>159.2</ele><time>2026-04-18T07:50:35.998Z</time></trkpt><trkpt lat="43.07402617596201" lon="13.528918812606689"><ele>158.0</ele><time>2026-04-18T07:50:36.998Z</time></trkpt><trkpt lat="43.07395267675961" lon="13.528852219040665"><ele>159.2</ele><time>2026-04-18T07:50:37.998Z</time></trkpt><trkpt lat="43.07387073638632" lon="13.52877950838625"><ele>160.4</ele><time>2026-04-18T07:50:38.998Z</time></trkpt><trkpt lat="43.073788277666736" lon="13.528698873561966"><ele>161.6</ele><time>2026-04-18T07:50:39.998Z</time></trkpt><trkpt lat="43.07370028687902" lon="13.528615760288613"><ele>162.79999999999998</ele><time>2026-04-18T07:50:40.998Z</time></trkpt><trkpt lat="43.07360532960747" lon="13.52853347064821"><ele>164.0</ele><time>2026-04-18T07:50:41.998Z</time></trkpt><trkpt lat="43.07351136120733" lon="13.52844687432199"><ele>164.0</ele><time>2026-04-18T07:50:42.998Z</time></trkpt><trkpt lat="43.07341738756602" lon="13.52835370049522"><ele>164.0</ele><time>2026-04-18T07:50:43.998Z</time></trkpt><trkpt lat="43.07331916524834" lon="13.528259307645383"><ele>164.0</ele><time>2026-04-18T07:50:44.998Z</time></trkpt><trkpt lat="43.073214823521006" lon="13.528166428804534"><ele>164.0</ele><time>2026-04-18T07:50:45.998Z</time></trkpt><trkpt lat="43.07310859833995" lon="13.528067054055182"><ele>164.5</ele><time>2026-04-18T07:50:46.998Z</time></trkpt><trkpt lat="43.073000758711686" lon="13.527961835858905"><ele>165.0</ele><time>2026-04-18T07:50:47.998Z</time></trkpt><trkpt lat="43.072887319509036" lon="13.527857158617705"><ele>165.5</ele><time>2026-04-18T07:50:48.998Z</time></trkpt><trkpt lat="43.072770185625174" lon="13.52774879312676"><ele>166.0</ele><time>2026-04-18T07:50:49.998Z</time></trkpt><trkpt lat="43.0726565836653" lon="13.527641676940346"><ele>166.0</ele><time>2026-04-18T07:50:50.998Z</time></trkpt><trkpt lat="43.07255190336981" lon="13.527548340789473"><ele>166.0</ele><time>2026-04-18T07:50:51.998Z</time></trkpt><trkpt lat="43.072455381873034" lon="13.527454872313797"><ele>166.0</ele><time>2026-04-18T07:50:52.998Z</time></trkpt><trkpt lat="43.0723528960163" lon="13.527353518180995"><ele>166.0</ele><time>2026-04-18T07:50:53.998Z</time></trkpt><trkpt lat="43.07224023167231" lon="13.527246623428187"><ele>167.5</ele><time>2026-04-18T07:50:54.998Z</time></trkpt><trkpt lat="43.07212401065358" lon="13.5271376179818"><ele>169.0</ele><time>2026-04-18T07:50:55.998Z</time></trkpt><trkpt lat="43.07200252800379" lon="13.527026055276615"><ele>170.5</ele><time>2026-04-18T07:50:56.998Z</time></trkpt><trkpt lat="43.071882272145594" lon="13.526906546393551"><ele>172.0</ele><time>2026-04-18T07:50:57.998Z</time></trkpt><trkpt lat="43.07176027440922" lon="13.526783900307608"><ele>172.0</ele><time>2026-04-18T07:50:58.998Z</time></trkpt><trkpt lat="43.07163272573317" lon="13.526660532249972"><ele>172.0</ele><time>2026-04-18T07:50:59.998Z</time></trkpt><trkpt lat="43.07150406651742" lon="13.526537374842146"><ele>172.0</ele><time>2026-04-18T07:51:00.998Z</time></trkpt><trkpt lat="43.07137778451237" lon="13.526405595601414"><ele>175.0</ele><time>2026-04-18T07:51:01.998Z</time></trkpt><trkpt lat="43.07125425319494" lon="13.526262184936027"><ele>178.0</ele><time>2026-04-18T07:51:02.998Z</time></trkpt><trkpt lat="43.07114273202035" lon="13.526101014296975"><ele>181.0</ele><time>2026-04-18T07:51:03.998Z</time></trkpt><trkpt lat="43.07104337429006" lon="13.525920855175048"><ele>181.0</ele><time>2026-04-18T07:51:04.998Z</time></trkpt><trkpt lat="43.070954202374836" lon="13.525736802731311"><ele>181.0</ele><time>2026-04-18T07:51:05.998Z</time></trkpt><trkpt lat="43.07086887389297" lon="13.525551363489127"><ele>181.0</ele><time>2026-04-18T07:51:06.998Z</time></trkpt><trkpt lat="43.07078094226029" lon="13.525367774994937"><ele>185.66666666666669</ele><time>2026-04-18T07:51:07.998Z</time></trkpt><trkpt lat="43.070687659087135" lon="13.525185192735465"><ele>190.33333333333334</ele><time>2026-04-18T07:51:08.998Z</time></trkpt><trkpt lat="43.07060518828029" lon="13.525001022552873"><ele>195.0</ele><time>2026-04-18T07:51:09.998Z</time></trkpt><trkpt lat="43.070528894977855" lon="13.524806955374215"><ele>195.0</ele><time>2026-04-18T07:51:10.998Z</time></trkpt><trkpt lat="43.07046430370832" lon="13.524611992447062"><ele>195.0</ele><time>2026-04-18T07:51:11.998Z</time></trkpt><trkpt lat="43.07040801778218" lon="13.524413720030436"><ele>195.0</ele><time>2026-04-18T07:51:12.998Z</time></trkpt><trkpt lat="43.07035666828034" lon="13.524212361033655"><ele>194.66666666666669</ele><time>2026-04-18T07:51:14Z</time></trkpt><trkpt lat="43.07030984631597" lon="13.524014352112655"><ele>194.33333333333334</ele><time>2026-04-18T07:51:15Z</time></trkpt><trkpt lat="43.07025738762034" lon="13.52382025471373"><ele>194.0</ele><time>2026-04-18T07:51:16Z</time></trkpt><trkpt lat="43.07019872667241" lon="13.523634879639909"><ele>193.75</ele><time>2026-04-18T07:51:17Z</time></trkpt><trkpt lat="43.070137354621814" lon="13.523461130967652"><ele>193.5</ele><time>2026-04-18T07:51:18Z</time></trkpt><trkpt lat="43.07007692712702" lon="13.523296979243646"><ele>193.25</ele><time>2026-04-18T07:51:19Z</time></trkpt><trkpt lat="43.070015815680456" lon="13.523146581338796"><ele>193.0</ele><time>2026-04-18T07:51:20Z</time></trkpt><trkpt lat="43.06993467089393" lon="13.523025814106688"><ele>193.0</ele><time>2026-04-18T07:51:21Z</time></trkpt><trkpt lat="43.0698312831331" lon="13.52293752876389"><ele>193.0</ele><time>2026-04-18T07:51:22Z</time></trkpt><trkpt lat="43.069714873581184" lon="13.522878498731684"><ele>193.0</ele><time>2026-04-18T07:51:23Z</time></trkpt><trkpt lat="43.069589558033975" lon="13.522835582647565"><ele>193.0</ele><time>2026-04-18T07:51:24Z</time></trkpt><trkpt lat="43.06945491895878" lon="13.522794065188629"><ele>192.5</ele><time>2026-04-18T07:51:25Z</time></trkpt><trkpt lat="43.06931907429529" lon="13.52275262483363"><ele>192.0</ele><time>2026-04-18T07:51:26Z</time></trkpt><trkpt lat="43.06919249059437" lon="13.52270157585002"><ele>191.5</ele><time>2026-04-18T07:51:27Z</time></trkpt><trkpt lat="43.06908015769284" lon="13.522652420543238"><ele>191.0</ele><time>2026-04-18T07:51:28Z</time></trkpt><trkpt lat="43.06899351817344" lon="13.522548288947133"><ele>191.0</ele><time>2026-04-18T07:51:29Z</time></trkpt><trkpt lat="43.06894600997287" lon="13.522413803842435"><ele>191.0</ele><time>2026-04-18T07:51:30Z</time></trkpt><trkpt lat="43.068943779838705" lon="13.52227830709264"><ele>191.0</ele><time>2026-04-18T07:51:31Z</time></trkpt><trkpt lat="43.06897031236971" lon="13.52216420420109"><ele>191.0</ele><time>2026-04-18T07:51:32Z</time></trkpt><trkpt lat="43.06899328709161" lon="13.522061401059851"><ele>191.0</ele><time>2026-04-18T07:51:33Z</time></trkpt><trkpt lat="43.06900770390736" lon="13.521973597335453"><ele>191.0</ele><time>2026-04-18T07:51:34Z</time></trkpt><trkpt lat="43.0690057434967" lon="13.521871755394073"><ele>190.20000000000002</ele><time>2026-04-18T07:51:36Z</time></trkpt><trkpt lat="43.06887671156004" lon="13.521843397188038"><ele>189.4</ele><time>2026-04-18T07:51:38Z</time></trkpt><trkpt lat="43.06879573339775" lon="13.521892707040502"><ele>188.6</ele><time>2026-04-18T07:51:39Z</time></trkpt><trkpt lat="43.06870633920065" lon="13.521948865403985"><ele>187.8</ele><time>2026-04-18T07:51:40Z</time></trkpt><trkpt lat="43.06860654195903" lon="13.522003186247122"><ele>187.0</ele><time>2026-04-18T07:51:41Z</time></trkpt><trkpt lat="43.06849890387541" lon="13.522057923169701"><ele>188.0</ele><time>2026-04-18T07:51:42Z</time></trkpt><trkpt lat="43.06838904024642" lon="13.522120156520675"><ele>189.0</ele><time>2026-04-18T07:51:43Z</time></trkpt><trkpt lat="43.06826929944704" lon="13.522185028159441"><ele>190.0</ele><time>2026-04-18T07:51:44Z</time></trkpt><trkpt lat="43.06814393544659" lon="13.522244759279431"><ele>191.0</ele><time>2026-04-18T07:51:45Z</time></trkpt><trkpt lat="43.06802088245698" lon="13.522294138687869"><ele>193.20000000000002</ele><time>2026-04-18T07:51:46Z</time></trkpt><trkpt lat="43.067909529748796" lon="13.522326836410416"><ele>195.4</ele><time>2026-04-18T07:51:47Z</time></trkpt><trkpt lat="43.06780208117708" lon="13.522331719292255"><ele>197.6</ele><time>2026-04-18T07:51:48Z</time></trkpt><trkpt lat="43.06770197860408" lon="13.522314771897504"><ele>199.8</ele><time>2026-04-18T07:51:49Z</time></trkpt><trkpt lat="43.06760803493471" lon="13.522287778583117"><ele>202.0</ele><time>2026-04-18T07:51:50Z</time></trkpt><trkpt lat="43.06751643497101" lon="13.522260828563939"><ele>202.6</ele><time>2026-04-18T07:51:51Z</time></trkpt><trkpt lat="43.06742295620666" lon="13.522235266831405"><ele>203.2</ele><time>2026-04-18T07:51:52Z</time></trkpt><trkpt lat="43.067320166307766" lon="13.522207084273884"><ele>203.8</ele><time>2026-04-18T07:51:53Z</time></trkpt><trkpt lat="43.067207370439924" lon="13.522173248735024"><ele>204.4</ele><time>2026-04-18T07:51:54Z</time></trkpt><trkpt lat="43.06709168242566" lon="13.522135143448619"><ele>205.0</ele><time>2026-04-18T07:51:55Z</time></trkpt><trkpt lat="43.06698645840138" lon="13.522106862334464"><ele>205.0</ele><time>2026-04-18T07:51:56Z</time></trkpt><trkpt lat="43.066900303423374" lon="13.522123590165089"><ele>205.0</ele><time>2026-04-18T07:51:57Z</time></trkpt><trkpt lat="43.06683734036003" lon="13.522196637691597"><ele>205.0</ele><time>2026-04-18T07:51:57.999Z</time></trkpt><trkpt lat="43.06681991945319" lon="13.52230394994766"><ele>205.0</ele><time>2026-04-18T07:51:58.999Z</time></trkpt><trkpt lat="43.066832275046444" lon="13.522427722303046"><ele>205.0</ele><time>2026-04-18T07:51:59.999Z</time></trkpt><trkpt lat="43.06693032472875" lon="13.522514101895068"><ele>205.0</ele><time>2026-04-18T07:52:00.999Z</time></trkpt><trkpt lat="43.06703363910091" lon="13.522574533926111"><ele>205.0</ele><time>2026-04-18T07:52:01.999Z</time></trkpt><trkpt lat="43.067153656479874" lon="13.522631661586837"><ele>205.0</ele><time>2026-04-18T07:52:02.999Z</time></trkpt><trkpt lat="43.06727747282346" lon="13.522711832322429"><ele>205.0</ele><time>2026-04-18T07:52:03.999Z</time></trkpt><trkpt lat="43.06739699224854" lon="13.522805435382715"><ele>207.75</ele><time>2026-04-18T07:52:04.999Z</time></trkpt><trkpt lat="43.067492298275276" lon="13.522938711383933"><ele>210.5</ele><time>2026-04-18T07:52:05.999Z</time></trkpt><trkpt lat="43.06758468478375" lon="13.523069341531615"><ele>213.25</ele><time>2026-04-18T07:52:06.999Z</time></trkpt><trkpt lat="43.06762539395228" lon="13.523239851262543"><ele>216.0</ele><time>2026-04-18T07:52:07.999Z</time></trkpt><trkpt lat="43.067631777017986" lon="13.523428419207882"><ele>216.0</ele><time>2026-04-18T07:52:08.999Z</time></trkpt><trkpt lat="43.067627972915915" lon="13.523625547363077"><ele>216.0</ele><time>2026-04-18T07:52:09.999Z</time></trkpt><trkpt lat="43.06763394400244" lon="13.523827357241405"><ele>216.0</ele><time>2026-04-18T07:52:10.999Z</time></trkpt><trkpt lat="43.06764065616996" lon="13.524033849295003"><ele>216.0</ele><time>2026-04-18T07:52:11.999Z</time></trkpt><trkpt lat="43.0676364291226" lon="13.524243191085459"><ele>218.0</ele><time>2026-04-18T07:52:12.999Z</time></trkpt><trkpt lat="43.067591796895236" lon="13.524446823367438"><ele>220.0</ele><time>2026-04-18T07:52:13.999Z</time></trkpt><trkpt lat="43.06755527820977" lon="13.524651785765368"><ele>222.0</ele><time>2026-04-18T07:52:14.999Z</time></trkpt><trkpt lat="43.067505392167114" lon="13.524853895009421"><ele>223.66666666666669</ele><time>2026-04-18T07:52:15.999Z</time></trkpt><trkpt lat="43.06747302809231" lon="13.525067325258942"><ele>225.33333333333334</ele><time>2026-04-18T07:52:16.999Z</time></trkpt><trkpt lat="43.06747127719363" lon="13.525292286659617"><ele>227.0</ele><time>2026-04-18T07:52:17.999Z</time></trkpt><trkpt lat="43.06749629959713" lon="13.525516926651129"><ele>228.66666666666669</ele><time>2026-04-18T07:52:18.999Z</time></trkpt><trkpt lat="43.06753506310196" lon="13.525738593785144"><ele>230.33333333333331</ele><time>2026-04-18T07:52:19.999Z</time></trkpt><trkpt lat="43.067576044128835" lon="13.52595931000708"><ele>232.0</ele><time>2026-04-18T07:52:20.999Z</time></trkpt><trkpt lat="43.067603273354855" lon="13.526175419547384"><ele>234.0</ele><time>2026-04-18T07:52:21.999Z</time></trkpt><trkpt lat="43.06766363632848" lon="13.526397501236326"><ele>236.0</ele><time>2026-04-18T07:52:22.999Z</time></trkpt><trkpt lat="43.06770557233586" lon="13.526628738805043"><ele>238.0</ele><time>2026-04-18T07:52:23.999Z</time></trkpt><trkpt lat="43.06773247053747" lon="13.526870098517351"><ele>241.0</ele><time>2026-04-18T07:52:24.999Z</time></trkpt><trkpt lat="43.06777481691482" lon="13.527111027824189"><ele>244.0</ele><time>2026-04-18T07:52:25.999Z</time></trkpt><trkpt lat="43.067832596661006" lon="13.527345860257245"><ele>247.0</ele><time>2026-04-18T07:52:26.999Z</time></trkpt><trkpt lat="43.06788240472962" lon="13.527576336654668"><ele>247.0</ele><time>2026-04-18T07:52:27.999Z</time></trkpt><trkpt lat="43.06795204838668" lon="13.527788579276244"><ele>247.0</ele><time>2026-04-18T07:52:28.999Z</time></trkpt><trkpt lat="43.06805857378445" lon="13.527961801940485"><ele>247.0</ele><time>2026-04-18T07:52:29.999Z</time></trkpt><trkpt lat="43.068181815033924" lon="13.5280984330152"><ele>247.25</ele><time>2026-04-18T07:52:30.999Z</time></trkpt><trkpt lat="43.068266737962986" lon="13.528260909333952"><ele>247.5</ele><time>2026-04-18T07:52:31.999Z</time></trkpt><trkpt lat="43.06833148352535" lon="13.52841741789694"><ele>247.75</ele><time>2026-04-18T07:52:32.999Z</time></trkpt><trkpt lat="43.06826881880113" lon="13.528600625748144"><ele>248.0</ele><time>2026-04-18T07:52:33.999Z</time></trkpt><trkpt lat="43.06824981852635" lon="13.528805896794847"><ele>252.66666666666669</ele><time>2026-04-18T07:52:34.999Z</time></trkpt><trkpt lat="43.06821331079093" lon="13.529009042337705"><ele>257.3333333333333</ele><time>2026-04-18T07:52:35.999Z</time></trkpt><trkpt lat="43.068181492699644" lon="13.529222972631853"><ele>262.0</ele><time>2026-04-18T07:52:36.999Z</time></trkpt><trkpt lat="43.06814634359484" lon="13.529444186104497"><ele>263.0</ele><time>2026-04-18T07:52:37.999Z</time></trkpt><trkpt lat="43.06809038902933" lon="13.529660178016076"><ele>264.0</ele><time>2026-04-18T07:52:38.999Z</time></trkpt><trkpt lat="43.06805962469831" lon="13.529872373205135"><ele>265.0</ele><time>2026-04-18T07:52:39.999Z</time></trkpt><trkpt lat="43.06799733055394" lon="13.53004130131429"><ele>265.0</ele><time>2026-04-18T07:52:40.999Z</time></trkpt><trkpt lat="43.06789482080152" lon="13.530197005472848"><ele>265.0</ele><time>2026-04-18T07:52:41.999Z</time></trkpt><trkpt lat="43.06776973921573" lon="13.530333975906773"><ele>265.0</ele><time>2026-04-18T07:52:42.999Z</time></trkpt><trkpt lat="43.06763384293906" lon="13.530466433430979"><ele>264.0</ele><time>2026-04-18T07:52:43.999Z</time></trkpt><trkpt lat="43.06749467206371" lon="13.530604057672534"><ele>263.0</ele><time>2026-04-18T07:52:44.999Z</time></trkpt><trkpt lat="43.06735387635951" lon="13.53074301612514"><ele>262.0</ele><time>2026-04-18T07:52:45.999Z</time></trkpt><trkpt lat="43.067207231837095" lon="13.530883472093812"><ele>265.3333333333333</ele><time>2026-04-18T07:52:46.999Z</time></trkpt><trkpt lat="43.06706021090137" lon="13.531023926087135"><ele>268.6666666666667</ele><time>2026-04-18T07:52:47.999Z</time></trkpt><trkpt lat="43.06691096115479" lon="13.531160930433272"><ele>272.0</ele><time>2026-04-18T07:52:48.999Z</time></trkpt><trkpt lat="43.066751722068574" lon="13.531269792477518"><ele>273.6666666666667</ele><time>2026-04-18T07:52:49.999Z</time></trkpt><trkpt lat="43.0665929085401" lon="13.531348838164218"><ele>275.3333333333333</ele><time>2026-04-18T07:52:50.999Z</time></trkpt><trkpt lat="43.06642973603026" lon="13.531398925909732"><ele>277.0</ele><time>2026-04-18T07:52:51.999Z</time></trkpt><trkpt lat="43.06625971504944" lon="13.531419762461164"><ele>277.0</ele><time>2026-04-18T07:52:52.999Z</time></trkpt><trkpt lat="43.06608486113713" lon="13.531425422834394"><ele>277.0</ele><time>2026-04-18T07:52:53.999Z</time></trkpt><trkpt lat="43.06590547746428" lon="13.531421377530258"><ele>277.0</ele><time>2026-04-18T07:52:54.999Z</time></trkpt><trkpt lat="43.06571993034828" lon="13.531419171878191"><ele>281.66666666666663</ele><time>2026-04-18T07:52:55.999Z</time></trkpt><trkpt lat="43.06553383527732" lon="13.531424929842347"><ele>286.3333333333333</ele><time>2026-04-18T07:52:56.999Z</time></trkpt><trkpt lat="43.06534411839541" lon="13.53144045527099"><ele>291.0</ele><time>2026-04-18T07:52:57.999Z</time></trkpt><trkpt lat="43.06515505281098" lon="13.531465186176394"><ele>291.0</ele><time>2026-04-18T07:52:58.999Z</time></trkpt><trkpt lat="43.06496893668878" lon="13.531488408216473"><ele>291.0</ele><time>2026-04-18T07:52:59.999Z</time></trkpt><trkpt lat="43.06478383096659" lon="13.53150938698187"><ele>291.0</ele><time>2026-04-18T07:53:00.999Z</time></trkpt><trkpt lat="43.06459856070114" lon="13.531528774644956"><ele>290.6666666666667</ele><time>2026-04-18T07:53:01.999Z</time></trkpt><trkpt lat="43.064412377149615" lon="13.531549967048521"><ele>290.33333333333337</ele><time>2026-04-18T07:53:02.999Z</time></trkpt><trkpt lat="43.064227575707044" lon="13.531574833295217"><ele>290.0</ele><time>2026-04-18T07:53:03.999Z</time></trkpt><trkpt lat="43.06404380301077" lon="13.531600813283541"><ele>290.0</ele><time>2026-04-18T07:53:04.999Z</time></trkpt><trkpt lat="43.06386123721995" lon="13.531617982765159"><ele>290.0</ele><time>2026-04-18T07:53:05.999Z</time></trkpt><trkpt lat="43.06367869733881" lon="13.53162478003818"><ele>290.0</ele><time>2026-04-18T07:53:06.999Z</time></trkpt><trkpt lat="43.063496088763515" lon="13.531618867379356"><ele>290.0</ele><time>2026-04-18T07:53:07.998Z</time></trkpt><trkpt lat="43.063313933711264" lon="13.531600027765236"><ele>290.0</ele><time>2026-04-18T07:53:08.998Z</time></trkpt><trkpt lat="43.06312932370314" lon="13.531568796433138"><ele>290.0</ele><time>2026-04-18T07:53:09.998Z</time></trkpt><trkpt lat="43.06294609154511" lon="13.531541076916724"><ele>291.0</ele><time>2026-04-18T07:53:10.998Z</time></trkpt><trkpt lat="43.06276491621643" lon="13.531535178867847"><ele>292.0</ele><time>2026-04-18T07:53:11.998Z</time></trkpt><trkpt lat="43.06258408542978" lon="13.531591725599688"><ele>293.0</ele><time>2026-04-18T07:53:12.998Z</time></trkpt><trkpt lat="43.06241238023404" lon="13.531708878365011"><ele>293.33333333333337</ele><time>2026-04-18T07:53:13.998Z</time></trkpt><trkpt lat="43.062258694028564" lon="13.53185440020934"><ele>293.6666666666667</ele><time>2026-04-18T07:53:14.998Z</time></trkpt><trkpt lat="43.06210081822033" lon="13.531994613397796"><ele>294.0</ele><time>2026-04-18T07:53:15.998Z</time></trkpt><trkpt lat="43.061923327588744" lon="13.532092428806724"><ele>294.0</ele><time>2026-04-18T07:53:16.998Z</time></trkpt><trkpt lat="43.061735904800486" lon="13.532121725085666"><ele>294.0</ele><time>2026-04-18T07:53:17.998Z</time></trkpt><trkpt lat="43.06154253239458" lon="13.532119951891813"><ele>294.0</ele><time>2026-04-18T07:53:18.998Z</time></trkpt><trkpt lat="43.06134840416644" lon="13.532122051964526"><ele>298.0</ele><time>2026-04-18T07:53:20Z</time></trkpt><trkpt lat="43.061150171692944" lon="13.532143577917479"><ele>302.0</ele><time>2026-04-18T07:53:21Z</time></trkpt><trkpt lat="43.0609514573797" lon="13.532176461570042"><ele>306.0</ele><time>2026-04-18T07:53:22Z</time></trkpt><trkpt lat="43.06075768521397" lon="13.532254384378886"><ele>310.6666666666667</ele><time>2026-04-18T07:53:23Z</time></trkpt><trkpt lat="43.06058565858545" lon="13.53238888926043"><ele>315.33333333333337</ele><time>2026-04-18T07:53:24Z</time></trkpt><trkpt lat="43.060435574858985" lon="13.532535964942753"><ele>320.0</ele><time>2026-04-18T07:53:25Z</time></trkpt><trkpt lat="43.06029581921015" lon="13.53264473051221"><ele>320.0</ele><time>2026-04-18T07:53:26Z</time></trkpt><trkpt lat="43.06014748331352" lon="13.532690142344071"><ele>320.0</ele><time>2026-04-18T07:53:27Z</time></trkpt><trkpt lat="43.059998479108906" lon="13.532664928523364"><ele>320.0</ele><time>2026-04-18T07:53:28Z</time></trkpt><trkpt lat="43.059845512647485" lon="13.532601735915897"><ele>319.0</ele><time>2026-04-18T07:53:29Z</time></trkpt><trkpt lat="43.05968730742696" lon="13.532544142316967"><ele>318.0</ele><time>2026-04-18T07:53:30Z</time></trkpt><trkpt lat="43.05952097653015" lon="13.5325028993569"><ele>317.0</ele><time>2026-04-18T07:53:31Z</time></trkpt><trkpt lat="43.05934514167952" lon="13.532457902306707"><ele>317.0</ele><time>2026-04-18T07:53:32Z</time></trkpt><trkpt lat="43.059161539450294" lon="13.532399160739878"><ele>317.0</ele><time>2026-04-18T07:53:33Z</time></trkpt><trkpt lat="43.058974036739876" lon="13.532340486228746"><ele>317.0</ele><time>2026-04-18T07:53:34Z</time></trkpt><trkpt lat="43.05878343578675" lon="13.53228218853258"><ele>317.0</ele><time>2026-04-18T07:53:35Z</time></trkpt><trkpt lat="43.058592171980685" lon="13.532227114529393"><ele>317.0</ele><time>2026-04-18T07:53:36Z</time></trkpt><trkpt lat="43.05839730825597" lon="13.532168227970613"><ele>317.0</ele><time>2026-04-18T07:53:37Z</time></trkpt><trkpt lat="43.058207744567895" lon="13.532118474517937"><ele>319.6666666666667</ele><time>2026-04-18T07:53:38Z</time></trkpt><trkpt lat="43.05802566212354" lon="13.53204054754099"><ele>322.3333333333333</ele><time>2026-04-18T07:53:39Z</time></trkpt><trkpt lat="43.05783957420915" lon="13.531989629621023"><ele>325.0</ele><time>2026-04-18T07:53:40Z</time></trkpt><trkpt lat="43.05764509039904" lon="13.531953160084726"><ele>328.3333333333333</ele><time>2026-04-18T07:53:41Z</time></trkpt><trkpt lat="43.05745142811597" lon="13.53194734541421"><ele>331.6666666666667</ele><time>2026-04-18T07:53:42Z</time></trkpt><trkpt lat="43.05726468153202" lon="13.531950206855766"><ele>335.0</ele><time>2026-04-18T07:53:43Z</time></trkpt><trkpt lat="43.05707966206367" lon="13.531954563423678"><ele>335.0</ele><time>2026-04-18T07:53:44Z</time></trkpt><trkpt lat="43.05690093738744" lon="13.531954091458006"><ele>335.0</ele><time>2026-04-18T07:53:45Z</time></trkpt><trkpt lat="43.05670413762206" lon="13.531936483615208"><ele>335.0</ele><time>2026-04-18T07:53:46Z</time></trkpt><trkpt lat="43.056521424894875" lon="13.531902983010069"><ele>336.33333333333337</ele><time>2026-04-18T07:53:47Z</time></trkpt><trkpt lat="43.05634085397267" lon="13.53185937615584"><ele>337.6666666666667</ele><time>2026-04-18T07:53:48Z</time></trkpt><trkpt lat="43.05615776857927" lon="13.53181651294472"><ele>339.0</ele><time>2026-04-18T07:53:49Z</time></trkpt><trkpt lat="43.055968888409815" lon="13.531773237866036"><ele>339.0</ele><time>2026-04-18T07:53:50Z</time></trkpt><trkpt lat="43.055774837680595" lon="13.531727663702005"><ele>339.0</ele><time>2026-04-18T07:53:51Z</time></trkpt><trkpt lat="43.05558078872311" lon="13.53168916595776"><ele>339.0</ele><time>2026-04-18T07:53:52Z</time></trkpt><trkpt lat="43.055383884650865" lon="13.531668131960359"><ele>339.0</ele><time>2026-04-18T07:53:53Z</time></trkpt><trkpt lat="43.05518464817192" lon="13.531677004062487"><ele>339.0</ele><time>2026-04-18T07:53:54Z</time></trkpt><trkpt lat="43.054986845804855" lon="13.53173102096216"><ele>339.0</ele><time>2026-04-18T07:53:55Z</time></trkpt><trkpt lat="43.05479007722444" lon="13.53182527345149"><ele>339.0</ele><time>2026-04-18T07:53:56Z</time></trkpt><trkpt lat="43.05459838488802" lon="13.53194097912009"><ele>339.0</ele><time>2026-04-18T07:53:57Z</time></trkpt><trkpt lat="43.05441177751768" lon="13.532062031555322"><ele>339.0</ele><time>2026-04-18T07:53:58Z</time></trkpt><trkpt lat="43.05422719557405" lon="13.532172700935918"><ele>342.0</ele><time>2026-04-18T07:53:59Z</time></trkpt><trkpt lat="43.05405148257934" lon="13.532276747166907"><ele>345.0</ele><time>2026-04-18T07:54:00Z</time></trkpt><trkpt lat="43.05389317505291" lon="13.532372259545854"><ele>348.0</ele><time>2026-04-18T07:54:01Z</time></trkpt><trkpt lat="43.05373989566801" lon="13.532401462641252"><ele>348.0</ele><time>2026-04-18T07:54:02Z</time></trkpt><trkpt lat="43.05358843992608" lon="13.532390889046741"><ele>348.0</ele><time>2026-04-18T07:54:03Z</time></trkpt><trkpt lat="43.053420340634474" lon="13.53236868159857"><ele>348.0</ele><time>2026-04-18T07:54:04Z</time></trkpt><trkpt lat="43.05324389501553" lon="13.532365620547319"><ele>351.0</ele><time>2026-04-18T07:54:05Z</time></trkpt><trkpt lat="43.05306978432355" lon="13.532338569350767"><ele>354.0</ele><time>2026-04-18T07:54:06Z</time></trkpt><trkpt lat="43.05288858272143" lon="13.532324781378552"><ele>357.0</ele><time>2026-04-18T07:54:07Z</time></trkpt><trkpt lat="43.052709163600355" lon="13.532351255923578"><ele>357.0</ele><time>2026-04-18T07:54:08Z</time></trkpt><trkpt lat="43.052530690328794" lon="13.532439367918624"><ele>357.0</ele><time>2026-04-18T07:54:09Z</time></trkpt><trkpt lat="43.05236190379695" lon="13.532580868729465"><ele>357.0</ele><time>2026-04-18T07:54:10Z</time></trkpt><trkpt lat="43.05220030814967" lon="13.532737292941492"><ele>358.3333333333333</ele><time>2026-04-18T07:54:11Z</time></trkpt><trkpt lat="43.052034498951926" lon="13.532887218008081"><ele>359.66666666666663</ele><time>2026-04-18T07:54:12Z</time></trkpt><trkpt lat="43.05186044411246" lon="13.533029197554029"><ele>361.0</ele><time>2026-04-18T07:54:13Z</time></trkpt><trkpt lat="43.05168545588358" lon="13.533162952850843"><ele>365.0</ele><time>2026-04-18T07:54:14Z</time></trkpt><trkpt lat="43.05150412982046" lon="13.533263478272785"><ele>369.0</ele><time>2026-04-18T07:54:15Z</time></trkpt><trkpt lat="43.05133379124533" lon="13.533364038238485"><ele>373.0</ele><time>2026-04-18T07:54:16Z</time></trkpt><trkpt lat="43.05117505633051" lon="13.533447337210456"><ele>373.0</ele><time>2026-04-18T07:54:17Z</time></trkpt><trkpt lat="43.051035463852344" lon="13.533480778234692"><ele>373.0</ele><time>2026-04-18T07:54:17.999Z</time></trkpt><trkpt lat="43.050909242972104" lon="13.533450787345956"><ele>373.0</ele><time>2026-04-18T07:54:18.999Z</time></trkpt><trkpt lat="43.05077074247528" lon="13.533393684272001"><ele>373.0</ele><time>2026-04-18T07:54:19.999Z</time></trkpt><trkpt lat="43.050628846520226" lon="13.533286575709777"><ele>376.0</ele><time>2026-04-18T07:54:20.999Z</time></trkpt><trkpt lat="43.050510778639925" lon="13.53312713661546"><ele>379.0</ele><time>2026-04-18T07:54:21.999Z</time></trkpt><trkpt lat="43.0503753325277" lon="13.532961014823117"><ele>382.0</ele><time>2026-04-18T07:54:22.999Z</time></trkpt><trkpt lat="43.05023549131001" lon="13.532789502273006"><ele>382.0</ele><time>2026-04-18T07:54:23.999Z</time></trkpt><trkpt lat="43.05009747257387" lon="13.532606552823145"><ele>382.0</ele><time>2026-04-18T07:54:24.999Z</time></trkpt><trkpt lat="43.0499718083772" lon="13.532407395811932"><ele>382.0</ele><time>2026-04-18T07:54:25.999Z</time></trkpt><trkpt lat="43.04985214476565" lon="13.532189305701678"><ele>385.0</ele><time>2026-04-18T07:54:26.999Z</time></trkpt><trkpt lat="43.049722415763696" lon="13.531975016129756"><ele>388.0</ele><time>2026-04-18T07:54:27.999Z</time></trkpt><trkpt lat="43.04960961230117" lon="13.531742233100804"><ele>391.0</ele><time>2026-04-18T07:54:28.999Z</time></trkpt><trkpt lat="43.04949677367014" lon="13.531515922880713"><ele>391.0</ele><time>2026-04-18T07:54:29.999Z</time></trkpt><trkpt lat="43.04938753635379" lon="13.531296097050232"><ele>391.0</ele><time>2026-04-18T07:54:30.999Z</time></trkpt><trkpt lat="43.04928337068952" lon="13.531088964525868"><ele>391.0</ele><time>2026-04-18T07:54:31.999Z</time></trkpt><trkpt lat="43.04919657421706" lon="13.530917604753471"><ele>394.33333333333337</ele><time>2026-04-18T07:54:32.999Z</time></trkpt><trkpt lat="43.049094806885336" lon="13.530770281347731"><ele>397.66666666666663</ele><time>2026-04-18T07:54:33.999Z</time></trkpt><trkpt lat="43.048964530582666" lon="13.530670805313395"><ele>401.0</ele><time>2026-04-18T07:54:34.999Z</time></trkpt><trkpt lat="43.04880119939344" lon="13.53061775432202"><ele>401.0</ele><time>2026-04-18T07:54:35.999Z</time></trkpt><trkpt lat="43.04862363751538" lon="13.530604153295156"><ele>401.0</ele><time>2026-04-18T07:54:36.999Z</time></trkpt><trkpt lat="43.04844366743433" lon="13.530611068453634"><ele>401.0</ele><time>2026-04-18T07:54:37.999Z</time></trkpt><trkpt lat="43.048268642891486" lon="13.530643635910145"><ele>402.3333333333333</ele><time>2026-04-18T07:54:38.999Z</time></trkpt><trkpt lat="43.048102087335415" lon="13.530695126218536"><ele>403.66666666666663</ele><time>2026-04-18T07:54:39.999Z</time></trkpt><trkpt lat="43.04794427334128" lon="13.530762088508796"><ele>405.0</ele><time>2026-04-18T07:54:40.999Z</time></trkpt><trkpt lat="43.047792299354484" lon="13.530834029997848"><ele>405.0</ele><time>2026-04-18T07:54:41.999Z</time></trkpt><trkpt lat="43.04764622734381" lon="13.530900701149115"><ele>405.0</ele><time>2026-04-18T07:54:42.999Z</time></trkpt><trkpt lat="43.04750085494971" lon="13.530967436358823"><ele>405.0</ele><time>2026-04-18T07:54:43.999Z</time></trkpt><trkpt lat="43.047360774266934" lon="13.531025586449005"><ele>404.25</ele><time>2026-04-18T07:54:44.999Z</time></trkpt><trkpt lat="43.04722960846851" lon="13.531089210938463"><ele>403.5</ele><time>2026-04-18T07:54:45.999Z</time></trkpt><trkpt lat="43.04710325055697" lon="13.53115989842347"><ele>402.75</ele><time>2026-04-18T07:54:46.999Z</time></trkpt><trkpt lat="43.046997843402465" lon="13.531242117161542"><ele>402.0</ele><time>2026-04-18T07:54:47.999Z</time></trkpt><trkpt lat="43.046903306186756" lon="13.531331075130678"><ele>402.0</ele><time>2026-04-18T07:54:48.999Z</time></trkpt><trkpt lat="43.04680439352371" lon="13.531412028310443"><ele>402.0</ele><time>2026-04-18T07:54:49.999Z</time></trkpt><trkpt lat="43.04670748575499" lon="13.53150682162532"><ele>402.0</ele><time>2026-04-18T07:54:50.999Z</time></trkpt><trkpt lat="43.04659880090594" lon="13.531596310431127"><ele>402.0</ele><time>2026-04-18T07:54:51.999Z</time></trkpt><trkpt lat="43.04648654064796" lon="13.531688431827122"><ele>402.75</ele><time>2026-04-18T07:54:52.999Z</time></trkpt><trkpt lat="43.04638024917874" lon="13.53178310308937"><ele>403.5</ele><time>2026-04-18T07:54:53.999Z</time></trkpt><trkpt lat="43.04627809359461" lon="13.53187803277046"><ele>404.25</ele><time>2026-04-18T07:54:54.999Z</time></trkpt><trkpt lat="43.046173436020936" lon="13.53198849415741"><ele>405.0</ele><time>2026-04-18T07:54:55.999Z</time></trkpt><trkpt lat="43.046058151434316" lon="13.532112919317798"><ele>401.66666666666663</ele><time>2026-04-18T07:54:56.999Z</time></trkpt><trkpt lat="43.045929906831056" lon="13.53223432799403"><ele>398.3333333333333</ele><time>2026-04-18T07:54:57.999Z</time></trkpt><trkpt lat="43.04579671344953" lon="13.532354512565286"><ele>395.0</ele><time>2026-04-18T07:54:58.999Z</time></trkpt><trkpt lat="43.045658354980674" lon="13.53248075630464"><ele>394.0</ele><time>2026-04-18T07:54:59.999Z</time></trkpt><trkpt lat="43.045514540504435" lon="13.532610861364859"><ele>393.0</ele><time>2026-04-18T07:55:00.999Z</time></trkpt><trkpt lat="43.04537126487576" lon="13.532737796311068"><ele>392.0</ele><time>2026-04-18T07:55:01.999Z</time></trkpt><trkpt lat="43.04522156978255" lon="13.532865869323128"><ele>390.3333333333333</ele><time>2026-04-18T07:55:02.999Z</time></trkpt><trkpt lat="43.04507543389584" lon="13.532993908184695"><ele>388.66666666666663</ele><time>2026-04-18T07:55:03.999Z</time></trkpt><trkpt lat="43.04492442589042" lon="13.533120308302824"><ele>387.0</ele><time>2026-04-18T07:55:04.999Z</time></trkpt><trkpt lat="43.04477305366081" lon="13.533238571136641"><ele>390.66666666666663</ele><time>2026-04-18T07:55:05.999Z</time></trkpt><trkpt lat="43.04461762494616" lon="13.533350197096382"><ele>394.3333333333333</ele><time>2026-04-18T07:55:06.999Z</time></trkpt><trkpt lat="43.04446688751081" lon="13.533451432867196"><ele>398.0</ele><time>2026-04-18T07:55:07.999Z</time></trkpt><trkpt lat="43.044330706945985" lon="13.533581517156762"><ele>397.0</ele><time>2026-04-18T07:55:08.999Z</time></trkpt><trkpt lat="43.04421115942273" lon="13.533756475723168"><ele>396.0</ele><time>2026-04-18T07:55:09.999Z</time></trkpt><trkpt lat="43.04407791753186" lon="13.533895427849087"><ele>395.0</ele><time>2026-04-18T07:55:10.999Z</time></trkpt><trkpt lat="43.04393109867096" lon="13.534000527202881"><ele>395.0</ele><time>2026-04-18T07:55:11.999Z</time></trkpt><trkpt lat="43.0437643441099" lon="13.534086621975415"><ele>395.0</ele><time>2026-04-18T07:55:12.999Z</time></trkpt><trkpt lat="43.04359172168719" lon="13.534176628571986"><ele>395.0</ele><time>2026-04-18T07:55:13.999Z</time></trkpt><trkpt lat="43.04341422147502" lon="13.534245904420947"><ele>395.66666666666663</ele><time>2026-04-18T07:55:14.999Z</time></trkpt><trkpt lat="43.04323967349363" lon="13.534334530999583"><ele>396.33333333333337</ele><time>2026-04-18T07:55:15.999Z</time></trkpt><trkpt lat="43.04307421122512" lon="13.534438915499644"><ele>397.0</ele><time>2026-04-18T07:55:16.999Z</time></trkpt><trkpt lat="43.042924821889045" lon="13.534579707103378"><ele>397.0</ele><time>2026-04-18T07:55:17.999Z</time></trkpt><trkpt lat="43.04278914580924" lon="13.534749061831612"><ele>397.0</ele><time>2026-04-18T07:55:18.999Z</time></trkpt><trkpt lat="43.04266929719375" lon="13.534915590115881"><ele>397.0</ele><time>2026-04-18T07:55:19.999Z</time></trkpt><trkpt lat="43.042536782610604" lon="13.53504200425674"><ele>396.6666666666667</ele><time>2026-04-18T07:55:20.999Z</time></trkpt><trkpt lat="43.04241747042901" lon="13.53517244922393"><ele>396.33333333333337</ele><time>2026-04-18T07:55:21.999Z</time></trkpt><trkpt lat="43.04230262055468" lon="13.535317699793039"><ele>396.0</ele><time>2026-04-18T07:55:22.999Z</time></trkpt><trkpt lat="43.04216854890973" lon="13.535427189005409"><ele>392.0</ele><time>2026-04-18T07:55:23.999Z</time></trkpt><trkpt lat="43.04203164085358" lon="13.53551255276393"><ele>388.0</ele><time>2026-04-18T07:55:24.999Z</time></trkpt><trkpt lat="43.04189279525209" lon="13.53558372045993"><ele>384.0</ele><time>2026-04-18T07:55:26Z</time></trkpt><trkpt lat="43.04173994290353" lon="13.53561621004636"><ele>382.6666666666667</ele><time>2026-04-18T07:55:27Z</time></trkpt><trkpt lat="43.041585911791515" lon="13.535650255776465"><ele>381.33333333333337</ele><time>2026-04-18T07:55:28Z</time></trkpt><trkpt lat="43.041437653290814" lon="13.535667030120855"><ele>380.0</ele><time>2026-04-18T07:55:29Z</time></trkpt><trkpt lat="43.04127919306437" lon="13.535673260150936"><ele>380.0</ele><time>2026-04-18T07:55:30Z</time></trkpt><trkpt lat="43.04112110735355" lon="13.535649968127148"><ele>380.0</ele><time>2026-04-18T07:55:31Z</time></trkpt><trkpt lat="43.04097022388477" lon="13.535615831768588"><ele>380.0</ele><time>2026-04-18T07:55:32Z</time></trkpt><trkpt lat="43.04081041768661" lon="13.535554997336869"><ele>379.6666666666667</ele><time>2026-04-18T07:55:33Z</time></trkpt><trkpt lat="43.040640722768835" lon="13.53545106567217"><ele>379.3333333333333</ele><time>2026-04-18T07:55:34Z</time></trkpt><trkpt lat="43.04046694659717" lon="13.53533162716345"><ele>379.0</ele><time>2026-04-18T07:55:35Z</time></trkpt><trkpt lat="43.04029209786986" lon="13.535223684618865"><ele>379.66666666666663</ele><time>2026-04-18T07:55:36Z</time></trkpt><trkpt lat="43.04010270387547" lon="13.53521483169435"><ele>380.3333333333333</ele><time>2026-04-18T07:55:37Z</time></trkpt><trkpt lat="43.03990444344151" lon="13.535250972217565"><ele>381.0</ele><time>2026-04-18T07:55:38Z</time></trkpt><trkpt lat="43.03970371460949" lon="13.535333454411377"><ele>381.3333333333333</ele><time>2026-04-18T07:55:39Z</time></trkpt><trkpt lat="43.03950663583442" lon="13.535447520955966"><ele>381.66666666666663</ele><time>2026-04-18T07:55:40Z</time></trkpt><trkpt lat="43.03931790255026" lon="13.5355662642873"><ele>382.0</ele><time>2026-04-18T07:55:41Z</time></trkpt><trkpt lat="43.039136764049616" lon="13.53569186681254"><ele>385.0</ele><time>2026-04-18T07:55:42Z</time></trkpt><trkpt lat="43.03896736508574" lon="13.535808625794852"><ele>388.0</ele><time>2026-04-18T07:55:43Z</time></trkpt><trkpt lat="43.038803333818024" lon="13.535879088577895"><ele>391.0</ele><time>2026-04-18T07:55:44Z</time></trkpt><trkpt lat="43.038639957528474" lon="13.535918951772768"><ele>391.0</ele><time>2026-04-18T07:55:45Z</time></trkpt><trkpt lat="43.03847545876925" lon="13.535927641837342"><ele>391.0</ele><time>2026-04-18T07:55:46Z</time></trkpt><trkpt lat="43.03829319661901" lon="13.535932160492228"><ele>391.0</ele><time>2026-04-18T07:55:47Z</time></trkpt><trkpt lat="43.03811538458216" lon="13.535891886579957"><ele>392.6666666666667</ele><time>2026-04-18T07:55:48Z</time></trkpt><trkpt lat="43.03792924631486" lon="13.535857884501768"><ele>394.33333333333337</ele><time>2026-04-18T07:55:49Z</time></trkpt><trkpt lat="43.03774180044839" lon="13.535832735790875"><ele>396.0</ele><time>2026-04-18T07:55:50Z</time></trkpt><trkpt lat="43.03755085630497" lon="13.535806220496017"><ele>397.0</ele><time>2026-04-18T07:55:51Z</time></trkpt><trkpt lat="43.03735519434981" lon="13.535774440230714"><ele>398.0</ele><time>2026-04-18T07:55:52Z</time></trkpt><trkpt lat="43.03716672161539" lon="13.535742924292785"><ele>399.0</ele><time>2026-04-18T07:55:53Z</time></trkpt><trkpt lat="43.036992211102714" lon="13.535709049955496"><ele>399.0</ele><time>2026-04-18T07:55:54Z</time></trkpt><trkpt lat="43.03683349196566" lon="13.535657880914915"><ele>399.0</ele><time>2026-04-18T07:55:55Z</time></trkpt><trkpt lat="43.03666541479059" lon="13.535590202195552"><ele>399.0</ele><time>2026-04-18T07:55:56Z</time></trkpt><trkpt lat="43.0364868890555" lon="13.535539973611167"><ele>400.33333333333337</ele><time>2026-04-18T07:55:57Z</time></trkpt><trkpt lat="43.03629095129066" lon="13.535511429710548"><ele>401.6666666666667</ele><time>2026-04-18T07:55:58Z</time></trkpt><trkpt lat="43.036091086136494" lon="13.535488379844749"><ele>403.0</ele><time>2026-04-18T07:55:59Z</time></trkpt><trkpt lat="43.035893204839375" lon="13.535455580666806"><ele>403.6666666666667</ele><time>2026-04-18T07:56:00Z</time></trkpt><trkpt lat="43.03570534424466" lon="13.535416419059057"><ele>404.33333333333337</ele><time>2026-04-18T07:56:01Z</time></trkpt><trkpt lat="43.035535962965554" lon="13.53538363845081"><ele>405.0</ele><time>2026-04-18T07:56:02Z</time></trkpt><trkpt lat="43.035375291681014" lon="13.535370851611566"><ele>405.0</ele><time>2026-04-18T07:56:03Z</time></trkpt><trkpt lat="43.03521769512451" lon="13.535392983971125"><ele>405.0</ele><time>2026-04-18T07:56:04Z</time></trkpt><trkpt lat="43.03506861266905" lon="13.53537968716516"><ele>405.0</ele><time>2026-04-18T07:56:05Z</time></trkpt><trkpt lat="43.03492076078359" lon="13.535349729425137"><ele>410.66666666666663</ele><time>2026-04-18T07:56:06Z</time></trkpt><trkpt lat="43.03477871411806" lon="13.535297271491014"><ele>416.3333333333333</ele><time>2026-04-18T07:56:07Z</time></trkpt><trkpt lat="43.03469253759982" lon="13.53513203565814"><ele>422.0</ele><time>2026-04-18T07:56:08Z</time></trkpt><trkpt lat="43.03461176369942" lon="13.534952029169473"><ele>422.0</ele><time>2026-04-18T07:56:09Z</time></trkpt><trkpt lat="43.034540934124195" lon="13.534741339163059"><ele>422.0</ele><time>2026-04-18T07:56:10Z</time></trkpt><trkpt lat="43.034488566347" lon="13.534515868829635"><ele>422.0</ele><time>2026-04-18T07:56:11Z</time></trkpt><trkpt lat="43.034438095038325" lon="13.534296500567455"><ele>420.0</ele><time>2026-04-18T07:56:12Z</time></trkpt><trkpt lat="43.034350567190415" lon="13.534114911326377"><ele>418.0</ele><time>2026-04-18T07:56:13Z</time></trkpt><trkpt lat="43.03423866151684" lon="13.533964444409419"><ele>416.0</ele><time>2026-04-18T07:56:14Z</time></trkpt><trkpt lat="43.034126301544084" lon="13.533850936041366"><ele>416.0</ele><time>2026-04-18T07:56:15Z</time></trkpt><trkpt lat="43.03401503946742" lon="13.533742158382637"><ele>416.0</ele><time>2026-04-18T07:56:16Z</time></trkpt><trkpt lat="43.03390528702611" lon="13.533703163332788"><ele>416.0</ele><time>2026-04-18T07:56:17Z</time></trkpt><trkpt lat="43.033767239129084" lon="13.533688903415978"><ele>416.0</ele><time>2026-04-18T07:56:18Z</time></trkpt><trkpt lat="43.033621970317405" lon="13.533716096306469"><ele>416.0</ele><time>2026-04-18T07:56:19Z</time></trkpt><trkpt lat="43.03345806365773" lon="13.53374279746254"><ele>416.0</ele><time>2026-04-18T07:56:20Z</time></trkpt><trkpt lat="43.033291887669066" lon="13.533767176693583"><ele>416.0</ele><time>2026-04-18T07:56:21Z</time></trkpt><trkpt lat="43.03313609592486" lon="13.533800057663775"><ele>414.25</ele><time>2026-04-18T07:56:22Z</time></trkpt><trkpt lat="43.03299942958529" lon="13.533848068538896"><ele>412.5</ele><time>2026-04-18T07:56:23Z</time></trkpt><trkpt lat="43.03287744411814" lon="13.533927896364496"><ele>410.75</ele><time>2026-04-18T07:56:24Z</time></trkpt><trkpt lat="43.03276151995418" lon="13.534061035074021"><ele>409.0</ele><time>2026-04-18T07:56:25Z</time></trkpt><trkpt lat="43.032647511223246" lon="13.534207481146655"><ele>409.0</ele><time>2026-04-18T07:56:26Z</time></trkpt><trkpt lat="43.032530079422145" lon="13.534345307892755"><ele>409.0</ele><time>2026-04-18T07:56:27Z</time></trkpt><trkpt lat="43.03241872856317" lon="13.534484594973396"><ele>409.0</ele><time>2026-04-18T07:56:28Z</time></trkpt><trkpt lat="43.032334246037486" lon="13.534639429166116"><ele>409.0</ele><time>2026-04-18T07:56:29Z</time></trkpt><trkpt lat="43.0322610181267" lon="13.534798276501439"><ele>413.75</ele><time>2026-04-18T07:56:30Z</time></trkpt><trkpt lat="43.032148209321385" lon="13.534880905982698"><ele>418.5</ele><time>2026-04-18T07:56:31Z</time></trkpt><trkpt lat="43.03203408511571" lon="13.534916936685889"><ele>423.25</ele><time>2026-04-18T07:56:32Z</time></trkpt><trkpt lat="43.03190582696416" lon="13.534908049636782"><ele>428.0</ele><time>2026-04-18T07:56:32.999Z</time></trkpt><trkpt lat="43.03176112887033" lon="13.534893618952259"><ele>433.66666666666663</ele><time>2026-04-18T07:56:33.999Z</time></trkpt><trkpt lat="43.03161792472987" lon="13.534854337920658"><ele>439.33333333333337</ele><time>2026-04-18T07:56:34.999Z</time></trkpt><trkpt lat="43.03146520931917" lon="13.534818613036578"><ele>445.0</ele><time>2026-04-18T07:56:35.999Z</time></trkpt><trkpt lat="43.03130081404947" lon="13.534786683184917"><ele>445.0</ele><time>2026-04-18T07:56:36.999Z</time></trkpt><trkpt lat="43.031149860477754" lon="13.53472756624834"><ele>445.0</ele><time>2026-04-18T07:56:37.998Z</time></trkpt><trkpt lat="43.03101265512728" lon="13.534677310429986"><ele>445.0</ele><time>2026-04-18T07:56:38.998Z</time></trkpt><trkpt lat="43.03087721662047" lon="13.534659825125058"><ele>445.0</ele><time>2026-04-18T07:56:39.998Z</time></trkpt><trkpt lat="43.030741927476726" lon="13.53469366816019"><ele>445.0</ele><time>2026-04-18T07:56:40.998Z</time></trkpt><trkpt lat="43.03060207188755" lon="13.534755983986187"><ele>445.0</ele><time>2026-04-18T07:56:41.998Z</time></trkpt><trkpt lat="43.030453955265116" lon="13.534796612485215"><ele>445.0</ele><time>2026-04-18T07:56:42.998Z</time></trkpt><trkpt lat="43.030308628398444" lon="13.53480724164194"><ele>445.0</ele><time>2026-04-18T07:56:43.998Z</time></trkpt><trkpt lat="43.03015764107774" lon="13.534807287578257"><ele>445.0</ele><time>2026-04-18T07:56:44.998Z</time></trkpt><trkpt lat="43.030010588507096" lon="13.534815319721808"><ele>445.0</ele><time>2026-04-18T07:56:45.998Z</time></trkpt><trkpt lat="43.02986031343159" lon="13.534831395515617"><ele>445.0</ele><time>2026-04-18T07:56:46.998Z</time></trkpt><trkpt lat="43.02971713236466" lon="13.534867237623738"><ele>445.0</ele><time>2026-04-18T07:56:47.998Z</time></trkpt><trkpt lat="43.02957686052431" lon="13.534920167424541"><ele>444.75</ele><time>2026-04-18T07:56:48.998Z</time></trkpt><trkpt lat="43.029439876360556" lon="13.534991162467092"><ele>444.5</ele><time>2026-04-18T07:56:49.998Z</time></trkpt><trkpt lat="43.02930168515274" lon="13.535066461743211"><ele>444.25</ele><time>2026-04-18T07:56:50.998Z</time></trkpt><trkpt lat="43.02916177634563" lon="13.535125286994926"><ele>444.0</ele><time>2026-04-18T07:56:51.998Z</time></trkpt><trkpt lat="43.02902253582473" lon="13.53517797876731"><ele>444.0</ele><time>2026-04-18T07:56:52.998Z</time></trkpt><trkpt lat="43.028882156996254" lon="13.535222789263402"><ele>444.0</ele><time>2026-04-18T07:56:53.998Z</time></trkpt><trkpt lat="43.02874557456316" lon="13.535227584627878"><ele>444.0</ele><time>2026-04-18T07:56:54.998Z</time></trkpt><trkpt lat="43.028613936676244" lon="13.535176234626736"><ele>444.0</ele><time>2026-04-18T07:56:55.998Z</time></trkpt><trkpt lat="43.02849889200746" lon="13.53508567369467"><ele>444.0</ele><time>2026-04-18T07:56:56.998Z</time></trkpt><trkpt lat="43.02838502440617" lon="13.534985121372067"><ele>444.0</ele><time>2026-04-18T07:56:57.998Z</time></trkpt><trkpt lat="43.028265114293546" lon="13.53490086767309"><ele>444.0</ele><time>2026-04-18T07:56:58.998Z</time></trkpt><trkpt lat="43.02813706289932" lon="13.534841713170424"><ele>444.0</ele><time>2026-04-18T07:56:59.998Z</time></trkpt><trkpt lat="43.028001503271796" lon="13.534803318037248"><ele>441.75</ele><time>2026-04-18T07:57:00.998Z</time></trkpt><trkpt lat="43.02786417286394" lon="13.534777963367068"><ele>439.5</ele><time>2026-04-18T07:57:01.998Z</time></trkpt><trkpt lat="43.02773011734546" lon="13.534760555273259"><ele>437.25</ele><time>2026-04-18T07:57:02.998Z</time></trkpt><trkpt lat="43.02760117091357" lon="13.534750650388265"><ele>435.0</ele><time>2026-04-18T07:57:03.998Z</time></trkpt><trkpt lat="43.0274814499618" lon="13.534751083422835"><ele>434.6</ele><time>2026-04-18T07:57:04.998Z</time></trkpt><trkpt lat="43.02738123499049" lon="13.53476962910111"><ele>434.2</ele><time>2026-04-18T07:57:05.998Z</time></trkpt><trkpt lat="43.02730427058167" lon="13.534798084067035"><ele>433.79999999999995</ele><time>2026-04-18T07:57:06.998Z</time></trkpt><trkpt lat="43.0272246507467" lon="13.53483997284996"><ele>433.4</ele><time>2026-04-18T07:57:07.998Z</time></trkpt><trkpt lat="43.02714391790691" lon="13.534882380619504"><ele>433.0</ele><time>2026-04-18T07:57:08.998Z</time></trkpt><trkpt lat="43.02705026599481" lon="13.534929141177082"><ele>433.0</ele><time>2026-04-18T07:57:09.998Z</time></trkpt><trkpt lat="43.026948306637955" lon="13.534979775639194"><ele>433.0</ele><time>2026-04-18T07:57:10.998Z</time></trkpt><trkpt lat="43.02683780500913" lon="13.535040415260527"><ele>433.0</ele><time>2026-04-18T07:57:11.998Z</time></trkpt><trkpt lat="43.02672189217977" lon="13.53511617534034"><ele>433.0</ele><time>2026-04-18T07:57:12.998Z</time></trkpt><trkpt lat="43.02661043043903" lon="13.535201190521292"><ele>432.5</ele><time>2026-04-18T07:57:13.998Z</time></trkpt><trkpt lat="43.026502287521645" lon="13.53530012785778"><ele>432.0</ele><time>2026-04-18T07:57:14.998Z</time></trkpt><trkpt lat="43.02639788603249" lon="13.535409858822366"><ele>431.5</ele><time>2026-04-18T07:57:15.998Z</time></trkpt><trkpt lat="43.02630550463908" lon="13.53556697536142"><ele>431.0</ele><time>2026-04-18T07:57:16.998Z</time></trkpt><trkpt lat="43.02622267925813" lon="13.535751318748154"><ele>431.0</ele><time>2026-04-18T07:57:17.998Z</time></trkpt><trkpt lat="43.02614058986003" lon="13.535949192396206"><ele>431.0</ele><time>2026-04-18T07:57:18.998Z</time></trkpt><trkpt lat="43.026073560876185" lon="13.536159694219993"><ele>431.0</ele><time>2026-04-18T07:57:19.998Z</time></trkpt><trkpt lat="43.025980067232254" lon="13.5363514949571"><ele>432.66666666666663</ele><time>2026-04-18T07:57:20.998Z</time></trkpt><trkpt lat="43.02587966062398" lon="13.53654713081335"><ele>434.33333333333337</ele><time>2026-04-18T07:57:21.998Z</time></trkpt><trkpt lat="43.0257728217223" lon="13.536743581754571"><ele>436.0</ele><time>2026-04-18T07:57:22.998Z</time></trkpt><trkpt lat="43.025659292175376" lon="13.536934335798483"><ele>439.33333333333337</ele><time>2026-04-18T07:57:23.998Z</time></trkpt><trkpt lat="43.025543967661264" lon="13.537128714417172"><ele>442.66666666666663</ele><time>2026-04-18T07:57:24.998Z</time></trkpt><trkpt lat="43.02543004459128" lon="13.537327754320472"><ele>446.0</ele><time>2026-04-18T07:57:25.998Z</time></trkpt><trkpt lat="43.02531804158353" lon="13.537529314424553"><ele>446.0</ele><time>2026-04-18T07:57:26.998Z</time></trkpt><trkpt lat="43.02520412442059" lon="13.537730142236214"><ele>446.0</ele><time>2026-04-18T07:57:27.998Z</time></trkpt><trkpt lat="43.02509117517649" lon="13.53792745336806"><ele>446.0</ele><time>2026-04-18T07:57:28.998Z</time></trkpt><trkpt lat="43.024981493741755" lon="13.538118433647538"><ele>448.66666666666663</ele><time>2026-04-18T07:57:29.998Z</time></trkpt><trkpt lat="43.02486875197301" lon="13.538284668398973"><ele>451.33333333333337</ele><time>2026-04-18T07:57:30.998Z</time></trkpt><trkpt lat="43.02473552391757" lon="13.538410522173816"><ele>454.0</ele><time>2026-04-18T07:57:31.999Z</time></trkpt><trkpt lat="43.02458578456319" lon="13.538497338881422"><ele>454.0</ele><time>2026-04-18T07:57:32.999Z</time></trkpt><trkpt lat="43.02442000343198" lon="13.538538965045559"><ele>454.0</ele><time>2026-04-18T07:57:33.999Z</time></trkpt><trkpt lat="43.02425193317407" lon="13.5385493614344"><ele>454.0</ele><time>2026-04-18T07:57:34.999Z</time></trkpt><trkpt lat="43.024082367787344" lon="13.538519291952902"><ele>456.33333333333337</ele><time>2026-04-18T07:57:35.999Z</time></trkpt><trkpt lat="43.02391486419473" lon="13.538468692545086"><ele>458.66666666666663</ele><time>2026-04-18T07:57:36.999Z</time></trkpt><trkpt lat="43.02374232192454" lon="13.538426959098299"><ele>461.0</ele><time>2026-04-18T07:57:37.999Z</time></trkpt><trkpt lat="43.023564025800596" lon="13.538413940801497"><ele>461.0</ele><time>2026-04-18T07:57:39Z</time></trkpt><trkpt lat="43.023386724682844" lon="13.538427907410746"><ele>461.0</ele><time>2026-04-18T07:57:39.999Z</time></trkpt><trkpt lat="43.023211255119215" lon="13.538451306188609"><ele>461.0</ele><time>2026-04-18T07:57:41Z</time></trkpt><trkpt lat="43.02304952254088" lon="13.53846758094696"><ele>464.25</ele><time>2026-04-18T07:57:42Z</time></trkpt><trkpt lat="43.02290898079487" lon="13.538487746875528"><ele>467.5</ele><time>2026-04-18T07:57:42.999Z</time></trkpt><trkpt lat="43.02279573203198" lon="13.538533208241601"><ele>470.75</ele><time>2026-04-18T07:57:44Z</time></trkpt><trkpt lat="43.02271766908849" lon="13.538658175858767"><ele>474.0</ele><time>2026-04-18T07:57:45Z</time></trkpt><trkpt lat="43.022704905154875" lon="13.538849232051774"><ele>474.0</ele><time>2026-04-18T07:57:46Z</time></trkpt><trkpt lat="43.022711394570145" lon="13.53904238245158"><ele>474.0</ele><time>2026-04-18T07:57:47Z</time></trkpt><trkpt lat="43.022750461083355" lon="13.539249704101875"><ele>474.0</ele><time>2026-04-18T07:57:47.999Z</time></trkpt><trkpt lat="43.02282539029594" lon="13.539453247987364"><ele>476.33333333333337</ele><time>2026-04-18T07:57:48.999Z</time></trkpt><trkpt lat="43.02292021172511" lon="13.5396482477689"><ele>478.6666666666667</ele><time>2026-04-18T07:57:49.999Z</time></trkpt><trkpt lat="43.02298812203274" lon="13.53986124234482"><ele>481.0</ele><time>2026-04-18T07:57:50.999Z</time></trkpt><trkpt lat="43.023002340370255" lon="13.54009083968743"><ele>481.0</ele><time>2026-04-18T07:57:51.999Z</time></trkpt><trkpt lat="43.02299802330839" lon="13.540315428815372"><ele>481.0</ele><time>2026-04-18T07:57:52.999Z</time></trkpt><trkpt lat="43.02297217686454" lon="13.540536339186273"><ele>481.0</ele><time>2026-04-18T07:57:53.999Z</time></trkpt><trkpt lat="43.02289808208365" lon="13.540737518576629"><ele>480.6666666666667</ele><time>2026-04-18T07:57:54.999Z</time></trkpt><trkpt lat="43.022807450109205" lon="13.540911936061864"><ele>480.33333333333337</ele><time>2026-04-18T07:57:55.999Z</time></trkpt><trkpt lat="43.022705101201325" lon="13.541071445114632"><ele>480.0</ele><time>2026-04-18T07:57:56.999Z</time></trkpt><trkpt lat="43.022575276741726" lon="13.541183135227561"><ele>480.33333333333337</ele><time>2026-04-18T07:57:57.999Z</time></trkpt><trkpt lat="43.022424319688795" lon="13.541256720380504"><ele>480.6666666666667</ele><time>2026-04-18T07:57:58.999Z</time></trkpt><trkpt lat="43.02226228534766" lon="13.541306313982151"><ele>481.0</ele><time>2026-04-18T07:57:59.999Z</time></trkpt><trkpt lat="43.02209308947013" lon="13.54129670477989"><ele>481.0</ele><time>2026-04-18T07:58:00.999Z</time></trkpt><trkpt lat="43.02192346981323" lon="13.541314290841472"><ele>481.0</ele><time>2026-04-18T07:58:01.999Z</time></trkpt><trkpt lat="43.021752433257554" lon="13.541290802735793"><ele>481.0</ele><time>2026-04-18T07:58:02.999Z</time></trkpt><trkpt lat="43.02157632673407" lon="13.541268978431408"><ele>482.6666666666667</ele><time>2026-04-18T07:58:03.999Z</time></trkpt><trkpt lat="43.02139554992225" lon="13.541258068215896"><ele>484.33333333333337</ele><time>2026-04-18T07:58:04.999Z</time></trkpt><trkpt lat="43.02121595721708" lon="13.541245317617909"><ele>486.0</ele><time>2026-04-18T07:58:05.999Z</time></trkpt><trkpt lat="43.02104606417572" lon="13.541219798748843"><ele>489.33333333333337</ele><time>2026-04-18T07:58:06.999Z</time></trkpt><trkpt lat="43.020882858981835" lon="13.541158175914294"><ele>492.6666666666667</ele><time>2026-04-18T07:58:07.999Z</time></trkpt><trkpt lat="43.02073045735551" lon="13.541051717395272"><ele>496.0</ele><time>2026-04-18T07:58:08.999Z</time></trkpt><trkpt lat="43.02059625956443" lon="13.540906361452938"><ele>496.0</ele><time>2026-04-18T07:58:09.999Z</time></trkpt><trkpt lat="43.020465240588216" lon="13.540744808206842"><ele>496.0</ele><time>2026-04-18T07:58:10.999Z</time></trkpt><trkpt lat="43.02033156281079" lon="13.540581896699766"><ele>496.0</ele><time>2026-04-18T07:58:11.999Z</time></trkpt><trkpt lat="43.02019235973205" lon="13.540418365290112"><ele>498.6666666666667</ele><time>2026-04-18T07:58:12.999Z</time></trkpt><trkpt lat="43.02005071253749" lon="13.540261183768187"><ele>501.33333333333337</ele><time>2026-04-18T07:58:13.999Z</time></trkpt><trkpt lat="43.019898287703946" lon="13.540131189885432"><ele>504.0</ele><time>2026-04-18T07:58:14.999Z</time></trkpt><trkpt lat="43.019736270352084" lon="13.540049064569075"><ele>507.0</ele><time>2026-04-18T07:58:15.999Z</time></trkpt><trkpt lat="43.01956789892044" lon="13.540020874999714"><ele>510.0</ele><time>2026-04-18T07:58:16.999Z</time></trkpt><trkpt lat="43.01939658643436" lon="13.540003897865505"><ele>513.0</ele><time>2026-04-18T07:58:17.999Z</time></trkpt><trkpt lat="43.01922351895729" lon="13.540066244117611"><ele>515.3333333333334</ele><time>2026-04-18T07:58:18.999Z</time></trkpt><trkpt lat="43.019055766030206" lon="13.540162411357962"><ele>517.6666666666667</ele><time>2026-04-18T07:58:19.999Z</time></trkpt><trkpt lat="43.01890163904309" lon="13.540251395951708"><ele>520.0</ele><time>2026-04-18T07:58:20.999Z</time></trkpt><trkpt lat="43.01874220082279" lon="13.540332641244646"><ele>520.0</ele><time>2026-04-18T07:58:21.999Z</time></trkpt><trkpt lat="43.018575309174594" lon="13.540308072647218"><ele>520.0</ele><time>2026-04-18T07:58:22.999Z</time></trkpt><trkpt lat="43.018420402398554" lon="13.54026391274771"><ele>520.0</ele><time>2026-04-18T07:58:23.999Z</time></trkpt><trkpt lat="43.018267067187395" lon="13.540185991663767"><ele>515.0</ele><time>2026-04-18T07:58:24.999Z</time></trkpt><trkpt lat="43.018147679544235" lon="13.540046039215975"><ele>510.0</ele><time>2026-04-18T07:58:25.999Z</time></trkpt><trkpt lat="43.018048775454915" lon="13.539872783800094"><ele>505.0</ele><time>2026-04-18T07:58:26.999Z</time></trkpt><trkpt lat="43.01797746691915" lon="13.539666784842403"><ele>510.0</ele><time>2026-04-18T07:58:27.999Z</time></trkpt><trkpt lat="43.01791674746466" lon="13.539449036089222"><ele>515.0</ele><time>2026-04-18T07:58:28.999Z</time></trkpt><trkpt lat="43.01784884781009" lon="13.53923042823916"><ele>520.0</ele><time>2026-04-18T07:58:29.999Z</time></trkpt><trkpt lat="43.01776727581762" lon="13.539021239682206"><ele>520.0</ele><time>2026-04-18T07:58:30.999Z</time></trkpt><trkpt lat="43.0176732475425" lon="13.538823302633492"><ele>520.0</ele><time>2026-04-18T07:58:31.999Z</time></trkpt><trkpt lat="43.01757363907072" lon="13.538651938468405"><ele>520.0</ele><time>2026-04-18T07:58:32.999Z</time></trkpt><trkpt lat="43.017469144562405" lon="13.53850929784405"><ele>522.6</ele><time>2026-04-18T07:58:33.999Z</time></trkpt><trkpt lat="43.01736413588123" lon="13.53839162675203"><ele>525.2</ele><time>2026-04-18T07:58:34.999Z</time></trkpt><trkpt lat="43.01726030347521" lon="13.538300364241517"><ele>527.8</ele><time>2026-04-18T07:58:35.999Z</time></trkpt><trkpt lat="43.01717366732111" lon="13.538223743993706"><ele>530.4</ele><time>2026-04-18T07:58:36.999Z</time></trkpt><trkpt lat="43.017112967982804" lon="13.538156283841"><ele>533.0</ele><time>2026-04-18T07:58:37.999Z</time></trkpt><trkpt lat="43.01707291663924" lon="13.538088409280368"><ele>533.0</ele><time>2026-04-18T07:58:38.999Z</time></trkpt><trkpt lat="43.01699830032659" lon="13.538024660977237"><ele>533.0</ele><time>2026-04-18T07:58:40.999Z</time></trkpt><trkpt lat="43.01707809055211" lon="13.537778692718652"><ele>533.0</ele><time>2026-04-18T07:58:42.999Z</time></trkpt><trkpt lat="43.01711208712252" lon="13.537662282188439"><ele>533.0</ele><time>2026-04-18T07:58:43.999Z</time></trkpt><trkpt lat="43.017139901138094" lon="13.537529807441999"><ele>533.25</ele><time>2026-04-18T07:58:44.999Z</time></trkpt><trkpt lat="43.01715324834934" lon="13.537386771522561"><ele>533.5</ele><time>2026-04-18T07:58:45.999Z</time></trkpt><trkpt lat="43.017158787572825" lon="13.537232095364887"><ele>533.75</ele><time>2026-04-18T07:58:46.999Z</time></trkpt><trkpt lat="43.01715280314125" lon="13.537064082321702"><ele>534.0</ele><time>2026-04-18T07:58:47.999Z</time></trkpt><trkpt lat="43.017163604231314" lon="13.536895287520283"><ele>529.75</ele><time>2026-04-18T07:58:48.999Z</time></trkpt><trkpt lat="43.01719719666538" lon="13.53672238395812"><ele>525.5</ele><time>2026-04-18T07:58:49.999Z</time></trkpt><trkpt lat="43.01725466481529" lon="13.53654682962463"><ele>521.25</ele><time>2026-04-18T07:58:50.999Z</time></trkpt><trkpt lat="43.017321217729865" lon="13.53636592432097"><ele>517.0</ele><time>2026-04-18T07:58:51.999Z</time></trkpt><trkpt lat="43.017386012684376" lon="13.536178871268921"><ele>521.0</ele><time>2026-04-18T07:58:52.999Z</time></trkpt><trkpt lat="43.01744994754922" lon="13.53598477005833"><ele>525.0</ele><time>2026-04-18T07:58:53.999Z</time></trkpt><trkpt lat="43.017503914988595" lon="13.535786242647779"><ele>529.0</ele><time>2026-04-18T07:58:54.999Z</time></trkpt><trkpt lat="43.017545874650814" lon="13.535580376926648"><ele>525.6666666666667</ele><time>2026-04-18T07:58:55.999Z</time></trkpt><trkpt lat="43.01757322737715" lon="13.535365552627644"><ele>522.3333333333334</ele><time>2026-04-18T07:58:56.999Z</time></trkpt><trkpt lat="43.017579914421425" lon="13.535148646123123"><ele>519.0</ele><time>2026-04-18T07:58:57.999Z</time></trkpt><trkpt lat="43.01757248854869" lon="13.534924485975756"><ele>519.0</ele><time>2026-04-18T07:58:58.999Z</time></trkpt><trkpt lat="43.01755596291387" lon="13.534703152136206"><ele>519.0</ele><time>2026-04-18T07:58:59.999Z</time></trkpt><trkpt lat="43.01753763590353" lon="13.534484140816103"><ele>519.0</ele><time>2026-04-18T07:59:00.999Z</time></trkpt><trkpt lat="43.017517290172954" lon="13.534267925436975"><ele>516.6666666666666</ele><time>2026-04-18T07:59:01.999Z</time></trkpt><trkpt lat="43.01749609779764" lon="13.534048598174351"><ele>514.3333333333333</ele><time>2026-04-18T07:59:02.999Z</time></trkpt><trkpt lat="43.01747472078488" lon="13.533831322998783"><ele>512.0</ele><time>2026-04-18T07:59:03.998Z</time></trkpt><trkpt lat="43.01745585729704" lon="13.53362007715221"><ele>503.75</ele><time>2026-04-18T07:59:04.998Z</time></trkpt><trkpt lat="43.01743636290233" lon="13.533413873359663"><ele>495.5</ele><time>2026-04-18T07:59:05.998Z</time></trkpt><trkpt lat="43.01741746262007" lon="13.53321001125476"><ele>487.25</ele><time>2026-04-18T07:59:06.998Z</time></trkpt><trkpt lat="43.01740520536715" lon="13.533022262847098"><ele>479.0</ele><time>2026-04-18T07:59:07.998Z</time></trkpt><trkpt lat="43.01741440940969" lon="13.53286226920842"><ele>479.0</ele><time>2026-04-18T07:59:08.998Z</time></trkpt><trkpt lat="43.01745254088627" lon="13.53271449000846"><ele>479.0</ele><time>2026-04-18T07:59:09.998Z</time></trkpt><trkpt lat="43.01753855589481" lon="13.5326045585467"><ele>479.0</ele><time>2026-04-18T07:59:10.998Z</time></trkpt><trkpt lat="43.017656870330825" lon="13.532515162946973"><ele>479.0</ele><time>2026-04-18T07:59:11.998Z</time></trkpt><trkpt lat="43.017789868998534" lon="13.532436753719455"><ele>483.5</ele><time>2026-04-18T07:59:12.998Z</time></trkpt><trkpt lat="43.017926099300915" lon="13.532364898903998"><ele>488.0</ele><time>2026-04-18T07:59:13.998Z</time></trkpt><trkpt lat="43.01805696320347" lon="13.532310719804586"><ele>492.5</ele><time>2026-04-18T07:59:14.998Z</time></trkpt><trkpt lat="43.01816239559582" lon="13.532273665154111"><ele>497.0</ele><time>2026-04-18T07:59:15.998Z</time></trkpt><trkpt lat="43.01823500261225" lon="13.532212232576374"><ele>496.99999999999994</ele><time>2026-04-18T07:59:16.998Z</time></trkpt><trkpt lat="43.01826313755761" lon="13.532123390076572"><ele>497.0</ele><time>2026-04-18T07:59:17.998Z</time></trkpt><trkpt lat="43.01823904724921" lon="13.532030924305381"><ele>497.0</ele><time>2026-04-18T07:59:18.998Z</time></trkpt><trkpt lat="43.01816773583969" lon="13.531968027593054"><ele>497.0</ele><time>2026-04-18T07:59:19.998Z</time></trkpt><trkpt lat="43.018061363377015" lon="13.531966305163959"><ele>496.99999999999994</ele><time>2026-04-18T07:59:20.998Z</time></trkpt><trkpt lat="43.017955148173144" lon="13.532000654908241"><ele>497.0</ele><time>2026-04-18T07:59:21.998Z</time></trkpt><trkpt lat="43.01781901175206" lon="13.532013304967267"><ele>497.0</ele><time>2026-04-18T07:59:22.998Z</time></trkpt><trkpt lat="43.017696124709765" lon="13.532039551592977"><ele>497.0</ele><time>2026-04-18T07:59:23.998Z</time></trkpt><trkpt lat="43.017550547611094" lon="13.532082909114562"><ele>497.0</ele><time>2026-04-18T07:59:24.998Z</time></trkpt><trkpt lat="43.01739506427433" lon="13.53206737163865"><ele>497.0</ele><time>2026-04-18T07:59:25.998Z</time></trkpt><trkpt lat="43.01724338813454" lon="13.532034886491829"><ele>491.5</ele><time>2026-04-18T07:59:26.998Z</time></trkpt><trkpt lat="43.01709792831346" lon="13.532006463738092"><ele>486.0</ele><time>2026-04-18T07:59:27.998Z</time></trkpt><trkpt lat="43.01696265644106" lon="13.531987738833879"><ele>480.5</ele><time>2026-04-18T07:59:28.998Z</time></trkpt><trkpt lat="43.016852488871194" lon="13.53196661193654"><ele>475.0</ele><time>2026-04-18T07:59:29.998Z</time></trkpt><trkpt lat="43.01676983819769" lon="13.531928020072236"><ele>475.0</ele><time>2026-04-18T07:59:30.998Z</time></trkpt><trkpt lat="43.016716638706704" lon="13.531863955229241"><ele>475.0</ele><time>2026-04-18T07:59:31.998Z</time></trkpt><trkpt lat="43.01675430220065" lon="13.531694143429618"><ele>475.0</ele><time>2026-04-18T07:59:33.998Z</time></trkpt><trkpt lat="43.01683884189171" lon="13.531649333658072"><ele>475.0</ele><time>2026-04-18T07:59:34.998Z</time></trkpt><trkpt lat="43.01694591777778" lon="13.531640865070882"><ele>475.0</ele><time>2026-04-18T07:59:35.998Z</time></trkpt><trkpt lat="43.01707340365829" lon="13.531655314831315"><ele>475.0</ele><time>2026-04-18T07:59:37Z</time></trkpt><trkpt lat="43.01721686686522" lon="13.53166451891309"><ele>475.0</ele><time>2026-04-18T07:59:38Z</time></trkpt><trkpt lat="43.01736765484663" lon="13.531652158463263"><ele>475.0</ele><time>2026-04-18T07:59:39Z</time></trkpt><trkpt lat="43.01751693817342" lon="13.531617051844343"><ele>475.0</ele><time>2026-04-18T07:59:40Z</time></trkpt><trkpt lat="43.017658487018295" lon="13.531530709212076"><ele>476.6666666666667</ele><time>2026-04-18T07:59:41Z</time></trkpt><trkpt lat="43.01778003669742" lon="13.531393817204583"><ele>478.33333333333337</ele><time>2026-04-18T07:59:42Z</time></trkpt><trkpt lat="43.01788168833965" lon="13.5312277177849"><ele>480.0</ele><time>2026-04-18T07:59:43Z</time></trkpt><trkpt lat="43.017949300693274" lon="13.531033949683696"><ele>474.0</ele><time>2026-04-18T07:59:44Z</time></trkpt><trkpt lat="43.01799016180065" lon="13.530823622322476"><ele>468.0</ele><time>2026-04-18T07:59:45Z</time></trkpt><trkpt lat="43.01802728563758" lon="13.530611344500732"><ele>462.0</ele><time>2026-04-18T07:59:46Z</time></trkpt><trkpt lat="43.018037235017545" lon="13.530388401303693"><ele>459.66666666666663</ele><time>2026-04-18T07:59:47Z</time></trkpt><trkpt lat="43.01801947626832" lon="13.530158161874587"><ele>457.3333333333333</ele><time>2026-04-18T07:59:48Z</time></trkpt><trkpt lat="43.017978403186206" lon="13.52993310829617"><ele>455.0</ele><time>2026-04-18T07:59:49Z</time></trkpt><trkpt lat="43.01793186991146" lon="13.529709657701181"><ele>456.3333333333333</ele><time>2026-04-18T07:59:50Z</time></trkpt><trkpt lat="43.01788464357755" lon="13.52948222320926"><ele>457.66666666666663</ele><time>2026-04-18T07:59:51Z</time></trkpt><trkpt lat="43.01783646292334" lon="13.529251222980383"><ele>459.0</ele><time>2026-04-18T07:59:52Z</time></trkpt><trkpt lat="43.017784027725625" lon="13.529017931985834"><ele>459.0</ele><time>2026-04-18T07:59:53Z</time></trkpt><trkpt lat="43.01772909895063" lon="13.528786750932145"><ele>459.0</ele><time>2026-04-18T07:59:54Z</time></trkpt><trkpt lat="43.0176754069431" lon="13.528561458494597"><ele>459.0</ele><time>2026-04-18T07:59:55Z</time></trkpt><trkpt lat="43.017622627417374" lon="13.528332939293126"><ele>458.0</ele><time>2026-04-18T07:59:56Z</time></trkpt><trkpt lat="43.017572365443925" lon="13.528105230259428"><ele>457.0</ele><time>2026-04-18T07:59:57Z</time></trkpt><trkpt lat="43.017523322706595" lon="13.527866978601152"><ele>456.0</ele><time>2026-04-18T07:59:58Z</time></trkpt><trkpt lat="43.01747374593583" lon="13.52765308102794"><ele>456.0</ele><time>2026-04-18T07:59:59Z</time></trkpt><trkpt lat="43.017423306048094" lon="13.527423588416834"><ele>456.0</ele><time>2026-04-18T08:00:00Z</time></trkpt><trkpt lat="43.01736860426997" lon="13.527196459945857"><ele>456.0</ele><time>2026-04-18T08:00:01Z</time></trkpt><trkpt lat="43.01731823237072" lon="13.526966270589572"><ele>460.66666666666663</ele><time>2026-04-18T08:00:02Z</time></trkpt><trkpt lat="43.017266046735244" lon="13.526734687476159"><ele>465.3333333333333</ele><time>2026-04-18T08:00:03Z</time></trkpt><trkpt lat="43.01718827508195" lon="13.526524812128633"><ele>470.0</ele><time>2026-04-18T08:00:04Z</time></trkpt><trkpt lat="43.017069134291276" lon="13.526373508437732"><ele>470.0</ele><time>2026-04-18T08:00:05Z</time></trkpt><trkpt lat="43.01691849469839" lon="13.526270034277664"><ele>470.0</ele><time>2026-04-18T08:00:06Z</time></trkpt><trkpt lat="43.016748005335934" lon="13.526199303322828"><ele>470.0</ele><time>2026-04-18T08:00:07Z</time></trkpt><trkpt lat="43.016571211210824" lon="13.52613803095252"><ele>471.3333333333333</ele><time>2026-04-18T08:00:08Z</time></trkpt><trkpt lat="43.01639652946943" lon="13.526053187358395"><ele>472.66666666666663</ele><time>2026-04-18T08:00:09Z</time></trkpt><trkpt lat="43.01622496993291" lon="13.5259411004792"><ele>474.0</ele><time>2026-04-18T08:00:10Z</time></trkpt><trkpt lat="43.01606225816516" lon="13.52580301448944"><ele>474.0</ele><time>2026-04-18T08:00:10.999Z</time></trkpt><trkpt lat="43.015907128545464" lon="13.525652566482231"><ele>474.0</ele><time>2026-04-18T08:00:11.999Z</time></trkpt><trkpt lat="43.01574884079581" lon="13.525498230321784"><ele>474.0</ele><time>2026-04-18T08:00:12.999Z</time></trkpt><trkpt lat="43.01558675192355" lon="13.525343429450468"><ele>475.66666666666663</ele><time>2026-04-18T08:00:13.999Z</time></trkpt><trkpt lat="43.01542239522955" lon="13.52518903386839"><ele>477.3333333333333</ele><time>2026-04-18T08:00:14.999Z</time></trkpt><trkpt lat="43.01525716846656" lon="13.525030554298022"><ele>479.0</ele><time>2026-04-18T08:00:15.999Z</time></trkpt><trkpt lat="43.01509145243548" lon="13.524866656218716"><ele>480.3333333333333</ele><time>2026-04-18T08:00:16.999Z</time></trkpt><trkpt lat="43.014929026023374" lon="13.524702398910492"><ele>481.66666666666663</ele><time>2026-04-18T08:00:17.999Z</time></trkpt><trkpt lat="43.0147679523708" lon="13.524538071925742"><ele>483.0</ele><time>2026-04-18T08:00:18.999Z</time></trkpt><trkpt lat="43.014609622312086" lon="13.52437705981084"><ele>483.0</ele><time>2026-04-18T08:00:19.999Z</time></trkpt><trkpt lat="43.01445731224016" lon="13.524215703437523"><ele>483.0</ele><time>2026-04-18T08:00:20.999Z</time></trkpt><trkpt lat="43.0143110762795" lon="13.52405976767054"><ele>483.0</ele><time>2026-04-18T08:00:21.999Z</time></trkpt><trkpt lat="43.014175949154954" lon="13.523897545987927"><ele>480.66666666666663</ele><time>2026-04-18T08:00:22.999Z</time></trkpt><trkpt lat="43.014068524346754" lon="13.523713534509607"><ele>478.3333333333333</ele><time>2026-04-18T08:00:23.999Z</time></trkpt><trkpt lat="43.01399250712987" lon="13.523500581724251"><ele>476.0</ele><time>2026-04-18T08:00:24.999Z</time></trkpt><trkpt lat="43.01394516339732" lon="13.523261601350846"><ele>476.0</ele><time>2026-04-18T08:00:25.999Z</time></trkpt><trkpt lat="43.013930805611906" lon="13.523010122843887"><ele>476.0</ele><time>2026-04-18T08:00:26.999Z</time></trkpt><trkpt lat="43.01390337468124" lon="13.522748506021609"><ele>476.0</ele><time>2026-04-18T08:00:27.999Z</time></trkpt><trkpt lat="43.01390263608776" lon="13.522483961402898"><ele>474.3333333333333</ele><time>2026-04-18T08:00:28.999Z</time></trkpt><trkpt lat="43.01390930718268" lon="13.522219399669769"><ele>472.66666666666663</ele><time>2026-04-18T08:00:29.999Z</time></trkpt><trkpt lat="43.01390807555728" lon="13.521948250869197"><ele>471.0</ele><time>2026-04-18T08:00:30.999Z</time></trkpt><trkpt lat="43.01389636601077" lon="13.521673404044106"><ele>471.66666666666663</ele><time>2026-04-18T08:00:31.999Z</time></trkpt><trkpt lat="43.01388478707047" lon="13.521402568188334"><ele>472.3333333333333</ele><time>2026-04-18T08:00:32.999Z</time></trkpt><trkpt lat="43.01386714902386" lon="13.521132026624047"><ele>473.0</ele><time>2026-04-18T08:00:33.999Z</time></trkpt><trkpt lat="43.013843379075944" lon="13.520866499864667"><ele>473.0</ele><time>2026-04-18T08:00:34.999Z</time></trkpt><trkpt lat="43.01380056877134" lon="13.520608668810377"><ele>473.0</ele><time>2026-04-18T08:00:35.999Z</time></trkpt><trkpt lat="43.01373006334605" lon="13.52036042705065"><ele>473.0</ele><time>2026-04-18T08:00:36.999Z</time></trkpt><trkpt lat="43.013642627449066" lon="13.520126602364611"><ele>477.0</ele><time>2026-04-18T08:00:37.999Z</time></trkpt><trkpt lat="43.013551515260005" lon="13.519895594979875"><ele>481.0</ele><time>2026-04-18T08:00:38.999Z</time></trkpt><trkpt lat="43.01346310459806" lon="13.519672167086146"><ele>485.0</ele><time>2026-04-18T08:00:39.999Z</time></trkpt><trkpt lat="43.013375609413906" lon="13.519448796386463"><ele>480.3333333333333</ele><time>2026-04-18T08:00:40.999Z</time></trkpt><trkpt lat="43.01329223631938" lon="13.519225657088777"><ele>475.66666666666663</ele><time>2026-04-18T08:00:41.999Z</time></trkpt><trkpt lat="43.01320834014529" lon="13.519000599861913"><ele>471.0</ele><time>2026-04-18T08:00:42.999Z</time></trkpt><trkpt lat="43.01312251852786" lon="13.518783073115431"><ele>472.0</ele><time>2026-04-18T08:00:43.999Z</time></trkpt><trkpt lat="43.013037457752525" lon="13.518569030220831"><ele>473.0</ele><time>2026-04-18T08:00:44.999Z</time></trkpt><trkpt lat="43.0129567812982" lon="13.518357739707726"><ele>474.0</ele><time>2026-04-18T08:00:45.999Z</time></trkpt><trkpt lat="43.012882855525056" lon="13.518151663457934"><ele>474.0</ele><time>2026-04-18T08:00:46.999Z</time></trkpt><trkpt lat="43.01281465852697" lon="13.51794554903644"><ele>474.0</ele><time>2026-04-18T08:00:47.999Z</time></trkpt><trkpt lat="43.01275463835943" lon="13.517745364337932"><ele>474.0</ele><time>2026-04-18T08:00:48.999Z</time></trkpt><trkpt lat="43.01270133933044" lon="13.517562007033042"><ele>474.5</ele><time>2026-04-18T08:00:49.999Z</time></trkpt><trkpt lat="43.01265729117376" lon="13.517400629773524"><ele>475.0</ele><time>2026-04-18T08:00:50.999Z</time></trkpt><trkpt lat="43.012608546329425" lon="13.517257693522552"><ele>475.5</ele><time>2026-04-18T08:00:51.999Z</time></trkpt><trkpt lat="43.012590088258236" lon="13.517111684063702"><ele>476.0</ele><time>2026-04-18T08:00:52.999Z</time></trkpt><trkpt lat="43.01240534014807" lon="13.517032141141378"><ele>476.0</ele><time>2026-04-18T08:00:53.999Z</time></trkpt><trkpt lat="43.01225934531515" lon="13.516960350800517"><ele>476.0</ele><time>2026-04-18T08:00:54.999Z</time></trkpt><trkpt lat="43.012099920462184" lon="13.51689286425955"><ele>476.0</ele><time>2026-04-18T08:00:55.999Z</time></trkpt><trkpt lat="43.011933653784105" lon="13.516811355340684"><ele>476.0</ele><time>2026-04-18T08:00:56.999Z</time></trkpt><trkpt lat="43.011765967972764" lon="13.516725378251737"><ele>476.0</ele><time>2026-04-18T08:00:57.999Z</time></trkpt><trkpt lat="43.01159624849471" lon="13.516635472269929"><ele>476.0</ele><time>2026-04-18T08:00:58.999Z</time></trkpt><trkpt lat="43.01142137889053" lon="13.516547752989197"><ele>476.66666666666663</ele><time>2026-04-18T08:00:59.999Z</time></trkpt><trkpt lat="43.011245531978695" lon="13.516466634526331"><ele>477.33333333333337</ele><time>2026-04-18T08:01:00.999Z</time></trkpt><trkpt lat="43.01107212547943" lon="13.516382561999547"><ele>478.0</ele><time>2026-04-18T08:01:01.999Z</time></trkpt><trkpt lat="43.01089992784232" lon="13.51629555686174"><ele>476.33333333333337</ele><time>2026-04-18T08:01:02.999Z</time></trkpt><trkpt lat="43.01072697639663" lon="13.516209277884313"><ele>474.66666666666663</ele><time>2026-04-18T08:01:03.999Z</time></trkpt><trkpt lat="43.010558728643346" lon="13.51613403787231"><ele>473.0</ele><time>2026-04-18T08:01:04.999Z</time></trkpt><trkpt lat="43.010387775502224" lon="13.51607287201188"><ele>473.0</ele><time>2026-04-18T08:01:05.999Z</time></trkpt><trkpt lat="43.01021309850016" lon="13.516035184809502"><ele>473.0</ele><time>2026-04-18T08:01:06.999Z</time></trkpt><trkpt lat="43.01003599088604" lon="13.516008777803345"><ele>473.0</ele><time>2026-04-18T08:01:07.999Z</time></trkpt><trkpt lat="43.00986475860222" lon="13.516013935466814"><ele>472.5</ele><time>2026-04-18T08:01:08.999Z</time></trkpt><trkpt lat="43.00970339081879" lon="13.516033558708642"><ele>472.0</ele><time>2026-04-18T08:01:09.999Z</time></trkpt><trkpt lat="43.00955630005531" lon="13.516019269399395"><ele>471.5</ele><time>2026-04-18T08:01:10.999Z</time></trkpt><trkpt lat="43.009419836419546" lon="13.516014975916422"><ele>471.0</ele><time>2026-04-18T08:01:11.999Z</time></trkpt><trkpt lat="43.009296233095" lon="13.515909228252179"><ele>471.0</ele><time>2026-04-18T08:01:12.999Z</time></trkpt><trkpt lat="43.00919171489211" lon="13.515780203453005"><ele>471.0</ele><time>2026-04-18T08:01:13.999Z</time></trkpt><trkpt lat="43.009139893729774" lon="13.51559508509649"><ele>471.0</ele><time>2026-04-18T08:01:14.999Z</time></trkpt><trkpt lat="43.00909112511089" lon="13.515393437900164"><ele>471.0</ele><time>2026-04-18T08:01:15.999Z</time></trkpt><trkpt lat="43.00907918760099" lon="13.515171216673897"><ele>474.33333333333337</ele><time>2026-04-18T08:01:16.999Z</time></trkpt><trkpt lat="43.009079165766636" lon="13.514952414395832"><ele>477.6666666666667</ele><time>2026-04-18T08:01:17.999Z</time></trkpt><trkpt lat="43.009071071314516" lon="13.514740640137871"><ele>481.0</ele><time>2026-04-18T08:01:18.999Z</time></trkpt><trkpt lat="43.00904124642843" lon="13.514556822398113"><ele>481.5</ele><time>2026-04-18T08:01:19.998Z</time></trkpt><trkpt lat="43.00897841355585" lon="13.514397338403596"><ele>482.0</ele><time>2026-04-18T08:01:20.998Z</time></trkpt><trkpt lat="43.00887492608757" lon="13.514257591460106"><ele>482.5</ele><time>2026-04-18T08:01:21.998Z</time></trkpt><trkpt lat="43.00873769108071" lon="13.514157577198503"><ele>483.0</ele><time>2026-04-18T08:01:22.998Z</time></trkpt><trkpt lat="43.008579897893554" lon="13.514098959163258"><ele>483.0</ele><time>2026-04-18T08:01:23.998Z</time></trkpt><trkpt lat="43.00841225258784" lon="13.514060970118383"><ele>483.0</ele><time>2026-04-18T08:01:24.998Z</time></trkpt><trkpt lat="43.008242489749954" lon="13.513999264723468"><ele>483.0</ele><time>2026-04-18T08:01:25.998Z</time></trkpt><trkpt lat="43.00807389034818" lon="13.513902862951714"><ele>482.0</ele><time>2026-04-18T08:01:26.998Z</time></trkpt><trkpt lat="43.00791079193013" lon="13.5137852537041"><ele>481.0</ele><time>2026-04-18T08:01:27.998Z</time></trkpt><trkpt lat="43.007764407322895" lon="13.513665321792882"><ele>480.0</ele><time>2026-04-18T08:01:28.998Z</time></trkpt><trkpt lat="43.007638370647534" lon="13.513545424653904"><ele>480.0</ele><time>2026-04-18T08:01:29.998Z</time></trkpt><trkpt lat="43.007527627515884" lon="13.513407328568876"><ele>480.0</ele><time>2026-04-18T08:01:30.998Z</time></trkpt><trkpt lat="43.007435333475115" lon="13.513281336939087"><ele>480.0</ele><time>2026-04-18T08:01:31.998Z</time></trkpt><trkpt lat="43.00735752600812" lon="13.513187688405168"><ele>480.0</ele><time>2026-04-18T08:01:32.998Z</time></trkpt><trkpt lat="43.00729283528114" lon="13.51312938985871"><ele>477.25</ele><time>2026-04-18T08:01:33.998Z</time></trkpt><trkpt lat="43.00717118039148" lon="13.513120709635773"><ele>474.5</ele><time>2026-04-18T08:01:35.998Z</time></trkpt><trkpt lat="43.007141860170904" lon="13.513318227388414"><ele>471.75</ele><time>2026-04-18T08:01:36.998Z</time></trkpt><trkpt lat="43.007154145907286" lon="13.513448358011964"><ele>469.0</ele><time>2026-04-18T08:01:37.998Z</time></trkpt><trkpt lat="43.007184432501525" lon="13.513568638290293"><ele>469.00000000000006</ele><time>2026-04-18T08:01:38.998Z</time></trkpt><trkpt lat="43.007201332253445" lon="13.513670332324246"><ele>469.0</ele><time>2026-04-18T08:01:39.998Z</time></trkpt><trkpt lat="43.007177557483686" lon="13.513767528322836"><ele>469.0</ele><time>2026-04-18T08:01:40.998Z</time></trkpt><trkpt lat="43.00711559428963" lon="13.513830621833787"><ele>469.0</ele><time>2026-04-18T08:01:41.998Z</time></trkpt><trkpt lat="43.00702104543808" lon="13.513842112303882"><ele>469.00000000000006</ele><time>2026-04-18T08:01:43Z</time></trkpt><trkpt lat="43.00691957382324" lon="13.513764842400056"><ele>469.0</ele><time>2026-04-18T08:01:44Z</time></trkpt><trkpt lat="43.00679917433162" lon="13.513705913829588"><ele>469.0</ele><time>2026-04-18T08:01:45Z</time></trkpt><trkpt lat="43.0066766016846" lon="13.513638028868225"><ele>469.0</ele><time>2026-04-18T08:01:46Z</time></trkpt><trkpt lat="43.00656120214375" lon="13.51358635182393"><ele>469.0</ele><time>2026-04-18T08:01:47Z</time></trkpt><trkpt lat="43.0064579175721" lon="13.513521649912244"><ele>469.0</ele><time>2026-04-18T08:01:48Z</time></trkpt><trkpt lat="43.00635678964443" lon="13.513479363247066"><ele>464.25</ele><time>2026-04-18T08:01:49Z</time></trkpt><trkpt lat="43.00625637620588" lon="13.513506504327092"><ele>459.5</ele><time>2026-04-18T08:01:50Z</time></trkpt><trkpt lat="43.00616869078821" lon="13.51360594811393"><ele>454.75</ele><time>2026-04-18T08:01:51Z</time></trkpt><trkpt lat="43.006107254683045" lon="13.513774433817"><ele>450.0</ele><time>2026-04-18T08:01:52Z</time></trkpt><trkpt lat="43.00602355764234" lon="13.51396007287501"><ele>448.0</ele><time>2026-04-18T08:01:53Z</time></trkpt><trkpt lat="43.005870858910285" lon="13.514133820505416"><ele>446.0</ele><time>2026-04-18T08:01:54Z</time></trkpt><trkpt lat="43.00564324288927" lon="13.51427115256003"><ele>444.0</ele><time>2026-04-18T08:01:55Z</time></trkpt><trkpt lat="43.00538101304905" lon="13.514397338779801"><ele>438.5</ele><time>2026-04-18T08:01:56Z</time></trkpt><trkpt lat="43.00511899962003" lon="13.514579103912045"><ele>433.0</ele><time>2026-04-18T08:01:57Z</time></trkpt><trkpt lat="43.00484732172876" lon="13.514764770683245"><ele>432.5</ele><time>2026-04-18T08:01:58Z</time></trkpt><trkpt lat="43.00456446066708" lon="13.514916712780806"><ele>432.0</ele><time>2026-04-18T08:01:59Z</time></trkpt><trkpt lat="43.00429433742883" lon="13.51502260938355"><ele>431.0</ele><time>2026-04-18T08:02:00Z</time></trkpt><trkpt lat="43.003992459787526" lon="13.515065342512244"><ele>430.0</ele><time>2026-04-18T08:02:01Z</time></trkpt><trkpt lat="43.003722017885515" lon="13.51508715130111"><ele>430.0</ele><time>2026-04-18T08:02:02Z</time></trkpt><trkpt lat="43.00346636823943" lon="13.515108552052322"><ele>430.0</ele><time>2026-04-18T08:02:03Z</time></trkpt><trkpt lat="43.00321338311332" lon="13.51513255264246"><ele>429.5</ele><time>2026-04-18T08:02:04Z</time></trkpt><trkpt lat="43.00297007087463" lon="13.515158581551157"><ele>429.0</ele><time>2026-04-18T08:02:05Z</time></trkpt><trkpt lat="43.00274100205985" lon="13.515180706351066"><ele>429.0</ele><time>2026-04-18T08:02:06Z</time></trkpt><trkpt lat="43.00252728520859" lon="13.515195393771938"><ele>429.0</ele><time>2026-04-18T08:02:07Z</time></trkpt><trkpt lat="43.00232734708389" lon="13.515209305447625"><ele>429.0</ele><time>2026-04-18T08:02:08Z</time></trkpt><trkpt lat="43.002149959216915" lon="13.515221924659494"><ele>429.66666666666663</ele><time>2026-04-18T08:02:09Z</time></trkpt><trkpt lat="43.001974260249504" lon="13.515237703607793"><ele>430.3333333333333</ele><time>2026-04-18T08:02:10Z</time></trkpt><trkpt lat="43.001806631155134" lon="13.515255792062076"><ele>431.0</ele><time>2026-04-18T08:02:11Z</time></trkpt><trkpt lat="43.00164606201961" lon="13.515268305248286"><ele>429.66666666666663</ele><time>2026-04-18T08:02:12Z</time></trkpt><trkpt lat="43.00149487722001" lon="13.515280176820585"><ele>428.33333333333337</ele><time>2026-04-18T08:02:13Z</time></trkpt><trkpt lat="43.00134534737681" lon="13.515292136658674"><ele>427.0</ele><time>2026-04-18T08:02:14Z</time></trkpt><trkpt lat="43.001196004865015" lon="13.515308748820692"><ele>427.0</ele><time>2026-04-18T08:02:15Z</time></trkpt><trkpt lat="43.00104413184123" lon="13.515322366731136"><ele>427.0</ele><time>2026-04-18T08:02:16Z</time></trkpt><trkpt lat="43.00089205952454" lon="13.515332364031218"><ele>427.0</ele><time>2026-04-18T08:02:17Z</time></trkpt><trkpt lat="43.00074262182081" lon="13.515332740496138"><ele>426.75</ele><time>2026-04-18T08:02:18Z</time></trkpt><trkpt lat="43.00059814592559" lon="13.515329653075431"><ele>426.5</ele><time>2026-04-18T08:02:19Z</time></trkpt><trkpt lat="43.00045997763959" lon="13.515300161740223"><ele>426.25</ele><time>2026-04-18T08:02:20Z</time></trkpt><trkpt lat="43.0003398756288" lon="13.515238821300933"><ele>426.0</ele><time>2026-04-18T08:02:21Z</time></trkpt><trkpt lat="43.00024686193325" lon="13.515145055948835"><ele>426.0</ele><time>2026-04-18T08:02:22Z</time></trkpt><trkpt lat="43.000195600854966" lon="13.5150113719928"><ele>426.0</ele><time>2026-04-18T08:02:22.999Z</time></trkpt><trkpt lat="43.00020959467116" lon="13.514854006466672"><ele>426.0</ele><time>2026-04-18T08:02:23.999Z</time></trkpt><trkpt lat="43.000228680631636" lon="13.514683077637777"><ele>426.0</ele><time>2026-04-18T08:02:24.999Z</time></trkpt><trkpt lat="43.000247821251655" lon="13.51450114189885"><ele>426.33333333333337</ele><time>2026-04-18T08:02:25.999Z</time></trkpt><trkpt lat="43.00027508796317" lon="13.514306060088275"><ele>426.6666666666667</ele><time>2026-04-18T08:02:26.999Z</time></trkpt><trkpt lat="43.00029573903954" lon="13.514102022119134"><ele>427.0</ele><time>2026-04-18T08:02:27.999Z</time></trkpt><trkpt lat="43.000328235008276" lon="13.513896316573224"><ele>427.25</ele><time>2026-04-18T08:02:28.999Z</time></trkpt><trkpt lat="43.000354255223684" lon="13.513696606745846"><ele>427.5</ele><time>2026-04-18T08:02:29.999Z</time></trkpt><trkpt lat="43.000368314652434" lon="13.51349974284957"><ele>427.75</ele><time>2026-04-18T08:02:30.999Z</time></trkpt><trkpt lat="43.000353652913816" lon="13.513309968106359"><ele>428.0</ele><time>2026-04-18T08:02:31.999Z</time></trkpt><trkpt lat="43.00031211452085" lon="13.513118819196979"><ele>428.0</ele><time>2026-04-18T08:02:32.999Z</time></trkpt><trkpt lat="43.00025615263714" lon="13.512931763331375"><ele>428.0</ele><time>2026-04-18T08:02:33.999Z</time></trkpt><trkpt lat="43.0001986564085" lon="13.512740613754485"><ele>428.0</ele><time>2026-04-18T08:02:34.999Z</time></trkpt><trkpt lat="43.00014193650033" lon="13.512543031346125"><ele>426.3333333333333</ele><time>2026-04-18T08:02:35.999Z</time></trkpt><trkpt lat="43.00009820871268" lon="13.512344468658718"><ele>424.66666666666663</ele><time>2026-04-18T08:02:36.999Z</time></trkpt><trkpt lat="43.00005172286966" lon="13.512141315339587"><ele>423.0</ele><time>2026-04-18T08:02:37.999Z</time></trkpt><trkpt lat="42.999999201618756" lon="13.51194688264334"><ele>421.0</ele><time>2026-04-18T08:02:38.999Z</time></trkpt><trkpt lat="42.99994531210805" lon="13.511746663391607"><ele>419.0</ele><time>2026-04-18T08:02:39.999Z</time></trkpt><trkpt lat="42.9998887626174" lon="13.511545605902853"><ele>417.0</ele><time>2026-04-18T08:02:40.999Z</time></trkpt><trkpt lat="42.999831063371026" lon="13.51134094291425"><ele>414.0</ele><time>2026-04-18T08:02:41.999Z</time></trkpt><trkpt lat="42.99977471927018" lon="13.511134775340727"><ele>411.0</ele><time>2026-04-18T08:02:42.999Z</time></trkpt><trkpt lat="42.999721341301445" lon="13.510930922909376"><ele>408.0</ele><time>2026-04-18T08:02:43.999Z</time></trkpt><trkpt lat="42.99966759211769" lon="13.51072060955852"><ele>408.0</ele><time>2026-04-18T08:02:44.999Z</time></trkpt><trkpt lat="42.99961927052178" lon="13.510509301860665"><ele>408.0</ele><time>2026-04-18T08:02:45.999Z</time></trkpt><trkpt lat="42.99958219159262" lon="13.510290937243088"><ele>408.0</ele><time>2026-04-18T08:02:46.999Z</time></trkpt><trkpt lat="42.99956033505918" lon="13.510077006619001"><ele>405.0</ele><time>2026-04-18T08:02:47.999Z</time></trkpt><trkpt lat="42.999549394947394" lon="13.509860003435175"><ele>402.0</ele><time>2026-04-18T08:02:48.999Z</time></trkpt><trkpt lat="42.99955689647425" lon="13.509644871539948"><ele>399.0</ele><time>2026-04-18T08:02:49.999Z</time></trkpt><trkpt lat="42.99958328695564" lon="13.509438533999893"><ele>397.33333333333337</ele><time>2026-04-18T08:02:50.999Z</time></trkpt><trkpt lat="42.99961030475513" lon="13.509228034357218"><ele>395.6666666666667</ele><time>2026-04-18T08:02:51.999Z</time></trkpt><trkpt lat="42.99963315506937" lon="13.509030009968079"><ele>394.0</ele><time>2026-04-18T08:02:52.999Z</time></trkpt><trkpt lat="42.999658470025295" lon="13.50882662344172"><ele>393.5</ele><time>2026-04-18T08:02:53.999Z</time></trkpt><trkpt lat="42.99967876548912" lon="13.508624801629434"><ele>393.0</ele><time>2026-04-18T08:02:54.999Z</time></trkpt><trkpt lat="42.999683906933114" lon="13.508429955859874"><ele>392.5</ele><time>2026-04-18T08:02:55.999Z</time></trkpt><trkpt lat="42.99966026180101" lon="13.508251860510894"><ele>392.0</ele><time>2026-04-18T08:02:56.999Z</time></trkpt><trkpt lat="42.999602980414906" lon="13.508088452914418"><ele>392.0</ele><time>2026-04-18T08:02:57.999Z</time></trkpt><trkpt lat="42.99950851533066" lon="13.507959424183301"><ele>392.0</ele><time>2026-04-18T08:02:58.999Z</time></trkpt><trkpt lat="42.99939820826888" lon="13.50786668512247"><ele>392.0</ele><time>2026-04-18T08:02:59.999Z</time></trkpt><trkpt lat="42.999282703141205" lon="13.507803112950455"><ele>392.0</ele><time>2026-04-18T08:03:00.999Z</time></trkpt><trkpt lat="42.999153038284575" lon="13.507780658208178"><ele>391.5</ele><time>2026-04-18T08:03:01.999Z</time></trkpt><trkpt lat="42.999018897429096" lon="13.507795794395653"><ele>391.0</ele><time>2026-04-18T08:03:02.999Z</time></trkpt><trkpt lat="42.99888273751965" lon="13.507833069660485"><ele>390.5</ele><time>2026-04-18T08:03:03.999Z</time></trkpt><trkpt lat="42.99874366424656" lon="13.507868137882374"><ele>390.0</ele><time>2026-04-18T08:03:04.999Z</time></trkpt><trkpt lat="42.99859839870391" lon="13.507893420354243"><ele>389.5</ele><time>2026-04-18T08:03:05.999Z</time></trkpt><trkpt lat="42.9984507647348" lon="13.507919464101512"><ele>389.0</ele><time>2026-04-18T08:03:06.999Z</time></trkpt><trkpt lat="42.99831771489078" lon="13.507969485359343"><ele>388.5</ele><time>2026-04-18T08:03:07.999Z</time></trkpt><trkpt lat="42.99819672716542" lon="13.508056605958947"><ele>388.0</ele><time>2026-04-18T08:03:08.999Z</time></trkpt><trkpt lat="42.998094162205604" lon="13.508174858916968"><ele>388.0</ele><time>2026-04-18T08:03:09.999Z</time></trkpt><trkpt lat="42.998014481800354" lon="13.508337065305799"><ele>388.0</ele><time>2026-04-18T08:03:10.999Z</time></trkpt><trkpt lat="42.99797082438645" lon="13.508536172426808"><ele>388.0</ele><time>2026-04-18T08:03:11.999Z</time></trkpt><trkpt lat="42.99796767927921" lon="13.508734997259864"><ele>388.0</ele><time>2026-04-18T08:03:12.999Z</time></trkpt><trkpt lat="42.997989136669574" lon="13.50891975213232"><ele>388.5</ele><time>2026-04-18T08:03:13.999Z</time></trkpt><trkpt lat="42.99796849356255" lon="13.509083628018207"><ele>389.0</ele><time>2026-04-18T08:03:14.999Z</time></trkpt><trkpt lat="42.99792748790118" lon="13.509233302110593"><ele>389.5</ele><time>2026-04-18T08:03:15.999Z</time></trkpt><trkpt lat="42.997871875179605" lon="13.509372327182184"><ele>390.0</ele><time>2026-04-18T08:03:16.999Z</time></trkpt><trkpt lat="42.99777229640607" lon="13.509470533149498"><ele>390.0</ele><time>2026-04-18T08:03:17.999Z</time></trkpt><trkpt lat="42.99765438764402" lon="13.509529902491627"><ele>390.0</ele><time>2026-04-18T08:03:18.999Z</time></trkpt><trkpt lat="42.9975299821143" lon="13.509545989851878"><ele>390.0</ele><time>2026-04-18T08:03:19.999Z</time></trkpt><trkpt lat="42.9974120204571" lon="13.50950312603758"><ele>390.0</ele><time>2026-04-18T08:03:20.999Z</time></trkpt><trkpt lat="42.99731551545232" lon="13.509385040075731"><ele>386.0</ele><time>2026-04-18T08:03:21.999Z</time></trkpt><trkpt lat="42.99721377010172" lon="13.509251803010713"><ele>382.0</ele><time>2026-04-18T08:03:22.999Z</time></trkpt><trkpt lat="42.99714726309562" lon="13.50906901471895"><ele>378.0</ele><time>2026-04-18T08:03:23.999Z</time></trkpt><trkpt lat="42.99709668944795" lon="13.508868818818346"><ele>374.0</ele><time>2026-04-18T08:03:24.999Z</time></trkpt><trkpt lat="42.997052247749906" lon="13.508670159817369"><ele>374.0</ele><time>2026-04-18T08:03:25.999Z</time></trkpt><trkpt lat="42.99700395293599" lon="13.508479771376624"><ele>374.0</ele><time>2026-04-18T08:03:26.999Z</time></trkpt><trkpt lat="42.99695353914778" lon="13.508293601274133"><ele>374.0</ele><time>2026-04-18T08:03:27.999Z</time></trkpt><trkpt lat="42.99691813774808" lon="13.508110601207092"><ele>374.0</ele><time>2026-04-18T08:03:28.999Z</time></trkpt><trkpt lat="42.99691007177518" lon="13.507926696541224"><ele>371.25</ele><time>2026-04-18T08:03:29.999Z</time></trkpt><trkpt lat="42.99693532651582" lon="13.507744812552636"><ele>368.5</ele><time>2026-04-18T08:03:30.999Z</time></trkpt><trkpt lat="42.99700307741941" lon="13.507574532660227"><ele>365.75</ele><time>2026-04-18T08:03:31.998Z</time></trkpt><trkpt lat="42.99709537570212" lon="13.507429147430438"><ele>363.0</ele><time>2026-04-18T08:03:32.998Z</time></trkpt><trkpt lat="42.99719944748231" lon="13.507312255343797"><ele>363.0</ele><time>2026-04-18T08:03:33.998Z</time></trkpt><trkpt lat="42.997298293131195" lon="13.5072014693152"><ele>363.0</ele><time>2026-04-18T08:03:34.998Z</time></trkpt><trkpt lat="42.99737253255712" lon="13.50707251715302"><ele>363.0</ele><time>2026-04-18T08:03:35.998Z</time></trkpt><trkpt lat="42.997422841683104" lon="13.506923927950853"><ele>363.0</ele><time>2026-04-18T08:03:36.998Z</time></trkpt><trkpt lat="42.99743146163581" lon="13.506761653513301"><ele>360.0</ele><time>2026-04-18T08:03:37.998Z</time></trkpt><trkpt lat="42.99740660255315" lon="13.506603006729465"><ele>357.0</ele><time>2026-04-18T08:03:38.998Z</time></trkpt><trkpt lat="42.997346460665824" lon="13.506458460651068"><ele>354.0</ele><time>2026-04-18T08:03:39.998Z</time></trkpt><trkpt lat="42.99725179021728" lon="13.506341719511454"><ele>351.0</ele><time>2026-04-18T08:03:40.998Z</time></trkpt><trkpt lat="42.99713660195604" lon="13.506261383163539"><ele>351.0</ele><time>2026-04-18T08:03:41.998Z</time></trkpt><trkpt lat="42.99700865659782" lon="13.506240052218125"><ele>351.0</ele><time>2026-04-18T08:03:42.998Z</time></trkpt><trkpt lat="42.99686793002538" lon="13.506274998217291"><ele>351.0</ele><time>2026-04-18T08:03:43.998Z</time></trkpt><trkpt lat="42.996723117216426" lon="13.506345982451617"><ele>351.0</ele><time>2026-04-18T08:03:44.998Z</time></trkpt><trkpt lat="42.99655926014466" lon="13.506427851096046"><ele>349.0</ele><time>2026-04-18T08:03:45.998Z</time></trkpt><trkpt lat="42.996387475011794" lon="13.50652138194566"><ele>347.0</ele><time>2026-04-18T08:03:46.998Z</time></trkpt><trkpt lat="42.99621754986829" lon="13.506615510788867"><ele>345.0</ele><time>2026-04-18T08:03:47.998Z</time></trkpt><trkpt lat="42.99605262046189" lon="13.506698125649496"><ele>345.0</ele><time>2026-04-18T08:03:49Z</time></trkpt><trkpt lat="42.99589320371038" lon="13.506777737177329"><ele>345.0</ele><time>2026-04-18T08:03:50Z</time></trkpt><trkpt lat="42.995738325804425" lon="13.506853916821157"><ele>345.0</ele><time>2026-04-18T08:03:51Z</time></trkpt><trkpt lat="42.995575945407474" lon="13.506920645071885"><ele>341.6666666666667</ele><time>2026-04-18T08:03:52Z</time></trkpt><trkpt lat="42.995408742268374" lon="13.506958671997694"><ele>338.33333333333337</ele><time>2026-04-18T08:03:53Z</time></trkpt><trkpt lat="42.995233836647" lon="13.50697384627298"><ele>335.0</ele><time>2026-04-18T08:03:54Z</time></trkpt><trkpt lat="42.995049186896814" lon="13.506973224710675"><ele>331.33333333333337</ele><time>2026-04-18T08:03:55Z</time></trkpt><trkpt lat="42.994862530741855" lon="13.506972013352954"><ele>327.6666666666667</ele><time>2026-04-18T08:03:56Z</time></trkpt><trkpt lat="42.994672393684546" lon="13.506976030417032"><ele>324.0</ele><time>2026-04-18T08:03:57Z</time></trkpt><trkpt lat="42.99448035796513" lon="13.506981941527279"><ele>324.0</ele><time>2026-04-18T08:03:58Z</time></trkpt><trkpt lat="42.99429451316147" lon="13.50696651446096"><ele>324.0</ele><time>2026-04-18T08:03:59Z</time></trkpt><trkpt lat="42.9941057359017" lon="13.506971459566751"><ele>324.0</ele><time>2026-04-18T08:04:00Z</time></trkpt><trkpt lat="42.99391875254531" lon="13.506976441248026"><ele>321.3333333333333</ele><time>2026-04-18T08:04:01Z</time></trkpt><trkpt lat="42.99373607428532" lon="13.506997945010253"><ele>318.66666666666663</ele><time>2026-04-18T08:04:02Z</time></trkpt><trkpt lat="42.993573612888206" lon="13.50700412492525"><ele>316.0</ele><time>2026-04-18T08:04:03Z</time></trkpt><trkpt lat="42.99341313797386" lon="13.507008106820122"><ele>316.25</ele><time>2026-04-18T08:04:04Z</time></trkpt><trkpt lat="42.993261430929635" lon="13.507011726797801"><ele>316.5</ele><time>2026-04-18T08:04:05Z</time></trkpt><trkpt lat="42.993117215772834" lon="13.507018728092492"><ele>316.75</ele><time>2026-04-18T08:04:06Z</time></trkpt><trkpt lat="42.992982166368115" lon="13.50703120258326"><ele>317.0</ele><time>2026-04-18T08:04:07Z</time></trkpt><trkpt lat="42.99286161836786" lon="13.507047156756213"><ele>317.0</ele><time>2026-04-18T08:04:08Z</time></trkpt><trkpt lat="42.99275522307115" lon="13.507071965615193"><ele>317.0</ele><time>2026-04-18T08:04:09Z</time></trkpt><trkpt lat="42.99265782181333" lon="13.50708573591565"><ele>317.0</ele><time>2026-04-18T08:04:10Z</time></trkpt><trkpt lat="42.992586283535346" lon="13.50711836893092"><ele>317.0</ele><time>2026-04-18T08:04:11Z</time></trkpt><trkpt lat="42.99244983339417" lon="13.506941127794077"><ele>317.0</ele><time>2026-04-18T08:04:13Z</time></trkpt><trkpt lat="42.99240829863612" lon="13.506821050764712"><ele>317.0</ele><time>2026-04-18T08:04:14Z</time></trkpt><trkpt lat="42.99238551854413" lon="13.506671433221603"><ele>317.0</ele><time>2026-04-18T08:04:15Z</time></trkpt><trkpt lat="42.9923539652119" lon="13.50651354325079"><ele>317.0</ele><time>2026-04-18T08:04:16Z</time></trkpt><trkpt lat="42.99231791270231" lon="13.506345996404846"><ele>318.25</ele><time>2026-04-18T08:04:17Z</time></trkpt><trkpt lat="42.99228122620602" lon="13.506166657922252"><ele>319.5</ele><time>2026-04-18T08:04:18Z</time></trkpt><trkpt lat="42.99224277063736" lon="13.505980815885387"><ele>320.75</ele><time>2026-04-18T08:04:19Z</time></trkpt><trkpt lat="42.99220467601605" lon="13.50579874052351"><ele>322.0</ele><time>2026-04-18T08:04:20Z</time></trkpt><trkpt lat="42.99216605871752" lon="13.505608476553352"><ele>322.0</ele><time>2026-04-18T08:04:21Z</time></trkpt><trkpt lat="42.99212785088974" lon="13.505418546700488"><ele>322.0</ele><time>2026-04-18T08:04:22Z</time></trkpt><trkpt lat="42.992088566765176" lon="13.505224819655414"><ele>322.0</ele><time>2026-04-18T08:04:23Z</time></trkpt><trkpt lat="42.99204698509848" lon="13.505025940239333"><ele>322.0</ele><time>2026-04-18T08:04:24Z</time></trkpt><trkpt lat="42.99200775655601" lon="13.504828619339484"><ele>323.3333333333333</ele><time>2026-04-18T08:04:25Z</time></trkpt><trkpt lat="42.99196965478027" lon="13.504631873918814"><ele>324.6666666666667</ele><time>2026-04-18T08:04:26Z</time></trkpt><trkpt lat="42.99193287962484" lon="13.504426631627112"><ele>326.0</ele><time>2026-04-18T08:04:27Z</time></trkpt><trkpt lat="42.99189152776086" lon="13.504220349884491"><ele>327.0</ele><time>2026-04-18T08:04:28Z</time></trkpt><trkpt lat="42.99184895958999" lon="13.504011070700141"><ele>328.0</ele><time>2026-04-18T08:04:29Z</time></trkpt><trkpt lat="42.99180666102726" lon="13.503801683308954"><ele>329.0</ele><time>2026-04-18T08:04:30Z</time></trkpt><trkpt lat="42.991761752412884" lon="13.503589035114404"><ele>330.0</ele><time>2026-04-18T08:04:31Z</time></trkpt><trkpt lat="42.991716537310516" lon="13.503373175145676"><ele>331.0</ele><time>2026-04-18T08:04:32Z</time></trkpt><trkpt lat="42.991677811450714" lon="13.503173235602922"><ele>332.0</ele><time>2026-04-18T08:04:33Z</time></trkpt><trkpt lat="42.991643471224045" lon="13.502993359216875"><ele>330.5</ele><time>2026-04-18T08:04:34Z</time></trkpt><trkpt lat="42.991607569757825" lon="13.50282103836768"><ele>329.0</ele><time>2026-04-18T08:04:35Z</time></trkpt><trkpt lat="42.99157011113194" lon="13.502634331219884"><ele>327.5</ele><time>2026-04-18T08:04:36Z</time></trkpt><trkpt lat="42.991534465209305" lon="13.502437780896296"><ele>326.0</ele><time>2026-04-18T08:04:37Z</time></trkpt><trkpt lat="42.99149524156435" lon="13.502223548622766"><ele>327.6666666666667</ele><time>2026-04-18T08:04:38Z</time></trkpt><trkpt lat="42.99145026708283" lon="13.502002411969395"><ele>329.3333333333333</ele><time>2026-04-18T08:04:38.999Z</time></trkpt><trkpt lat="42.991403729360364" lon="13.50177213100173"><ele>331.0</ele><time>2026-04-18T08:04:39.999Z</time></trkpt><trkpt lat="42.991357886943085" lon="13.50153513365757"><ele>331.0</ele><time>2026-04-18T08:04:40.999Z</time></trkpt><trkpt lat="42.99131070259862" lon="13.501292386140957"><ele>331.0</ele><time>2026-04-18T08:04:41.999Z</time></trkpt><trkpt lat="42.991263206043016" lon="13.501043194594786"><ele>331.0</ele><time>2026-04-18T08:04:42.999Z</time></trkpt><trkpt lat="42.991214486050005" lon="13.500789632502629"><ele>332.66666666666663</ele><time>2026-04-18T08:04:43.999Z</time></trkpt><trkpt lat="42.991159632155565" lon="13.50052308114622"><ele>334.3333333333333</ele><time>2026-04-18T08:04:44.999Z</time></trkpt><trkpt lat="42.99110153862239" lon="13.500243232179162"><ele>336.0</ele><time>2026-04-18T08:04:45.999Z</time></trkpt><trkpt lat="42.9910438762044" lon="13.49995888898111"><ele>336.6666666666667</ele><time>2026-04-18T08:04:46.999Z</time></trkpt><trkpt lat="42.99098556927387" lon="13.499672382918808"><ele>337.33333333333337</ele><time>2026-04-18T08:04:47.999Z</time></trkpt><trkpt lat="42.990927800252535" lon="13.499375060405828"><ele>338.0</ele><time>2026-04-18T08:04:48.999Z</time></trkpt><trkpt lat="42.990869504333176" lon="13.499076828176916"><ele>336.0</ele><time>2026-04-18T08:04:49.999Z</time></trkpt><trkpt lat="42.990809673831635" lon="13.498772446629603"><ele>334.0</ele><time>2026-04-18T08:04:50.999Z</time></trkpt><trkpt lat="42.99075179925418" lon="13.49847723398286"><ele>334.0</ele><time>2026-04-18T08:04:51.999Z</time></trkpt><trkpt lat="42.99069743251464" lon="13.498194724082703"><ele>334.0</ele><time>2026-04-18T08:04:52.999Z</time></trkpt><trkpt lat="42.99064103831438" lon="13.497915525779785"><ele>334.0</ele><time>2026-04-18T08:04:53.999Z</time></trkpt><trkpt lat="42.99055356689457" lon="13.49765960269478"><ele>334.0</ele><time>2026-04-18T08:04:54.999Z</time></trkpt><trkpt lat="42.99045795257549" lon="13.497398707843384"><ele>334.0</ele><time>2026-04-18T08:04:55.999Z</time></trkpt><trkpt lat="42.99041194329271" lon="13.49710077725865"><ele>334.0</ele><time>2026-04-18T08:04:56.999Z</time></trkpt><trkpt lat="42.990482568111396" lon="13.496803578732324"><ele>334.0</ele><time>2026-04-18T08:04:57.999Z</time></trkpt><trkpt lat="42.990488094014886" lon="13.49651668144766"><ele>334.0</ele><time>2026-04-18T08:04:58.999Z</time></trkpt><trkpt lat="42.99054529295647" lon="13.496240693768408"><ele>334.0</ele><time>2026-04-18T08:04:59.999Z</time></trkpt><trkpt lat="42.99060007794944" lon="13.495953757492428"><ele>334.0</ele><time>2026-04-18T08:05:00.999Z</time></trkpt><trkpt lat="42.99065317124289" lon="13.495671928449388"><ele>334.0</ele><time>2026-04-18T08:05:01.999Z</time></trkpt><trkpt lat="42.990722569689616" lon="13.495392924049415"><ele>334.0</ele><time>2026-04-18T08:05:02.999Z</time></trkpt><trkpt lat="42.990848712031074" lon="13.495172993887566"><ele>342.5</ele><time>2026-04-18T08:05:03.999Z</time></trkpt><trkpt lat="42.99100355492161" lon="13.49493976252359"><ele>351.0</ele><time>2026-04-18T08:05:04.999Z</time></trkpt><trkpt lat="42.99111039446564" lon="13.494618492062413"><ele>352.0</ele><time>2026-04-18T08:05:05.999Z</time></trkpt><trkpt lat="42.99115680208427" lon="13.494320216959972"><ele>353.0</ele><time>2026-04-18T08:05:06.999Z</time></trkpt><trkpt lat="42.9911988279944" lon="13.494030208332209"><ele>354.0</ele><time>2026-04-18T08:05:07.999Z</time></trkpt><trkpt lat="42.991243464196614" lon="13.493735292342445"><ele>354.0</ele><time>2026-04-18T08:05:08.999Z</time></trkpt><trkpt lat="42.991286475686735" lon="13.493444485600026"><ele>354.0</ele><time>2026-04-18T08:05:09.999Z</time></trkpt><trkpt lat="42.99132734050564" lon="13.493158123986653"><ele>354.0</ele><time>2026-04-18T08:05:10.999Z</time></trkpt><trkpt lat="42.991368849674544" lon="13.49287297924465"><ele>356.3333333333333</ele><time>2026-04-18T08:05:11.999Z</time></trkpt><trkpt lat="42.991405358831756" lon="13.492571693008811"><ele>358.66666666666663</ele><time>2026-04-18T08:05:12.999Z</time></trkpt><trkpt lat="42.99141452006186" lon="13.492273872518137"><ele>361.0</ele><time>2026-04-18T08:05:13.999Z</time></trkpt><trkpt lat="42.99140133691277" lon="13.491972158523692"><ele>364.0</ele><time>2026-04-18T08:05:14.999Z</time></trkpt><trkpt lat="42.99138020240016" lon="13.491666993473652"><ele>367.0</ele><time>2026-04-18T08:05:15.999Z</time></trkpt><trkpt lat="42.99130473577691" lon="13.49136603742367"><ele>372.0</ele><time>2026-04-18T08:05:16.999Z</time></trkpt><trkpt lat="42.99115300579463" lon="13.491112445330725"><ele>377.0</ele><time>2026-04-18T08:05:17.999Z</time></trkpt><trkpt lat="42.9910063631668" lon="13.490879728447677"><ele>377.0</ele><time>2026-04-18T08:05:18.999Z</time></trkpt><trkpt lat="42.99086368352511" lon="13.490653300686132"><ele>377.0</ele><time>2026-04-18T08:05:19.999Z</time></trkpt><trkpt lat="42.99065377146577" lon="13.490542257153427"><ele>377.0</ele><time>2026-04-18T08:05:20.999Z</time></trkpt><trkpt lat="42.99049204589701" lon="13.490398491774195"><ele>371.6666666666667</ele><time>2026-04-18T08:05:21.999Z</time></trkpt><trkpt lat="42.99033324785496" lon="13.490265602449025"><ele>366.3333333333333</ele><time>2026-04-18T08:05:22.999Z</time></trkpt><trkpt lat="42.99017267533081" lon="13.490146063720639"><ele>361.0</ele><time>2026-04-18T08:05:23.999Z</time></trkpt><trkpt lat="42.990011920163994" lon="13.49003018124289"><ele>355.3333333333333</ele><time>2026-04-18T08:05:24.999Z</time></trkpt><trkpt lat="42.98986196095057" lon="13.489918326642915"><ele>349.6666666666667</ele><time>2026-04-18T08:05:25.999Z</time></trkpt><trkpt lat="42.98971799889569" lon="13.48979253759935"><ele>344.0</ele><time>2026-04-18T08:05:26.999Z</time></trkpt><trkpt lat="42.98958412832501" lon="13.489644028797393"><ele>349.0</ele><time>2026-04-18T08:05:27.999Z</time></trkpt><trkpt lat="42.989467471573256" lon="13.489479552680121"><ele>354.0</ele><time>2026-04-18T08:05:28.999Z</time></trkpt><trkpt lat="42.98936461894353" lon="13.489312133452483"><ele>359.0</ele><time>2026-04-18T08:05:29.999Z</time></trkpt><trkpt lat="42.989265731218104" lon="13.489126060141885"><ele>359.0</ele><time>2026-04-18T08:05:30.999Z</time></trkpt><trkpt lat="42.989176473815625" lon="13.488917526351738"><ele>359.0</ele><time>2026-04-18T08:05:31.999Z</time></trkpt><trkpt lat="42.98910049675536" lon="13.48868740549735"><ele>359.0</ele><time>2026-04-18T08:05:32.999Z</time></trkpt><trkpt lat="42.98902470482072" lon="13.488447913029757"><ele>359.0</ele><time>2026-04-18T08:05:33.999Z</time></trkpt><trkpt lat="42.98892485423242" lon="13.488225477672847"><ele>359.0</ele><time>2026-04-18T08:05:34.999Z</time></trkpt><trkpt lat="42.98879805682962" lon="13.48802806273172"><ele>359.0</ele><time>2026-04-18T08:05:35.999Z</time></trkpt><trkpt lat="42.98866974621068" lon="13.487831977868874"><ele>359.0</ele><time>2026-04-18T08:05:36.999Z</time></trkpt><trkpt lat="42.98855751200353" lon="13.48761337987872"><ele>359.0</ele><time>2026-04-18T08:05:37.999Z</time></trkpt><trkpt lat="42.9884507378195" lon="13.487386423275296"><ele>359.0</ele><time>2026-04-18T08:05:38.999Z</time></trkpt><trkpt lat="42.98833215711277" lon="13.487167886544755"><ele>354.0</ele><time>2026-04-18T08:05:39.999Z</time></trkpt><trkpt lat="42.988207174652025" lon="13.486949936922466"><ele>349.0</ele><time>2026-04-18T08:05:40.999Z</time></trkpt><trkpt lat="42.98808718244944" lon="13.486725220340825"><ele>344.0</ele><time>2026-04-18T08:05:41.999Z</time></trkpt><trkpt lat="42.98796732161757" lon="13.486499230304025"><ele>344.0</ele><time>2026-04-18T08:05:42.999Z</time></trkpt><trkpt lat="42.98784505648724" lon="13.486270306346112"><ele>344.0</ele><time>2026-04-18T08:05:43.999Z</time></trkpt><trkpt lat="42.987724281241775" lon="13.486042274709732"><ele>344.0</ele><time>2026-04-18T08:05:44.999Z</time></trkpt><trkpt lat="42.987606049840124" lon="13.485821964954301"><ele>345.0</ele><time>2026-04-18T08:05:45.999Z</time></trkpt><trkpt lat="42.98749590815045" lon="13.485610397430541"><ele>346.0</ele><time>2026-04-18T08:05:46.999Z</time></trkpt><trkpt lat="42.98739339793393" lon="13.485403324821682"><ele>347.0</ele><time>2026-04-18T08:05:47.999Z</time></trkpt><trkpt lat="42.98732176463838" lon="13.485200199133542"><ele>347.0</ele><time>2026-04-18T08:05:48.999Z</time></trkpt><trkpt lat="42.98729100196823" lon="13.484993668323515"><ele>347.0</ele><time>2026-04-18T08:05:49.998Z</time></trkpt><trkpt lat="42.987297193333426" lon="13.484788573034086"><ele>347.0</ele><time>2026-04-18T08:05:50.998Z</time></trkpt><trkpt lat="42.98734835105701" lon="13.484591882920112"><ele>348.0</ele><time>2026-04-18T08:05:51.998Z</time></trkpt><trkpt lat="42.98742712269821" lon="13.484405324064745"><ele>349.0</ele><time>2026-04-18T08:05:52.998Z</time></trkpt><trkpt lat="42.98750302388687" lon="13.484209285319414"><ele>350.0</ele><time>2026-04-18T08:05:53.998Z</time></trkpt><trkpt lat="42.98754287044754" lon="13.483990672650863"><ele>355.33333333333337</ele><time>2026-04-18T08:05:55Z</time></trkpt><trkpt lat="42.98752814100065" lon="13.483757579235261"><ele>360.6666666666667</ele><time>2026-04-18T08:05:56Z</time></trkpt><trkpt lat="42.987469080161986" lon="13.483537960948205"><ele>366.0</ele><time>2026-04-18T08:05:57Z</time></trkpt><trkpt lat="42.98737001559528" lon="13.483332590265208"><ele>366.0</ele><time>2026-04-18T08:05:58Z</time></trkpt><trkpt lat="42.98723707432741" lon="13.483158426415601"><ele>366.0</ele><time>2026-04-18T08:05:59Z</time></trkpt><trkpt lat="42.98708205577093" lon="13.483022235454682"><ele>366.0</ele><time>2026-04-18T08:06:00Z</time></trkpt><trkpt lat="42.98693944702837" lon="13.482880603189756"><ele>371.0</ele><time>2026-04-18T08:06:01Z</time></trkpt><trkpt lat="42.986838318515346" lon="13.482684543351047"><ele>376.0</ele><time>2026-04-18T08:06:02Z</time></trkpt><trkpt lat="42.98678624635126" lon="13.482437704382727"><ele>381.0</ele><time>2026-04-18T08:06:03Z</time></trkpt><trkpt lat="42.98673292246067" lon="13.482181158538665"><ele>370.3333333333333</ele><time>2026-04-18T08:06:04Z</time></trkpt><trkpt lat="42.986662669935704" lon="13.481933754922414"><ele>359.66666666666663</ele><time>2026-04-18T08:06:05Z</time></trkpt><trkpt lat="42.98657351296904" lon="13.481686612021802"><ele>349.0</ele><time>2026-04-18T08:06:06Z</time></trkpt><trkpt lat="42.986457396614874" lon="13.481454369025867"><ele>352.66666666666663</ele><time>2026-04-18T08:06:07Z</time></trkpt><trkpt lat="42.98631583987596" lon="13.4812452294507"><ele>356.3333333333333</ele><time>2026-04-18T08:06:08Z</time></trkpt><trkpt lat="42.98616820427752" lon="13.481038927691564"><ele>360.0</ele><time>2026-04-18T08:06:09Z</time></trkpt><trkpt lat="42.9860459624655" lon="13.480802362001848"><ele>360.0</ele><time>2026-04-18T08:06:10Z</time></trkpt><trkpt lat="42.98595767978503" lon="13.480563789864998"><ele>360.0</ele><time>2026-04-18T08:06:11Z</time></trkpt><trkpt lat="42.98590535096862" lon="13.480320928828194"><ele>360.0</ele><time>2026-04-18T08:06:12Z</time></trkpt><trkpt lat="42.98589896685355" lon="13.480068029343254"><ele>358.3333333333333</ele><time>2026-04-18T08:06:13Z</time></trkpt><trkpt lat="42.98590060313227" lon="13.479812238932666"><ele>356.66666666666663</ele><time>2026-04-18T08:06:14Z</time></trkpt><trkpt lat="42.98587449701329" lon="13.479555832899603"><ele>355.0</ele><time>2026-04-18T08:06:15Z</time></trkpt><trkpt lat="42.98581045228395" lon="13.479301227993604"><ele>355.0</ele><time>2026-04-18T08:06:16Z</time></trkpt><trkpt lat="42.98572450975825" lon="13.479061694728388"><ele>355.0</ele><time>2026-04-18T08:06:17Z</time></trkpt><trkpt lat="42.98563055101204" lon="13.478830710680404"><ele>355.0</ele><time>2026-04-18T08:06:18Z</time></trkpt><trkpt lat="42.985533241397555" lon="13.478598400754457"><ele>361.3333333333333</ele><time>2026-04-18T08:06:19Z</time></trkpt><trkpt lat="42.98543243447269" lon="13.478377318880302"><ele>367.6666666666667</ele><time>2026-04-18T08:06:20Z</time></trkpt><trkpt lat="42.98532210916072" lon="13.478170215545887"><ele>374.0</ele><time>2026-04-18T08:06:21Z</time></trkpt><trkpt lat="42.985236717953605" lon="13.47794685769526"><ele>378.6666666666667</ele><time>2026-04-18T08:06:22Z</time></trkpt><trkpt lat="42.985185044335324" lon="13.477693583473599"><ele>383.33333333333337</ele><time>2026-04-18T08:06:23Z</time></trkpt><trkpt lat="42.985133300534066" lon="13.47743976067208"><ele>388.0</ele><time>2026-04-18T08:06:24Z</time></trkpt><trkpt lat="42.9850714948148" lon="13.477186809811176"><ele>383.0</ele><time>2026-04-18T08:06:25Z</time></trkpt><trkpt lat="42.984999928821836" lon="13.476944047044965"><ele>378.0</ele><time>2026-04-18T08:06:26Z</time></trkpt><trkpt lat="42.984910337314915" lon="13.47671095194547"><ele>373.0</ele><time>2026-04-18T08:06:27Z</time></trkpt><trkpt lat="42.984792938017286" lon="13.476494639352978"><ele>373.0</ele><time>2026-04-18T08:06:28Z</time></trkpt><trkpt lat="42.98464846256246" lon="13.476296892961614"><ele>373.0</ele><time>2026-04-18T08:06:29Z</time></trkpt><trkpt lat="42.98447917324366" lon="13.476123982946133"><ele>373.0</ele><time>2026-04-18T08:06:30Z</time></trkpt><trkpt lat="42.98429186428434" lon="13.475981088612128"><ele>372.3333333333333</ele><time>2026-04-18T08:06:31Z</time></trkpt><trkpt lat="42.98409600139952" lon="13.475839086379644"><ele>371.6666666666667</ele><time>2026-04-18T08:06:32Z</time></trkpt><trkpt lat="42.983904017143686" lon="13.475688308781889"><ele>371.0</ele><time>2026-04-18T08:06:33Z</time></trkpt><trkpt lat="42.98371200102442" lon="13.475526842457198"><ele>373.5</ele><time>2026-04-18T08:06:34Z</time></trkpt><trkpt lat="42.983515816382734" lon="13.47536192386107"><ele>376.0</ele><time>2026-04-18T08:06:35Z</time></trkpt><trkpt lat="42.98332706230745" lon="13.475192046106034"><ele>376.0</ele><time>2026-04-18T08:06:36Z</time></trkpt><trkpt lat="42.98314745167915" lon="13.47500860231438"><ele>376.0</ele><time>2026-04-18T08:06:37Z</time></trkpt><trkpt lat="42.982986129702184" lon="13.474794723819544"><ele>376.0</ele><time>2026-04-18T08:06:38Z</time></trkpt><trkpt lat="42.98284612770963" lon="13.474567943526868"><ele>379.66666666666663</ele><time>2026-04-18T08:06:39Z</time></trkpt><trkpt lat="42.98270767452834" lon="13.474334381517348"><ele>383.3333333333333</ele><time>2026-04-18T08:06:40Z</time></trkpt><trkpt lat="42.982576330501864" lon="13.474098524059729"><ele>387.0</ele><time>2026-04-18T08:06:41Z</time></trkpt><trkpt lat="42.98245047485838" lon="13.473856642445666"><ele>382.6666666666667</ele><time>2026-04-18T08:06:42Z</time></trkpt><trkpt lat="42.98232447711952" lon="13.473613674224945"><ele>378.33333333333337</ele><time>2026-04-18T08:06:43Z</time></trkpt><trkpt lat="42.98219374157831" lon="13.473366736915013"><ele>374.0</ele><time>2026-04-18T08:06:44Z</time></trkpt><trkpt lat="42.98206569634206" lon="13.47312471164066"><ele>379.0</ele><time>2026-04-18T08:06:44.999Z</time></trkpt><trkpt lat="42.98193974174682" lon="13.47287649858531"><ele>384.0</ele><time>2026-04-18T08:06:45.999Z</time></trkpt><trkpt lat="42.98181210614803" lon="13.472626734034685"><ele>389.0</ele><time>2026-04-18T08:06:46.999Z</time></trkpt><trkpt lat="42.98168636370405" lon="13.47237317125981"><ele>385.5</ele><time>2026-04-18T08:06:47.999Z</time></trkpt><trkpt lat="42.98155959111837" lon="13.472115927449197"><ele>382.0</ele><time>2026-04-18T08:06:48.999Z</time></trkpt><trkpt lat="42.98143390052579" lon="13.471837954815772"><ele>382.0</ele><time>2026-04-18T08:06:49.999Z</time></trkpt><trkpt lat="42.981293839966355" lon="13.471627429762659"><ele>382.0</ele><time>2026-04-18T08:06:50.999Z</time></trkpt><trkpt lat="42.981157352773494" lon="13.471384163897184"><ele>382.0</ele><time>2026-04-18T08:06:51.999Z</time></trkpt><trkpt lat="42.98101343924233" lon="13.471139840481369"><ele>383.5</ele><time>2026-04-18T08:06:52.999Z</time></trkpt><trkpt lat="42.98086508928344" lon="13.470902346501244"><ele>385.0</ele><time>2026-04-18T08:06:53.999Z</time></trkpt><trkpt lat="42.98070713335212" lon="13.47067788719028"><ele>386.5</ele><time>2026-04-18T08:06:54.999Z</time></trkpt><trkpt lat="42.98054097654692" lon="13.470465388353434"><ele>388.0</ele><time>2026-04-18T08:06:55.999Z</time></trkpt><trkpt lat="42.9803648679599" lon="13.47026293506334"><ele>388.0</ele><time>2026-04-18T08:06:56.999Z</time></trkpt><trkpt lat="42.980181502429105" lon="13.470069086156718"><ele>388.0</ele><time>2026-04-18T08:06:57.999Z</time></trkpt><trkpt lat="42.97999179333271" lon="13.469886337573985"><ele>387.0</ele><time>2026-04-18T08:06:58.999Z</time></trkpt><trkpt lat="42.97979591606166" lon="13.469715828799735"><ele>386.0</ele><time>2026-04-18T08:06:59.999Z</time></trkpt><trkpt lat="42.97959513179454" lon="13.469558119138439"><ele>386.0</ele><time>2026-04-18T08:07:00.999Z</time></trkpt><trkpt lat="42.97938890562" lon="13.469419929320372"><ele>386.0</ele><time>2026-04-18T08:07:01.999Z</time></trkpt><trkpt lat="42.97917851579029" lon="13.469297781923206"><ele>382.5</ele><time>2026-04-18T08:07:02.999Z</time></trkpt><trkpt lat="42.97896614374019" lon="13.469187832575082"><ele>379.0</ele><time>2026-04-18T08:07:03.999Z</time></trkpt><trkpt lat="42.97875298810457" lon="13.469087067163635"><ele>379.0</ele><time>2026-04-18T08:07:04.999Z</time></trkpt><trkpt lat="42.978535852448864" lon="13.468993040123518"><ele>379.0</ele><time>2026-04-18T08:07:05.999Z</time></trkpt><trkpt lat="42.97831812913449" lon="13.468907818038662"><ele>377.5</ele><time>2026-04-18T08:07:06.999Z</time></trkpt><trkpt lat="42.978102370894305" lon="13.468825049938362"><ele>376.0</ele><time>2026-04-18T08:07:07.999Z</time></trkpt><trkpt lat="42.97788341531272" lon="13.468737425676963"><ele>380.5</ele><time>2026-04-18T08:07:08.999Z</time></trkpt><trkpt lat="42.977662358537906" lon="13.468653384605343"><ele>385.0</ele><time>2026-04-18T08:07:09.999Z</time></trkpt><trkpt lat="42.977437992964035" lon="13.468568754456085"><ele>385.0</ele><time>2026-04-18T08:07:10.999Z</time></trkpt><trkpt lat="42.97722003828202" lon="13.468490208478826"><ele>385.0</ele><time>2026-04-18T08:07:11.999Z</time></trkpt><trkpt lat="42.97700182885097" lon="13.468409432982662"><ele>385.0</ele><time>2026-04-18T08:07:12.999Z</time></trkpt><trkpt lat="42.97678316738879" lon="13.468326160274403"><ele>385.0</ele><time>2026-04-18T08:07:13.999Z</time></trkpt><trkpt lat="42.97656643967991" lon="13.468234471450494"><ele>384.33333333333337</ele><time>2026-04-18T08:07:14.999Z</time></trkpt><trkpt lat="42.97635199022771" lon="13.468140541250254"><ele>383.6666666666667</ele><time>2026-04-18T08:07:15.999Z</time></trkpt><trkpt lat="42.97614063640284" lon="13.468039679512511"><ele>383.0</ele><time>2026-04-18T08:07:16.999Z</time></trkpt><trkpt lat="42.975934511678986" lon="13.467932100714119"><ele>388.0</ele><time>2026-04-18T08:07:17.999Z</time></trkpt><trkpt lat="42.97573547385125" lon="13.467810214316419"><ele>393.0</ele><time>2026-04-18T08:07:18.999Z</time></trkpt><trkpt lat="42.97556868760587" lon="13.467682674141853"><ele>398.0</ele><time>2026-04-18T08:07:19.999Z</time></trkpt><trkpt lat="42.975410066120894" lon="13.467545599747025"><ele>398.0</ele><time>2026-04-18T08:07:20.999Z</time></trkpt><trkpt lat="42.97525838520157" lon="13.467403041762452"><ele>398.0</ele><time>2026-04-18T08:07:21.999Z</time></trkpt><trkpt lat="42.97501313662973" lon="13.46727794374951"><ele>398.0</ele><time>2026-04-18T08:07:22.999Z</time></trkpt><trkpt lat="42.97482141421543" lon="13.467088862589765"><ele>395.5</ele><time>2026-04-18T08:07:23.999Z</time></trkpt><trkpt lat="42.97463492066017" lon="13.46691485753125"><ele>393.0</ele><time>2026-04-18T08:07:24.999Z</time></trkpt><trkpt lat="42.97445439818717" lon="13.466733149619028"><ele>393.0</ele><time>2026-04-18T08:07:25.999Z</time></trkpt><trkpt lat="42.97436016376435" lon="13.466448284577606"><ele>393.0</ele><time>2026-04-18T08:07:26.999Z</time></trkpt><trkpt lat="42.97421768216748" lon="13.466249622436754"><ele>393.0</ele><time>2026-04-18T08:07:27.999Z</time></trkpt><trkpt lat="42.9740958314006" lon="13.466042217408647"><ele>393.33333333333337</ele><time>2026-04-18T08:07:28.999Z</time></trkpt><trkpt lat="42.974018674236106" lon="13.465829404316198"><ele>393.6666666666667</ele><time>2026-04-18T08:07:29.999Z</time></trkpt><trkpt lat="42.974058424227096" lon="13.465681309711991"><ele>394.0</ele><time>2026-04-18T08:07:30.999Z</time></trkpt><trkpt lat="42.97342274135205" lon="13.465701400910087"><ele>392.0</ele><time>2026-04-18T08:07:31.999Z</time></trkpt><trkpt lat="42.97326213831034" lon="13.465517826267728"><ele>390.0</ele><time>2026-04-18T08:07:32.999Z</time></trkpt><trkpt lat="42.97310481961897" lon="13.465327571444938"><ele>388.0</ele><time>2026-04-18T08:07:33.999Z</time></trkpt><trkpt lat="42.972954016529016" lon="13.465126997952265"><ele>388.0</ele><time>2026-04-18T08:07:34.999Z</time></trkpt><trkpt lat="42.97280825223102" lon="13.464919373284356"><ele>388.0</ele><time>2026-04-18T08:07:35.999Z</time></trkpt><trkpt lat="42.97267037101365" lon="13.464695376888459"><ele>388.0</ele><time>2026-04-18T08:07:36.999Z</time></trkpt><trkpt lat="42.972539416692555" lon="13.46446161355787"><ele>386.6666666666667</ele><time>2026-04-18T08:07:37.999Z</time></trkpt><trkpt lat="42.97241613670886" lon="13.46421820055246"><ele>385.33333333333337</ele><time>2026-04-18T08:07:38.999Z</time></trkpt><trkpt lat="42.97229784566015" lon="13.463972702445671"><ele>384.0</ele><time>2026-04-18T08:07:39.999Z</time></trkpt><trkpt lat="42.9721858120804" lon="13.463710596434987"><ele>387.0</ele><time>2026-04-18T08:07:40.999Z</time></trkpt><trkpt lat="42.97207707816463" lon="13.463451296350385"><ele>390.0</ele><time>2026-04-18T08:07:41.999Z</time></trkpt><trkpt lat="42.97197109435799" lon="13.463189787326712"><ele>393.0</ele><time>2026-04-18T08:07:42.999Z</time></trkpt><trkpt lat="42.97186741914953" lon="13.462926643801431"><ele>394.33333333333337</ele><time>2026-04-18T08:07:43.999Z</time></trkpt><trkpt lat="42.9717643705647" lon="13.462664182584593"><ele>395.6666666666667</ele><time>2026-04-18T08:07:44.999Z</time></trkpt><trkpt lat="42.97166217734542" lon="13.462400995776807"><ele>397.0</ele><time>2026-04-18T08:07:45.999Z</time></trkpt><trkpt lat="42.97156401538399" lon="13.462136438414714"><ele>393.6666666666667</ele><time>2026-04-18T08:07:46.999Z</time></trkpt><trkpt lat="42.9714637513119" lon="13.461869354285437"><ele>390.33333333333337</ele><time>2026-04-18T08:07:47.999Z</time></trkpt><trkpt lat="42.97136011142822" lon="13.461599556825847"><ele>387.0</ele><time>2026-04-18T08:07:48.999Z</time></trkpt><trkpt lat="42.97125587878303" lon="13.461328209279216"><ele>388.66666666666663</ele><time>2026-04-18T08:07:49.999Z</time></trkpt><trkpt lat="42.97115040627141" lon="13.461058986638562"><ele>390.3333333333333</ele><time>2026-04-18T08:07:50.999Z</time></trkpt><trkpt lat="42.97104700990756" lon="13.46078779211812"><ele>392.0</ele><time>2026-04-18T08:07:51.999Z</time></trkpt><trkpt lat="42.97094508106544" lon="13.460515780393445"><ele>387.0</ele><time>2026-04-18T08:07:52.999Z</time></trkpt><trkpt lat="42.97084177633025" lon="13.460246963343012"><ele>382.0</ele><time>2026-04-18T08:07:53.999Z</time></trkpt><trkpt lat="42.97073838783692" lon="13.459978785276617"><ele>377.0</ele><time>2026-04-18T08:07:54.999Z</time></trkpt><trkpt lat="42.97063376512181" lon="13.459712274221516"><ele>379.33333333333337</ele><time>2026-04-18T08:07:55.999Z</time></trkpt><trkpt lat="42.970529484603766" lon="13.459447132413679"><ele>381.6666666666667</ele><time>2026-04-18T08:07:56.998Z</time></trkpt><trkpt lat="42.97042701561729" lon="13.459180924577453"><ele>384.0</ele><time>2026-04-18T08:07:57.998Z</time></trkpt><trkpt lat="42.97032905111193" lon="13.458919237545798"><ele>387.33333333333337</ele><time>2026-04-18T08:07:58.998Z</time></trkpt><trkpt lat="42.97023113903435" lon="13.458652269368253"><ele>390.6666666666667</ele><time>2026-04-18T08:08:00Z</time></trkpt><trkpt lat="42.97013087218739" lon="13.458390184598803"><ele>394.0</ele><time>2026-04-18T08:08:01Z</time></trkpt><trkpt lat="42.97002740183081" lon="13.45813188951098"><ele>393.6666666666667</ele><time>2026-04-18T08:08:02Z</time></trkpt><trkpt lat="42.96992499488519" lon="13.457873590384569"><ele>393.33333333333337</ele><time>2026-04-18T08:08:03Z</time></trkpt><trkpt lat="42.96982228565647" lon="13.457611343995842"><ele>393.0</ele><time>2026-04-18T08:08:04Z</time></trkpt><trkpt lat="42.96971933081905" lon="13.4573504232362"><ele>395.0</ele><time>2026-04-18T08:08:05Z</time></trkpt><trkpt lat="42.96961563687981" lon="13.457085081072114"><ele>397.0</ele><time>2026-04-18T08:08:06Z</time></trkpt><trkpt lat="42.96950961364109" lon="13.456823362920726"><ele>399.0</ele><time>2026-04-18T08:08:07Z</time></trkpt><trkpt lat="42.9693941786279" lon="13.456564456961432"><ele>399.0</ele><time>2026-04-18T08:08:08Z</time></trkpt><trkpt lat="42.969263381960516" lon="13.456320060058387"><ele>399.0</ele><time>2026-04-18T08:08:09Z</time></trkpt><trkpt lat="42.969122710335185" lon="13.456083770364591"><ele>399.0</ele><time>2026-04-18T08:08:10Z</time></trkpt><trkpt lat="42.96897091181921" lon="13.455846276153093"><ele>400.5</ele><time>2026-04-18T08:08:11Z</time></trkpt><trkpt lat="42.96881305409751" lon="13.455626211482993"><ele>402.0</ele><time>2026-04-18T08:08:12Z</time></trkpt><trkpt lat="42.96864708913856" lon="13.455415044331938"><ele>402.0</ele><time>2026-04-18T08:08:13Z</time></trkpt><trkpt lat="42.96847630278011" lon="13.455196331137005"><ele>402.0</ele><time>2026-04-18T08:08:14Z</time></trkpt><trkpt lat="42.96831444302405" lon="13.454974420039719"><ele>403.5</ele><time>2026-04-18T08:08:15Z</time></trkpt><trkpt lat="42.96817109725165" lon="13.454731283608112"><ele>405.0</ele><time>2026-04-18T08:08:16Z</time></trkpt><trkpt lat="42.96805201365841" lon="13.454469436084691"><ele>405.0</ele><time>2026-04-18T08:08:17Z</time></trkpt><trkpt lat="42.96795226005898" lon="13.45420097294631"><ele>405.0</ele><time>2026-04-18T08:08:18Z</time></trkpt><trkpt lat="42.967874638583" lon="13.453920854392832"><ele>405.0</ele><time>2026-04-18T08:08:19Z</time></trkpt><trkpt lat="42.96781029993212" lon="13.453631124458918"><ele>409.0</ele><time>2026-04-18T08:08:20Z</time></trkpt><trkpt lat="42.96777674898563" lon="13.453340730774013"><ele>413.0</ele><time>2026-04-18T08:08:21Z</time></trkpt><trkpt lat="42.967765021335296" lon="13.45305334495113"><ele>417.0</ele><time>2026-04-18T08:08:22Z</time></trkpt><trkpt lat="42.967763435609626" lon="13.45276006746657"><ele>417.33333333333337</ele><time>2026-04-18T08:08:23Z</time></trkpt><trkpt lat="42.96777949273151" lon="13.452462677640142"><ele>417.6666666666667</ele><time>2026-04-18T08:08:24Z</time></trkpt><trkpt lat="42.96781041550268" lon="13.452164506852291"><ele>418.0</ele><time>2026-04-18T08:08:25Z</time></trkpt><trkpt lat="42.96784956712556" lon="13.451868176836626"><ele>419.0</ele><time>2026-04-18T08:08:26Z</time></trkpt><trkpt lat="42.96788470083482" lon="13.451566285837057"><ele>420.0</ele><time>2026-04-18T08:08:27Z</time></trkpt><trkpt lat="42.96790318051083" lon="13.45126020853714"><ele>421.0</ele><time>2026-04-18T08:08:28Z</time></trkpt><trkpt lat="42.96790340861809" lon="13.450955190455545"><ele>421.0</ele><time>2026-04-18T08:08:29Z</time></trkpt><trkpt lat="42.96787342254221" lon="13.450652812989858"><ele>421.0</ele><time>2026-04-18T08:08:30Z</time></trkpt><trkpt lat="42.96781347027249" lon="13.450358963728885"><ele>421.0</ele><time>2026-04-18T08:08:31Z</time></trkpt><trkpt lat="42.967725152112315" lon="13.450074228391253"><ele>423.0</ele><time>2026-04-18T08:08:32Z</time></trkpt><trkpt lat="42.96760736947783" lon="13.449808791826309"><ele>425.0</ele><time>2026-04-18T08:08:33Z</time></trkpt><trkpt lat="42.967468434365195" lon="13.449568048343078"><ele>420.0</ele><time>2026-04-18T08:08:34Z</time></trkpt><trkpt lat="42.967307843450044" lon="13.449359233782925"><ele>415.0</ele><time>2026-04-18T08:08:35Z</time></trkpt><trkpt lat="42.9671256437205" lon="13.449192745172681"><ele>410.0</ele><time>2026-04-18T08:08:36Z</time></trkpt><trkpt lat="42.966953520050126" lon="13.449028177172003"><ele>410.0</ele><time>2026-04-18T08:08:37Z</time></trkpt><trkpt lat="42.966797985108954" lon="13.448838217178148"><ele>410.0</ele><time>2026-04-18T08:08:38Z</time></trkpt><trkpt lat="42.96666126880255" lon="13.44862212901555"><ele>410.0</ele><time>2026-04-18T08:08:39Z</time></trkpt><trkpt lat="42.96654475704846" lon="13.448384887944997"><ele>407.3333333333333</ele><time>2026-04-18T08:08:40Z</time></trkpt><trkpt lat="42.966449340858865" lon="13.448135765656378"><ele>404.66666666666663</ele><time>2026-04-18T08:08:41Z</time></trkpt><trkpt lat="42.966373523600986" lon="13.447875956286044"><ele>402.0</ele><time>2026-04-18T08:08:42Z</time></trkpt><trkpt lat="42.96631790991131" lon="13.447604181151158"><ele>402.0</ele><time>2026-04-18T08:08:43Z</time></trkpt><trkpt lat="42.96628529625647" lon="13.44732778794428"><ele>402.0</ele><time>2026-04-18T08:08:44Z</time></trkpt><trkpt lat="42.9662577519316" lon="13.447052311480396"><ele>402.0</ele><time>2026-04-18T08:08:45Z</time></trkpt><trkpt lat="42.966231595908226" lon="13.446799053214809"><ele>406.0</ele><time>2026-04-18T08:08:46Z</time></trkpt><trkpt lat="42.96620311554477" lon="13.446558535552066"><ele>410.0</ele><time>2026-04-18T08:08:47Z</time></trkpt><trkpt lat="42.96617596810907" lon="13.446331101237973"><ele>414.0</ele><time>2026-04-18T08:08:48Z</time></trkpt><trkpt lat="42.96617033153835" lon="13.446121094194055"><ele>418.25</ele><time>2026-04-18T08:08:49Z</time></trkpt><trkpt lat="42.966201031458894" lon="13.445933238077023"><ele>422.5</ele><time>2026-04-18T08:08:50Z</time></trkpt><trkpt lat="42.96624152776454" lon="13.44575585134802"><ele>426.75</ele><time>2026-04-18T08:08:50.999Z</time></trkpt><trkpt lat="42.96618618881408" lon="13.445555050606034"><ele>431.0</ele><time>2026-04-18T08:08:51.999Z</time></trkpt><trkpt lat="42.96612995122347" lon="13.445352312870776"><ele>437.0</ele><time>2026-04-18T08:08:52.999Z</time></trkpt><trkpt lat="42.96609008325982" lon="13.445124988100607"><ele>443.0</ele><time>2026-04-18T08:08:53.999Z</time></trkpt><trkpt lat="42.966063957027295" lon="13.444884057209578"><ele>449.0</ele><time>2026-04-18T08:08:54.999Z</time></trkpt><trkpt lat="42.966029260954436" lon="13.444633702733514"><ele>447.66666666666663</ele><time>2026-04-18T08:08:55.999Z</time></trkpt><trkpt lat="42.965975848868574" lon="13.444384298806257"><ele>446.33333333333337</ele><time>2026-04-18T08:08:56.999Z</time></trkpt><trkpt lat="42.96590862681747" lon="13.44412855720794"><ele>445.0</ele><time>2026-04-18T08:08:57.999Z</time></trkpt><trkpt lat="42.96583346368673" lon="13.44387832221739"><ele>433.6666666666667</ele><time>2026-04-18T08:08:58.999Z</time></trkpt><trkpt lat="42.96576335000454" lon="13.443622759199998"><ele>422.33333333333337</ele><time>2026-04-18T08:08:59.999Z</time></trkpt><trkpt lat="42.96570790898789" lon="13.443362940305398"><ele>411.0</ele><time>2026-04-18T08:09:00.999Z</time></trkpt><trkpt lat="42.96566892284531" lon="13.443095038349012"><ele>411.66666666666663</ele><time>2026-04-18T08:09:01.999Z</time></trkpt><trkpt lat="42.96564254728753" lon="13.442825538582623"><ele>412.3333333333333</ele><time>2026-04-18T08:09:02.999Z</time></trkpt><trkpt lat="42.96563190329148" lon="13.442552287296758"><ele>413.0</ele><time>2026-04-18T08:09:03.999Z</time></trkpt><trkpt lat="42.96564030717172" lon="13.442280644454579"><ele>412.3333333333333</ele><time>2026-04-18T08:09:04.999Z</time></trkpt><trkpt lat="42.96567023170422" lon="13.442014032397342"><ele>411.66666666666663</ele><time>2026-04-18T08:09:05.999Z</time></trkpt><trkpt lat="42.96570243389246" lon="13.441750407950925"><ele>411.0</ele><time>2026-04-18T08:09:06.999Z</time></trkpt><trkpt lat="42.965733857161894" lon="13.441490105586832"><ele>411.66666666666663</ele><time>2026-04-18T08:09:07.999Z</time></trkpt><trkpt lat="42.965763498306636" lon="13.441229829384122"><ele>412.3333333333333</ele><time>2026-04-18T08:09:08.999Z</time></trkpt><trkpt lat="42.965793687506896" lon="13.440973916971835"><ele>413.0</ele><time>2026-04-18T08:09:09.999Z</time></trkpt><trkpt lat="42.965824379564104" lon="13.440735847752084"><ele>413.0</ele><time>2026-04-18T08:09:10.999Z</time></trkpt><trkpt lat="42.965853285288965" lon="13.440493088428033"><ele>413.0</ele><time>2026-04-18T08:09:11.999Z</time></trkpt><trkpt lat="42.96587761825921" lon="13.440263371980283"><ele>413.0</ele><time>2026-04-18T08:09:12.999Z</time></trkpt><trkpt lat="42.96590774722912" lon="13.440034186485406"><ele>419.0</ele><time>2026-04-18T08:09:13.999Z</time></trkpt><trkpt lat="42.96594424904075" lon="13.4398073650038"><ele>425.0</ele><time>2026-04-18T08:09:14.999Z</time></trkpt><trkpt lat="42.965991274136634" lon="13.439579921333163"><ele>431.0</ele><time>2026-04-18T08:09:15.999Z</time></trkpt><trkpt lat="42.96603961902987" lon="13.439357095779506"><ele>431.0</ele><time>2026-04-18T08:09:16.999Z</time></trkpt><trkpt lat="42.96607697561569" lon="13.439131982171721"><ele>431.0</ele><time>2026-04-18T08:09:17.999Z</time></trkpt><trkpt lat="42.96609317017723" lon="13.438891675696643"><ele>431.0</ele><time>2026-04-18T08:09:18.999Z</time></trkpt><trkpt lat="42.96607571848445" lon="13.438646820625891"><ele>430.66666666666663</ele><time>2026-04-18T08:09:19.999Z</time></trkpt><trkpt lat="42.96601226788679" lon="13.43841757704535"><ele>430.33333333333337</ele><time>2026-04-18T08:09:20.999Z</time></trkpt><trkpt lat="42.96591954603015" lon="13.43819877450647"><ele>430.0</ele><time>2026-04-18T08:09:21.999Z</time></trkpt><trkpt lat="42.965809387501885" lon="13.437993601677462"><ele>424.6666666666667</ele><time>2026-04-18T08:09:22.999Z</time></trkpt><trkpt lat="42.965710875711515" lon="13.437783452378033"><ele>419.33333333333337</ele><time>2026-04-18T08:09:23.999Z</time></trkpt><trkpt lat="42.96562051466678" lon="13.437561726351714"><ele>414.0</ele><time>2026-04-18T08:09:24.999Z</time></trkpt><trkpt lat="42.965533976511146" lon="13.437329594173958"><ele>421.33333333333337</ele><time>2026-04-18T08:09:25.999Z</time></trkpt><trkpt lat="42.965439926887925" lon="13.43709485159473"><ele>428.6666666666667</ele><time>2026-04-18T08:09:26.999Z</time></trkpt><trkpt lat="42.96534151046311" lon="13.43686563454136"><ele>436.0</ele><time>2026-04-18T08:09:27.999Z</time></trkpt><trkpt lat="42.965242543550296" lon="13.436620240116945"><ele>436.0</ele><time>2026-04-18T08:09:28.999Z</time></trkpt><trkpt lat="42.96515049650766" lon="13.436384851660108"><ele>436.0</ele><time>2026-04-18T08:09:29.999Z</time></trkpt><trkpt lat="42.96508102977279" lon="13.436143994955009"><ele>436.0</ele><time>2026-04-18T08:09:30.999Z</time></trkpt><trkpt lat="42.96504702851878" lon="13.435890605182635"><ele>442.6666666666667</ele><time>2026-04-18T08:09:31.999Z</time></trkpt><trkpt lat="42.9650392090333" lon="13.43562053086147"><ele>449.33333333333337</ele><time>2026-04-18T08:09:32.999Z</time></trkpt><trkpt lat="42.965041874638295" lon="13.43535346175116"><ele>456.0</ele><time>2026-04-18T08:09:33.999Z</time></trkpt><trkpt lat="42.965041638401026" lon="13.435075691601348"><ele>456.0</ele><time>2026-04-18T08:09:34.999Z</time></trkpt><trkpt lat="42.965038951649426" lon="13.434803737754521"><ele>456.0</ele><time>2026-04-18T08:09:35.999Z</time></trkpt><trkpt lat="42.96502965575047" lon="13.43452678593384"><ele>456.0</ele><time>2026-04-18T08:09:36.999Z</time></trkpt><trkpt lat="42.96501924523296" lon="13.434246842324253"><ele>450.66666666666663</ele><time>2026-04-18T08:09:37.999Z</time></trkpt><trkpt lat="42.96500629620127" lon="13.433974622871819"><ele>445.3333333333333</ele><time>2026-04-18T08:09:38.999Z</time></trkpt><trkpt lat="42.964991334137636" lon="13.433704414037125"><ele>440.0</ele><time>2026-04-18T08:09:39.999Z</time></trkpt><trkpt lat="42.9649719294246" lon="13.433424850040371"><ele>440.0</ele><time>2026-04-18T08:09:40.999Z</time></trkpt><trkpt lat="42.96494283953435" lon="13.433155436255761"><ele>440.0</ele><time>2026-04-18T08:09:41.999Z</time></trkpt><trkpt lat="42.9648987562264" lon="13.43289318027706"><ele>440.0</ele><time>2026-04-18T08:09:42.999Z</time></trkpt><trkpt lat="42.96483681976703" lon="13.432641237843722"><ele>442.3333333333333</ele><time>2026-04-18T08:09:43.999Z</time></trkpt><trkpt lat="42.964765418220104" lon="13.432400603640382"><ele>444.66666666666663</ele><time>2026-04-18T08:09:44.999Z</time></trkpt><trkpt lat="42.96469544324774" lon="13.432170849908275"><ele>447.0</ele><time>2026-04-18T08:09:45.999Z</time></trkpt><trkpt lat="42.96463370270911" lon="13.431948056322867"><ele>448.66666666666663</ele><time>2026-04-18T08:09:46.999Z</time></trkpt><trkpt lat="42.9645760703937" lon="13.431736465603077"><ele>450.3333333333333</ele><time>2026-04-18T08:09:47.999Z</time></trkpt><trkpt lat="42.96450889768033" lon="13.431537663593128"><ele>452.0</ele><time>2026-04-18T08:09:48.999Z</time></trkpt><trkpt lat="42.96442419075408" lon="13.431368590902736"><ele>450.75</ele><time>2026-04-18T08:09:49.999Z</time></trkpt><trkpt lat="42.964327787783084" lon="13.431228646220944"><ele>449.5</ele><time>2026-04-18T08:09:50.999Z</time></trkpt><trkpt lat="42.96423092054279" lon="13.431104663747277"><ele>448.25</ele><time>2026-04-18T08:09:51.999Z</time></trkpt><trkpt lat="42.964140877831085" lon="13.4309818438588"><ele>447.0</ele><time>2026-04-18T08:09:52.999Z</time></trkpt><trkpt lat="42.964056261665185" lon="13.430867943661628"><ele>446.20000000000005</ele><time>2026-04-18T08:09:53.999Z</time></trkpt><trkpt lat="42.96397713208077" lon="13.430757158547832"><ele>445.40000000000003</ele><time>2026-04-18T08:09:54.999Z</time></trkpt><trkpt lat="42.96390354115963" lon="13.43064608689759"><ele>444.59999999999997</ele><time>2026-04-18T08:09:55.999Z</time></trkpt><trkpt lat="42.96383741940146" lon="13.430538892485052"><ele>443.79999999999995</ele><time>2026-04-18T08:09:56.999Z</time></trkpt><trkpt lat="42.96378157445182" lon="13.430430727826668"><ele>443.0</ele><time>2026-04-18T08:09:57.999Z</time></trkpt><trkpt lat="42.96373707835442" lon="13.430319788650662"><ele>443.0</ele><time>2026-04-18T08:09:58.999Z</time></trkpt><trkpt lat="42.963700145101114" lon="13.4302116205279"><ele>442.99999999999994</ele><time>2026-04-18T08:09:59.999Z</time></trkpt><trkpt lat="42.96367669802076" lon="13.43008010798718"><ele>442.99999999999994</ele><time>2026-04-18T08:10:00.999Z</time></trkpt><trkpt lat="42.9636618159695" lon="13.42992318712118"><ele>443.0</ele><time>2026-04-18T08:10:01.999Z</time></trkpt><trkpt lat="42.9636493379495" lon="13.429750330882577"><ele>443.0</ele><time>2026-04-18T08:10:02.999Z</time></trkpt><trkpt lat="42.96363198355468" lon="13.429558899824642"><ele>443.3333333333333</ele><time>2026-04-18T08:10:03.999Z</time></trkpt><trkpt lat="42.96360993595086" lon="13.429361176061844"><ele>443.66666666666663</ele><time>2026-04-18T08:10:05Z</time></trkpt><trkpt lat="42.96358262834949" lon="13.429149299657224"><ele>444.0</ele><time>2026-04-18T08:10:06Z</time></trkpt><trkpt lat="42.963551074655626" lon="13.42892053865636"><ele>444.0</ele><time>2026-04-18T08:10:07Z</time></trkpt><trkpt lat="42.96352289626287" lon="13.428687071325166"><ele>444.0</ele><time>2026-04-18T08:10:08Z</time></trkpt><trkpt lat="42.96349957414508" lon="13.428439569744432"><ele>444.0</ele><time>2026-04-18T08:10:09Z</time></trkpt><trkpt lat="42.9634777759238" lon="13.428186590080626"><ele>444.0</ele><time>2026-04-18T08:10:10Z</time></trkpt><trkpt lat="42.96345414410799" lon="13.42793182563928"><ele>444.0</ele><time>2026-04-18T08:10:11Z</time></trkpt><trkpt lat="42.96343006114603" lon="13.42767419176798"><ele>444.0</ele><time>2026-04-18T08:10:12Z</time></trkpt><trkpt lat="42.96340389672228" lon="13.427417267384707"><ele>444.0</ele><time>2026-04-18T08:10:13Z</time></trkpt><trkpt lat="42.96337851028745" lon="13.427163396310924"><ele>444.0</ele><time>2026-04-18T08:10:14Z</time></trkpt><trkpt lat="42.96335420793724" lon="13.426920346645048"><ele>444.0</ele><time>2026-04-18T08:10:15Z</time></trkpt><trkpt lat="42.96333173286504" lon="13.426670753992777"><ele>441.33333333333337</ele><time>2026-04-18T08:10:16Z</time></trkpt><trkpt lat="42.96330665474234" lon="13.42641815660437"><ele>438.6666666666667</ele><time>2026-04-18T08:10:17Z</time></trkpt><trkpt lat="42.96327973884733" lon="13.426158450965195"><ele>436.0</ele><time>2026-04-18T08:10:18Z</time></trkpt><trkpt lat="42.963252292676" lon="13.425899283417744"><ele>436.0</ele><time>2026-04-18T08:10:19Z</time></trkpt><trkpt lat="42.963223008968136" lon="13.425636787087456"><ele>436.0</ele><time>2026-04-18T08:10:20Z</time></trkpt><trkpt lat="42.96319305841083" lon="13.4253720539332"><ele>436.0</ele><time>2026-04-18T08:10:21Z</time></trkpt><trkpt lat="42.96316363345225" lon="13.425100305685687"><ele>436.6666666666667</ele><time>2026-04-18T08:10:22Z</time></trkpt><trkpt lat="42.96312878442971" lon="13.424833150010745"><ele>437.33333333333337</ele><time>2026-04-18T08:10:23Z</time></trkpt><trkpt lat="42.96309591542648" lon="13.424562674979903"><ele>438.0</ele><time>2026-04-18T08:10:24Z</time></trkpt><trkpt lat="42.96306500560928" lon="13.424293329666378"><ele>438.66666666666663</ele><time>2026-04-18T08:10:25Z</time></trkpt><trkpt lat="42.963036185213525" lon="13.424016917157108"><ele>439.3333333333333</ele><time>2026-04-18T08:10:26Z</time></trkpt><trkpt lat="42.96300928228955" lon="13.423751256309398"><ele>440.0</ele><time>2026-04-18T08:10:27Z</time></trkpt><trkpt lat="42.96299521914088" lon="13.423481790764662"><ele>440.66666666666663</ele><time>2026-04-18T08:10:28Z</time></trkpt><trkpt lat="42.962987815466924" lon="13.423221389424093"><ele>441.33333333333337</ele><time>2026-04-18T08:10:29Z</time></trkpt><trkpt lat="42.96299387854511" lon="13.422966979621151"><ele>442.0</ele><time>2026-04-18T08:10:30Z</time></trkpt><trkpt lat="42.96301286547731" lon="13.422730036698715"><ele>442.0</ele><time>2026-04-18T08:10:31Z</time></trkpt><trkpt lat="42.96303841451897" lon="13.422499622219908"><ele>442.0</ele><time>2026-04-18T08:10:32Z</time></trkpt><trkpt lat="42.96303406092454" lon="13.42228270788589"><ele>442.0</ele><time>2026-04-18T08:10:33Z</time></trkpt><trkpt lat="42.962979430611085" lon="13.422077361377935"><ele>442.0</ele><time>2026-04-18T08:10:34Z</time></trkpt><trkpt lat="42.96288946466322" lon="13.421882354077214"><ele>442.0</ele><time>2026-04-18T08:10:35Z</time></trkpt><trkpt lat="42.96277541803111" lon="13.421700652879212"><ele>442.0</ele><time>2026-04-18T08:10:36Z</time></trkpt><trkpt lat="42.96265450683973" lon="13.42153562303441"><ele>442.0</ele><time>2026-04-18T08:10:37Z</time></trkpt><trkpt lat="42.96253586497511" lon="13.421359961769609"><ele>442.0</ele><time>2026-04-18T08:10:38Z</time></trkpt><trkpt lat="42.962422216586695" lon="13.42117699502516"><ele>442.0</ele><time>2026-04-18T08:10:39Z</time></trkpt><trkpt lat="42.962310257333584" lon="13.420993061528774"><ele>441.33333333333337</ele><time>2026-04-18T08:10:40Z</time></trkpt><trkpt lat="42.96219488635268" lon="13.420807083382343"><ele>440.66666666666663</ele><time>2026-04-18T08:10:41Z</time></trkpt><trkpt lat="42.96208063757928" lon="13.420633966860219"><ele>440.0</ele><time>2026-04-18T08:10:42Z</time></trkpt><trkpt lat="42.961962297243495" lon="13.420472870108224"><ele>440.0</ele><time>2026-04-18T08:10:43Z</time></trkpt><trkpt lat="42.96182859798045" lon="13.420338589314607"><ele>440.0</ele><time>2026-04-18T08:10:44Z</time></trkpt><trkpt lat="42.96167970877926" lon="13.420227635455579"><ele>440.0</ele><time>2026-04-18T08:10:45Z</time></trkpt><trkpt lat="42.96154234055887" lon="13.42012707026333"><ele>440.0</ele><time>2026-04-18T08:10:46Z</time></trkpt><trkpt lat="42.96141097986631" lon="13.42000982586223"><ele>440.0</ele><time>2026-04-18T08:10:47Z</time></trkpt><trkpt lat="42.9612872415668" lon="13.41988723678087"><ele>440.0</ele><time>2026-04-18T08:10:48Z</time></trkpt><trkpt lat="42.961174093945566" lon="13.419765794748185"><ele>441.25</ele><time>2026-04-18T08:10:49Z</time></trkpt><trkpt lat="42.961076347413666" lon="13.419643060422432"><ele>442.5</ele><time>2026-04-18T08:10:50Z</time></trkpt><trkpt lat="42.96098589747622" lon="13.419520366043013"><ele>443.75</ele><time>2026-04-18T08:10:51Z</time></trkpt><trkpt lat="42.96090693906221" lon="13.41935986005317"><ele>445.0</ele><time>2026-04-18T08:10:52Z</time></trkpt><trkpt lat="42.9607949759851" lon="13.419199952748068"><ele>445.0</ele><time>2026-04-18T08:10:53Z</time></trkpt><trkpt lat="42.960704488056905" lon="13.419007511700867"><ele>445.0</ele><time>2026-04-18T08:10:54Z</time></trkpt><trkpt lat="42.96061104835842" lon="13.418837495221673"><ele>445.0</ele><time>2026-04-18T08:10:55Z</time></trkpt><trkpt lat="42.96052582594959" lon="13.418690393999714"><ele>446.0</ele><time>2026-04-18T08:10:56Z</time></trkpt><trkpt lat="42.96044715186016" lon="13.41857874363435"><ele>447.0</ele><time>2026-04-18T08:10:57Z</time></trkpt><trkpt lat="42.960385482654445" lon="13.418447899491552"><ele>448.0</ele><time>2026-04-18T08:10:58Z</time></trkpt><trkpt lat="42.960307644060826" lon="13.41831240260216"><ele>449.0</ele><time>2026-04-18T08:10:59Z</time></trkpt><trkpt lat="42.96023054169402" lon="13.4181657381506"><ele>449.0</ele><time>2026-04-18T08:11:00Z</time></trkpt><trkpt lat="42.96015215142754" lon="13.418010894041151"><ele>449.0</ele><time>2026-04-18T08:11:01Z</time></trkpt><trkpt lat="42.960061941985316" lon="13.417860217485423"><ele>449.0</ele><time>2026-04-18T08:11:02Z</time></trkpt><trkpt lat="42.959969271142135" lon="13.417707061695104"><ele>449.0</ele><time>2026-04-18T08:11:03Z</time></trkpt><trkpt lat="42.95988016828386" lon="13.417546878233944"><ele>448.66666666666663</ele><time>2026-04-18T08:11:04Z</time></trkpt><trkpt lat="42.959799172708735" lon="13.417371658602569"><ele>448.33333333333337</ele><time>2026-04-18T08:11:05Z</time></trkpt><trkpt lat="42.959734676475" lon="13.417185937247309"><ele>448.0</ele><time>2026-04-18T08:11:06Z</time></trkpt><trkpt lat="42.95968981972499" lon="13.416985583896718"><ele>449.6666666666667</ele><time>2026-04-18T08:11:07Z</time></trkpt><trkpt lat="42.95965936555877" lon="13.416781209918312"><ele>451.33333333333337</ele><time>2026-04-18T08:11:07.999Z</time></trkpt><trkpt lat="42.95963112056513" lon="13.416566663316864"><ele>453.0</ele><time>2026-04-18T08:11:08.999Z</time></trkpt><trkpt lat="42.959600794059604" lon="13.416356839771778"><ele>453.66666666666663</ele><time>2026-04-18T08:11:09.999Z</time></trkpt><trkpt lat="42.95957453602445" lon="13.41615046205816"><ele>454.3333333333333</ele><time>2026-04-18T08:11:10.999Z</time></trkpt><trkpt lat="42.95954550830968" lon="13.415937045790772"><ele>455.0</ele><time>2026-04-18T08:11:11.999Z</time></trkpt><trkpt lat="42.959519858728456" lon="13.415733705810496"><ele>455.0</ele><time>2026-04-18T08:11:12.999Z</time></trkpt><trkpt lat="42.95949506914988" lon="13.415532024805943"><ele>455.0</ele><time>2026-04-18T08:11:13.999Z</time></trkpt><trkpt lat="42.95947362474548" lon="13.415341739212183"><ele>455.0</ele><time>2026-04-18T08:11:14.999Z</time></trkpt><trkpt lat="42.959453457798865" lon="13.415162937155575"><ele>455.0</ele><time>2026-04-18T08:11:15.999Z</time></trkpt><trkpt lat="42.95943154251156" lon="13.414994928311648"><ele>455.2</ele><time>2026-04-18T08:11:16.999Z</time></trkpt><trkpt lat="42.95940312811518" lon="13.414838849904282"><ele>455.4</ele><time>2026-04-18T08:11:17.999Z</time></trkpt><trkpt lat="42.95937969667364" lon="13.41468615377649"><ele>455.6</ele><time>2026-04-18T08:11:18.999Z</time></trkpt><trkpt lat="42.95936680061945" lon="13.41454302479756"><ele>455.8</ele><time>2026-04-18T08:11:19.999Z</time></trkpt><trkpt lat="42.95935775832503" lon="13.414406778845862"><ele>456.0</ele><time>2026-04-18T08:11:20.999Z</time></trkpt><trkpt lat="42.95935387507072" lon="13.41428750646418"><ele>456.0</ele><time>2026-04-18T08:11:21.999Z</time></trkpt><trkpt lat="42.95935929731537" lon="13.414175547085609"><ele>456.0</ele><time>2026-04-18T08:11:22.999Z</time></trkpt><trkpt lat="42.959382228048334" lon="13.414064398997832"><ele>456.0</ele><time>2026-04-18T08:11:23.999Z</time></trkpt><trkpt lat="42.95942640854451" lon="13.413958935720316"><ele>456.0</ele><time>2026-04-18T08:11:24.999Z</time></trkpt><trkpt lat="42.95947806022335" lon="13.413867078067964"><ele>456.0</ele><time>2026-04-18T08:11:25.999Z</time></trkpt><trkpt lat="42.95953670026721" lon="13.413776206569963"><ele>456.0</ele><time>2026-04-18T08:11:26.999Z</time></trkpt><trkpt lat="42.95960026231168" lon="13.413684589219804"><ele>454.8</ele><time>2026-04-18T08:11:27.999Z</time></trkpt><trkpt lat="42.95965950908359" lon="13.413590937465916"><ele>453.6</ele><time>2026-04-18T08:11:28.999Z</time></trkpt><trkpt lat="42.95971425459641" lon="13.413505679508603"><ele>452.4</ele><time>2026-04-18T08:11:29.999Z</time></trkpt><trkpt lat="42.95975942795905" lon="13.41344456974283"><ele>451.2</ele><time>2026-04-18T08:11:30.999Z</time></trkpt><trkpt lat="42.9596258223219" lon="13.41330566306773"><ele>450.0</ele><time>2026-04-18T08:11:33.999Z</time></trkpt><trkpt lat="42.95955388219952" lon="13.413283636143099"><ele>450.0</ele><time>2026-04-18T08:11:37.999Z</time></trkpt><trkpt lat="42.95944340256724" lon="13.413258190853226"><ele>450.0</ele><time>2026-04-18T08:11:39.999Z</time></trkpt><trkpt lat="42.959360230125164" lon="13.413242851330537"><ele>450.0</ele><time>2026-04-18T08:11:40.999Z</time></trkpt><trkpt lat="42.959267394186" lon="13.413224018635074"><ele>450.0</ele><time>2026-04-18T08:11:41.999Z</time></trkpt><trkpt lat="42.95916314599762" lon="13.413214248035349"><ele>450.0</ele><time>2026-04-18T08:11:42.999Z</time></trkpt><trkpt lat="42.95905065844413" lon="13.413206919384315"><ele>450.2</ele><time>2026-04-18T08:11:43.999Z</time></trkpt><trkpt lat="42.95893920677958" lon="13.413192086204955"><ele>450.4</ele><time>2026-04-18T08:11:44.999Z</time></trkpt><trkpt lat="42.95882837642205" lon="13.413178427234993"><ele>450.6</ele><time>2026-04-18T08:11:45.999Z</time></trkpt><trkpt lat="42.95872998560453" lon="13.413166556203079"><ele>450.8</ele><time>2026-04-18T08:11:46.999Z</time></trkpt><trkpt lat="42.95864067530371" lon="13.41315478590708"><ele>451.0</ele><time>2026-04-18T08:11:47.999Z</time></trkpt><trkpt lat="42.958562985630444" lon="13.413145761970915"><ele>451.00000000000006</ele><time>2026-04-18T08:11:48.999Z</time></trkpt><trkpt lat="42.9584917561195" lon="13.41313614910545"><ele>451.0</ele><time>2026-04-18T08:11:49.999Z</time></trkpt><trkpt lat="42.958425430394165" lon="13.413124121489378"><ele>451.0</ele><time>2026-04-18T08:11:50.999Z</time></trkpt><trkpt lat="42.95835605565557" lon="13.413121384140217"><ele>451.0</ele><time>2026-04-18T08:11:51.999Z</time></trkpt><trkpt lat="42.95828693933237" lon="13.413109065322919"><ele>451.00000000000006</ele><time>2026-04-18T08:11:52.999Z</time></trkpt><trkpt lat="42.958199744521345" lon="13.413095117406167"><ele>451.0</ele><time>2026-04-18T08:11:53.999Z</time></trkpt><trkpt lat="42.95809909303164" lon="13.413082483706185"><ele>451.83333333333337</ele><time>2026-04-18T08:11:54.999Z</time></trkpt><trkpt lat="42.95800324760269" lon="13.413061981514378"><ele>452.6666666666667</ele><time>2026-04-18T08:11:55.999Z</time></trkpt><trkpt lat="42.95791676801987" lon="13.413041788461221"><ele>453.5</ele><time>2026-04-18T08:11:56.999Z</time></trkpt><trkpt lat="42.95783393637444" lon="13.413027784541372"><ele>454.33333333333337</ele><time>2026-04-18T08:11:57.999Z</time></trkpt><trkpt lat="42.95775397538584" lon="13.413020597600575"><ele>455.1666666666667</ele><time>2026-04-18T08:11:58.999Z</time></trkpt><trkpt lat="42.957672933807935" lon="13.413007497652353"><ele>456.0</ele><time>2026-04-18T08:11:59.999Z</time></trkpt><trkpt lat="42.957594172670504" lon="13.412993781347353"><ele>456.5</ele><time>2026-04-18T08:12:00.999Z</time></trkpt><trkpt lat="42.95751772123567" lon="13.41298398863014"><ele>457.0</ele><time>2026-04-18T08:12:01.999Z</time></trkpt><trkpt lat="42.957443374123635" lon="13.41297392765691"><ele>457.5</ele><time>2026-04-18T08:12:02.999Z</time></trkpt><trkpt lat="42.957373691995144" lon="13.412964446972897"><ele>458.0</ele><time>2026-04-18T08:12:03.999Z</time></trkpt><trkpt lat="42.957310364019605" lon="13.412954287349942"><ele>458.5</ele><time>2026-04-18T08:12:04.999Z</time></trkpt><trkpt lat="42.95719610470658" lon="13.412930249238462"><ele>459.0</ele><time>2026-04-18T08:12:06.999Z</time></trkpt><trkpt lat="42.95713043958368" lon="13.412921490911213"><ele>459.0</ele><time>2026-04-18T08:12:07.999Z</time></trkpt><trkpt lat="42.957059483807775" lon="13.412903819283061"><ele>459.0</ele><time>2026-04-18T08:12:08.999Z</time></trkpt><trkpt lat="42.95698484359101" lon="13.412891953354922"><ele>459.0</ele><time>2026-04-18T08:12:09.999Z</time></trkpt><trkpt lat="42.9569080860217" lon="13.412877523876135"><ele>459.0</ele><time>2026-04-18T08:12:11Z</time></trkpt><trkpt lat="42.956831740597565" lon="13.412858908793526"><ele>459.0</ele><time>2026-04-18T08:12:12Z</time></trkpt><trkpt lat="42.956760423083914" lon="13.412846454506132"><ele>459.0</ele><time>2026-04-18T08:12:13Z</time></trkpt><trkpt lat="42.95669546575521" lon="13.412834968900745"><ele>459.0</ele><time>2026-04-18T08:12:14Z</time></trkpt><trkpt lat="42.9566325061368" lon="13.412822395800434"><ele>458.7142857142857</ele><time>2026-04-18T08:12:15Z</time></trkpt><trkpt lat="42.95656646490283" lon="13.412808062111408"><ele>458.42857142857144</ele><time>2026-04-18T08:12:16Z</time></trkpt><trkpt lat="42.95649347506654" lon="13.412796294605553"><ele>458.14285714285717</ele><time>2026-04-18T08:12:17Z</time></trkpt><trkpt lat="42.95641367780433" lon="13.41278595774298"><ele>457.8571428571429</ele><time>2026-04-18T08:12:18Z</time></trkpt><trkpt lat="42.956336876505596" lon="13.412778689226304"><ele>457.57142857142856</ele><time>2026-04-18T08:12:19Z</time></trkpt><trkpt lat="42.95626462131074" lon="13.412769875774408"><ele>457.28571428571433</ele><time>2026-04-18T08:12:20Z</time></trkpt><trkpt lat="42.95620130066562" lon="13.412750798291432"><ele>457.00000000000006</ele><time>2026-04-18T08:12:21Z</time></trkpt><trkpt lat="42.95608583423106" lon="13.412715808248823"><ele>457.0</ele><time>2026-04-18T08:12:23Z</time></trkpt><trkpt lat="42.955967906417655" lon="13.412705370995107"><ele>457.00000000000006</ele><time>2026-04-18T08:12:25Z</time></trkpt><trkpt lat="42.955902130656156" lon="13.412671886442338"><ele>457.00000000000006</ele><time>2026-04-18T08:12:26Z</time></trkpt><trkpt lat="42.9558232823267" lon="13.412653552498568"><ele>457.0</ele><time>2026-04-18T08:12:27Z</time></trkpt><trkpt lat="42.95572894047162" lon="13.412652703357692"><ele>457.0</ele><time>2026-04-18T08:12:28Z</time></trkpt><trkpt lat="42.9556285194126" lon="13.412606164125119"><ele>456.25</ele><time>2026-04-18T08:12:29Z</time></trkpt><trkpt lat="42.95551221612832" lon="13.412561620567205"><ele>455.5</ele><time>2026-04-18T08:12:30Z</time></trkpt><trkpt lat="42.955390076624816" lon="13.412512347582267"><ele>454.75</ele><time>2026-04-18T08:12:31Z</time></trkpt><trkpt lat="42.955268411848046" lon="13.412456837545495"><ele>454.0</ele><time>2026-04-18T08:12:32Z</time></trkpt><trkpt lat="42.95514979600491" lon="13.41239920423391"><ele>453.0</ele><time>2026-04-18T08:12:33Z</time></trkpt><trkpt lat="42.95503690290624" lon="13.412345668427731"><ele>452.0</ele><time>2026-04-18T08:12:34Z</time></trkpt><trkpt lat="42.95493122800214" lon="13.412294529998197"><ele>451.0</ele><time>2026-04-18T08:12:35Z</time></trkpt><trkpt lat="42.95483556089557" lon="13.41226150540001"><ele>450.0</ele><time>2026-04-18T08:12:36Z</time></trkpt><trkpt lat="42.95474535359783" lon="13.412247085613416"><ele>449.0</ele><time>2026-04-18T08:12:37Z</time></trkpt><trkpt lat="42.95468073209244" lon="13.412226214034641"><ele>449.0</ele><time>2026-04-18T08:12:38Z</time></trkpt><trkpt lat="42.95460830017763" lon="13.412170555350315"><ele>449.0</ele><time>2026-04-18T08:12:39Z</time></trkpt><trkpt lat="42.95453302108784" lon="13.412081051236695"><ele>449.0</ele><time>2026-04-18T08:12:40Z</time></trkpt><trkpt lat="42.95445374990643" lon="13.411968519038197"><ele>449.0</ele><time>2026-04-18T08:12:41Z</time></trkpt><trkpt lat="42.95436582430269" lon="13.411851977237268"><ele>449.0</ele><time>2026-04-18T08:12:42Z</time></trkpt><trkpt lat="42.954275527137725" lon="13.411746951705277"><ele>450.0</ele><time>2026-04-18T08:12:43Z</time></trkpt><trkpt lat="42.954172106299794" lon="13.411640144296046"><ele>451.0</ele><time>2026-04-18T08:12:44Z</time></trkpt><trkpt lat="42.95405729210477" lon="13.411544355340679"><ele>452.0</ele><time>2026-04-18T08:12:45Z</time></trkpt><trkpt lat="42.9539273016713" lon="13.411473363523548"><ele>453.0</ele><time>2026-04-18T08:12:46Z</time></trkpt><trkpt lat="42.95378684230868" lon="13.411419926786976"><ele>453.0</ele><time>2026-04-18T08:12:47Z</time></trkpt><trkpt lat="42.95364496081909" lon="13.41136404585207"><ele>453.0</ele><time>2026-04-18T08:12:48Z</time></trkpt><trkpt lat="42.9535066746451" lon="13.411308407321131"><ele>453.0</ele><time>2026-04-18T08:12:49Z</time></trkpt><trkpt lat="42.95337030214495" lon="13.411251088178304"><ele>453.0</ele><time>2026-04-18T08:12:50Z</time></trkpt><trkpt lat="42.95323276774843" lon="13.411194190549093"><ele>454.25</ele><time>2026-04-18T08:12:51Z</time></trkpt><trkpt lat="42.95309443757119" lon="13.411138915305001"><ele>455.5</ele><time>2026-04-18T08:12:52Z</time></trkpt><trkpt lat="42.95295666712409" lon="13.411080713321898"><ele>456.75</ele><time>2026-04-18T08:12:53Z</time></trkpt><trkpt lat="42.95281531695893" lon="13.41102063521045"><ele>458.0</ele><time>2026-04-18T08:12:54Z</time></trkpt><trkpt lat="42.952673253878906" lon="13.410960461106669"><ele>457.3333333333333</ele><time>2026-04-18T08:12:55Z</time></trkpt><trkpt lat="42.952529240728936" lon="13.410901802676003"><ele>456.66666666666663</ele><time>2026-04-18T08:12:56Z</time></trkpt><trkpt lat="42.952382880023045" lon="13.410838020594113"><ele>456.0</ele><time>2026-04-18T08:12:57Z</time></trkpt><trkpt lat="42.95223753571066" lon="13.410771364575403"><ele>456.0</ele><time>2026-04-18T08:12:58Z</time></trkpt><trkpt lat="42.95208840107358" lon="13.410702803346481"><ele>456.0</ele><time>2026-04-18T08:12:59Z</time></trkpt><trkpt lat="42.951937776938664" lon="13.410637631867084"><ele>456.0</ele><time>2026-04-18T08:13:00Z</time></trkpt><trkpt lat="42.95178999612501" lon="13.410575052649612"><ele>456.25</ele><time>2026-04-18T08:13:01Z</time></trkpt><trkpt lat="42.951645144680384" lon="13.410514730504989"><ele>456.5</ele><time>2026-04-18T08:13:02Z</time></trkpt><trkpt lat="42.95150384185645" lon="13.410453797795334"><ele>456.75</ele><time>2026-04-18T08:13:03Z</time></trkpt><trkpt lat="42.9513715473308" lon="13.41039393379831"><ele>457.0</ele><time>2026-04-18T08:13:04Z</time></trkpt><trkpt lat="42.951246921750936" lon="13.410338242142513"><ele>457.75</ele><time>2026-04-18T08:13:05Z</time></trkpt><trkpt lat="42.951128528568205" lon="13.410287331084996"><ele>458.5</ele><time>2026-04-18T08:13:06Z</time></trkpt><trkpt lat="42.951015203123646" lon="13.410237944816947"><ele>459.25</ele><time>2026-04-18T08:13:07Z</time></trkpt><trkpt lat="42.95090213399252" lon="13.410181554315407"><ele>460.0</ele><time>2026-04-18T08:13:08Z</time></trkpt><trkpt lat="42.950785529395496" lon="13.410119412766663"><ele>460.25</ele><time>2026-04-18T08:13:09Z</time></trkpt><trkpt lat="42.950666708272514" lon="13.410050254958836"><ele>460.5</ele><time>2026-04-18T08:13:10Z</time></trkpt><trkpt lat="42.95054247331345" lon="13.40996709471731"><ele>460.75</ele><time>2026-04-18T08:13:11Z</time></trkpt><trkpt lat="42.95041483264351" lon="13.409870038343982"><ele>461.0</ele><time>2026-04-18T08:13:12Z</time></trkpt><trkpt lat="42.95028141665036" lon="13.409760042896767"><ele>462.0</ele><time>2026-04-18T08:13:13Z</time></trkpt><trkpt lat="42.95014251134649" lon="13.409640702451036"><ele>463.0</ele><time>2026-04-18T08:13:14Z</time></trkpt><trkpt lat="42.95000166646197" lon="13.409507727441419"><ele>464.0</ele><time>2026-04-18T08:13:15Z</time></trkpt><trkpt lat="42.949860617830076" lon="13.409361951641142"><ele>464.66666666666663</ele><time>2026-04-18T08:13:16Z</time></trkpt><trkpt lat="42.94971050170909" lon="13.409220064530857"><ele>465.33333333333337</ele><time>2026-04-18T08:13:17Z</time></trkpt><trkpt lat="42.94955856152911" lon="13.409089364457975"><ele>466.0</ele><time>2026-04-18T08:13:18Z</time></trkpt><trkpt lat="42.94941227431801" lon="13.408961609678459"><ele>466.6666666666667</ele><time>2026-04-18T08:13:19Z</time></trkpt><trkpt lat="42.949271177430894" lon="13.40882282802351"><ele>467.33333333333337</ele><time>2026-04-18T08:13:20Z</time></trkpt><trkpt lat="42.949136318312526" lon="13.40866521013632"><ele>468.0</ele><time>2026-04-18T08:13:20.999Z</time></trkpt><trkpt lat="42.94901474897305" lon="13.408483388309746"><ele>468.0</ele><time>2026-04-18T08:13:21.999Z</time></trkpt><trkpt lat="42.948913678812616" lon="13.408283951672708"><ele>468.0</ele><time>2026-04-18T08:13:22.999Z</time></trkpt><trkpt lat="42.94881798557469" lon="13.408076346150597"><ele>468.0</ele><time>2026-04-18T08:13:23.999Z</time></trkpt><trkpt lat="42.948723490987966" lon="13.407869442691212"><ele>471.0</ele><time>2026-04-18T08:13:24.999Z</time></trkpt><trkpt lat="42.94863032606433" lon="13.407668704069517"><ele>474.0</ele><time>2026-04-18T08:13:25.999Z</time></trkpt><trkpt lat="42.94854233559642" lon="13.407475591808522"><ele>477.0</ele><time>2026-04-18T08:13:26.999Z</time></trkpt><trkpt lat="42.94845910206167" lon="13.407308132203879"><ele>477.5</ele><time>2026-04-18T08:13:27.999Z</time></trkpt><trkpt lat="42.94837638883081" lon="13.407155079612236"><ele>478.0</ele><time>2026-04-18T08:13:28.999Z</time></trkpt><trkpt lat="42.948302890127614" lon="13.407013020835306"><ele>478.5</ele><time>2026-04-18T08:13:29.999Z</time></trkpt><trkpt lat="42.94819959210964" lon="13.406903745226005"><ele>479.0</ele><time>2026-04-18T08:13:30.998Z</time></trkpt><trkpt lat="42.94808925944585" lon="13.406886511940527"><ele>479.0</ele><time>2026-04-18T08:13:31.998Z</time></trkpt><trkpt lat="42.947981394625735" lon="13.406951358389312"><ele>479.0</ele><time>2026-04-18T08:13:32.998Z</time></trkpt><trkpt lat="42.9479011645019" lon="13.407115343912192"><ele>479.0</ele><time>2026-04-18T08:13:33.998Z</time></trkpt><trkpt lat="42.94784405424665" lon="13.40727362125153"><ele>479.0</ele><time>2026-04-18T08:13:34.998Z</time></trkpt><trkpt lat="42.94780590488693" lon="13.407460758226385"><ele>476.5</ele><time>2026-04-18T08:13:35.998Z</time></trkpt><trkpt lat="42.947750190438846" lon="13.407649093083549"><ele>474.0</ele><time>2026-04-18T08:13:36.998Z</time></trkpt><trkpt lat="42.947706979546396" lon="13.407845247489265"><ele>471.5</ele><time>2026-04-18T08:13:37.998Z</time></trkpt><trkpt lat="42.94766419557478" lon="13.408036160041227"><ele>469.0</ele><time>2026-04-18T08:13:38.998Z</time></trkpt><trkpt lat="42.94762473891138" lon="13.408208035326078"><ele>469.0</ele><time>2026-04-18T08:13:39.998Z</time></trkpt><trkpt lat="42.947581960899385" lon="13.408367120022737"><ele>469.0</ele><time>2026-04-18T08:13:40.998Z</time></trkpt><trkpt lat="42.947482698086006" lon="13.408474615966085"><ele>469.0</ele><time>2026-04-18T08:13:41.998Z</time></trkpt><trkpt lat="42.947348341241074" lon="13.408482002698799"><ele>469.0</ele><time>2026-04-18T08:13:42.998Z</time></trkpt><trkpt lat="42.94719751946432" lon="13.408481794276534"><ele>469.0</ele><time>2026-04-18T08:13:43.998Z</time></trkpt><trkpt lat="42.94704126136817" lon="13.408449100395124"><ele>469.0</ele><time>2026-04-18T08:13:44.998Z</time></trkpt><trkpt lat="42.94687706019084" lon="13.408417000237334"><ele>469.0</ele><time>2026-04-18T08:13:45.998Z</time></trkpt><trkpt lat="42.946708164692396" lon="13.408393930213439"><ele>471.33333333333337</ele><time>2026-04-18T08:13:46.998Z</time></trkpt><trkpt lat="42.94653410898859" lon="13.40837477094324"><ele>473.66666666666663</ele><time>2026-04-18T08:13:47.998Z</time></trkpt><trkpt lat="42.94635904239666" lon="13.408366274673886"><ele>476.0</ele><time>2026-04-18T08:13:48.998Z</time></trkpt><trkpt lat="42.94618393113044" lon="13.408391953090144"><ele>476.0</ele><time>2026-04-18T08:13:49.998Z</time></trkpt><trkpt lat="42.946013986248914" lon="13.408465244745454"><ele>476.0</ele><time>2026-04-18T08:13:50.998Z</time></trkpt><trkpt lat="42.945852019410566" lon="13.408581370502379"><ele>476.0</ele><time>2026-04-18T08:13:51.998Z</time></trkpt><trkpt lat="42.94569457693276" lon="13.408712681767783"><ele>473.3333333333333</ele><time>2026-04-18T08:13:52.998Z</time></trkpt><trkpt lat="42.94553317614794" lon="13.408844196955659"><ele>470.66666666666663</ele><time>2026-04-18T08:13:53.998Z</time></trkpt><trkpt lat="42.94537187599114" lon="13.408969941252957"><ele>468.0</ele><time>2026-04-18T08:13:54.998Z</time></trkpt><trkpt lat="42.94520476865413" lon="13.409091540324997"><ele>470.33333333333337</ele><time>2026-04-18T08:13:55.998Z</time></trkpt><trkpt lat="42.945031972916816" lon="13.40920417350945"><ele>472.6666666666667</ele><time>2026-04-18T08:13:56.998Z</time></trkpt><trkpt lat="42.944853294824" lon="13.409306191102022"><ele>475.0</ele><time>2026-04-18T08:13:57.998Z</time></trkpt><trkpt lat="42.94466947607279" lon="13.409392821682404"><ele>475.0</ele><time>2026-04-18T08:13:58.998Z</time></trkpt><trkpt lat="42.94448800357461" lon="13.409466320162219"><ele>475.0</ele><time>2026-04-18T08:13:59.998Z</time></trkpt><trkpt lat="42.94431775142173" lon="13.409529002972663"><ele>475.0</ele><time>2026-04-18T08:14:00.998Z</time></trkpt><trkpt lat="42.9441559735146" lon="13.40957730070274"><ele>477.0</ele><time>2026-04-18T08:14:01.998Z</time></trkpt><trkpt lat="42.94399727355537" lon="13.409599094828474"><ele>479.0</ele><time>2026-04-18T08:14:02.998Z</time></trkpt><trkpt lat="42.943841289624935" lon="13.40958388293637"><ele>481.0</ele><time>2026-04-18T08:14:03.998Z</time></trkpt><trkpt lat="42.94368903479379" lon="13.409526352699194"><ele>481.0</ele><time>2026-04-18T08:14:04.998Z</time></trkpt><trkpt lat="42.94354186972409" lon="13.409433511758014"><ele>481.0</ele><time>2026-04-18T08:14:05.998Z</time></trkpt><trkpt lat="42.9434102022521" lon="13.40931014364209"><ele>481.0</ele><time>2026-04-18T08:14:06.998Z</time></trkpt><trkpt lat="42.94329216786462" lon="13.409150977366465"><ele>481.0</ele><time>2026-04-18T08:14:07.998Z</time></trkpt><trkpt lat="42.94320711916143" lon="13.408984389566834"><ele>481.0</ele><time>2026-04-18T08:14:08.998Z</time></trkpt><trkpt lat="42.94312052148367" lon="13.408821487240456"><ele>481.0</ele><time>2026-04-18T08:14:09.998Z</time></trkpt><trkpt lat="42.943024037986916" lon="13.408651685323015"><ele>483.6666666666667</ele><time>2026-04-18T08:14:10.998Z</time></trkpt><trkpt lat="42.94291871282554" lon="13.408477003857229"><ele>486.33333333333337</ele><time>2026-04-18T08:14:11.998Z</time></trkpt><trkpt lat="42.94280880602189" lon="13.408298373417024"><ele>489.0</ele><time>2026-04-18T08:14:12.998Z</time></trkpt><trkpt lat="42.94269971841791" lon="13.40812557419587"><ele>489.0</ele><time>2026-04-18T08:14:13.998Z</time></trkpt><trkpt lat="42.94259915064673" lon="13.407969569819022"><ele>489.0</ele><time>2026-04-18T08:14:14.998Z</time></trkpt><trkpt lat="42.94249395857079" lon="13.407829310746525"><ele>489.0</ele><time>2026-04-18T08:14:15.998Z</time></trkpt><trkpt lat="42.942375465914324" lon="13.407724177204214"><ele>489.0</ele><time>2026-04-18T08:14:16.999Z</time></trkpt><trkpt lat="42.94224230208815" lon="13.407642660599274"><ele>489.0</ele><time>2026-04-18T08:14:17.999Z</time></trkpt><trkpt lat="42.9421058917132" lon="13.407581544712471"><ele>489.0</ele><time>2026-04-18T08:14:18.999Z</time></trkpt><trkpt lat="42.941965409895396" lon="13.407537019176916"><ele>489.0</ele><time>2026-04-18T08:14:19.999Z</time></trkpt><trkpt lat="42.94182043166074" lon="13.407507303804593"><ele>489.0</ele><time>2026-04-18T08:14:20.999Z</time></trkpt><trkpt lat="42.94166762742793" lon="13.4075020590501"><ele>489.33333333333337</ele><time>2026-04-18T08:14:21.999Z</time></trkpt><trkpt lat="42.94149652462708" lon="13.407537493143748"><ele>489.6666666666667</ele><time>2026-04-18T08:14:22.999Z</time></trkpt><trkpt lat="42.94131498183737" lon="13.40760243029416"><ele>490.0</ele><time>2026-04-18T08:14:23.999Z</time></trkpt><trkpt lat="42.94111946460974" lon="13.407649746057283"><ele>490.0</ele><time>2026-04-18T08:14:24.999Z</time></trkpt><trkpt lat="42.94092222332539" lon="13.4077376966659"><ele>490.0</ele><time>2026-04-18T08:14:25.999Z</time></trkpt><trkpt lat="42.940712451286196" lon="13.407784894458826"><ele>490.0</ele><time>2026-04-18T08:14:26.999Z</time></trkpt><trkpt lat="42.94050072398308" lon="13.407842108316549"><ele>490.6666666666667</ele><time>2026-04-18T08:14:27.999Z</time></trkpt><trkpt lat="42.94029248137967" lon="13.407896271349134"><ele>491.33333333333337</ele><time>2026-04-18T08:14:28.999Z</time></trkpt><trkpt lat="42.94009042057335" lon="13.40791793294572"><ele>492.0</ele><time>2026-04-18T08:14:29.999Z</time></trkpt><trkpt lat="42.93989090875138" lon="13.407897503955594"><ele>492.66666666666663</ele><time>2026-04-18T08:14:30.999Z</time></trkpt><trkpt lat="42.939695681566754" lon="13.40786187924668"><ele>493.3333333333333</ele><time>2026-04-18T08:14:31.999Z</time></trkpt><trkpt lat="42.93951122227552" lon="13.407826298785126"><ele>494.0</ele><time>2026-04-18T08:14:32.999Z</time></trkpt><trkpt lat="42.93934099172768" lon="13.407777376387145"><ele>494.66666666666663</ele><time>2026-04-18T08:14:33.999Z</time></trkpt><trkpt lat="42.939177936488676" lon="13.407681973385293"><ele>495.33333333333337</ele><time>2026-04-18T08:14:34.999Z</time></trkpt><trkpt lat="42.93903946531344" lon="13.407521127706453"><ele>496.0</ele><time>2026-04-18T08:14:35.999Z</time></trkpt><trkpt lat="42.938928825673244" lon="13.407329235159343"><ele>496.0</ele><time>2026-04-18T08:14:36.999Z</time></trkpt><trkpt lat="42.938811905518214" lon="13.407168385833751"><ele>496.0</ele><time>2026-04-18T08:14:37.999Z</time></trkpt><trkpt lat="42.93866284435554" lon="13.407076230195985"><ele>496.0</ele><time>2026-04-18T08:14:38.999Z</time></trkpt><trkpt lat="42.938480709736545" lon="13.407052041024226"><ele>500.33333333333337</ele><time>2026-04-18T08:14:39.999Z</time></trkpt><trkpt lat="42.93828765643439" lon="13.407071682177794"><ele>504.66666666666663</ele><time>2026-04-18T08:14:40.999Z</time></trkpt><trkpt lat="42.938078737407324" lon="13.40707692615985"><ele>509.0</ele><time>2026-04-18T08:14:41.999Z</time></trkpt><trkpt lat="42.937872462214855" lon="13.407087207953326"><ele>509.0</ele><time>2026-04-18T08:14:42.999Z</time></trkpt><trkpt lat="42.93766893297156" lon="13.40710313071368"><ele>509.0</ele><time>2026-04-18T08:14:43.999Z</time></trkpt><trkpt lat="42.937477482077945" lon="13.407144129120498"><ele>509.0</ele><time>2026-04-18T08:14:44.999Z</time></trkpt><trkpt lat="42.93730327100251" lon="13.407194280081223"><ele>505.0</ele><time>2026-04-18T08:14:45.999Z</time></trkpt><trkpt lat="42.93714115281151" lon="13.407257838195722"><ele>501.0</ele><time>2026-04-18T08:14:46.999Z</time></trkpt><trkpt lat="42.93699831672609" lon="13.407364235245378"><ele>497.0</ele><time>2026-04-18T08:14:47.999Z</time></trkpt><trkpt lat="42.93688712766427" lon="13.40751790507007"><ele>497.0</ele><time>2026-04-18T08:14:48.999Z</time></trkpt><trkpt lat="42.93681183570534" lon="13.407694469401303"><ele>497.0</ele><time>2026-04-18T08:14:49.999Z</time></trkpt><trkpt lat="42.93676832296937" lon="13.407892018821519"><ele>497.0</ele><time>2026-04-18T08:14:50.999Z</time></trkpt><trkpt lat="42.93675314365244" lon="13.408101555354305"><ele>499.25</ele><time>2026-04-18T08:14:51.999Z</time></trkpt><trkpt lat="42.93671584698175" lon="13.40829604988818"><ele>501.5</ele><time>2026-04-18T08:14:52.999Z</time></trkpt><trkpt lat="42.9366628779969" lon="13.40846678018794"><ele>503.75</ele><time>2026-04-18T08:14:53.999Z</time></trkpt><trkpt lat="42.93657984753885" lon="13.408624678539354"><ele>506.0</ele><time>2026-04-18T08:14:54.999Z</time></trkpt><trkpt lat="42.93647453891757" lon="13.408786995013829"><ele>502.0</ele><time>2026-04-18T08:14:55.999Z</time></trkpt><trkpt lat="42.93636887871746" lon="13.408964676034113"><ele>498.0</ele><time>2026-04-18T08:14:56.999Z</time></trkpt><trkpt lat="42.936261843250094" lon="13.409113464000997"><ele>494.0</ele><time>2026-04-18T08:14:57.999Z</time></trkpt><trkpt lat="42.93616775522686" lon="13.40923768857535"><ele>494.0</ele><time>2026-04-18T08:14:58.999Z</time></trkpt><trkpt lat="42.93605415959741" lon="13.409301821004158"><ele>494.0</ele><time>2026-04-18T08:14:59.999Z</time></trkpt><trkpt lat="42.935937219700676" lon="13.409353546383542"><ele>494.0</ele><time>2026-04-18T08:15:00.999Z</time></trkpt><trkpt lat="42.93580880170871" lon="13.409387005081841"><ele>494.0</ele><time>2026-04-18T08:15:01.999Z</time></trkpt><trkpt lat="42.935670620240366" lon="13.40939257288105"><ele>498.3333333333333</ele><time>2026-04-18T08:15:02.999Z</time></trkpt><trkpt lat="42.935507363580705" lon="13.409368016592078"><ele>502.66666666666663</ele><time>2026-04-18T08:15:03.999Z</time></trkpt><trkpt lat="42.935335200121045" lon="13.409319639634656"><ele>507.0</ele><time>2026-04-18T08:15:04.999Z</time></trkpt><trkpt lat="42.93514564983575" lon="13.409277496479298"><ele>506.66666666666663</ele><time>2026-04-18T08:15:05.999Z</time></trkpt><trkpt lat="42.93494937600886" lon="13.40921276492042"><ele>506.3333333333333</ele><time>2026-04-18T08:15:06.999Z</time></trkpt><trkpt lat="42.934747272328764" lon="13.40916444589163"><ele>506.0</ele><time>2026-04-18T08:15:07.999Z</time></trkpt><trkpt lat="42.9345429428845" lon="13.409160145299765"><ele>506.0</ele><time>2026-04-18T08:15:08.999Z</time></trkpt><trkpt lat="42.93434643099651" lon="13.40921566387279"><ele>506.0</ele><time>2026-04-18T08:15:09.999Z</time></trkpt><trkpt lat="42.93415273263441" lon="13.409240654805513"><ele>506.0</ele><time>2026-04-18T08:15:10.999Z</time></trkpt><trkpt lat="42.93395910133344" lon="13.409236022241958"><ele>504.66666666666663</ele><time>2026-04-18T08:15:11.999Z</time></trkpt><trkpt lat="42.93376429775363" lon="13.409211264017271"><ele>503.33333333333337</ele><time>2026-04-18T08:15:12.999Z</time></trkpt><trkpt lat="42.93358334759867" lon="13.409130652726745"><ele>502.0</ele><time>2026-04-18T08:15:13.999Z</time></trkpt><trkpt lat="42.933422873683156" lon="13.409045523785577"><ele>502.0</ele><time>2026-04-18T08:15:14.999Z</time></trkpt><trkpt lat="42.933268890828465" lon="13.408979456424913"><ele>502.0</ele><time>2026-04-18T08:15:15.999Z</time></trkpt><trkpt lat="42.93309134163897" lon="13.408974993624453"><ele>502.0</ele><time>2026-04-18T08:15:16.999Z</time></trkpt><trkpt lat="42.932892734137745" lon="13.409015818395204"><ele>502.0</ele><time>2026-04-18T08:15:17.999Z</time></trkpt><trkpt lat="42.932688693985476" lon="13.409097916575744"><ele>502.0</ele><time>2026-04-18T08:15:18.999Z</time></trkpt><trkpt lat="42.932474509211254" lon="13.409160566578848"><ele>502.0</ele><time>2026-04-18T08:15:19.999Z</time></trkpt><trkpt lat="42.932261406842585" lon="13.409233520597626"><ele>504.6666666666667</ele><time>2026-04-18T08:15:20.999Z</time></trkpt><trkpt lat="42.932043230809875" lon="13.409282948726318"><ele>507.33333333333337</ele><time>2026-04-18T08:15:21.999Z</time></trkpt><trkpt lat="42.93183116139225" lon="13.409350131106184"><ele>510.0</ele><time>2026-04-18T08:15:22.999Z</time></trkpt><trkpt lat="42.9316305335469" lon="13.409436011055844"><ele>514.3333333333334</ele><time>2026-04-18T08:15:23.999Z</time></trkpt><trkpt lat="42.93142963896523" lon="13.409482979071665"><ele>518.6666666666667</ele><time>2026-04-18T08:15:24.999Z</time></trkpt><trkpt lat="42.9312241694459" lon="13.40950201844335"><ele>523.0</ele><time>2026-04-18T08:15:25.999Z</time></trkpt><trkpt lat="42.93101629369613" lon="13.40948139168986"><ele>521.3333333333334</ele><time>2026-04-18T08:15:26.999Z</time></trkpt><trkpt lat="42.930811396759495" lon="13.409453972287421"><ele>519.6666666666666</ele><time>2026-04-18T08:15:27.999Z</time></trkpt><trkpt lat="42.93060563661289" lon="13.409486179838565"><ele>518.0</ele><time>2026-04-18T08:15:28.999Z</time></trkpt><trkpt lat="42.93040340548957" lon="13.409560939808202"><ele>518.0</ele><time>2026-04-18T08:15:29.999Z</time></trkpt><trkpt lat="42.93019679068708" lon="13.409598999311026"><ele>518.0</ele><time>2026-04-18T08:15:30.999Z</time></trkpt><trkpt lat="42.93000052329315" lon="13.409661240496883"><ele>518.0</ele><time>2026-04-18T08:15:31.999Z</time></trkpt><trkpt lat="42.92980998554977" lon="13.409660153868053"><ele>517.0</ele><time>2026-04-18T08:15:32.999Z</time></trkpt><trkpt lat="42.929634671965495" lon="13.409596217511792"><ele>516.0</ele><time>2026-04-18T08:15:33.999Z</time></trkpt><trkpt lat="42.929489957342106" lon="13.40947385978697"><ele>515.0</ele><time>2026-04-18T08:15:34.999Z</time></trkpt><trkpt lat="42.92936700103344" lon="13.409285437714564"><ele>515.0</ele><time>2026-04-18T08:15:35.999Z</time></trkpt><trkpt lat="42.92924361110522" lon="13.409090647888865"><ele>515.0</ele><time>2026-04-18T08:15:36.999Z</time></trkpt><trkpt lat="42.9290991765415" lon="13.408905071350812"><ele>515.0</ele><time>2026-04-18T08:15:37.999Z</time></trkpt><trkpt lat="42.92892748422211" lon="13.408750931673147"><ele>520.6666666666666</ele><time>2026-04-18T08:15:38.999Z</time></trkpt><trkpt lat="42.92874399745883" lon="13.408622849343455"><ele>526.3333333333334</ele><time>2026-04-18T08:15:39.999Z</time></trkpt><trkpt lat="42.92854275080676" lon="13.408523604738203"><ele>532.0</ele><time>2026-04-18T08:15:40.999Z</time></trkpt><trkpt lat="42.92833162785721" lon="13.408460291432462"><ele>532.3333333333334</ele><time>2026-04-18T08:15:41.999Z</time></trkpt><trkpt lat="42.928113990091624" lon="13.408432508805802"><ele>532.6666666666666</ele><time>2026-04-18T08:15:42.999Z</time></trkpt><trkpt lat="42.9278946706184" lon="13.408424783339989"><ele>533.0</ele><time>2026-04-18T08:15:43.999Z</time></trkpt><trkpt lat="42.9276772718987" lon="13.4084097389969"><ele>530.6666666666666</ele><time>2026-04-18T08:15:44.999Z</time></trkpt><trkpt lat="42.92746488061393" lon="13.408417415656348"><ele>528.3333333333334</ele><time>2026-04-18T08:15:45.999Z</time></trkpt><trkpt lat="42.92727168097232" lon="13.408487332261885"><ele>526.0</ele><time>2026-04-18T08:15:46.999Z</time></trkpt><trkpt lat="42.92709711881214" lon="13.408591626393122"><ele>526.0</ele><time>2026-04-18T08:15:47.999Z</time></trkpt><trkpt lat="42.92695080056276" lon="13.408704868782392"><ele>526.0</ele><time>2026-04-18T08:15:48.999Z</time></trkpt><trkpt lat="42.926784219249" lon="13.408831345436557"><ele>526.0</ele><time>2026-04-18T08:15:49.999Z</time></trkpt><trkpt lat="42.926615686150704" lon="13.408847896565913"><ele>525.3333333333334</ele><time>2026-04-18T08:15:50.999Z</time></trkpt><trkpt lat="42.926457611385615" lon="13.40878525270499"><ele>524.6666666666666</ele><time>2026-04-18T08:15:51.999Z</time></trkpt><trkpt lat="42.92632223756178" lon="13.408643890428664"><ele>524.0</ele><time>2026-04-18T08:15:52.999Z</time></trkpt><trkpt lat="42.926209264300326" lon="13.408458009518345"><ele>524.0</ele><time>2026-04-18T08:15:53.999Z</time></trkpt><trkpt lat="42.9261060162153" lon="13.40827548797963"><ele>524.0</ele><time>2026-04-18T08:15:54.999Z</time></trkpt><trkpt lat="42.92598323201926" lon="13.408126113477088"><ele>524.0</ele><time>2026-04-18T08:15:55.999Z</time></trkpt><trkpt lat="42.92584958758131" lon="13.408021542490419"><ele>526.8</ele><time>2026-04-18T08:15:56.999Z</time></trkpt><trkpt lat="42.925723240898456" lon="13.407948225654858"><ele>529.5999999999999</ele><time>2026-04-18T08:15:57.999Z</time></trkpt><trkpt lat="42.92560713108204" lon="13.407904362979362"><ele>532.4</ele><time>2026-04-18T08:15:58.999Z</time></trkpt><trkpt lat="42.92551154069677" lon="13.40788621037914"><ele>535.1999999999999</ele><time>2026-04-18T08:15:59.999Z</time></trkpt><trkpt lat="42.92543662555155" lon="13.407862652938247"><ele>538.0</ele><time>2026-04-18T08:16:00.999Z</time></trkpt><trkpt lat="42.925322420754284" lon="13.407833356594514"><ele>538.0</ele><time>2026-04-18T08:16:02.999Z</time></trkpt><trkpt lat="42.92519901868777" lon="13.407807414029714"><ele>538.0</ele><time>2026-04-18T08:16:04.999Z</time></trkpt><trkpt lat="42.92512201354377" lon="13.407791832341726"><ele>538.0</ele><time>2026-04-18T08:16:05.999Z</time></trkpt><trkpt lat="42.92503629308979" lon="13.407775111266544"><ele>538.0</ele><time>2026-04-18T08:16:06.998Z</time></trkpt><trkpt lat="42.92494273645718" lon="13.407758191898136"><ele>538.0</ele><time>2026-04-18T08:16:07.998Z</time></trkpt><trkpt lat="42.92484038599984" lon="13.40775343488597"><ele>534.75</ele><time>2026-04-18T08:16:08.998Z</time></trkpt><trkpt lat="42.92473884047885" lon="13.407714637137095"><ele>531.5</ele><time>2026-04-18T08:16:09.998Z</time></trkpt><trkpt lat="42.92462899526227" lon="13.407670075000395"><ele>528.25</ele><time>2026-04-18T08:16:10.998Z</time></trkpt><trkpt lat="42.92451277596228" lon="13.407625333916778"><ele>525.0</ele><time>2026-04-18T08:16:11.998Z</time></trkpt><trkpt lat="42.92439689328989" lon="13.407568203280112"><ele>525.0</ele><time>2026-04-18T08:16:12.998Z</time></trkpt><trkpt lat="42.924281328997274" lon="13.40750218370325"><ele>525.0</ele><time>2026-04-18T08:16:13.998Z</time></trkpt><trkpt lat="42.92416955956942" lon="13.407433348596816"><ele>525.0</ele><time>2026-04-18T08:16:14.998Z</time></trkpt><trkpt lat="42.92406276710759" lon="13.407368839955462"><ele>525.0</ele><time>2026-04-18T08:16:15.998Z</time></trkpt><trkpt lat="42.92395959502863" lon="13.407306832935573"><ele>526.6</ele><time>2026-04-18T08:16:16.998Z</time></trkpt><trkpt lat="42.923861444622986" lon="13.407248204069768"><ele>528.2</ele><time>2026-04-18T08:16:17.998Z</time></trkpt><trkpt lat="42.9237646886392" lon="13.40719077281833"><ele>529.8</ele><time>2026-04-18T08:16:18.998Z</time></trkpt><trkpt lat="42.92367265139238" lon="13.40713656570415"><ele>531.4</ele><time>2026-04-18T08:16:19.998Z</time></trkpt><trkpt lat="42.923587268078485" lon="13.407083919497913"><ele>533.0</ele><time>2026-04-18T08:16:20.998Z</time></trkpt><trkpt lat="42.92350408851852" lon="13.407042284338155"><ele>533.0</ele><time>2026-04-18T08:16:21.998Z</time></trkpt><trkpt lat="42.92342074771355" lon="13.407011902750934"><ele>533.0</ele><time>2026-04-18T08:16:23Z</time></trkpt><trkpt lat="42.92333759091102" lon="13.407013672247816"><ele>533.0</ele><time>2026-04-18T08:16:24Z</time></trkpt><trkpt lat="42.92326060493679" lon="13.407047191907273"><ele>533.0</ele><time>2026-04-18T08:16:25Z</time></trkpt><trkpt lat="42.92320228458987" lon="13.407127832407852"><ele>533.0</ele><time>2026-04-18T08:16:26Z</time></trkpt><trkpt lat="42.92317267815892" lon="13.407241409479528"><ele>533.0</ele><time>2026-04-18T08:16:27Z</time></trkpt><trkpt lat="42.92313370071736" lon="13.407361519986464"><ele>528.5</ele><time>2026-04-18T08:16:28Z</time></trkpt><trkpt lat="42.923101666094304" lon="13.407499988610232"><ele>524.0</ele><time>2026-04-18T08:16:29Z</time></trkpt><trkpt lat="42.92306386430084" lon="13.407639063142325"><ele>519.5</ele><time>2026-04-18T08:16:30Z</time></trkpt><trkpt lat="42.923023019282425" lon="13.407786775658103"><ele>515.0</ele><time>2026-04-18T08:16:31Z</time></trkpt><trkpt lat="42.92293273005001" lon="13.407900736087521"><ele>516.5</ele><time>2026-04-18T08:16:32Z</time></trkpt><trkpt lat="42.92284151640334" lon="13.40801752338673"><ele>518.0</ele><time>2026-04-18T08:16:33Z</time></trkpt><trkpt lat="42.922747252696105" lon="13.408139982320083"><ele>519.5</ele><time>2026-04-18T08:16:34Z</time></trkpt><trkpt lat="42.9226481496011" lon="13.40826770185809"><ele>521.0</ele><time>2026-04-18T08:16:35Z</time></trkpt><trkpt lat="42.92255436077528" lon="13.408411361161862"><ele>521.5</ele><time>2026-04-18T08:16:36Z</time></trkpt><trkpt lat="42.92244305552642" lon="13.408530927191126"><ele>522.0</ele><time>2026-04-18T08:16:37Z</time></trkpt><trkpt lat="42.9223171640906" lon="13.408636713092369"><ele>522.5</ele><time>2026-04-18T08:16:38Z</time></trkpt><trkpt lat="42.92217968054027" lon="13.408717879048528"><ele>523.0</ele><time>2026-04-18T08:16:39Z</time></trkpt><trkpt lat="42.92203500926994" lon="13.40876402369796"><ele>523.0</ele><time>2026-04-18T08:16:40Z</time></trkpt><trkpt lat="42.92188359618907" lon="13.408760736738019"><ele>523.0</ele><time>2026-04-18T08:16:41Z</time></trkpt><trkpt lat="42.92172917251855" lon="13.40868993241193"><ele>523.0</ele><time>2026-04-18T08:16:42Z</time></trkpt><trkpt lat="42.921581170187025" lon="13.408563739550342"><ele>524.3333333333334</ele><time>2026-04-18T08:16:43Z</time></trkpt><trkpt lat="42.921434320842785" lon="13.408427745668439"><ele>525.6666666666666</ele><time>2026-04-18T08:16:44Z</time></trkpt><trkpt lat="42.92129453254007" lon="13.408313556269709"><ele>527.0</ele><time>2026-04-18T08:16:45Z</time></trkpt><trkpt lat="42.92116295298322" lon="13.408206326251742"><ele>527.0</ele><time>2026-04-18T08:16:46Z</time></trkpt><trkpt lat="42.92103538508932" lon="13.408093966025636"><ele>527.0</ele><time>2026-04-18T08:16:47Z</time></trkpt><trkpt lat="42.92092577008422" lon="13.407974711882838"><ele>527.0</ele><time>2026-04-18T08:16:48Z</time></trkpt><trkpt lat="42.92083147676555" lon="13.407856295664898"><ele>527.0</ele><time>2026-04-18T08:16:49Z</time></trkpt><trkpt lat="42.92074632716139" lon="13.407763819382971"><ele>526.8000000000001</ele><time>2026-04-18T08:16:50Z</time></trkpt><trkpt lat="42.92066158138401" lon="13.40770907476469"><ele>526.6</ele><time>2026-04-18T08:16:51Z</time></trkpt><trkpt lat="42.920576285630936" lon="13.407709547463798"><ele>526.4000000000001</ele><time>2026-04-18T08:16:52Z</time></trkpt><trkpt lat="42.920507756633064" lon="13.40777892405369"><ele>526.2</ele><time>2026-04-18T08:16:53Z</time></trkpt><trkpt lat="42.92046119238139" lon="13.407878560145603"><ele>526.0</ele><time>2026-04-18T08:16:54Z</time></trkpt><trkpt lat="42.92048463527763" lon="13.40801632129713"><ele>526.25</ele><time>2026-04-18T08:16:55Z</time></trkpt><trkpt lat="42.92056536609856" lon="13.408131458810054"><ele>526.5</ele><time>2026-04-18T08:16:56Z</time></trkpt><trkpt lat="42.9206746001703" lon="13.408246206202834"><ele>526.75</ele><time>2026-04-18T08:16:57Z</time></trkpt><trkpt lat="42.920788642695655" lon="13.408389585609358"><ele>527.0</ele><time>2026-04-18T08:16:58Z</time></trkpt><trkpt lat="42.92091317707803" lon="13.408556045615082"><ele>527.0</ele><time>2026-04-18T08:16:59Z</time></trkpt><trkpt lat="42.92105296173857" lon="13.408741085734315"><ele>527.0</ele><time>2026-04-18T08:17:00Z</time></trkpt><trkpt lat="42.92120144992697" lon="13.408934693785334"><ele>527.0</ele><time>2026-04-18T08:17:01Z</time></trkpt><trkpt lat="42.92135653794633" lon="13.409136906832236"><ele>530.3333333333333</ele><time>2026-04-18T08:17:02Z</time></trkpt><trkpt lat="42.921502702341755" lon="13.409325523826164"><ele>533.6666666666666</ele><time>2026-04-18T08:17:03Z</time></trkpt><trkpt lat="42.92163397959322" lon="13.409483910292026"><ele>537.0</ele><time>2026-04-18T08:17:04Z</time></trkpt><trkpt lat="42.92176730945496" lon="13.409630246897908"><ele>540.2</ele><time>2026-04-18T08:17:05Z</time></trkpt><trkpt lat="42.92186810217801" lon="13.40975607065845"><ele>543.4000000000001</ele><time>2026-04-18T08:17:06Z</time></trkpt><trkpt lat="42.92191582449194" lon="13.409866494325302"><ele>546.5999999999999</ele><time>2026-04-18T08:17:07Z</time></trkpt><trkpt lat="42.92189674686489" lon="13.40996345675235"><ele>549.8</ele><time>2026-04-18T08:17:08Z</time></trkpt><trkpt lat="42.921828155523706" lon="13.410027321315903"><ele>553.0</ele><time>2026-04-18T08:17:09Z</time></trkpt><trkpt lat="42.921732267132704" lon="13.410020303436667"><ele>553.75</ele><time>2026-04-18T08:17:10Z</time></trkpt><trkpt lat="42.92164341222916" lon="13.409921151041875"><ele>554.5</ele><time>2026-04-18T08:17:11Z</time></trkpt><trkpt lat="42.92152489059401" lon="13.409828783812364"><ele>555.25</ele><time>2026-04-18T08:17:12Z</time></trkpt><trkpt lat="42.921390057822705" lon="13.409707209983154"><ele>556.0</ele><time>2026-04-18T08:17:13Z</time></trkpt><trkpt lat="42.92123034529716" lon="13.409578621034571"><ele>555.3333333333334</ele><time>2026-04-18T08:17:14Z</time></trkpt><trkpt lat="42.92104833575668" lon="13.409444289727212"><ele>554.6666666666666</ele><time>2026-04-18T08:17:15Z</time></trkpt><trkpt lat="42.92085328414688" lon="13.409309117802364"><ele>554.0</ele><time>2026-04-18T08:17:15.999Z</time></trkpt><trkpt lat="42.9206580314227" lon="13.409148876748242"><ele>554.0</ele><time>2026-04-18T08:17:16.999Z</time></trkpt><trkpt lat="42.92047789431226" lon="13.40894834844561"><ele>554.0</ele><time>2026-04-18T08:17:17.999Z</time></trkpt><trkpt lat="42.92031570037005" lon="13.408762939350336"><ele>554.0</ele><time>2026-04-18T08:17:18.999Z</time></trkpt><trkpt lat="42.92014366722727" lon="13.40862734647267"><ele>553.0</ele><time>2026-04-18T08:17:19.999Z</time></trkpt><trkpt lat="42.919974712633675" lon="13.408563554355988"><ele>552.0</ele><time>2026-04-18T08:17:20.999Z</time></trkpt><trkpt lat="42.91981391121924" lon="13.408568712516436"><ele>551.0</ele><time>2026-04-18T08:17:21.999Z</time></trkpt><trkpt lat="42.91968644518303" lon="13.408642190155623"><ele>551.0</ele><time>2026-04-18T08:17:22.999Z</time></trkpt><trkpt lat="42.919568020650765" lon="13.408792517464194"><ele>551.0</ele><time>2026-04-18T08:17:23.999Z</time></trkpt><trkpt lat="42.9194715793741" lon="13.409008039182364"><ele>551.0</ele><time>2026-04-18T08:17:24.999Z</time></trkpt><trkpt lat="42.91939197690367" lon="13.409269563916867"><ele>559.5</ele><time>2026-04-18T08:17:25.999Z</time></trkpt><trkpt lat="42.91930766709238" lon="13.409551628931926"><ele>568.0</ele><time>2026-04-18T08:17:26.999Z</time></trkpt><trkpt lat="42.91920013286221" lon="13.409832783956453"><ele>570.5</ele><time>2026-04-18T08:17:27.999Z</time></trkpt><trkpt lat="42.91906072676713" lon="13.410097111189591"><ele>573.0</ele><time>2026-04-18T08:17:28.999Z</time></trkpt><trkpt lat="42.918932320279495" lon="13.4103763231542"><ele>583.0</ele><time>2026-04-18T08:17:29.999Z</time></trkpt><trkpt lat="42.91881058479255" lon="13.410678339487713"><ele>593.0</ele><time>2026-04-18T08:17:30.999Z</time></trkpt><trkpt lat="42.91867139429358" lon="13.410982913635936"><ele>593.0</ele><time>2026-04-18T08:17:31.999Z</time></trkpt><trkpt lat="42.91851431932957" lon="13.411281733716587"><ele>593.0</ele><time>2026-04-18T08:17:32.999Z</time></trkpt><trkpt lat="42.91838517510061" lon="13.41160279754234"><ele>596.0</ele><time>2026-04-18T08:17:33.999Z</time></trkpt><trkpt lat="42.91824075625166" lon="13.411898916441487"><ele>599.0</ele><time>2026-04-18T08:17:34.999Z</time></trkpt><trkpt lat="42.9181118058844" lon="13.412167202209673"><ele>599.0</ele><time>2026-04-18T08:17:35.999Z</time></trkpt><trkpt lat="42.91799664068909" lon="13.412417973419243"><ele>599.0</ele><time>2026-04-18T08:17:36.999Z</time></trkpt><trkpt lat="42.917905321956546" lon="13.412641857722228"><ele>599.0</ele><time>2026-04-18T08:17:37.999Z</time></trkpt><trkpt lat="42.91785281945231" lon="13.41287123576046"><ele>599.6666666666666</ele><time>2026-04-18T08:17:38.999Z</time></trkpt><trkpt lat="42.91785605856187" lon="13.413124803898477"><ele>600.3333333333334</ele><time>2026-04-18T08:17:39.999Z</time></trkpt><trkpt lat="42.91790837240538" lon="13.41337564317919"><ele>601.0</ele><time>2026-04-18T08:17:40.999Z</time></trkpt><trkpt lat="42.91799035191876" lon="13.413561274682309"><ele>601.0</ele><time>2026-04-18T08:17:41.999Z</time></trkpt><trkpt lat="42.91814985326463" lon="13.413774700961214"><ele>601.0</ele><time>2026-04-18T08:17:42.999Z</time></trkpt><trkpt lat="42.918315170864346" lon="13.41397735879159"><ele>601.0</ele><time>2026-04-18T08:17:43.999Z</time></trkpt><trkpt lat="42.9184625612104" lon="13.414180919389137"><ele>607.3333333333334</ele><time>2026-04-18T08:17:44.999Z</time></trkpt><trkpt lat="42.91859549827163" lon="13.41436571296999"><ele>613.6666666666666</ele><time>2026-04-18T08:17:45.999Z</time></trkpt><trkpt lat="42.918695364065265" lon="13.414509772035563"><ele>620.0</ele><time>2026-04-18T08:17:46.999Z</time></trkpt><trkpt lat="42.91876556269663" lon="13.414649581354094"><ele>618.25</ele><time>2026-04-18T08:17:47.999Z</time></trkpt><trkpt lat="42.91876787320891" lon="13.41481024801341"><ele>616.5</ele><time>2026-04-18T08:17:48.999Z</time></trkpt><trkpt lat="42.91869910851918" lon="13.414935055221635"><ele>614.75</ele><time>2026-04-18T08:17:49.999Z</time></trkpt><trkpt lat="42.9185716858782" lon="13.41500653382092"><ele>613.0</ele><time>2026-04-18T08:17:50.999Z</time></trkpt><trkpt lat="42.91842530874199" lon="13.41504265375255"><ele>606.3333333333334</ele><time>2026-04-18T08:17:51.999Z</time></trkpt><trkpt lat="42.91826607664848" lon="13.415099590228722"><ele>599.6666666666666</ele><time>2026-04-18T08:17:52.999Z</time></trkpt><trkpt lat="42.918091387242725" lon="13.415128792403532"><ele>593.0</ele><time>2026-04-18T08:17:53.999Z</time></trkpt><trkpt lat="42.91793625040173" lon="13.415204375673758"><ele>593.0</ele><time>2026-04-18T08:17:54.999Z</time></trkpt><trkpt lat="42.91780125838839" lon="13.415317046567083"><ele>593.0</ele><time>2026-04-18T08:17:55.999Z</time></trkpt><trkpt lat="42.91769753487297" lon="13.415500840553127"><ele>593.0</ele><time>2026-04-18T08:17:56.999Z</time></trkpt><trkpt lat="42.91762876422086" lon="13.415734730679432"><ele>593.0</ele><time>2026-04-18T08:17:57.999Z</time></trkpt><trkpt lat="42.91757530956252" lon="13.41597722309203"><ele>593.0</ele><time>2026-04-18T08:17:58.999Z</time></trkpt><trkpt lat="42.91753084317948" lon="13.416212610955736"><ele>593.0</ele><time>2026-04-18T08:17:59.999Z</time></trkpt><trkpt lat="42.917427362551436" lon="13.416366473889573"><ele>596.6666666666666</ele><time>2026-04-18T08:18:00.999Z</time></trkpt><trkpt lat="42.917312156088876" lon="13.416501821340075"><ele>600.3333333333334</ele><time>2026-04-18T08:18:01.999Z</time></trkpt><trkpt lat="42.91717689762992" lon="13.416626896225756"><ele>604.0</ele><time>2026-04-18T08:18:02.999Z</time></trkpt><trkpt lat="42.91700314060335" lon="13.416658000802073"><ele>604.0</ele><time>2026-04-18T08:18:03.999Z</time></trkpt><trkpt lat="42.91683474357623" lon="13.416702126215597"><ele>604.0</ele><time>2026-04-18T08:18:04.999Z</time></trkpt><trkpt lat="42.91668036577256" lon="13.416771608200964"><ele>604.0</ele><time>2026-04-18T08:18:05.999Z</time></trkpt><trkpt lat="42.91650205115708" lon="13.416726525529496"><ele>601.0</ele><time>2026-04-18T08:18:06.999Z</time></trkpt><trkpt lat="42.916424722918485" lon="13.41700610454735"><ele>598.0</ele><time>2026-04-18T08:18:07.999Z</time></trkpt><trkpt lat="42.9163333329814" lon="13.417180087381745"><ele>595.0</ele><time>2026-04-18T08:18:08.999Z</time></trkpt><trkpt lat="42.91626246989129" lon="13.417358911839514"><ele>601.0</ele><time>2026-04-18T08:18:09.999Z</time></trkpt><trkpt lat="42.91620789181919" lon="13.417550544784214"><ele>607.0</ele><time>2026-04-18T08:18:10.999Z</time></trkpt><trkpt lat="42.916145900552294" lon="13.417740648505157"><ele>613.0</ele><time>2026-04-18T08:18:11.999Z</time></trkpt><trkpt lat="42.91606418226448" lon="13.417915416323115"><ele>609.0</ele><time>2026-04-18T08:18:12.999Z</time></trkpt><trkpt lat="42.91596142850069" lon="13.418067157506313"><ele>605.0</ele><time>2026-04-18T08:18:13.999Z</time></trkpt><trkpt lat="42.91582415215423" lon="13.41817346089051"><ele>601.0</ele><time>2026-04-18T08:18:14.999Z</time></trkpt><trkpt lat="42.915689247990606" lon="13.418273195168778"><ele>601.0</ele><time>2026-04-18T08:18:15.999Z</time></trkpt><trkpt lat="42.91555628737674" lon="13.418384254416795"><ele>601.0</ele><time>2026-04-18T08:18:16.999Z</time></trkpt><trkpt lat="42.91541144398612" lon="13.418480163618844"><ele>601.0</ele><time>2026-04-18T08:18:17.999Z</time></trkpt><trkpt lat="42.91527090118183" lon="13.418575838769167"><ele>601.0</ele><time>2026-04-18T08:18:18.999Z</time></trkpt><trkpt lat="42.915123922819326" lon="13.418667792344582"><ele>601.0</ele><time>2026-04-18T08:18:19.999Z</time></trkpt><trkpt lat="42.914974831354684" lon="13.41874928152898"><ele>601.0</ele><time>2026-04-18T08:18:20.999Z</time></trkpt><trkpt lat="42.914823759655434" lon="13.418820885819493"><ele>601.3333333333334</ele><time>2026-04-18T08:18:21.999Z</time></trkpt><trkpt lat="42.91465902460607" lon="13.418881329114756"><ele>601.6666666666666</ele><time>2026-04-18T08:18:22.999Z</time></trkpt><trkpt lat="42.91449238086906" lon="13.418951456229157"><ele>602.0</ele><time>2026-04-18T08:18:23.999Z</time></trkpt><trkpt lat="42.914330053854016" lon="13.419016101810074"><ele>615.6666666666666</ele><time>2026-04-18T08:18:24.999Z</time></trkpt><trkpt lat="42.91416587434897" lon="13.419079593509649"><ele>629.3333333333334</ele><time>2026-04-18T08:18:25.999Z</time></trkpt><trkpt lat="42.914002607862905" lon="13.419140236673394"><ele>643.0</ele><time>2026-04-18T08:18:26.999Z</time></trkpt><trkpt lat="42.913830185011186" lon="13.419204280674718"><ele>643.0</ele><time>2026-04-18T08:18:28.043Z</time></trkpt><trkpt lat="42.913664814908095" lon="13.419265705105824"><ele>643.0</ele><time>2026-04-18T08:18:29.041Z</time></trkpt><trkpt lat="42.913497923646936" lon="13.419327696240021"><ele>643.0</ele><time>2026-04-18T08:18:30.04Z</time></trkpt><trkpt lat="42.91333097887047" lon="13.419389705528713"><ele>661.0</ele><time>2026-04-18T08:18:31.036Z</time></trkpt><trkpt lat="42.91180596329117" lon="13.41997955091444"><ele>661.0</ele><time>2026-04-18T08:18:34.556Z</time></trkpt><trkpt lat="42.91137223580087" lon="13.420140275720271"><ele>661.0</ele><time>2026-04-18T08:18:35.555Z</time></trkpt><trkpt lat="42.910936963606076" lon="13.420301572941586"><ele>678.5</ele><time>2026-04-18T08:18:36.557Z</time></trkpt><trkpt lat="42.910503436697134" lon="13.420463510822229"><ele>696.0</ele><time>2026-04-18T08:18:37.556Z</time></trkpt><trkpt lat="42.910071133872975" lon="13.420625180577058"><ele>696.0</ele><time>2026-04-18T08:18:38.552Z</time></trkpt><trkpt lat="42.90963559648192" lon="13.420786573278027"><ele>720.0</ele><time>2026-04-18T08:18:39.555Z</time></trkpt><trkpt lat="42.90920099961074" lon="13.420947749384306"><ele>720.0</ele><time>2026-04-18T08:18:40.556Z</time></trkpt><trkpt lat="42.908887" lon="13.4210653"><ele>720.0</ele><time>2026-04-18T08:18:41.556Z</time></trkpt><trkpt lat="42.90065592972426" lon="13.423830992033135"><ele>668.3333333333334</ele><time>2026-04-18T08:19:40.998Z</time></trkpt><trkpt lat="42.900468428118316" lon="13.423868845411276"><ele>616.6666666666667</ele><time>2026-04-18T08:19:41.998Z</time></trkpt><trkpt lat="42.90025979449129" lon="13.423906815030241"><ele>565.0</ele><time>2026-04-18T08:19:42.998Z</time></trkpt><trkpt lat="42.900067505039075" lon="13.423962929911305"><ele>562.3333333333334</ele><time>2026-04-18T08:19:43.998Z</time></trkpt><trkpt lat="42.89986875449115" lon="13.424024531913048"><ele>559.6666666666666</ele><time>2026-04-18T08:19:44.998Z</time></trkpt><trkpt lat="42.899668731921565" lon="13.424083406802833"><ele>557.0</ele><time>2026-04-18T08:19:45.998Z</time></trkpt><trkpt lat="42.89946967907642" lon="13.424138764410788"><ele>557.0</ele><time>2026-04-18T08:19:47.001Z</time></trkpt><trkpt lat="42.89926914352177" lon="13.424199936322545"><ele>557.0</ele><time>2026-04-18T08:19:48.001Z</time></trkpt><trkpt lat="42.89906594443712" lon="13.424271648404716"><ele>557.0</ele><time>2026-04-18T08:19:49.001Z</time></trkpt><trkpt lat="42.89886682735353" lon="13.424335296574608"><ele>556.0</ele><time>2026-04-18T08:19:50.001Z</time></trkpt><trkpt lat="42.89866565986442" lon="13.424414091405863"><ele>555.0</ele><time>2026-04-18T08:19:51.001Z</time></trkpt><trkpt lat="42.8984666971991" lon="13.424489989772182"><ele>554.0</ele><time>2026-04-18T08:19:52.001Z</time></trkpt><trkpt lat="42.89826654419145" lon="13.42457409071095"><ele>555.0</ele><time>2026-04-18T08:19:53.001Z</time></trkpt><trkpt lat="42.89807313732841" lon="13.424660057711913"><ele>556.0</ele><time>2026-04-18T08:19:54.001Z</time></trkpt><trkpt lat="42.89787716586878" lon="13.42474694137915"><ele>557.0</ele><time>2026-04-18T08:19:55.001Z</time></trkpt><trkpt lat="42.89768284575297" lon="13.424838113745302"><ele>552.0</ele><time>2026-04-18T08:19:56.001Z</time></trkpt><trkpt lat="42.89748669520832" lon="13.424938385767634"><ele>547.0</ele><time>2026-04-18T08:19:57.001Z</time></trkpt><trkpt lat="42.89729678437665" lon="13.425037837301653"><ele>542.0</ele><time>2026-04-18T08:19:58.001Z</time></trkpt><trkpt lat="42.8971038774797" lon="13.425141742351482"><ele>542.0</ele><time>2026-04-18T08:19:59.001Z</time></trkpt><trkpt lat="42.89691013058493" lon="13.425247217353885"><ele>542.0</ele><time>2026-04-18T08:20:00.001Z</time></trkpt><trkpt lat="42.89671656864393" lon="13.425362770121529"><ele>542.0</ele><time>2026-04-18T08:20:01.001Z</time></trkpt><trkpt lat="42.89652186108219" lon="13.425483755956442"><ele>539.0</ele><time>2026-04-18T08:20:02.001Z</time></trkpt><trkpt lat="42.89633235449004" lon="13.425602596956338"><ele>536.0</ele><time>2026-04-18T08:20:03.001Z</time></trkpt><trkpt lat="42.89614181651379" lon="13.42572309646799"><ele>533.0</ele><time>2026-04-18T08:20:04.001Z</time></trkpt><trkpt lat="42.89595327628228" lon="13.425845196205785"><ele>530.6666666666666</ele><time>2026-04-18T08:20:05.001Z</time></trkpt><trkpt lat="42.895764924019254" lon="13.425969330209881"><ele>528.3333333333334</ele><time>2026-04-18T08:20:06.001Z</time></trkpt><trkpt lat="42.89557299430011" lon="13.426090647838551"><ele>526.0</ele><time>2026-04-18T08:20:07.001Z</time></trkpt><trkpt lat="42.89538247067835" lon="13.42621268097144"><ele>525.0</ele><time>2026-04-18T08:20:08.001Z</time></trkpt><trkpt lat="42.89519167493989" lon="13.426336860444446"><ele>524.0</ele><time>2026-04-18T08:20:09.001Z</time></trkpt><trkpt lat="42.89500066834367" lon="13.426458745628205"><ele>523.0</ele><time>2026-04-18T08:20:10.001Z</time></trkpt><trkpt lat="42.894802621634895" lon="13.426588414658008"><ele>523.0</ele><time>2026-04-18T08:20:11.001Z</time></trkpt><trkpt lat="42.89461154745668" lon="13.426710982734061"><ele>523.0</ele><time>2026-04-18T08:20:12.001Z</time></trkpt><trkpt lat="42.89442105165516" lon="13.426833637842355"><ele>523.0</ele><time>2026-04-18T08:20:13.001Z</time></trkpt><trkpt lat="42.89422673608606" lon="13.426966191211449"><ele>522.6666666666667</ele><time>2026-04-18T08:20:14.001Z</time></trkpt><trkpt lat="42.89403201022875" lon="13.427097092353566"><ele>522.3333333333334</ele><time>2026-04-18T08:20:15Z</time></trkpt><trkpt lat="42.89383542582117" lon="13.42722198302209"><ele>522.0</ele><time>2026-04-18T08:20:16Z</time></trkpt><trkpt lat="42.89363847251817" lon="13.427345191078288"><ele>522.0</ele><time>2026-04-18T08:20:17Z</time></trkpt><trkpt lat="42.89344206425357" lon="13.4274689942032"><ele>522.0</ele><time>2026-04-18T08:20:18Z</time></trkpt><trkpt lat="42.89324642879622" lon="13.427596904394187"><ele>522.0</ele><time>2026-04-18T08:20:19Z</time></trkpt><trkpt lat="42.893048859430856" lon="13.42772887228534"><ele>520.3333333333334</ele><time>2026-04-18T08:20:20Z</time></trkpt><trkpt lat="42.892853039082596" lon="13.427857257635573"><ele>518.6666666666667</ele><time>2026-04-18T08:20:21Z</time></trkpt><trkpt lat="42.89265134229869" lon="13.42798264743558"><ele>517.0</ele><time>2026-04-18T08:20:22Z</time></trkpt><trkpt lat="42.89245020569363" lon="13.428105641647093"><ele>513.6666666666667</ele><time>2026-04-18T08:20:23Z</time></trkpt><trkpt lat="42.89224507336963" lon="13.428225650142751"><ele>510.33333333333337</ele><time>2026-04-18T08:20:24Z</time></trkpt><trkpt lat="42.89203775642989" lon="13.428335467962281"><ele>507.0</ele><time>2026-04-18T08:20:25Z</time></trkpt><trkpt lat="42.89183115359116" lon="13.428434245329916"><ele>503.0</ele><time>2026-04-18T08:20:26Z</time></trkpt><trkpt lat="42.89161766152718" lon="13.428528846213387"><ele>499.0</ele><time>2026-04-18T08:20:27Z</time></trkpt><trkpt lat="42.89139591429523" lon="13.428605377082816"><ele>499.0</ele><time>2026-04-18T08:20:28Z</time></trkpt><trkpt lat="42.891174270159766" lon="13.428648388616628"><ele>499.0</ele><time>2026-04-18T08:20:29Z</time></trkpt><trkpt lat="42.890949362869726" lon="13.42866751925823"><ele>499.0</ele><time>2026-04-18T08:20:30Z</time></trkpt><trkpt lat="42.890728148030895" lon="13.428673480355263"><ele>495.6666666666667</ele><time>2026-04-18T08:20:31Z</time></trkpt><trkpt lat="42.89050341624348" lon="13.428659359558537"><ele>492.33333333333337</ele><time>2026-04-18T08:20:32Z</time></trkpt><trkpt lat="42.89028267633945" lon="13.42863049790852"><ele>489.0</ele><time>2026-04-18T08:20:33Z</time></trkpt><trkpt lat="42.890061339511064" lon="13.428585985674045"><ele>488.33333333333337</ele><time>2026-04-18T08:20:34Z</time></trkpt><trkpt lat="42.88984463316089" lon="13.428529927648118"><ele>487.6666666666667</ele><time>2026-04-18T08:20:35Z</time></trkpt><trkpt lat="42.889626350362064" lon="13.428468805134484"><ele>487.0</ele><time>2026-04-18T08:20:36Z</time></trkpt><trkpt lat="42.889406174010766" lon="13.428405284847834"><ele>486.0</ele><time>2026-04-18T08:20:37Z</time></trkpt><trkpt lat="42.88919165123252" lon="13.428341365306265"><ele>485.0</ele><time>2026-04-18T08:20:38Z</time></trkpt><trkpt lat="42.888977136742085" lon="13.428273443115069"><ele>484.0</ele><time>2026-04-18T08:20:39Z</time></trkpt><trkpt lat="42.888761597418444" lon="13.428204115449097"><ele>484.0</ele><time>2026-04-18T08:20:40Z</time></trkpt><trkpt lat="42.88854499299228" lon="13.428139522739313"><ele>484.0</ele><time>2026-04-18T08:20:41Z</time></trkpt><trkpt lat="42.888329770745635" lon="13.428078769088636"><ele>484.0</ele><time>2026-04-18T08:20:42Z</time></trkpt><trkpt lat="42.88811421480195" lon="13.428016110219179"><ele>483.33333333333337</ele><time>2026-04-18T08:20:43Z</time></trkpt><trkpt lat="42.88790102233945" lon="13.42794971169231"><ele>482.66666666666663</ele><time>2026-04-18T08:20:44Z</time></trkpt><trkpt lat="42.88768771253828" lon="13.427883947631281"><ele>482.0</ele><time>2026-04-18T08:20:45Z</time></trkpt><trkpt lat="42.887471805992476" lon="13.427817881727046"><ele>481.0</ele><time>2026-04-18T08:20:46Z</time></trkpt><trkpt lat="42.887256323767204" lon="13.427752357843708"><ele>480.0</ele><time>2026-04-18T08:20:47Z</time></trkpt><trkpt lat="42.88703892003492" lon="13.427686968704295"><ele>479.0</ele><time>2026-04-18T08:20:48Z</time></trkpt><trkpt lat="42.88682193275225" lon="13.427623051380555"><ele>476.3333333333333</ele><time>2026-04-18T08:20:49Z</time></trkpt><trkpt lat="42.88660874022033" lon="13.42755817468864"><ele>473.66666666666663</ele><time>2026-04-18T08:20:50Z</time></trkpt><trkpt lat="42.88639498730062" lon="13.427492826533232"><ele>471.0</ele><time>2026-04-18T08:20:51Z</time></trkpt><trkpt lat="42.88618226675531" lon="13.427429554417126"><ele>471.0</ele><time>2026-04-18T08:20:52Z</time></trkpt><trkpt lat="42.885967472804175" lon="13.427366077849701"><ele>471.0</ele><time>2026-04-18T08:20:53Z</time></trkpt><trkpt lat="42.88575515070303" lon="13.427308101449764"><ele>471.0</ele><time>2026-04-18T08:20:54Z</time></trkpt><trkpt lat="42.88554139566993" lon="13.427256661992898"><ele>468.66666666666663</ele><time>2026-04-18T08:20:55Z</time></trkpt><trkpt lat="42.8853299093914" lon="13.42721148942908"><ele>466.3333333333333</ele><time>2026-04-18T08:20:56Z</time></trkpt><trkpt lat="42.885119507863195" lon="13.427171898986726"><ele>464.0</ele><time>2026-04-18T08:20:57Z</time></trkpt><trkpt lat="42.88490739006648" lon="13.42713881164747"><ele>462.0</ele><time>2026-04-18T08:20:58Z</time></trkpt><trkpt lat="42.884695229878" lon="13.427119804269015"><ele>460.0</ele><time>2026-04-18T08:20:59Z</time></trkpt><trkpt lat="42.8844832773992" lon="13.42711076952092"><ele>458.0</ele><time>2026-04-18T08:21:00Z</time></trkpt><trkpt lat="42.88427443564872" lon="13.427114801502993"><ele>456.0</ele><time>2026-04-18T08:21:01Z</time></trkpt><trkpt lat="42.88406149282978" lon="13.427127045429907"><ele>454.0</ele><time>2026-04-18T08:21:02Z</time></trkpt><trkpt lat="42.88385093259817" lon="13.427152637292291"><ele>452.0</ele><time>2026-04-18T08:21:03Z</time></trkpt><trkpt lat="42.88363752558065" lon="13.427191075832729"><ele>451.3333333333333</ele><time>2026-04-18T08:21:04Z</time></trkpt><trkpt lat="42.88342852547279" lon="13.427243605599676"><ele>450.66666666666663</ele><time>2026-04-18T08:21:05Z</time></trkpt><trkpt lat="42.88321482202374" lon="13.427303010954388"><ele>450.0</ele><time>2026-04-18T08:21:06Z</time></trkpt><trkpt lat="42.88301350135524" lon="13.427365537402075"><ele>450.0</ele><time>2026-04-18T08:21:07Z</time></trkpt><trkpt lat="42.882811961356964" lon="13.427438989751739"><ele>450.0</ele><time>2026-04-18T08:21:08Z</time></trkpt><trkpt lat="42.8826113088489" lon="13.427524291391386"><ele>450.0</ele><time>2026-04-18T08:21:09Z</time></trkpt><trkpt lat="42.88241470954678" lon="13.427627579844135"><ele>450.33333333333337</ele><time>2026-04-18T08:21:10Z</time></trkpt><trkpt lat="42.88222040288421" lon="13.427736921166785"><ele>450.6666666666667</ele><time>2026-04-18T08:21:11Z</time></trkpt><trkpt lat="42.88202537992016" lon="13.427853219958182"><ele>451.0</ele><time>2026-04-18T08:21:12Z</time></trkpt><trkpt lat="42.88183274696605" lon="13.427969478460877"><ele>448.33333333333337</ele><time>2026-04-18T08:21:13Z</time></trkpt><trkpt lat="42.881637292797066" lon="13.428087135649196"><ele>445.66666666666663</ele><time>2026-04-18T08:21:14Z</time></trkpt><trkpt lat="42.88144313558734" lon="13.428206725277155"><ele>443.0</ele><time>2026-04-18T08:21:15Z</time></trkpt><trkpt lat="42.88124965697106" lon="13.428328323218526"><ele>443.0</ele><time>2026-04-18T08:21:16Z</time></trkpt><trkpt lat="42.88105561513766" lon="13.428450180385047"><ele>443.0</ele><time>2026-04-18T08:21:17Z</time></trkpt><trkpt lat="42.880857495856915" lon="13.428567702005273"><ele>443.0</ele><time>2026-04-18T08:21:18Z</time></trkpt><trkpt lat="42.88066237341071" lon="13.428681961453458"><ele>441.66666666666663</ele><time>2026-04-18T08:21:19Z</time></trkpt><trkpt lat="42.88046783498288" lon="13.428798841119743"><ele>440.33333333333337</ele><time>2026-04-18T08:21:20Z</time></trkpt><trkpt lat="42.88027778673213" lon="13.42891777995177"><ele>439.0</ele><time>2026-04-18T08:21:21Z</time></trkpt><trkpt lat="42.88009086895492" lon="13.429039061232304"><ele>437.0</ele><time>2026-04-18T08:21:22Z</time></trkpt><trkpt lat="42.8798984463916" lon="13.429159118355138"><ele>435.0</ele><time>2026-04-18T08:21:23Z</time></trkpt><trkpt lat="42.879705525675575" lon="13.429275360429997"><ele>433.0</ele><time>2026-04-18T08:21:24Z</time></trkpt><trkpt lat="42.879515158280775" lon="13.42939117981376"><ele>433.0</ele><time>2026-04-18T08:21:25Z</time></trkpt><trkpt lat="42.879327009897764" lon="13.429508230232058"><ele>433.0</ele><time>2026-04-18T08:21:26Z</time></trkpt><trkpt lat="42.87913425934183" lon="13.429626309661717"><ele>433.0</ele><time>2026-04-18T08:21:26.999Z</time></trkpt><trkpt lat="42.87894351741398" lon="13.42973982271191"><ele>432.0</ele><time>2026-04-18T08:21:27.999Z</time></trkpt><trkpt lat="42.87875419632195" lon="13.429859113358152"><ele>431.0</ele><time>2026-04-18T08:21:28.999Z</time></trkpt><trkpt lat="42.8785733848359" lon="13.429982235494355"><ele>430.0</ele><time>2026-04-18T08:21:29.999Z</time></trkpt><trkpt lat="42.87839145627956" lon="13.430120776334824"><ele>430.0</ele><time>2026-04-18T08:21:30.999Z</time></trkpt><trkpt lat="42.87821978509563" lon="13.430270761845126"><ele>430.0</ele><time>2026-04-18T08:21:31.999Z</time></trkpt><trkpt lat="42.878055117938324" lon="13.430431801105184"><ele>430.0</ele><time>2026-04-18T08:21:32.999Z</time></trkpt><trkpt lat="42.877896329633664" lon="13.430603562187418"><ele>432.0</ele><time>2026-04-18T08:21:33.999Z</time></trkpt><trkpt lat="42.877747022868185" lon="13.430777517187174"><ele>434.0</ele><time>2026-04-18T08:21:34.999Z</time></trkpt><trkpt lat="42.87759942208857" lon="13.430965231536918"><ele>436.0</ele><time>2026-04-18T08:21:35.999Z</time></trkpt><trkpt lat="42.877462644346515" lon="13.431159197962069"><ele>430.33333333333337</ele><time>2026-04-18T08:21:36.999Z</time></trkpt><trkpt lat="42.877333016500906" lon="13.431366902339583"><ele>424.66666666666663</ele><time>2026-04-18T08:21:37.999Z</time></trkpt><trkpt lat="42.877212136021996" lon="13.431584307087059"><ele>419.0</ele><time>2026-04-18T08:21:38.999Z</time></trkpt><trkpt lat="42.87709894894779" lon="13.431804939765447"><ele>419.0</ele><time>2026-04-18T08:21:39.999Z</time></trkpt><trkpt lat="42.87699337178553" lon="13.432038111332348"><ele>419.0</ele><time>2026-04-18T08:21:40.999Z</time></trkpt><trkpt lat="42.87690156454009" lon="13.43228045882534"><ele>419.0</ele><time>2026-04-18T08:21:41.999Z</time></trkpt><trkpt lat="42.876815880340914" lon="13.432530628155318"><ele>419.66666666666663</ele><time>2026-04-18T08:21:42.999Z</time></trkpt><trkpt lat="42.87673770368053" lon="13.43278354109554"><ele>420.33333333333337</ele><time>2026-04-18T08:21:43.999Z</time></trkpt><trkpt lat="42.876667107916624" lon="13.433043039775445"><ele>421.0</ele><time>2026-04-18T08:21:44.999Z</time></trkpt><trkpt lat="42.87660627030524" lon="13.43330287339946"><ele>421.0</ele><time>2026-04-18T08:21:45.999Z</time></trkpt><trkpt lat="42.87655813542933" lon="13.43357733284864"><ele>421.0</ele><time>2026-04-18T08:21:46.999Z</time></trkpt><trkpt lat="42.87652679094618" lon="13.433853671153864"><ele>421.0</ele><time>2026-04-18T08:21:47.999Z</time></trkpt><trkpt lat="42.87647308780386" lon="13.434122327390668"><ele>418.6666666666667</ele><time>2026-04-18T08:21:48.999Z</time></trkpt><trkpt lat="42.87644185920132" lon="13.434392423755202"><ele>416.33333333333337</ele><time>2026-04-18T08:21:49.999Z</time></trkpt><trkpt lat="42.876412886660724" lon="13.434658462998469"><ele>414.0</ele><time>2026-04-18T08:21:50.999Z</time></trkpt><trkpt lat="42.876384285733806" lon="13.434921089862053"><ele>414.0</ele><time>2026-04-18T08:21:52.001Z</time></trkpt><trkpt lat="42.876372488840154" lon="13.435188176465303"><ele>414.0</ele><time>2026-04-18T08:21:53.001Z</time></trkpt><trkpt lat="42.876346347148136" lon="13.435446558730854"><ele>414.0</ele><time>2026-04-18T08:21:54.001Z</time></trkpt><trkpt lat="42.87632991142465" lon="13.435706104164014"><ele>411.66666666666663</ele><time>2026-04-18T08:21:55.001Z</time></trkpt><trkpt lat="42.87631826356868" lon="13.435961480822334"><ele>409.3333333333333</ele><time>2026-04-18T08:21:56.001Z</time></trkpt><trkpt lat="42.87631147270505" lon="13.436217747952718"><ele>407.0</ele><time>2026-04-18T08:21:57.001Z</time></trkpt><trkpt lat="42.87629149019006" lon="13.436475255957255"><ele>406.0</ele><time>2026-04-18T08:21:58.001Z</time></trkpt><trkpt lat="42.87628560855918" lon="13.436735090671984"><ele>405.0</ele><time>2026-04-18T08:21:59.001Z</time></trkpt><trkpt lat="42.876281699074674" lon="13.436991955904356"><ele>404.0</ele><time>2026-04-18T08:22:00.001Z</time></trkpt><trkpt lat="42.876277748326636" lon="13.43725153230908"><ele>404.3333333333333</ele><time>2026-04-18T08:22:01.001Z</time></trkpt><trkpt lat="42.87627373884627" lon="13.437504142090658"><ele>404.66666666666663</ele><time>2026-04-18T08:22:02.001Z</time></trkpt><trkpt lat="42.87626927554988" lon="13.437749714395842"><ele>405.0</ele><time>2026-04-18T08:22:03.001Z</time></trkpt><trkpt lat="42.876276408969815" lon="13.438005337181307"><ele>405.0</ele><time>2026-04-18T08:22:04.001Z</time></trkpt><trkpt lat="42.87627146205243" lon="13.438247306831181"><ele>405.0</ele><time>2026-04-18T08:22:05.001Z</time></trkpt><trkpt lat="42.87626714096235" lon="13.438485950998798"><ele>405.0</ele><time>2026-04-18T08:22:06.001Z</time></trkpt><trkpt lat="42.87626115916914" lon="13.43871139231139"><ele>409.0</ele><time>2026-04-18T08:22:07.001Z</time></trkpt><trkpt lat="42.87625164519103" lon="13.438943278134595"><ele>413.0</ele><time>2026-04-18T08:22:08.001Z</time></trkpt><trkpt lat="42.876232970595275" lon="13.439177907165123"><ele>417.0</ele><time>2026-04-18T08:22:09.001Z</time></trkpt><trkpt lat="42.87620750678961" lon="13.439419783093891"><ele>424.33333333333337</ele><time>2026-04-18T08:22:10.001Z</time></trkpt><trkpt lat="42.876178889190896" lon="13.439658921443943"><ele>431.6666666666667</ele><time>2026-04-18T08:22:11.001Z</time></trkpt><trkpt lat="42.87614388775549" lon="13.439898859019536"><ele>439.0</ele><time>2026-04-18T08:22:12.001Z</time></trkpt><trkpt lat="42.87609592458024" lon="13.440140973829488"><ele>439.0</ele><time>2026-04-18T08:22:13.001Z</time></trkpt><trkpt lat="42.876041227371196" lon="13.440374452668696"><ele>439.0</ele><time>2026-04-18T08:22:14.001Z</time></trkpt><trkpt lat="42.8759768757616" lon="13.44060086171991"><ele>439.0</ele><time>2026-04-18T08:22:15.001Z</time></trkpt><trkpt lat="42.8759054563138" lon="13.440820734960049"><ele>430.0</ele><time>2026-04-18T08:22:16.001Z</time></trkpt><trkpt lat="42.87582853654279" lon="13.441026407848017"><ele>421.0</ele><time>2026-04-18T08:22:17.001Z</time></trkpt><trkpt lat="42.87574751657356" lon="13.441223289887875"><ele>412.0</ele><time>2026-04-18T08:22:18.001Z</time></trkpt><trkpt lat="42.87566332402139" lon="13.441415727368511"><ele>412.0</ele><time>2026-04-18T08:22:19.001Z</time></trkpt><trkpt lat="42.87557339026099" lon="13.441601801490085"><ele>412.0</ele><time>2026-04-18T08:22:20.001Z</time></trkpt><trkpt lat="42.875463356774404" lon="13.441760847648714"><ele>412.0</ele><time>2026-04-18T08:22:21.001Z</time></trkpt><trkpt lat="42.87529729665437" lon="13.44203142347722"><ele>415.6666666666667</ele><time>2026-04-18T08:22:22.001Z</time></trkpt><trkpt lat="42.875173737156835" lon="13.442222449001209"><ele>419.33333333333337</ele><time>2026-04-18T08:22:23.001Z</time></trkpt><trkpt lat="42.87504199404805" lon="13.442415846915102"><ele>423.0</ele><time>2026-04-18T08:22:24.001Z</time></trkpt><trkpt lat="42.87491325192473" lon="13.442596086647377"><ele>423.0</ele><time>2026-04-18T08:22:25.001Z</time></trkpt><trkpt lat="42.874785474763456" lon="13.442768264037605"><ele>423.0</ele><time>2026-04-18T08:22:26.001Z</time></trkpt><trkpt lat="42.874657433330825" lon="13.442931812231434"><ele>423.0</ele><time>2026-04-18T08:22:27.001Z</time></trkpt><trkpt lat="42.87452354270825" lon="13.443090601221607"><ele>436.0</ele><time>2026-04-18T08:22:28.001Z</time></trkpt><trkpt lat="42.87438837487063" lon="13.443227595925071"><ele>449.0</ele><time>2026-04-18T08:22:29Z</time></trkpt><trkpt lat="42.873117756690036" lon="13.444052652469454"><ele>449.0</ele><time>2026-04-18T08:22:33.547Z</time></trkpt><trkpt lat="42.87267986760965" lon="13.444185284574672"><ele>449.0</ele><time>2026-04-18T08:22:34.552Z</time></trkpt><trkpt lat="42.87222375450261" lon="13.444185532705305"><ele>432.0</ele><time>2026-04-18T08:22:35.55Z</time></trkpt><trkpt lat="42.871775357297686" lon="13.444141756554863"><ele>426.5</ele><time>2026-04-18T08:22:36.549Z</time></trkpt><trkpt lat="42.87132850106519" lon="13.444078676737337"><ele>421.0</ele><time>2026-04-18T08:22:37.547Z</time></trkpt><trkpt lat="42.870880276223104" lon="13.444006791442028"><ele>406.0</ele><time>2026-04-18T08:22:38.55Z</time></trkpt><trkpt lat="42.87043192584571" lon="13.444100551648427"><ele>406.0</ele><time>2026-04-18T08:22:39.548Z</time></trkpt><trkpt lat="42.870369208682895" lon="13.444135190974539"><ele>406.0</ele><time>2026-04-18T08:22:40.55Z</time></trkpt><trkpt lat="42.869510667621114" lon="13.445462884015527"><ele>398.6666666666667</ele><time>2026-04-18T08:22:58Z</time></trkpt><trkpt lat="42.86946574758322" lon="13.445672367561487"><ele>391.33333333333337</ele><time>2026-04-18T08:22:59Z</time></trkpt><trkpt lat="42.86939181457386" lon="13.445854804542348"><ele>384.0</ele><time>2026-04-18T08:23:00Z</time></trkpt><trkpt lat="42.869256975557334" lon="13.445996383879836"><ele>379.0</ele><time>2026-04-18T08:23:01Z</time></trkpt><trkpt lat="42.869109072991805" lon="13.446104941424407"><ele>374.0</ele><time>2026-04-18T08:23:02Z</time></trkpt><trkpt lat="42.868945089212744" lon="13.446162960323933"><ele>369.0</ele><time>2026-04-18T08:23:03Z</time></trkpt><trkpt lat="42.86879305114058" lon="13.446257869255318"><ele>371.0</ele><time>2026-04-18T08:23:04Z</time></trkpt><trkpt lat="42.8686442584584" lon="13.446366759970122"><ele>373.0</ele><time>2026-04-18T08:23:05Z</time></trkpt><trkpt lat="42.86852749238571" lon="13.446539487659132"><ele>375.0</ele><time>2026-04-18T08:23:06Z</time></trkpt><trkpt lat="42.86844787371451" lon="13.446755525949312"><ele>373.0</ele><time>2026-04-18T08:23:07Z</time></trkpt><trkpt lat="42.86841924167145" lon="13.446985495078435"><ele>371.0</ele><time>2026-04-18T08:23:08Z</time></trkpt><trkpt lat="42.86842271656044" lon="13.447211206433712"><ele>369.0</ele><time>2026-04-18T08:23:09Z</time></trkpt><trkpt lat="42.868453856577005" lon="13.447435478753045"><ele>369.0</ele><time>2026-04-18T08:23:10Z</time></trkpt><trkpt lat="42.868488862412214" lon="13.447653755876459"><ele>369.0</ele><time>2026-04-18T08:23:11Z</time></trkpt><trkpt lat="42.8685319569949" lon="13.447876019261647"><ele>369.0</ele><time>2026-04-18T08:23:12Z</time></trkpt><trkpt lat="42.868607592408466" lon="13.448079511299008"><ele>366.0</ele><time>2026-04-18T08:23:13Z</time></trkpt><trkpt lat="42.86869925728117" lon="13.448269175689836"><ele>363.0</ele><time>2026-04-18T08:23:14Z</time></trkpt><trkpt lat="42.868801223829" lon="13.448449520754926"><ele>360.0</ele><time>2026-04-18T08:23:15Z</time></trkpt><trkpt lat="42.86889302023648" lon="13.448635264855527"><ele>357.6666666666667</ele><time>2026-04-18T08:23:16Z</time></trkpt><trkpt lat="42.868992640016906" lon="13.448814721303894"><ele>355.33333333333337</ele><time>2026-04-18T08:23:17Z</time></trkpt><trkpt lat="42.86909414238846" lon="13.448997407220391"><ele>353.0</ele><time>2026-04-18T08:23:18Z</time></trkpt><trkpt lat="42.86920584411519" lon="13.449167786236119"><ele>352.0</ele><time>2026-04-18T08:23:19Z</time></trkpt><trkpt lat="42.86929152455347" lon="13.449341988810401"><ele>351.0</ele><time>2026-04-18T08:23:20Z</time></trkpt><trkpt lat="42.869399499897895" lon="13.44953982962282"><ele>350.0</ele><time>2026-04-18T08:23:21Z</time></trkpt><trkpt lat="42.869521671364055" lon="13.449740844487016"><ele>350.0</ele><time>2026-04-18T08:23:22Z</time></trkpt><trkpt lat="42.869627555415654" lon="13.449932328846618"><ele>350.0</ele><time>2026-04-18T08:23:23Z</time></trkpt><trkpt lat="42.869729466559846" lon="13.450120384260533"><ele>350.0</ele><time>2026-04-18T08:23:24Z</time></trkpt><trkpt lat="42.86982979886887" lon="13.450307627619397"><ele>346.6666666666667</ele><time>2026-04-18T08:23:25Z</time></trkpt><trkpt lat="42.869909031450625" lon="13.45050673446664"><ele>343.3333333333333</ele><time>2026-04-18T08:23:26Z</time></trkpt><trkpt lat="42.86997836232124" lon="13.450712876633027"><ele>340.0</ele><time>2026-04-18T08:23:27Z</time></trkpt><trkpt lat="42.87005265034768" lon="13.450909779490908"><ele>342.3333333333333</ele><time>2026-04-18T08:23:28Z</time></trkpt><trkpt lat="42.87011134906379" lon="13.451113619977404"><ele>344.6666666666667</ele><time>2026-04-18T08:23:29Z</time></trkpt><trkpt lat="42.87017436030488" lon="13.451319664975324"><ele>347.0</ele><time>2026-04-18T08:23:30Z</time></trkpt><trkpt lat="42.87024146296666" lon="13.451523535209635"><ele>347.0</ele><time>2026-04-18T08:23:31Z</time></trkpt><trkpt lat="42.870303569825005" lon="13.451721571334215"><ele>347.0</ele><time>2026-04-18T08:23:31.999Z</time></trkpt><trkpt lat="42.87036158529898" lon="13.451908047685656"><ele>347.0</ele><time>2026-04-18T08:23:32.999Z</time></trkpt><trkpt lat="42.87042306376684" lon="13.45207795844491"><ele>347.0</ele><time>2026-04-18T08:23:33.999Z</time></trkpt><trkpt lat="42.870496579515276" lon="13.452214557994298"><ele>350.5</ele><time>2026-04-18T08:23:34.999Z</time></trkpt><trkpt lat="42.87059433355346" lon="13.452309633317354"><ele>354.0</ele><time>2026-04-18T08:23:35.999Z</time></trkpt><trkpt lat="42.87071336028758" lon="13.452340847450564"><ele>357.5</ele><time>2026-04-18T08:23:36.999Z</time></trkpt><trkpt lat="42.87083544175813" lon="13.452313634253294"><ele>361.0</ele><time>2026-04-18T08:23:37.999Z</time></trkpt><trkpt lat="42.870952493260134" lon="13.452281776622204"><ele>361.0</ele><time>2026-04-18T08:23:38.999Z</time></trkpt><trkpt lat="42.871066142281464" lon="13.452306663874301"><ele>361.0</ele><time>2026-04-18T08:23:39.999Z</time></trkpt><trkpt lat="42.87115749302479" lon="13.452403398260863"><ele>361.0</ele><time>2026-04-18T08:23:40.999Z</time></trkpt><trkpt lat="42.87123198552872" lon="13.452487842300796"><ele>361.0</ele><time>2026-04-18T08:23:41.999Z</time></trkpt><trkpt lat="42.87125060176406" lon="13.452622764119585"><ele>361.0</ele><time>2026-04-18T08:23:42.999Z</time></trkpt><trkpt lat="42.87121914097321" lon="13.452758834163435"><ele>361.0</ele><time>2026-04-18T08:23:43.999Z</time></trkpt><trkpt lat="42.87111149178048" lon="13.45282839986949"><ele>361.0</ele><time>2026-04-18T08:23:44.999Z</time></trkpt><trkpt lat="42.87101079153865" lon="13.452926153851239"><ele>361.0</ele><time>2026-04-18T08:23:45.999Z</time></trkpt><trkpt lat="42.87091361851629" lon="13.4530440930658"><ele>361.0</ele><time>2026-04-18T08:23:46.999Z</time></trkpt><trkpt lat="42.87079288140406" lon="13.453133887885391"><ele>352.0</ele><time>2026-04-18T08:23:47.999Z</time></trkpt><trkpt lat="42.87067734627691" lon="13.45325130769098"><ele>343.0</ele><time>2026-04-18T08:23:48.999Z</time></trkpt><trkpt lat="42.87055992235727" lon="13.453368829924095"><ele>334.0</ele><time>2026-04-18T08:23:49.999Z</time></trkpt><trkpt lat="42.87044512360593" lon="13.453475295109364"><ele>325.0</ele><time>2026-04-18T08:23:50.999Z</time></trkpt><trkpt lat="42.8703424572838" lon="13.453580783287505"><ele>325.0</ele><time>2026-04-18T08:23:51.999Z</time></trkpt><trkpt lat="42.87027620697217" lon="13.453715995406045"><ele>325.0</ele><time>2026-04-18T08:23:52.999Z</time></trkpt><trkpt lat="42.870267222729694" lon="13.453877021128898"><ele>325.0</ele><time>2026-04-18T08:23:53.999Z</time></trkpt><trkpt lat="42.87031546278243" lon="13.454030655799807"><ele>325.0</ele><time>2026-04-18T08:23:54.999Z</time></trkpt><trkpt lat="42.87041076245602" lon="13.454157453977414"><ele>325.75</ele><time>2026-04-18T08:23:55.999Z</time></trkpt><trkpt lat="42.87052884939853" lon="13.454259455270059"><ele>326.5</ele><time>2026-04-18T08:23:56.999Z</time></trkpt><trkpt lat="42.87065583852875" lon="13.454356032086688"><ele>327.25</ele><time>2026-04-18T08:23:58.001Z</time></trkpt><trkpt lat="42.87077915356651" lon="13.4544719534738"><ele>328.0</ele><time>2026-04-18T08:23:59.001Z</time></trkpt><trkpt lat="42.87089440220878" lon="13.454615308028691"><ele>326.3333333333333</ele><time>2026-04-18T08:24:00.001Z</time></trkpt><trkpt lat="42.870952905812416" lon="13.454807347581369"><ele>324.6666666666667</ele><time>2026-04-18T08:24:01.001Z</time></trkpt><trkpt lat="42.870978847998046" lon="13.455002255983056"><ele>323.0</ele><time>2026-04-18T08:24:02.001Z</time></trkpt><trkpt lat="42.870973370386984" lon="13.455218548958221"><ele>323.0</ele><time>2026-04-18T08:24:03.001Z</time></trkpt><trkpt lat="42.870966517751306" lon="13.455447248554286"><ele>323.0</ele><time>2026-04-18T08:24:04.001Z</time></trkpt><trkpt lat="42.8709379265798" lon="13.455680153164394"><ele>323.0</ele><time>2026-04-18T08:24:05.001Z</time></trkpt><trkpt lat="42.87090799995115" lon="13.45592123196565"><ele>323.6666666666667</ele><time>2026-04-18T08:24:06.001Z</time></trkpt><trkpt lat="42.870883300350016" lon="13.456164409975175"><ele>324.3333333333333</ele><time>2026-04-18T08:24:07.001Z</time></trkpt><trkpt lat="42.87085230781082" lon="13.456415431639611"><ele>325.0</ele><time>2026-04-18T08:24:08.001Z</time></trkpt><trkpt lat="42.870825244389046" lon="13.456663886513729"><ele>325.0</ele><time>2026-04-18T08:24:09.001Z</time></trkpt><trkpt lat="42.87080291447271" lon="13.45691445618881"><ele>325.0</ele><time>2026-04-18T08:24:10.001Z</time></trkpt><trkpt lat="42.870787942648874" lon="13.457163275367282"><ele>325.0</ele><time>2026-04-18T08:24:11.001Z</time></trkpt><trkpt lat="42.87078995788868" lon="13.457408898638064"><ele>324.66666666666663</ele><time>2026-04-18T08:24:12.001Z</time></trkpt><trkpt lat="42.87080257027189" lon="13.457656768657884"><ele>324.3333333333333</ele><time>2026-04-18T08:24:13.001Z</time></trkpt><trkpt lat="42.870812566399685" lon="13.45790017515149"><ele>324.0</ele><time>2026-04-18T08:24:14.001Z</time></trkpt><trkpt lat="42.87081708014514" lon="13.458146324068842"><ele>323.3333333333333</ele><time>2026-04-18T08:24:15.001Z</time></trkpt><trkpt lat="42.87082049005443" lon="13.458384265826412"><ele>322.66666666666663</ele><time>2026-04-18T08:24:16.001Z</time></trkpt><trkpt lat="42.87082186341442" lon="13.458623119568895"><ele>322.0</ele><time>2026-04-18T08:24:17.001Z</time></trkpt><trkpt lat="42.870811129073665" lon="13.458862964005679"><ele>320.0</ele><time>2026-04-18T08:24:18.001Z</time></trkpt><trkpt lat="42.87078556618417" lon="13.459090892462525"><ele>318.0</ele><time>2026-04-18T08:24:19.001Z</time></trkpt><trkpt lat="42.870718501488454" lon="13.459300657873829"><ele>316.0</ele><time>2026-04-18T08:24:20.001Z</time></trkpt><trkpt lat="42.87066979287572" lon="13.459521262104166"><ele>315.3333333333333</ele><time>2026-04-18T08:24:21.001Z</time></trkpt><trkpt lat="42.87059980549064" lon="13.459732292169047"><ele>314.6666666666667</ele><time>2026-04-18T08:24:22.001Z</time></trkpt><trkpt lat="42.87053408157222" lon="13.45994353954295"><ele>314.0</ele><time>2026-04-18T08:24:23.001Z</time></trkpt><trkpt lat="42.87047034884087" lon="13.46016555735833"><ele>314.0</ele><time>2026-04-18T08:24:24.001Z</time></trkpt><trkpt lat="42.87040574620626" lon="13.460384716744487"><ele>314.0</ele><time>2026-04-18T08:24:25.001Z</time></trkpt><trkpt lat="42.870341359802985" lon="13.460604172755655"><ele>314.0</ele><time>2026-04-18T08:24:26.001Z</time></trkpt><trkpt lat="42.87027421826346" lon="13.460830533756814"><ele>315.0</ele><time>2026-04-18T08:24:27.001Z</time></trkpt><trkpt lat="42.87020556200116" lon="13.461056051654083"><ele>316.0</ele><time>2026-04-18T08:24:28.001Z</time></trkpt><trkpt lat="42.870136608546595" lon="13.461278284028213"><ele>317.0</ele><time>2026-04-18T08:24:29.001Z</time></trkpt><trkpt lat="42.87007079756753" lon="13.461502393963654"><ele>317.0</ele><time>2026-04-18T08:24:30.001Z</time></trkpt><trkpt lat="42.87000321294391" lon="13.461732763105033"><ele>317.0</ele><time>2026-04-18T08:24:31.001Z</time></trkpt><trkpt lat="42.86993514168874" lon="13.46195858598511"><ele>317.0</ele><time>2026-04-18T08:24:32.001Z</time></trkpt><trkpt lat="42.869865379079314" lon="13.46218693103515"><ele>314.6666666666667</ele><time>2026-04-18T08:24:33Z</time></trkpt><trkpt lat="42.869798550551295" lon="13.462409368465513"><ele>312.3333333333333</ele><time>2026-04-18T08:24:34Z</time></trkpt><trkpt lat="42.86973654035974" lon="13.462621419855163"><ele>310.0</ele><time>2026-04-18T08:24:35Z</time></trkpt><trkpt lat="42.86967198953268" lon="13.462831601327911"><ele>308.0</ele><time>2026-04-18T08:24:36Z</time></trkpt><trkpt lat="42.8696107043464" lon="13.463036193242937"><ele>306.0</ele><time>2026-04-18T08:24:37Z</time></trkpt><trkpt lat="42.86954803803693" lon="13.463246559226338"><ele>304.0</ele><time>2026-04-18T08:24:38Z</time></trkpt><trkpt lat="42.86948329233518" lon="13.463452706385949"><ele>304.0</ele><time>2026-04-18T08:24:39Z</time></trkpt><trkpt lat="42.8694097302397" lon="13.463654249751068"><ele>304.0</ele><time>2026-04-18T08:24:40Z</time></trkpt><trkpt lat="42.869318768989665" lon="13.46384107993172"><ele>304.0</ele><time>2026-04-18T08:24:41Z</time></trkpt><trkpt lat="42.86919640608757" lon="13.463997122577405"><ele>304.66666666666663</ele><time>2026-04-18T08:24:42Z</time></trkpt><trkpt lat="42.86909234481632" lon="13.464167267382486"><ele>305.3333333333333</ele><time>2026-04-18T08:24:43Z</time></trkpt><trkpt lat="42.86896723693704" lon="13.464325253700757"><ele>306.0</ele><time>2026-04-18T08:24:44Z</time></trkpt><trkpt lat="42.86884576489872" lon="13.464484767508134"><ele>305.3333333333333</ele><time>2026-04-18T08:24:45Z</time></trkpt><trkpt lat="42.86872557789719" lon="13.464647169704586"><ele>304.66666666666663</ele><time>2026-04-18T08:24:46Z</time></trkpt><trkpt lat="42.86860030659714" lon="13.464807333128759"><ele>304.0</ele><time>2026-04-18T08:24:47Z</time></trkpt><trkpt lat="42.868473324319126" lon="13.464965360048026"><ele>307.3333333333333</ele><time>2026-04-18T08:24:48Z</time></trkpt><trkpt lat="42.868347754614796" lon="13.465125567424337"><ele>310.6666666666667</ele><time>2026-04-18T08:24:49Z</time></trkpt><trkpt lat="42.868223040550646" lon="13.465283318758281"><ele>314.0</ele><time>2026-04-18T08:24:50Z</time></trkpt><trkpt lat="42.868094834005284" lon="13.465444183782743"><ele>311.0</ele><time>2026-04-18T08:24:51Z</time></trkpt><trkpt lat="42.86796689222302" lon="13.465608393021357"><ele>308.0</ele><time>2026-04-18T08:24:52Z</time></trkpt><trkpt lat="42.867839857552546" lon="13.465774643374775"><ele>305.0</ele><time>2026-04-18T08:24:53Z</time></trkpt><trkpt lat="42.86771213937506" lon="13.465937562303253"><ele>305.0</ele><time>2026-04-18T08:24:54Z</time></trkpt><trkpt lat="42.86758142810708" lon="13.466097878101149"><ele>305.0</ele><time>2026-04-18T08:24:55Z</time></trkpt><trkpt lat="42.867451526706354" lon="13.466260763641067"><ele>305.0</ele><time>2026-04-18T08:24:56Z</time></trkpt><trkpt lat="42.86732308740941" lon="13.466429249407957"><ele>305.0</ele><time>2026-04-18T08:24:57Z</time></trkpt><trkpt lat="42.86719411553677" lon="13.466596093996717"><ele>305.0</ele><time>2026-04-18T08:24:58Z</time></trkpt><trkpt lat="42.86706346860782" lon="13.466758881978127"><ele>305.0</ele><time>2026-04-18T08:24:59Z</time></trkpt><trkpt lat="42.86693375621624" lon="13.466922942527734"><ele>305.0</ele><time>2026-04-18T08:25:00Z</time></trkpt><trkpt lat="42.86680440331591" lon="13.467090583745902"><ele>305.0</ele><time>2026-04-18T08:25:01Z</time></trkpt><trkpt lat="42.86667678404583" lon="13.467254285910725"><ele>305.0</ele><time>2026-04-18T08:25:02Z</time></trkpt><trkpt lat="42.866550145391095" lon="13.467415627746988"><ele>305.6666666666667</ele><time>2026-04-18T08:25:03Z</time></trkpt><trkpt lat="42.866421910981174" lon="13.46758101648303"><ele>306.3333333333333</ele><time>2026-04-18T08:25:04Z</time></trkpt><trkpt lat="42.86630053767246" lon="13.467743270622368"><ele>307.0</ele><time>2026-04-18T08:25:05Z</time></trkpt><trkpt lat="42.8661774685804" lon="13.467912492910996"><ele>305.0</ele><time>2026-04-18T08:25:06Z</time></trkpt><trkpt lat="42.86606103375074" lon="13.468089325433366"><ele>303.0</ele><time>2026-04-18T08:25:07Z</time></trkpt><trkpt lat="42.86595208655361" lon="13.468279257463314"><ele>301.0</ele><time>2026-04-18T08:25:08Z</time></trkpt><trkpt lat="42.86585610202185" lon="13.468478451244714"><ele>303.3333333333333</ele><time>2026-04-18T08:25:09Z</time></trkpt><trkpt lat="42.86576405138898" lon="13.46868472326199"><ele>305.6666666666667</ele><time>2026-04-18T08:25:10Z</time></trkpt><trkpt lat="42.86566977224619" lon="13.468880128131836"><ele>308.0</ele><time>2026-04-18T08:25:11Z</time></trkpt><trkpt lat="42.86557575753815" lon="13.469075432908042"><ele>308.0</ele><time>2026-04-18T08:25:12Z</time></trkpt><trkpt lat="42.86547779105673" lon="13.469264194242182"><ele>308.0</ele><time>2026-04-18T08:25:13Z</time></trkpt><trkpt lat="42.86537936184229" lon="13.46945680940649"><ele>308.0</ele><time>2026-04-18T08:25:14Z</time></trkpt><trkpt lat="42.86528644296085" lon="13.469644757712512"><ele>311.33333333333337</ele><time>2026-04-18T08:25:15Z</time></trkpt><trkpt lat="42.86519363717748" lon="13.469834106962878"><ele>314.6666666666667</ele><time>2026-04-18T08:25:16Z</time></trkpt><trkpt lat="42.86510304863044" lon="13.47002037569554"><ele>318.0</ele><time>2026-04-18T08:25:17Z</time></trkpt><trkpt lat="42.86501138584877" lon="13.470206077360215"><ele>318.0</ele><time>2026-04-18T08:25:18Z</time></trkpt><trkpt lat="42.86492372740043" lon="13.470385420761126"><ele>318.0</ele><time>2026-04-18T08:25:19Z</time></trkpt><trkpt lat="42.86483703679899" lon="13.470560644281557"><ele>318.0</ele><time>2026-04-18T08:25:20Z</time></trkpt><trkpt lat="42.864757902227204" lon="13.470734369703258"><ele>314.0</ele><time>2026-04-18T08:25:21Z</time></trkpt><trkpt lat="42.86468667452825" lon="13.470912904141635"><ele>310.0</ele><time>2026-04-18T08:25:22Z</time></trkpt><trkpt lat="42.864660841377926" lon="13.471107789930562"><ele>306.0</ele><time>2026-04-18T08:25:23Z</time></trkpt><trkpt lat="42.86466861925904" lon="13.471311484357"><ele>302.0</ele><time>2026-04-18T08:25:24Z</time></trkpt><trkpt lat="42.864683908752134" lon="13.471522573720737"><ele>300.6666666666667</ele><time>2026-04-18T08:25:25Z</time></trkpt><trkpt lat="42.864685961147536" lon="13.471728733562879"><ele>299.3333333333333</ele><time>2026-04-18T08:25:26Z</time></trkpt><trkpt lat="42.86466923636255" lon="13.471936658350877"><ele>298.0</ele><time>2026-04-18T08:25:27Z</time></trkpt><trkpt lat="42.86463341093537" lon="13.472142382516747"><ele>297.3333333333333</ele><time>2026-04-18T08:25:27.999Z</time></trkpt><trkpt lat="42.86458741356864" lon="13.47234254317039"><ele>296.6666666666667</ele><time>2026-04-18T08:25:28.999Z</time></trkpt><trkpt lat="42.86453763920748" lon="13.472538949095695"><ele>296.0</ele><time>2026-04-18T08:25:29.999Z</time></trkpt><trkpt lat="42.864484368111796" lon="13.472732953317244"><ele>296.0</ele><time>2026-04-18T08:25:30.999Z</time></trkpt><trkpt lat="42.86442519743154" lon="13.472920744766755"><ele>296.0</ele><time>2026-04-18T08:25:31.999Z</time></trkpt><trkpt lat="42.86437034049827" lon="13.47310730002255"><ele>296.0</ele><time>2026-04-18T08:25:32.999Z</time></trkpt><trkpt lat="42.86431762241729" lon="13.473296562192079"><ele>296.0</ele><time>2026-04-18T08:25:33.999Z</time></trkpt><trkpt lat="42.8642652505231" lon="13.473483780869762"><ele>296.5</ele><time>2026-04-18T08:25:34.999Z</time></trkpt><trkpt lat="42.864210798323896" lon="13.473659685290915"><ele>297.0</ele><time>2026-04-18T08:25:35.999Z</time></trkpt><trkpt lat="42.864153871066875" lon="13.473818509667513"><ele>297.5</ele><time>2026-04-18T08:25:36.999Z</time></trkpt><trkpt lat="42.86408398005733" lon="13.47396169852798"><ele>298.0</ele><time>2026-04-18T08:25:37.999Z</time></trkpt><trkpt lat="42.86399064237113" lon="13.474071374642437"><ele>298.0</ele><time>2026-04-18T08:25:38.999Z</time></trkpt><trkpt lat="42.86387004949838" lon="13.474142337562938"><ele>298.0</ele><time>2026-04-18T08:25:39.999Z</time></trkpt><trkpt lat="42.86374543217442" lon="13.474214713843944"><ele>298.0</ele><time>2026-04-18T08:25:40.999Z</time></trkpt><trkpt lat="42.86361766923321" lon="13.47429014422786"><ele>298.0</ele><time>2026-04-18T08:25:41.999Z</time></trkpt><trkpt lat="42.86348584368074" lon="13.47436954277639"><ele>298.75</ele><time>2026-04-18T08:25:42.999Z</time></trkpt><trkpt lat="42.86334928330375" lon="13.474446754637311"><ele>299.5</ele><time>2026-04-18T08:25:43.999Z</time></trkpt><trkpt lat="42.86321128883494" lon="13.474524803395605"><ele>300.25</ele><time>2026-04-18T08:25:44.999Z</time></trkpt><trkpt lat="42.86307405592117" lon="13.474602626904609"><ele>301.0</ele><time>2026-04-18T08:25:45.999Z</time></trkpt><trkpt lat="42.86293959597071" lon="13.474680861636077"><ele>300.0</ele><time>2026-04-18T08:25:46.999Z</time></trkpt><trkpt lat="42.86281005395244" lon="13.474755972245728"><ele>299.0</ele><time>2026-04-18T08:25:47.999Z</time></trkpt><trkpt lat="42.86268334341157" lon="13.474825559655873"><ele>298.0</ele><time>2026-04-18T08:25:48.999Z</time></trkpt><trkpt lat="42.862563324780524" lon="13.474896842615342"><ele>297.0</ele><time>2026-04-18T08:25:49.999Z</time></trkpt><trkpt lat="42.86245118402663" lon="13.474967125124728"><ele>297.0</ele><time>2026-04-18T08:25:50.999Z</time></trkpt><trkpt lat="42.8623404811005" lon="13.475034015261283"><ele>297.0</ele><time>2026-04-18T08:25:51.999Z</time></trkpt><trkpt lat="42.86223128992867" lon="13.475098504901215"><ele>297.0</ele><time>2026-04-18T08:25:52.999Z</time></trkpt><trkpt lat="42.86212402207252" lon="13.475160013015078"><ele>297.0</ele><time>2026-04-18T08:25:53.999Z</time></trkpt><trkpt lat="42.86202035522487" lon="13.475219510027717"><ele>297.0</ele><time>2026-04-18T08:25:54.999Z</time></trkpt><trkpt lat="42.86191772989979" lon="13.475282624540396"><ele>297.0</ele><time>2026-04-18T08:25:55.999Z</time></trkpt><trkpt lat="42.86181525278875" lon="13.47534650462687"><ele>297.0</ele><time>2026-04-18T08:25:56.999Z</time></trkpt><trkpt lat="42.86171418188364" lon="13.4754070312499"><ele>297.0</ele><time>2026-04-18T08:25:57.999Z</time></trkpt><trkpt lat="42.8616179828286" lon="13.475467295857804"><ele>297.0</ele><time>2026-04-18T08:25:58.999Z</time></trkpt><trkpt lat="42.861520685143034" lon="13.47552763136473"><ele>295.8</ele><time>2026-04-18T08:25:59.999Z</time></trkpt><trkpt lat="42.86142469580406" lon="13.475582182551078"><ele>294.6</ele><time>2026-04-18T08:26:00.999Z</time></trkpt><trkpt lat="42.86132205728396" lon="13.47563829674203"><ele>293.40000000000003</ele><time>2026-04-18T08:26:01.999Z</time></trkpt><trkpt lat="42.86121637122674" lon="13.475695050605472"><ele>292.2</ele><time>2026-04-18T08:26:02.999Z</time></trkpt><trkpt lat="42.86110987932798" lon="13.475758084690417"><ele>291.0</ele><time>2026-04-18T08:26:04.001Z</time></trkpt><trkpt lat="42.86100185074997" lon="13.475823296415886"><ele>292.25</ele><time>2026-04-18T08:26:05.001Z</time></trkpt><trkpt lat="42.86089371560287" lon="13.475882664393856"><ele>293.5</ele><time>2026-04-18T08:26:06.001Z</time></trkpt><trkpt lat="42.860783871248394" lon="13.475947724869805"><ele>294.75</ele><time>2026-04-18T08:26:07.001Z</time></trkpt><trkpt lat="42.860673583795275" lon="13.476010542287288"><ele>296.0</ele><time>2026-04-18T08:26:08.001Z</time></trkpt><trkpt lat="42.8605639831105" lon="13.476074187484762"><ele>296.0</ele><time>2026-04-18T08:26:09.001Z</time></trkpt><trkpt lat="42.860454469632835" lon="13.476140701555233"><ele>296.0</ele><time>2026-04-18T08:26:10.001Z</time></trkpt><trkpt lat="42.86034075950868" lon="13.476206892572355"><ele>296.0</ele><time>2026-04-18T08:26:11.001Z</time></trkpt><trkpt lat="42.8602259484327" lon="13.476273478300616"><ele>296.0</ele><time>2026-04-18T08:26:12.001Z</time></trkpt><trkpt lat="42.86011177951493" lon="13.476334448266133"><ele>293.75</ele><time>2026-04-18T08:26:13.001Z</time></trkpt><trkpt lat="42.85999883042449" lon="13.476397537776077"><ele>291.5</ele><time>2026-04-18T08:26:14.001Z</time></trkpt><trkpt lat="42.8598868068018" lon="13.47646632317609"><ele>289.25</ele><time>2026-04-18T08:26:15.001Z</time></trkpt><trkpt lat="42.85977359124885" lon="13.476534927991377"><ele>287.0</ele><time>2026-04-18T08:26:16.001Z</time></trkpt><trkpt lat="42.85966363974085" lon="13.47660547487714"><ele>287.0</ele><time>2026-04-18T08:26:17.001Z</time></trkpt><trkpt lat="42.85955955256096" lon="13.476683061594173"><ele>287.0</ele><time>2026-04-18T08:26:18.001Z</time></trkpt><trkpt lat="42.85945048892872" lon="13.476743150518894"><ele>287.0</ele><time>2026-04-18T08:26:19.001Z</time></trkpt><trkpt lat="42.85934836944706" lon="13.476824603539791"><ele>287.0</ele><time>2026-04-18T08:26:20.001Z</time></trkpt><trkpt lat="42.85925674104114" lon="13.476923206879194"><ele>286.75</ele><time>2026-04-18T08:26:21.001Z</time></trkpt><trkpt lat="42.85915849449994" lon="13.477004205599636"><ele>286.5</ele><time>2026-04-18T08:26:22.001Z</time></trkpt><trkpt lat="42.85906123676813" lon="13.47708693107417"><ele>286.25</ele><time>2026-04-18T08:26:23.001Z</time></trkpt><trkpt lat="42.85896209501621" lon="13.477166371748439"><ele>286.0</ele><time>2026-04-18T08:26:24.001Z</time></trkpt><trkpt lat="42.85885965198176" lon="13.477242945840892"><ele>286.0</ele><time>2026-04-18T08:26:25.001Z</time></trkpt><trkpt lat="42.858756653651476" lon="13.477324455253907"><ele>286.0</ele><time>2026-04-18T08:26:26.001Z</time></trkpt><trkpt lat="42.8586540097598" lon="13.477413461079838"><ele>286.0</ele><time>2026-04-18T08:26:27.001Z</time></trkpt><trkpt lat="42.858549301993385" lon="13.477502893378599"><ele>286.0</ele><time>2026-04-18T08:26:28.001Z</time></trkpt><trkpt lat="42.858433398052796" lon="13.477571598782317"><ele>286.5</ele><time>2026-04-18T08:26:29.001Z</time></trkpt><trkpt lat="42.85832805631334" lon="13.477656370229104"><ele>287.0</ele><time>2026-04-18T08:26:30.001Z</time></trkpt><trkpt lat="42.85822027943683" lon="13.477743101270633"><ele>287.5</ele><time>2026-04-18T08:26:31.001Z</time></trkpt><trkpt lat="42.85811397803539" lon="13.477828644320224"><ele>288.0</ele><time>2026-04-18T08:26:32Z</time></trkpt><trkpt lat="42.858007180624156" lon="13.477914575067631"><ele>287.25</ele><time>2026-04-18T08:26:33Z</time></trkpt><trkpt lat="42.85789695862138" lon="13.478003262977387"><ele>286.5</ele><time>2026-04-18T08:26:34Z</time></trkpt><trkpt lat="42.85779374621245" lon="13.478111376471878"><ele>285.75</ele><time>2026-04-18T08:26:35Z</time></trkpt><trkpt lat="42.85768068680712" lon="13.47819871164762"><ele>285.0</ele><time>2026-04-18T08:26:36Z</time></trkpt><trkpt lat="42.85756669679776" lon="13.478285041898552"><ele>285.0</ele><time>2026-04-18T08:26:37Z</time></trkpt><trkpt lat="42.85745478462808" lon="13.47837772898077"><ele>285.0</ele><time>2026-04-18T08:26:38Z</time></trkpt><trkpt lat="42.857341066248246" lon="13.47847143391041"><ele>285.0</ele><time>2026-04-18T08:26:39Z</time></trkpt><trkpt lat="42.857224840391545" lon="13.478567608286594"><ele>285.0</ele><time>2026-04-18T08:26:40Z</time></trkpt><trkpt lat="42.85711026000693" lon="13.478663722464328"><ele>285.0</ele><time>2026-04-18T08:26:41Z</time></trkpt><trkpt lat="42.85699582612372" lon="13.478762997388634"><ele>285.0</ele><time>2026-04-18T08:26:42Z</time></trkpt><trkpt lat="42.856883739113144" lon="13.478863577702528"><ele>285.0</ele><time>2026-04-18T08:26:43Z</time></trkpt><trkpt lat="42.85677323657894" lon="13.47896661985979"><ele>285.0</ele><time>2026-04-18T08:26:44Z</time></trkpt><trkpt lat="42.85665446604143" lon="13.479057063421282"><ele>284.25</ele><time>2026-04-18T08:26:45Z</time></trkpt><trkpt lat="42.856561118379254" lon="13.479188746383123"><ele>283.5</ele><time>2026-04-18T08:26:46Z</time></trkpt><trkpt lat="42.856458629476464" lon="13.479304184003986"><ele>282.75</ele><time>2026-04-18T08:26:47Z</time></trkpt><trkpt lat="42.856354086133514" lon="13.479415092164919"><ele>282.0</ele><time>2026-04-18T08:26:48Z</time></trkpt><trkpt lat="42.85625117430189" lon="13.479527882788108"><ele>281.5</ele><time>2026-04-18T08:26:49Z</time></trkpt><trkpt lat="42.856149137489105" lon="13.479641930145073"><ele>281.0</ele><time>2026-04-18T08:26:50Z</time></trkpt><trkpt lat="42.85604724586846" lon="13.479757975750928"><ele>280.5</ele><time>2026-04-18T08:26:51Z</time></trkpt><trkpt lat="42.85594777170459" lon="13.479872240319084"><ele>280.0</ele><time>2026-04-18T08:26:52Z</time></trkpt><trkpt lat="42.855853197602016" lon="13.479982963479996"><ele>280.0</ele><time>2026-04-18T08:26:53Z</time></trkpt><trkpt lat="42.855764403503116" lon="13.480087326916806"><ele>280.0</ele><time>2026-04-18T08:26:54Z</time></trkpt><trkpt lat="42.85568142984669" lon="13.480187733282794"><ele>280.0</ele><time>2026-04-18T08:26:55Z</time></trkpt><trkpt lat="42.85560023219553" lon="13.48028106418483"><ele>280.0</ele><time>2026-04-18T08:26:56Z</time></trkpt><trkpt lat="42.85552453548894" lon="13.480369453467622"><ele>280.0</ele><time>2026-04-18T08:26:57Z</time></trkpt><trkpt lat="42.85544728942079" lon="13.480457701437732"><ele>280.4</ele><time>2026-04-18T08:26:58Z</time></trkpt><trkpt lat="42.85537551248807" lon="13.480546200542932"><ele>280.8</ele><time>2026-04-18T08:26:59Z</time></trkpt><trkpt lat="42.855303322448016" lon="13.480636203339754"><ele>281.2</ele><time>2026-04-18T08:27:00Z</time></trkpt><trkpt lat="42.8552289423119" lon="13.480730026477701"><ele>281.6</ele><time>2026-04-18T08:27:01Z</time></trkpt><trkpt lat="42.855151193090364" lon="13.480823425164099"><ele>282.0</ele><time>2026-04-18T08:27:02Z</time></trkpt><trkpt lat="42.85507797025953" lon="13.480921975061836"><ele>282.0</ele><time>2026-04-18T08:27:03Z</time></trkpt><trkpt lat="42.85500841320711" lon="13.481017803156453"><ele>282.0</ele><time>2026-04-18T08:27:04Z</time></trkpt><trkpt lat="42.8549457228601" lon="13.481104666000054"><ele>282.0</ele><time>2026-04-18T08:27:05Z</time></trkpt><trkpt lat="42.85489590275209" lon="13.481171622932955"><ele>282.0</ele><time>2026-04-18T08:27:06Z</time></trkpt><trkpt lat="42.85481672564849" lon="13.481303973570986"><ele>282.0</ele><time>2026-04-18T08:27:08Z</time></trkpt><trkpt lat="42.85476860055015" lon="13.48139344175384"><ele>280.4</ele><time>2026-04-18T08:27:09Z</time></trkpt><trkpt lat="42.854710201766764" lon="13.481496191609974"><ele>278.79999999999995</ele><time>2026-04-18T08:27:10Z</time></trkpt><trkpt lat="42.85465161974945" lon="13.48161247109993"><ele>277.2</ele><time>2026-04-18T08:27:11Z</time></trkpt><trkpt lat="42.85459273602112" lon="13.481743534100513"><ele>275.59999999999997</ele><time>2026-04-18T08:27:12Z</time></trkpt><trkpt lat="42.85453846448695" lon="13.48189140074245"><ele>274.0</ele><time>2026-04-18T08:27:13Z</time></trkpt><trkpt lat="42.854495640493155" lon="13.482053418931882"><ele>272.5</ele><time>2026-04-18T08:27:14Z</time></trkpt><trkpt lat="42.85446084133333" lon="13.482222054901209"><ele>271.0</ele><time>2026-04-18T08:27:15Z</time></trkpt><trkpt lat="42.85443052045256" lon="13.482396078923824"><ele>269.5</ele><time>2026-04-18T08:27:16Z</time></trkpt><trkpt lat="42.85440049442373" lon="13.48257133492185"><ele>268.0</ele><time>2026-04-18T08:27:17Z</time></trkpt><trkpt lat="42.85436379753804" lon="13.482746676494505"><ele>268.0</ele><time>2026-04-18T08:27:18Z</time></trkpt><trkpt lat="42.8543193584882" lon="13.482924344997736"><ele>268.0</ele><time>2026-04-18T08:27:19Z</time></trkpt><trkpt lat="42.854268989800964" lon="13.483095185652687"><ele>268.0</ele><time>2026-04-18T08:27:20Z</time></trkpt><trkpt lat="42.85421388378721" lon="13.483257712698096"><ele>268.0</ele><time>2026-04-18T08:27:21Z</time></trkpt><trkpt lat="42.854151284816425" lon="13.483411698664666"><ele>268.0</ele><time>2026-04-18T08:27:22Z</time></trkpt><trkpt lat="42.854075980215825" lon="13.483548024069385"><ele>268.0</ele><time>2026-04-18T08:27:22.999Z</time></trkpt><trkpt lat="42.85398229322094" lon="13.483667371802207"><ele>268.0</ele><time>2026-04-18T08:27:23.999Z</time></trkpt><trkpt lat="42.85387472488753" lon="13.483764640953508"><ele>268.0</ele><time>2026-04-18T08:27:24.999Z</time></trkpt><trkpt lat="42.85375919449741" lon="13.483847130657162"><ele>268.0</ele><time>2026-04-18T08:27:25.999Z</time></trkpt><trkpt lat="42.85363528744084" lon="13.48392203510857"><ele>268.0</ele><time>2026-04-18T08:27:26.999Z</time></trkpt><trkpt lat="42.8535061282872" lon="13.483986415019132"><ele>268.0</ele><time>2026-04-18T08:27:27.999Z</time></trkpt><trkpt lat="42.85337339665941" lon="13.484042178883126"><ele>268.0</ele><time>2026-04-18T08:27:28.999Z</time></trkpt><trkpt lat="42.85323842407363" lon="13.484091593691776"><ele>269.75</ele><time>2026-04-18T08:27:29.999Z</time></trkpt><trkpt lat="42.85309980233331" lon="13.484131413647088"><ele>271.5</ele><time>2026-04-18T08:27:30.999Z</time></trkpt><trkpt lat="42.85296088435814" lon="13.484156966792947"><ele>273.25</ele><time>2026-04-18T08:27:31.999Z</time></trkpt><trkpt lat="42.852824998359566" lon="13.484152897163993"><ele>275.0</ele><time>2026-04-18T08:27:32.999Z</time></trkpt><trkpt lat="42.85268994677999" lon="13.484126401626217"><ele>273.5</ele><time>2026-04-18T08:27:33.999Z</time></trkpt><trkpt lat="42.8525589948423" lon="13.48408660450186"><ele>272.0</ele><time>2026-04-18T08:27:34.999Z</time></trkpt><trkpt lat="42.852426548398014" lon="13.484052114092707"><ele>270.5</ele><time>2026-04-18T08:27:35.999Z</time></trkpt><trkpt lat="42.85228985529808" lon="13.484032267345048"><ele>269.0</ele><time>2026-04-18T08:27:36.999Z</time></trkpt><trkpt lat="42.85215172281305" lon="13.484031964746263"><ele>269.0</ele><time>2026-04-18T08:27:37.999Z</time></trkpt><trkpt lat="42.85201431807824" lon="13.48406855773861"><ele>269.0</ele><time>2026-04-18T08:27:38.999Z</time></trkpt><trkpt lat="42.85188547126911" lon="13.484139339255725"><ele>269.0</ele><time>2026-04-18T08:27:39.999Z</time></trkpt><trkpt lat="42.85177000810074" lon="13.484240595352645"><ele>269.0</ele><time>2026-04-18T08:27:40.999Z</time></trkpt><trkpt lat="42.85166363468527" lon="13.484366663046583"><ele>267.75</ele><time>2026-04-18T08:27:41.999Z</time></trkpt><trkpt lat="42.85156159324013" lon="13.48450161193903"><ele>266.5</ele><time>2026-04-18T08:27:42.999Z</time></trkpt><trkpt lat="42.85146332549404" lon="13.484643206922243"><ele>265.25</ele><time>2026-04-18T08:27:43.999Z</time></trkpt><trkpt lat="42.85136537872808" lon="13.484783809241952"><ele>264.0</ele><time>2026-04-18T08:27:44.999Z</time></trkpt><trkpt lat="42.85126892812041" lon="13.48492611555682"><ele>264.0</ele><time>2026-04-18T08:27:45.999Z</time></trkpt><trkpt lat="42.85117054531839" lon="13.485074196274049"><ele>264.0</ele><time>2026-04-18T08:27:46.999Z</time></trkpt><trkpt lat="42.85107575278764" lon="13.485223849543695"><ele>264.0</ele><time>2026-04-18T08:27:47.999Z</time></trkpt><trkpt lat="42.8509812702455" lon="13.48537989046423"><ele>264.0</ele><time>2026-04-18T08:27:48.999Z</time></trkpt><trkpt lat="42.85088262175317" lon="13.485537380261157"><ele>264.0</ele><time>2026-04-18T08:27:49.999Z</time></trkpt><trkpt lat="42.85077927391327" lon="13.485689171656674"><ele>264.0</ele><time>2026-04-18T08:27:50.999Z</time></trkpt><trkpt lat="42.85067348103823" lon="13.485839635383455"><ele>264.0</ele><time>2026-04-18T08:27:51.999Z</time></trkpt><trkpt lat="42.850573295329895" lon="13.485994829412457"><ele>264.0</ele><time>2026-04-18T08:27:52.999Z</time></trkpt><trkpt lat="42.85047395102297" lon="13.486152401655097"><ele>264.0</ele><time>2026-04-18T08:27:53.999Z</time></trkpt><trkpt lat="42.85037026538518" lon="13.486309668366667"><ele>264.0</ele><time>2026-04-18T08:27:54.999Z</time></trkpt><trkpt lat="42.850268317831635" lon="13.486468073476217"><ele>262.6666666666667</ele><time>2026-04-18T08:27:55.999Z</time></trkpt><trkpt lat="42.850169418140865" lon="13.48662788532319"><ele>261.33333333333337</ele><time>2026-04-18T08:27:56.999Z</time></trkpt><trkpt lat="42.85007281022818" lon="13.486793362061162"><ele>260.0</ele><time>2026-04-18T08:27:57.999Z</time></trkpt><trkpt lat="42.84998785570615" lon="13.486963926973743"><ele>261.0</ele><time>2026-04-18T08:27:58.999Z</time></trkpt><trkpt lat="42.8499154042518" lon="13.487147696398845"><ele>262.0</ele><time>2026-04-18T08:27:59.999Z</time></trkpt><trkpt lat="42.8498558871851" lon="13.487337352090384"><ele>263.0</ele><time>2026-04-18T08:28:00.999Z</time></trkpt><trkpt lat="42.84980896673184" lon="13.487533561195983"><ele>263.0</ele><time>2026-04-18T08:28:01.999Z</time></trkpt><trkpt lat="42.849748103106634" lon="13.487729041428008"><ele>263.0</ele><time>2026-04-18T08:28:02.999Z</time></trkpt><trkpt lat="42.84969349575774" lon="13.487922542700979"><ele>263.0</ele><time>2026-04-18T08:28:03.999Z</time></trkpt><trkpt lat="42.849626307500095" lon="13.488109419988197"><ele>260.6666666666667</ele><time>2026-04-18T08:28:04.999Z</time></trkpt><trkpt lat="42.84954438823091" lon="13.488290835700097"><ele>258.3333333333333</ele><time>2026-04-18T08:28:05.999Z</time></trkpt><trkpt lat="42.849467573864565" lon="13.488476547477303"><ele>256.0</ele><time>2026-04-18T08:28:06.999Z</time></trkpt><trkpt lat="42.84937673783722" lon="13.488647025127042"><ele>257.0</ele><time>2026-04-18T08:28:07.999Z</time></trkpt><trkpt lat="42.84928658073981" lon="13.48881075889709"><ele>258.0</ele><time>2026-04-18T08:28:08.999Z</time></trkpt><trkpt lat="42.849202735163765" lon="13.488967460343764"><ele>259.0</ele><time>2026-04-18T08:28:10.001Z</time></trkpt><trkpt lat="42.84910809040142" lon="13.489107898339071"><ele>260.0</ele><time>2026-04-18T08:28:11.001Z</time></trkpt><trkpt lat="42.84904239537309" lon="13.489272527705147"><ele>260.0</ele><time>2026-04-18T08:28:12.001Z</time></trkpt><trkpt lat="42.84896603198043" lon="13.48940902022464"><ele>260.0</ele><time>2026-04-18T08:28:13.001Z</time></trkpt><trkpt lat="42.84888936270974" lon="13.489526032930641"><ele>260.0</ele><time>2026-04-18T08:28:14.001Z</time></trkpt><trkpt lat="42.84879339202164" lon="13.489603459490674"><ele>260.0</ele><time>2026-04-18T08:28:15.001Z</time></trkpt><trkpt lat="42.84867418536383" lon="13.489617989363651"><ele>260.0</ele><time>2026-04-18T08:28:16.001Z</time></trkpt><trkpt lat="42.84854830243859" lon="13.48957641420897"><ele>260.0</ele><time>2026-04-18T08:28:17.001Z</time></trkpt><trkpt lat="42.84843030646179" lon="13.489500041673733"><ele>260.0</ele><time>2026-04-18T08:28:18.001Z</time></trkpt><trkpt lat="42.84831698107474" lon="13.489394385664514"><ele>260.0</ele><time>2026-04-18T08:28:19.001Z</time></trkpt><trkpt lat="42.84820460739829" lon="13.489274797360965"><ele>259.33333333333337</ele><time>2026-04-18T08:28:20.001Z</time></trkpt><trkpt lat="42.84808845138135" lon="13.489145402157835"><ele>258.6666666666667</ele><time>2026-04-18T08:28:21.001Z</time></trkpt><trkpt lat="42.847969589274285" lon="13.489011761939715"><ele>258.0</ele><time>2026-04-18T08:28:22.001Z</time></trkpt><trkpt lat="42.84784785848078" lon="13.48887696154407"><ele>259.0</ele><time>2026-04-18T08:28:23.001Z</time></trkpt><trkpt lat="42.84772351382634" lon="13.48873730920793"><ele>260.0</ele><time>2026-04-18T08:28:24.001Z</time></trkpt><trkpt lat="42.8475969947027" lon="13.488602350711442"><ele>261.0</ele><time>2026-04-18T08:28:25Z</time></trkpt><trkpt lat="42.84746809709474" lon="13.48847322674806"><ele>261.0</ele><time>2026-04-18T08:28:26Z</time></trkpt><trkpt lat="42.84733312838918" lon="13.488355105453103"><ele>261.0</ele><time>2026-04-18T08:28:27Z</time></trkpt><trkpt lat="42.84719328701351" lon="13.488244574750524"><ele>261.0</ele><time>2026-04-18T08:28:28Z</time></trkpt><trkpt lat="42.84705234990406" lon="13.488137985636556"><ele>261.0</ele><time>2026-04-18T08:28:29Z</time></trkpt><trkpt lat="42.84690883166095" lon="13.488036188004376"><ele>261.0</ele><time>2026-04-18T08:28:30Z</time></trkpt><trkpt lat="42.84676624196813" lon="13.487934554067325"><ele>261.0</ele><time>2026-04-18T08:28:31Z</time></trkpt><trkpt lat="42.84661841285766" lon="13.487838088357192"><ele>262.6666666666667</ele><time>2026-04-18T08:28:32Z</time></trkpt><trkpt lat="42.84646039541471" lon="13.48775849586323"><ele>264.33333333333337</ele><time>2026-04-18T08:28:33Z</time></trkpt><trkpt lat="42.84629597128733" lon="13.487713614137903"><ele>266.0</ele><time>2026-04-18T08:28:34Z</time></trkpt><trkpt lat="42.84612324323347" lon="13.487694191578097"><ele>264.6666666666667</ele><time>2026-04-18T08:28:35Z</time></trkpt><trkpt lat="42.845953865862484" lon="13.487696237595022"><ele>263.3333333333333</ele><time>2026-04-18T08:28:36Z</time></trkpt><trkpt lat="42.84577862434667" lon="13.487674168349823"><ele>262.0</ele><time>2026-04-18T08:28:37Z</time></trkpt><trkpt lat="42.84560298020319" lon="13.48767580251866"><ele>262.0</ele><time>2026-04-18T08:28:38Z</time></trkpt><trkpt lat="42.8454282681477" lon="13.4876829311247"><ele>262.0</ele><time>2026-04-18T08:28:39Z</time></trkpt><trkpt lat="42.84525538160112" lon="13.487711494108572"><ele>262.0</ele><time>2026-04-18T08:28:40Z</time></trkpt><trkpt lat="42.845083459635546" lon="13.48775412038418"><ele>262.3333333333333</ele><time>2026-04-18T08:28:41Z</time></trkpt><trkpt lat="42.84491320566731" lon="13.487823636590205"><ele>262.6666666666667</ele><time>2026-04-18T08:28:42Z</time></trkpt><trkpt lat="42.84474363816127" lon="13.487871544869686"><ele>263.0</ele><time>2026-04-18T08:28:43Z</time></trkpt><trkpt lat="42.84457513744963" lon="13.487918345503722"><ele>258.6666666666667</ele><time>2026-04-18T08:28:44Z</time></trkpt><trkpt lat="42.84440814298231" lon="13.487966896555518"><ele>254.33333333333331</ele><time>2026-04-18T08:28:45Z</time></trkpt><trkpt lat="42.84423960514285" lon="13.488018185206101"><ele>250.0</ele><time>2026-04-18T08:28:46Z</time></trkpt><trkpt lat="42.844063131070726" lon="13.488046822864225"><ele>250.0</ele><time>2026-04-18T08:28:47Z</time></trkpt><trkpt lat="42.84389251137436" lon="13.488095568938183"><ele>250.0</ele><time>2026-04-18T08:28:48Z</time></trkpt><trkpt lat="42.84372686839369" lon="13.488143387888814"><ele>250.0</ele><time>2026-04-18T08:28:49Z</time></trkpt><trkpt lat="42.84356112875623" lon="13.488190207000194"><ele>251.33333333333331</ele><time>2026-04-18T08:28:50Z</time></trkpt><trkpt lat="42.84339310902016" lon="13.488237670206251"><ele>252.66666666666669</ele><time>2026-04-18T08:28:51Z</time></trkpt><trkpt lat="42.84323012327856" lon="13.488306645057067"><ele>254.0</ele><time>2026-04-18T08:28:52Z</time></trkpt><trkpt lat="42.84306270348378" lon="13.488331005000665"><ele>254.0</ele><time>2026-04-18T08:28:53Z</time></trkpt><trkpt lat="42.84290653147625" lon="13.48840107489738"><ele>254.0</ele><time>2026-04-18T08:28:54Z</time></trkpt><trkpt lat="42.842742845412566" lon="13.488448538398067"><ele>254.0</ele><time>2026-04-18T08:28:55Z</time></trkpt><trkpt lat="42.84257775691977" lon="13.488491710491841"><ele>255.33333333333334</ele><time>2026-04-18T08:28:56Z</time></trkpt><trkpt lat="42.842415541481856" lon="13.488531026404559"><ele>256.6666666666667</ele><time>2026-04-18T08:28:57Z</time></trkpt><trkpt lat="42.84225449557622" lon="13.488574534246455"><ele>258.0</ele><time>2026-04-18T08:28:58Z</time></trkpt><trkpt lat="42.84209014763936" lon="13.488623440393031"><ele>258.0</ele><time>2026-04-18T08:28:59Z</time></trkpt><trkpt lat="42.84192415119277" lon="13.488672328547437"><ele>258.0</ele><time>2026-04-18T08:29:00Z</time></trkpt><trkpt lat="42.8417606542003" lon="13.488726628377975"><ele>258.0</ele><time>2026-04-18T08:29:01Z</time></trkpt><trkpt lat="42.841603747294094" lon="13.488794225205599"><ele>254.33333333333331</ele><time>2026-04-18T08:29:02Z</time></trkpt><trkpt lat="42.84144032313411" lon="13.488837549891096"><ele>250.66666666666666</ele><time>2026-04-18T08:29:03Z</time></trkpt><trkpt lat="42.84128937144581" lon="13.4889273055078"><ele>247.0</ele><time>2026-04-18T08:29:04Z</time></trkpt><trkpt lat="42.841139167246325" lon="13.489020013428393"><ele>247.0</ele><time>2026-04-18T08:29:05Z</time></trkpt><trkpt lat="42.84098726412748" lon="13.48911376994458"><ele>247.0</ele><time>2026-04-18T08:29:06Z</time></trkpt><trkpt lat="42.840818304951206" lon="13.489217241224372"><ele>247.0</ele><time>2026-04-18T08:29:07Z</time></trkpt><trkpt lat="42.84064223253573" lon="13.489334029819329"><ele>246.0</ele><time>2026-04-18T08:29:08Z</time></trkpt><trkpt lat="42.84049540053646" lon="13.489471372907984"><ele>245.0</ele><time>2026-04-18T08:29:09Z</time></trkpt><trkpt lat="42.84037971177183" lon="13.489647460608962"><ele>244.0</ele><time>2026-04-18T08:29:10Z</time></trkpt><trkpt lat="42.84028819724176" lon="13.489854732354814"><ele>244.0</ele><time>2026-04-18T08:29:11Z</time></trkpt><trkpt lat="42.84020870064731" lon="13.490058400313474"><ele>244.0</ele><time>2026-04-18T08:29:12Z</time></trkpt><trkpt lat="42.84012843935058" lon="13.49025850037949"><ele>244.0</ele><time>2026-04-18T08:29:12.999Z</time></trkpt><trkpt lat="42.84004757590228" lon="13.490457577382399"><ele>244.0</ele><time>2026-04-18T08:29:13.999Z</time></trkpt><trkpt lat="42.83996267588718" lon="13.490645867320495"><ele>244.0</ele><time>2026-04-18T08:29:14.999Z</time></trkpt><trkpt lat="42.83986160488594" lon="13.490815285101494"><ele>244.0</ele><time>2026-04-18T08:29:15.999Z</time></trkpt><trkpt lat="42.83974673225401" lon="13.490972159246601"><ele>244.0</ele><time>2026-04-18T08:29:16.999Z</time></trkpt><trkpt lat="42.83962304632352" lon="13.491117499685627"><ele>244.0</ele><time>2026-04-18T08:29:17.999Z</time></trkpt><trkpt lat="42.839503201286114" lon="13.491261098386795"><ele>244.0</ele><time>2026-04-18T08:29:18.999Z</time></trkpt><trkpt lat="42.839389571086926" lon="13.491432212044824"><ele>244.66666666666666</ele><time>2026-04-18T08:29:19.999Z</time></trkpt><trkpt lat="42.83928176405255" lon="13.491601389449597"><ele>245.33333333333331</ele><time>2026-04-18T08:29:20.999Z</time></trkpt><trkpt lat="42.83916710912977" lon="13.49176467046682"><ele>246.0</ele><time>2026-04-18T08:29:21.999Z</time></trkpt><trkpt lat="42.8390457316915" lon="13.491917177316083"><ele>246.0</ele><time>2026-04-18T08:29:22.999Z</time></trkpt><trkpt lat="42.8389155115284" lon="13.492058942055296"><ele>246.0</ele><time>2026-04-18T08:29:23.999Z</time></trkpt><trkpt lat="42.83877897765522" lon="13.49217879286596"><ele>246.0</ele><time>2026-04-18T08:29:24.999Z</time></trkpt><trkpt lat="42.83863488092335" lon="13.492291576460644"><ele>245.66666666666669</ele><time>2026-04-18T08:29:25.999Z</time></trkpt><trkpt lat="42.83849122902124" lon="13.492426800981297"><ele>245.33333333333334</ele><time>2026-04-18T08:29:26.999Z</time></trkpt><trkpt lat="42.83833001095104" lon="13.492531617214558"><ele>245.0</ele><time>2026-04-18T08:29:27.999Z</time></trkpt><trkpt lat="42.838162121887045" lon="13.4926209524795"><ele>245.0</ele><time>2026-04-18T08:29:28.999Z</time></trkpt><trkpt lat="42.83798484524052" lon="13.492688145083202"><ele>245.0</ele><time>2026-04-18T08:29:29.999Z</time></trkpt><trkpt lat="42.83781041023891" lon="13.49277304919386"><ele>245.0</ele><time>2026-04-18T08:29:30.999Z</time></trkpt><trkpt lat="42.83763420302949" lon="13.492858083836143"><ele>242.33333333333334</ele><time>2026-04-18T08:29:31.999Z</time></trkpt><trkpt lat="42.83745750200328" lon="13.492942840026622"><ele>239.66666666666669</ele><time>2026-04-18T08:29:32.999Z</time></trkpt><trkpt lat="42.83728569940361" lon="13.493021603366595"><ele>237.0</ele><time>2026-04-18T08:29:33.999Z</time></trkpt><trkpt lat="42.83712252229942" lon="13.493105406958643"><ele>237.0</ele><time>2026-04-18T08:29:34.999Z</time></trkpt><trkpt lat="42.83695139790464" lon="13.493142772130117"><ele>237.0</ele><time>2026-04-18T08:29:35.999Z</time></trkpt><trkpt lat="42.83677571818892" lon="13.493163268166944"><ele>237.0</ele><time>2026-04-18T08:29:36.999Z</time></trkpt><trkpt lat="42.836601469973395" lon="13.493163291076034"><ele>237.0</ele><time>2026-04-18T08:29:37.999Z</time></trkpt><trkpt lat="42.836415585178884" lon="13.493163159058126"><ele>237.0</ele><time>2026-04-18T08:29:38.999Z</time></trkpt><trkpt lat="42.836229602338314" lon="13.493156520394859"><ele>237.0</ele><time>2026-04-18T08:29:39.999Z</time></trkpt><trkpt lat="42.83603968443415" lon="13.493139518333871"><ele>235.33333333333331</ele><time>2026-04-18T08:29:40.999Z</time></trkpt><trkpt lat="42.835848323974794" lon="13.493122979778144"><ele>233.66666666666666</ele><time>2026-04-18T08:29:41.999Z</time></trkpt><trkpt lat="42.83565832798093" lon="13.493108621499506"><ele>232.0</ele><time>2026-04-18T08:29:42.999Z</time></trkpt><trkpt lat="42.83546646610923" lon="13.493090534276794"><ele>232.0</ele><time>2026-04-18T08:29:43.999Z</time></trkpt><trkpt lat="42.83527781961816" lon="13.493072398738901"><ele>232.0</ele><time>2026-04-18T08:29:44.999Z</time></trkpt><trkpt lat="42.835090265059875" lon="13.49305815481945"><ele>232.0</ele><time>2026-04-18T08:29:45.999Z</time></trkpt><trkpt lat="42.834905900425795" lon="13.493054682160478"><ele>233.0</ele><time>2026-04-18T08:29:46.999Z</time></trkpt><trkpt lat="42.83472701470151" lon="13.493076186108079"><ele>234.0</ele><time>2026-04-18T08:29:47.999Z</time></trkpt><trkpt lat="42.834547577430705" lon="13.493107904336943"><ele>235.0</ele><time>2026-04-18T08:29:48.999Z</time></trkpt><trkpt lat="42.83437937292926" lon="13.493206581805438"><ele>237.66666666666666</ele><time>2026-04-18T08:29:49.999Z</time></trkpt><trkpt lat="42.83423625429896" lon="13.493358113266707"><ele>240.33333333333331</ele><time>2026-04-18T08:29:50.999Z</time></trkpt><trkpt lat="42.834095383783854" lon="13.493510583574299"><ele>243.0</ele><time>2026-04-18T08:29:51.999Z</time></trkpt><trkpt lat="42.83396274836003" lon="13.493671005869258"><ele>239.0</ele><time>2026-04-18T08:29:52.999Z</time></trkpt><trkpt lat="42.83381687740127" lon="13.493803442995278"><ele>235.0</ele><time>2026-04-18T08:29:53.999Z</time></trkpt><trkpt lat="42.83368190277146" lon="13.493951762609283"><ele>231.0</ele><time>2026-04-18T08:29:54.999Z</time></trkpt><trkpt lat="42.833550559905554" lon="13.494097549297662"><ele>232.66666666666669</ele><time>2026-04-18T08:29:55.999Z</time></trkpt><trkpt lat="42.83341479259214" lon="13.494248601915551"><ele>234.33333333333334</ele><time>2026-04-18T08:29:56.999Z</time></trkpt><trkpt lat="42.83327594735583" lon="13.494403078964135"><ele>236.0</ele><time>2026-04-18T08:29:57.999Z</time></trkpt><trkpt lat="42.833133477626944" lon="13.494561588521677"><ele>233.33333333333334</ele><time>2026-04-18T08:29:58.999Z</time></trkpt><trkpt lat="42.83298277224829" lon="13.494729737903594"><ele>230.66666666666669</ele><time>2026-04-18T08:29:59.999Z</time></trkpt><trkpt lat="42.832841520446074" lon="13.494888950803874"><ele>228.0</ele><time>2026-04-18T08:30:00.999Z</time></trkpt><trkpt lat="42.83269471115588" lon="13.495053797676055"><ele>228.66666666666669</ele><time>2026-04-18T08:30:01.998Z</time></trkpt><trkpt lat="42.832566437241965" lon="13.495223746772783"><ele>229.33333333333334</ele><time>2026-04-18T08:30:02.998Z</time></trkpt><trkpt lat="42.832430866979756" lon="13.495372649949685"><ele>230.0</ele><time>2026-04-18T08:30:03.998Z</time></trkpt><trkpt lat="42.83228294386255" lon="13.49552303905286"><ele>230.0</ele><time>2026-04-18T08:30:04.998Z</time></trkpt><trkpt lat="42.8321183274809" lon="13.495677641126944"><ele>230.0</ele><time>2026-04-18T08:30:05.998Z</time></trkpt><trkpt lat="42.831957926807114" lon="13.495768820528689"><ele>230.0</ele><time>2026-04-18T08:30:06.998Z</time></trkpt><trkpt lat="42.831782785901325" lon="13.4958230548287"><ele>230.33333333333334</ele><time>2026-04-18T08:30:07.997Z</time></trkpt><trkpt lat="42.831604029307485" lon="13.495866038082575"><ele>230.66666666666669</ele><time>2026-04-18T08:30:08.997Z</time></trkpt><trkpt lat="42.83142912379459" lon="13.4959144578486"><ele>231.0</ele><time>2026-04-18T08:30:09.997Z</time></trkpt><trkpt lat="42.831274381766015" lon="13.49596007542997"><ele>231.0</ele><time>2026-04-18T08:30:10.997Z</time></trkpt><trkpt lat="42.83110933131851" lon="13.49600857717495"><ele>231.0</ele><time>2026-04-18T08:30:11.997Z</time></trkpt><trkpt lat="42.83094386768778" lon="13.49605311694312"><ele>231.0</ele><time>2026-04-18T08:30:12.997Z</time></trkpt><trkpt lat="42.830778772978675" lon="13.496094519302751"><ele>231.66666666666669</ele><time>2026-04-18T08:30:13.997Z</time></trkpt><trkpt lat="42.830613632149344" lon="13.496123632995797"><ele>232.33333333333334</ele><time>2026-04-18T08:30:14.997Z</time></trkpt><trkpt lat="42.83043392206194" lon="13.496141300506983"><ele>233.0</ele><time>2026-04-18T08:30:15.999Z</time></trkpt><trkpt lat="42.83025154741254" lon="13.496142445176533"><ele>232.66666666666669</ele><time>2026-04-18T08:30:16.999Z</time></trkpt><trkpt lat="42.830067904425384" lon="13.496125594395648"><ele>232.33333333333331</ele><time>2026-04-18T08:30:17.999Z</time></trkpt><trkpt lat="42.82988537375445" lon="13.496107390640082"><ele>232.0</ele><time>2026-04-18T08:30:18.999Z</time></trkpt><trkpt lat="42.82969898904777" lon="13.496093724319174"><ele>232.0</ele><time>2026-04-18T08:30:19.999Z</time></trkpt><trkpt lat="42.82951437489498" lon="13.496079516578007"><ele>232.0</ele><time>2026-04-18T08:30:20.999Z</time></trkpt><trkpt lat="42.829328381452015" lon="13.496062727032559"><ele>232.0</ele><time>2026-04-18T08:30:21.999Z</time></trkpt><trkpt lat="42.829138897758" lon="13.496047150301045"><ele>231.66666666666666</ele><time>2026-04-18T08:30:22.999Z</time></trkpt><trkpt lat="42.82894971101671" lon="13.496029932251131"><ele>231.33333333333331</ele><time>2026-04-18T08:30:23.999Z</time></trkpt><trkpt lat="42.82876086205778" lon="13.496016074422482"><ele>231.0</ele><time>2026-04-18T08:30:24.999Z</time></trkpt><trkpt lat="42.828575409141045" lon="13.49600911693612"><ele>230.66666666666669</ele><time>2026-04-18T08:30:25.999Z</time></trkpt><trkpt lat="42.828391253806245" lon="13.496017568670617"><ele>230.33333333333334</ele><time>2026-04-18T08:30:26.999Z</time></trkpt><trkpt lat="42.828208356835894" lon="13.496044157170038"><ele>230.0</ele><time>2026-04-18T08:30:27.999Z</time></trkpt><trkpt lat="42.828024999802004" lon="13.496083890038724"><ele>230.0</ele><time>2026-04-18T08:30:28.999Z</time></trkpt><trkpt lat="42.82784515237095" lon="13.496133394498203"><ele>230.0</ele><time>2026-04-18T08:30:29.999Z</time></trkpt><trkpt lat="42.82766499012936" lon="13.49618746679594"><ele>230.0</ele><time>2026-04-18T08:30:30.999Z</time></trkpt><trkpt lat="42.82749088232617" lon="13.496248739779883"><ele>227.33333333333334</ele><time>2026-04-18T08:30:31.999Z</time></trkpt><trkpt lat="42.827316520543725" lon="13.496315707428089"><ele>224.66666666666669</ele><time>2026-04-18T08:30:32.999Z</time></trkpt><trkpt lat="42.82714444466632" lon="13.496386163044146"><ele>222.0</ele><time>2026-04-18T08:30:33.999Z</time></trkpt><trkpt lat="42.826972915715096" lon="13.49646075965697"><ele>225.33333333333331</ele><time>2026-04-18T08:30:34.999Z</time></trkpt><trkpt lat="42.82680390330313" lon="13.496531571034696"><ele>228.66666666666666</ele><time>2026-04-18T08:30:35.999Z</time></trkpt><trkpt lat="42.82663611588088" lon="13.496609784535735"><ele>232.0</ele><time>2026-04-18T08:30:36.999Z</time></trkpt><trkpt lat="42.8264772208818" lon="13.496702929321303"><ele>232.0</ele><time>2026-04-18T08:30:37.999Z</time></trkpt><trkpt lat="42.826314824351265" lon="13.49678185914983"><ele>232.0</ele><time>2026-04-18T08:30:38.999Z</time></trkpt><trkpt lat="42.82616678370455" lon="13.496912658332851"><ele>232.0</ele><time>2026-04-18T08:30:39.999Z</time></trkpt><trkpt lat="42.82603510967742" lon="13.497086031796972"><ele>229.33333333333331</ele><time>2026-04-18T08:30:40.999Z</time></trkpt><trkpt lat="42.82590087652784" lon="13.497255525336895"><ele>226.66666666666669</ele><time>2026-04-18T08:30:41.999Z</time></trkpt><trkpt lat="42.825773511343584" lon="13.497429671865167"><ele>224.0</ele><time>2026-04-18T08:30:42.999Z</time></trkpt><trkpt lat="42.82563611851992" lon="13.497609761038445"><ele>224.0</ele><time>2026-04-18T08:30:43.999Z</time></trkpt><trkpt lat="42.825499375620254" lon="13.497786843189127"><ele>224.0</ele><time>2026-04-18T08:30:44.999Z</time></trkpt><trkpt lat="42.82536449962095" lon="13.497967186783152"><ele>224.0</ele><time>2026-04-18T08:30:45.999Z</time></trkpt><trkpt lat="42.825229195316204" lon="13.49814716030487"><ele>222.66666666666669</ele><time>2026-04-18T08:30:46.999Z</time></trkpt><trkpt lat="42.82509437687415" lon="13.498325067259325"><ele>221.33333333333331</ele><time>2026-04-18T08:30:47.999Z</time></trkpt><trkpt lat="42.82495269357834" lon="13.498482475015578"><ele>220.0</ele><time>2026-04-18T08:30:48.999Z</time></trkpt><trkpt lat="42.824822959274336" lon="13.498660502540602"><ele>218.0</ele><time>2026-04-18T08:30:49.999Z</time></trkpt><trkpt lat="42.82472691808518" lon="13.498873811184515"><ele>216.0</ele><time>2026-04-18T08:30:50.999Z</time></trkpt><trkpt lat="42.82463731942983" lon="13.499085726491517"><ele>214.0</ele><time>2026-04-18T08:30:51.999Z</time></trkpt><trkpt lat="42.82455950124956" lon="13.499308585262725"><ele>214.0</ele><time>2026-04-18T08:30:52.999Z</time></trkpt><trkpt lat="42.824468166427444" lon="13.499522167572652"><ele>214.0</ele><time>2026-04-18T08:30:53.999Z</time></trkpt><trkpt lat="42.82439945207009" lon="13.499760560108829"><ele>214.0</ele><time>2026-04-18T08:30:54.999Z</time></trkpt><trkpt lat="42.824310094889505" lon="13.499985243824101"><ele>214.66666666666666</ele><time>2026-04-18T08:30:55.999Z</time></trkpt><trkpt lat="42.824219696843315" lon="13.500202633182578"><ele>215.33333333333331</ele><time>2026-04-18T08:30:56.999Z</time></trkpt><trkpt lat="42.824117191609226" lon="13.500405741784299"><ele>216.0</ele><time>2026-04-18T08:30:57.999Z</time></trkpt><trkpt lat="42.824014155932346" lon="13.500558689454213"><ele>216.0</ele><time>2026-04-18T08:30:58.999Z</time></trkpt><trkpt lat="42.82389608839497" lon="13.500661908702916"><ele>216.0</ele><time>2026-04-18T08:30:59.999Z</time></trkpt><trkpt lat="42.8237445595064" lon="13.50073075363062"><ele>216.0</ele><time>2026-04-18T08:31:00.999Z</time></trkpt><trkpt lat="42.8235946361667" lon="13.500833877262101"><ele>217.66666666666669</ele><time>2026-04-18T08:31:01.999Z</time></trkpt><trkpt lat="42.82344592244688" lon="13.500929949581991"><ele>219.33333333333334</ele><time>2026-04-18T08:31:02.999Z</time></trkpt><trkpt lat="42.823299306081815" lon="13.501041153626534"><ele>221.0</ele><time>2026-04-18T08:31:03.999Z</time></trkpt><trkpt lat="42.8231438475156" lon="13.501144064978273"><ele>220.33333333333334</ele><time>2026-04-18T08:31:04.999Z</time></trkpt><trkpt lat="42.82300128597805" lon="13.501270293606934"><ele>219.66666666666669</ele><time>2026-04-18T08:31:05.999Z</time></trkpt><trkpt lat="42.82286188757311" lon="13.50141609492486"><ele>219.0</ele><time>2026-04-18T08:31:06.999Z</time></trkpt><trkpt lat="42.822709925612955" lon="13.501540005600004"><ele>221.33333333333331</ele><time>2026-04-18T08:31:07.999Z</time></trkpt><trkpt lat="42.822553486728474" lon="13.501661616755792"><ele>223.66666666666666</ele><time>2026-04-18T08:31:08.999Z</time></trkpt><trkpt lat="42.82239421680541" lon="13.50176900207842"><ele>226.0</ele><time>2026-04-18T08:31:09.999Z</time></trkpt><trkpt lat="42.822236987691134" lon="13.501863383216584"><ele>226.0</ele><time>2026-04-18T08:31:10.999Z</time></trkpt><trkpt lat="42.82208193097999" lon="13.501947373642665"><ele>226.0</ele><time>2026-04-18T08:31:11.999Z</time></trkpt><trkpt lat="42.82193727629971" lon="13.502026237138264"><ele>226.0</ele><time>2026-04-18T08:31:12.999Z</time></trkpt><trkpt lat="42.82179383738366" lon="13.502091771956142"><ele>225.66666666666666</ele><time>2026-04-18T08:31:13.999Z</time></trkpt><trkpt lat="42.82166668514886" lon="13.502219595737255"><ele>225.33333333333331</ele><time>2026-04-18T08:31:14.999Z</time></trkpt><trkpt lat="42.82155919918883" lon="13.502376652287033"><ele>225.0</ele><time>2026-04-18T08:31:15.999Z</time></trkpt><trkpt lat="42.82146858642524" lon="13.502544157007428"><ele>225.0</ele><time>2026-04-18T08:31:16.999Z</time></trkpt><trkpt lat="42.82139187675651" lon="13.502731206119597"><ele>225.0</ele><time>2026-04-18T08:31:17.999Z</time></trkpt><trkpt lat="42.8213437355885" lon="13.502934239925395"><ele>225.0</ele><time>2026-04-18T08:31:18.999Z</time></trkpt><trkpt lat="42.82132601592079" lon="13.503139913652015"><ele>222.0</ele><time>2026-04-18T08:31:19.999Z</time></trkpt><trkpt lat="42.82133158792542" lon="13.50335158519411"><ele>219.0</ele><time>2026-04-18T08:31:20.998Z</time></trkpt><trkpt lat="42.82135682161153" lon="13.503565187845362"><ele>216.0</ele><time>2026-04-18T08:31:21.998Z</time></trkpt><trkpt lat="42.821395991147845" lon="13.503764567549274"><ele>216.0</ele><time>2026-04-18T08:31:22.998Z</time></trkpt><trkpt lat="42.821424705099346" lon="13.503978012330998"><ele>216.0</ele><time>2026-04-18T08:31:23.998Z</time></trkpt><trkpt lat="42.82145364662887" lon="13.504183977117357"><ele>216.0</ele><time>2026-04-18T08:31:24.998Z</time></trkpt><trkpt lat="42.821462590476486" lon="13.504388343283276"><ele>216.0</ele><time>2026-04-18T08:31:25.998Z</time></trkpt><trkpt lat="42.82148497633925" lon="13.504574234901371"><ele>216.0</ele><time>2026-04-18T08:31:26.998Z</time></trkpt><trkpt lat="42.82150568947071" lon="13.50475314016508"><ele>216.0</ele><time>2026-04-18T08:31:27.998Z</time></trkpt><trkpt lat="42.82152265169634" lon="13.504921382065053"><ele>216.0</ele><time>2026-04-18T08:31:28.998Z</time></trkpt><trkpt lat="42.82153557321782" lon="13.505067673662634"><ele>216.0</ele><time>2026-04-18T08:31:29.998Z</time></trkpt><trkpt lat="42.82150718228963" lon="13.505202600537979"><ele>216.00000000000003</ele><time>2026-04-18T08:31:30.998Z</time></trkpt><trkpt lat="42.82146785225421" lon="13.50530689566067"><ele>216.00000000000003</ele><time>2026-04-18T08:31:31.998Z</time></trkpt><trkpt lat="42.8214132501487" lon="13.505428659922854"><ele>216.0</ele><time>2026-04-18T08:31:33.998Z</time></trkpt><trkpt lat="42.82134631289631" lon="13.505451441430987"><ele>216.0</ele><time>2026-04-18T08:31:35.998Z</time></trkpt><trkpt lat="42.82121894019118" lon="13.505339287644775"><ele>216.75</ele><time>2026-04-18T08:31:37.998Z</time></trkpt><trkpt lat="42.821129672177754" lon="13.505291387070807"><ele>217.5</ele><time>2026-04-18T08:31:38.998Z</time></trkpt><trkpt lat="42.82102106864552" lon="13.505215204200047"><ele>218.25</ele><time>2026-04-18T08:31:39.998Z</time></trkpt><trkpt lat="42.82091375492843" lon="13.505099039943763"><ele>219.0</ele><time>2026-04-18T08:31:40.998Z</time></trkpt><trkpt lat="42.82079609813924" lon="13.504995143517316"><ele>221.33333333333331</ele><time>2026-04-18T08:31:41.998Z</time></trkpt><trkpt lat="42.82064788837727" lon="13.504890386227393"><ele>223.66666666666666</ele><time>2026-04-18T08:31:42.998Z</time></trkpt><trkpt lat="42.82050482387091" lon="13.504763165355998"><ele>226.0</ele><time>2026-04-18T08:31:43.998Z</time></trkpt><trkpt lat="42.820364512023794" lon="13.504620513515466"><ele>227.0</ele><time>2026-04-18T08:31:44.998Z</time></trkpt><trkpt lat="42.82019579255295" lon="13.504514802511082"><ele>228.0</ele><time>2026-04-18T08:31:45.998Z</time></trkpt><trkpt lat="42.820021590885965" lon="13.504389629746168"><ele>229.0</ele><time>2026-04-18T08:31:46.998Z</time></trkpt><trkpt lat="42.81983971220997" lon="13.50427994421032"><ele>229.0</ele><time>2026-04-18T08:31:47.998Z</time></trkpt><trkpt lat="42.81964912695045" lon="13.504193256526106"><ele>229.0</ele><time>2026-04-18T08:31:48.998Z</time></trkpt><trkpt lat="42.81945919508885" lon="13.504118560113728"><ele>229.0</ele><time>2026-04-18T08:31:49.998Z</time></trkpt><trkpt lat="42.819278951383865" lon="13.50406981762807"><ele>225.66666666666666</ele><time>2026-04-18T08:31:50.998Z</time></trkpt><trkpt lat="42.81911208044668" lon="13.504047639065432"><ele>222.33333333333331</ele><time>2026-04-18T08:31:51.998Z</time></trkpt><trkpt lat="42.818925157410916" lon="13.504016029962205"><ele>219.0</ele><time>2026-04-18T08:31:52.998Z</time></trkpt><trkpt lat="42.81873146412045" lon="13.50398152073604"><ele>219.0</ele><time>2026-04-18T08:31:53.998Z</time></trkpt><trkpt lat="42.81853807970363" lon="13.503944639647683"><ele>219.0</ele><time>2026-04-18T08:31:54.998Z</time></trkpt><trkpt lat="42.81834680581686" lon="13.503902428533465"><ele>219.0</ele><time>2026-04-18T08:31:55.998Z</time></trkpt><trkpt lat="42.818151515993975" lon="13.503858651923338"><ele>219.33333333333331</ele><time>2026-04-18T08:31:56.998Z</time></trkpt><trkpt lat="42.81795178386718" lon="13.503816809324837"><ele>219.66666666666666</ele><time>2026-04-18T08:31:57.998Z</time></trkpt><trkpt lat="42.81775107841798" lon="13.503780872293618"><ele>220.0</ele><time>2026-04-18T08:31:58.998Z</time></trkpt><trkpt lat="42.81755120889617" lon="13.50374682445541"><ele>227.33333333333331</ele><time>2026-04-18T08:31:59.998Z</time></trkpt><trkpt lat="42.81735044424909" lon="13.503714459169803"><ele>234.66666666666669</ele><time>2026-04-18T08:32:00.998Z</time></trkpt><trkpt lat="42.81714966346188" lon="13.503680352256717"><ele>242.0</ele><time>2026-04-18T08:32:01.998Z</time></trkpt><trkpt lat="42.81694673181698" lon="13.503644082326337"><ele>238.66666666666669</ele><time>2026-04-18T08:32:02.998Z</time></trkpt><trkpt lat="42.8167457508367" lon="13.503603278257742"><ele>235.33333333333331</ele><time>2026-04-18T08:32:03.998Z</time></trkpt><trkpt lat="42.81655027760107" lon="13.503559237990927"><ele>232.0</ele><time>2026-04-18T08:32:04.998Z</time></trkpt><trkpt lat="42.81635375081546" lon="13.50351888651837"><ele>232.0</ele><time>2026-04-18T08:32:05.998Z</time></trkpt><trkpt lat="42.81615675942397" lon="13.503481819750016"><ele>232.0</ele><time>2026-04-18T08:32:06.998Z</time></trkpt><trkpt lat="42.81596212518235" lon="13.503453452408356"><ele>232.0</ele><time>2026-04-18T08:32:07.998Z</time></trkpt><trkpt lat="42.815766749271035" lon="13.503423353225513"><ele>232.0</ele><time>2026-04-18T08:32:08.998Z</time></trkpt><trkpt lat="42.81557161927102" lon="13.503374482652497"><ele>232.0</ele><time>2026-04-18T08:32:09.998Z</time></trkpt><trkpt lat="42.81537363966952" lon="13.503357895119334"><ele>232.0</ele><time>2026-04-18T08:32:10.998Z</time></trkpt><trkpt lat="42.81517720665822" lon="13.503345415694515"><ele>231.0</ele><time>2026-04-18T08:32:11.998Z</time></trkpt><trkpt lat="42.81497146462605" lon="13.503335877985917"><ele>230.0</ele><time>2026-04-18T08:32:12.998Z</time></trkpt><trkpt lat="42.81474862878494" lon="13.503338236628045"><ele>229.0</ele><time>2026-04-18T08:32:13.998Z</time></trkpt><trkpt lat="42.814543744649306" lon="13.503328508525879"><ele>229.0</ele><time>2026-04-18T08:32:14.998Z</time></trkpt><trkpt lat="42.81434381625586" lon="13.503318952956729"><ele>229.0</ele><time>2026-04-18T08:32:15.998Z</time></trkpt><trkpt lat="42.814143912139514" lon="13.503307298536958"><ele>229.0</ele><time>2026-04-18T08:32:16.998Z</time></trkpt><trkpt lat="42.81394225577964" lon="13.503292306406072"><ele>228.66666666666666</ele><time>2026-04-18T08:32:17.997Z</time></trkpt><trkpt lat="42.81374016594156" lon="13.503276833673258"><ele>228.33333333333331</ele><time>2026-04-18T08:32:18.997Z</time></trkpt><trkpt lat="42.81353966564131" lon="13.503264188022047"><ele>228.0</ele><time>2026-04-18T08:32:19.997Z</time></trkpt><trkpt lat="42.813335692620505" lon="13.503252555024709"><ele>229.0</ele><time>2026-04-18T08:32:20.999Z</time></trkpt><trkpt lat="42.813139677955064" lon="13.503229768718318"><ele>230.0</ele><time>2026-04-18T08:32:21.999Z</time></trkpt><trkpt lat="42.81294254082717" lon="13.503183370332106"><ele>231.0</ele><time>2026-04-18T08:32:22.999Z</time></trkpt><trkpt lat="42.812749554105274" lon="13.503110496449027"><ele>229.66666666666669</ele><time>2026-04-18T08:32:23.999Z</time></trkpt><trkpt lat="42.81255935557156" lon="13.503025472949675"><ele>228.33333333333334</ele><time>2026-04-18T08:32:24.999Z</time></trkpt><trkpt lat="42.81237354208475" lon="13.502929347245505"><ele>227.0</ele><time>2026-04-18T08:32:25.999Z</time></trkpt><trkpt lat="42.812187506308284" lon="13.502823480276167"><ele>230.0</ele><time>2026-04-18T08:32:26.999Z</time></trkpt><trkpt lat="42.81200444630941" lon="13.50271762388132"><ele>233.0</ele><time>2026-04-18T08:32:27.999Z</time></trkpt><trkpt lat="42.81181821690896" lon="13.502613482810318"><ele>236.0</ele><time>2026-04-18T08:32:28.999Z</time></trkpt><trkpt lat="42.811630080391275" lon="13.502509141223237"><ele>236.0</ele><time>2026-04-18T08:32:29.999Z</time></trkpt><trkpt lat="42.81144225284391" lon="13.502404102146814"><ele>236.0</ele><time>2026-04-18T08:32:30.999Z</time></trkpt><trkpt lat="42.81125759010754" lon="13.502294092693601"><ele>236.0</ele><time>2026-04-18T08:32:31.999Z</time></trkpt><trkpt lat="42.81107397374643" lon="13.502184346581732"><ele>238.66666666666669</ele><time>2026-04-18T08:32:32.999Z</time></trkpt><trkpt lat="42.81089128208051" lon="13.50207282542451"><ele>241.33333333333331</ele><time>2026-04-18T08:32:33.999Z</time></trkpt><trkpt lat="42.81070415971224" lon="13.5019455741574"><ele>244.0</ele><time>2026-04-18T08:32:34.999Z</time></trkpt><trkpt lat="42.810538829062985" lon="13.50178934159007"><ele>244.0</ele><time>2026-04-18T08:32:35.999Z</time></trkpt><trkpt lat="42.8103766950355" lon="13.501637837700812"><ele>244.0</ele><time>2026-04-18T08:32:36.999Z</time></trkpt><trkpt lat="42.81021742699147" lon="13.501476165617186"><ele>244.0</ele><time>2026-04-18T08:32:37.999Z</time></trkpt><trkpt lat="42.810062984867564" lon="13.501303666315653"><ele>245.33333333333331</ele><time>2026-04-18T08:32:38.999Z</time></trkpt><trkpt lat="42.80991172327186" lon="13.501127570008013"><ele>246.66666666666669</ele><time>2026-04-18T08:32:39.999Z</time></trkpt><trkpt lat="42.80976625183055" lon="13.50094147611142"><ele>248.0</ele><time>2026-04-18T08:32:40.999Z</time></trkpt><trkpt lat="42.80963120293161" lon="13.50074490069452"><ele>248.0</ele><time>2026-04-18T08:32:41.999Z</time></trkpt><trkpt lat="42.809504848246796" lon="13.50053325278114"><ele>248.0</ele><time>2026-04-18T08:32:42.999Z</time></trkpt><trkpt lat="42.80938803225312" lon="13.500311996136073"><ele>248.0</ele><time>2026-04-18T08:32:43.999Z</time></trkpt><trkpt lat="42.80927730904217" lon="13.500086666838515"><ele>244.66666666666669</ele><time>2026-04-18T08:32:44.999Z</time></trkpt><trkpt lat="42.80917103501549" lon="13.49985308897086"><ele>241.33333333333331</ele><time>2026-04-18T08:32:45.999Z</time></trkpt><trkpt lat="42.80907186736446" lon="13.499609189085689"><ele>238.0</ele><time>2026-04-18T08:32:46.999Z</time></trkpt><trkpt lat="42.80898307297456" lon="13.49935905688972"><ele>238.0</ele><time>2026-04-18T08:32:47.999Z</time></trkpt><trkpt lat="42.8089036860319" lon="13.499106021378426"><ele>238.0</ele><time>2026-04-18T08:32:48.999Z</time></trkpt><trkpt lat="42.808828551846595" lon="13.498851675952638"><ele>238.0</ele><time>2026-04-18T08:32:49.999Z</time></trkpt><trkpt lat="42.808753824971845" lon="13.498591349399836"><ele>237.0</ele><time>2026-04-18T08:32:50.999Z</time></trkpt><trkpt lat="42.80867576588493" lon="13.498337741690733"><ele>236.0</ele><time>2026-04-18T08:32:51.999Z</time></trkpt><trkpt lat="42.80860192477474" lon="13.498087046223702"><ele>235.0</ele><time>2026-04-18T08:32:52.999Z</time></trkpt><trkpt lat="42.80852745722867" lon="13.49783138058545"><ele>234.0</ele><time>2026-04-18T08:32:53.999Z</time></trkpt><trkpt lat="42.808452647136065" lon="13.497577641480213"><ele>233.0</ele><time>2026-04-18T08:32:54.999Z</time></trkpt><trkpt lat="42.808374630723534" lon="13.497321776780767"><ele>232.0</ele><time>2026-04-18T08:32:55.999Z</time></trkpt><trkpt lat="42.80829565607602" lon="13.497070989236647"><ele>232.0</ele><time>2026-04-18T08:32:56.999Z</time></trkpt><trkpt lat="42.80821506432176" lon="13.496817125210697"><ele>232.0</ele><time>2026-04-18T08:32:57.999Z</time></trkpt><trkpt lat="42.80813589412331" lon="13.496561771632347"><ele>232.0</ele><time>2026-04-18T08:32:58.999Z</time></trkpt><trkpt lat="42.8080591499034" lon="13.496305971342583"><ele>233.66666666666666</ele><time>2026-04-18T08:32:59.999Z</time></trkpt><trkpt lat="42.80798417391506" lon="13.49604952602488"><ele>235.33333333333331</ele><time>2026-04-18T08:33:00.999Z</time></trkpt><trkpt lat="42.807906552052145" lon="13.495788433326481"><ele>237.0</ele><time>2026-04-18T08:33:01.999Z</time></trkpt><trkpt lat="42.807827141032384" lon="13.495523247082762"><ele>236.0</ele><time>2026-04-18T08:33:02.999Z</time></trkpt><trkpt lat="42.807751309426955" lon="13.495263858432011"><ele>235.0</ele><time>2026-04-18T08:33:03.999Z</time></trkpt><trkpt lat="42.807676074057" lon="13.495008549488341"><ele>234.0</ele><time>2026-04-18T08:33:04.999Z</time></trkpt><trkpt lat="42.807597211209284" lon="13.494746843650022"><ele>236.0</ele><time>2026-04-18T08:33:05.999Z</time></trkpt><trkpt lat="42.807517592723926" lon="13.49448511879887"><ele>238.0</ele><time>2026-04-18T08:33:06.999Z</time></trkpt><trkpt lat="42.80743890706119" lon="13.49422972785926"><ele>240.0</ele><time>2026-04-18T08:33:07.999Z</time></trkpt><trkpt lat="42.80735805096103" lon="13.493974934932405"><ele>238.0</ele><time>2026-04-18T08:33:08.999Z</time></trkpt><trkpt lat="42.80727087991888" lon="13.493720892286058"><ele>236.0</ele><time>2026-04-18T08:33:09.999Z</time></trkpt><trkpt lat="42.80717770592637" lon="13.493467490192936"><ele>234.0</ele><time>2026-04-18T08:33:10.999Z</time></trkpt><trkpt lat="42.80708073928543" lon="13.493226211774479"><ele>234.0</ele><time>2026-04-18T08:33:11.999Z</time></trkpt><trkpt lat="42.806976235414936" lon="13.492986773406964"><ele>234.0</ele><time>2026-04-18T08:33:12.999Z</time></trkpt><trkpt lat="42.80686734120491" lon="13.492754192609075"><ele>234.0</ele><time>2026-04-18T08:33:13.999Z</time></trkpt><trkpt lat="42.80675516864668" lon="13.49251893152712"><ele>234.66666666666669</ele><time>2026-04-18T08:33:14.999Z</time></trkpt><trkpt lat="42.80663619982227" lon="13.492286796885395"><ele>235.33333333333334</ele><time>2026-04-18T08:33:15.999Z</time></trkpt><trkpt lat="42.806522248940496" lon="13.492050400227566"><ele>236.0</ele><time>2026-04-18T08:33:16.999Z</time></trkpt><trkpt lat="42.80641807276193" lon="13.491812067306205"><ele>236.0</ele><time>2026-04-18T08:33:17.999Z</time></trkpt><trkpt lat="42.80630804406151" lon="13.49157465032797"><ele>236.0</ele><time>2026-04-18T08:33:18.999Z</time></trkpt><trkpt lat="42.80619578496956" lon="13.491336870629429"><ele>236.0</ele><time>2026-04-18T08:33:19.999Z</time></trkpt><trkpt lat="42.806083552846154" lon="13.491094369837281"><ele>237.0</ele><time>2026-04-18T08:33:20.999Z</time></trkpt><trkpt lat="42.8059687174554" lon="13.49085215596456"><ele>238.0</ele><time>2026-04-18T08:33:21.999Z</time></trkpt><trkpt lat="42.805854993302994" lon="13.49061027992133"><ele>239.0</ele><time>2026-04-18T08:33:22.999Z</time></trkpt><trkpt lat="42.80573835731723" lon="13.490359538647077"><ele>236.66666666666669</ele><time>2026-04-18T08:33:23.999Z</time></trkpt><trkpt lat="42.805623327247424" lon="13.490117445662907"><ele>234.33333333333331</ele><time>2026-04-18T08:33:24.999Z</time></trkpt><trkpt lat="42.80550711603682" lon="13.489874003678944"><ele>232.0</ele><time>2026-04-18T08:33:25.999Z</time></trkpt><trkpt lat="42.80539152049997" lon="13.489633387299866"><ele>231.33333333333331</ele><time>2026-04-18T08:33:26.999Z</time></trkpt><trkpt lat="42.80527625242018" lon="13.489393435348417"><ele>230.66666666666669</ele><time>2026-04-18T08:33:27.998Z</time></trkpt><trkpt lat="42.805157761217515" lon="13.489148297467052"><ele>230.0</ele><time>2026-04-18T08:33:28.998Z</time></trkpt><trkpt lat="42.8050392470327" lon="13.48890152085186"><ele>231.66666666666669</ele><time>2026-04-18T08:33:29.998Z</time></trkpt><trkpt lat="42.8049227231526" lon="13.48865625736811"><ele>233.33333333333331</ele><time>2026-04-18T08:33:30.998Z</time></trkpt><trkpt lat="42.80480734784538" lon="13.488408374427642"><ele>235.0</ele><time>2026-04-18T08:33:31.998Z</time></trkpt><trkpt lat="42.80468985119912" lon="13.488157594689824"><ele>235.66666666666666</ele><time>2026-04-18T08:33:32.998Z</time></trkpt><trkpt lat="42.80457367462988" lon="13.487910732636257"><ele>236.33333333333331</ele><time>2026-04-18T08:33:33.998Z</time></trkpt><trkpt lat="42.804455595934634" lon="13.487659242520271"><ele>237.0</ele><time>2026-04-18T08:33:34.998Z</time></trkpt><trkpt lat="42.80433947955059" lon="13.487402678059563"><ele>237.66666666666669</ele><time>2026-04-18T08:33:35.998Z</time></trkpt><trkpt lat="42.80422997454755" lon="13.487145580217833"><ele>238.33333333333334</ele><time>2026-04-18T08:33:36.998Z</time></trkpt><trkpt lat="42.804133454875675" lon="13.486881743173813"><ele>239.0</ele><time>2026-04-18T08:33:37.998Z</time></trkpt><trkpt lat="42.804030813688925" lon="13.486612500382925"><ele>239.0</ele><time>2026-04-18T08:33:38.998Z</time></trkpt><trkpt lat="42.803940636870216" lon="13.486343343885904"><ele>239.0</ele><time>2026-04-18T08:33:39.998Z</time></trkpt><trkpt lat="42.80385416455301" lon="13.486071790160981"><ele>239.0</ele><time>2026-04-18T08:33:40.998Z</time></trkpt><trkpt lat="42.80377588584188" lon="13.485797003900844"><ele>239.66666666666669</ele><time>2026-04-18T08:33:41.998Z</time></trkpt><trkpt lat="42.803703926153176" lon="13.485518395054404"><ele>240.33333333333331</ele><time>2026-04-18T08:33:42.998Z</time></trkpt><trkpt lat="42.803638470521676" lon="13.485231794960908"><ele>241.0</ele><time>2026-04-18T08:33:43.998Z</time></trkpt><trkpt lat="42.803578885556774" lon="13.484946785008475"><ele>241.66666666666666</ele><time>2026-04-18T08:33:44.998Z</time></trkpt><trkpt lat="42.80352527179704" lon="13.484660985308603"><ele>242.33333333333331</ele><time>2026-04-18T08:33:45.998Z</time></trkpt><trkpt lat="42.80347689277716" lon="13.484373974131044"><ele>243.0</ele><time>2026-04-18T08:33:46.998Z</time></trkpt><trkpt lat="42.80343076025838" lon="13.484084902086911"><ele>242.33333333333331</ele><time>2026-04-18T08:33:47.998Z</time></trkpt><trkpt lat="42.80338517127413" lon="13.483795266060477"><ele>241.66666666666666</ele><time>2026-04-18T08:33:48.998Z</time></trkpt><trkpt lat="42.80333474109848" lon="13.483509333621768"><ele>241.0</ele><time>2026-04-18T08:33:49.998Z</time></trkpt><trkpt lat="42.80328844277762" lon="13.483216516462525"><ele>241.0</ele><time>2026-04-18T08:33:50.998Z</time></trkpt><trkpt lat="42.80323791950118" lon="13.482931530208285"><ele>241.0</ele><time>2026-04-18T08:33:51.998Z</time></trkpt><trkpt lat="42.803192440587516" lon="13.482637956407038"><ele>241.0</ele><time>2026-04-18T08:33:52.998Z</time></trkpt><trkpt lat="42.80315063261205" lon="13.482347273578487"><ele>242.0</ele><time>2026-04-18T08:33:53.998Z</time></trkpt><trkpt lat="42.80311280974237" lon="13.482052663290235"><ele>243.0</ele><time>2026-04-18T08:33:54.998Z</time></trkpt><trkpt lat="42.80306662986368" lon="13.481759465700636"><ele>244.0</ele><time>2026-04-18T08:33:55.998Z</time></trkpt><trkpt lat="42.80302109845661" lon="13.481464371486997"><ele>244.0</ele><time>2026-04-18T08:33:56.998Z</time></trkpt><trkpt lat="42.80297693314428" lon="13.481170732777665"><ele>244.0</ele><time>2026-04-18T08:33:57.998Z</time></trkpt><trkpt lat="42.802931054145674" lon="13.480879596039049"><ele>244.0</ele><time>2026-04-18T08:33:58.998Z</time></trkpt><trkpt lat="42.80288810485635" lon="13.480587228155123"><ele>244.0</ele><time>2026-04-18T08:33:59.998Z</time></trkpt><trkpt lat="42.802845023080856" lon="13.48029534939561"><ele>244.0</ele><time>2026-04-18T08:34:00.998Z</time></trkpt><trkpt lat="42.80279911464806" lon="13.480003772536769"><ele>244.0</ele><time>2026-04-18T08:34:01.998Z</time></trkpt><trkpt lat="42.80275347795308" lon="13.479715139802694"><ele>244.33333333333331</ele><time>2026-04-18T08:34:02.998Z</time></trkpt><trkpt lat="42.80270792003939" lon="13.479417194674085"><ele>244.66666666666669</ele><time>2026-04-18T08:34:03.998Z</time></trkpt><trkpt lat="42.80266584671308" lon="13.479129726786656"><ele>245.0</ele><time>2026-04-18T08:34:04.998Z</time></trkpt><trkpt lat="42.80262186735933" lon="13.478836717902137"><ele>247.0</ele><time>2026-04-18T08:34:05.998Z</time></trkpt><trkpt lat="42.802578800590965" lon="13.478545597091752"><ele>249.0</ele><time>2026-04-18T08:34:06.998Z</time></trkpt><trkpt lat="42.80253922138779" lon="13.478263042001775"><ele>251.0</ele><time>2026-04-18T08:34:07.998Z</time></trkpt><trkpt lat="42.80249723111203" lon="13.477978750865635"><ele>248.66666666666669</ele><time>2026-04-18T08:34:08.998Z</time></trkpt><trkpt lat="42.8024550579513" lon="13.4776945196325"><ele>246.33333333333331</ele><time>2026-04-18T08:34:09.998Z</time></trkpt><trkpt lat="42.80241736824012" lon="13.477415152272687"><ele>244.0</ele><time>2026-04-18T08:34:10.998Z</time></trkpt><trkpt lat="42.802377083091386" lon="13.477134645760042"><ele>244.66666666666666</ele><time>2026-04-18T08:34:11.998Z</time></trkpt><trkpt lat="42.8023324821109" lon="13.476855045247145"><ele>245.33333333333331</ele><time>2026-04-18T08:34:12.998Z</time></trkpt><trkpt lat="42.8022890827991" lon="13.476578100489188"><ele>246.0</ele><time>2026-04-18T08:34:13.998Z</time></trkpt><trkpt lat="42.802246581060395" lon="13.476296868165411"><ele>248.0</ele><time>2026-04-18T08:34:14.998Z</time></trkpt><trkpt lat="42.80220548975169" lon="13.476020940113719"><ele>250.0</ele><time>2026-04-18T08:34:15.998Z</time></trkpt><trkpt lat="42.80216498054956" lon="13.475738930771707"><ele>252.0</ele><time>2026-04-18T08:34:16.998Z</time></trkpt><trkpt lat="42.802126688963156" lon="13.475456252365131"><ele>254.33333333333331</ele><time>2026-04-18T08:34:17.998Z</time></trkpt><trkpt lat="42.80208477135004" lon="13.47517265126176"><ele>256.66666666666663</ele><time>2026-04-18T08:34:18.998Z</time></trkpt><trkpt lat="42.802043314627255" lon="13.474888431184818"><ele>259.0</ele><time>2026-04-18T08:34:19.998Z</time></trkpt><trkpt lat="42.802003519868215" lon="13.474605955955361"><ele>261.66666666666663</ele><time>2026-04-18T08:34:20.998Z</time></trkpt><trkpt lat="42.80196334518113" lon="13.474320209201963"><ele>264.3333333333333</ele><time>2026-04-18T08:34:21.998Z</time></trkpt><trkpt lat="42.80192336752753" lon="13.474035242053427"><ele>267.0</ele><time>2026-04-18T08:34:22.998Z</time></trkpt><trkpt lat="42.80188892060077" lon="13.473746756006555"><ele>267.3333333333333</ele><time>2026-04-18T08:34:23.998Z</time></trkpt><trkpt lat="42.801860825284336" lon="13.473466228841907"><ele>267.66666666666663</ele><time>2026-04-18T08:34:24.998Z</time></trkpt><trkpt lat="42.801838466281914" lon="13.47318162814176"><ele>268.0</ele><time>2026-04-18T08:34:25.999Z</time></trkpt><trkpt lat="42.801820421521136" lon="13.472893121795074"><ele>264.3333333333333</ele><time>2026-04-18T08:34:26.999Z</time></trkpt><trkpt lat="42.80180806218226" lon="13.472619834808395"><ele>260.6666666666667</ele><time>2026-04-18T08:34:27.999Z</time></trkpt><trkpt lat="42.8018053837261" lon="13.47233964185181"><ele>257.0</ele><time>2026-04-18T08:34:28.999Z</time></trkpt><trkpt lat="42.80181168897568" lon="13.472060669887943"><ele>257.0</ele><time>2026-04-18T08:34:29.999Z</time></trkpt><trkpt lat="42.80183168917176" lon="13.471782172079187"><ele>257.0</ele><time>2026-04-18T08:34:30.999Z</time></trkpt><trkpt lat="42.80186168329341" lon="13.471501650444468"><ele>257.0</ele><time>2026-04-18T08:34:31.999Z</time></trkpt><trkpt lat="42.80190090458104" lon="13.471226445388144"><ele>259.6666666666667</ele><time>2026-04-18T08:34:32.999Z</time></trkpt><trkpt lat="42.80194843318995" lon="13.4709518936402"><ele>262.3333333333333</ele><time>2026-04-18T08:34:33.999Z</time></trkpt><trkpt lat="42.80199957425274" lon="13.470675861450758"><ele>265.0</ele><time>2026-04-18T08:34:34.999Z</time></trkpt><trkpt lat="42.80205589442463" lon="13.470396840264373"><ele>265.0</ele><time>2026-04-18T08:34:35.999Z</time></trkpt><trkpt lat="42.802112443261606" lon="13.47012029581235"><ele>265.0</ele><time>2026-04-18T08:34:36.999Z</time></trkpt><trkpt lat="42.802169879686296" lon="13.469844005567559"><ele>265.0</ele><time>2026-04-18T08:34:37.999Z</time></trkpt><trkpt lat="42.80222958333938" lon="13.469570526849592"><ele>265.0</ele><time>2026-04-18T08:34:38.999Z</time></trkpt><trkpt lat="42.8022906178399" lon="13.469295847427036"><ele>265.0</ele><time>2026-04-18T08:34:39.999Z</time></trkpt><trkpt lat="42.80235493246631" lon="13.46901335039579"><ele>265.0</ele><time>2026-04-18T08:34:40.999Z</time></trkpt><trkpt lat="42.80242167811483" lon="13.468727667691054"><ele>265.0</ele><time>2026-04-18T08:34:41.999Z</time></trkpt><trkpt lat="42.802486205025275" lon="13.468445188847369"><ele>265.0</ele><time>2026-04-18T08:34:42.999Z</time></trkpt><trkpt lat="42.80254137689434" lon="13.46816673423442"><ele>265.0</ele><time>2026-04-18T08:34:43.999Z</time></trkpt><trkpt lat="42.80258094900316" lon="13.467894914697547"><ele>265.0</ele><time>2026-04-18T08:34:44.999Z</time></trkpt><trkpt lat="42.80258717384056" lon="13.467653045322841"><ele>265.0</ele><time>2026-04-18T08:34:45.999Z</time></trkpt><trkpt lat="42.80259989580345" lon="13.467399277902368"><ele>265.0</ele><time>2026-04-18T08:34:46.999Z</time></trkpt><trkpt lat="42.802611319933796" lon="13.467137430199447"><ele>264.3333333333333</ele><time>2026-04-18T08:34:47.999Z</time></trkpt><trkpt lat="42.80261005070754" lon="13.466884375329073"><ele>263.6666666666667</ele><time>2026-04-18T08:34:48.999Z</time></trkpt><trkpt lat="42.80259738310777" lon="13.46663313351391"><ele>263.0</ele><time>2026-04-18T08:34:49.999Z</time></trkpt><trkpt lat="42.80258119473693" lon="13.466389356216311"><ele>261.33333333333337</ele><time>2026-04-18T08:34:50.999Z</time></trkpt><trkpt lat="42.8025602909853" lon="13.46614884048363"><ele>259.6666666666667</ele><time>2026-04-18T08:34:51.999Z</time></trkpt><trkpt lat="42.80253303070728" lon="13.465908854823414"><ele>258.0</ele><time>2026-04-18T08:34:52.999Z</time></trkpt><trkpt lat="42.80249904384617" lon="13.465674788051716"><ele>260.6666666666667</ele><time>2026-04-18T08:34:53.999Z</time></trkpt><trkpt lat="42.802454095724514" lon="13.465444212842904"><ele>263.33333333333337</ele><time>2026-04-18T08:34:54.999Z</time></trkpt><trkpt lat="42.8023984789756" lon="13.465207988984176"><ele>266.0</ele><time>2026-04-18T08:34:55.999Z</time></trkpt><trkpt lat="42.8023340187868" lon="13.464970626166844"><ele>266.0</ele><time>2026-04-18T08:34:56.999Z</time></trkpt><trkpt lat="42.802258971646275" lon="13.46474035436436"><ele>266.0</ele><time>2026-04-18T08:34:57.999Z</time></trkpt><trkpt lat="42.80217274068361" lon="13.464510378655227"><ele>266.0</ele><time>2026-04-18T08:34:58.999Z</time></trkpt><trkpt lat="42.802084151220434" lon="13.464282536964523"><ele>270.33333333333337</ele><time>2026-04-18T08:34:59.999Z</time></trkpt><trkpt lat="42.8019989863048" lon="13.464051946307936"><ele>274.6666666666667</ele><time>2026-04-18T08:35:00.999Z</time></trkpt><trkpt lat="42.80191655101258" lon="13.463815071736787"><ele>279.0</ele><time>2026-04-18T08:35:01.999Z</time></trkpt><trkpt lat="42.80183285493617" lon="13.463589613152752"><ele>278.0</ele><time>2026-04-18T08:35:02.999Z</time></trkpt><trkpt lat="42.80175054562412" lon="13.463360234209855"><ele>277.0</ele><time>2026-04-18T08:35:03.999Z</time></trkpt><trkpt lat="42.80166781086953" lon="13.463134720959312"><ele>276.0</ele><time>2026-04-18T08:35:04.999Z</time></trkpt><trkpt lat="42.801582258119744" lon="13.462906423058033"><ele>283.0</ele><time>2026-04-18T08:35:05.999Z</time></trkpt><trkpt lat="42.80150163542081" lon="13.462686044678334"><ele>290.0</ele><time>2026-04-18T08:35:06.999Z</time></trkpt><trkpt lat="42.80142222574329" lon="13.462466871915932"><ele>297.0</ele><time>2026-04-18T08:35:07.999Z</time></trkpt><trkpt lat="42.80134462234386" lon="13.462249341704126"><ele>301.0</ele><time>2026-04-18T08:35:08.999Z</time></trkpt><trkpt lat="42.80126712931635" lon="13.462034640499317"><ele>305.0</ele><time>2026-04-18T08:35:09.999Z</time></trkpt><trkpt lat="42.80119114853913" lon="13.461796635723173"><ele>309.0</ele><time>2026-04-18T08:35:10.999Z</time></trkpt><trkpt lat="42.80111294217399" lon="13.461574885978425"><ele>309.0</ele><time>2026-04-18T08:35:11.999Z</time></trkpt><trkpt lat="42.8010390767794" lon="13.461356929498756"><ele>309.0</ele><time>2026-04-18T08:35:12.999Z</time></trkpt><trkpt lat="42.80097056289753" lon="13.461136100466451"><ele>309.0</ele><time>2026-04-18T08:35:13.999Z</time></trkpt><trkpt lat="42.80090623393117" lon="13.46091529739502"><ele>310.0</ele><time>2026-04-18T08:35:14.999Z</time></trkpt><trkpt lat="42.80084125126713" lon="13.460687881411317"><ele>311.0</ele><time>2026-04-18T08:35:16.033Z</time></trkpt><trkpt lat="42.799919" lon="13.4585028"><ele>296.0</ele><time>2026-04-18T08:35:19.538Z</time></trkpt><trkpt lat="42.79793354007028" lon="13.45298480604082"><ele>295.6666666666667</ele><time>2026-04-18T08:35:45.998Z</time></trkpt><trkpt lat="42.79784230228847" lon="13.452764501381862"><ele>295.3333333333333</ele><time>2026-04-18T08:35:46.998Z</time></trkpt><trkpt lat="42.797746746026554" lon="13.452586836205088"><ele>295.0</ele><time>2026-04-18T08:35:47.998Z</time></trkpt><trkpt lat="42.79765354614994" lon="13.452388405186527"><ele>294.66666666666663</ele><time>2026-04-18T08:35:48.998Z</time></trkpt><trkpt lat="42.79753997959861" lon="13.452214129023595"><ele>294.3333333333333</ele><time>2026-04-18T08:35:49.998Z</time></trkpt><trkpt lat="42.79740620605135" lon="13.452033704557502"><ele>294.0</ele><time>2026-04-18T08:35:50.998Z</time></trkpt><trkpt lat="42.797261243727526" lon="13.451867805231238"><ele>293.0</ele><time>2026-04-18T08:35:51.998Z</time></trkpt><trkpt lat="42.79711374255701" lon="13.451703871235477"><ele>292.0</ele><time>2026-04-18T08:35:52.998Z</time></trkpt><trkpt lat="42.79695898538235" lon="13.45154928414002"><ele>291.0</ele><time>2026-04-18T08:35:53.998Z</time></trkpt><trkpt lat="42.796801860933236" lon="13.451407384698067"><ele>291.6666666666667</ele><time>2026-04-18T08:35:54.998Z</time></trkpt><trkpt lat="42.79664157356575" lon="13.451275661554266"><ele>292.33333333333337</ele><time>2026-04-18T08:35:55.998Z</time></trkpt><trkpt lat="42.79647918918584" lon="13.451149736648107"><ele>293.0</ele><time>2026-04-18T08:35:56.998Z</time></trkpt><trkpt lat="42.79631566107748" lon="13.451037153681755"><ele>293.0</ele><time>2026-04-18T08:35:57.998Z</time></trkpt><trkpt lat="42.796145780467334" lon="13.4509343801441"><ele>293.0</ele><time>2026-04-18T08:35:58.998Z</time></trkpt><trkpt lat="42.79597247719747" lon="13.45084738565904"><ele>293.0</ele><time>2026-04-18T08:35:59.998Z</time></trkpt><trkpt lat="42.7957969080456" lon="13.450769301160262"><ele>287.6666666666667</ele><time>2026-04-18T08:36:00.998Z</time></trkpt><trkpt lat="42.79561981819218" lon="13.450689715104167"><ele>282.3333333333333</ele><time>2026-04-18T08:36:01.998Z</time></trkpt><trkpt lat="42.795447724159814" lon="13.450602634882403"><ele>277.0</ele><time>2026-04-18T08:36:02.998Z</time></trkpt><trkpt lat="42.79527681729091" lon="13.450516689136501"><ele>281.3333333333333</ele><time>2026-04-18T08:36:03.998Z</time></trkpt><trkpt lat="42.795104009903774" lon="13.450430314649433"><ele>285.6666666666667</ele><time>2026-04-18T08:36:04.998Z</time></trkpt><trkpt lat="42.79493601875486" lon="13.450341459273648"><ele>290.0</ele><time>2026-04-18T08:36:05.998Z</time></trkpt><trkpt lat="42.79476603837254" lon="13.450255956775917"><ele>290.0</ele><time>2026-04-18T08:36:06.998Z</time></trkpt><trkpt lat="42.794594895914095" lon="13.450171408910203"><ele>290.0</ele><time>2026-04-18T08:36:07.998Z</time></trkpt><trkpt lat="42.794423056463785" lon="13.45008930743069"><ele>290.0</ele><time>2026-04-18T08:36:08.998Z</time></trkpt><trkpt lat="42.794247878760515" lon="13.450006535940986"><ele>294.6666666666667</ele><time>2026-04-18T08:36:09.998Z</time></trkpt><trkpt lat="42.79407224678064" lon="13.449924946635177"><ele>299.3333333333333</ele><time>2026-04-18T08:36:10.998Z</time></trkpt><trkpt lat="42.793897954630815" lon="13.44984013700985"><ele>304.0</ele><time>2026-04-18T08:36:11.998Z</time></trkpt><trkpt lat="42.793725405519346" lon="13.449754750274819"><ele>304.0</ele><time>2026-04-18T08:36:12.998Z</time></trkpt><trkpt lat="42.793552699538296" lon="13.449671433171686"><ele>304.0</ele><time>2026-04-18T08:36:13.998Z</time></trkpt><trkpt lat="42.79337911968548" lon="13.449584629627005"><ele>304.0</ele><time>2026-04-18T08:36:14.998Z</time></trkpt><trkpt lat="42.79321148901031" lon="13.449498397767531"><ele>300.66666666666663</ele><time>2026-04-18T08:36:15.998Z</time></trkpt><trkpt lat="42.79304924563609" lon="13.449400343671412"><ele>297.3333333333333</ele><time>2026-04-18T08:36:16.998Z</time></trkpt><trkpt lat="42.79288869667683" lon="13.449284799724294"><ele>294.0</ele><time>2026-04-18T08:36:17.998Z</time></trkpt><trkpt lat="42.79273550831105" lon="13.449147897053452"><ele>294.3333333333333</ele><time>2026-04-18T08:36:18.998Z</time></trkpt><trkpt lat="42.792582127047986" lon="13.44900362587054"><ele>294.66666666666663</ele><time>2026-04-18T08:36:19.998Z</time></trkpt><trkpt lat="42.79243672203919" lon="13.448853615887751"><ele>295.0</ele><time>2026-04-18T08:36:20.998Z</time></trkpt><trkpt lat="42.79229563208069" lon="13.448682589132748"><ele>295.0</ele><time>2026-04-18T08:36:21.998Z</time></trkpt><trkpt lat="42.79216612425752" lon="13.448494892434383"><ele>295.0</ele><time>2026-04-18T08:36:22.998Z</time></trkpt><trkpt lat="42.792048763672994" lon="13.448296162623297"><ele>295.0</ele><time>2026-04-18T08:36:23.998Z</time></trkpt><trkpt lat="42.79193620212088" lon="13.448097266487702"><ele>296.3333333333333</ele><time>2026-04-18T08:36:24.998Z</time></trkpt><trkpt lat="42.79183365640183" lon="13.447886039070637"><ele>297.6666666666667</ele><time>2026-04-18T08:36:25.998Z</time></trkpt><trkpt lat="42.79173762763382" lon="13.447665501019614"><ele>299.0</ele><time>2026-04-18T08:36:26.998Z</time></trkpt><trkpt lat="42.79165305859603" lon="13.447441588837103"><ele>299.0</ele><time>2026-04-18T08:36:27.998Z</time></trkpt><trkpt lat="42.79158248048932" lon="13.447209537752592"><ele>299.0</ele><time>2026-04-18T08:36:28.998Z</time></trkpt><trkpt lat="42.791523186560724" lon="13.44696869326441"><ele>299.0</ele><time>2026-04-18T08:36:29.998Z</time></trkpt><trkpt lat="42.791473790055086" lon="13.446718196530234"><ele>299.33333333333337</ele><time>2026-04-18T08:36:30.998Z</time></trkpt><trkpt lat="42.791437117920196" lon="13.4464580094447"><ele>299.6666666666667</ele><time>2026-04-18T08:36:31.999Z</time></trkpt><trkpt lat="42.79141007037026" lon="13.446199912164312"><ele>300.0</ele><time>2026-04-18T08:36:32.999Z</time></trkpt><trkpt lat="42.791392616878504" lon="13.445942328052887"><ele>301.6666666666667</ele><time>2026-04-18T08:36:33.999Z</time></trkpt><trkpt lat="42.79139414200804" lon="13.44567974219732"><ele>303.33333333333337</ele><time>2026-04-18T08:36:34.999Z</time></trkpt><trkpt lat="42.79141082148437" lon="13.44541703588503"><ele>305.0</ele><time>2026-04-18T08:36:35.999Z</time></trkpt><trkpt lat="42.791438027094216" lon="13.445155312297537"><ele>310.0</ele><time>2026-04-18T08:36:36.999Z</time></trkpt><trkpt lat="42.7914743053471" lon="13.444900748282086"><ele>315.0</ele><time>2026-04-18T08:36:37.999Z</time></trkpt><trkpt lat="42.791519712394596" lon="13.444651410365893"><ele>320.0</ele><time>2026-04-18T08:36:38.999Z</time></trkpt><trkpt lat="42.791571590927866" lon="13.444421281845182"><ele>325.33333333333337</ele><time>2026-04-18T08:36:39.999Z</time></trkpt><trkpt lat="42.79164006205805" lon="13.44418797297673"><ele>330.6666666666667</ele><time>2026-04-18T08:36:40.999Z</time></trkpt><trkpt lat="42.79171800868493" lon="13.44395516010249"><ele>336.0</ele><time>2026-04-18T08:36:41.999Z</time></trkpt><trkpt lat="42.79179682863375" lon="13.443721357679648"><ele>328.6666666666667</ele><time>2026-04-18T08:36:42.999Z</time></trkpt><trkpt lat="42.791873068734894" lon="13.443489951093094"><ele>321.33333333333337</ele><time>2026-04-18T08:36:43.999Z</time></trkpt><trkpt lat="42.791946638412625" lon="13.443256364482524"><ele>314.0</ele><time>2026-04-18T08:36:44.999Z</time></trkpt><trkpt lat="42.79201171702085" lon="13.443019781531913"><ele>318.0</ele><time>2026-04-18T08:36:45.999Z</time></trkpt><trkpt lat="42.792073564350595" lon="13.442774042688686"><ele>322.0</ele><time>2026-04-18T08:36:46.999Z</time></trkpt><trkpt lat="42.79213190415135" lon="13.442526717014125"><ele>326.0</ele><time>2026-04-18T08:36:47.999Z</time></trkpt><trkpt lat="42.79217905827358" lon="13.442275465123915"><ele>326.33333333333337</ele><time>2026-04-18T08:36:48.999Z</time></trkpt><trkpt lat="42.79221504568261" lon="13.442020634481205"><ele>326.6666666666667</ele><time>2026-04-18T08:36:49.999Z</time></trkpt><trkpt lat="42.79223861705307" lon="13.44176578453431"><ele>327.0</ele><time>2026-04-18T08:36:50.999Z</time></trkpt><trkpt lat="42.79225283798975" lon="13.441511481439813"><ele>327.6666666666667</ele><time>2026-04-18T08:36:51.999Z</time></trkpt><trkpt lat="42.79225764022348" lon="13.441250765577418"><ele>328.33333333333337</ele><time>2026-04-18T08:36:52.999Z</time></trkpt><trkpt lat="42.79225044546152" lon="13.440996457495343"><ele>329.0</ele><time>2026-04-18T08:36:53.999Z</time></trkpt><trkpt lat="42.79223126626201" lon="13.440741578103257"><ele>329.0</ele><time>2026-04-18T08:36:54.999Z</time></trkpt><trkpt lat="42.79220145303258" lon="13.4404864164356"><ele>329.0</ele><time>2026-04-18T08:36:55.999Z</time></trkpt><trkpt lat="42.7921585967645" lon="13.44023514663223"><ele>329.0</ele><time>2026-04-18T08:36:56.999Z</time></trkpt><trkpt lat="42.792107046911674" lon="13.439980953596011"><ele>332.33333333333337</ele><time>2026-04-18T08:36:57.999Z</time></trkpt><trkpt lat="42.79204279711083" lon="13.439732512411393"><ele>335.6666666666667</ele><time>2026-04-18T08:36:58.999Z</time></trkpt><trkpt lat="42.791977811765925" lon="13.439485317381228"><ele>339.0</ele><time>2026-04-18T08:36:59.999Z</time></trkpt><trkpt lat="42.791898564672465" lon="13.439245604347597"><ele>340.0</ele><time>2026-04-18T08:37:00.999Z</time></trkpt><trkpt lat="42.791812672120734" lon="13.439006735721325"><ele>341.0</ele><time>2026-04-18T08:37:01.999Z</time></trkpt><trkpt lat="42.79172306837613" lon="13.438774505405213"><ele>342.0</ele><time>2026-04-18T08:37:02.999Z</time></trkpt><trkpt lat="42.79163357927304" lon="13.438541724644033"><ele>342.0</ele><time>2026-04-18T08:37:03.999Z</time></trkpt><trkpt lat="42.79154601095148" lon="13.438306955604105"><ele>342.0</ele><time>2026-04-18T08:37:04.999Z</time></trkpt><trkpt lat="42.79145825707129" lon="13.43807605984062"><ele>342.0</ele><time>2026-04-18T08:37:05.999Z</time></trkpt><trkpt lat="42.79136779132552" lon="13.437846818013712"><ele>339.0</ele><time>2026-04-18T08:37:06.999Z</time></trkpt><trkpt lat="42.79127564085476" lon="13.437616642454845"><ele>336.0</ele><time>2026-04-18T08:37:07.999Z</time></trkpt><trkpt lat="42.79118432903038" lon="13.437388451193994"><ele>333.0</ele><time>2026-04-18T08:37:08.999Z</time></trkpt><trkpt lat="42.791092476844774" lon="13.437156235284377"><ele>333.0</ele><time>2026-04-18T08:37:09.999Z</time></trkpt><trkpt lat="42.79100128850098" lon="13.436923104614479"><ele>333.0</ele><time>2026-04-18T08:37:10.999Z</time></trkpt><trkpt lat="42.790912441321964" lon="13.4366875054501"><ele>333.0</ele><time>2026-04-18T08:37:11.999Z</time></trkpt><trkpt lat="42.79082350222635" lon="13.436453095216283"><ele>335.0</ele><time>2026-04-18T08:37:12.999Z</time></trkpt><trkpt lat="42.7907335665095" lon="13.43622073380702"><ele>337.0</ele><time>2026-04-18T08:37:13.999Z</time></trkpt><trkpt lat="42.790640796019105" lon="13.435983592147611"><ele>339.0</ele><time>2026-04-18T08:37:14.999Z</time></trkpt><trkpt lat="42.79054690202954" lon="13.435747207141155"><ele>339.0</ele><time>2026-04-18T08:37:15.999Z</time></trkpt><trkpt lat="42.79045396674108" lon="13.435511334292052"><ele>339.0</ele><time>2026-04-18T08:37:16.999Z</time></trkpt><trkpt lat="42.79036165090112" lon="13.43527380579436"><ele>339.0</ele><time>2026-04-18T08:37:17.999Z</time></trkpt><trkpt lat="42.7902723720635" lon="13.435034563936314"><ele>340.6666666666667</ele><time>2026-04-18T08:37:18.999Z</time></trkpt><trkpt lat="42.79018725163041" lon="13.434792422748398"><ele>342.33333333333337</ele><time>2026-04-18T08:37:19.999Z</time></trkpt><trkpt lat="42.790108603507164" lon="13.434549637476593"><ele>344.0</ele><time>2026-04-18T08:37:20.999Z</time></trkpt><trkpt lat="42.79003042323826" lon="13.434303040202746"><ele>350.6666666666667</ele><time>2026-04-18T08:37:21.999Z</time></trkpt><trkpt lat="42.78995584971422" lon="13.434059208669385"><ele>357.3333333333333</ele><time>2026-04-18T08:37:22.999Z</time></trkpt><trkpt lat="42.78988254029977" lon="13.433812380654976"><ele>364.0</ele><time>2026-04-18T08:37:23.999Z</time></trkpt><trkpt lat="42.789808104133485" lon="13.433566998706874"><ele>364.0</ele><time>2026-04-18T08:37:24.999Z</time></trkpt><trkpt lat="42.789733183547604" lon="13.433323106024893"><ele>364.0</ele><time>2026-04-18T08:37:25.999Z</time></trkpt><trkpt lat="42.789657677789336" lon="13.433076908445639"><ele>364.0</ele><time>2026-04-18T08:37:26.999Z</time></trkpt><trkpt lat="42.78958073644662" lon="13.4328293590145"><ele>363.66666666666663</ele><time>2026-04-18T08:37:27.999Z</time></trkpt><trkpt lat="42.78950538040212" lon="13.432584751178783"><ele>363.3333333333333</ele><time>2026-04-18T08:37:28.999Z</time></trkpt><trkpt lat="42.789429797523525" lon="13.432335609058331"><ele>363.0</ele><time>2026-04-18T08:37:29.999Z</time></trkpt><trkpt lat="42.7893546200061" lon="13.432086175996526"><ele>366.6666666666667</ele><time>2026-04-18T08:37:30.999Z</time></trkpt><trkpt lat="42.78927710713312" lon="13.43184305354609"><ele>370.33333333333337</ele><time>2026-04-18T08:37:31.999Z</time></trkpt><trkpt lat="42.78919302861106" lon="13.431597215366628"><ele>374.0</ele><time>2026-04-18T08:37:32.999Z</time></trkpt><trkpt lat="42.78909711618525" lon="13.431362227468137"><ele>374.6666666666667</ele><time>2026-04-18T08:37:33.999Z</time></trkpt><trkpt lat="42.7889916286376" lon="13.431133715770853"><ele>375.3333333333333</ele><time>2026-04-18T08:37:34.999Z</time></trkpt><trkpt lat="42.78887659072915" lon="13.430915177744062"><ele>376.0</ele><time>2026-04-18T08:37:35.999Z</time></trkpt><trkpt lat="42.788751603450145" lon="13.43070715229075"><ele>376.0</ele><time>2026-04-18T08:37:36.999Z</time></trkpt><trkpt lat="42.788615680860985" lon="13.43051128871707"><ele>376.0</ele><time>2026-04-18T08:37:37.999Z</time></trkpt><trkpt lat="42.78846740535327" lon="13.430327748400481"><ele>376.0</ele><time>2026-04-18T08:37:38.999Z</time></trkpt><trkpt lat="42.78831206119297" lon="13.430154295100722"><ele>378.66666666666663</ele><time>2026-04-18T08:37:39.999Z</time></trkpt><trkpt lat="42.78814946791109" lon="13.429993932085907"><ele>381.3333333333333</ele><time>2026-04-18T08:37:40.999Z</time></trkpt><trkpt lat="42.78798010737143" lon="13.429844886623547"><ele>384.0</ele><time>2026-04-18T08:37:41.999Z</time></trkpt><trkpt lat="42.787804588873634" lon="13.42971276973836"><ele>384.33333333333337</ele><time>2026-04-18T08:37:42.999Z</time></trkpt><trkpt lat="42.787621649601036" lon="13.429597324378166"><ele>384.6666666666667</ele><time>2026-04-18T08:37:43.999Z</time></trkpt><trkpt lat="42.78743757571665" lon="13.429497665684455"><ele>385.0</ele><time>2026-04-18T08:37:44.999Z</time></trkpt><trkpt lat="42.78724436868651" lon="13.429409083803227"><ele>385.0</ele><time>2026-04-18T08:37:45.999Z</time></trkpt><trkpt lat="42.78705136679864" lon="13.42933367562489"><ele>385.0</ele><time>2026-04-18T08:37:46.999Z</time></trkpt><trkpt lat="42.78685335015806" lon="13.429259536089713"><ele>385.0</ele><time>2026-04-18T08:37:47.999Z</time></trkpt><trkpt lat="42.786657786977756" lon="13.42918221734679"><ele>386.0</ele><time>2026-04-18T08:37:48.999Z</time></trkpt><trkpt lat="42.7864665576427" lon="13.429102231922872"><ele>387.0</ele><time>2026-04-18T08:37:49.999Z</time></trkpt><trkpt lat="42.78627665997146" lon="13.429019783464952"><ele>388.0</ele><time>2026-04-18T08:37:50.999Z</time></trkpt><trkpt lat="42.78609057515871" lon="13.428938373647663"><ele>389.0</ele><time>2026-04-18T08:37:51.999Z</time></trkpt><trkpt lat="42.78591648681229" lon="13.428857180687203"><ele>390.0</ele><time>2026-04-18T08:37:52.999Z</time></trkpt><trkpt lat="42.785753406082" lon="13.428772084544802"><ele>391.0</ele><time>2026-04-18T08:37:53.999Z</time></trkpt><trkpt lat="42.78560525240056" lon="13.428684837738674"><ele>390.5</ele><time>2026-04-18T08:37:54.999Z</time></trkpt><trkpt lat="42.78546617795747" lon="13.42859305567902"><ele>390.0</ele><time>2026-04-18T08:37:55.999Z</time></trkpt><trkpt lat="42.78533328468238" lon="13.428496231165713"><ele>389.5</ele><time>2026-04-18T08:37:56.999Z</time></trkpt><trkpt lat="42.78521266461633" lon="13.428401397238959"><ele>389.0</ele><time>2026-04-18T08:37:57.999Z</time></trkpt><trkpt lat="42.78510233277523" lon="13.4283075010183"><ele>389.0</ele><time>2026-04-18T08:37:58.999Z</time></trkpt><trkpt lat="42.785007251910436" lon="13.428224216426646"><ele>389.0</ele><time>2026-04-18T08:37:59.999Z</time></trkpt><trkpt lat="42.78493338765266" lon="13.428151134997892"><ele>389.0</ele><time>2026-04-18T08:38:00.998Z</time></trkpt><trkpt lat="42.784882146921134" lon="13.428083892130498"><ele>389.0</ele><time>2026-04-18T08:38:01.998Z</time></trkpt><trkpt lat="42.78484391067397" lon="13.427960574587873"><ele>389.0</ele><time>2026-04-18T08:38:03.998Z</time></trkpt><trkpt lat="42.78495941939611" lon="13.427892271134834"><ele>388.2</ele><time>2026-04-18T08:38:06.998Z</time></trkpt><trkpt lat="42.78501324652642" lon="13.427820831234305"><ele>387.4</ele><time>2026-04-18T08:38:09.998Z</time></trkpt><trkpt lat="42.784900193826786" lon="13.42762792040224"><ele>386.6</ele><time>2026-04-18T08:38:13.998Z</time></trkpt><trkpt lat="42.784835059197675" lon="13.427577035690296"><ele>385.8</ele><time>2026-04-18T08:38:26.998Z</time></trkpt><trkpt lat="42.7848574916996" lon="13.427672500645324"><ele>385.0</ele><time>2026-04-18T08:41:35Z</time></trkpt><trkpt lat="42.784916223631434" lon="13.427560128600282"><ele>385.0</ele><time>2026-04-18T08:43:38.001Z</time></trkpt><trkpt lat="42.78487660255714" lon="13.427628774181962"><ele>385.0</ele><time>2026-04-18T08:44:32Z</time></trkpt><trkpt lat="42.78483363263964" lon="13.42753968526272"><ele>385.0</ele><time>2026-04-18T08:45:38.001Z</time></trkpt><trkpt lat="42.78476594635178" lon="13.427518369440316"><ele>385.0</ele><time>2026-04-18T08:45:44.001Z</time></trkpt><trkpt lat="42.78461452802748" lon="13.42757927948532"><ele>385.0</ele><time>2026-04-18T08:45:46.001Z</time></trkpt><trkpt lat="42.78452482030238" lon="13.427661961554557"><ele>385.0</ele><time>2026-04-18T08:45:48.001Z</time></trkpt><trkpt lat="42.78437664665613" lon="13.427553098943076"><ele>385.0</ele><time>2026-04-18T08:45:50.001Z</time></trkpt><trkpt lat="42.784316103693214" lon="13.427455150076074"><ele>385.0</ele><time>2026-04-18T08:45:51.001Z</time></trkpt><trkpt lat="42.78425177427775" lon="13.42734439154861"><ele>385.0</ele><time>2026-04-18T08:45:52.001Z</time></trkpt><trkpt lat="42.78417471057204" lon="13.42722499400406"><ele>385.0</ele><time>2026-04-18T08:45:53.001Z</time></trkpt><trkpt lat="42.78408971787959" lon="13.427095424993377"><ele>385.0</ele><time>2026-04-18T08:45:54.001Z</time></trkpt><trkpt lat="42.78400328828994" lon="13.426958206825606"><ele>385.0</ele><time>2026-04-18T08:45:55.001Z</time></trkpt><trkpt lat="42.78391515509152" lon="13.426806153163286"><ele>385.0</ele><time>2026-04-18T08:45:56Z</time></trkpt><trkpt lat="42.78382994294479" lon="13.426642648321634"><ele>385.0</ele><time>2026-04-18T08:45:57Z</time></trkpt><trkpt lat="42.78374197943153" lon="13.42646768039331"><ele>385.0</ele><time>2026-04-18T08:45:58Z</time></trkpt><trkpt lat="42.78365671373196" lon="13.42628301511827"><ele>385.0</ele><time>2026-04-18T08:45:59Z</time></trkpt><trkpt lat="42.783575792022035" lon="13.426090343061254"><ele>385.6666666666667</ele><time>2026-04-18T08:46:00Z</time></trkpt><trkpt lat="42.78349937742116" lon="13.425893929718002"><ele>386.33333333333337</ele><time>2026-04-18T08:46:01Z</time></trkpt><trkpt lat="42.78342771237682" lon="13.425688549500618"><ele>387.0</ele><time>2026-04-18T08:46:02Z</time></trkpt><trkpt lat="42.783363853581065" lon="13.425472650717305"><ele>385.6666666666667</ele><time>2026-04-18T08:46:03Z</time></trkpt><trkpt lat="42.783306299797424" lon="13.425247381374655"><ele>384.33333333333337</ele><time>2026-04-18T08:46:04Z</time></trkpt><trkpt lat="42.78325294539759" lon="13.425015806269746"><ele>383.0</ele><time>2026-04-18T08:46:05Z</time></trkpt><trkpt lat="42.78320012255324" lon="13.424781145840997"><ele>381.33333333333337</ele><time>2026-04-18T08:46:06Z</time></trkpt><trkpt lat="42.78314726205833" lon="13.42454530302488"><ele>379.6666666666667</ele><time>2026-04-18T08:46:07Z</time></trkpt><trkpt lat="42.78309646997127" lon="13.424308525601194"><ele>378.0</ele><time>2026-04-18T08:46:08Z</time></trkpt><trkpt lat="42.78304675471338" lon="13.424064642587078"><ele>378.0</ele><time>2026-04-18T08:46:09Z</time></trkpt><trkpt lat="42.782997475290856" lon="13.423821953614166"><ele>378.0</ele><time>2026-04-18T08:46:10Z</time></trkpt><trkpt lat="42.78294807973185" lon="13.423578983603644"><ele>378.0</ele><time>2026-04-18T08:46:11Z</time></trkpt><trkpt lat="42.782895827571465" lon="13.423336069144497"><ele>378.0</ele><time>2026-04-18T08:46:12Z</time></trkpt><trkpt lat="42.782842152858436" lon="13.423087399782249"><ele>378.0</ele><time>2026-04-18T08:46:13Z</time></trkpt><trkpt lat="42.78278944737319" lon="13.422836293232724"><ele>378.0</ele><time>2026-04-18T08:46:13.999Z</time></trkpt><trkpt lat="42.78273818474687" lon="13.422587264847158"><ele>375.6666666666667</ele><time>2026-04-18T08:46:14.999Z</time></trkpt><trkpt lat="42.78268538953123" lon="13.422340952625138"><ele>373.33333333333337</ele><time>2026-04-18T08:46:15.999Z</time></trkpt><trkpt lat="42.78262991601131" lon="13.422096378568812"><ele>371.0</ele><time>2026-04-18T08:46:16.999Z</time></trkpt><trkpt lat="42.78257122369452" lon="13.421850718505763"><ele>377.33333333333337</ele><time>2026-04-18T08:46:17.999Z</time></trkpt><trkpt lat="42.782510563751224" lon="13.421606337205304"><ele>383.6666666666667</ele><time>2026-04-18T08:46:18.999Z</time></trkpt><trkpt lat="42.78244700997918" lon="13.421362954008638"><ele>390.0</ele><time>2026-04-18T08:46:19.999Z</time></trkpt><trkpt lat="42.78237695024083" lon="13.42112783050998"><ele>390.0</ele><time>2026-04-18T08:46:20.999Z</time></trkpt><trkpt lat="42.7822969015104" lon="13.420895936979539"><ele>390.0</ele><time>2026-04-18T08:46:21.999Z</time></trkpt><trkpt lat="42.78220833261298" lon="13.42068827828445"><ele>390.0</ele><time>2026-04-18T08:46:22.999Z</time></trkpt><trkpt lat="42.78208970474901" lon="13.420476621214537"><ele>390.0</ele><time>2026-04-18T08:46:23.999Z</time></trkpt><trkpt lat="42.78199304844288" lon="13.420261916543328"><ele>390.0</ele><time>2026-04-18T08:46:24.999Z</time></trkpt><trkpt lat="42.781877895283884" lon="13.420063658937849"><ele>390.0</ele><time>2026-04-18T08:46:25.999Z</time></trkpt><trkpt lat="42.78175637118338" lon="13.419875789532975"><ele>391.66666666666663</ele><time>2026-04-18T08:46:26.999Z</time></trkpt><trkpt lat="42.78162173413796" lon="13.419693447360427"><ele>393.3333333333333</ele><time>2026-04-18T08:46:27.999Z</time></trkpt><trkpt lat="42.78147676387192" lon="13.419520152452787"><ele>395.0</ele><time>2026-04-18T08:46:28.999Z</time></trkpt><trkpt lat="42.781322220064446" lon="13.41934991789748"><ele>395.0</ele><time>2026-04-18T08:46:29.999Z</time></trkpt><trkpt lat="42.781166148706326" lon="13.419201567013168"><ele>395.0</ele><time>2026-04-18T08:46:30.999Z</time></trkpt><trkpt lat="42.7810144764129" lon="13.419043399979419"><ele>395.0</ele><time>2026-04-18T08:46:31.999Z</time></trkpt><trkpt lat="42.78085752463425" lon="13.418881592384478"><ele>392.66666666666663</ele><time>2026-04-18T08:46:32.999Z</time></trkpt><trkpt lat="42.78070355159004" lon="13.418726409706565"><ele>390.33333333333337</ele><time>2026-04-18T08:46:33.999Z</time></trkpt><trkpt lat="42.78054494347288" lon="13.418569935976347"><ele>388.0</ele><time>2026-04-18T08:46:34.999Z</time></trkpt><trkpt lat="42.78038860842029" lon="13.418409344095862"><ele>388.0</ele><time>2026-04-18T08:46:35.999Z</time></trkpt><trkpt lat="42.780230755392424" lon="13.418251775486787"><ele>388.0</ele><time>2026-04-18T08:46:36.999Z</time></trkpt><trkpt lat="42.78007408359685" lon="13.418089653463019"><ele>388.0</ele><time>2026-04-18T08:46:37.999Z</time></trkpt><trkpt lat="42.779914681414766" lon="13.417928304878213"><ele>385.0</ele><time>2026-04-18T08:46:38.999Z</time></trkpt><trkpt lat="42.779754233151586" lon="13.417769627446425"><ele>382.0</ele><time>2026-04-18T08:46:39.999Z</time></trkpt><trkpt lat="42.77959169816314" lon="13.417609940149015"><ele>379.0</ele><time>2026-04-18T08:46:40.999Z</time></trkpt><trkpt lat="42.77942982909061" lon="13.417452997890141"><ele>381.3333333333333</ele><time>2026-04-18T08:46:41.999Z</time></trkpt><trkpt lat="42.77926855326831" lon="13.417295459719186"><ele>383.66666666666663</ele><time>2026-04-18T08:46:42.998Z</time></trkpt><trkpt lat="42.77910739844918" lon="13.417136908304462"><ele>386.0</ele><time>2026-04-18T08:46:43.998Z</time></trkpt><trkpt lat="42.77894628542142" lon="13.416981157794236"><ele>386.0</ele><time>2026-04-18T08:46:44.998Z</time></trkpt><trkpt lat="42.77878560045444" lon="13.416824368677398"><ele>386.0</ele><time>2026-04-18T08:46:45.998Z</time></trkpt><trkpt lat="42.77862273176535" lon="13.41666570463207"><ele>386.0</ele><time>2026-04-18T08:46:46.998Z</time></trkpt><trkpt lat="42.77846092680696" lon="13.41650167301269"><ele>391.0</ele><time>2026-04-18T08:46:47.998Z</time></trkpt><trkpt lat="42.77829701499729" lon="13.41633337850827"><ele>396.0</ele><time>2026-04-18T08:46:48.998Z</time></trkpt><trkpt lat="42.778128448899224" lon="13.416160214424565"><ele>401.0</ele><time>2026-04-18T08:46:49.998Z</time></trkpt><trkpt lat="42.77795466484535" lon="13.415980486888438"><ele>401.0</ele><time>2026-04-18T08:46:50.998Z</time></trkpt><trkpt lat="42.77777778115832" lon="13.415796329990952"><ele>401.0</ele><time>2026-04-18T08:46:51.998Z</time></trkpt><trkpt lat="42.77759767318189" lon="13.415610379770172"><ele>401.0</ele><time>2026-04-18T08:46:52.998Z</time></trkpt><trkpt lat="42.777410640363634" lon="13.415428206789045"><ele>400.0</ele><time>2026-04-18T08:46:53.998Z</time></trkpt><trkpt lat="42.77720344434874" lon="13.415251657174077"><ele>399.0</ele><time>2026-04-18T08:46:55.047Z</time></trkpt><trkpt lat="42.776996561256354" lon="13.415096926064619"><ele>400.0</ele><time>2026-04-18T08:46:56.044Z</time></trkpt><trkpt lat="42.776769743346954" lon="13.414976514918592"><ele>401.0</ele><time>2026-04-18T08:46:57.048Z</time></trkpt><trkpt lat="42.77654590810833" lon="13.414845650284441"><ele>401.0</ele><time>2026-04-18T08:46:58.042Z</time></trkpt><trkpt lat="42.77647678429398" lon="13.414806059036337"><ele>401.0</ele><time>2026-04-18T08:46:59.998Z</time></trkpt><trkpt lat="42.77626204733081" lon="13.414735672554517"><ele>401.0</ele><time>2026-04-18T08:47:00.998Z</time></trkpt><trkpt lat="42.77605738472383" lon="13.414639213487634"><ele>390.3333333333333</ele><time>2026-04-18T08:47:01.998Z</time></trkpt><trkpt lat="42.77592022997008" lon="13.414561958839833"><ele>379.66666666666663</ele><time>2026-04-18T08:47:02.998Z</time></trkpt><trkpt lat="42.77573790302019" lon="13.41443808993651"><ele>369.0</ele><time>2026-04-18T08:47:03.998Z</time></trkpt><trkpt lat="42.77555346585533" lon="13.414320498247777"><ele>369.0</ele><time>2026-04-18T08:47:05.001Z</time></trkpt><trkpt lat="42.77538272839656" lon="13.414186749707559"><ele>369.0</ele><time>2026-04-18T08:47:06.001Z</time></trkpt><trkpt lat="42.775219788458315" lon="13.414034139442766"><ele>369.0</ele><time>2026-04-18T08:47:07.001Z</time></trkpt><trkpt lat="42.77507129676608" lon="13.413865750688222"><ele>372.0</ele><time>2026-04-18T08:47:08Z</time></trkpt><trkpt lat="42.774930773651796" lon="13.413683255364022"><ele>375.0</ele><time>2026-04-18T08:47:09Z</time></trkpt><trkpt lat="42.77479999030514" lon="13.4134889076769"><ele>378.0</ele><time>2026-04-18T08:47:10Z</time></trkpt><trkpt lat="42.77467736526516" lon="13.413282482209224"><ele>378.0</ele><time>2026-04-18T08:47:11Z</time></trkpt><trkpt lat="42.77456685794532" lon="13.413066139767706"><ele>378.0</ele><time>2026-04-18T08:47:12Z</time></trkpt><trkpt lat="42.77446127031088" lon="13.41285006371932"><ele>378.0</ele><time>2026-04-18T08:47:13Z</time></trkpt><trkpt lat="42.7743511836392" lon="13.41264095992324"><ele>379.6666666666667</ele><time>2026-04-18T08:47:14Z</time></trkpt><trkpt lat="42.7742343878693" lon="13.412440525926552"><ele>381.33333333333337</ele><time>2026-04-18T08:47:15Z</time></trkpt><trkpt lat="42.77410862173533" lon="13.412249529830598"><ele>383.0</ele><time>2026-04-18T08:47:16Z</time></trkpt><trkpt lat="42.7739661525495" lon="13.412079821269883"><ele>383.0</ele><time>2026-04-18T08:47:17Z</time></trkpt><trkpt lat="42.77381956465095" lon="13.411923382594852"><ele>383.0</ele><time>2026-04-18T08:47:18Z</time></trkpt><trkpt lat="42.773666987766966" lon="13.41177708267699"><ele>383.0</ele><time>2026-04-18T08:47:19Z</time></trkpt><trkpt lat="42.773507727291324" lon="13.411653979331302"><ele>388.6666666666667</ele><time>2026-04-18T08:47:20Z</time></trkpt><trkpt lat="42.773340568513845" lon="13.411551745646369"><ele>394.33333333333337</ele><time>2026-04-18T08:47:21Z</time></trkpt><trkpt lat="42.773188680114615" lon="13.411434099474961"><ele>400.0</ele><time>2026-04-18T08:47:22Z</time></trkpt><trkpt lat="42.77302362784344" lon="13.411370290603772"><ele>400.0</ele><time>2026-04-18T08:47:23Z</time></trkpt><trkpt lat="42.7728619785988" lon="13.4113270525302"><ele>400.0</ele><time>2026-04-18T08:47:24Z</time></trkpt><trkpt lat="42.77270498518245" lon="13.411283975419606"><ele>400.0</ele><time>2026-04-18T08:47:25Z</time></trkpt><trkpt lat="42.77255798342406" lon="13.411240848238295"><ele>395.5</ele><time>2026-04-18T08:47:26Z</time></trkpt><trkpt lat="42.7724103438038" lon="13.41122052998787"><ele>391.0</ele><time>2026-04-18T08:47:27Z</time></trkpt><trkpt lat="42.772263349334395" lon="13.411209814699424"><ele>386.5</ele><time>2026-04-18T08:47:28Z</time></trkpt><trkpt lat="42.772122410812244" lon="13.411222787348608"><ele>382.0</ele><time>2026-04-18T08:47:29Z</time></trkpt><trkpt lat="42.77198467828006" lon="13.411245904311286"><ele>380.25</ele><time>2026-04-18T08:47:30Z</time></trkpt><trkpt lat="42.7718456413002" lon="13.411268537445148"><ele>378.5</ele><time>2026-04-18T08:47:31Z</time></trkpt><trkpt lat="42.77171310805653" lon="13.41129347655252"><ele>376.75</ele><time>2026-04-18T08:47:32Z</time></trkpt><trkpt lat="42.77158574049866" lon="13.411316552842507"><ele>375.0</ele><time>2026-04-18T08:47:33Z</time></trkpt><trkpt lat="42.77145575464662" lon="13.411331466073175"><ele>375.0</ele><time>2026-04-18T08:47:34Z</time></trkpt><trkpt lat="42.77133161842839" lon="13.41134199104136"><ele>375.0</ele><time>2026-04-18T08:47:35Z</time></trkpt><trkpt lat="42.77121146124751" lon="13.411336143849807"><ele>375.0</ele><time>2026-04-18T08:47:36Z</time></trkpt><trkpt lat="42.7710936050217" lon="13.411315918585029"><ele>375.0</ele><time>2026-04-18T08:47:37Z</time></trkpt><trkpt lat="42.77098501752073" lon="13.411265274654259"><ele>377.75</ele><time>2026-04-18T08:47:38Z</time></trkpt><trkpt lat="42.77087611741277" lon="13.411197031361043"><ele>380.5</ele><time>2026-04-18T08:47:39Z</time></trkpt><trkpt lat="42.77078039343248" lon="13.411099828659998"><ele>383.25</ele><time>2026-04-18T08:47:40Z</time></trkpt><trkpt lat="42.770696452288696" lon="13.410993885630486"><ele>386.0</ele><time>2026-04-18T08:47:41Z</time></trkpt><trkpt lat="42.770622640235445" lon="13.410881231370846"><ele>386.0</ele><time>2026-04-18T08:47:42Z</time></trkpt><trkpt lat="42.77055499109349" lon="13.41077761476229"><ele>386.0</ele><time>2026-04-18T08:47:43Z</time></trkpt><trkpt lat="42.77048983470497" lon="13.410679323960853"><ele>386.0</ele><time>2026-04-18T08:47:43.999Z</time></trkpt><trkpt lat="42.77042778012812" lon="13.4105906582362"><ele>386.0</ele><time>2026-04-18T08:47:44.999Z</time></trkpt><trkpt lat="42.77036914141325" lon="13.41050933444426"><ele>386.0</ele><time>2026-04-18T08:47:45.999Z</time></trkpt><trkpt lat="42.770315352550824" lon="13.410421404800026"><ele>386.99999999999994</ele><time>2026-04-18T08:47:46.999Z</time></trkpt><trkpt lat="42.770263151502434" lon="13.410335195417325"><ele>388.0</ele><time>2026-04-18T08:47:47.999Z</time></trkpt><trkpt lat="42.77021032764546" lon="13.410258722232166"><ele>389.0</ele><time>2026-04-18T08:47:48.999Z</time></trkpt><trkpt lat="42.77015280864348" lon="13.410183263473149"><ele>390.0</ele><time>2026-04-18T08:47:49.999Z</time></trkpt><trkpt lat="42.770095160280874" lon="13.41010483626684"><ele>390.99999999999994</ele><time>2026-04-18T08:47:50.999Z</time></trkpt><trkpt lat="42.77003971508192" lon="13.410024049864667"><ele>392.0</ele><time>2026-04-18T08:47:51.999Z</time></trkpt><trkpt lat="42.76998020180027" lon="13.409943148895744"><ele>392.0</ele><time>2026-04-18T08:47:52.999Z</time></trkpt><trkpt lat="42.76992361027077" lon="13.409869007096107"><ele>392.0</ele><time>2026-04-18T08:47:53.999Z</time></trkpt><trkpt lat="42.769857536690125" lon="13.409789714051803"><ele>392.0</ele><time>2026-04-18T08:47:54.999Z</time></trkpt><trkpt lat="42.76978546747736" lon="13.40968765144786"><ele>392.0</ele><time>2026-04-18T08:47:55.999Z</time></trkpt><trkpt lat="42.76970855756158" lon="13.409579069138413"><ele>392.0</ele><time>2026-04-18T08:47:56.999Z</time></trkpt><trkpt lat="42.76961749853789" lon="13.409456828683195"><ele>392.75</ele><time>2026-04-18T08:47:57.999Z</time></trkpt><trkpt lat="42.769520915456376" lon="13.409327636813908"><ele>393.5</ele><time>2026-04-18T08:47:58.999Z</time></trkpt><trkpt lat="42.769420383797446" lon="13.409190182422371"><ele>394.25</ele><time>2026-04-18T08:47:59.999Z</time></trkpt><trkpt lat="42.76931093166385" lon="13.409043728737199"><ele>395.0</ele><time>2026-04-18T08:48:00.999Z</time></trkpt><trkpt lat="42.7692000048009" lon="13.408897043292951"><ele>391.3333333333333</ele><time>2026-04-18T08:48:01.999Z</time></trkpt><trkpt lat="42.76908545152749" lon="13.408744358120941"><ele>387.66666666666663</ele><time>2026-04-18T08:48:02.999Z</time></trkpt><trkpt lat="42.76896843950312" lon="13.408586933872202"><ele>384.0</ele><time>2026-04-18T08:48:03.999Z</time></trkpt><trkpt lat="42.76885384537578" lon="13.408428119122906"><ele>384.0</ele><time>2026-04-18T08:48:04.999Z</time></trkpt><trkpt lat="42.76873948845655" lon="13.408299473137182"><ele>384.0</ele><time>2026-04-18T08:48:05.999Z</time></trkpt><trkpt lat="42.76864462392703" lon="13.408187443300816"><ele>384.0</ele><time>2026-04-18T08:48:06.999Z</time></trkpt><trkpt lat="42.76855122881984" lon="13.408065240284104"><ele>384.0</ele><time>2026-04-18T08:48:07.999Z</time></trkpt><trkpt lat="42.76845900511444" lon="13.407941680894623"><ele>380.5</ele><time>2026-04-18T08:48:08.999Z</time></trkpt><trkpt lat="42.768367833405755" lon="13.407818644212558"><ele>377.0</ele><time>2026-04-18T08:48:09.999Z</time></trkpt><trkpt lat="42.76828045313238" lon="13.407693175150676"><ele>373.5</ele><time>2026-04-18T08:48:10.999Z</time></trkpt><trkpt lat="42.76819930125693" lon="13.407568949473056"><ele>370.0</ele><time>2026-04-18T08:48:11.999Z</time></trkpt><trkpt lat="42.768126628525735" lon="13.407436932278854"><ele>370.0</ele><time>2026-04-18T08:48:12.999Z</time></trkpt><trkpt lat="42.768066679230195" lon="13.407290841484034"><ele>370.0</ele><time>2026-04-18T08:48:13.999Z</time></trkpt><trkpt lat="42.76801680569449" lon="13.407139483568837"><ele>370.0</ele><time>2026-04-18T08:48:14.999Z</time></trkpt><trkpt lat="42.76797202103904" lon="13.406981255210601"><ele>370.0</ele><time>2026-04-18T08:48:15.999Z</time></trkpt><trkpt lat="42.76792748783537" lon="13.406816009067077"><ele>369.5</ele><time>2026-04-18T08:48:16.999Z</time></trkpt><trkpt lat="42.76787832466171" lon="13.406646824631427"><ele>369.0</ele><time>2026-04-18T08:48:17.999Z</time></trkpt><trkpt lat="42.76782500791541" lon="13.406462866799622"><ele>368.5</ele><time>2026-04-18T08:48:18.999Z</time></trkpt><trkpt lat="42.76776654331468" lon="13.406266295895804"><ele>368.0</ele><time>2026-04-18T08:48:19.999Z</time></trkpt><trkpt lat="42.76770620802119" lon="13.406070072976046"><ele>368.33333333333337</ele><time>2026-04-18T08:48:20.999Z</time></trkpt><trkpt lat="42.76764718296069" lon="13.405865443769008"><ele>368.6666666666667</ele><time>2026-04-18T08:48:21.999Z</time></trkpt><trkpt lat="42.76758709201654" lon="13.405655631710694"><ele>369.0</ele><time>2026-04-18T08:48:22.999Z</time></trkpt><trkpt lat="42.76752368845702" lon="13.405446260017312"><ele>369.0</ele><time>2026-04-18T08:48:23.999Z</time></trkpt><trkpt lat="42.767454382663274" lon="13.40522855546257"><ele>369.0</ele><time>2026-04-18T08:48:24.999Z</time></trkpt><trkpt lat="42.76736719726451" lon="13.405030502778626"><ele>369.0</ele><time>2026-04-18T08:48:25.999Z</time></trkpt><trkpt lat="42.7672469494405" lon="13.404864564250486"><ele>369.0</ele><time>2026-04-18T08:48:26.998Z</time></trkpt><trkpt lat="42.7671245397547" lon="13.404710111797696"><ele>369.0</ele><time>2026-04-18T08:48:27.998Z</time></trkpt><trkpt lat="42.766978124195" lon="13.404585786353422"><ele>369.0</ele><time>2026-04-18T08:48:28.998Z</time></trkpt><trkpt lat="42.76681827061805" lon="13.404483623321898"><ele>370.0</ele><time>2026-04-18T08:48:29.998Z</time></trkpt><trkpt lat="42.76665345591217" lon="13.404413169453818"><ele>371.0</ele><time>2026-04-18T08:48:30.998Z</time></trkpt><trkpt lat="42.766481050311995" lon="13.404374922984466"><ele>372.0</ele><time>2026-04-18T08:48:31.998Z</time></trkpt><trkpt lat="42.76631042456979" lon="13.404364642742232"><ele>372.0</ele><time>2026-04-18T08:48:32.998Z</time></trkpt><trkpt lat="42.76614208602265" lon="13.404367877453325"><ele>372.0</ele><time>2026-04-18T08:48:33.998Z</time></trkpt><trkpt lat="42.765979066557456" lon="13.404370089759281"><ele>372.0</ele><time>2026-04-18T08:48:34.998Z</time></trkpt><trkpt lat="42.76581963377576" lon="13.404351008389579"><ele>374.3333333333333</ele><time>2026-04-18T08:48:35.998Z</time></trkpt><trkpt lat="42.76566323494613" lon="13.404353900895323"><ele>376.66666666666663</ele><time>2026-04-18T08:48:36.998Z</time></trkpt><trkpt lat="42.765509104993974" lon="13.4043262037722"><ele>379.0</ele><time>2026-04-18T08:48:37.998Z</time></trkpt><trkpt lat="42.765355451775584" lon="13.404275948893014"><ele>379.0</ele><time>2026-04-18T08:48:38.998Z</time></trkpt><trkpt lat="42.76520192989105" lon="13.404201259990927"><ele>379.0</ele><time>2026-04-18T08:48:39.998Z</time></trkpt><trkpt lat="42.7650515761199" lon="13.404120661590461"><ele>379.0</ele><time>2026-04-18T08:48:40.998Z</time></trkpt><trkpt lat="42.764896390940436" lon="13.404047132418045"><ele>381.66666666666663</ele><time>2026-04-18T08:48:41.998Z</time></trkpt><trkpt lat="42.764737765428116" lon="13.403985453974556"><ele>384.3333333333333</ele><time>2026-04-18T08:48:42.998Z</time></trkpt><trkpt lat="42.764574319040484" lon="13.403927140549234"><ele>387.0</ele><time>2026-04-18T08:48:43.998Z</time></trkpt><trkpt lat="42.76441313892515" lon="13.40387378778815"><ele>384.5</ele><time>2026-04-18T08:48:44.998Z</time></trkpt><trkpt lat="42.764258592405675" lon="13.40382233816591"><ele>382.0</ele><time>2026-04-18T08:48:45.998Z</time></trkpt><trkpt lat="42.76411626140066" lon="13.403775310543061"><ele>379.5</ele><time>2026-04-18T08:48:46.998Z</time></trkpt><trkpt lat="42.763985048686905" lon="13.403716905518946"><ele>377.0</ele><time>2026-04-18T08:48:47.998Z</time></trkpt><trkpt lat="42.763872235925724" lon="13.403631156434379"><ele>377.0</ele><time>2026-04-18T08:48:48.998Z</time></trkpt><trkpt lat="42.7637762024866" lon="13.403500049378932"><ele>377.0</ele><time>2026-04-18T08:48:49.998Z</time></trkpt><trkpt lat="42.763701811405156" lon="13.403331847375714"><ele>377.0</ele><time>2026-04-18T08:48:50.998Z</time></trkpt><trkpt lat="42.76365734051473" lon="13.403143263358954"><ele>377.0</ele><time>2026-04-18T08:48:51.998Z</time></trkpt><trkpt lat="42.76363565320802" lon="13.402944279295912"><ele>378.0</ele><time>2026-04-18T08:48:52.998Z</time></trkpt><trkpt lat="42.76362922524758" lon="13.402742219427472"><ele>379.0</ele><time>2026-04-18T08:48:53.998Z</time></trkpt><trkpt lat="42.76362919695581" lon="13.402536330907191"><ele>380.0</ele><time>2026-04-18T08:48:54.998Z</time></trkpt><trkpt lat="42.76364087851049" lon="13.402335726977459"><ele>381.0</ele><time>2026-04-18T08:48:55.998Z</time></trkpt><trkpt lat="42.76368079254705" lon="13.402140032091205"><ele>382.75</ele><time>2026-04-18T08:48:56.998Z</time></trkpt><trkpt lat="42.76374366421365" lon="13.401951511845853"><ele>384.5</ele><time>2026-04-18T08:48:57.998Z</time></trkpt><trkpt lat="42.7638223038237" lon="13.40178405429009"><ele>386.25</ele><time>2026-04-18T08:48:58.998Z</time></trkpt><trkpt lat="42.7639129625205" lon="13.401646680037638"><ele>388.0</ele><time>2026-04-18T08:48:59.998Z</time></trkpt><trkpt lat="42.76403055959373" lon="13.401554578896896"><ele>388.0</ele><time>2026-04-18T08:49:00.998Z</time></trkpt><trkpt lat="42.764139403312406" lon="13.40143174318028"><ele>388.0</ele><time>2026-04-18T08:49:01.998Z</time></trkpt><trkpt lat="42.76426136912749" lon="13.401333950070846"><ele>388.0</ele><time>2026-04-18T08:49:02.998Z</time></trkpt><trkpt lat="42.76436225568306" lon="13.401211740049234"><ele>388.0</ele><time>2026-04-18T08:49:03.998Z</time></trkpt><trkpt lat="42.764437463498595" lon="13.401058107862134"><ele>388.25</ele><time>2026-04-18T08:49:04.998Z</time></trkpt><trkpt lat="42.76448096476164" lon="13.400868698573662"><ele>388.5</ele><time>2026-04-18T08:49:05.998Z</time></trkpt><trkpt lat="42.76449267616433" lon="13.400667961497618"><ele>388.75</ele><time>2026-04-18T08:49:06.998Z</time></trkpt><trkpt lat="42.76447889062679" lon="13.400467589364851"><ele>389.0</ele><time>2026-04-18T08:49:07.998Z</time></trkpt><trkpt lat="42.76443664867903" lon="13.400272827779352"><ele>390.75</ele><time>2026-04-18T08:49:08.998Z</time></trkpt><trkpt lat="42.764359557422935" lon="13.400105717373439"><ele>392.5</ele><time>2026-04-18T08:49:09.999Z</time></trkpt><trkpt lat="42.764266575070636" lon="13.399963073139912"><ele>394.25</ele><time>2026-04-18T08:49:10.999Z</time></trkpt><trkpt lat="42.76419285290609" lon="13.399812534572941"><ele>396.0</ele><time>2026-04-18T08:49:11.999Z</time></trkpt><trkpt lat="42.76415203956333" lon="13.399625219993823"><ele>396.0</ele><time>2026-04-18T08:49:12.999Z</time></trkpt><trkpt lat="42.7641370610627" lon="13.399426745747526"><ele>396.0</ele><time>2026-04-18T08:49:13.999Z</time></trkpt><trkpt lat="42.764137278218485" lon="13.399223080153018"><ele>396.0</ele><time>2026-04-18T08:49:14.999Z</time></trkpt><trkpt lat="42.76412916656332" lon="13.399011724113375"><ele>395.33333333333337</ele><time>2026-04-18T08:49:15.999Z</time></trkpt><trkpt lat="42.76410811958379" lon="13.398795645114795"><ele>394.6666666666667</ele><time>2026-04-18T08:49:16.999Z</time></trkpt><trkpt lat="42.76406912138008" lon="13.398583692763259"><ele>394.0</ele><time>2026-04-18T08:49:17.999Z</time></trkpt><trkpt lat="42.7640165726474" lon="13.398381054644757"><ele>394.0</ele><time>2026-04-18T08:49:18.999Z</time></trkpt><trkpt lat="42.763968994761896" lon="13.398178084849253"><ele>394.0</ele><time>2026-04-18T08:49:19.999Z</time></trkpt><trkpt lat="42.76394002548231" lon="13.397980820912874"><ele>394.0</ele><time>2026-04-18T08:49:20.999Z</time></trkpt><trkpt lat="42.763931174558564" lon="13.397788903673778"><ele>394.0</ele><time>2026-04-18T08:49:21.999Z</time></trkpt><trkpt lat="42.76395111827956" lon="13.39760559229458"><ele>396.5</ele><time>2026-04-18T08:49:22.999Z</time></trkpt><trkpt lat="42.76400169030304" lon="13.397435424633638"><ele>399.0</ele><time>2026-04-18T08:49:23.999Z</time></trkpt><trkpt lat="42.76407169753559" lon="13.397279623294482"><ele>401.5</ele><time>2026-04-18T08:49:24.999Z</time></trkpt><trkpt lat="42.76415474621539" lon="13.397137531901462"><ele>404.0</ele><time>2026-04-18T08:49:25.999Z</time></trkpt><trkpt lat="42.76424092643592" lon="13.397012009639596"><ele>406.25</ele><time>2026-04-18T08:49:26.999Z</time></trkpt><trkpt lat="42.764328952630486" lon="13.396890114920154"><ele>408.5</ele><time>2026-04-18T08:49:27.999Z</time></trkpt><trkpt lat="42.764395157814704" lon="13.396736233953764"><ele>410.75</ele><time>2026-04-18T08:49:28.999Z</time></trkpt><trkpt lat="42.76443054982838" lon="13.39655997170022"><ele>413.0</ele><time>2026-04-18T08:49:29.999Z</time></trkpt><trkpt lat="42.76442013711917" lon="13.39637497793938"><ele>409.75</ele><time>2026-04-18T08:49:30.999Z</time></trkpt><trkpt lat="42.76435970706571" lon="13.396203342448304"><ele>406.5</ele><time>2026-04-18T08:49:31.999Z</time></trkpt><trkpt lat="42.76426325330666" lon="13.396041626157936"><ele>403.25</ele><time>2026-04-18T08:49:32.999Z</time></trkpt><trkpt lat="42.76415101762051" lon="13.395902655067944"><ele>400.0</ele><time>2026-04-18T08:49:33.999Z</time></trkpt><trkpt lat="42.764032737340365" lon="13.395763216191375"><ele>400.0</ele><time>2026-04-18T08:49:34.999Z</time></trkpt><trkpt lat="42.76391431218113" lon="13.395609451637181"><ele>400.0</ele><time>2026-04-18T08:49:35.999Z</time></trkpt><trkpt lat="42.763798130239294" lon="13.395439871113242"><ele>400.0</ele><time>2026-04-18T08:49:36.999Z</time></trkpt><trkpt lat="42.76370228546753" lon="13.395255921436018"><ele>398.0</ele><time>2026-04-18T08:49:37.999Z</time></trkpt><trkpt lat="42.763629081235315" lon="13.395049253565668"><ele>396.0</ele><time>2026-04-18T08:49:38.999Z</time></trkpt><trkpt lat="42.76357025722968" lon="13.394828531360748"><ele>394.0</ele><time>2026-04-18T08:49:39.999Z</time></trkpt><trkpt lat="42.76352350354485" lon="13.39459570115214"><ele>402.0</ele><time>2026-04-18T08:49:40.999Z</time></trkpt><trkpt lat="42.76348989007429" lon="13.394350121633902"><ele>410.0</ele><time>2026-04-18T08:49:41.999Z</time></trkpt><trkpt lat="42.76347836246507" lon="13.394087625052233"><ele>418.0</ele><time>2026-04-18T08:49:42.999Z</time></trkpt><trkpt lat="42.76347258984177" lon="13.393828783351042"><ele>419.0</ele><time>2026-04-18T08:49:43.999Z</time></trkpt><trkpt lat="42.763467453247785" lon="13.393510563830237"><ele>420.0</ele><time>2026-04-18T08:49:44.999Z</time></trkpt><trkpt lat="42.763455321002375" lon="13.393174717057057"><ele>423.33333333333337</ele><time>2026-04-18T08:49:45.999Z</time></trkpt><trkpt lat="42.763442225631195" lon="13.392880133317702"><ele>426.6666666666667</ele><time>2026-04-18T08:49:46.999Z</time></trkpt><trkpt lat="42.76347634590937" lon="13.39261219574274"><ele>430.0</ele><time>2026-04-18T08:49:47.999Z</time></trkpt><trkpt lat="42.76352589275243" lon="13.392366721297867"><ele>422.0</ele><time>2026-04-18T08:49:48.999Z</time></trkpt><trkpt lat="42.763562750744406" lon="13.39213968389852"><ele>414.0</ele><time>2026-04-18T08:49:49.999Z</time></trkpt><trkpt lat="42.7635823636429" lon="13.3919211427399"><ele>406.0</ele><time>2026-04-18T08:49:50.999Z</time></trkpt><trkpt lat="42.76357891213634" lon="13.391713775869247"><ele>413.25</ele><time>2026-04-18T08:49:51.999Z</time></trkpt><trkpt lat="42.763528457121346" lon="13.39152151479465"><ele>420.5</ele><time>2026-04-18T08:49:52.999Z</time></trkpt><trkpt lat="42.7634872229446" lon="13.391326039016581"><ele>427.75</ele><time>2026-04-18T08:49:53.999Z</time></trkpt><trkpt lat="42.7634607428495" lon="13.391134192892249"><ele>435.0</ele><time>2026-04-18T08:49:54.999Z</time></trkpt><trkpt lat="42.7634452503885" lon="13.390936195002418"><ele>435.0</ele><time>2026-04-18T08:49:55.999Z</time></trkpt><trkpt lat="42.76344817404887" lon="13.390726319751543"><ele>435.0</ele><time>2026-04-18T08:49:56.999Z</time></trkpt><trkpt lat="42.763476182334756" lon="13.39051874754851"><ele>435.0</ele><time>2026-04-18T08:49:57.999Z</time></trkpt><trkpt lat="42.76349470792048" lon="13.39030927898705"><ele>432.66666666666663</ele><time>2026-04-18T08:49:58.999Z</time></trkpt><trkpt lat="42.763482299063995" lon="13.390095062078865"><ele>430.3333333333333</ele><time>2026-04-18T08:49:59.999Z</time></trkpt><trkpt lat="42.763458607962924" lon="13.389880119569847"><ele>428.0</ele><time>2026-04-18T08:50:00.999Z</time></trkpt><trkpt lat="42.76343776060132" lon="13.389665273267953"><ele>424.66666666666663</ele><time>2026-04-18T08:50:01.999Z</time></trkpt><trkpt lat="42.763422364840665" lon="13.389442854216009"><ele>421.33333333333337</ele><time>2026-04-18T08:50:02.999Z</time></trkpt><trkpt lat="42.76341145816443" lon="13.38923233082543"><ele>418.0</ele><time>2026-04-18T08:50:03.999Z</time></trkpt><trkpt lat="42.7634027429494" lon="13.389027748952628"><ele>416.25</ele><time>2026-04-18T08:50:04.999Z</time></trkpt><trkpt lat="42.76338657706696" lon="13.388822703787923"><ele>414.5</ele><time>2026-04-18T08:50:05.999Z</time></trkpt><trkpt lat="42.763358502027714" lon="13.38862051970339"><ele>412.75</ele><time>2026-04-18T08:50:06.999Z</time></trkpt><trkpt lat="42.76332659261081" lon="13.388427779427229"><ele>411.0</ele><time>2026-04-18T08:50:07.999Z</time></trkpt><trkpt lat="42.76329587958707" lon="13.388252017759136"><ele>411.0</ele><time>2026-04-18T08:50:08.999Z</time></trkpt><trkpt lat="42.76326809524041" lon="13.388085148474039"><ele>411.0</ele><time>2026-04-18T08:50:09.999Z</time></trkpt><trkpt lat="42.76324383796077" lon="13.387918484727303"><ele>411.0</ele><time>2026-04-18T08:50:10.999Z</time></trkpt><trkpt lat="42.763223401174066" lon="13.387760247705936"><ele>411.0</ele><time>2026-04-18T08:50:11.998Z</time></trkpt><trkpt lat="42.76321908721943" lon="13.387592955343957"><ele>411.75</ele><time>2026-04-18T08:50:12.998Z</time></trkpt><trkpt lat="42.76323217920339" lon="13.387413516853929"><ele>412.5</ele><time>2026-04-18T08:50:13.998Z</time></trkpt><trkpt lat="42.763244683999694" lon="13.387232623718011"><ele>413.25</ele><time>2026-04-18T08:50:14.998Z</time></trkpt><trkpt lat="42.76325518442219" lon="13.387042789382342"><ele>414.0</ele><time>2026-04-18T08:50:15.998Z</time></trkpt><trkpt lat="42.76326604266018" lon="13.386849720648883"><ele>413.33333333333337</ele><time>2026-04-18T08:50:16.998Z</time></trkpt><trkpt lat="42.76327510589572" lon="13.386647804042225"><ele>412.6666666666667</ele><time>2026-04-18T08:50:17.998Z</time></trkpt><trkpt lat="42.7632865451513" lon="13.386436613809762"><ele>412.0</ele><time>2026-04-18T08:50:18.998Z</time></trkpt><trkpt lat="42.763303997156356" lon="13.38622546570981"><ele>412.0</ele><time>2026-04-18T08:50:19.998Z</time></trkpt><trkpt lat="42.76332561969261" lon="13.38601276689167"><ele>412.0</ele><time>2026-04-18T08:50:20.998Z</time></trkpt><trkpt lat="42.76335645077377" lon="13.385798306135456"><ele>412.0</ele><time>2026-04-18T08:50:21.998Z</time></trkpt><trkpt lat="42.76340728636343" lon="13.385586595455731"><ele>409.0</ele><time>2026-04-18T08:50:22.998Z</time></trkpt><trkpt lat="42.76348222768934" lon="13.38537734570623"><ele>406.0</ele><time>2026-04-18T08:50:23.998Z</time></trkpt><trkpt lat="42.76356953870572" lon="13.385173331071979"><ele>403.0</ele><time>2026-04-18T08:50:24.998Z</time></trkpt><trkpt lat="42.763652590892" lon="13.384965650002602"><ele>407.0</ele><time>2026-04-18T08:50:25.998Z</time></trkpt><trkpt lat="42.76372124500056" lon="13.38475736497779"><ele>411.0</ele><time>2026-04-18T08:50:26.998Z</time></trkpt><trkpt lat="42.76377424464645" lon="13.384542731970686"><ele>415.0</ele><time>2026-04-18T08:50:27.998Z</time></trkpt><trkpt lat="42.76381429866899" lon="13.384321707138247"><ele>415.0</ele><time>2026-04-18T08:50:28.998Z</time></trkpt><trkpt lat="42.76384536326944" lon="13.38410456978146"><ele>415.0</ele><time>2026-04-18T08:50:29.998Z</time></trkpt><trkpt lat="42.76386327399181" lon="13.383888595733776"><ele>415.0</ele><time>2026-04-18T08:50:30.998Z</time></trkpt><trkpt lat="42.76386270626021" lon="13.383679078818764"><ele>415.5</ele><time>2026-04-18T08:50:31.998Z</time></trkpt><trkpt lat="42.76383964634764" lon="13.383481943800875"><ele>416.0</ele><time>2026-04-18T08:50:32.998Z</time></trkpt><trkpt lat="42.7637905884756" lon="13.383291831000124"><ele>416.5</ele><time>2026-04-18T08:50:33.998Z</time></trkpt><trkpt lat="42.76373749048911" lon="13.383095033365642"><ele>417.0</ele><time>2026-04-18T08:50:34.998Z</time></trkpt><trkpt lat="42.763674915868165" lon="13.382899941149514"><ele>417.33333333333337</ele><time>2026-04-18T08:50:35.998Z</time></trkpt><trkpt lat="42.763607605119965" lon="13.382707834761828"><ele>417.6666666666667</ele><time>2026-04-18T08:50:36.998Z</time></trkpt><trkpt lat="42.76353923881681" lon="13.382511822869128"><ele>418.0</ele><time>2026-04-18T08:50:37.998Z</time></trkpt><trkpt lat="42.76347323069513" lon="13.382326261939848"><ele>428.75</ele><time>2026-04-18T08:50:38.998Z</time></trkpt><trkpt lat="42.76339168224389" lon="13.382166133681697"><ele>439.5</ele><time>2026-04-18T08:50:39.998Z</time></trkpt><trkpt lat="42.763284493133234" lon="13.382051405356542"><ele>450.25</ele><time>2026-04-18T08:50:40.998Z</time></trkpt><trkpt lat="42.76315914745749" lon="13.381982381617592"><ele>461.0</ele><time>2026-04-18T08:50:41.998Z</time></trkpt><trkpt lat="42.763027738524066" lon="13.38194561298168"><ele>461.0</ele><time>2026-04-18T08:50:42.998Z</time></trkpt><trkpt lat="42.76290082762591" lon="13.381915746639788"><ele>461.0</ele><time>2026-04-18T08:50:43.998Z</time></trkpt><trkpt lat="42.76277761196879" lon="13.381959346512753"><ele>461.0</ele><time>2026-04-18T08:50:44.998Z</time></trkpt><trkpt lat="42.76265058323237" lon="13.382023383371543"><ele>461.0</ele><time>2026-04-18T08:50:45.998Z</time></trkpt><trkpt lat="42.76253130497622" lon="13.382107056436565"><ele>454.4</ele><time>2026-04-18T08:50:46.998Z</time></trkpt><trkpt lat="42.762413005514475" lon="13.38217575329143"><ele>447.8</ele><time>2026-04-18T08:50:47.998Z</time></trkpt><trkpt lat="42.762320888919554" lon="13.382260574081243"><ele>441.19999999999993</ele><time>2026-04-18T08:50:48.998Z</time></trkpt><trkpt lat="42.762221932896324" lon="13.382279410609872"><ele>434.59999999999997</ele><time>2026-04-18T08:50:49.998Z</time></trkpt><trkpt lat="42.76213201504531" lon="13.382246736616674"><ele>428.0</ele><time>2026-04-18T08:50:50.998Z</time></trkpt><trkpt lat="42.76206730465863" lon="13.38216529193046"><ele>428.0</ele><time>2026-04-18T08:50:51.998Z</time></trkpt><trkpt lat="42.76203850014514" lon="13.382048624805266"><ele>428.0</ele><time>2026-04-18T08:50:52.998Z</time></trkpt><trkpt lat="42.76204270336872" lon="13.38190034883718"><ele>428.0</ele><time>2026-04-18T08:50:53.998Z</time></trkpt><trkpt lat="42.76207925258734" lon="13.381741155905244"><ele>428.0</ele><time>2026-04-18T08:50:54.998Z</time></trkpt><trkpt lat="42.76212959368964" lon="13.381546551380247"><ele>430.66666666666663</ele><time>2026-04-18T08:50:55.998Z</time></trkpt><trkpt lat="42.762168531448786" lon="13.38133256097479"><ele>433.33333333333337</ele><time>2026-04-18T08:50:56.998Z</time></trkpt><trkpt lat="42.762199260181454" lon="13.381095863757261"><ele>436.0</ele><time>2026-04-18T08:50:57.998Z</time></trkpt><trkpt lat="42.76221358140595" lon="13.380858301516637"><ele>436.0</ele><time>2026-04-18T08:50:58.998Z</time></trkpt><trkpt lat="42.76222943280568" lon="13.380653165941439"><ele>436.0</ele><time>2026-04-18T08:50:59.997Z</time></trkpt><trkpt lat="42.76221195763679" lon="13.380419725156003"><ele>436.0</ele><time>2026-04-18T08:51:00.997Z</time></trkpt><trkpt lat="42.7621839576328" lon="13.380188393950865"><ele>436.33333333333337</ele><time>2026-04-18T08:51:01.997Z</time></trkpt><trkpt lat="42.7621340436954" lon="13.37997548696551"><ele>436.66666666666663</ele><time>2026-04-18T08:51:02.997Z</time></trkpt><trkpt lat="42.76207398120826" lon="13.379781770889785"><ele>437.0</ele><time>2026-04-18T08:51:03.997Z</time></trkpt><trkpt lat="42.76200234086879" lon="13.379593159929463"><ele>437.0</ele><time>2026-04-18T08:51:04.997Z</time></trkpt><trkpt lat="42.761919175929314" lon="13.379410863984909"><ele>437.0</ele><time>2026-04-18T08:51:05.997Z</time></trkpt><trkpt lat="42.76182797369842" lon="13.379238535124994"><ele>437.0</ele><time>2026-04-18T08:51:06.997Z</time></trkpt><trkpt lat="42.76174159330678" lon="13.37907721745766"><ele>436.5</ele><time>2026-04-18T08:51:07.997Z</time></trkpt><trkpt lat="42.76166988599758" lon="13.378924664413901"><ele>436.0</ele><time>2026-04-18T08:51:08.997Z</time></trkpt><trkpt lat="42.761607135303144" lon="13.378777173239833"><ele>435.5</ele><time>2026-04-18T08:51:09.997Z</time></trkpt><trkpt lat="42.76155078708914" lon="13.378638180161493"><ele>435.0</ele><time>2026-04-18T08:51:10.997Z</time></trkpt><trkpt lat="42.761503998254966" lon="13.378505155179274"><ele>435.0</ele><time>2026-04-18T08:51:11.997Z</time></trkpt><trkpt lat="42.76148799240967" lon="13.378384178098704"><ele>435.0</ele><time>2026-04-18T08:51:12.997Z</time></trkpt><trkpt lat="42.76151705863683" lon="13.378283596306595"><ele>435.0</ele><time>2026-04-18T08:51:13.997Z</time></trkpt><trkpt lat="42.76157057052344" lon="13.378209354638718"><ele>435.0</ele><time>2026-04-18T08:51:14.997Z</time></trkpt><trkpt lat="42.761647975418434" lon="13.378154443829226"><ele>435.0</ele><time>2026-04-18T08:51:15.999Z</time></trkpt><trkpt lat="42.761743051307775" lon="13.37812901941402"><ele>435.0</ele><time>2026-04-18T08:51:16.999Z</time></trkpt><trkpt lat="42.76184054825082" lon="13.378124826625765"><ele>435.25</ele><time>2026-04-18T08:51:17.999Z</time></trkpt><trkpt lat="42.76195206859915" lon="13.37816913228078"><ele>435.5</ele><time>2026-04-18T08:51:18.999Z</time></trkpt><trkpt lat="42.762081248503485" lon="13.378180303027456"><ele>435.75</ele><time>2026-04-18T08:51:19.999Z</time></trkpt><trkpt lat="42.76221832811397" lon="13.378201338095845"><ele>436.0</ele><time>2026-04-18T08:51:20.999Z</time></trkpt><trkpt lat="42.76236377108579" lon="13.378194198688762"><ele>436.0</ele><time>2026-04-18T08:51:21.999Z</time></trkpt><trkpt lat="42.76249945873146" lon="13.37814533910174"><ele>436.0</ele><time>2026-04-18T08:51:22.999Z</time></trkpt><trkpt lat="42.76261355105871" lon="13.378053725439344"><ele>436.0</ele><time>2026-04-18T08:51:23.999Z</time></trkpt><trkpt lat="42.76271103804514" lon="13.377946564292964"><ele>436.0</ele><time>2026-04-18T08:51:24.999Z</time></trkpt><trkpt lat="42.762797971416624" lon="13.377814251898192"><ele>442.0</ele><time>2026-04-18T08:51:25.999Z</time></trkpt><trkpt lat="42.76286446096228" lon="13.377655837596352"><ele>448.0</ele><time>2026-04-18T08:51:26.999Z</time></trkpt><trkpt lat="42.76290900523581" lon="13.37748420427155"><ele>454.0</ele><time>2026-04-18T08:51:27.999Z</time></trkpt><trkpt lat="42.762932339477146" lon="13.377295014935747"><ele>460.0</ele><time>2026-04-18T08:51:28.999Z</time></trkpt><trkpt lat="42.762933599761624" lon="13.377095875696487"><ele>460.0</ele><time>2026-04-18T08:51:29.999Z</time></trkpt><trkpt lat="42.7629144915483" lon="13.376897793197793"><ele>460.0</ele><time>2026-04-18T08:51:30.999Z</time></trkpt><trkpt lat="42.762879912829526" lon="13.37670169074916"><ele>460.0</ele><time>2026-04-18T08:51:31.999Z</time></trkpt><trkpt lat="42.76282845071064" lon="13.376508724061177"><ele>460.0</ele><time>2026-04-18T08:51:32.999Z</time></trkpt><trkpt lat="42.762759542531136" lon="13.376322537791417"><ele>453.33333333333337</ele><time>2026-04-18T08:51:33.999Z</time></trkpt><trkpt lat="42.76267947087883" lon="13.376136270426562"><ele>446.66666666666663</ele><time>2026-04-18T08:51:34.999Z</time></trkpt><trkpt lat="42.76259955266671" lon="13.375940546607145"><ele>440.0</ele><time>2026-04-18T08:51:35.999Z</time></trkpt><trkpt lat="42.76253224938517" lon="13.375734998729309"><ele>440.0</ele><time>2026-04-18T08:51:36.999Z</time></trkpt><trkpt lat="42.76246647374101" lon="13.375521668594176"><ele>440.0</ele><time>2026-04-18T08:51:37.999Z</time></trkpt><trkpt lat="42.76240360903953" lon="13.37530741316095"><ele>440.0</ele><time>2026-04-18T08:51:38.999Z</time></trkpt><trkpt lat="42.76234576681669" lon="13.375094475726574"><ele>444.66666666666663</ele><time>2026-04-18T08:51:39.999Z</time></trkpt><trkpt lat="42.762293875168" lon="13.374887030375739"><ele>449.33333333333337</ele><time>2026-04-18T08:51:40.999Z</time></trkpt><trkpt lat="42.7622547222394" lon="13.374674641893032"><ele>454.0</ele><time>2026-04-18T08:51:41.999Z</time></trkpt><trkpt lat="42.7622343142617" lon="13.374477438604343"><ele>454.0</ele><time>2026-04-18T08:51:42.999Z</time></trkpt><trkpt lat="42.76223488108597" lon="13.374276381995756"><ele>454.0</ele><time>2026-04-18T08:51:43.999Z</time></trkpt><trkpt lat="42.762251969850034" lon="13.374082590630879"><ele>454.0</ele><time>2026-04-18T08:51:44.999Z</time></trkpt><trkpt lat="42.762281443330295" lon="13.37390588468225"><ele>454.0</ele><time>2026-04-18T08:51:45.999Z</time></trkpt><trkpt lat="42.76232861865476" lon="13.373743034818856"><ele>451.75</ele><time>2026-04-18T08:51:46.999Z</time></trkpt><trkpt lat="42.762400734250036" lon="13.373584015991446"><ele>449.5</ele><time>2026-04-18T08:51:47.999Z</time></trkpt><trkpt lat="42.762490274448666" lon="13.373435816555414"><ele>447.25</ele><time>2026-04-18T08:51:48.999Z</time></trkpt><trkpt lat="42.76259139587068" lon="13.37329891833996"><ele>445.0</ele><time>2026-04-18T08:51:49.999Z</time></trkpt><trkpt lat="42.76269173222696" lon="13.373155579810296"><ele>449.6666666666667</ele><time>2026-04-18T08:51:50.999Z</time></trkpt><trkpt lat="42.762774972464584" lon="13.372992365195678"><ele>454.33333333333337</ele><time>2026-04-18T08:51:51.999Z</time></trkpt><trkpt lat="42.7628486130728" lon="13.372810009210122"><ele>459.0</ele><time>2026-04-18T08:51:52.999Z</time></trkpt><trkpt lat="42.76293397817226" lon="13.372627094672435"><ele>459.0</ele><time>2026-04-18T08:51:53.999Z</time></trkpt><trkpt lat="42.763028395867494" lon="13.372458669131493"><ele>459.0</ele><time>2026-04-18T08:51:54.999Z</time></trkpt><trkpt lat="42.76311981451806" lon="13.372292613418436"><ele>459.0</ele><time>2026-04-18T08:51:55.999Z</time></trkpt><trkpt lat="42.763198004743494" lon="13.37211735572425"><ele>458.75</ele><time>2026-04-18T08:51:56.999Z</time></trkpt><trkpt lat="42.7632546376892" lon="13.37193261956793"><ele>458.5</ele><time>2026-04-18T08:51:57.999Z</time></trkpt><trkpt lat="42.76328734773549" lon="13.371738836752666"><ele>458.25</ele><time>2026-04-18T08:51:58.999Z</time></trkpt><trkpt lat="42.763290837425174" lon="13.371541841574512"><ele>458.0</ele><time>2026-04-18T08:51:59.999Z</time></trkpt><trkpt lat="42.76329626373708" lon="13.371347911718974"><ele>459.75</ele><time>2026-04-18T08:52:00.999Z</time></trkpt><trkpt lat="42.76328806172886" lon="13.371146508400708"><ele>461.5</ele><time>2026-04-18T08:52:01.999Z</time></trkpt><trkpt lat="42.76326279908688" lon="13.370940891912598"><ele>463.25</ele><time>2026-04-18T08:52:02.999Z</time></trkpt><trkpt lat="42.76322695878777" lon="13.370745062126899"><ele>465.0</ele><time>2026-04-18T08:52:03.999Z</time></trkpt><trkpt lat="42.76317709882014" lon="13.370574491010846"><ele>465.5</ele><time>2026-04-18T08:52:04.999Z</time></trkpt><trkpt lat="42.76311991811397" lon="13.370416285918795"><ele>466.0</ele><time>2026-04-18T08:52:05.999Z</time></trkpt><trkpt lat="42.763045195752554" lon="13.370274338216543"><ele>466.5</ele><time>2026-04-18T08:52:06.999Z</time></trkpt><trkpt lat="42.7629272465569" lon="13.3701840571931"><ele>467.0</ele><time>2026-04-18T08:52:07.998Z</time></trkpt><trkpt lat="42.76281261892717" lon="13.370135497501934"><ele>466.99999999999994</ele><time>2026-04-18T08:52:08.998Z</time></trkpt><trkpt lat="42.76270537615201" lon="13.370107543133583"><ele>467.0</ele><time>2026-04-18T08:52:09.998Z</time></trkpt><trkpt lat="42.76262972631029" lon="13.37009795504956"><ele>467.0</ele><time>2026-04-18T08:52:10.998Z</time></trkpt><trkpt lat="42.76255089299873" lon="13.370102172486785"><ele>467.0</ele><time>2026-04-18T08:52:11.998Z</time></trkpt><trkpt lat="42.76248664034734" lon="13.370132320684553"><ele>466.99999999999994</ele><time>2026-04-18T08:52:12.998Z</time></trkpt><trkpt lat="42.76238230774288" lon="13.37015252039945"><ele>467.0</ele><time>2026-04-18T08:52:14.998Z</time></trkpt><trkpt lat="42.76230198877591" lon="13.370165378905384"><ele>466.8333333333333</ele><time>2026-04-18T08:52:16.998Z</time></trkpt><trkpt lat="42.76220988073621" lon="13.370184776283185"><ele>466.66666666666663</ele><time>2026-04-18T08:52:19.998Z</time></trkpt><trkpt lat="42.76214168195462" lon="13.370198754026111"><ele>466.5</ele><time>2026-04-18T08:52:21.998Z</time></trkpt><trkpt lat="42.76204957180668" lon="13.370212373991754"><ele>466.33333333333337</ele><time>2026-04-18T08:52:24.998Z</time></trkpt><trkpt lat="42.76197717991947" lon="13.37023548104058"><ele>466.1666666666667</ele><time>2026-04-18T08:52:27.998Z</time></trkpt><trkpt lat="42.76190129052411" lon="13.370244110310052"><ele>466.0</ele><time>2026-04-18T08:52:31.998Z</time></trkpt><trkpt lat="42.76177465657" lon="13.370245665500182"><ele>466.0</ele><time>2026-04-18T08:53:44.999Z</time></trkpt><trkpt lat="42.7616865672507" lon="13.370262592909441"><ele>466.0</ele><time>2026-04-18T08:53:45.999Z</time></trkpt><trkpt lat="42.76157943927184" lon="13.370290013605876"><ele>466.0</ele><time>2026-04-18T08:53:46.999Z</time></trkpt><trkpt lat="42.76147200425657" lon="13.370304676413927"><ele>466.0</ele><time>2026-04-18T08:53:47.999Z</time></trkpt><trkpt lat="42.76135621152548" lon="13.370339895410442"><ele>466.0</ele><time>2026-04-18T08:53:48.999Z</time></trkpt><trkpt lat="42.76125370296468" lon="13.370356279287275"><ele>466.0</ele><time>2026-04-18T08:53:49.999Z</time></trkpt><trkpt lat="42.76117275594765" lon="13.370331415196642"><ele>466.0</ele><time>2026-04-18T08:53:50.999Z</time></trkpt><trkpt lat="42.76113029080197" lon="13.370249509447795"><ele>466.0</ele><time>2026-04-18T08:53:51.999Z</time></trkpt><trkpt lat="42.76113081437772" lon="13.370135761802361"><ele>466.0</ele><time>2026-04-18T08:53:52.999Z</time></trkpt><trkpt lat="42.76114613956964" lon="13.369981323631805"><ele>466.0</ele><time>2026-04-18T08:53:53.999Z</time></trkpt><trkpt lat="42.76114317656168" lon="13.36981345271201"><ele>472.33333333333337</ele><time>2026-04-18T08:53:54.999Z</time></trkpt><trkpt lat="42.761135408751976" lon="13.369623117813328"><ele>478.66666666666663</ele><time>2026-04-18T08:53:55.999Z</time></trkpt><trkpt lat="42.761123739937965" lon="13.369413329800274"><ele>485.0</ele><time>2026-04-18T08:53:56.999Z</time></trkpt><trkpt lat="42.761135203350854" lon="13.369166851936598"><ele>485.0</ele><time>2026-04-18T08:53:57.999Z</time></trkpt><trkpt lat="42.76112988918313" lon="13.368913146921827"><ele>485.0</ele><time>2026-04-18T08:53:58.999Z</time></trkpt><trkpt lat="42.76112613326564" lon="13.368668952862324"><ele>485.0</ele><time>2026-04-18T08:53:59.999Z</time></trkpt><trkpt lat="42.761141758175505" lon="13.368453638529466"><ele>485.0</ele><time>2026-04-18T08:54:00.999Z</time></trkpt><trkpt lat="42.76119174641585" lon="13.368252588651746"><ele>485.0</ele><time>2026-04-18T08:54:01.999Z</time></trkpt><trkpt lat="42.761278447451765" lon="13.368075407762033"><ele>485.0</ele><time>2026-04-18T08:54:02.999Z</time></trkpt><trkpt lat="42.76138958297374" lon="13.367933336123592"><ele>480.0</ele><time>2026-04-18T08:54:03.999Z</time></trkpt><trkpt lat="42.76150927265016" lon="13.367827677627877"><ele>475.0</ele><time>2026-04-18T08:54:04.999Z</time></trkpt><trkpt lat="42.761622508541244" lon="13.367693214078315"><ele>470.0</ele><time>2026-04-18T08:54:05.999Z</time></trkpt><trkpt lat="42.76172697512207" lon="13.367550175085132"><ele>465.0</ele><time>2026-04-18T08:54:06.999Z</time></trkpt><trkpt lat="42.76181360818544" lon="13.367394241574603"><ele>467.5</ele><time>2026-04-18T08:54:07.999Z</time></trkpt><trkpt lat="42.76188659337649" lon="13.367227698865953"><ele>470.0</ele><time>2026-04-18T08:54:08.999Z</time></trkpt><trkpt lat="42.76193713584415" lon="13.367048985866012"><ele>472.5</ele><time>2026-04-18T08:54:09.999Z</time></trkpt><trkpt lat="42.76196442485285" lon="13.366859034205673"><ele>475.0</ele><time>2026-04-18T08:54:10.999Z</time></trkpt><trkpt lat="42.76196757747088" lon="13.366660745003646"><ele>475.0</ele><time>2026-04-18T08:54:11.999Z</time></trkpt><trkpt lat="42.7619533026919" lon="13.366453279231155"><ele>475.0</ele><time>2026-04-18T08:54:12.999Z</time></trkpt><trkpt lat="42.76193554707326" lon="13.366237515459183"><ele>475.0</ele><time>2026-04-18T08:54:13.999Z</time></trkpt><trkpt lat="42.761922019684015" lon="13.366016567044966"><ele>477.0</ele><time>2026-04-18T08:54:14.999Z</time></trkpt><trkpt lat="42.76191061451554" lon="13.365797243025145"><ele>479.0</ele><time>2026-04-18T08:54:15.999Z</time></trkpt><trkpt lat="42.761895988262424" lon="13.365578710631873"><ele>481.0</ele><time>2026-04-18T08:54:16.999Z</time></trkpt><trkpt lat="42.76187965354313" lon="13.365354783568684"><ele>481.0</ele><time>2026-04-18T08:54:17.999Z</time></trkpt><trkpt lat="42.76186752426624" lon="13.365125596407351"><ele>481.0</ele><time>2026-04-18T08:54:18.999Z</time></trkpt><trkpt lat="42.7618693918047" lon="13.364903576125462"><ele>481.0</ele><time>2026-04-18T08:54:19.999Z</time></trkpt><trkpt lat="42.76189993216344" lon="13.364686841172738"><ele>479.33333333333337</ele><time>2026-04-18T08:54:20.998Z</time></trkpt><trkpt lat="42.76196551043459" lon="13.364480523817909"><ele>477.66666666666663</ele><time>2026-04-18T08:54:21.998Z</time></trkpt><trkpt lat="42.76206281510883" lon="13.364284755545055"><ele>476.0</ele><time>2026-04-18T08:54:22.998Z</time></trkpt><trkpt lat="42.76216706414519" lon="13.364089605787258"><ele>476.0</ele><time>2026-04-18T08:54:23.998Z</time></trkpt><trkpt lat="42.76226077869367" lon="13.363874521901385"><ele>476.0</ele><time>2026-04-18T08:54:24.998Z</time></trkpt><trkpt lat="42.76232444085984" lon="13.363637090010789"><ele>476.0</ele><time>2026-04-18T08:54:25.998Z</time></trkpt><trkpt lat="42.76235761566543" lon="13.363377909383013"><ele>476.3333333333333</ele><time>2026-04-18T08:54:26.998Z</time></trkpt><trkpt lat="42.762382770303624" lon="13.363116565639386"><ele>476.66666666666663</ele><time>2026-04-18T08:54:27.998Z</time></trkpt><trkpt lat="42.762388926839364" lon="13.362858439840377"><ele>477.0</ele><time>2026-04-18T08:54:28.998Z</time></trkpt><trkpt lat="42.762353061302484" lon="13.362604088998356"><ele>477.0</ele><time>2026-04-18T08:54:29.998Z</time></trkpt><trkpt lat="42.76228416698015" lon="13.362356763759653"><ele>477.0</ele><time>2026-04-18T08:54:30.998Z</time></trkpt><trkpt lat="42.76220799409956" lon="13.362114308667454"><ele>477.0</ele><time>2026-04-18T08:54:31.998Z</time></trkpt><trkpt lat="42.76212708306004" lon="13.361871696963808"><ele>477.0</ele><time>2026-04-18T08:54:32.998Z</time></trkpt><trkpt lat="42.76204367357168" lon="13.361643422339975"><ele>477.0</ele><time>2026-04-18T08:54:33.998Z</time></trkpt><trkpt lat="42.76194953136795" lon="13.361444032160119"><ele>477.0</ele><time>2026-04-18T08:54:34.998Z</time></trkpt><trkpt lat="42.76189154836723" lon="13.361239871378599"><ele>476.0</ele><time>2026-04-18T08:54:35.998Z</time></trkpt><trkpt lat="42.76187329670744" lon="13.361034812284245"><ele>475.0</ele><time>2026-04-18T08:54:36.998Z</time></trkpt><trkpt lat="42.761907150705035" lon="13.360836027643836"><ele>474.0</ele><time>2026-04-18T08:54:37.998Z</time></trkpt><trkpt lat="42.7619648185529" lon="13.360622108293015"><ele>471.66666666666663</ele><time>2026-04-18T08:54:38.998Z</time></trkpt><trkpt lat="42.76203244613941" lon="13.360403406328851"><ele>469.3333333333333</ele><time>2026-04-18T08:54:39.998Z</time></trkpt><trkpt lat="42.762142819584916" lon="13.360201963805345"><ele>467.0</ele><time>2026-04-18T08:54:40.998Z</time></trkpt><trkpt lat="42.762283085028336" lon="13.36001650366483"><ele>467.0</ele><time>2026-04-18T08:54:41.998Z</time></trkpt><trkpt lat="42.762411709700125" lon="13.359816942896773"><ele>467.0</ele><time>2026-04-18T08:54:42.998Z</time></trkpt><trkpt lat="42.762541300479" lon="13.359608932207436"><ele>467.0</ele><time>2026-04-18T08:54:43.998Z</time></trkpt><trkpt lat="42.762656474198614" lon="13.359379343254377"><ele>473.66666666666663</ele><time>2026-04-18T08:54:44.998Z</time></trkpt><trkpt lat="42.762751926473086" lon="13.35912722829378"><ele>480.33333333333337</ele><time>2026-04-18T08:54:45.998Z</time></trkpt><trkpt lat="42.762832553144115" lon="13.358865373613122"><ele>487.0</ele><time>2026-04-18T08:54:46.998Z</time></trkpt><trkpt lat="42.762905848055915" lon="13.358611759346104"><ele>487.33333333333337</ele><time>2026-04-18T08:54:47.998Z</time></trkpt><trkpt lat="42.76297825662646" lon="13.358351210096124"><ele>487.66666666666663</ele><time>2026-04-18T08:54:48.998Z</time></trkpt><trkpt lat="42.76304545513701" lon="13.35809212381407"><ele>488.0</ele><time>2026-04-18T08:54:49.998Z</time></trkpt><trkpt lat="42.76311357018186" lon="13.357825435439274"><ele>488.0</ele><time>2026-04-18T08:54:50.998Z</time></trkpt><trkpt lat="42.76317772243852" lon="13.357567064661751"><ele>488.0</ele><time>2026-04-18T08:54:51.998Z</time></trkpt><trkpt lat="42.76323021634952" lon="13.357294071429003"><ele>488.0</ele><time>2026-04-18T08:54:52.998Z</time></trkpt><trkpt lat="42.763264809777546" lon="13.357018236181727"><ele>488.0</ele><time>2026-04-18T08:54:53.998Z</time></trkpt><trkpt lat="42.76328858857119" lon="13.356738590451327"><ele>488.0</ele><time>2026-04-18T08:54:54.998Z</time></trkpt><trkpt lat="42.763301266647346" lon="13.356452290561771"><ele>488.0</ele><time>2026-04-18T08:54:55.998Z</time></trkpt><trkpt lat="42.76330499671444" lon="13.356172922246015"><ele>493.3333333333333</ele><time>2026-04-18T08:54:56.998Z</time></trkpt><trkpt lat="42.763305563432894" lon="13.355883406368914"><ele>498.66666666666663</ele><time>2026-04-18T08:54:57.998Z</time></trkpt><trkpt lat="42.763309905558266" lon="13.355589764892299"><ele>504.0</ele><time>2026-04-18T08:54:58.998Z</time></trkpt><trkpt lat="42.763315938432974" lon="13.355293432564146"><ele>505.66666666666663</ele><time>2026-04-18T08:54:59.998Z</time></trkpt><trkpt lat="42.76332056974964" lon="13.354998122348759"><ele>507.3333333333333</ele><time>2026-04-18T08:55:00.998Z</time></trkpt><trkpt lat="42.7633266480745" lon="13.354703916022912"><ele>509.0</ele><time>2026-04-18T08:55:01.998Z</time></trkpt><trkpt lat="42.76333300765225" lon="13.354410210007938"><ele>509.0</ele><time>2026-04-18T08:55:02.998Z</time></trkpt><trkpt lat="42.76333718311572" lon="13.354088625460392"><ele>509.0</ele><time>2026-04-18T08:55:03.998Z</time></trkpt><trkpt lat="42.7633403204878" lon="13.353794879533844"><ele>505.0</ele><time>2026-04-18T08:55:04.998Z</time></trkpt><trkpt lat="42.76334659194842" lon="13.353499252464829"><ele>501.0</ele><time>2026-04-18T08:55:05.998Z</time></trkpt><trkpt lat="42.76335411695135" lon="13.35320543287365"><ele>497.0</ele><time>2026-04-18T08:55:06.998Z</time></trkpt><trkpt lat="42.76336026829606" lon="13.352911293214477"><ele>496.3333333333333</ele><time>2026-04-18T08:55:07.998Z</time></trkpt><trkpt lat="42.76336635851676" lon="13.352618744801713"><ele>495.66666666666663</ele><time>2026-04-18T08:55:08.998Z</time></trkpt><trkpt lat="42.76337041732013" lon="13.352327563662728"><ele>495.0</ele><time>2026-04-18T08:55:09.998Z</time></trkpt><trkpt lat="42.76337634863496" lon="13.352035617222409"><ele>497.33333333333337</ele><time>2026-04-18T08:55:10.998Z</time></trkpt><trkpt lat="42.76338331250044" lon="13.351743525223661"><ele>499.6666666666667</ele><time>2026-04-18T08:55:11.998Z</time></trkpt><trkpt lat="42.76341933854057" lon="13.351469817699787"><ele>502.0</ele><time>2026-04-18T08:55:12.998Z</time></trkpt><trkpt lat="42.76345221083764" lon="13.351194335837206"><ele>504.6666666666667</ele><time>2026-04-18T08:55:13.998Z</time></trkpt><trkpt lat="42.7634877470842" lon="13.350919390486558"><ele>507.33333333333337</ele><time>2026-04-18T08:55:14.998Z</time></trkpt><trkpt lat="42.76351837062206" lon="13.350619831879518"><ele>510.0</ele><time>2026-04-18T08:55:15.998Z</time></trkpt><trkpt lat="42.763548303092605" lon="13.35031804846955"><ele>544.5</ele><time>2026-04-18T08:55:16.998Z</time></trkpt><trkpt lat="42.76358377020776" lon="13.349994095443952"><ele>579.0</ele><time>2026-04-18T08:55:17.998Z</time></trkpt><trkpt lat="42.763620952050445" lon="13.349665116778565"><ele>579.5</ele><time>2026-04-18T08:55:18.998Z</time></trkpt><trkpt lat="42.76365094004284" lon="13.349312090046588"><ele>580.0</ele><time>2026-04-18T08:55:19.998Z</time></trkpt><trkpt lat="42.76368326131384" lon="13.34895971461418"><ele>579.5</ele><time>2026-04-18T08:55:20.998Z</time></trkpt><trkpt lat="42.76372562214338" lon="13.348610673100419"><ele>579.0</ele><time>2026-04-18T08:55:21.997Z</time></trkpt><trkpt lat="42.76376782959909" lon="13.348261889690377"><ele>566.5</ele><time>2026-04-18T08:55:22.997Z</time></trkpt><trkpt lat="42.76380153396132" lon="13.347886219456488"><ele>554.0</ele><time>2026-04-18T08:55:23.997Z</time></trkpt><trkpt lat="42.76384171400695" lon="13.34749626335719"><ele>546.0</ele><time>2026-04-18T08:55:24.997Z</time></trkpt><trkpt lat="42.76387968120845" lon="13.347116334080617"><ele>538.0</ele><time>2026-04-18T08:55:25.997Z</time></trkpt><trkpt lat="42.76391471046344" lon="13.346749258711906"><ele>538.0</ele><time>2026-04-18T08:55:26.997Z</time></trkpt><trkpt lat="42.76394327938743" lon="13.346406712460986"><ele>538.0</ele><time>2026-04-18T08:55:27.999Z</time></trkpt><trkpt lat="42.763960819610816" lon="13.346090046974766"><ele>541.0</ele><time>2026-04-18T08:55:28.999Z</time></trkpt><trkpt lat="42.763969579232075" lon="13.345792268576385"><ele>544.0</ele><time>2026-04-18T08:55:29.999Z</time></trkpt><trkpt lat="42.76397918568963" lon="13.345494874519211"><ele>547.0</ele><time>2026-04-18T08:55:30.999Z</time></trkpt><trkpt lat="42.76398420930544" lon="13.345225430838067"><ele>548.0</ele><time>2026-04-18T08:55:31.999Z</time></trkpt><trkpt lat="42.76399885479762" lon="13.344911555107988"><ele>549.0</ele><time>2026-04-18T08:55:32.999Z</time></trkpt><trkpt lat="42.7640137985434" lon="13.34459349750171"><ele>549.0</ele><time>2026-04-18T08:55:33.999Z</time></trkpt><trkpt lat="42.76402876933102" lon="13.344300990490419"><ele>549.0</ele><time>2026-04-18T08:55:35.015Z</time></trkpt><trkpt lat="42.76397155477615" lon="13.341515695275126"><ele>543.6666666666666</ele><time>2026-04-18T08:55:43.999Z</time></trkpt><trkpt lat="42.76393475459852" lon="13.341275995407294"><ele>538.3333333333333</ele><time>2026-04-18T08:55:44.999Z</time></trkpt><trkpt lat="42.76400614699278" lon="13.341189442151085"><ele>533.0</ele><time>2026-04-18T08:55:45.999Z</time></trkpt><trkpt lat="42.76399571862084" lon="13.34094878485607"><ele>533.0</ele><time>2026-04-18T08:55:46.999Z</time></trkpt><trkpt lat="42.76394304918931" lon="13.340712466404822"><ele>533.0</ele><time>2026-04-18T08:55:47.999Z</time></trkpt><trkpt lat="42.763880059173886" lon="13.34047390319023"><ele>533.0</ele><time>2026-04-18T08:55:48.999Z</time></trkpt><trkpt lat="42.76382385396875" lon="13.340254616272006"><ele>533.6666666666666</ele><time>2026-04-18T08:55:49.999Z</time></trkpt><trkpt lat="42.76380732569355" lon="13.340043644083158"><ele>534.3333333333334</ele><time>2026-04-18T08:55:50.999Z</time></trkpt><trkpt lat="42.7638231766161" lon="13.339821385303031"><ele>535.0</ele><time>2026-04-18T08:55:51.999Z</time></trkpt><trkpt lat="42.76387752832278" lon="13.339614782299074"><ele>529.6666666666667</ele><time>2026-04-18T08:55:52.999Z</time></trkpt><trkpt lat="42.76397820933597" lon="13.339430994318313"><ele>524.3333333333334</ele><time>2026-04-18T08:55:53.999Z</time></trkpt><trkpt lat="42.76403921679651" lon="13.339259332798967"><ele>519.0</ele><time>2026-04-18T08:55:54.999Z</time></trkpt><trkpt lat="42.76415627501945" lon="13.33906568159859"><ele>516.0</ele><time>2026-04-18T08:55:55.999Z</time></trkpt><trkpt lat="42.764290386566415" lon="13.33884642774235"><ele>513.0</ele><time>2026-04-18T08:55:56.999Z</time></trkpt><trkpt lat="42.764379638385364" lon="13.338618623587081"><ele>510.0</ele><time>2026-04-18T08:55:57.999Z</time></trkpt><trkpt lat="42.76447728985147" lon="13.338398344560947"><ele>513.6666666666666</ele><time>2026-04-18T08:55:58.999Z</time></trkpt><trkpt lat="42.76458591776923" lon="13.338181927465495"><ele>517.3333333333333</ele><time>2026-04-18T08:55:59.999Z</time></trkpt><trkpt lat="42.76468900162332" lon="13.337967563793697"><ele>521.0</ele><time>2026-04-18T08:56:00.999Z</time></trkpt><trkpt lat="42.76479174812687" lon="13.337749726679291"><ele>521.0</ele><time>2026-04-18T08:56:01.999Z</time></trkpt><trkpt lat="42.76489107970478" lon="13.33754283844741"><ele>521.0</ele><time>2026-04-18T08:56:02.999Z</time></trkpt><trkpt lat="42.76501105161039" lon="13.337309204058664"><ele>521.0</ele><time>2026-04-18T08:56:03.999Z</time></trkpt><trkpt lat="42.76510550111319" lon="13.337082615884698"><ele>519.3333333333333</ele><time>2026-04-18T08:56:04.999Z</time></trkpt><trkpt lat="42.765167010899916" lon="13.33683982050245"><ele>517.6666666666666</ele><time>2026-04-18T08:56:05.999Z</time></trkpt><trkpt lat="42.76518662442412" lon="13.336579734648277"><ele>516.0</ele><time>2026-04-18T08:56:06.999Z</time></trkpt><trkpt lat="42.76517589645158" lon="13.336319726067854"><ele>516.0</ele><time>2026-04-18T08:56:07.999Z</time></trkpt><trkpt lat="42.7651612330698" lon="13.336058745974253"><ele>516.0</ele><time>2026-04-18T08:56:08.999Z</time></trkpt><trkpt lat="42.7651334996036" lon="13.335799582058446"><ele>516.0</ele><time>2026-04-18T08:56:09.999Z</time></trkpt><trkpt lat="42.76510742708926" lon="13.335541521575543"><ele>520.0</ele><time>2026-04-18T08:56:10.999Z</time></trkpt><trkpt lat="42.765078610150056" lon="13.335281972981068"><ele>524.0</ele><time>2026-04-18T08:56:11.999Z</time></trkpt><trkpt lat="42.765051086642956" lon="13.335025488131803"><ele>528.0</ele><time>2026-04-18T08:56:12.999Z</time></trkpt><trkpt lat="42.765008439978274" lon="13.334777471451538"><ele>529.6666666666666</ele><time>2026-04-18T08:56:13.999Z</time></trkpt><trkpt lat="42.76497769713362" lon="13.334524408817787"><ele>531.3333333333333</ele><time>2026-04-18T08:56:14.999Z</time></trkpt><trkpt lat="42.76494371420485" lon="13.334269829332893"><ele>533.0</ele><time>2026-04-18T08:56:15.999Z</time></trkpt><trkpt lat="42.764907147811456" lon="13.334033910134973"><ele>535.0</ele><time>2026-04-18T08:56:16.999Z</time></trkpt><trkpt lat="42.764876436194854" lon="13.333776604000576"><ele>537.0</ele><time>2026-04-18T08:56:17.999Z</time></trkpt><trkpt lat="42.7648864414689" lon="13.333502876028616"><ele>539.0</ele><time>2026-04-18T08:56:18.999Z</time></trkpt><trkpt lat="42.76492725587212" lon="13.333228139471819"><ele>538.3333333333333</ele><time>2026-04-18T08:56:19.999Z</time></trkpt><trkpt lat="42.764952190680944" lon="13.33296685404424"><ele>537.6666666666666</ele><time>2026-04-18T08:56:20.999Z</time></trkpt><trkpt lat="42.76494743207899" lon="13.332694493336735"><ele>537.0</ele><time>2026-04-18T08:56:21.999Z</time></trkpt><trkpt lat="42.764912904371016" lon="13.332440989137694"><ele>534.3333333333334</ele><time>2026-04-18T08:56:22.999Z</time></trkpt><trkpt lat="42.76487537352219" lon="13.332202302503646"><ele>531.6666666666667</ele><time>2026-04-18T08:56:23.999Z</time></trkpt><trkpt lat="42.764856964371056" lon="13.33197623783199"><ele>529.0</ele><time>2026-04-18T08:56:24.999Z</time></trkpt><trkpt lat="42.764877494208534" lon="13.331763747277016"><ele>529.0</ele><time>2026-04-18T08:56:25.998Z</time></trkpt><trkpt lat="42.76494511776215" lon="13.331564237391037"><ele>529.0</ele><time>2026-04-18T08:56:26.998Z</time></trkpt><trkpt lat="42.76505823573447" lon="13.331394431455942"><ele>529.0</ele><time>2026-04-18T08:56:27.998Z</time></trkpt><trkpt lat="42.76519573049794" lon="13.331245334619132"><ele>534.6666666666667</ele><time>2026-04-18T08:56:28.998Z</time></trkpt><trkpt lat="42.7653294896093" lon="13.331095548297046"><ele>540.3333333333334</ele><time>2026-04-18T08:56:29.998Z</time></trkpt><trkpt lat="42.76546524996321" lon="13.330947683980868"><ele>546.0</ele><time>2026-04-18T08:56:30.998Z</time></trkpt><trkpt lat="42.76560414454212" lon="13.330800678413066"><ele>546.0</ele><time>2026-04-18T08:56:31.998Z</time></trkpt><trkpt lat="42.76574646095521" lon="13.330647399336934"><ele>546.0</ele><time>2026-04-18T08:56:32.998Z</time></trkpt><trkpt lat="42.76588806671707" lon="13.330491481502657"><ele>546.0</ele><time>2026-04-18T08:56:33.998Z</time></trkpt><trkpt lat="42.76602656320588" lon="13.330327229188123"><ele>551.6666666666666</ele><time>2026-04-18T08:56:34.998Z</time></trkpt><trkpt lat="42.76616185396177" lon="13.330155593325468"><ele>557.3333333333333</ele><time>2026-04-18T08:56:35.998Z</time></trkpt><trkpt lat="42.766289388312394" lon="13.329975112023039"><ele>563.0</ele><time>2026-04-18T08:56:36.998Z</time></trkpt><trkpt lat="42.76639664594986" lon="13.329772737905115"><ele>558.0</ele><time>2026-04-18T08:56:37.998Z</time></trkpt><trkpt lat="42.766469898509094" lon="13.329542736338624"><ele>553.0</ele><time>2026-04-18T08:56:38.998Z</time></trkpt><trkpt lat="42.766504121596505" lon="13.329297390758825"><ele>548.0</ele><time>2026-04-18T08:56:39.998Z</time></trkpt><trkpt lat="42.766510527954544" lon="13.329058484408616"><ele>548.0</ele><time>2026-04-18T08:56:40.998Z</time></trkpt><trkpt lat="42.76651676799601" lon="13.328823770487412"><ele>548.0</ele><time>2026-04-18T08:56:41.998Z</time></trkpt><trkpt lat="42.766537010382095" lon="13.328594085385562"><ele>548.0</ele><time>2026-04-18T08:56:42.998Z</time></trkpt><trkpt lat="42.76658534414095" lon="13.328370725461852"><ele>548.0</ele><time>2026-04-18T08:56:43.998Z</time></trkpt><trkpt lat="42.76667233540166" lon="13.32816677157875"><ele>548.0</ele><time>2026-04-18T08:56:44.998Z</time></trkpt><trkpt lat="42.76678472382275" lon="13.327986357900327"><ele>548.0</ele><time>2026-04-18T08:56:45.998Z</time></trkpt><trkpt lat="42.766907182892666" lon="13.327813718992031"><ele>553.6666666666666</ele><time>2026-04-18T08:56:46.998Z</time></trkpt><trkpt lat="42.76703054553276" lon="13.327628854169939"><ele>559.3333333333334</ele><time>2026-04-18T08:56:47.998Z</time></trkpt><trkpt lat="42.7671554784681" lon="13.327440523159169"><ele>565.0</ele><time>2026-04-18T08:56:48.998Z</time></trkpt><trkpt lat="42.76729463698982" lon="13.327265435655363"><ele>564.3333333333334</ele><time>2026-04-18T08:56:49.998Z</time></trkpt><trkpt lat="42.76744899403431" lon="13.327109834785649"><ele>563.6666666666666</ele><time>2026-04-18T08:56:50.998Z</time></trkpt><trkpt lat="42.767608171474066" lon="13.326970704768383"><ele>563.0</ele><time>2026-04-18T08:56:51.998Z</time></trkpt><trkpt lat="42.767773730239284" lon="13.326837326851145"><ele>565.0</ele><time>2026-04-18T08:56:52.998Z</time></trkpt><trkpt lat="42.76793906615774" lon="13.326700474566671"><ele>567.0</ele><time>2026-04-18T08:56:53.998Z</time></trkpt><trkpt lat="42.76809581223464" lon="13.326541070307215"><ele>569.0</ele><time>2026-04-18T08:56:54.998Z</time></trkpt><trkpt lat="42.76824323351957" lon="13.326362325906"><ele>569.0</ele><time>2026-04-18T08:56:55.998Z</time></trkpt><trkpt lat="42.76837615526293" lon="13.32615717245108"><ele>569.0</ele><time>2026-04-18T08:56:56.998Z</time></trkpt><trkpt lat="42.768480364792" lon="13.325932811606577"><ele>569.0</ele><time>2026-04-18T08:56:57.998Z</time></trkpt><trkpt lat="42.768569837265936" lon="13.325698110993033"><ele>575.3333333333333</ele><time>2026-04-18T08:56:58.998Z</time></trkpt><trkpt lat="42.768659372063034" lon="13.325466356370509"><ele>581.6666666666666</ele><time>2026-04-18T08:56:59.998Z</time></trkpt><trkpt lat="42.76877245063202" lon="13.325255443538136"><ele>588.0</ele><time>2026-04-18T08:57:00.998Z</time></trkpt><trkpt lat="42.76891097940976" lon="13.32507597335623"><ele>588.0</ele><time>2026-04-18T08:57:01.998Z</time></trkpt><trkpt lat="42.76907050242277" lon="13.324927174315716"><ele>588.0</ele><time>2026-04-18T08:57:02.998Z</time></trkpt><trkpt lat="42.769231684394455" lon="13.324792217079205"><ele>588.0</ele><time>2026-04-18T08:57:03.998Z</time></trkpt><trkpt lat="42.76938491290064" lon="13.324629771377623"><ele>593.3333333333334</ele><time>2026-04-18T08:57:04.998Z</time></trkpt><trkpt lat="42.769545482449914" lon="13.324396143372049"><ele>598.6666666666667</ele><time>2026-04-18T08:57:05.998Z</time></trkpt><trkpt lat="42.76967710844172" lon="13.324187081985952"><ele>604.0</ele><time>2026-04-18T08:57:06.998Z</time></trkpt><trkpt lat="42.76979798320314" lon="13.323992469291369"><ele>598.0</ele><time>2026-04-18T08:57:07.998Z</time></trkpt><trkpt lat="42.76991137282892" lon="13.3237914132443"><ele>592.0</ele><time>2026-04-18T08:57:08.998Z</time></trkpt><trkpt lat="42.770013204913326" lon="13.323582291105094"><ele>586.0</ele><time>2026-04-18T08:57:09.998Z</time></trkpt><trkpt lat="42.770082812212074" lon="13.32335081656912"><ele>586.0</ele><time>2026-04-18T08:57:10.998Z</time></trkpt><trkpt lat="42.77012538691078" lon="13.323101334427822"><ele>586.0</ele><time>2026-04-18T08:57:11.998Z</time></trkpt><trkpt lat="42.77014189689673" lon="13.322846048118047"><ele>586.0</ele><time>2026-04-18T08:57:12.998Z</time></trkpt><trkpt lat="42.77014228240056" lon="13.322586058496023"><ele>585.3333333333334</ele><time>2026-04-18T08:57:13.998Z</time></trkpt><trkpt lat="42.77013534294077" lon="13.322325082946945"><ele>584.6666666666666</ele><time>2026-04-18T08:57:14.998Z</time></trkpt><trkpt lat="42.770127777597175" lon="13.322058913567027"><ele>584.0</ele><time>2026-04-18T08:57:15.998Z</time></trkpt><trkpt lat="42.77012152050631" lon="13.321792209205253"><ele>587.6666666666666</ele><time>2026-04-18T08:57:16.998Z</time></trkpt><trkpt lat="42.77012032110954" lon="13.321530137448898"><ele>591.3333333333334</ele><time>2026-04-18T08:57:17.998Z</time></trkpt><trkpt lat="42.770133804070866" lon="13.321270292644705"><ele>595.0</ele><time>2026-04-18T08:57:18.998Z</time></trkpt><trkpt lat="42.77017408305903" lon="13.321014724479072"><ele>600.0</ele><time>2026-04-18T08:57:19.998Z</time></trkpt><trkpt lat="42.77024168304471" lon="13.320758485199397"><ele>605.0</ele><time>2026-04-18T08:57:20.998Z</time></trkpt><trkpt lat="42.770338067483856" lon="13.320509833176633"><ele>610.0</ele><time>2026-04-18T08:57:21.998Z</time></trkpt><trkpt lat="42.770451178436" lon="13.320263069644367"><ele>610.0</ele><time>2026-04-18T08:57:22.998Z</time></trkpt><trkpt lat="42.770568530162834" lon="13.320015723922744"><ele>610.0</ele><time>2026-04-18T08:57:23.998Z</time></trkpt><trkpt lat="42.77068777978326" lon="13.319772285305334"><ele>610.0</ele><time>2026-04-18T08:57:24.998Z</time></trkpt><trkpt lat="42.770818996453094" lon="13.319519316438688"><ele>615.5</ele><time>2026-04-18T08:57:25.998Z</time></trkpt><trkpt lat="42.77095915125971" lon="13.319254354495463"><ele>621.0</ele><time>2026-04-18T08:57:26.998Z</time></trkpt><trkpt lat="42.77110887326811" lon="13.318978390139016"><ele>610.0</ele><time>2026-04-18T08:57:27.998Z</time></trkpt><trkpt lat="42.7712641674582" lon="13.318697652530783"><ele>599.0</ele><time>2026-04-18T08:57:28.998Z</time></trkpt><trkpt lat="42.77142449084114" lon="13.318403291551814"><ele>599.0</ele><time>2026-04-18T08:57:29.998Z</time></trkpt><trkpt lat="42.771579427192265" lon="13.318108953029244"><ele>599.0</ele><time>2026-04-18T08:57:30.998Z</time></trkpt><trkpt lat="42.77172151312954" lon="13.3178328381128"><ele>597.3333333333333</ele><time>2026-04-18T08:57:31.998Z</time></trkpt><trkpt lat="42.771853285496334" lon="13.31757785210019"><ele>595.6666666666666</ele><time>2026-04-18T08:57:32.999Z</time></trkpt><trkpt lat="42.771978622883005" lon="13.31734336583813"><ele>594.0</ele><time>2026-04-18T08:57:33.999Z</time></trkpt><trkpt lat="42.77210126910943" lon="13.317113661056007"><ele>594.0</ele><time>2026-04-18T08:57:34.999Z</time></trkpt><trkpt lat="42.77221697866259" lon="13.31689238864066"><ele>594.0</ele><time>2026-04-18T08:57:35.999Z</time></trkpt><trkpt lat="42.772298742153524" lon="13.316709196572889"><ele>594.0</ele><time>2026-04-18T08:57:36.999Z</time></trkpt><trkpt lat="42.77239718387163" lon="13.316534291172363"><ele>593.6666666666666</ele><time>2026-04-18T08:57:37.999Z</time></trkpt><trkpt lat="42.7724994034025" lon="13.316371260933495"><ele>593.3333333333333</ele><time>2026-04-18T08:57:38.999Z</time></trkpt><trkpt lat="42.77260903056976" lon="13.316212792831083"><ele>593.0</ele><time>2026-04-18T08:57:39.999Z</time></trkpt><trkpt lat="42.772721242344524" lon="13.316089092885129"><ele>593.0</ele><time>2026-04-18T08:57:40.999Z</time></trkpt><trkpt lat="42.772828965858366" lon="13.316029784661382"><ele>593.0</ele><time>2026-04-18T08:57:41.999Z</time></trkpt><trkpt lat="42.772945956736216" lon="13.316028240139905"><ele>593.0</ele><time>2026-04-18T08:57:42.999Z</time></trkpt><trkpt lat="42.77307644400778" lon="13.3160819311595"><ele>593.0</ele><time>2026-04-18T08:57:43.999Z</time></trkpt><trkpt lat="42.77321459061308" lon="13.31617833035029"><ele>593.0</ele><time>2026-04-18T08:57:44.999Z</time></trkpt><trkpt lat="42.77336334224404" lon="13.316271612731414"><ele>593.0</ele><time>2026-04-18T08:57:45.999Z</time></trkpt><trkpt lat="42.77354740188251" lon="13.316311917892111"><ele>593.0</ele><time>2026-04-18T08:57:46.999Z</time></trkpt><trkpt lat="42.77371193354937" lon="13.316279054066033"><ele>601.0</ele><time>2026-04-18T08:57:47.999Z</time></trkpt><trkpt lat="42.77382252583904" lon="13.316160393422381"><ele>609.0</ele><time>2026-04-18T08:57:48.999Z</time></trkpt><trkpt lat="42.773932693224225" lon="13.316004432633843"><ele>617.0</ele><time>2026-04-18T08:57:49.999Z</time></trkpt><trkpt lat="42.77398607324606" lon="13.31578261084962"><ele>615.0</ele><time>2026-04-18T08:57:50.999Z</time></trkpt><trkpt lat="42.77403161938949" lon="13.315568453746502"><ele>613.0</ele><time>2026-04-18T08:57:51.999Z</time></trkpt><trkpt lat="42.77406356157298" lon="13.315355506103788"><ele>611.0</ele><time>2026-04-18T08:57:52.999Z</time></trkpt><trkpt lat="42.77410455055967" lon="13.315150724149285"><ele>611.0</ele><time>2026-04-18T08:57:53.999Z</time></trkpt><trkpt lat="42.77415161371661" lon="13.314948451831802"><ele>611.0</ele><time>2026-04-18T08:57:54.999Z</time></trkpt><trkpt lat="42.77419759075374" lon="13.314753587764795"><ele>611.0</ele><time>2026-04-18T08:57:55.999Z</time></trkpt><trkpt lat="42.77424407049042" lon="13.314554548258013"><ele>610.0</ele><time>2026-04-18T08:57:56.999Z</time></trkpt><trkpt lat="42.77429485324379" lon="13.314369954065258"><ele>609.0</ele><time>2026-04-18T08:57:57.999Z</time></trkpt><trkpt lat="42.77431923397399" lon="13.314173713416004"><ele>608.0</ele><time>2026-04-18T08:57:58.999Z</time></trkpt><trkpt lat="42.77436651832871" lon="13.31397937150234"><ele>607.0</ele><time>2026-04-18T08:57:59.999Z</time></trkpt><trkpt lat="42.77442751507273" lon="13.313784668767173"><ele>613.5</ele><time>2026-04-18T08:58:00.999Z</time></trkpt><trkpt lat="42.77448292281739" lon="13.313602226156886"><ele>620.0</ele><time>2026-04-18T08:58:01.999Z</time></trkpt><trkpt lat="42.774510159349205" lon="13.313412386062916"><ele>626.5</ele><time>2026-04-18T08:58:02.999Z</time></trkpt><trkpt lat="42.77454848547861" lon="13.313246730682948"><ele>633.0</ele><time>2026-04-18T08:58:03.999Z</time></trkpt><trkpt lat="42.77458447417198" lon="13.313091178308387"><ele>631.1999999999999</ele><time>2026-04-18T08:58:04.999Z</time></trkpt><trkpt lat="42.77462029463614" lon="13.312941890478992"><ele>629.4</ele><time>2026-04-18T08:58:05.999Z</time></trkpt><trkpt lat="42.774653359072985" lon="13.312809077014723"><ele>627.5999999999999</ele><time>2026-04-18T08:58:06.999Z</time></trkpt><trkpt lat="42.77469654975583" lon="13.31268674760146"><ele>625.8</ele><time>2026-04-18T08:58:07.999Z</time></trkpt><trkpt lat="42.77471750084632" lon="13.312572015279944"><ele>624.0</ele><time>2026-04-18T08:58:08.999Z</time></trkpt><trkpt lat="42.7747337350628" lon="13.312470292967028"><ele>624.0</ele><time>2026-04-18T08:58:09.999Z</time></trkpt><trkpt lat="42.774756981763076" lon="13.312370606361958"><ele>624.0</ele><time>2026-04-18T08:58:10.999Z</time></trkpt><trkpt lat="42.77477963108491" lon="13.312268578045307"><ele>624.0</ele><time>2026-04-18T08:58:11.999Z</time></trkpt><trkpt lat="42.774793999021" lon="13.31216089654656"><ele>624.0</ele><time>2026-04-18T08:58:12.999Z</time></trkpt><trkpt lat="42.77483450382215" lon="13.31206841092634"><ele>624.0</ele><time>2026-04-18T08:58:13.999Z</time></trkpt><trkpt lat="42.77490789106609" lon="13.311999806331675"><ele>624.0</ele><time>2026-04-18T08:58:14.999Z</time></trkpt><trkpt lat="42.77496273533408" lon="13.311831617685751"><ele>621.75</ele><time>2026-04-18T08:58:15.999Z</time></trkpt><trkpt lat="42.77495685001534" lon="13.311662189233951"><ele>619.5</ele><time>2026-04-18T08:58:16.999Z</time></trkpt><trkpt lat="42.77491534449185" lon="13.31148334462952"><ele>617.25</ele><time>2026-04-18T08:58:17.999Z</time></trkpt><trkpt lat="42.774805008349965" lon="13.311366496456206"><ele>615.0</ele><time>2026-04-18T08:58:18.999Z</time></trkpt><trkpt lat="42.77481980309156" lon="13.311213748620146"><ele>614.2</ele><time>2026-04-18T08:58:19.999Z</time></trkpt><trkpt lat="42.77484381391104" lon="13.3110663557271"><ele>613.4</ele><time>2026-04-18T08:58:20.999Z</time></trkpt><trkpt lat="42.774867214499736" lon="13.310921667295235"><ele>612.6</ele><time>2026-04-18T08:58:21.999Z</time></trkpt><trkpt lat="42.77488599318023" lon="13.310776223277502"><ele>611.8</ele><time>2026-04-18T08:58:22.999Z</time></trkpt><trkpt lat="42.77490237772219" lon="13.31063419926126"><ele>611.0</ele><time>2026-04-18T08:58:23.999Z</time></trkpt><trkpt lat="42.77492076392257" lon="13.310484734676356"><ele>609.8</ele><time>2026-04-18T08:58:24.999Z</time></trkpt><trkpt lat="42.77493759431827" lon="13.310336557398792"><ele>608.6</ele><time>2026-04-18T08:58:25.999Z</time></trkpt><trkpt lat="42.774953419656256" lon="13.310185903861054"><ele>607.4</ele><time>2026-04-18T08:58:26.999Z</time></trkpt><trkpt lat="42.77497071178047" lon="13.310038917394747"><ele>606.2</ele><time>2026-04-18T08:58:27.999Z</time></trkpt><trkpt lat="42.774986193555335" lon="13.309887453213141"><ele>605.0</ele><time>2026-04-18T08:58:28.999Z</time></trkpt><trkpt lat="42.77499836219678" lon="13.309719659348968"><ele>604.75</ele><time>2026-04-18T08:58:29.999Z</time></trkpt><trkpt lat="42.77501269094854" lon="13.309539228307878"><ele>604.5</ele><time>2026-04-18T08:58:30.999Z</time></trkpt><trkpt lat="42.775020858388686" lon="13.30935003844907"><ele>604.25</ele><time>2026-04-18T08:58:31.999Z</time></trkpt><trkpt lat="42.77502911894101" lon="13.309157837583335"><ele>604.0</ele><time>2026-04-18T08:58:32.999Z</time></trkpt><trkpt lat="42.77502803564473" lon="13.308973754623215"><ele>603.75</ele><time>2026-04-18T08:58:33.999Z</time></trkpt><trkpt lat="42.77502272690217" lon="13.308789252101926"><ele>603.5</ele><time>2026-04-18T08:58:34.999Z</time></trkpt><trkpt lat="42.775014777383284" lon="13.308597721109791"><ele>603.25</ele><time>2026-04-18T08:58:35.999Z</time></trkpt><trkpt lat="42.77500467594001" lon="13.308408668315863"><ele>603.0</ele><time>2026-04-18T08:58:36.999Z</time></trkpt><trkpt lat="42.77499024022392" lon="13.308221849906182"><ele>604.0</ele><time>2026-04-18T08:58:37.999Z</time></trkpt><trkpt lat="42.77497387203965" lon="13.30802494361253"><ele>605.0</ele><time>2026-04-18T08:58:38.999Z</time></trkpt><trkpt lat="42.774952474470716" lon="13.307824967632405"><ele>606.0</ele><time>2026-04-18T08:58:39.999Z</time></trkpt><trkpt lat="42.77492584812139" lon="13.307620516143443"><ele>607.0</ele><time>2026-04-18T08:58:40.999Z</time></trkpt><trkpt lat="42.77489933838728" lon="13.3074133013882"><ele>609.3333333333334</ele><time>2026-04-18T08:58:41.999Z</time></trkpt><trkpt lat="42.77487001000291" lon="13.307206466934495"><ele>611.6666666666666</ele><time>2026-04-18T08:58:42.999Z</time></trkpt><trkpt lat="42.7748396441934" lon="13.306994706591489"><ele>614.0</ele><time>2026-04-18T08:58:43.999Z</time></trkpt><trkpt lat="42.774805726763" lon="13.306776193896455"><ele>614.0</ele><time>2026-04-18T08:58:44.999Z</time></trkpt><trkpt lat="42.774768622313914" lon="13.306550339135459"><ele>614.0</ele><time>2026-04-18T08:58:45.999Z</time></trkpt><trkpt lat="42.774728714972525" lon="13.306321292834872"><ele>614.0</ele><time>2026-04-18T08:58:46.999Z</time></trkpt><trkpt lat="42.77468658358078" lon="13.306097682714745"><ele>619.3333333333333</ele><time>2026-04-18T08:58:47.999Z</time></trkpt><trkpt lat="42.774647584155275" lon="13.305877947117077"><ele>624.6666666666666</ele><time>2026-04-18T08:58:48.999Z</time></trkpt><trkpt lat="42.77460776607956" lon="13.305651626393368"><ele>630.0</ele><time>2026-04-18T08:58:49.999Z</time></trkpt><trkpt lat="42.774563363777155" lon="13.305419594209726"><ele>634.6666666666666</ele><time>2026-04-18T08:58:50.999Z</time></trkpt><trkpt lat="42.77451048370951" lon="13.30518927759896"><ele>639.3333333333333</ele><time>2026-04-18T08:58:51.999Z</time></trkpt><trkpt lat="42.774445639902325" lon="13.304956948582571"><ele>644.0</ele><time>2026-04-18T08:58:52.999Z</time></trkpt><trkpt lat="42.774370302509894" lon="13.304733077209457"><ele>634.6666666666666</ele><time>2026-04-18T08:58:53.999Z</time></trkpt><trkpt lat="42.774289496153756" lon="13.30451312465804"><ele>625.3333333333334</ele><time>2026-04-18T08:58:54.999Z</time></trkpt><trkpt lat="42.77419803679398" lon="13.304288091636554"><ele>616.0</ele><time>2026-04-18T08:58:55.999Z</time></trkpt><trkpt lat="42.77410726757658" lon="13.30405133468826"><ele>623.0</ele><time>2026-04-18T08:58:56.999Z</time></trkpt><trkpt lat="42.7739935252542" lon="13.303826317322663"><ele>630.0</ele><time>2026-04-18T08:58:57.999Z</time></trkpt><trkpt lat="42.77387299897962" lon="13.303606195198372"><ele>637.0</ele><time>2026-04-18T08:58:58.999Z</time></trkpt><trkpt lat="42.77374589711665" lon="13.303387345923356"><ele>637.0</ele><time>2026-04-18T08:58:59.999Z</time></trkpt><trkpt lat="42.7736116608671" lon="13.303168500661583"><ele>637.0</ele><time>2026-04-18T08:59:00.999Z</time></trkpt><trkpt lat="42.77346296330886" lon="13.302957899970984"><ele>637.0</ele><time>2026-04-18T08:59:01.999Z</time></trkpt><trkpt lat="42.77332414563203" lon="13.302730500970561"><ele>638.6666666666667</ele><time>2026-04-18T08:59:02.999Z</time></trkpt><trkpt lat="42.773185663528004" lon="13.302506044266348"><ele>640.3333333333334</ele><time>2026-04-18T08:59:03.999Z</time></trkpt><trkpt lat="42.773048699635446" lon="13.302273639135821"><ele>642.0</ele><time>2026-04-18T08:59:04.999Z</time></trkpt><trkpt lat="42.772919948485026" lon="13.302037704190392"><ele>642.0</ele><time>2026-04-18T08:59:05.999Z</time></trkpt><trkpt lat="42.77280403121737" lon="13.301792695899257"><ele>642.0</ele><time>2026-04-18T08:59:06.999Z</time></trkpt><trkpt lat="42.77269748731856" lon="13.301540670294653"><ele>642.0</ele><time>2026-04-18T08:59:07.999Z</time></trkpt><trkpt lat="42.77260139706654" lon="13.30128107709046"><ele>637.0</ele><time>2026-04-18T08:59:08.999Z</time></trkpt><trkpt lat="42.772520402840605" lon="13.301012962819224"><ele>632.0</ele><time>2026-04-18T08:59:09.999Z</time></trkpt><trkpt lat="42.772471143328616" lon="13.300736825507482"><ele>627.0</ele><time>2026-04-18T08:59:10.999Z</time></trkpt><trkpt lat="42.77243052196232" lon="13.300468839086982"><ele>627.0</ele><time>2026-04-18T08:59:11.999Z</time></trkpt><trkpt lat="42.7723958284319" lon="13.300212788954715"><ele>627.0</ele><time>2026-04-18T08:59:12.999Z</time></trkpt><trkpt lat="42.77236083641874" lon="13.299974526096493"><ele>627.0</ele><time>2026-04-18T08:59:13.999Z</time></trkpt><trkpt lat="42.772327323447755" lon="13.29975211184173"><ele>628.75</ele><time>2026-04-18T08:59:14.998Z</time></trkpt><trkpt lat="42.77229505752816" lon="13.299547604066962"><ele>630.5</ele><time>2026-04-18T08:59:15.998Z</time></trkpt><trkpt lat="42.7722564270585" lon="13.299357588818573"><ele>632.25</ele><time>2026-04-18T08:59:16.998Z</time></trkpt><trkpt lat="42.77220949173202" lon="13.299174579929225"><ele>634.0</ele><time>2026-04-18T08:59:17.998Z</time></trkpt><trkpt lat="42.77215562315894" lon="13.298984768659125"><ele>638.3333333333334</ele><time>2026-04-18T08:59:18.998Z</time></trkpt><trkpt lat="42.77208894698318" lon="13.29879701081535"><ele>642.6666666666666</ele><time>2026-04-18T08:59:19.998Z</time></trkpt><trkpt lat="42.77200415847334" lon="13.298608677865635"><ele>647.0</ele><time>2026-04-18T08:59:20.998Z</time></trkpt><trkpt lat="42.771903909581006" lon="13.298420535325915"><ele>648.3333333333333</ele><time>2026-04-18T08:59:21.998Z</time></trkpt><trkpt lat="42.7718039521308" lon="13.298203054392411"><ele>649.6666666666666</ele><time>2026-04-18T08:59:22.998Z</time></trkpt><trkpt lat="42.77166834836881" lon="13.298019239746218"><ele>651.0</ele><time>2026-04-18T08:59:23.998Z</time></trkpt><trkpt lat="42.77153939114335" lon="13.297804255685238"><ele>651.0</ele><time>2026-04-18T08:59:24.998Z</time></trkpt><trkpt lat="42.771398146830634" lon="13.297605116055637"><ele>651.0</ele><time>2026-04-18T08:59:25.998Z</time></trkpt><trkpt lat="42.771251124428595" lon="13.297396327262664"><ele>651.0</ele><time>2026-04-18T08:59:26.998Z</time></trkpt><trkpt lat="42.77110581878466" lon="13.297217065850845"><ele>648.0</ele><time>2026-04-18T08:59:27.998Z</time></trkpt><trkpt lat="42.7709796021945" lon="13.297025565763104"><ele>645.0</ele><time>2026-04-18T08:59:28.998Z</time></trkpt><trkpt lat="42.77086933563412" lon="13.296806128823532"><ele>642.0</ele><time>2026-04-18T08:59:29.998Z</time></trkpt><trkpt lat="42.77075013501231" lon="13.296589279386938"><ele>642.6666666666666</ele><time>2026-04-18T08:59:30.998Z</time></trkpt><trkpt lat="42.77064074540566" lon="13.296355299793673"><ele>643.3333333333333</ele><time>2026-04-18T08:59:31.998Z</time></trkpt><trkpt lat="42.770527207420386" lon="13.296117460262478"><ele>644.0</ele><time>2026-04-18T08:59:32.998Z</time></trkpt><trkpt lat="42.770435104954" lon="13.295861932345927"><ele>644.0</ele><time>2026-04-18T08:59:33.998Z</time></trkpt><trkpt lat="42.77033596230792" lon="13.295607523067618"><ele>644.0</ele><time>2026-04-18T08:59:34.998Z</time></trkpt><trkpt lat="42.77022448909448" lon="13.295365180865852"><ele>644.0</ele><time>2026-04-18T08:59:35.998Z</time></trkpt><trkpt lat="42.77011312521522" lon="13.295122210138517"><ele>640.0</ele><time>2026-04-18T08:59:36.998Z</time></trkpt><trkpt lat="42.77000026814281" lon="13.294889551803745"><ele>636.0</ele><time>2026-04-18T08:59:37.998Z</time></trkpt><trkpt lat="42.76988348761115" lon="13.29466592002233"><ele>632.0</ele><time>2026-04-18T08:59:38.999Z</time></trkpt><trkpt lat="42.76976430750451" lon="13.294442951796382"><ele>630.3333333333333</ele><time>2026-04-18T08:59:39.999Z</time></trkpt><trkpt lat="42.769644066778284" lon="13.294224302246723"><ele>628.6666666666666</ele><time>2026-04-18T08:59:40.999Z</time></trkpt><trkpt lat="42.76951893870323" lon="13.294014496879972"><ele>627.0</ele><time>2026-04-18T08:59:41.999Z</time></trkpt><trkpt lat="42.76939039750127" lon="13.293807903659077"><ele>627.6666666666666</ele><time>2026-04-18T08:59:42.999Z</time></trkpt><trkpt lat="42.769261122476024" lon="13.293603492306854"><ele>628.3333333333333</ele><time>2026-04-18T08:59:43.999Z</time></trkpt><trkpt lat="42.76912995841205" lon="13.293392576401745"><ele>629.0</ele><time>2026-04-18T08:59:44.999Z</time></trkpt><trkpt lat="42.768991130897284" lon="13.293174451730632"><ele>636.0</ele><time>2026-04-18T08:59:45.999Z</time></trkpt><trkpt lat="42.768850964683494" lon="13.29295190469114"><ele>643.0</ele><time>2026-04-18T08:59:46.999Z</time></trkpt><trkpt lat="42.768722494012295" lon="13.29274180378017"><ele>650.0</ele><time>2026-04-18T08:59:47.999Z</time></trkpt><trkpt lat="42.76860273878976" lon="13.292548212653957"><ele>651.6666666666666</ele><time>2026-04-18T08:59:49Z</time></trkpt><trkpt lat="42.76848353866339" lon="13.29235629807508"><ele>653.3333333333334</ele><time>2026-04-18T08:59:50Z</time></trkpt><trkpt lat="42.768356554804065" lon="13.292159600906434"><ele>655.0</ele><time>2026-04-18T08:59:51Z</time></trkpt><trkpt lat="42.76822640952056" lon="13.291956731521807"><ele>655.0</ele><time>2026-04-18T08:59:52Z</time></trkpt><trkpt lat="42.76809825107745" lon="13.291752348555422"><ele>655.0</ele><time>2026-04-18T08:59:53Z</time></trkpt><trkpt lat="42.76798890158793" lon="13.291581436184888"><ele>655.0</ele><time>2026-04-18T08:59:54Z</time></trkpt><trkpt lat="42.767867905852974" lon="13.291384827324597"><ele>650.0</ele><time>2026-04-18T08:59:55Z</time></trkpt><trkpt lat="42.76774632025049" lon="13.291183973245941"><ele>645.0</ele><time>2026-04-18T08:59:56Z</time></trkpt><trkpt lat="42.767622353317094" lon="13.290984166055171"><ele>640.0</ele><time>2026-04-18T08:59:57Z</time></trkpt><trkpt lat="42.767499930550194" lon="13.290780192914609"><ele>643.3333333333334</ele><time>2026-04-18T08:59:58Z</time></trkpt><trkpt lat="42.76737386588839" lon="13.29057220635017"><ele>646.6666666666666</ele><time>2026-04-18T08:59:59Z</time></trkpt><trkpt lat="42.76724637995161" lon="13.2903646773772"><ele>650.0</ele><time>2026-04-18T09:00:00Z</time></trkpt><trkpt lat="42.76711815309588" lon="13.290163296059717"><ele>650.0</ele><time>2026-04-18T09:00:01Z</time></trkpt><trkpt lat="42.76698488270108" lon="13.28995764149317"><ele>650.0</ele><time>2026-04-18T09:00:02Z</time></trkpt><trkpt lat="42.76684998308024" lon="13.289750226784404"><ele>650.0</ele><time>2026-04-18T09:00:03Z</time></trkpt><trkpt lat="42.76671385312968" lon="13.289540942451666"><ele>648.0</ele><time>2026-04-18T09:00:04Z</time></trkpt><trkpt lat="42.76657375091844" lon="13.289332972779473"><ele>646.0</ele><time>2026-04-18T09:00:05Z</time></trkpt><trkpt lat="42.76642492784232" lon="13.289131546423746"><ele>644.0</ele><time>2026-04-18T09:00:06Z</time></trkpt><trkpt lat="42.766268413623095" lon="13.288939522097243"><ele>643.6666666666666</ele><time>2026-04-18T09:00:07Z</time></trkpt><trkpt lat="42.76611092180183" lon="13.288752929375145"><ele>643.3333333333334</ele><time>2026-04-18T09:00:08Z</time></trkpt><trkpt lat="42.76595346652908" lon="13.288567208880572"><ele>643.0</ele><time>2026-04-18T09:00:09Z</time></trkpt><trkpt lat="42.765791021301496" lon="13.288387951429854"><ele>643.0</ele><time>2026-04-18T09:00:10Z</time></trkpt><trkpt lat="42.76561132468107" lon="13.288217059552785"><ele>643.0</ele><time>2026-04-18T09:00:11Z</time></trkpt><trkpt lat="42.7654253692065" lon="13.288042420485176"><ele>643.0</ele><time>2026-04-18T09:00:12Z</time></trkpt><trkpt lat="42.76523690122476" lon="13.287864657582574"><ele>643.0</ele><time>2026-04-18T09:00:13Z</time></trkpt><trkpt lat="42.7650471237874" lon="13.28768270192806"><ele>643.0</ele><time>2026-04-18T09:00:14Z</time></trkpt><trkpt lat="42.76486131140915" lon="13.28750073510841"><ele>643.0</ele><time>2026-04-18T09:00:15Z</time></trkpt><trkpt lat="42.76467864666773" lon="13.287320376161672"><ele>643.0</ele><time>2026-04-18T09:00:16Z</time></trkpt><trkpt lat="42.764491452531836" lon="13.28714456226287"><ele>641.0</ele><time>2026-04-18T09:00:17Z</time></trkpt><trkpt lat="42.764298303087706" lon="13.286969845016563"><ele>639.0</ele><time>2026-04-18T09:00:18Z</time></trkpt><trkpt lat="42.764105705949596" lon="13.286789247475188"><ele>639.0</ele><time>2026-04-18T09:00:19Z</time></trkpt><trkpt lat="42.763908629060204" lon="13.28660684476305"><ele>639.0</ele><time>2026-04-18T09:00:20Z</time></trkpt><trkpt lat="42.76370675576665" lon="13.286430557445746"><ele>640.0</ele><time>2026-04-18T09:00:21Z</time></trkpt><trkpt lat="42.76349390774921" lon="13.286271517176427"><ele>641.0</ele><time>2026-04-18T09:00:22Z</time></trkpt><trkpt lat="42.763277483196276" lon="13.286132480554157"><ele>641.0</ele><time>2026-04-18T09:00:22.999Z</time></trkpt><trkpt lat="42.763055161834096" lon="13.286008936651607"><ele>641.0</ele><time>2026-04-18T09:00:23.999Z</time></trkpt><trkpt lat="42.762831665425026" lon="13.285903067614614"><ele>641.0</ele><time>2026-04-18T09:00:24.999Z</time></trkpt><trkpt lat="42.762607530713524" lon="13.285814240196848"><ele>641.0</ele><time>2026-04-18T09:00:25.999Z</time></trkpt><trkpt lat="42.76237476236626" lon="13.285738607625296"><ele>641.0</ele><time>2026-04-18T09:00:26.999Z</time></trkpt><trkpt lat="42.76213996509611" lon="13.2856656494888"><ele>641.0</ele><time>2026-04-18T09:00:27.999Z</time></trkpt><trkpt lat="42.76190437178772" lon="13.285595502297193"><ele>645.0</ele><time>2026-04-18T09:00:28.999Z</time></trkpt><trkpt lat="42.761674240918865" lon="13.285527411026145"><ele>649.0</ele><time>2026-04-18T09:00:29.999Z</time></trkpt><trkpt lat="42.761440961325235" lon="13.285458313910931"><ele>649.0</ele><time>2026-04-18T09:00:30.999Z</time></trkpt><trkpt lat="42.76120836339031" lon="13.285386457954685"><ele>649.0</ele><time>2026-04-18T09:00:31.999Z</time></trkpt><trkpt lat="42.76097785812013" lon="13.285313562050032"><ele>648.0</ele><time>2026-04-18T09:00:32.999Z</time></trkpt><trkpt lat="42.76074425941108" lon="13.285236842752374"><ele>647.0</ele><time>2026-04-18T09:00:33.999Z</time></trkpt><trkpt lat="42.760498112362626" lon="13.285160183118462"><ele>647.0</ele><time>2026-04-18T09:00:34.999Z</time></trkpt><trkpt lat="42.76023599552747" lon="13.285080617144615"><ele>647.0</ele><time>2026-04-18T09:00:35.999Z</time></trkpt><trkpt lat="42.759981705813395" lon="13.28498330196396"><ele>645.0</ele><time>2026-04-18T09:00:36.999Z</time></trkpt><trkpt lat="42.75974516092271" lon="13.284861513641802"><ele>643.0</ele><time>2026-04-18T09:00:37.999Z</time></trkpt><trkpt lat="42.75951481787111" lon="13.284716119513012"><ele>647.5</ele><time>2026-04-18T09:00:38.999Z</time></trkpt><trkpt lat="42.75929454253256" lon="13.284556821869247"><ele>652.0</ele><time>2026-04-18T09:00:39.999Z</time></trkpt><trkpt lat="42.759082624508125" lon="13.28438581997444"><ele>652.0</ele><time>2026-04-18T09:00:40.999Z</time></trkpt><trkpt lat="42.75887486498463" lon="13.284201473345636"><ele>652.0</ele><time>2026-04-18T09:00:41.999Z</time></trkpt><trkpt lat="42.758671476085276" lon="13.284002797878385"><ele>649.0</ele><time>2026-04-18T09:00:42.999Z</time></trkpt><trkpt lat="42.75847243040628" lon="13.28379560022948"><ele>646.0</ele><time>2026-04-18T09:00:43.999Z</time></trkpt><trkpt lat="42.75827333664887" lon="13.283584402000306"><ele>646.0</ele><time>2026-04-18T09:00:44.999Z</time></trkpt><trkpt lat="42.75807246439624" lon="13.283375614603317"><ele>646.0</ele><time>2026-04-18T09:00:45.999Z</time></trkpt><trkpt lat="42.75786727647883" lon="13.283170880495534"><ele>645.5</ele><time>2026-04-18T09:00:46.999Z</time></trkpt><trkpt lat="42.75766113510295" lon="13.282973520612368"><ele>645.0</ele><time>2026-04-18T09:00:47.999Z</time></trkpt><trkpt lat="42.75745146714111" lon="13.282784277770276"><ele>645.0</ele><time>2026-04-18T09:00:48.999Z</time></trkpt><trkpt lat="42.75723705578508" lon="13.282609602235855"><ele>645.0</ele><time>2026-04-18T09:00:49.999Z</time></trkpt><trkpt lat="42.75701275177" lon="13.282447587766939"><ele>645.5</ele><time>2026-04-18T09:00:50.999Z</time></trkpt><trkpt lat="42.756781498601555" lon="13.282302592482061"><ele>646.0</ele><time>2026-04-18T09:00:51.999Z</time></trkpt><trkpt lat="42.75654984553544" lon="13.2821680631032"><ele>648.5</ele><time>2026-04-18T09:00:52.999Z</time></trkpt><trkpt lat="42.75631298678801" lon="13.282023371913573"><ele>651.0</ele><time>2026-04-18T09:00:53.999Z</time></trkpt><trkpt lat="42.75608129401235" lon="13.281860652488337"><ele>653.0</ele><time>2026-04-18T09:00:54.999Z</time></trkpt><trkpt lat="42.755868580974806" lon="13.28165684879837"><ele>655.0</ele><time>2026-04-18T09:00:55.999Z</time></trkpt><trkpt lat="42.75568269139151" lon="13.281417260667265"><ele>664.0</ele><time>2026-04-18T09:00:56.999Z</time></trkpt><trkpt lat="42.75551836036078" lon="13.28114502886347"><ele>673.0</ele><time>2026-04-18T09:00:57.999Z</time></trkpt><trkpt lat="42.755381909188166" lon="13.280842263763224"><ele>664.5</ele><time>2026-04-18T09:00:58.999Z</time></trkpt><trkpt lat="42.75527974006342" lon="13.280518743700304"><ele>656.0</ele><time>2026-04-18T09:00:59.999Z</time></trkpt><trkpt lat="42.755195089947875" lon="13.2801864851512"><ele>656.0</ele><time>2026-04-18T09:01:00.999Z</time></trkpt><trkpt lat="42.755126352495935" lon="13.279846183107999"><ele>656.0</ele><time>2026-04-18T09:01:01.999Z</time></trkpt><trkpt lat="42.75506133498352" lon="13.279505094420111"><ele>660.5</ele><time>2026-04-18T09:01:02.999Z</time></trkpt><trkpt lat="42.754983439251774" lon="13.279166778920588"><ele>665.0</ele><time>2026-04-18T09:01:03.999Z</time></trkpt><trkpt lat="42.754890670992175" lon="13.278839738944741"><ele>670.5</ele><time>2026-04-18T09:01:04.999Z</time></trkpt><trkpt lat="42.75477514349281" lon="13.278526167606959"><ele>676.0</ele><time>2026-04-18T09:01:05.999Z</time></trkpt><trkpt lat="42.75463562260068" lon="13.278226906624452"><ele>680.0</ele><time>2026-04-18T09:01:06.999Z</time></trkpt><trkpt lat="42.75447797084084" lon="13.277951678427458"><ele>684.0</ele><time>2026-04-18T09:01:07.999Z</time></trkpt><trkpt lat="42.75429988498627" lon="13.277700477247695"><ele>674.5</ele><time>2026-04-18T09:01:08.999Z</time></trkpt><trkpt lat="42.75410237516242" lon="13.277474826570543"><ele>665.0</ele><time>2026-04-18T09:01:09.999Z</time></trkpt><trkpt lat="42.75389051818265" lon="13.277277779955908"><ele>664.5</ele><time>2026-04-18T09:01:10.999Z</time></trkpt><trkpt lat="42.7536733280711" lon="13.277100978443107"><ele>664.0</ele><time>2026-04-18T09:01:11.999Z</time></trkpt><trkpt lat="42.75345395075711" lon="13.276927816717388"><ele>664.0</ele><time>2026-04-18T09:01:12.999Z</time></trkpt><trkpt lat="42.75323865135324" lon="13.276745509786872"><ele>664.0</ele><time>2026-04-18T09:01:13.999Z</time></trkpt><trkpt lat="42.75302820891664" lon="13.27655760648866"><ele>665.0</ele><time>2026-04-18T09:01:14.999Z</time></trkpt><trkpt lat="42.75282689464023" lon="13.27636213888504"><ele>666.0</ele><time>2026-04-18T09:01:15.999Z</time></trkpt><trkpt lat="42.752634740762915" lon="13.276150178296925"><ele>666.0</ele><time>2026-04-18T09:01:16.999Z</time></trkpt><trkpt lat="42.75245749434784" lon="13.275924946637465"><ele>666.0</ele><time>2026-04-18T09:01:17.999Z</time></trkpt><trkpt lat="42.75228475816496" lon="13.27568034914291"><ele>672.5</ele><time>2026-04-18T09:01:18.999Z</time></trkpt><trkpt lat="42.75212573089759" lon="13.275427158390489"><ele>679.0</ele><time>2026-04-18T09:01:19.999Z</time></trkpt><trkpt lat="42.751975615368046" lon="13.275160580727439"><ele>669.5</ele><time>2026-04-18T09:01:20.999Z</time></trkpt><trkpt lat="42.75183789340745" lon="13.274889043075783"><ele>660.0</ele><time>2026-04-18T09:01:21.999Z</time></trkpt><trkpt lat="42.75170601347133" lon="13.274627475006115"><ele>660.0</ele><time>2026-04-18T09:01:22.999Z</time></trkpt><trkpt lat="42.75157660012351" lon="13.274370191022552"><ele>660.0</ele><time>2026-04-18T09:01:23.999Z</time></trkpt><trkpt lat="42.75144444470732" lon="13.274121767251899"><ele>670.0</ele><time>2026-04-18T09:01:24.999Z</time></trkpt><trkpt lat="42.751311510078686" lon="13.273872570271644"><ele>680.0</ele><time>2026-04-18T09:01:25.999Z</time></trkpt><trkpt lat="42.75117854169191" lon="13.273623429333218"><ele>680.0</ele><time>2026-04-18T09:01:26.999Z</time></trkpt><trkpt lat="42.75104706730115" lon="13.27337450634212"><ele>680.0</ele><time>2026-04-18T09:01:27.999Z</time></trkpt><trkpt lat="42.75091355007427" lon="13.273120827405064"><ele>678.0</ele><time>2026-04-18T09:01:28.999Z</time></trkpt><trkpt lat="42.75077267291637" lon="13.272876681569286"><ele>676.0</ele><time>2026-04-18T09:01:29.999Z</time></trkpt><trkpt lat="42.75061484797308" lon="13.272643009499104"><ele>676.0</ele><time>2026-04-18T09:01:30.999Z</time></trkpt><trkpt lat="42.7504439069712" lon="13.272427244080792"><ele>676.0</ele><time>2026-04-18T09:01:31.999Z</time></trkpt><trkpt lat="42.750261164666135" lon="13.272218453394963"><ele>680.0</ele><time>2026-04-18T09:01:32.999Z</time></trkpt><trkpt lat="42.75007119308655" lon="13.272026895019966"><ele>684.0</ele><time>2026-04-18T09:01:33.999Z</time></trkpt><trkpt lat="42.74987758037228" lon="13.27186336908397"><ele>684.0</ele><time>2026-04-18T09:01:34.999Z</time></trkpt><trkpt lat="42.7496912852536" lon="13.271719761404393"><ele>684.0</ele><time>2026-04-18T09:01:35.999Z</time></trkpt><trkpt lat="42.74950967955508" lon="13.271586376402148"><ele>684.0</ele><time>2026-04-18T09:01:36.999Z</time></trkpt><trkpt lat="42.749332292712346" lon="13.271453809410561"><ele>685.6666666666666</ele><time>2026-04-18T09:01:37.999Z</time></trkpt><trkpt lat="42.749159183004515" lon="13.271321445220243"><ele>687.3333333333333</ele><time>2026-04-18T09:01:38.999Z</time></trkpt><trkpt lat="42.74898475158631" lon="13.27119152178711"><ele>689.0</ele><time>2026-04-18T09:01:39.999Z</time></trkpt><trkpt lat="42.7488126405723" lon="13.271068255680674"><ele>689.0</ele><time>2026-04-18T09:01:40.999Z</time></trkpt><trkpt lat="42.748637725725715" lon="13.270939794285407"><ele>689.0</ele><time>2026-04-18T09:01:41.999Z</time></trkpt><trkpt lat="42.74846392670157" lon="13.27081223322325"><ele>689.0</ele><time>2026-04-18T09:01:42.999Z</time></trkpt><trkpt lat="42.74829369958395" lon="13.270689859215912"><ele>690.6666666666666</ele><time>2026-04-18T09:01:43.999Z</time></trkpt><trkpt lat="42.748120917579065" lon="13.270564435271137"><ele>692.3333333333334</ele><time>2026-04-18T09:01:45Z</time></trkpt><trkpt lat="42.747945652496604" lon="13.270433191339269"><ele>694.0</ele><time>2026-04-18T09:01:46Z</time></trkpt><trkpt lat="42.74777314619467" lon="13.270299310636384"><ele>685.3333333333334</ele><time>2026-04-18T09:01:47Z</time></trkpt><trkpt lat="42.74759895565351" lon="13.270157629813117"><ele>676.6666666666666</ele><time>2026-04-18T09:01:48Z</time></trkpt><trkpt lat="42.74743897040306" lon="13.270016555182345"><ele>668.0</ele><time>2026-04-18T09:01:49Z</time></trkpt><trkpt lat="42.747286228023206" lon="13.269869455721052"><ele>666.3333333333333</ele><time>2026-04-18T09:01:50Z</time></trkpt><trkpt lat="42.74712987334861" lon="13.269712601350404"><ele>664.6666666666666</ele><time>2026-04-18T09:01:51Z</time></trkpt><trkpt lat="42.74697423288274" lon="13.269548215983622"><ele>663.0</ele><time>2026-04-18T09:01:52Z</time></trkpt><trkpt lat="42.7468215585264" lon="13.26937571501995"><ele>663.0</ele><time>2026-04-18T09:01:53Z</time></trkpt><trkpt lat="42.74666956154379" lon="13.269200131380783"><ele>663.0</ele><time>2026-04-18T09:01:54Z</time></trkpt><trkpt lat="42.746520251179135" lon="13.269028964341134"><ele>663.0</ele><time>2026-04-18T09:01:55Z</time></trkpt><trkpt lat="42.746368261436515" lon="13.268857925663811"><ele>663.0</ele><time>2026-04-18T09:01:56Z</time></trkpt><trkpt lat="42.74621356127681" lon="13.268690695305088"><ele>663.0</ele><time>2026-04-18T09:01:57Z</time></trkpt><trkpt lat="42.74605847465935" lon="13.268530800844008"><ele>663.0</ele><time>2026-04-18T09:01:58Z</time></trkpt><trkpt lat="42.745905615290226" lon="13.2683696548442"><ele>663.0</ele><time>2026-04-18T09:01:59Z</time></trkpt><trkpt lat="42.745749844608525" lon="13.268207904071778"><ele>663.0</ele><time>2026-04-18T09:02:00Z</time></trkpt><trkpt lat="42.74559024557172" lon="13.268050559766705"><ele>663.0</ele><time>2026-04-18T09:02:01Z</time></trkpt><trkpt lat="42.74542977309395" lon="13.267898599952948"><ele>664.6666666666666</ele><time>2026-04-18T09:02:02Z</time></trkpt><trkpt lat="42.7452677406012" lon="13.267747223350101"><ele>666.3333333333333</ele><time>2026-04-18T09:02:03Z</time></trkpt><trkpt lat="42.74510198672881" lon="13.267593527456517"><ele>668.0</ele><time>2026-04-18T09:02:04Z</time></trkpt><trkpt lat="42.74493121928271" lon="13.267440044416011"><ele>668.0</ele><time>2026-04-18T09:02:05Z</time></trkpt><trkpt lat="42.744759996868765" lon="13.267290201661579"><ele>668.0</ele><time>2026-04-18T09:02:06Z</time></trkpt><trkpt lat="42.74458916680324" lon="13.267143112282401"><ele>668.0</ele><time>2026-04-18T09:02:07Z</time></trkpt><trkpt lat="42.74441453016505" lon="13.266996929715464"><ele>668.6666666666666</ele><time>2026-04-18T09:02:08Z</time></trkpt><trkpt lat="42.744241967629804" lon="13.26685594339066"><ele>669.3333333333334</ele><time>2026-04-18T09:02:09Z</time></trkpt><trkpt lat="42.744065006871956" lon="13.266717837220295"><ele>670.0</ele><time>2026-04-18T09:02:10Z</time></trkpt><trkpt lat="42.74388311559946" lon="13.266580442276078"><ele>670.0</ele><time>2026-04-18T09:02:11Z</time></trkpt><trkpt lat="42.7436969704947" lon="13.266447356427088"><ele>670.0</ele><time>2026-04-18T09:02:12Z</time></trkpt><trkpt lat="42.74350985588206" lon="13.266319634792255"><ele>670.0</ele><time>2026-04-18T09:02:13Z</time></trkpt><trkpt lat="42.74332339129904" lon="13.266196114950395"><ele>671.6666666666667</ele><time>2026-04-18T09:02:14Z</time></trkpt><trkpt lat="42.74313770121237" lon="13.266076084650159"><ele>673.3333333333334</ele><time>2026-04-18T09:02:15Z</time></trkpt><trkpt lat="42.742944543088385" lon="13.265949639394895"><ele>675.0</ele><time>2026-04-18T09:02:16Z</time></trkpt><trkpt lat="42.74274942157309" lon="13.265829980050707"><ele>673.3333333333334</ele><time>2026-04-18T09:02:17Z</time></trkpt><trkpt lat="42.74255201065093" lon="13.2657164266875"><ele>671.6666666666667</ele><time>2026-04-18T09:02:18Z</time></trkpt><trkpt lat="42.74234971830433" lon="13.265602163360446"><ele>670.0</ele><time>2026-04-18T09:02:19Z</time></trkpt><trkpt lat="42.74214760297842" lon="13.265490503463667"><ele>672.0</ele><time>2026-04-18T09:02:20Z</time></trkpt><trkpt lat="42.741942209461975" lon="13.265384750682406"><ele>674.0</ele><time>2026-04-18T09:02:21Z</time></trkpt><trkpt lat="42.741735588813164" lon="13.265283766406746"><ele>676.0</ele><time>2026-04-18T09:02:22Z</time></trkpt><trkpt lat="42.74152450974502" lon="13.265186599965679"><ele>676.0</ele><time>2026-04-18T09:02:23Z</time></trkpt><trkpt lat="42.7413105603702" lon="13.26509713455678"><ele>676.0</ele><time>2026-04-18T09:02:24Z</time></trkpt><trkpt lat="42.74109517405023" lon="13.265014488565042"><ele>676.0</ele><time>2026-04-18T09:02:25Z</time></trkpt><trkpt lat="42.740877091917014" lon="13.264937561768171"><ele>673.5</ele><time>2026-04-18T09:02:26Z</time></trkpt><trkpt lat="42.7406560973099" lon="13.264867891905087"><ele>671.0</ele><time>2026-04-18T09:02:27Z</time></trkpt><trkpt lat="42.740429005397104" lon="13.26480821934739"><ele>673.0</ele><time>2026-04-18T09:02:28Z</time></trkpt><trkpt lat="42.74020789873029" lon="13.264762542715223"><ele>675.0</ele><time>2026-04-18T09:02:29Z</time></trkpt><trkpt lat="42.739983557572714" lon="13.264688315375793"><ele>675.0</ele><time>2026-04-18T09:02:30Z</time></trkpt><trkpt lat="42.73975936614747" lon="13.264635265900283"><ele>675.0</ele><time>2026-04-18T09:02:31Z</time></trkpt><trkpt lat="42.73952749580818" lon="13.264641600627565"><ele>674.3333333333334</ele><time>2026-04-18T09:02:32Z</time></trkpt><trkpt lat="42.739311117740925" lon="13.264623815238238"><ele>673.6666666666667</ele><time>2026-04-18T09:02:33Z</time></trkpt><trkpt lat="42.7391004147786" lon="13.264621853735893"><ele>673.0</ele><time>2026-04-18T09:02:34Z</time></trkpt><trkpt lat="42.73889928425362" lon="13.264626067337195"><ele>673.0</ele><time>2026-04-18T09:02:35Z</time></trkpt><trkpt lat="42.73869827598274" lon="13.2646378379001"><ele>673.0</ele><time>2026-04-18T09:02:36Z</time></trkpt><trkpt lat="42.73850631013957" lon="13.26465771205779"><ele>673.0</ele><time>2026-04-18T09:02:37Z</time></trkpt><trkpt lat="42.73832636639522" lon="13.264678061385709"><ele>672.3333333333334</ele><time>2026-04-18T09:02:38Z</time></trkpt><trkpt lat="42.73815323223284" lon="13.264700146295704"><ele>671.6666666666666</ele><time>2026-04-18T09:02:39Z</time></trkpt><trkpt lat="42.73798184143391" lon="13.26472820345625"><ele>671.0</ele><time>2026-04-18T09:02:40Z</time></trkpt><trkpt lat="42.73781772008747" lon="13.26475893067194"><ele>672.0</ele><time>2026-04-18T09:02:41Z</time></trkpt><trkpt lat="42.73766634868378" lon="13.264790267951089"><ele>673.0</ele><time>2026-04-18T09:02:42Z</time></trkpt><trkpt lat="42.73751863171431" lon="13.264827540864754"><ele>674.0</ele><time>2026-04-18T09:02:43Z</time></trkpt><trkpt lat="42.7373825744736" lon="13.26486629699978"><ele>675.0</ele><time>2026-04-18T09:02:44Z</time></trkpt><trkpt lat="42.73725329302616" lon="13.264902505339052"><ele>675.0</ele><time>2026-04-18T09:02:45Z</time></trkpt><trkpt lat="42.737131513839735" lon="13.264930668336655"><ele>675.0</ele><time>2026-04-18T09:02:46Z</time></trkpt><trkpt lat="42.73701850752133" lon="13.264942968038593"><ele>675.0</ele><time>2026-04-18T09:02:47Z</time></trkpt><trkpt lat="42.73690917675864" lon="13.264936131609128"><ele>675.0</ele><time>2026-04-18T09:02:48Z</time></trkpt><trkpt lat="42.73680954541513" lon="13.264893731820539"><ele>675.8</ele><time>2026-04-18T09:02:49Z</time></trkpt><trkpt lat="42.73670757661365" lon="13.264857419874987"><ele>676.6</ele><time>2026-04-18T09:02:50Z</time></trkpt><trkpt lat="42.736606637356715" lon="13.264891903717293"><ele>677.4000000000001</ele><time>2026-04-18T09:02:51Z</time></trkpt><trkpt lat="42.73653461894485" lon="13.264973689908093"><ele>678.2</ele><time>2026-04-18T09:02:52Z</time></trkpt><trkpt lat="42.736467969150624" lon="13.265090683501594"><ele>679.0</ele><time>2026-04-18T09:02:53Z</time></trkpt><trkpt lat="42.7363825535579" lon="13.265194559989824"><ele>679.0</ele><time>2026-04-18T09:02:54Z</time></trkpt><trkpt lat="42.73628100583667" lon="13.265274608481482"><ele>679.0</ele><time>2026-04-18T09:02:55Z</time></trkpt><trkpt lat="42.73617857143188" lon="13.265329618418685"><ele>679.0</ele><time>2026-04-18T09:02:56Z</time></trkpt><trkpt lat="42.73607121980639" lon="13.265379085722175"><ele>679.0</ele><time>2026-04-18T09:02:57Z</time></trkpt><trkpt lat="42.735949694641164" lon="13.265446507903341"><ele>679.5</ele><time>2026-04-18T09:02:58Z</time></trkpt><trkpt lat="42.73567348123058" lon="13.265598556797817"><ele>680.0</ele><time>2026-04-18T09:03:00Z</time></trkpt><trkpt lat="42.73551906835078" lon="13.265680087885125"><ele>680.3333333333333</ele><time>2026-04-18T09:03:01Z</time></trkpt><trkpt lat="42.73535879446601" lon="13.265765017516044"><ele>680.6666666666666</ele><time>2026-04-18T09:03:01.999Z</time></trkpt><trkpt lat="42.73519844004148" lon="13.265881435504825"><ele>681.0</ele><time>2026-04-18T09:03:02.999Z</time></trkpt><trkpt lat="42.73503988797714" lon="13.266004141589494"><ele>681.6666666666666</ele><time>2026-04-18T09:03:03.999Z</time></trkpt><trkpt lat="42.73488036749905" lon="13.266125976846844"><ele>682.3333333333333</ele><time>2026-04-18T09:03:04.999Z</time></trkpt><trkpt lat="42.73472266637043" lon="13.266250336346687"><ele>683.0</ele><time>2026-04-18T09:03:05.999Z</time></trkpt><trkpt lat="42.7345694838514" lon="13.26637722811866"><ele>683.6666666666666</ele><time>2026-04-18T09:03:06.999Z</time></trkpt><trkpt lat="42.734421197499394" lon="13.266506143413412"><ele>684.3333333333334</ele><time>2026-04-18T09:03:07.999Z</time></trkpt><trkpt lat="42.734275709253886" lon="13.26663959164475"><ele>685.0</ele><time>2026-04-18T09:03:08.999Z</time></trkpt><trkpt lat="42.734134588010456" lon="13.266778403588658"><ele>685.0</ele><time>2026-04-18T09:03:09.999Z</time></trkpt><trkpt lat="42.7339930577009" lon="13.26691873066729"><ele>685.0</ele><time>2026-04-18T09:03:10.999Z</time></trkpt><trkpt lat="42.73385356379854" lon="13.26706252226379"><ele>685.0</ele><time>2026-04-18T09:03:11.999Z</time></trkpt><trkpt lat="42.73371573108508" lon="13.267210656253289"><ele>685.3333333333334</ele><time>2026-04-18T09:03:12.999Z</time></trkpt><trkpt lat="42.7335769585974" lon="13.26735648518234"><ele>685.6666666666666</ele><time>2026-04-18T09:03:13.999Z</time></trkpt><trkpt lat="42.733437315828496" lon="13.267508627278989"><ele>686.0</ele><time>2026-04-18T09:03:14.999Z</time></trkpt><trkpt lat="42.73330463595888" lon="13.267669732236431"><ele>686.0</ele><time>2026-04-18T09:03:15.999Z</time></trkpt><trkpt lat="42.73317527575146" lon="13.267842096351538"><ele>686.0</ele><time>2026-04-18T09:03:16.999Z</time></trkpt><trkpt lat="42.733035657495" lon="13.26800421338996"><ele>686.0</ele><time>2026-04-18T09:03:17.999Z</time></trkpt><trkpt lat="42.73289571509728" lon="13.268164236594934"><ele>686.3333333333333</ele><time>2026-04-18T09:03:18.999Z</time></trkpt><trkpt lat="42.732756209392036" lon="13.268319652087602"><ele>686.6666666666666</ele><time>2026-04-18T09:03:19.998Z</time></trkpt><trkpt lat="42.73261076121196" lon="13.268466925134199"><ele>687.0</ele><time>2026-04-18T09:03:20.998Z</time></trkpt><trkpt lat="42.73245941904737" lon="13.268606665291514"><ele>687.0</ele><time>2026-04-18T09:03:21.998Z</time></trkpt><trkpt lat="42.73230094816609" lon="13.268736078926713"><ele>687.0</ele><time>2026-04-18T09:03:22.998Z</time></trkpt><trkpt lat="42.732134658574935" lon="13.268853300333609"><ele>687.0</ele><time>2026-04-18T09:03:23.998Z</time></trkpt><trkpt lat="42.73196608422829" lon="13.268961099215922"><ele>686.6666666666666</ele><time>2026-04-18T09:03:24.998Z</time></trkpt><trkpt lat="42.73179150908483" lon="13.26905593087742"><ele>686.3333333333333</ele><time>2026-04-18T09:03:25.998Z</time></trkpt><trkpt lat="42.73161203607345" lon="13.269133998649295"><ele>686.0</ele><time>2026-04-18T09:03:26.998Z</time></trkpt><trkpt lat="42.73143524093593" lon="13.26919859389686"><ele>686.0</ele><time>2026-04-18T09:03:27.998Z</time></trkpt><trkpt lat="42.73126079755598" lon="13.269256476028271"><ele>686.0</ele><time>2026-04-18T09:03:28.998Z</time></trkpt><trkpt lat="42.73107686219032" lon="13.269302592817679"><ele>686.0</ele><time>2026-04-18T09:03:29.998Z</time></trkpt><trkpt lat="42.73088950716093" lon="13.269332676861323"><ele>685.6666666666666</ele><time>2026-04-18T09:03:30.998Z</time></trkpt><trkpt lat="42.73069861026305" lon="13.269351189892367"><ele>685.3333333333334</ele><time>2026-04-18T09:03:31.998Z</time></trkpt><trkpt lat="42.73050329531502" lon="13.269356007870394"><ele>685.0</ele><time>2026-04-18T09:03:32.998Z</time></trkpt><trkpt lat="42.73030588151744" lon="13.269340984612084"><ele>685.6666666666667</ele><time>2026-04-18T09:03:33.998Z</time></trkpt><trkpt lat="42.730106051292594" lon="13.269312798226856"><ele>686.3333333333334</ele><time>2026-04-18T09:03:34.998Z</time></trkpt><trkpt lat="42.729902702274515" lon="13.269268410381123"><ele>687.0</ele><time>2026-04-18T09:03:35.998Z</time></trkpt><trkpt lat="42.7297024991263" lon="13.269207033501742"><ele>687.0</ele><time>2026-04-18T09:03:36.998Z</time></trkpt><trkpt lat="42.72950374783884" lon="13.269126757531428"><ele>687.0</ele><time>2026-04-18T09:03:37.998Z</time></trkpt><trkpt lat="42.72930393531794" lon="13.269033528191141"><ele>687.0</ele><time>2026-04-18T09:03:38.998Z</time></trkpt><trkpt lat="42.72910948678108" lon="13.268928691844465"><ele>687.3333333333334</ele><time>2026-04-18T09:03:39.998Z</time></trkpt><trkpt lat="42.72891996926852" lon="13.268806626257064"><ele>687.6666666666667</ele><time>2026-04-18T09:03:40.998Z</time></trkpt><trkpt lat="42.72873420761085" lon="13.268677913059006"><ele>688.0</ele><time>2026-04-18T09:03:41.998Z</time></trkpt><trkpt lat="42.72855422773602" lon="13.26853242284414"><ele>688.0</ele><time>2026-04-18T09:03:42.998Z</time></trkpt><trkpt lat="42.72837837196498" lon="13.268370761278089"><ele>688.0</ele><time>2026-04-18T09:03:43.998Z</time></trkpt><trkpt lat="42.72821680284639" lon="13.26819551026329"><ele>688.0</ele><time>2026-04-18T09:03:44.998Z</time></trkpt><trkpt lat="42.72806345983715" lon="13.268004465053439"><ele>688.0</ele><time>2026-04-18T09:03:45.998Z</time></trkpt><trkpt lat="42.727919637362426" lon="13.267802716891747"><ele>688.0</ele><time>2026-04-18T09:03:46.998Z</time></trkpt><trkpt lat="42.72778623291105" lon="13.267590488932552"><ele>688.0</ele><time>2026-04-18T09:03:47.998Z</time></trkpt><trkpt lat="42.72765915738174" lon="13.267359390952407"><ele>687.6666666666667</ele><time>2026-04-18T09:03:48.998Z</time></trkpt><trkpt lat="42.72754206036747" lon="13.267127639286088"><ele>687.3333333333334</ele><time>2026-04-18T09:03:49.998Z</time></trkpt><trkpt lat="42.72742834707175" lon="13.266890721213882"><ele>687.0</ele><time>2026-04-18T09:03:50.999Z</time></trkpt><trkpt lat="42.72731355152154" lon="13.266654663243902"><ele>689.0</ele><time>2026-04-18T09:03:51.999Z</time></trkpt><trkpt lat="42.72719086951637" lon="13.266425588634524"><ele>691.0</ele><time>2026-04-18T09:03:52.999Z</time></trkpt><trkpt lat="42.727052112068534" lon="13.266211958672585"><ele>693.0</ele><time>2026-04-18T09:03:53.999Z</time></trkpt><trkpt lat="42.72690561654645" lon="13.26601537730523"><ele>692.6666666666666</ele><time>2026-04-18T09:03:54.999Z</time></trkpt><trkpt lat="42.726747005806814" lon="13.265833229199407"><ele>692.3333333333333</ele><time>2026-04-18T09:03:55.999Z</time></trkpt><trkpt lat="42.726579973649706" lon="13.265657786388202"><ele>692.0</ele><time>2026-04-18T09:03:56.999Z</time></trkpt><trkpt lat="42.726407353764614" lon="13.265493985864426"><ele>692.0</ele><time>2026-04-18T09:03:57.999Z</time></trkpt><trkpt lat="42.72622633300813" lon="13.265343463483838"><ele>692.0</ele><time>2026-04-18T09:03:58.999Z</time></trkpt><trkpt lat="42.726038072085835" lon="13.265205231212331"><ele>692.0</ele><time>2026-04-18T09:03:59.999Z</time></trkpt><trkpt lat="42.72583636873368" lon="13.265071661245429"><ele>692.0</ele><time>2026-04-18T09:04:00.999Z</time></trkpt><trkpt lat="42.72563305694866" lon="13.264963689353657"><ele>692.0</ele><time>2026-04-18T09:04:01.999Z</time></trkpt><trkpt lat="42.72542158258578" lon="13.26486891032482"><ele>692.0</ele><time>2026-04-18T09:04:02.999Z</time></trkpt><trkpt lat="42.72520500111931" lon="13.264792193860096"><ele>704.0</ele><time>2026-04-18T09:04:03.999Z</time></trkpt><trkpt lat="42.72498332466725" lon="13.264728988748365"><ele>716.0</ele><time>2026-04-18T09:04:04.999Z</time></trkpt><trkpt lat="42.72475894627839" lon="13.264670917902071"><ele>716.0</ele><time>2026-04-18T09:04:05.999Z</time></trkpt><trkpt lat="42.72453341918045" lon="13.2645996425924"><ele>716.0</ele><time>2026-04-18T09:04:06.999Z</time></trkpt><trkpt lat="42.724307727168956" lon="13.264515478635538"><ele>712.5</ele><time>2026-04-18T09:04:07.999Z</time></trkpt><trkpt lat="42.724077450946474" lon="13.26442127267716"><ele>709.0</ele><time>2026-04-18T09:04:08.999Z</time></trkpt><trkpt lat="42.72384732731676" lon="13.26430035569376"><ele>709.0</ele><time>2026-04-18T09:04:09.999Z</time></trkpt><trkpt lat="42.72362252910476" lon="13.264149902701938"><ele>709.0</ele><time>2026-04-18T09:04:10.999Z</time></trkpt><trkpt lat="42.72339842370502" lon="13.263980067631268"><ele>706.0</ele><time>2026-04-18T09:04:11.999Z</time></trkpt><trkpt lat="42.723174374671004" lon="13.263811708351685"><ele>703.0</ele><time>2026-04-18T09:04:12.999Z</time></trkpt><trkpt lat="42.7229438165683" lon="13.263654623650623"><ele>698.5</ele><time>2026-04-18T09:04:13.999Z</time></trkpt><trkpt lat="42.72271091745701" lon="13.263502442994028"><ele>694.0</ele><time>2026-04-18T09:04:14.999Z</time></trkpt><trkpt lat="42.722479671014305" lon="13.263351146398465"><ele>694.0</ele><time>2026-04-18T09:04:15.999Z</time></trkpt><trkpt lat="42.72224796919588" lon="13.26319688440351"><ele>694.0</ele><time>2026-04-18T09:04:16.999Z</time></trkpt><trkpt lat="42.72201450187798" lon="13.263045007342633"><ele>698.0</ele><time>2026-04-18T09:04:17.999Z</time></trkpt><trkpt lat="42.72177564669516" lon="13.262887695262297"><ele>702.0</ele><time>2026-04-18T09:04:18.999Z</time></trkpt><trkpt lat="42.7215279115777" lon="13.262721668329428"><ele>702.0</ele><time>2026-04-18T09:04:19.999Z</time></trkpt><trkpt lat="42.72126674106665" lon="13.262542850520846"><ele>702.0</ele><time>2026-04-18T09:04:20.999Z</time></trkpt><trkpt lat="42.72099801021072" lon="13.262360959014892"><ele>699.5</ele><time>2026-04-18T09:04:21.999Z</time></trkpt><trkpt lat="42.72072674302362" lon="13.262179708597248"><ele>697.0</ele><time>2026-04-18T09:04:22.999Z</time></trkpt><trkpt lat="42.72046053139623" lon="13.262006251952227"><ele>698.5</ele><time>2026-04-18T09:04:23.999Z</time></trkpt><trkpt lat="42.72019836802612" lon="13.26183199725626"><ele>700.0</ele><time>2026-04-18T09:04:24.999Z</time></trkpt><trkpt lat="42.71993715483325" lon="13.261663090696187"><ele>700.0</ele><time>2026-04-18T09:04:25.999Z</time></trkpt><trkpt lat="42.719681637558445" lon="13.261491341091359"><ele>700.0</ele><time>2026-04-18T09:04:26.999Z</time></trkpt><trkpt lat="42.719429425417786" lon="13.261320297119765"><ele>700.5</ele><time>2026-04-18T09:04:27.999Z</time></trkpt><trkpt lat="42.719179148128305" lon="13.261153203729233"><ele>701.0</ele><time>2026-04-18T09:04:28.999Z</time></trkpt><trkpt lat="42.7189334037112" lon="13.260992795413024"><ele>701.0</ele><time>2026-04-18T09:04:29.999Z</time></trkpt><trkpt lat="42.71868427719419" lon="13.260826846997182"><ele>701.0</ele><time>2026-04-18T09:04:30.999Z</time></trkpt><trkpt lat="42.71844028177607" lon="13.26066070137825"><ele>709.0</ele><time>2026-04-18T09:04:31.999Z</time></trkpt><trkpt lat="42.71819625574617" lon="13.26049707720718"><ele>717.0</ele><time>2026-04-18T09:04:32.999Z</time></trkpt><trkpt lat="42.71795611606995" lon="13.260336124974524"><ele>713.0</ele><time>2026-04-18T09:04:33.999Z</time></trkpt><trkpt lat="42.71771435237228" lon="13.260173301442894"><ele>709.0</ele><time>2026-04-18T09:04:34.999Z</time></trkpt><trkpt lat="42.717475598618776" lon="13.260012624818446"><ele>709.0</ele><time>2026-04-18T09:04:35.999Z</time></trkpt><trkpt lat="42.71723563846677" lon="13.2598565235239"><ele>709.0</ele><time>2026-04-18T09:04:36.999Z</time></trkpt><trkpt lat="42.71700212657662" lon="13.25969802008184"><ele>707.5</ele><time>2026-04-18T09:04:37.999Z</time></trkpt><trkpt lat="42.716770936990876" lon="13.259539821983578"><ele>706.0</ele><time>2026-04-18T09:04:38.999Z</time></trkpt><trkpt lat="42.71653869974777" lon="13.259384582584673"><ele>706.0</ele><time>2026-04-18T09:04:39.999Z</time></trkpt><trkpt lat="42.71631030863127" lon="13.259231424323291"><ele>706.0</ele><time>2026-04-18T09:04:40.999Z</time></trkpt><trkpt lat="42.71608431276998" lon="13.25908127466923"><ele>704.5</ele><time>2026-04-18T09:04:41.999Z</time></trkpt><trkpt lat="42.71585663177483" lon="13.258930309161105"><ele>703.0</ele><time>2026-04-18T09:04:42.999Z</time></trkpt><trkpt lat="42.71563593760072" lon="13.258785771730587"><ele>703.0</ele><time>2026-04-18T09:04:43.999Z</time></trkpt><trkpt lat="42.71541462552975" lon="13.258645026112594"><ele>703.0</ele><time>2026-04-18T09:04:44.999Z</time></trkpt><trkpt lat="42.71519099766648" lon="13.25849440512973"><ele>702.0</ele><time>2026-04-18T09:04:45.999Z</time></trkpt><trkpt lat="42.71497656974811" lon="13.258332167129666"><ele>701.0</ele><time>2026-04-18T09:04:46.999Z</time></trkpt><trkpt lat="42.71474581261108" lon="13.258225727276347"><ele>701.5</ele><time>2026-04-18T09:04:47.999Z</time></trkpt><trkpt lat="42.71451414303923" lon="13.258117458548737"><ele>702.0</ele><time>2026-04-18T09:04:48.999Z</time></trkpt><trkpt lat="42.714295664633454" lon="13.258022604234606"><ele>703.0</ele><time>2026-04-18T09:04:49.999Z</time></trkpt><trkpt lat="42.71408851245066" lon="13.257939330423795"><ele>704.0</ele><time>2026-04-18T09:04:50.999Z</time></trkpt><trkpt lat="42.71388908306243" lon="13.257863242706314"><ele>705.0</ele><time>2026-04-18T09:04:51.999Z</time></trkpt><trkpt lat="42.71368712151463" lon="13.257789778886345"><ele>704.3333333333334</ele><time>2026-04-18T09:04:52.999Z</time></trkpt><trkpt lat="42.71348999891519" lon="13.25772284990599"><ele>703.6666666666667</ele><time>2026-04-18T09:04:53.999Z</time></trkpt><trkpt lat="42.713301681269314" lon="13.257663536486863"><ele>703.0</ele><time>2026-04-18T09:04:54.999Z</time></trkpt><trkpt lat="42.71311403579876" lon="13.257604788065155"><ele>703.0</ele><time>2026-04-18T09:04:55.999Z</time></trkpt><trkpt lat="42.71291925747833" lon="13.25755242321895"><ele>703.0</ele><time>2026-04-18T09:04:56.999Z</time></trkpt><trkpt lat="42.71272797624489" lon="13.25749798797355"><ele>703.0</ele><time>2026-04-18T09:04:57.999Z</time></trkpt><trkpt lat="42.71253652012579" lon="13.25744325020793"><ele>704.0</ele><time>2026-04-18T09:04:58.999Z</time></trkpt><trkpt lat="42.712342927792236" lon="13.257390208518249"><ele>705.0</ele><time>2026-04-18T09:04:59.999Z</time></trkpt><trkpt lat="42.71214398314955" lon="13.257334411937606"><ele>706.0</ele><time>2026-04-18T09:05:00.999Z</time></trkpt><trkpt lat="42.711944893723285" lon="13.257278151476722"><ele>705.3333333333334</ele><time>2026-04-18T09:05:01.999Z</time></trkpt><trkpt lat="42.71174137236707" lon="13.257214473808009"><ele>704.6666666666666</ele><time>2026-04-18T09:05:02.999Z</time></trkpt><trkpt lat="42.71153725314538" lon="13.257145118068854"><ele>704.0</ele><time>2026-04-18T09:05:03.999Z</time></trkpt><trkpt lat="42.71133238430936" lon="13.257063234674188"><ele>704.0</ele><time>2026-04-18T09:05:04.999Z</time></trkpt><trkpt lat="42.71112424960177" lon="13.256973898918387"><ele>704.0</ele><time>2026-04-18T09:05:05.999Z</time></trkpt><trkpt lat="42.710913483602425" lon="13.2568747603538"><ele>704.0</ele><time>2026-04-18T09:05:06.999Z</time></trkpt><trkpt lat="42.71070427081635" lon="13.256768014645406"><ele>704.0</ele><time>2026-04-18T09:05:07.999Z</time></trkpt><trkpt lat="42.71049354746863" lon="13.256650543775903"><ele>704.0</ele><time>2026-04-18T09:05:08.999Z</time></trkpt><trkpt lat="42.710283867269844" lon="13.25652559146919"><ele>708.5</ele><time>2026-04-18T09:05:09.999Z</time></trkpt><trkpt lat="42.71007511559126" lon="13.256395071865576"><ele>713.0</ele><time>2026-04-18T09:05:10.999Z</time></trkpt><trkpt lat="42.70987210510439" lon="13.256264264872303"><ele>713.0</ele><time>2026-04-18T09:05:11.999Z</time></trkpt><trkpt lat="42.70967328219888" lon="13.256141647926905"><ele>713.0</ele><time>2026-04-18T09:05:12.999Z</time></trkpt><trkpt lat="42.70946837951614" lon="13.256017571678996"><ele>713.0</ele><time>2026-04-18T09:05:13.999Z</time></trkpt><trkpt lat="42.709262028422444" lon="13.255899809617901"><ele>712.0</ele><time>2026-04-18T09:05:14.999Z</time></trkpt><trkpt lat="42.70906076694714" lon="13.255785473526204"><ele>711.0</ele><time>2026-04-18T09:05:15.999Z</time></trkpt><trkpt lat="42.7088553743947" lon="13.255678667560968"><ele>710.0</ele><time>2026-04-18T09:05:16.999Z</time></trkpt><trkpt lat="42.70865083882269" lon="13.255577793756077"><ele>713.3333333333333</ele><time>2026-04-18T09:05:17.999Z</time></trkpt><trkpt lat="42.70844131881062" lon="13.25548268241267"><ele>716.6666666666666</ele><time>2026-04-18T09:05:18.999Z</time></trkpt><trkpt lat="42.708237998445306" lon="13.255392048372375"><ele>720.0</ele><time>2026-04-18T09:05:19.999Z</time></trkpt><trkpt lat="42.7080312010781" lon="13.255296917537489"><ele>720.0</ele><time>2026-04-18T09:05:20.999Z</time></trkpt><trkpt lat="42.7078275025402" lon="13.255200414393382"><ele>720.0</ele><time>2026-04-18T09:05:21.999Z</time></trkpt><trkpt lat="42.707619895655185" lon="13.255105546720028"><ele>720.0</ele><time>2026-04-18T09:05:22.999Z</time></trkpt><trkpt lat="42.707414651807866" lon="13.25501246228027"><ele>718.3333333333334</ele><time>2026-04-18T09:05:23.999Z</time></trkpt><trkpt lat="42.707206471901664" lon="13.2549174899721"><ele>716.6666666666667</ele><time>2026-04-18T09:05:24.999Z</time></trkpt><trkpt lat="42.70700006255139" lon="13.25482181051828"><ele>715.0</ele><time>2026-04-18T09:05:25.999Z</time></trkpt><trkpt lat="42.70679143849664" lon="13.25472971262758"><ele>720.0</ele><time>2026-04-18T09:05:26.999Z</time></trkpt><trkpt lat="42.706582640085664" lon="13.25463883998254"><ele>725.0</ele><time>2026-04-18T09:05:27.999Z</time></trkpt><trkpt lat="42.70637582788688" lon="13.2545453982136"><ele>730.0</ele><time>2026-04-18T09:05:28.999Z</time></trkpt><trkpt lat="42.706167434040054" lon="13.254451685548057"><ele>728.0</ele><time>2026-04-18T09:05:29.999Z</time></trkpt><trkpt lat="42.705961675841486" lon="13.254360761929416"><ele>726.0</ele><time>2026-04-18T09:05:30.999Z</time></trkpt><trkpt lat="42.705752511995" lon="13.254274073730311"><ele>724.0</ele><time>2026-04-18T09:05:31.999Z</time></trkpt><trkpt lat="42.70554339699417" lon="13.254196673578043"><ele>724.0</ele><time>2026-04-18T09:05:32.999Z</time></trkpt><trkpt lat="42.70532854643859" lon="13.254139725102666"><ele>724.0</ele><time>2026-04-18T09:05:33.999Z</time></trkpt><trkpt lat="42.705097221066566" lon="13.254084895722627"><ele>723.6666666666667</ele><time>2026-04-18T09:05:34.999Z</time></trkpt><trkpt lat="42.704881960300156" lon="13.254027845273558"><ele>723.3333333333334</ele><time>2026-04-18T09:05:35.998Z</time></trkpt><trkpt lat="42.704663529768716" lon="13.253971804005433"><ele>723.0</ele><time>2026-04-18T09:05:36.998Z</time></trkpt><trkpt lat="42.70444033310769" lon="13.253919561947615"><ele>728.6666666666666</ele><time>2026-04-18T09:05:37.998Z</time></trkpt><trkpt lat="42.7042187268567" lon="13.253866800382344"><ele>734.3333333333333</ele><time>2026-04-18T09:05:38.998Z</time></trkpt><trkpt lat="42.70399771639317" lon="13.253813280544259"><ele>740.0</ele><time>2026-04-18T09:05:39.998Z</time></trkpt><trkpt lat="42.70377888841481" lon="13.25375698037162"><ele>739.0</ele><time>2026-04-18T09:05:40.998Z</time></trkpt><trkpt lat="42.70355661191643" lon="13.253699004611457"><ele>738.0</ele><time>2026-04-18T09:05:41.998Z</time></trkpt><trkpt lat="42.703339628361974" lon="13.253631459353457"><ele>737.0</ele><time>2026-04-18T09:05:42.998Z</time></trkpt><trkpt lat="42.70312495246037" lon="13.25355143484075"><ele>737.0</ele><time>2026-04-18T09:05:43.998Z</time></trkpt><trkpt lat="42.70291531345116" lon="13.253456462228556"><ele>737.0</ele><time>2026-04-18T09:05:44.998Z</time></trkpt><trkpt lat="42.70271087565415" lon="13.253352178773678"><ele>737.0</ele><time>2026-04-18T09:05:45.998Z</time></trkpt><trkpt lat="42.70250812670713" lon="13.253240615108387"><ele>734.0</ele><time>2026-04-18T09:05:46.998Z</time></trkpt><trkpt lat="42.70230822392975" lon="13.253125028359014"><ele>731.0</ele><time>2026-04-18T09:05:47.998Z</time></trkpt><trkpt lat="42.70211239682972" lon="13.25301118401922"><ele>728.0</ele><time>2026-04-18T09:05:48.998Z</time></trkpt><trkpt lat="42.70191790446199" lon="13.252893825011862"><ele>729.0</ele><time>2026-04-18T09:05:49.998Z</time></trkpt><trkpt lat="42.70172564224204" lon="13.252776969052618"><ele>730.0</ele><time>2026-04-18T09:05:50.998Z</time></trkpt><trkpt lat="42.70153318403124" lon="13.252659188615937"><ele>731.0</ele><time>2026-04-18T09:05:51.998Z</time></trkpt><trkpt lat="42.701343089698696" lon="13.252545057500233"><ele>731.0</ele><time>2026-04-18T09:05:52.998Z</time></trkpt><trkpt lat="42.70115248341978" lon="13.252436775149613"><ele>731.0</ele><time>2026-04-18T09:05:53.998Z</time></trkpt><trkpt lat="42.70096790651144" lon="13.252317189317589"><ele>731.0</ele><time>2026-04-18T09:05:54.998Z</time></trkpt><trkpt lat="42.70077044710541" lon="13.252221775132565"><ele>733.0</ele><time>2026-04-18T09:05:55.998Z</time></trkpt><trkpt lat="42.70056525915875" lon="13.252139411601823"><ele>735.0</ele><time>2026-04-18T09:05:57Z</time></trkpt><trkpt lat="42.700355269206966" lon="13.252070609579423"><ele>737.0</ele><time>2026-04-18T09:05:58Z</time></trkpt><trkpt lat="42.70014287270494" lon="13.25201611218701"><ele>733.0</ele><time>2026-04-18T09:05:59Z</time></trkpt><trkpt lat="42.699927753947655" lon="13.251975783738095"><ele>729.0</ele><time>2026-04-18T09:06:00Z</time></trkpt><trkpt lat="42.6997088787886" lon="13.251972244124103"><ele>725.0</ele><time>2026-04-18T09:06:01Z</time></trkpt><trkpt lat="42.699491545021196" lon="13.251961522670356"><ele>722.6666666666666</ele><time>2026-04-18T09:06:02Z</time></trkpt><trkpt lat="42.699273458405045" lon="13.251977042378194"><ele>720.3333333333334</ele><time>2026-04-18T09:06:03Z</time></trkpt><trkpt lat="42.69905539009518" lon="13.252016196934251"><ele>718.0</ele><time>2026-04-18T09:06:04Z</time></trkpt><trkpt lat="42.69883348396031" lon="13.252049092767265"><ele>718.0</ele><time>2026-04-18T09:06:05Z</time></trkpt><trkpt lat="42.69861217783438" lon="13.252144900631055"><ele>718.0</ele><time>2026-04-18T09:06:06Z</time></trkpt><trkpt lat="42.69838581485031" lon="13.252227226987266"><ele>718.0</ele><time>2026-04-18T09:06:07Z</time></trkpt><trkpt lat="42.69821007943516" lon="13.25229248614401"><ele>718.0</ele><time>2026-04-18T09:06:08Z</time></trkpt><trkpt lat="42.69800672454217" lon="13.252410003754207"><ele>718.0</ele><time>2026-04-18T09:06:09Z</time></trkpt><trkpt lat="42.697808422625855" lon="13.252541256391405"><ele>719.0</ele><time>2026-04-18T09:06:10Z</time></trkpt><trkpt lat="42.69761905424153" lon="13.252689366955893"><ele>720.0</ele><time>2026-04-18T09:06:11Z</time></trkpt><trkpt lat="42.69743709457559" lon="13.252855336227668"><ele>721.0</ele><time>2026-04-18T09:06:12Z</time></trkpt><trkpt lat="42.69726596868825" lon="13.25303401022751"><ele>724.0</ele><time>2026-04-18T09:06:13Z</time></trkpt><trkpt lat="42.6971083119082" lon="13.25321753852827"><ele>727.0</ele><time>2026-04-18T09:06:14Z</time></trkpt><trkpt lat="42.69695604363702" lon="13.253404036840578"><ele>730.0</ele><time>2026-04-18T09:06:15Z</time></trkpt><trkpt lat="42.696811630270304" lon="13.253601675740398"><ele>730.0</ele><time>2026-04-18T09:06:16Z</time></trkpt><trkpt lat="42.69668008470066" lon="13.253816144651548"><ele>730.0</ele><time>2026-04-18T09:06:17Z</time></trkpt><trkpt lat="42.69656288318054" lon="13.254042605092021"><ele>730.0</ele><time>2026-04-18T09:06:18Z</time></trkpt><trkpt lat="42.69645379616816" lon="13.254274451035636"><ele>733.6666666666667</ele><time>2026-04-18T09:06:19Z</time></trkpt><trkpt lat="42.69634537857011" lon="13.254504654276863"><ele>737.3333333333334</ele><time>2026-04-18T09:06:20Z</time></trkpt><trkpt lat="42.696236563698406" lon="13.254732661823658"><ele>741.0</ele><time>2026-04-18T09:06:21Z</time></trkpt><trkpt lat="42.69612573148553" lon="13.254959653284034"><ele>739.3333333333334</ele><time>2026-04-18T09:06:22Z</time></trkpt><trkpt lat="42.69601745823968" lon="13.255188209132333"><ele>737.6666666666667</ele><time>2026-04-18T09:06:23Z</time></trkpt><trkpt lat="42.69590561279347" lon="13.255416489896099"><ele>736.0</ele><time>2026-04-18T09:06:24Z</time></trkpt><trkpt lat="42.69579018812293" lon="13.25564936295828"><ele>740.0</ele><time>2026-04-18T09:06:25Z</time></trkpt><trkpt lat="42.69567635938155" lon="13.25588499012275"><ele>744.0</ele><time>2026-04-18T09:06:26Z</time></trkpt><trkpt lat="42.695562858433725" lon="13.25612343667965"><ele>748.0</ele><time>2026-04-18T09:06:27Z</time></trkpt><trkpt lat="42.69545001249308" lon="13.256370682029596"><ele>748.3333333333334</ele><time>2026-04-18T09:06:28Z</time></trkpt><trkpt lat="42.6953372891029" lon="13.256609372295546"><ele>748.6666666666666</ele><time>2026-04-18T09:06:29Z</time></trkpt><trkpt lat="42.69521472085115" lon="13.256839627575907"><ele>749.0</ele><time>2026-04-18T09:06:30Z</time></trkpt><trkpt lat="42.69509784289333" lon="13.257068459416988"><ele>750.0</ele><time>2026-04-18T09:06:31Z</time></trkpt><trkpt lat="42.69497554869084" lon="13.257299022462938"><ele>751.0</ele><time>2026-04-18T09:06:32Z</time></trkpt><trkpt lat="42.69485894495761" lon="13.257542033694872"><ele>752.0</ele><time>2026-04-18T09:06:33Z</time></trkpt><trkpt lat="42.69475377929899" lon="13.257774056892135"><ele>752.0</ele><time>2026-04-18T09:06:34Z</time></trkpt><trkpt lat="42.69463831398825" lon="13.258010620800933"><ele>752.0</ele><time>2026-04-18T09:06:35Z</time></trkpt><trkpt lat="42.69451838854698" lon="13.25823393825189"><ele>752.0</ele><time>2026-04-18T09:06:36Z</time></trkpt><trkpt lat="42.69440378623912" lon="13.258462790971093"><ele>747.6666666666666</ele><time>2026-04-18T09:06:36.999Z</time></trkpt><trkpt lat="42.69428591873601" lon="13.258696996128068"><ele>743.3333333333334</ele><time>2026-04-18T09:06:37.999Z</time></trkpt><trkpt lat="42.69417155439626" lon="13.258933766579181"><ele>739.0</ele><time>2026-04-18T09:06:38.999Z</time></trkpt><trkpt lat="42.69406072533935" lon="13.2591551342873"><ele>738.6666666666667</ele><time>2026-04-18T09:06:39.999Z</time></trkpt><trkpt lat="42.69394570616684" lon="13.259381308263755"><ele>738.3333333333334</ele><time>2026-04-18T09:06:40.999Z</time></trkpt><trkpt lat="42.693833763784845" lon="13.259608861519725"><ele>738.0</ele><time>2026-04-18T09:06:41.999Z</time></trkpt><trkpt lat="42.69372027887811" lon="13.259837644362147"><ele>737.6666666666666</ele><time>2026-04-18T09:06:42.999Z</time></trkpt><trkpt lat="42.69360527787657" lon="13.260067653243233"><ele>737.3333333333333</ele><time>2026-04-18T09:06:43.999Z</time></trkpt><trkpt lat="42.69349364173975" lon="13.260293864574688"><ele>737.0</ele><time>2026-04-18T09:06:44.999Z</time></trkpt><trkpt lat="42.69338133798389" lon="13.260526005471322"><ele>737.3333333333333</ele><time>2026-04-18T09:06:45.999Z</time></trkpt><trkpt lat="42.69326441410255" lon="13.26075958228453"><ele>737.6666666666666</ele><time>2026-04-18T09:06:46.999Z</time></trkpt><trkpt lat="42.69314690552226" lon="13.260993025229943"><ele>738.0</ele><time>2026-04-18T09:06:47.999Z</time></trkpt><trkpt lat="42.693029357456595" lon="13.261229250727544"><ele>738.3333333333334</ele><time>2026-04-18T09:06:48.999Z</time></trkpt><trkpt lat="42.69290790882077" lon="13.261465038974476"><ele>738.6666666666667</ele><time>2026-04-18T09:06:49.999Z</time></trkpt><trkpt lat="42.69277809696707" lon="13.261697301911285"><ele>739.0</ele><time>2026-04-18T09:06:50.999Z</time></trkpt><trkpt lat="42.6926443405045" lon="13.261921963933476"><ele>739.0</ele><time>2026-04-18T09:06:51.999Z</time></trkpt><trkpt lat="42.692505230612355" lon="13.262141694047699"><ele>739.0</ele><time>2026-04-18T09:06:52.999Z</time></trkpt><trkpt lat="42.6923572417776" lon="13.262349262443578"><ele>739.0</ele><time>2026-04-18T09:06:53.999Z</time></trkpt><trkpt lat="42.69220180659693" lon="13.262550234635189"><ele>739.6666666666667</ele><time>2026-04-18T09:06:54.999Z</time></trkpt><trkpt lat="42.692036002775986" lon="13.26273293332453"><ele>740.3333333333334</ele><time>2026-04-18T09:06:55.999Z</time></trkpt><trkpt lat="42.691865107111056" lon="13.262903857233757"><ele>741.0</ele><time>2026-04-18T09:06:56.999Z</time></trkpt><trkpt lat="42.691687561715064" lon="13.26306735026158"><ele>741.6666666666666</ele><time>2026-04-18T09:06:57.999Z</time></trkpt><trkpt lat="42.69150372507354" lon="13.26321649320167"><ele>742.3333333333333</ele><time>2026-04-18T09:06:58.999Z</time></trkpt><trkpt lat="42.69130994178309" lon="13.26334257461599"><ele>743.0</ele><time>2026-04-18T09:06:59.999Z</time></trkpt><trkpt lat="42.6911066924853" lon="13.263443024109609"><ele>741.3333333333333</ele><time>2026-04-18T09:07:00.999Z</time></trkpt><trkpt lat="42.69090118827903" lon="13.26352162094581"><ele>739.6666666666666</ele><time>2026-04-18T09:07:01.999Z</time></trkpt><trkpt lat="42.69069397983542" lon="13.263621910605186"><ele>738.0</ele><time>2026-04-18T09:07:02.999Z</time></trkpt><trkpt lat="42.690484055025394" lon="13.263690475762393"><ele>738.0</ele><time>2026-04-18T09:07:03.999Z</time></trkpt><trkpt lat="42.69027302153007" lon="13.263748169396054"><ele>738.0</ele><time>2026-04-18T09:07:04.999Z</time></trkpt><trkpt lat="42.69006366896083" lon="13.263817772092917"><ele>738.0</ele><time>2026-04-18T09:07:05.999Z</time></trkpt><trkpt lat="42.68985101767892" lon="13.26388638546767"><ele>738.0</ele><time>2026-04-18T09:07:06.999Z</time></trkpt><trkpt lat="42.68963763564668" lon="13.263951027784707"><ele>738.0</ele><time>2026-04-18T09:07:07.999Z</time></trkpt><trkpt lat="42.6894275639737" lon="13.264022564540834"><ele>738.0</ele><time>2026-04-18T09:07:08.999Z</time></trkpt><trkpt lat="42.689211206247265" lon="13.264094746660593"><ele>742.0</ele><time>2026-04-18T09:07:09.999Z</time></trkpt><trkpt lat="42.68899934048761" lon="13.264158961317323"><ele>746.0</ele><time>2026-04-18T09:07:10.999Z</time></trkpt><trkpt lat="42.68878359234363" lon="13.264216423910154"><ele>750.0</ele><time>2026-04-18T09:07:11.999Z</time></trkpt><trkpt lat="42.688567537487764" lon="13.26427700505711"><ele>754.0</ele><time>2026-04-18T09:07:12.999Z</time></trkpt><trkpt lat="42.68834535903133" lon="13.264336083621915"><ele>758.0</ele><time>2026-04-18T09:07:13.999Z</time></trkpt><trkpt lat="42.688131568439914" lon="13.264408980049787"><ele>762.0</ele><time>2026-04-18T09:07:14.999Z</time></trkpt><trkpt lat="42.68791700615703" lon="13.264485111152869"><ele>764.6666666666667</ele><time>2026-04-18T09:07:15.999Z</time></trkpt><trkpt lat="42.68770844364722" lon="13.264569705666167"><ele>767.3333333333334</ele><time>2026-04-18T09:07:16.999Z</time></trkpt><trkpt lat="42.68750516088195" lon="13.26467161751998"><ele>770.0</ele><time>2026-04-18T09:07:17.999Z</time></trkpt><trkpt lat="42.68730914823866" lon="13.26478897561235"><ele>764.6666666666667</ele><time>2026-04-18T09:07:18.999Z</time></trkpt><trkpt lat="42.6871235885329" lon="13.264928581085105"><ele>759.3333333333334</ele><time>2026-04-18T09:07:19.999Z</time></trkpt><trkpt lat="42.68694782231687" lon="13.26509093806825"><ele>754.0</ele><time>2026-04-18T09:07:20.999Z</time></trkpt><trkpt lat="42.686785038181775" lon="13.26527254931465"><ele>754.0</ele><time>2026-04-18T09:07:21.999Z</time></trkpt><trkpt lat="42.68661784817493" lon="13.265448142599913"><ele>754.0</ele><time>2026-04-18T09:07:22.999Z</time></trkpt><trkpt lat="42.686458263012305" lon="13.265631322584305"><ele>754.0</ele><time>2026-04-18T09:07:23.999Z</time></trkpt><trkpt lat="42.68630350329665" lon="13.265816508054506"><ele>752.6666666666667</ele><time>2026-04-18T09:07:24.999Z</time></trkpt><trkpt lat="42.686141344612416" lon="13.265994299214993"><ele>751.3333333333334</ele><time>2026-04-18T09:07:25.999Z</time></trkpt><trkpt lat="42.68597823540178" lon="13.26616751891758"><ele>750.0</ele><time>2026-04-18T09:07:26.999Z</time></trkpt><trkpt lat="42.685814193585955" lon="13.26634553096824"><ele>753.6666666666666</ele><time>2026-04-18T09:07:27.999Z</time></trkpt><trkpt lat="42.685654804334824" lon="13.266530114812108"><ele>757.3333333333333</ele><time>2026-04-18T09:07:28.999Z</time></trkpt><trkpt lat="42.68549526883225" lon="13.266717235872767"><ele>761.0</ele><time>2026-04-18T09:07:29.999Z</time></trkpt><trkpt lat="42.68533474608465" lon="13.266900862498607"><ele>760.6666666666666</ele><time>2026-04-18T09:07:30.999Z</time></trkpt><trkpt lat="42.68516990538899" lon="13.267070231909903"><ele>760.3333333333334</ele><time>2026-04-18T09:07:31.999Z</time></trkpt><trkpt lat="42.68500016560201" lon="13.267240300567899"><ele>760.0</ele><time>2026-04-18T09:07:32.999Z</time></trkpt><trkpt lat="42.68481938344502" lon="13.267397171267692"><ele>760.0</ele><time>2026-04-18T09:07:33.999Z</time></trkpt><trkpt lat="42.684630689669454" lon="13.267533755697677"><ele>760.0</ele><time>2026-04-18T09:07:34.999Z</time></trkpt><trkpt lat="42.6844339692817" lon="13.267645523540084"><ele>760.0</ele><time>2026-04-18T09:07:35.999Z</time></trkpt><trkpt lat="42.68423729334966" lon="13.267761489963867"><ele>756.6666666666667</ele><time>2026-04-18T09:07:36.999Z</time></trkpt><trkpt lat="42.684032261842255" lon="13.267842281284231"><ele>753.3333333333334</ele><time>2026-04-18T09:07:37.999Z</time></trkpt><trkpt lat="42.68382169894673" lon="13.267897447320276"><ele>750.0</ele><time>2026-04-18T09:07:38.999Z</time></trkpt><trkpt lat="42.68361888665977" lon="13.267933436334916"><ele>750.3333333333334</ele><time>2026-04-18T09:07:39.999Z</time></trkpt><trkpt lat="42.68339772850615" lon="13.267957525171383"><ele>750.6666666666667</ele><time>2026-04-18T09:07:40.999Z</time></trkpt><trkpt lat="42.683192993807275" lon="13.267963533791141"><ele>751.0</ele><time>2026-04-18T09:07:41.999Z</time></trkpt><trkpt lat="42.68297688519122" lon="13.267944431351543"><ele>751.0</ele><time>2026-04-18T09:07:42.999Z</time></trkpt><trkpt lat="42.68276980352138" lon="13.26791575969026"><ele>751.0</ele><time>2026-04-18T09:07:43.999Z</time></trkpt><trkpt lat="42.682554223561866" lon="13.267871163234926"><ele>751.0</ele><time>2026-04-18T09:07:44.999Z</time></trkpt><trkpt lat="42.68234614716673" lon="13.267828284110115"><ele>752.3333333333334</ele><time>2026-04-18T09:07:45.999Z</time></trkpt><trkpt lat="42.682153703048826" lon="13.267865236400127"><ele>753.6666666666666</ele><time>2026-04-18T09:07:46.999Z</time></trkpt><trkpt lat="42.68196101687546" lon="13.267844919864563"><ele>755.0</ele><time>2026-04-18T09:07:47.999Z</time></trkpt><trkpt lat="42.68175613648921" lon="13.267838581974774"><ele>756.0</ele><time>2026-04-18T09:07:48.999Z</time></trkpt><trkpt lat="42.68154576026212" lon="13.267852989696099"><ele>757.0</ele><time>2026-04-18T09:07:49.999Z</time></trkpt><trkpt lat="42.68132115934707" lon="13.267845098110298"><ele>758.0</ele><time>2026-04-18T09:07:50.999Z</time></trkpt><trkpt lat="42.6811181514158" lon="13.267898788713557"><ele>757.6666666666666</ele><time>2026-04-18T09:07:51.999Z</time></trkpt><trkpt lat="42.68094457140121" lon="13.26805230283307"><ele>757.3333333333334</ele><time>2026-04-18T09:07:52.999Z</time></trkpt><trkpt lat="42.68078529370877" lon="13.268155758798189"><ele>757.0</ele><time>2026-04-18T09:07:53.999Z</time></trkpt><trkpt lat="42.680614352479544" lon="13.268241732788235"><ele>757.5</ele><time>2026-04-18T09:07:54.999Z</time></trkpt><trkpt lat="42.680422669809516" lon="13.268344848791697"><ele>758.0</ele><time>2026-04-18T09:07:55.999Z</time></trkpt><trkpt lat="42.68019297791954" lon="13.268485711702445"><ele>758.0</ele><time>2026-04-18T09:07:56.999Z</time></trkpt><trkpt lat="42.67998737517835" lon="13.268558106109614"><ele>758.0</ele><time>2026-04-18T09:07:57.999Z</time></trkpt><trkpt lat="42.67980622311792" lon="13.268674145122425"><ele>758.0</ele><time>2026-04-18T09:07:58.999Z</time></trkpt><trkpt lat="42.67961678750895" lon="13.268749324382435"><ele>757.3333333333333</ele><time>2026-04-18T09:07:59.999Z</time></trkpt><trkpt lat="42.67941315899196" lon="13.268792347299582"><ele>756.6666666666666</ele><time>2026-04-18T09:08:00.999Z</time></trkpt><trkpt lat="42.679207513024366" lon="13.268808444025064"><ele>756.0</ele><time>2026-04-18T09:08:01.999Z</time></trkpt><trkpt lat="42.679005412738164" lon="13.268803437093762"><ele>756.0</ele><time>2026-04-18T09:08:03Z</time></trkpt><trkpt lat="42.67880072362343" lon="13.26878636630165"><ele>756.0</ele><time>2026-04-18T09:08:04Z</time></trkpt><trkpt lat="42.678595049978675" lon="13.268746791375081"><ele>756.0</ele><time>2026-04-18T09:08:05Z</time></trkpt><trkpt lat="42.67839630844385" lon="13.268683659719326"><ele>757.0</ele><time>2026-04-18T09:08:06Z</time></trkpt><trkpt lat="42.67820346159037" lon="13.268603762613983"><ele>758.0</ele><time>2026-04-18T09:08:07Z</time></trkpt><trkpt lat="42.678012122629134" lon="13.2685196108164"><ele>759.0</ele><time>2026-04-18T09:08:08Z</time></trkpt><trkpt lat="42.67782357501884" lon="13.26842749764529"><ele>760.3333333333334</ele><time>2026-04-18T09:08:09Z</time></trkpt><trkpt lat="42.67763043293034" lon="13.268337611982485"><ele>761.6666666666667</ele><time>2026-04-18T09:08:10Z</time></trkpt><trkpt lat="42.67743791975074" lon="13.268244413986555"><ele>763.0</ele><time>2026-04-18T09:08:11Z</time></trkpt><trkpt lat="42.67724198156253" lon="13.268147968965895"><ele>762.3333333333334</ele><time>2026-04-18T09:08:12Z</time></trkpt><trkpt lat="42.67703920464724" lon="13.268053260888884"><ele>761.6666666666666</ele><time>2026-04-18T09:08:13Z</time></trkpt><trkpt lat="42.676836747146346" lon="13.267950570681027"><ele>761.0</ele><time>2026-04-18T09:08:14Z</time></trkpt><trkpt lat="42.676633248806034" lon="13.267853067027763"><ele>761.0</ele><time>2026-04-18T09:08:15Z</time></trkpt><trkpt lat="42.67643186856398" lon="13.267755834659257"><ele>761.0</ele><time>2026-04-18T09:08:16Z</time></trkpt><trkpt lat="42.67623205625297" lon="13.267652748910715"><ele>761.0</ele><time>2026-04-18T09:08:17Z</time></trkpt><trkpt lat="42.67603332708385" lon="13.267549201941984"><ele>759.6666666666666</ele><time>2026-04-18T09:08:18Z</time></trkpt><trkpt lat="42.675833416411244" lon="13.267449993676118"><ele>758.3333333333334</ele><time>2026-04-18T09:08:19Z</time></trkpt><trkpt lat="42.67563685772398" lon="13.267355636796987"><ele>757.0</ele><time>2026-04-18T09:08:20Z</time></trkpt><trkpt lat="42.67543873399966" lon="13.267264699045343"><ele>759.6666666666667</ele><time>2026-04-18T09:08:21Z</time></trkpt><trkpt lat="42.675244618682704" lon="13.267173986304641"><ele>762.3333333333334</ele><time>2026-04-18T09:08:22Z</time></trkpt><trkpt lat="42.67505117241201" lon="13.267078373357267"><ele>765.0</ele><time>2026-04-18T09:08:23Z</time></trkpt><trkpt lat="42.67486124082073" lon="13.266981275009366"><ele>765.0</ele><time>2026-04-18T09:08:24Z</time></trkpt><trkpt lat="42.67467321260373" lon="13.266885154753329"><ele>765.0</ele><time>2026-04-18T09:08:25Z</time></trkpt><trkpt lat="42.67448172144558" lon="13.266785789574946"><ele>765.0</ele><time>2026-04-18T09:08:25.999Z</time></trkpt><trkpt lat="42.67429562878266" lon="13.266691801882356"><ele>764.3333333333334</ele><time>2026-04-18T09:08:26.999Z</time></trkpt><trkpt lat="42.67411167172466" lon="13.266600968532607"><ele>763.6666666666667</ele><time>2026-04-18T09:08:27.999Z</time></trkpt><trkpt lat="42.673923880173625" lon="13.266508819262233"><ele>763.0</ele><time>2026-04-18T09:08:28.999Z</time></trkpt><trkpt lat="42.67373909062992" lon="13.26641942255417"><ele>763.6666666666667</ele><time>2026-04-18T09:08:29.999Z</time></trkpt><trkpt lat="42.673552002515095" lon="13.266330653056624"><ele>764.3333333333334</ele><time>2026-04-18T09:08:30.999Z</time></trkpt><trkpt lat="42.6733671337937" lon="13.266244127914266"><ele>765.0</ele><time>2026-04-18T09:08:31.999Z</time></trkpt><trkpt lat="42.673190101352695" lon="13.266161328569519"><ele>765.0</ele><time>2026-04-18T09:08:32.999Z</time></trkpt><trkpt lat="42.67302139156977" lon="13.266077219324796"><ele>765.0</ele><time>2026-04-18T09:08:33.999Z</time></trkpt><trkpt lat="42.672862670876874" lon="13.26599489682511"><ele>765.0</ele><time>2026-04-18T09:08:34.999Z</time></trkpt><trkpt lat="42.6727159143393" lon="13.265907509591502"><ele>764.25</ele><time>2026-04-18T09:08:35.999Z</time></trkpt><trkpt lat="42.67258660669619" lon="13.265816104739859"><ele>763.5</ele><time>2026-04-18T09:08:36.999Z</time></trkpt><trkpt lat="42.672459931303244" lon="13.265728980720581"><ele>762.75</ele><time>2026-04-18T09:08:37.999Z</time></trkpt><trkpt lat="42.67233168761555" lon="13.26564862842138"><ele>762.0</ele><time>2026-04-18T09:08:38.999Z</time></trkpt><trkpt lat="42.67219883742688" lon="13.265564868674852"><ele>762.0</ele><time>2026-04-18T09:08:39.999Z</time></trkpt><trkpt lat="42.67206760060232" lon="13.265470276689992"><ele>762.0</ele><time>2026-04-18T09:08:40.999Z</time></trkpt><trkpt lat="42.67194310525793" lon="13.265357558121536"><ele>762.0</ele><time>2026-04-18T09:08:41.999Z</time></trkpt><trkpt lat="42.671823646588116" lon="13.265241219898543"><ele>762.0</ele><time>2026-04-18T09:08:42.999Z</time></trkpt><trkpt lat="42.67169993742488" lon="13.265135725264638"><ele>763.25</ele><time>2026-04-18T09:08:43.999Z</time></trkpt><trkpt lat="42.67156621036054" lon="13.265059107395807"><ele>764.5</ele><time>2026-04-18T09:08:44.999Z</time></trkpt><trkpt lat="42.671420936669485" lon="13.264994745179557"><ele>765.75</ele><time>2026-04-18T09:08:45.999Z</time></trkpt><trkpt lat="42.67128074477475" lon="13.264938778687686"><ele>767.0</ele><time>2026-04-18T09:08:46.999Z</time></trkpt><trkpt lat="42.67116606042015" lon="13.264857521663993"><ele>766.75</ele><time>2026-04-18T09:08:47.999Z</time></trkpt><trkpt lat="42.67108276154936" lon="13.26476009337497"><ele>766.5</ele><time>2026-04-18T09:08:48.999Z</time></trkpt><trkpt lat="42.67100893725325" lon="13.264740745697"><ele>766.25</ele><time>2026-04-18T09:08:49.999Z</time></trkpt><trkpt lat="42.67099321005675" lon="13.264483563699052"><ele>766.0</ele><time>2026-04-18T09:08:51.999Z</time></trkpt><trkpt lat="42.67101208243981" lon="13.264353865681997"><ele>766.0</ele><time>2026-04-18T09:08:52.999Z</time></trkpt><trkpt lat="42.67102736263239" lon="13.264209972622053"><ele>766.0</ele><time>2026-04-18T09:08:53.999Z</time></trkpt><trkpt lat="42.67103050349579" lon="13.264053172573558"><ele>766.0</ele><time>2026-04-18T09:08:54.999Z</time></trkpt><trkpt lat="42.67100961833115" lon="13.263883568232401"><ele>766.0</ele><time>2026-04-18T09:08:55.999Z</time></trkpt><trkpt lat="42.67098157393173" lon="13.2637087799245"><ele>766.0</ele><time>2026-04-18T09:08:56.998Z</time></trkpt><trkpt lat="42.670960234889115" lon="13.26353392947704"><ele>766.0</ele><time>2026-04-18T09:08:57.998Z</time></trkpt><trkpt lat="42.67094358369447" lon="13.263360748753756"><ele>766.0</ele><time>2026-04-18T09:08:58.998Z</time></trkpt><trkpt lat="42.67092554043055" lon="13.263189318027788"><ele>766.0</ele><time>2026-04-18T09:08:59.998Z</time></trkpt><trkpt lat="42.67090589171057" lon="13.26302042700339"><ele>768.0</ele><time>2026-04-18T09:09:00.998Z</time></trkpt><trkpt lat="42.670887941252026" lon="13.26286769247294"><ele>770.0</ele><time>2026-04-18T09:09:01.998Z</time></trkpt><trkpt lat="42.670872464444" lon="13.262720752904794"><ele>772.0</ele><time>2026-04-18T09:09:02.998Z</time></trkpt><trkpt lat="42.67086055760547" lon="13.262591804619992"><ele>774.0</ele><time>2026-04-18T09:09:03.998Z</time></trkpt><trkpt lat="42.6708526068744" lon="13.26248356027203"><ele>776.0</ele><time>2026-04-18T09:09:04.998Z</time></trkpt><trkpt lat="42.67083884931328" lon="13.26239550508642"><ele>776.0</ele><time>2026-04-18T09:09:05.998Z</time></trkpt><trkpt lat="42.670786424048295" lon="13.262282989235539"><ele>776.0</ele><time>2026-04-18T09:09:07.998Z</time></trkpt><trkpt lat="42.67069769561209" lon="13.262236191230562"><ele>776.0</ele><time>2026-04-18T09:09:09.998Z</time></trkpt><trkpt lat="42.670575360235844" lon="13.262217083527805"><ele>776.0</ele><time>2026-04-18T09:09:11.998Z</time></trkpt><trkpt lat="42.6705049603609" lon="13.26222646640499"><ele>776.0</ele><time>2026-04-18T09:09:12.998Z</time></trkpt><trkpt lat="42.67043392328229" lon="13.262209507066583"><ele>776.8333333333334</ele><time>2026-04-18T09:09:13.998Z</time></trkpt><trkpt lat="42.67035996742571" lon="13.26220566654233"><ele>777.6666666666667</ele><time>2026-04-18T09:09:14.998Z</time></trkpt><trkpt lat="42.670287986005405" lon="13.262225387851476"><ele>778.5</ele><time>2026-04-18T09:09:15.998Z</time></trkpt><trkpt lat="42.67022390435175" lon="13.262262931028726"><ele>779.3333333333333</ele><time>2026-04-18T09:09:16.998Z</time></trkpt><trkpt lat="42.67015939060699" lon="13.262316225872434"><ele>780.1666666666666</ele><time>2026-04-18T09:09:17.998Z</time></trkpt><trkpt lat="42.670095274274686" lon="13.262381239810178"><ele>781.0</ele><time>2026-04-18T09:09:18.998Z</time></trkpt><trkpt lat="42.670030562899456" lon="13.262444772777478"><ele>781.0</ele><time>2026-04-18T09:09:19.998Z</time></trkpt><trkpt lat="42.66996891996995" lon="13.262500651135262"><ele>781.0</ele><time>2026-04-18T09:09:20.998Z</time></trkpt><trkpt lat="42.66991684691085" lon="13.262557381599258"><ele>781.0</ele><time>2026-04-18T09:09:21.998Z</time></trkpt><trkpt lat="42.66986676133993" lon="13.262626616818354"><ele>781.0</ele><time>2026-04-18T09:09:22.998Z</time></trkpt><trkpt lat="42.66981975937302" lon="13.262701121905609"><ele>781.0</ele><time>2026-04-18T09:09:23.998Z</time></trkpt><trkpt lat="42.669773812582406" lon="13.262775665066725"><ele>781.0</ele><time>2026-04-18T09:09:24.998Z</time></trkpt><trkpt lat="42.66972742639369" lon="13.262849277005289"><ele>781.0</ele><time>2026-04-18T09:09:25.998Z</time></trkpt><trkpt lat="42.669679363436" lon="13.262922984922032"><ele>780.9999999999999</ele><time>2026-04-18T09:09:26.998Z</time></trkpt><trkpt lat="42.669632794622736" lon="13.263001284706732"><ele>781.0</ele><time>2026-04-18T09:09:27.998Z</time></trkpt><trkpt lat="42.669588433311716" lon="13.263082959624814"><ele>781.0</ele><time>2026-04-18T09:09:28.998Z</time></trkpt><trkpt lat="42.669541073918616" lon="13.263159513684094"><ele>781.0</ele><time>2026-04-18T09:09:29.998Z</time></trkpt><trkpt lat="42.6694851573457" lon="13.26322261220143"><ele>780.9999999999999</ele><time>2026-04-18T09:09:30.998Z</time></trkpt><trkpt lat="42.669420350978456" lon="13.263282040852996"><ele>781.0</ele><time>2026-04-18T09:09:31.998Z</time></trkpt><trkpt lat="42.66934891788929" lon="13.2633286515322"><ele>780.9999999999999</ele><time>2026-04-18T09:09:32.998Z</time></trkpt><trkpt lat="42.66927395033476" lon="13.26335896822891"><ele>781.0</ele><time>2026-04-18T09:09:33.998Z</time></trkpt><trkpt lat="42.66919360394311" lon="13.263376880107021"><ele>781.0</ele><time>2026-04-18T09:09:34.998Z</time></trkpt><trkpt lat="42.6691122622343" lon="13.263378518581774"><ele>781.0</ele><time>2026-04-18T09:09:35.998Z</time></trkpt><trkpt lat="42.66902807782552" lon="13.263374841301308"><ele>780.9999999999999</ele><time>2026-04-18T09:09:36.998Z</time></trkpt><trkpt lat="42.66894000915521" lon="13.263366845772893"><ele>781.0</ele><time>2026-04-18T09:09:37.998Z</time></trkpt><trkpt lat="42.6688481298147" lon="13.263361713699041"><ele>781.0</ele><time>2026-04-18T09:09:38.998Z</time></trkpt><trkpt lat="42.66875200975323" lon="13.263364601550713"><ele>781.0</ele><time>2026-04-18T09:09:39.998Z</time></trkpt><trkpt lat="42.66865674159742" lon="13.263333597007652"><ele>781.0</ele><time>2026-04-18T09:09:40.998Z</time></trkpt><trkpt lat="42.66855813233782" lon="13.26332633715877"><ele>781.0</ele><time>2026-04-18T09:09:41.998Z</time></trkpt><trkpt lat="42.66845989504192" lon="13.263327730307005"><ele>781.0</ele><time>2026-04-18T09:09:42.998Z</time></trkpt><trkpt lat="42.668360711402364" lon="13.263318503057002"><ele>782.5999999999999</ele><time>2026-04-18T09:09:43.998Z</time></trkpt><trkpt lat="42.66825895990954" lon="13.263311527519015"><ele>784.2</ele><time>2026-04-18T09:09:44.998Z</time></trkpt><trkpt lat="42.66815537190822" lon="13.263307425811284"><ele>785.8</ele><time>2026-04-18T09:09:45.998Z</time></trkpt><trkpt lat="42.66805142922766" lon="13.263313855863467"><ele>787.4000000000001</ele><time>2026-04-18T09:09:46.998Z</time></trkpt><trkpt lat="42.667948581681216" lon="13.26331133112919"><ele>789.0</ele><time>2026-04-18T09:09:47.998Z</time></trkpt><trkpt lat="42.667843624078316" lon="13.263310510609978"><ele>788.0</ele><time>2026-04-18T09:09:48.998Z</time></trkpt><trkpt lat="42.66773744635263" lon="13.263301479056798"><ele>787.0</ele><time>2026-04-18T09:09:49.998Z</time></trkpt><trkpt lat="42.667631661221016" lon="13.26328945584013"><ele>786.0</ele><time>2026-04-18T09:09:50.998Z</time></trkpt><trkpt lat="42.66752355041019" lon="13.26327230768779"><ele>785.0</ele><time>2026-04-18T09:09:51.998Z</time></trkpt><trkpt lat="42.6674166413817" lon="13.263253451303447"><ele>784.0</ele><time>2026-04-18T09:09:52.998Z</time></trkpt><trkpt lat="42.66730802820608" lon="13.263234597533598"><ele>784.0</ele><time>2026-04-18T09:09:53.998Z</time></trkpt><trkpt lat="42.667197294689856" lon="13.263213419692024"><ele>784.0</ele><time>2026-04-18T09:09:54.998Z</time></trkpt><trkpt lat="42.66708463770572" lon="13.263194965991717"><ele>784.0</ele><time>2026-04-18T09:09:55.998Z</time></trkpt><trkpt lat="42.666971300635225" lon="13.263177322252712"><ele>784.0</ele><time>2026-04-18T09:09:56.998Z</time></trkpt><trkpt lat="42.66686007069015" lon="13.263160339920574"><ele>784.6</ele><time>2026-04-18T09:09:57.998Z</time></trkpt><trkpt lat="42.666752075109265" lon="13.263168345615387"><ele>785.2</ele><time>2026-04-18T09:09:58.998Z</time></trkpt><trkpt lat="42.66664413752047" lon="13.263177348609963"><ele>785.8000000000001</ele><time>2026-04-18T09:09:59.998Z</time></trkpt><trkpt lat="42.66653513663428" lon="13.26319407824328"><ele>786.4000000000001</ele><time>2026-04-18T09:10:00.998Z</time></trkpt><trkpt lat="42.666427837225356" lon="13.263219285595795"><ele>787.0</ele><time>2026-04-18T09:10:01.998Z</time></trkpt><trkpt lat="42.66631802380469" lon="13.263231267612523"><ele>787.0</ele><time>2026-04-18T09:10:02.998Z</time></trkpt><trkpt lat="42.666212898579694" lon="13.263279115694951"><ele>787.0</ele><time>2026-04-18T09:10:03.998Z</time></trkpt><trkpt lat="42.666108007761274" lon="13.263331841914715"><ele>787.0</ele><time>2026-04-18T09:10:04.998Z</time></trkpt><trkpt lat="42.66600067215387" lon="13.263385797148942"><ele>787.0</ele><time>2026-04-18T09:10:05.998Z</time></trkpt><trkpt lat="42.66589438198753" lon="13.263444557576339"><ele>789.25</ele><time>2026-04-18T09:10:06.998Z</time></trkpt><trkpt lat="42.66579389038638" lon="13.263527169416415"><ele>791.5</ele><time>2026-04-18T09:10:07.998Z</time></trkpt><trkpt lat="42.66568652082426" lon="13.263594692706482"><ele>793.75</ele><time>2026-04-18T09:10:08.999Z</time></trkpt><trkpt lat="42.66557822283229" lon="13.263664555799208"><ele>796.0</ele><time>2026-04-18T09:10:09.999Z</time></trkpt><trkpt lat="42.66547296370715" lon="13.263741689124164"><ele>796.0</ele><time>2026-04-18T09:10:10.999Z</time></trkpt><trkpt lat="42.66536535164657" lon="13.26382225292733"><ele>796.0</ele><time>2026-04-18T09:10:11.999Z</time></trkpt><trkpt lat="42.66525870994009" lon="13.263903930856667"><ele>796.0</ele><time>2026-04-18T09:10:12.999Z</time></trkpt><trkpt lat="42.665149809823625" lon="13.263983463926285"><ele>796.0</ele><time>2026-04-18T09:10:13.999Z</time></trkpt><trkpt lat="42.66503703077637" lon="13.264048875225026"><ele>794.25</ele><time>2026-04-18T09:10:14.999Z</time></trkpt><trkpt lat="42.6649212691303" lon="13.26409946751408"><ele>792.5</ele><time>2026-04-18T09:10:15.999Z</time></trkpt><trkpt lat="42.66480468839462" lon="13.264149033862267"><ele>790.75</ele><time>2026-04-18T09:10:17Z</time></trkpt><trkpt lat="42.664686467237296" lon="13.26420300610264"><ele>789.0</ele><time>2026-04-18T09:10:18Z</time></trkpt><trkpt lat="42.664571190877844" lon="13.264255410914885"><ele>789.0</ele><time>2026-04-18T09:10:19Z</time></trkpt><trkpt lat="42.664454812888366" lon="13.264302434241344"><ele>789.0</ele><time>2026-04-18T09:10:20Z</time></trkpt><trkpt lat="42.664339967549665" lon="13.264354776455704"><ele>789.0</ele><time>2026-04-18T09:10:21Z</time></trkpt><trkpt lat="42.66422759324184" lon="13.26440818849529"><ele>789.0</ele><time>2026-04-18T09:10:22Z</time></trkpt><trkpt lat="42.66411414785778" lon="13.264457679285302"><ele>789.75</ele><time>2026-04-18T09:10:23Z</time></trkpt><trkpt lat="42.66399895979544" lon="13.26449560985331"><ele>790.5</ele><time>2026-04-18T09:10:24Z</time></trkpt><trkpt lat="42.663883299041856" lon="13.2645110936958"><ele>791.25</ele><time>2026-04-18T09:10:25Z</time></trkpt><trkpt lat="42.66376742031462" lon="13.264527058964683"><ele>792.0</ele><time>2026-04-18T09:10:26Z</time></trkpt><trkpt lat="42.66365077436527" lon="13.264549697054813"><ele>791.75</ele><time>2026-04-18T09:10:27Z</time></trkpt><trkpt lat="42.66353286213458" lon="13.264571212075918"><ele>791.5</ele><time>2026-04-18T09:10:28Z</time></trkpt><trkpt lat="42.66341693381051" lon="13.264570371800142"><ele>791.25</ele><time>2026-04-18T09:10:29Z</time></trkpt><trkpt lat="42.66329960061097" lon="13.264557682516832"><ele>791.0</ele><time>2026-04-18T09:10:30Z</time></trkpt><trkpt lat="42.66318395698803" lon="13.264517664832772"><ele>791.0</ele><time>2026-04-18T09:10:31Z</time></trkpt><trkpt lat="42.66308148714261" lon="13.264433016968386"><ele>791.0</ele><time>2026-04-18T09:10:32Z</time></trkpt><trkpt lat="42.66298018048667" lon="13.26435358575496"><ele>791.0</ele><time>2026-04-18T09:10:33Z</time></trkpt><trkpt lat="42.662870659717896" lon="13.264285633821087"><ele>791.0</ele><time>2026-04-18T09:10:34Z</time></trkpt><trkpt lat="42.66277139914243" lon="13.264201333047827"><ele>790.25</ele><time>2026-04-18T09:10:35Z</time></trkpt><trkpt lat="42.662667216670016" lon="13.264130041395122"><ele>789.5</ele><time>2026-04-18T09:10:36Z</time></trkpt><trkpt lat="42.662566226168956" lon="13.26405632712849"><ele>788.75</ele><time>2026-04-18T09:10:37Z</time></trkpt><trkpt lat="42.66244265965422" lon="13.264056834998726"><ele>788.0</ele><time>2026-04-18T09:10:38Z</time></trkpt><trkpt lat="42.66232573169179" lon="13.26406198845619"><ele>788.0</ele><time>2026-04-18T09:10:39Z</time></trkpt><trkpt lat="42.66221107074146" lon="13.264088519082287"><ele>788.0</ele><time>2026-04-18T09:10:40Z</time></trkpt><trkpt lat="42.66210067934095" lon="13.264121049547372"><ele>788.0</ele><time>2026-04-18T09:10:41Z</time></trkpt><trkpt lat="42.66199213639732" lon="13.26414890493391"><ele>788.0</ele><time>2026-04-18T09:10:42Z</time></trkpt><trkpt lat="42.66188784537632" lon="13.26417325894141"><ele>788.0</ele><time>2026-04-18T09:10:43Z</time></trkpt><trkpt lat="42.66178645333262" lon="13.264200888432518"><ele>787.8333333333334</ele><time>2026-04-18T09:10:44Z</time></trkpt><trkpt lat="42.66169322789842" lon="13.264226746673607"><ele>787.6666666666667</ele><time>2026-04-18T09:10:45Z</time></trkpt><trkpt lat="42.661604104034744" lon="13.264239140532203"><ele>787.5</ele><time>2026-04-18T09:10:46Z</time></trkpt><trkpt lat="42.66152690595798" lon="13.264287099493487"><ele>787.3333333333333</ele><time>2026-04-18T09:10:47Z</time></trkpt><trkpt lat="42.66145659421493" lon="13.264330062525607"><ele>787.1666666666666</ele><time>2026-04-18T09:10:48Z</time></trkpt><trkpt lat="42.661399789723504" lon="13.264394862587082"><ele>787.0</ele><time>2026-04-18T09:10:49Z</time></trkpt><trkpt lat="42.66135619245106" lon="13.264476751891438"><ele>786.9999999999999</ele><time>2026-04-18T09:10:50Z</time></trkpt><trkpt lat="42.661318430892294" lon="13.264561866440546"><ele>787.0</ele><time>2026-04-18T09:10:51Z</time></trkpt><trkpt lat="42.661263144415905" lon="13.264632293061961"><ele>787.0</ele><time>2026-04-18T09:10:52Z</time></trkpt><trkpt lat="42.66122297668714" lon="13.264718254670179"><ele>787.0</ele><time>2026-04-18T09:10:53Z</time></trkpt><trkpt lat="42.66118215538578" lon="13.26480529319272"><ele>786.9999999999999</ele><time>2026-04-18T09:10:54Z</time></trkpt><trkpt lat="42.661140585495886" lon="13.264894887742578"><ele>787.0</ele><time>2026-04-18T09:10:55Z</time></trkpt><trkpt lat="42.66109639684903" lon="13.264990510656187"><ele>787.9999999999999</ele><time>2026-04-18T09:10:56Z</time></trkpt><trkpt lat="42.661054178392604" lon="13.265085823350201"><ele>789.0</ele><time>2026-04-18T09:10:57Z</time></trkpt><trkpt lat="42.66101450044847" lon="13.265182931157689"><ele>790.0</ele><time>2026-04-18T09:10:58Z</time></trkpt><trkpt lat="42.66098969168756" lon="13.265289672552907"><ele>791.0</ele><time>2026-04-18T09:10:59Z</time></trkpt><trkpt lat="42.66096054091179" lon="13.265386723870005"><ele>791.9999999999999</ele><time>2026-04-18T09:11:00Z</time></trkpt><trkpt lat="42.66093388002158" lon="13.265471190918529"><ele>793.0</ele><time>2026-04-18T09:11:01Z</time></trkpt><trkpt lat="42.66089405386622" lon="13.265594505939577"><ele>793.3333333333333</ele><time>2026-04-18T09:11:03Z</time></trkpt><trkpt lat="42.66092389348867" lon="13.26568007898798"><ele>793.6666666666666</ele><time>2026-04-18T09:11:05Z</time></trkpt><trkpt lat="42.660948720889635" lon="13.265815181353561"><ele>794.0</ele><time>2026-04-18T09:11:08Z</time></trkpt><trkpt lat="42.6609871816908" lon="13.265942470217432"><ele>794.3333333333333</ele><time>2026-04-18T09:11:10Z</time></trkpt><trkpt lat="42.661005055488374" lon="13.266061082344734"><ele>794.6666666666666</ele><time>2026-04-18T09:11:12Z</time></trkpt><trkpt lat="42.66101439634332" lon="13.266168987229133"><ele>795.0</ele><time>2026-04-18T09:11:14Z</time></trkpt><trkpt lat="42.661019800788544" lon="13.266288305854948"><ele>795.0</ele><time>2026-04-18T09:11:16Z</time></trkpt><trkpt lat="42.66101658928202" lon="13.266389612368425"><ele>795.0</ele><time>2026-04-18T09:11:18Z</time></trkpt><trkpt lat="42.66100636313862" lon="13.266475708087397"><ele>795.0</ele><time>2026-04-18T09:11:20Z</time></trkpt><trkpt lat="42.66098207902888" lon="13.266561486717812"><ele>795.0</ele><time>2026-04-18T09:11:22Z</time></trkpt><trkpt lat="42.66094440706567" lon="13.266641975343735"><ele>795.0</ele><time>2026-04-18T09:11:23.999Z</time></trkpt><trkpt lat="42.66089831923677" lon="13.266720616890124"><ele>795.0</ele><time>2026-04-18T09:11:25.999Z</time></trkpt><trkpt lat="42.66083952342402" lon="13.266808104779999"><ele>795.0</ele><time>2026-04-18T09:11:27.999Z</time></trkpt><trkpt lat="42.660764732472316" lon="13.26691040229828"><ele>795.2</ele><time>2026-04-18T09:11:29.999Z</time></trkpt><trkpt lat="42.660687173678355" lon="13.267021156166876"><ele>795.4</ele><time>2026-04-18T09:11:31.999Z</time></trkpt><trkpt lat="42.66061133340502" lon="13.267110025682525"><ele>795.5999999999999</ele><time>2026-04-18T09:11:33.999Z</time></trkpt><trkpt lat="42.660541212317966" lon="13.267187156433973"><ele>795.8</ele><time>2026-04-18T09:11:35.999Z</time></trkpt><trkpt lat="42.660477816510266" lon="13.267258870405987"><ele>796.0</ele><time>2026-04-18T09:11:37.999Z</time></trkpt><trkpt lat="42.66041202623146" lon="13.26733700077052"><ele>795.1999999999999</ele><time>2026-04-18T09:11:39.999Z</time></trkpt><trkpt lat="42.66033393104312" lon="13.267425368330073"><ele>794.4</ele><time>2026-04-18T09:11:41.999Z</time></trkpt><trkpt lat="42.66024624967439" lon="13.26751825159261"><ele>793.6</ele><time>2026-04-18T09:11:43.999Z</time></trkpt><trkpt lat="42.66014469664494" lon="13.267610299943108"><ele>792.8</ele><time>2026-04-18T09:11:45.999Z</time></trkpt><trkpt lat="42.66008699499658" lon="13.267655051553207"><ele>792.0</ele><time>2026-04-18T09:11:46.999Z</time></trkpt><trkpt lat="42.66002740824544" lon="13.267693863896346"><ele>793.5714285714286</ele><time>2026-04-18T09:11:47.999Z</time></trkpt><trkpt lat="42.659967203988" lon="13.267735911641244"><ele>795.1428571428571</ele><time>2026-04-18T09:11:48.999Z</time></trkpt><trkpt lat="42.65990627628181" lon="13.267778745600616"><ele>796.7142857142857</ele><time>2026-04-18T09:11:49.999Z</time></trkpt><trkpt lat="42.65984889276569" lon="13.26782056465008"><ele>798.2857142857142</ele><time>2026-04-18T09:11:50.999Z</time></trkpt><trkpt lat="42.65978901814346" lon="13.267860992100799"><ele>799.8571428571429</ele><time>2026-04-18T09:11:51.999Z</time></trkpt><trkpt lat="42.65973031775815" lon="13.267900476551617"><ele>801.4285714285713</ele><time>2026-04-18T09:11:52.999Z</time></trkpt><trkpt lat="42.65967340563021" lon="13.267942028309829"><ele>803.0</ele><time>2026-04-18T09:11:53.999Z</time></trkpt><trkpt lat="42.65961507059602" lon="13.267983086596676"><ele>803.0000000000001</ele><time>2026-04-18T09:11:54.999Z</time></trkpt><trkpt lat="42.65955976494048" lon="13.26802805160555"><ele>803.0</ele><time>2026-04-18T09:11:55.999Z</time></trkpt><trkpt lat="42.6595047304186" lon="13.268072179604971"><ele>803.0</ele><time>2026-04-18T09:11:56.999Z</time></trkpt><trkpt lat="42.659447853971955" lon="13.268113860421035"><ele>803.0</ele><time>2026-04-18T09:11:57.999Z</time></trkpt><trkpt lat="42.65934474752479" lon="13.268207464296895"><ele>803.0000000000001</ele><time>2026-04-18T09:11:59.999Z</time></trkpt><trkpt lat="42.65929179337976" lon="13.268266795489495"><ele>803.0</ele><time>2026-04-18T09:12:00.999Z</time></trkpt><trkpt lat="42.6592341868098" lon="13.268311648958962"><ele>802.5714285714286</ele><time>2026-04-18T09:12:01.999Z</time></trkpt><trkpt lat="42.65917480556348" lon="13.26836932084444"><ele>802.1428571428571</ele><time>2026-04-18T09:12:02.999Z</time></trkpt><trkpt lat="42.6591216700851" lon="13.268420034470596"><ele>801.7142857142858</ele><time>2026-04-18T09:12:03.999Z</time></trkpt><trkpt lat="42.65905695838788" lon="13.268443486362518"><ele>801.2857142857142</ele><time>2026-04-18T09:12:04.999Z</time></trkpt><trkpt lat="42.658995971389075" lon="13.268485626101684"><ele>800.8571428571429</ele><time>2026-04-18T09:12:05.999Z</time></trkpt><trkpt lat="42.65893239765227" lon="13.268529552962713"><ele>800.4285714285714</ele><time>2026-04-18T09:12:06.999Z</time></trkpt><trkpt lat="42.65887302713911" lon="13.26857004238197"><ele>800.0</ele><time>2026-04-18T09:12:07.999Z</time></trkpt><trkpt lat="42.65881582963515" lon="13.268630280161235"><ele>800.0000000000001</ele><time>2026-04-18T09:12:08.999Z</time></trkpt><trkpt lat="42.658749730561965" lon="13.268668680859244"><ele>800.0</ele><time>2026-04-18T09:12:09.999Z</time></trkpt><trkpt lat="42.658687079660154" lon="13.268704613651073"><ele>800.0</ele><time>2026-04-18T09:12:10.999Z</time></trkpt><trkpt lat="42.65862384737605" lon="13.268745807860768"><ele>800.0</ele><time>2026-04-18T09:12:11.999Z</time></trkpt><trkpt lat="42.65855736539065" lon="13.268781977621016"><ele>800.0</ele><time>2026-04-18T09:12:12.999Z</time></trkpt><trkpt lat="42.65849219011454" lon="13.268815350705792"><ele>800.0000000000001</ele><time>2026-04-18T09:12:13.999Z</time></trkpt><trkpt lat="42.658429774437025" lon="13.26885874280426"><ele>800.0</ele><time>2026-04-18T09:12:15Z</time></trkpt><trkpt lat="42.65837264572754" lon="13.268911245882578"><ele>800.2857142857143</ele><time>2026-04-18T09:12:16Z</time></trkpt><trkpt lat="42.65832060330989" lon="13.268973894482837"><ele>800.5714285714286</ele><time>2026-04-18T09:12:17Z</time></trkpt><trkpt lat="42.65826976254497" lon="13.269043233134996"><ele>800.8571428571429</ele><time>2026-04-18T09:12:18Z</time></trkpt><trkpt lat="42.658222663965724" lon="13.269114275109416"><ele>801.1428571428571</ele><time>2026-04-18T09:12:19Z</time></trkpt><trkpt lat="42.65817854565773" lon="13.269192728840116"><ele>801.4285714285714</ele><time>2026-04-18T09:12:20Z</time></trkpt><trkpt lat="42.6581328769725" lon="13.269267168947017"><ele>801.7142857142858</ele><time>2026-04-18T09:12:21Z</time></trkpt><trkpt lat="42.65808683927958" lon="13.269340033403427"><ele>802.0</ele><time>2026-04-18T09:12:22Z</time></trkpt><trkpt lat="42.65803579766673" lon="13.26941449598141"><ele>801.9999999999999</ele><time>2026-04-18T09:12:23Z</time></trkpt><trkpt lat="42.65797627917588" lon="13.269473163332925"><ele>802.0</ele><time>2026-04-18T09:12:24Z</time></trkpt><trkpt lat="42.657921287142145" lon="13.269529136465618"><ele>802.0</ele><time>2026-04-18T09:12:25Z</time></trkpt><trkpt lat="42.65786071905479" lon="13.269592339715873"><ele>802.0</ele><time>2026-04-18T09:12:26Z</time></trkpt><trkpt lat="42.657802323019524" lon="13.269658170469421"><ele>801.9999999999999</ele><time>2026-04-18T09:12:27Z</time></trkpt><trkpt lat="42.65774373100529" lon="13.269726002893796"><ele>802.0</ele><time>2026-04-18T09:12:28Z</time></trkpt><trkpt lat="42.65769571021658" lon="13.269810595758827"><ele>803.3333333333333</ele><time>2026-04-18T09:12:29Z</time></trkpt><trkpt lat="42.657630853071204" lon="13.269874488972548"><ele>804.6666666666666</ele><time>2026-04-18T09:12:30Z</time></trkpt><trkpt lat="42.65757244671588" lon="13.269946685785634"><ele>806.0</ele><time>2026-04-18T09:12:31Z</time></trkpt><trkpt lat="42.657512825877646" lon="13.270021659633034"><ele>807.3333333333333</ele><time>2026-04-18T09:12:32Z</time></trkpt><trkpt lat="42.65745682635417" lon="13.270098966719308"><ele>808.6666666666666</ele><time>2026-04-18T09:12:33Z</time></trkpt><trkpt lat="42.657399503986184" lon="13.270176243350102"><ele>810.0</ele><time>2026-04-18T09:12:34Z</time></trkpt><trkpt lat="42.65733769100059" lon="13.270245803279158"><ele>810.0</ele><time>2026-04-18T09:12:35Z</time></trkpt><trkpt lat="42.657281529846806" lon="13.27030939580089"><ele>810.0</ele><time>2026-04-18T09:12:36Z</time></trkpt><trkpt lat="42.65722395888333" lon="13.270383931466574"><ele>810.0</ele><time>2026-04-18T09:12:37Z</time></trkpt><trkpt lat="42.65717150256729" lon="13.270465035555164"><ele>810.0</ele><time>2026-04-18T09:12:38Z</time></trkpt><trkpt lat="42.65711917609443" lon="13.270546816901252"><ele>810.0</ele><time>2026-04-18T09:12:39Z</time></trkpt><trkpt lat="42.65706686479326" lon="13.270628032530292"><ele>810.0</ele><time>2026-04-18T09:12:40Z</time></trkpt><trkpt lat="42.65701229307796" lon="13.270710293627163"><ele>809.3333333333334</ele><time>2026-04-18T09:12:41Z</time></trkpt><trkpt lat="42.656955261270994" lon="13.270787428970783"><ele>808.6666666666667</ele><time>2026-04-18T09:12:42Z</time></trkpt><trkpt lat="42.65689985750524" lon="13.27086438090324"><ele>808.0</ele><time>2026-04-18T09:12:43Z</time></trkpt><trkpt lat="42.656848823250286" lon="13.270940278507073"><ele>807.3333333333334</ele><time>2026-04-18T09:12:44Z</time></trkpt><trkpt lat="42.65678023108231" lon="13.270996556384441"><ele>806.6666666666667</ele><time>2026-04-18T09:12:45Z</time></trkpt><trkpt lat="42.656731871196556" lon="13.27108592019671"><ele>806.0</ele><time>2026-04-18T09:12:46Z</time></trkpt><trkpt lat="42.65666910358926" lon="13.271151665307295"><ele>806.0000000000001</ele><time>2026-04-18T09:12:47Z</time></trkpt><trkpt lat="42.65660377826395" lon="13.271210760909208"><ele>806.0</ele><time>2026-04-18T09:12:48Z</time></trkpt><trkpt lat="42.656536018869566" lon="13.271260195681446"><ele>806.0</ele><time>2026-04-18T09:12:49Z</time></trkpt><trkpt lat="42.65646536777734" lon="13.271301743733616"><ele>806.0</ele><time>2026-04-18T09:12:50Z</time></trkpt><trkpt lat="42.65639205979092" lon="13.271336880496436"><ele>806.0000000000001</ele><time>2026-04-18T09:12:51Z</time></trkpt><trkpt lat="42.656315419287864" lon="13.271341868707612"><ele>806.0</ele><time>2026-04-18T09:12:52Z</time></trkpt><trkpt lat="42.656238968385104" lon="13.271365111295164"><ele>806.0000000000001</ele><time>2026-04-18T09:12:53Z</time></trkpt><trkpt lat="42.65616170660932" lon="13.271384713340371"><ele>806.0</ele><time>2026-04-18T09:12:54Z</time></trkpt><trkpt lat="42.65608534453904" lon="13.271424888768943"><ele>806.0</ele><time>2026-04-18T09:12:55Z</time></trkpt><trkpt lat="42.656002908497314" lon="13.271432753816406"><ele>806.0</ele><time>2026-04-18T09:12:56Z</time></trkpt><trkpt lat="42.65592087621128" lon="13.271444995770842"><ele>806.0000000000001</ele><time>2026-04-18T09:12:57Z</time></trkpt><trkpt lat="42.65583874225545" lon="13.271463328145023"><ele>806.0</ele><time>2026-04-18T09:12:58Z</time></trkpt><trkpt lat="42.655758791720565" lon="13.271485900085658"><ele>806.3333333333334</ele><time>2026-04-18T09:12:59Z</time></trkpt><trkpt lat="42.65567592085963" lon="13.271507323426453"><ele>806.6666666666667</ele><time>2026-04-18T09:13:00Z</time></trkpt><trkpt lat="42.655591360928376" lon="13.27152947479276"><ele>807.0</ele><time>2026-04-18T09:13:01Z</time></trkpt><trkpt lat="42.655510467419674" lon="13.271546366369959"><ele>807.3333333333333</ele><time>2026-04-18T09:13:02Z</time></trkpt><trkpt lat="42.655428264430306" lon="13.271562118456925"><ele>807.6666666666666</ele><time>2026-04-18T09:13:03Z</time></trkpt><trkpt lat="42.655344301700076" lon="13.271582797470495"><ele>808.0</ele><time>2026-04-18T09:13:04Z</time></trkpt><trkpt lat="42.65525747231197" lon="13.271598222185874"><ele>807.9999999999999</ele><time>2026-04-18T09:13:05Z</time></trkpt><trkpt lat="42.655171456165036" lon="13.271620237478933"><ele>808.0</ele><time>2026-04-18T09:13:06Z</time></trkpt><trkpt lat="42.65508764303555" lon="13.271642068892922"><ele>808.0</ele><time>2026-04-18T09:13:07Z</time></trkpt><trkpt lat="42.655001548176735" lon="13.271639493196496"><ele>808.0</ele><time>2026-04-18T09:13:08Z</time></trkpt><trkpt lat="42.65491022074982" lon="13.271659961538438"><ele>807.9999999999999</ele><time>2026-04-18T09:13:09Z</time></trkpt><trkpt lat="42.65483482491296" lon="13.271694943814499"><ele>808.0</ele><time>2026-04-18T09:13:10Z</time></trkpt><trkpt lat="42.654751402304626" lon="13.27170977807225"><ele>807.9999999999999</ele><time>2026-04-18T09:13:11Z</time></trkpt><trkpt lat="42.65466808801298" lon="13.271729555716435"><ele>808.0</ele><time>2026-04-18T09:13:12Z</time></trkpt><trkpt lat="42.654587315110035" lon="13.27175210252342"><ele>808.0</ele><time>2026-04-18T09:13:12.999Z</time></trkpt><trkpt lat="42.65450304299867" lon="13.271767435423437"><ele>808.0</ele><time>2026-04-18T09:13:13.999Z</time></trkpt><trkpt lat="42.654416869384185" lon="13.271778796073853"><ele>807.9999999999999</ele><time>2026-04-18T09:13:14.999Z</time></trkpt><trkpt lat="42.65433016862662" lon="13.271787842795948"><ele>808.0</ele><time>2026-04-18T09:13:15.999Z</time></trkpt><trkpt lat="42.65424077941125" lon="13.271799029953323"><ele>809.1428571428571</ele><time>2026-04-18T09:13:16.999Z</time></trkpt><trkpt lat="42.65415855982736" lon="13.271811083022259"><ele>810.2857142857142</ele><time>2026-04-18T09:13:17.999Z</time></trkpt><trkpt lat="42.65408015787727" lon="13.271826039502107"><ele>811.4285714285714</ele><time>2026-04-18T09:13:18.999Z</time></trkpt><trkpt lat="42.65400940785575" lon="13.271846251098772"><ele>812.5714285714286</ele><time>2026-04-18T09:13:19.999Z</time></trkpt><trkpt lat="42.65394265481314" lon="13.271830234144396"><ele>813.7142857142858</ele><time>2026-04-18T09:13:20.999Z</time></trkpt><trkpt lat="42.653874206134425" lon="13.271847211769533"><ele>814.8571428571429</ele><time>2026-04-18T09:13:21.999Z</time></trkpt><trkpt lat="42.65380216937142" lon="13.271829456076707"><ele>816.0</ele><time>2026-04-18T09:13:22.999Z</time></trkpt><trkpt lat="42.6537265633536" lon="13.271813990080878"><ele>816.0</ele><time>2026-04-18T09:13:23.999Z</time></trkpt><trkpt lat="42.65365199196685" lon="13.27179951500345"><ele>816.0</ele><time>2026-04-18T09:13:24.999Z</time></trkpt><trkpt lat="42.65357527494128" lon="13.271792993259249"><ele>816.0</ele><time>2026-04-18T09:13:25.999Z</time></trkpt><trkpt lat="42.65350412491534" lon="13.271788451437649"><ele>816.0</ele><time>2026-04-18T09:13:26.999Z</time></trkpt><trkpt lat="42.65343471723028" lon="13.271779186469963"><ele>816.0</ele><time>2026-04-18T09:13:27.999Z</time></trkpt><trkpt lat="42.65336927579031" lon="13.271766743659555"><ele>816.0</ele><time>2026-04-18T09:13:28.999Z</time></trkpt><trkpt lat="42.65330519148309" lon="13.271761038825712"><ele>816.0</ele><time>2026-04-18T09:13:29.999Z</time></trkpt><trkpt lat="42.65317345368792" lon="13.271755323738388"><ele>818.5</ele><time>2026-04-18T09:13:31.999Z</time></trkpt><trkpt lat="42.65310518175763" lon="13.271745367568494"><ele>821.0</ele><time>2026-04-18T09:13:32.999Z</time></trkpt><trkpt lat="42.653040846271345" lon="13.271734303394444"><ele>823.5</ele><time>2026-04-18T09:13:33.999Z</time></trkpt><trkpt lat="42.65291581487111" lon="13.271738737976824"><ele>826.0</ele><time>2026-04-18T09:13:35.999Z</time></trkpt><trkpt lat="42.652847888373465" lon="13.271728140805669"><ele>828.5</ele><time>2026-04-18T09:13:36.999Z</time></trkpt><trkpt lat="42.652779176582804" lon="13.271735803370794"><ele>831.0</ele><time>2026-04-18T09:13:37.999Z</time></trkpt><trkpt lat="42.65271220660538" lon="13.271748181266185"><ele>831.8571428571428</ele><time>2026-04-18T09:13:38.999Z</time></trkpt><trkpt lat="42.65265234396972" lon="13.271776421103223"><ele>832.7142857142857</ele><time>2026-04-18T09:13:39.999Z</time></trkpt><trkpt lat="42.65258791410838" lon="13.271773002887253"><ele>833.5714285714286</ele><time>2026-04-18T09:13:40.999Z</time></trkpt><trkpt lat="42.652496955439695" lon="13.27177780810454"><ele>834.4285714285713</ele><time>2026-04-18T09:13:42.999Z</time></trkpt><trkpt lat="42.65256389664669" lon="13.271778447503571"><ele>835.2857142857143</ele><time>2026-04-18T09:13:47.999Z</time></trkpt><trkpt lat="42.652636612243114" lon="13.271798594747807"><ele>836.1428571428571</ele><time>2026-04-18T09:13:48.999Z</time></trkpt><trkpt lat="42.652704991652904" lon="13.2717784559273"><ele>837.0</ele><time>2026-04-18T09:13:49.999Z</time></trkpt><trkpt lat="42.65277935697549" lon="13.271773446169403"><ele>836.0</ele><time>2026-04-18T09:13:50.999Z</time></trkpt><trkpt lat="42.652857116257536" lon="13.271766483187148"><ele>835.0</ele><time>2026-04-18T09:13:51.999Z</time></trkpt><trkpt lat="42.65293839640021" lon="13.271770524107978"><ele>834.0</ele><time>2026-04-18T09:13:52.999Z</time></trkpt><trkpt lat="42.65302216965954" lon="13.271774373867053"><ele>833.0</ele><time>2026-04-18T09:13:53.999Z</time></trkpt><trkpt lat="42.653104309998625" lon="13.271771185917833"><ele>832.0</ele><time>2026-04-18T09:13:54.999Z</time></trkpt><trkpt lat="42.65318598006335" lon="13.271780449553317"><ele>831.0</ele><time>2026-04-18T09:13:55.999Z</time></trkpt><trkpt lat="42.65326738912449" lon="13.271801531828118"><ele>831.0</ele><time>2026-04-18T09:13:56.999Z</time></trkpt><trkpt lat="42.65335435454647" lon="13.271823167964737"><ele>831.0</ele><time>2026-04-18T09:13:57.999Z</time></trkpt><trkpt lat="42.6534491484814" lon="13.271823572837844"><ele>831.0</ele><time>2026-04-18T09:13:58.999Z</time></trkpt><trkpt lat="42.653546719024156" lon="13.271832723752786"><ele>831.0</ele><time>2026-04-18T09:13:59.999Z</time></trkpt><trkpt lat="42.65364413138702" lon="13.271843251414431"><ele>831.0</ele><time>2026-04-18T09:14:00.999Z</time></trkpt><trkpt lat="42.65374194003492" lon="13.271850566704291"><ele>828.0</ele><time>2026-04-18T09:14:01.999Z</time></trkpt><trkpt lat="42.65383850857786" lon="13.27186744661732"><ele>825.0</ele><time>2026-04-18T09:14:02.999Z</time></trkpt><trkpt lat="42.65393445993301" lon="13.271873834455503"><ele>822.0</ele><time>2026-04-18T09:14:03.999Z</time></trkpt><trkpt lat="42.654032518700326" lon="13.27186946969144"><ele>819.0</ele><time>2026-04-18T09:14:04.999Z</time></trkpt><trkpt lat="42.65413123014962" lon="13.271859022671292"><ele>816.0</ele><time>2026-04-18T09:14:05.999Z</time></trkpt><trkpt lat="42.65423122249795" lon="13.271849436546848"><ele>816.0</ele><time>2026-04-18T09:14:06.999Z</time></trkpt><trkpt lat="42.654330003973826" lon="13.271839775367757"><ele>816.0</ele><time>2026-04-18T09:14:07.999Z</time></trkpt><trkpt lat="42.65443072271681" lon="13.271823824048102"><ele>816.0</ele><time>2026-04-18T09:14:08.999Z</time></trkpt><trkpt lat="42.65453354085572" lon="13.271798094611812"><ele>816.0</ele><time>2026-04-18T09:14:09.999Z</time></trkpt><trkpt lat="42.654635157269986" lon="13.271768378866895"><ele>816.0</ele><time>2026-04-18T09:14:10.999Z</time></trkpt><trkpt lat="42.65473833023041" lon="13.271744397174455"><ele>814.4</ele><time>2026-04-18T09:14:11.999Z</time></trkpt><trkpt lat="42.65483800792591" lon="13.271719904955047"><ele>812.8</ele><time>2026-04-18T09:14:12.999Z</time></trkpt><trkpt lat="42.654934148200226" lon="13.271698873356662"><ele>811.1999999999999</ele><time>2026-04-18T09:14:13.999Z</time></trkpt><trkpt lat="42.65502739227577" lon="13.2716860239374"><ele>809.5999999999999</ele><time>2026-04-18T09:14:14.999Z</time></trkpt><trkpt lat="42.65512192048721" lon="13.271670542700727"><ele>808.0</ele><time>2026-04-18T09:14:15.999Z</time></trkpt><trkpt lat="42.65522033641413" lon="13.271650537605979"><ele>806.5999999999999</ele><time>2026-04-18T09:14:16.999Z</time></trkpt><trkpt lat="42.655318123995286" lon="13.271620188787404"><ele>805.1999999999999</ele><time>2026-04-18T09:14:17.999Z</time></trkpt><trkpt lat="42.65541669961995" lon="13.271592012877727"><ele>803.8</ele><time>2026-04-18T09:14:18.999Z</time></trkpt><trkpt lat="42.65552203442865" lon="13.2715707564721"><ele>802.4</ele><time>2026-04-18T09:14:19.999Z</time></trkpt><trkpt lat="42.655630108683766" lon="13.27155260726741"><ele>801.0</ele><time>2026-04-18T09:14:21Z</time></trkpt><trkpt lat="42.655739154814135" lon="13.271534257154176"><ele>801.0</ele><time>2026-04-18T09:14:22Z</time></trkpt><trkpt lat="42.65585068422512" lon="13.271511943390601"><ele>801.0</ele><time>2026-04-18T09:14:23Z</time></trkpt><trkpt lat="42.65596346439162" lon="13.271484686592164"><ele>801.0</ele><time>2026-04-18T09:14:24Z</time></trkpt><trkpt lat="42.65607780314604" lon="13.271456776963069"><ele>801.0</ele><time>2026-04-18T09:14:25Z</time></trkpt><trkpt lat="42.656189692383094" lon="13.271428049600505"><ele>802.25</ele><time>2026-04-18T09:14:26Z</time></trkpt><trkpt lat="42.65630243531913" lon="13.271395538592433"><ele>803.5</ele><time>2026-04-18T09:14:27Z</time></trkpt><trkpt lat="42.65641365889505" lon="13.271352605793199"><ele>804.75</ele><time>2026-04-18T09:14:28Z</time></trkpt><trkpt lat="42.6565228245997" lon="13.271294134786993"><ele>806.0</ele><time>2026-04-18T09:14:29Z</time></trkpt><trkpt lat="42.65662351955656" lon="13.271219283671927"><ele>806.0</ele><time>2026-04-18T09:14:30Z</time></trkpt><trkpt lat="42.65672124859751" lon="13.271134210072756"><ele>806.0</ele><time>2026-04-18T09:14:31Z</time></trkpt><trkpt lat="42.65681240821916" lon="13.271036164758913"><ele>806.0</ele><time>2026-04-18T09:14:32Z</time></trkpt><trkpt lat="42.656894291559105" lon="13.270930199299752"><ele>806.0</ele><time>2026-04-18T09:14:33Z</time></trkpt><trkpt lat="42.65697446405107" lon="13.270817494558374"><ele>807.0</ele><time>2026-04-18T09:14:34Z</time></trkpt><trkpt lat="42.65705240111273" lon="13.27070552469267"><ele>808.0</ele><time>2026-04-18T09:14:35Z</time></trkpt><trkpt lat="42.65713567513437" lon="13.27059309506812"><ele>809.0</ele><time>2026-04-18T09:14:36Z</time></trkpt><trkpt lat="42.65721956748672" lon="13.270485141253427"><ele>810.0</ele><time>2026-04-18T09:14:37Z</time></trkpt><trkpt lat="42.657303074767334" lon="13.270378887284535"><ele>810.0</ele><time>2026-04-18T09:14:38Z</time></trkpt><trkpt lat="42.657390325443636" lon="13.270270724684023"><ele>810.0</ele><time>2026-04-18T09:14:39Z</time></trkpt><trkpt lat="42.6574757526949" lon="13.270164032396648"><ele>810.0</ele><time>2026-04-18T09:14:40Z</time></trkpt><trkpt lat="42.65756258111952" lon="13.270054652990037"><ele>810.0</ele><time>2026-04-18T09:14:41Z</time></trkpt><trkpt lat="42.6576535658003" lon="13.269939096229457"><ele>810.0</ele><time>2026-04-18T09:14:42Z</time></trkpt><trkpt lat="42.657743138389534" lon="13.269828597905988"><ele>810.0</ele><time>2026-04-18T09:14:43Z</time></trkpt><trkpt lat="42.65783692600052" lon="13.269727792667103"><ele>810.0</ele><time>2026-04-18T09:14:44Z</time></trkpt><trkpt lat="42.65793043935543" lon="13.269622419147765"><ele>810.0</ele><time>2026-04-18T09:14:45Z</time></trkpt><trkpt lat="42.6580155768187" lon="13.269509110375653"><ele>808.0</ele><time>2026-04-18T09:14:46Z</time></trkpt><trkpt lat="42.658096966564536" lon="13.26938960326756"><ele>806.0</ele><time>2026-04-18T09:14:47Z</time></trkpt><trkpt lat="42.65819011117962" lon="13.269287904807227"><ele>804.0</ele><time>2026-04-18T09:14:48Z</time></trkpt><trkpt lat="42.65825087420248" lon="13.269143913311945"><ele>802.0</ele><time>2026-04-18T09:14:49Z</time></trkpt><trkpt lat="42.65833136947813" lon="13.269027390723458"><ele>801.5</ele><time>2026-04-18T09:14:50Z</time></trkpt><trkpt lat="42.658428394154356" lon="13.268928947084007"><ele>801.0</ele><time>2026-04-18T09:14:51Z</time></trkpt><trkpt lat="42.65853128116957" lon="13.26885134006533"><ele>800.5</ele><time>2026-04-18T09:14:52Z</time></trkpt><trkpt lat="42.65864070306492" lon="13.26878656943858"><ele>800.0</ele><time>2026-04-18T09:14:53Z</time></trkpt><trkpt lat="42.65874762594387" lon="13.26871767261809"><ele>800.0</ele><time>2026-04-18T09:14:54Z</time></trkpt><trkpt lat="42.65886293515794" lon="13.268649007110483"><ele>800.0</ele><time>2026-04-18T09:14:55Z</time></trkpt><trkpt lat="42.65897207422134" lon="13.268584654175209"><ele>800.0</ele><time>2026-04-18T09:14:56Z</time></trkpt><trkpt lat="42.65907862171421" lon="13.268509984312718"><ele>800.0</ele><time>2026-04-18T09:14:57Z</time></trkpt><trkpt lat="42.65918136403791" lon="13.268429080791782"><ele>800.0</ele><time>2026-04-18T09:14:58Z</time></trkpt><trkpt lat="42.659289081861395" lon="13.268342684492053"><ele>800.0</ele><time>2026-04-18T09:14:59Z</time></trkpt><trkpt lat="42.659377746595226" lon="13.268245049458862"><ele>800.0</ele><time>2026-04-18T09:15:00Z</time></trkpt><trkpt lat="42.6594897105967" lon="13.268176111361342"><ele>800.0</ele><time>2026-04-18T09:15:01Z</time></trkpt><trkpt lat="42.65958939649441" lon="13.268083854011833"><ele>800.75</ele><time>2026-04-18T09:15:02Z</time></trkpt><trkpt lat="42.65969736612727" lon="13.268013166482996"><ele>801.5</ele><time>2026-04-18T09:15:03Z</time></trkpt><trkpt lat="42.65980236288975" lon="13.267938133714193"><ele>802.25</ele><time>2026-04-18T09:15:04Z</time></trkpt><trkpt lat="42.6599066449522" lon="13.267858618944299"><ele>803.0</ele><time>2026-04-18T09:15:05Z</time></trkpt><trkpt lat="42.66000946181733" lon="13.26778010577362"><ele>803.0</ele><time>2026-04-18T09:15:06Z</time></trkpt><trkpt lat="42.66011192523051" lon="13.267696158816113"><ele>803.0</ele><time>2026-04-18T09:15:07Z</time></trkpt><trkpt lat="42.660213644837015" lon="13.267610430332002"><ele>803.0</ele><time>2026-04-18T09:15:08Z</time></trkpt><trkpt lat="42.66030956680468" lon="13.2675116155382"><ele>803.0</ele><time>2026-04-18T09:15:09Z</time></trkpt><trkpt lat="42.660401862647994" lon="13.267405841793853"><ele>801.5999999999999</ele><time>2026-04-18T09:15:10Z</time></trkpt><trkpt lat="42.660492377629275" lon="13.267297848070339"><ele>800.1999999999999</ele><time>2026-04-18T09:15:11Z</time></trkpt><trkpt lat="42.660579145096264" lon="13.2671992346271"><ele>798.8</ele><time>2026-04-18T09:15:12Z</time></trkpt><trkpt lat="42.660661173185765" lon="13.26710469423068"><ele>797.4</ele><time>2026-04-18T09:15:13Z</time></trkpt><trkpt lat="42.660735301776235" lon="13.267014628070879"><ele>796.0</ele><time>2026-04-18T09:15:14Z</time></trkpt><trkpt lat="42.66080614601825" lon="13.266925579524127"><ele>796.0</ele><time>2026-04-18T09:15:15Z</time></trkpt><trkpt lat="42.66088363849761" lon="13.26683287188446"><ele>796.0</ele><time>2026-04-18T09:15:16Z</time></trkpt><trkpt lat="42.660948518070086" lon="13.266726860984937"><ele>796.0</ele><time>2026-04-18T09:15:17Z</time></trkpt><trkpt lat="42.66100285159954" lon="13.266605174958737"><ele>796.0</ele><time>2026-04-18T09:15:18Z</time></trkpt><trkpt lat="42.66104402955971" lon="13.266474008844597"><ele>796.0</ele><time>2026-04-18T09:15:19Z</time></trkpt><trkpt lat="42.661062472548274" lon="13.266334101010251"><ele>795.8</ele><time>2026-04-18T09:15:20Z</time></trkpt><trkpt lat="42.66106907324698" lon="13.266193606664613"><ele>795.5999999999999</ele><time>2026-04-18T09:15:21Z</time></trkpt><trkpt lat="42.66106151174257" lon="13.266056027941984"><ele>795.4</ele><time>2026-04-18T09:15:21.999Z</time></trkpt><trkpt lat="42.66103642403245" lon="13.265923705401747"><ele>795.2</ele><time>2026-04-18T09:15:22.999Z</time></trkpt><trkpt lat="42.661006553772516" lon="13.265797969173466"><ele>795.0</ele><time>2026-04-18T09:15:23.999Z</time></trkpt><trkpt lat="42.66098083274905" lon="13.26567459232595"><ele>794.6</ele><time>2026-04-18T09:15:24.999Z</time></trkpt><trkpt lat="42.660975881810515" lon="13.265543857868158"><ele>794.2</ele><time>2026-04-18T09:15:25.999Z</time></trkpt><trkpt lat="42.66098938740996" lon="13.265408570256971"><ele>793.8</ele><time>2026-04-18T09:15:26.999Z</time></trkpt><trkpt lat="42.661023872559774" lon="13.265278623197968"><ele>793.4</ele><time>2026-04-18T09:15:27.999Z</time></trkpt><trkpt lat="42.66107376877057" lon="13.26516150612827"><ele>793.0</ele><time>2026-04-18T09:15:28.999Z</time></trkpt><trkpt lat="42.66112815139529" lon="13.265043436573743"><ele>791.8</ele><time>2026-04-18T09:15:29.999Z</time></trkpt><trkpt lat="42.66118110608705" lon="13.264921919584305"><ele>790.5999999999999</ele><time>2026-04-18T09:15:30.999Z</time></trkpt><trkpt lat="42.661234176165614" lon="13.264802374566397"><ele>789.4000000000001</ele><time>2026-04-18T09:15:31.999Z</time></trkpt><trkpt lat="42.661289416492544" lon="13.264683104481124"><ele>788.2</ele><time>2026-04-18T09:15:32.999Z</time></trkpt><trkpt lat="42.66134737107084" lon="13.264575995808503"><ele>787.0</ele><time>2026-04-18T09:15:33.999Z</time></trkpt><trkpt lat="42.66140501436307" lon="13.26447450268879"><ele>787.0</ele><time>2026-04-18T09:15:34.999Z</time></trkpt><trkpt lat="42.66147373671199" lon="13.26438424970853"><ele>787.0</ele><time>2026-04-18T09:15:35.999Z</time></trkpt><trkpt lat="42.66155845499673" lon="13.264318901610801"><ele>787.0</ele><time>2026-04-18T09:15:36.999Z</time></trkpt><trkpt lat="42.66165185355014" lon="13.264276357652362"><ele>787.0</ele><time>2026-04-18T09:15:37.999Z</time></trkpt><trkpt lat="42.66175830121967" lon="13.264250902094323"><ele>787.0</ele><time>2026-04-18T09:15:38.999Z</time></trkpt><trkpt lat="42.66186510975018" lon="13.264221653313598"><ele>787.25</ele><time>2026-04-18T09:15:39.999Z</time></trkpt><trkpt lat="42.66197285242564" lon="13.264188212217325"><ele>787.5</ele><time>2026-04-18T09:15:40.999Z</time></trkpt><trkpt lat="42.66208469698963" lon="13.264156634567094"><ele>787.75</ele><time>2026-04-18T09:15:41.999Z</time></trkpt><trkpt lat="42.662196880956344" lon="13.264132229441426"><ele>788.0</ele><time>2026-04-18T09:15:42.999Z</time></trkpt><trkpt lat="42.66230877670865" lon="13.2641133031558"><ele>788.0</ele><time>2026-04-18T09:15:43.999Z</time></trkpt><trkpt lat="42.662417190537155" lon="13.264099605520874"><ele>788.0</ele><time>2026-04-18T09:15:44.999Z</time></trkpt><trkpt lat="42.66252002306024" lon="13.264099098409565"><ele>788.0</ele><time>2026-04-18T09:15:45.999Z</time></trkpt><trkpt lat="42.662618488759364" lon="13.264121186599102"><ele>788.0</ele><time>2026-04-18T09:15:46.999Z</time></trkpt><trkpt lat="42.66271598733204" lon="13.264172919206665"><ele>788.0</ele><time>2026-04-18T09:15:47.999Z</time></trkpt><trkpt lat="42.66280695783457" lon="13.264244364422213"><ele>788.5999999999999</ele><time>2026-04-18T09:15:48.999Z</time></trkpt><trkpt lat="42.66289396673026" lon="13.264326056314983"><ele>789.1999999999999</ele><time>2026-04-18T09:15:49.999Z</time></trkpt><trkpt lat="42.66298537395681" lon="13.264404751232941"><ele>789.8</ele><time>2026-04-18T09:15:50.999Z</time></trkpt><trkpt lat="42.66307979999349" lon="13.26447678443257"><ele>790.4</ele><time>2026-04-18T09:15:51.999Z</time></trkpt><trkpt lat="42.66317657799785" lon="13.2645436913448"><ele>791.0</ele><time>2026-04-18T09:15:52.999Z</time></trkpt><trkpt lat="42.66327890651972" lon="13.264589986453997"><ele>791.0</ele><time>2026-04-18T09:15:53.999Z</time></trkpt><trkpt lat="42.663385076945985" lon="13.264614698527726"><ele>791.0</ele><time>2026-04-18T09:15:54.999Z</time></trkpt><trkpt lat="42.66349326656396" lon="13.264609949583257"><ele>791.0</ele><time>2026-04-18T09:15:55.999Z</time></trkpt><trkpt lat="42.66360446008044" lon="13.264595922881746"><ele>791.0</ele><time>2026-04-18T09:15:56.999Z</time></trkpt><trkpt lat="42.66371467073105" lon="13.264577101006408"><ele>791.0</ele><time>2026-04-18T09:15:57.999Z</time></trkpt><trkpt lat="42.66382289142723" lon="13.264555391019863"><ele>791.1999999999999</ele><time>2026-04-18T09:15:58.999Z</time></trkpt><trkpt lat="42.66393162392909" lon="13.264533877983732"><ele>791.4</ele><time>2026-04-18T09:15:59.999Z</time></trkpt><trkpt lat="42.6640409297122" lon="13.264509617380863"><ele>791.6</ele><time>2026-04-18T09:16:00.999Z</time></trkpt><trkpt lat="42.664150624903016" lon="13.264475887149471"><ele>791.8</ele><time>2026-04-18T09:16:01.999Z</time></trkpt><trkpt lat="42.66425990215383" lon="13.264431529456312"><ele>792.0</ele><time>2026-04-18T09:16:02.999Z</time></trkpt><trkpt lat="42.66437185912085" lon="13.264377276911627"><ele>791.25</ele><time>2026-04-18T09:16:03.999Z</time></trkpt><trkpt lat="42.664481267740065" lon="13.264328076665928"><ele>790.5</ele><time>2026-04-18T09:16:04.999Z</time></trkpt><trkpt lat="42.66459147433474" lon="13.264280013132812"><ele>789.75</ele><time>2026-04-18T09:16:05.999Z</time></trkpt><trkpt lat="42.664703530996015" lon="13.264230209366602"><ele>789.0</ele><time>2026-04-18T09:16:06.999Z</time></trkpt><trkpt lat="42.66481785011591" lon="13.264180104196797"><ele>789.0</ele><time>2026-04-18T09:16:07.999Z</time></trkpt><trkpt lat="42.66493136587211" lon="13.26413443926298"><ele>789.0</ele><time>2026-04-18T09:16:08.999Z</time></trkpt><trkpt lat="42.66504285814977" lon="13.264087193642297"><ele>789.0</ele><time>2026-04-18T09:16:09.999Z</time></trkpt><trkpt lat="42.665149688215934" lon="13.264029765703981"><ele>789.0</ele><time>2026-04-18T09:16:10.999Z</time></trkpt><trkpt lat="42.665249577108334" lon="13.26396132741373"><ele>790.4000000000001</ele><time>2026-04-18T09:16:11.999Z</time></trkpt><trkpt lat="42.6653471276524" lon="13.263885923586267"><ele>791.8</ele><time>2026-04-18T09:16:12.999Z</time></trkpt><trkpt lat="42.665444836256675" lon="13.263810966439662"><ele>793.2</ele><time>2026-04-18T09:16:13.999Z</time></trkpt><trkpt lat="42.66554105945533" lon="13.26373938872109"><ele>794.5999999999999</ele><time>2026-04-18T09:16:14.999Z</time></trkpt><trkpt lat="42.66563474892467" lon="13.263674744821738"><ele>796.0</ele><time>2026-04-18T09:16:15.999Z</time></trkpt><trkpt lat="42.66571954451575" lon="13.263615071246026"><ele>796.0</ele><time>2026-04-18T09:16:16.999Z</time></trkpt><trkpt lat="42.665806113886845" lon="13.263561258323112"><ele>796.0</ele><time>2026-04-18T09:16:17.999Z</time></trkpt><trkpt lat="42.665901585052495" lon="13.26350886459123"><ele>796.0</ele><time>2026-04-18T09:16:18.999Z</time></trkpt><trkpt lat="42.66600391652035" lon="13.26345989388594"><ele>796.0</ele><time>2026-04-18T09:16:19.999Z</time></trkpt><trkpt lat="42.66610912113298" lon="13.263404421802894"><ele>796.0</ele><time>2026-04-18T09:16:20.999Z</time></trkpt><trkpt lat="42.66621556761893" lon="13.263344942065011"><ele>793.75</ele><time>2026-04-18T09:16:21.999Z</time></trkpt><trkpt lat="42.666327048334836" lon="13.263288668581591"><ele>791.5</ele><time>2026-04-18T09:16:22.999Z</time></trkpt><trkpt lat="42.6664458696217" lon="13.263250152124641"><ele>789.25</ele><time>2026-04-18T09:16:23.999Z</time></trkpt><trkpt lat="42.66656951342724" lon="13.263225313660005"><ele>787.0</ele><time>2026-04-18T09:16:24.999Z</time></trkpt><trkpt lat="42.66669313446623" lon="13.263212020137143"><ele>787.0</ele><time>2026-04-18T09:16:26Z</time></trkpt><trkpt lat="42.666819414171115" lon="13.263209637235367"><ele>787.0</ele><time>2026-04-18T09:16:27Z</time></trkpt><trkpt lat="42.666947046207966" lon="13.26321211536863"><ele>787.0</ele><time>2026-04-18T09:16:28Z</time></trkpt><trkpt lat="42.667072175741595" lon="13.26322324390456"><ele>787.0</ele><time>2026-04-18T09:16:29Z</time></trkpt><trkpt lat="42.66719835336597" lon="13.26323873883417"><ele>786.25</ele><time>2026-04-18T09:16:30Z</time></trkpt><trkpt lat="42.667326443049234" lon="13.263266316691867"><ele>785.5</ele><time>2026-04-18T09:16:31Z</time></trkpt><trkpt lat="42.66745123075391" lon="13.263326042967078"><ele>784.75</ele><time>2026-04-18T09:16:32Z</time></trkpt><trkpt lat="42.66757957188667" lon="13.263344100607572"><ele>784.0</ele><time>2026-04-18T09:16:33Z</time></trkpt><trkpt lat="42.66771071783708" lon="13.263334537431676"><ele>785.25</ele><time>2026-04-18T09:16:34Z</time></trkpt><trkpt lat="42.66783862449721" lon="13.263346181905131"><ele>786.5</ele><time>2026-04-18T09:16:35Z</time></trkpt><trkpt lat="42.6679619965447" lon="13.26333850862129"><ele>787.75</ele><time>2026-04-18T09:16:36Z</time></trkpt><trkpt lat="42.66808581282163" lon="13.263324782406169"><ele>789.0</ele><time>2026-04-18T09:16:37Z</time></trkpt><trkpt lat="42.668218930365114" lon="13.263323014980116"><ele>789.0</ele><time>2026-04-18T09:16:38Z</time></trkpt><trkpt lat="42.668354968842756" lon="13.26333553075671"><ele>789.0</ele><time>2026-04-18T09:16:39Z</time></trkpt><trkpt lat="42.66849700207907" lon="13.263356125262575"><ele>789.0</ele><time>2026-04-18T09:16:40Z</time></trkpt><trkpt lat="42.66863358687912" lon="13.263377760262523"><ele>789.0</ele><time>2026-04-18T09:16:41Z</time></trkpt><trkpt lat="42.66877244782306" lon="13.26339666902504"><ele>787.0</ele><time>2026-04-18T09:16:42Z</time></trkpt><trkpt lat="42.66891375894726" lon="13.263407034632275"><ele>785.0</ele><time>2026-04-18T09:16:43Z</time></trkpt><trkpt lat="42.66905068689627" lon="13.263417160023668"><ele>783.0</ele><time>2026-04-18T09:16:44Z</time></trkpt><trkpt lat="42.66918712774128" lon="13.263416586849017"><ele>781.0</ele><time>2026-04-18T09:16:45Z</time></trkpt><trkpt lat="42.66931909898184" lon="13.263402975709505"><ele>781.0</ele><time>2026-04-18T09:16:46Z</time></trkpt><trkpt lat="42.669441193247195" lon="13.26334670806897"><ele>781.0</ele><time>2026-04-18T09:16:47Z</time></trkpt><trkpt lat="42.66954517438866" lon="13.263245376207717"><ele>781.0</ele><time>2026-04-18T09:16:48Z</time></trkpt><trkpt lat="42.66962589525953" lon="13.263123580457568"><ele>781.0</ele><time>2026-04-18T09:16:49Z</time></trkpt><trkpt lat="42.66968808401179" lon="13.26300473850479"><ele>780.9999999999999</ele><time>2026-04-18T09:16:50Z</time></trkpt><trkpt lat="42.66973910157425" lon="13.26290044043503"><ele>781.0</ele><time>2026-04-18T09:16:51Z</time></trkpt><trkpt lat="42.6697870053995" lon="13.262811573517254"><ele>781.0</ele><time>2026-04-18T09:16:52Z</time></trkpt><trkpt lat="42.669832577405764" lon="13.262728764403924"><ele>781.0</ele><time>2026-04-18T09:16:53Z</time></trkpt><trkpt lat="42.66988032263424" lon="13.262654339605804"><ele>780.9999999999999</ele><time>2026-04-18T09:16:54Z</time></trkpt><trkpt lat="42.66993466706915" lon="13.26258789506171"><ele>781.0</ele><time>2026-04-18T09:16:55Z</time></trkpt><trkpt lat="42.66998811203467" lon="13.26252463874413"><ele>781.0</ele><time>2026-04-18T09:16:56Z</time></trkpt><trkpt lat="42.67004083068039" lon="13.262469418268571"><ele>781.0</ele><time>2026-04-18T09:16:57Z</time></trkpt><trkpt lat="42.67009448861786" lon="13.262418029504202"><ele>781.0</ele><time>2026-04-18T09:16:58Z</time></trkpt><trkpt lat="42.6701506091369" lon="13.26237212500575"><ele>781.0</ele><time>2026-04-18T09:16:59Z</time></trkpt><trkpt lat="42.670208028170464" lon="13.262328636912875"><ele>781.0</ele><time>2026-04-18T09:17:00Z</time></trkpt><trkpt lat="42.67026936313259" lon="13.262282693330002"><ele>781.0</ele><time>2026-04-18T09:17:01Z</time></trkpt><trkpt lat="42.670339788648924" lon="13.262246514903907"><ele>781.0</ele><time>2026-04-18T09:17:02Z</time></trkpt><trkpt lat="42.67041893330973" lon="13.262229542481155"><ele>780.1666666666666</ele><time>2026-04-18T09:17:03Z</time></trkpt><trkpt lat="42.67050251324336" lon="13.26222576196215"><ele>779.3333333333333</ele><time>2026-04-18T09:17:04Z</time></trkpt><trkpt lat="42.670586046511936" lon="13.26225929248196"><ele>778.5</ele><time>2026-04-18T09:17:05Z</time></trkpt><trkpt lat="42.67067424087578" lon="13.262253123350863"><ele>777.6666666666667</ele><time>2026-04-18T09:17:06Z</time></trkpt><trkpt lat="42.670752282903834" lon="13.262282953782979"><ele>776.8333333333334</ele><time>2026-04-18T09:17:07Z</time></trkpt><trkpt lat="42.67081445130164" lon="13.262346651126666"><ele>776.0</ele><time>2026-04-18T09:17:08Z</time></trkpt><trkpt lat="42.670826888000946" lon="13.26245217301967"><ele>776.0</ele><time>2026-04-18T09:17:09Z</time></trkpt><trkpt lat="42.67083873876533" lon="13.262572087202797"><ele>776.0</ele><time>2026-04-18T09:17:10Z</time></trkpt><trkpt lat="42.670852615691246" lon="13.262708508001433"><ele>776.0</ele><time>2026-04-18T09:17:11Z</time></trkpt><trkpt lat="42.67088116590981" lon="13.26284979774003"><ele>776.0</ele><time>2026-04-18T09:17:12Z</time></trkpt><trkpt lat="42.67089727897063" lon="13.262999542233436"><ele>776.0</ele><time>2026-04-18T09:17:13Z</time></trkpt><trkpt lat="42.67091476979475" lon="13.263150238984773"><ele>773.5</ele><time>2026-04-18T09:17:14Z</time></trkpt><trkpt lat="42.67093126318357" lon="13.263301573531736"><ele>771.0</ele><time>2026-04-18T09:17:15Z</time></trkpt><trkpt lat="42.67094793818045" lon="13.263452751101363"><ele>768.5</ele><time>2026-04-18T09:17:16Z</time></trkpt><trkpt lat="42.67096358347723" lon="13.263606093831363"><ele>766.0</ele><time>2026-04-18T09:17:17Z</time></trkpt><trkpt lat="42.67098064147495" lon="13.263762339344561"><ele>766.0</ele><time>2026-04-18T09:17:18Z</time></trkpt><trkpt lat="42.670999319778424" lon="13.26392274537357"><ele>766.0</ele><time>2026-04-18T09:17:19Z</time></trkpt><trkpt lat="42.6710109559995" lon="13.264085893814528"><ele>766.0</ele><time>2026-04-18T09:17:20Z</time></trkpt><trkpt lat="42.67100967804358" lon="13.264248208787778"><ele>766.0</ele><time>2026-04-18T09:17:21Z</time></trkpt><trkpt lat="42.67099790938744" lon="13.26441219433777"><ele>766.0</ele><time>2026-04-18T09:17:22Z</time></trkpt><trkpt lat="42.67096716516481" lon="13.264572421588793"><ele>766.0</ele><time>2026-04-18T09:17:23Z</time></trkpt><trkpt lat="42.67092151758094" lon="13.264728812600955"><ele>766.0</ele><time>2026-04-18T09:17:24Z</time></trkpt><trkpt lat="42.670865675320016" lon="13.2648810036347"><ele>766.0</ele><time>2026-04-18T09:17:25Z</time></trkpt><trkpt lat="42.67079690198422" lon="13.265023399922114"><ele>767.0</ele><time>2026-04-18T09:17:26Z</time></trkpt><trkpt lat="42.6707154522065" lon="13.265154040294126"><ele>768.0</ele><time>2026-04-18T09:17:27Z</time></trkpt><trkpt lat="42.67063134483888" lon="13.265278797473158"><ele>769.0</ele><time>2026-04-18T09:17:28Z</time></trkpt><trkpt lat="42.67054107932861" lon="13.265395213388853"><ele>770.0</ele><time>2026-04-18T09:17:29Z</time></trkpt><trkpt lat="42.670444292565165" lon="13.265504240429424"><ele>770.0</ele><time>2026-04-18T09:17:30Z</time></trkpt><trkpt lat="42.67034272325403" lon="13.26560171676392"><ele>770.0</ele><time>2026-04-18T09:17:31Z</time></trkpt><trkpt lat="42.67023654678724" lon="13.265688707700004"><ele>770.0</ele><time>2026-04-18T09:17:31.999Z</time></trkpt><trkpt lat="42.67011843792647" lon="13.265750402920215"><ele>770.0</ele><time>2026-04-18T09:17:32.999Z</time></trkpt><trkpt lat="42.66999029921128" lon="13.265775658000164"><ele>771.75</ele><time>2026-04-18T09:17:33.999Z</time></trkpt><trkpt lat="42.66986530255219" lon="13.265807509180016"><ele>773.5</ele><time>2026-04-18T09:17:34.999Z</time></trkpt><trkpt lat="42.66972452995017" lon="13.265759507622272"><ele>775.25</ele><time>2026-04-18T09:17:35.999Z</time></trkpt><trkpt lat="42.669587226673535" lon="13.265730948899638"><ele>777.0</ele><time>2026-04-18T09:17:36.999Z</time></trkpt><trkpt lat="42.66944741533398" lon="13.265681469807397"><ele>776.75</ele><time>2026-04-18T09:17:37.999Z</time></trkpt><trkpt lat="42.669308984848016" lon="13.265613336549956"><ele>776.5</ele><time>2026-04-18T09:17:38.999Z</time></trkpt><trkpt lat="42.66916775808562" lon="13.26553579045949"><ele>776.25</ele><time>2026-04-18T09:17:39.999Z</time></trkpt><trkpt lat="42.66903207910146" lon="13.265457345600383"><ele>776.0</ele><time>2026-04-18T09:17:40.999Z</time></trkpt><trkpt lat="42.668896750596765" lon="13.265376256872683"><ele>776.0</ele><time>2026-04-18T09:17:41.999Z</time></trkpt><trkpt lat="42.66875791850681" lon="13.265284201543565"><ele>776.0</ele><time>2026-04-18T09:17:42.999Z</time></trkpt><trkpt lat="42.66861886264102" lon="13.265188586998333"><ele>776.0</ele><time>2026-04-18T09:17:43.999Z</time></trkpt><trkpt lat="42.66847765888759" lon="13.265088584497658"><ele>776.0</ele><time>2026-04-18T09:17:44.999Z</time></trkpt><trkpt lat="42.66833463485427" lon="13.264981872809038"><ele>776.0</ele><time>2026-04-18T09:17:45.999Z</time></trkpt><trkpt lat="42.66819230653328" lon="13.264874141907171"><ele>776.0</ele><time>2026-04-18T09:17:46.999Z</time></trkpt><trkpt lat="42.6680461501551" lon="13.264777945608209"><ele>775.6666666666667</ele><time>2026-04-18T09:17:47.999Z</time></trkpt><trkpt lat="42.667893631993934" lon="13.264686576968733"><ele>775.3333333333333</ele><time>2026-04-18T09:17:48.999Z</time></trkpt><trkpt lat="42.6677408690695" lon="13.264602083422867"><ele>775.0</ele><time>2026-04-18T09:17:49.999Z</time></trkpt><trkpt lat="42.66758346027962" lon="13.26452909064156"><ele>776.3333333333333</ele><time>2026-04-18T09:17:50.999Z</time></trkpt><trkpt lat="42.66742112133473" lon="13.26446484032719"><ele>777.6666666666667</ele><time>2026-04-18T09:17:51.999Z</time></trkpt><trkpt lat="42.66725672432457" lon="13.264408409640561"><ele>779.0</ele><time>2026-04-18T09:17:52.999Z</time></trkpt><trkpt lat="42.66709143506352" lon="13.26435958747209"><ele>779.3333333333334</ele><time>2026-04-18T09:17:53.999Z</time></trkpt><trkpt lat="42.6669236121563" lon="13.264328844024762"><ele>779.6666666666667</ele><time>2026-04-18T09:17:54.999Z</time></trkpt><trkpt lat="42.666755098818534" lon="13.264309745002578"><ele>780.0</ele><time>2026-04-18T09:17:55.999Z</time></trkpt><trkpt lat="42.666587016627695" lon="13.26430159281125"><ele>780.0</ele><time>2026-04-18T09:17:56.999Z</time></trkpt><trkpt lat="42.66641834077597" lon="13.264301176438178"><ele>780.0</ele><time>2026-04-18T09:17:57.999Z</time></trkpt><trkpt lat="42.666251678020636" lon="13.264320137693844"><ele>780.0</ele><time>2026-04-18T09:17:58.999Z</time></trkpt><trkpt lat="42.666085265642955" lon="13.264352970410293"><ele>780.3333333333333</ele><time>2026-04-18T09:17:59.999Z</time></trkpt><trkpt lat="42.66592072318662" lon="13.264388438352807"><ele>780.6666666666666</ele><time>2026-04-18T09:18:00.999Z</time></trkpt><trkpt lat="42.66575383441636" lon="13.264443203637168"><ele>781.0</ele><time>2026-04-18T09:18:01.999Z</time></trkpt><trkpt lat="42.66559188481559" lon="13.264511603296487"><ele>781.0</ele><time>2026-04-18T09:18:02.999Z</time></trkpt><trkpt lat="42.66542787599369" lon="13.264588946417541"><ele>781.0</ele><time>2026-04-18T09:18:03.999Z</time></trkpt><trkpt lat="42.66526505674838" lon="13.264676247743832"><ele>781.0</ele><time>2026-04-18T09:18:04.999Z</time></trkpt><trkpt lat="42.66510863011291" lon="13.264779407439073"><ele>781.0</ele><time>2026-04-18T09:18:05.999Z</time></trkpt><trkpt lat="42.66495663912467" lon="13.264893546494282"><ele>781.0</ele><time>2026-04-18T09:18:06.999Z</time></trkpt><trkpt lat="42.66480617347751" lon="13.265016369944387"><ele>781.0</ele><time>2026-04-18T09:18:07.999Z</time></trkpt><trkpt lat="42.66466064300192" lon="13.265151073022661"><ele>781.0</ele><time>2026-04-18T09:18:08.999Z</time></trkpt><trkpt lat="42.664522290881486" lon="13.265295938058292"><ele>781.0</ele><time>2026-04-18T09:18:09.999Z</time></trkpt><trkpt lat="42.664392776586546" lon="13.265458181988937"><ele>781.0</ele><time>2026-04-18T09:18:10.999Z</time></trkpt><trkpt lat="42.664270611211556" lon="13.265628831341628"><ele>780.6666666666666</ele><time>2026-04-18T09:18:11.999Z</time></trkpt><trkpt lat="42.66415564049291" lon="13.265805223269428"><ele>780.3333333333333</ele><time>2026-04-18T09:18:12.999Z</time></trkpt><trkpt lat="42.66404631990218" lon="13.265985310222408"><ele>780.0</ele><time>2026-04-18T09:18:13.999Z</time></trkpt><trkpt lat="42.66395234633591" lon="13.266165932001016"><ele>780.0</ele><time>2026-04-18T09:18:14.999Z</time></trkpt><trkpt lat="42.663839557412444" lon="13.266353775483188"><ele>780.0</ele><time>2026-04-18T09:18:15.999Z</time></trkpt><trkpt lat="42.66374788155848" lon="13.266567483898088"><ele>780.0</ele><time>2026-04-18T09:18:16.999Z</time></trkpt><trkpt lat="42.66365459080248" lon="13.266769859186647"><ele>781.0</ele><time>2026-04-18T09:18:17.999Z</time></trkpt><trkpt lat="42.66356105527682" lon="13.266969797851043"><ele>782.0</ele><time>2026-04-18T09:18:18.999Z</time></trkpt><trkpt lat="42.66346982009917" lon="13.26716633801196"><ele>783.0</ele><time>2026-04-18T09:18:19.999Z</time></trkpt><trkpt lat="42.66338131601795" lon="13.267369945894087"><ele>784.6666666666667</ele><time>2026-04-18T09:18:20.999Z</time></trkpt><trkpt lat="42.66329260432526" lon="13.267579346577628"><ele>786.3333333333334</ele><time>2026-04-18T09:18:21.999Z</time></trkpt><trkpt lat="42.66320444028638" lon="13.267784005143406"><ele>788.0</ele><time>2026-04-18T09:18:22.999Z</time></trkpt><trkpt lat="42.66310637022917" lon="13.267980623776356"><ele>790.6666666666667</ele><time>2026-04-18T09:18:23.999Z</time></trkpt><trkpt lat="42.66299572200434" lon="13.26815952885339"><ele>793.3333333333333</ele><time>2026-04-18T09:18:24.999Z</time></trkpt><trkpt lat="42.66287053154352" lon="13.268327444669868"><ele>796.0</ele><time>2026-04-18T09:18:25.999Z</time></trkpt><trkpt lat="42.6627346158051" lon="13.26848068725082"><ele>796.0</ele><time>2026-04-18T09:18:26.999Z</time></trkpt><trkpt lat="42.662594876208956" lon="13.268626955897023"><ele>796.0</ele><time>2026-04-18T09:18:27.999Z</time></trkpt><trkpt lat="42.66244303101359" lon="13.26875954341949"><ele>796.0</ele><time>2026-04-18T09:18:28.999Z</time></trkpt><trkpt lat="42.662284250721974" lon="13.268877170106142"><ele>799.6666666666666</ele><time>2026-04-18T09:18:29.999Z</time></trkpt><trkpt lat="42.6621176127697" lon="13.268992357377128"><ele>803.3333333333333</ele><time>2026-04-18T09:18:30.999Z</time></trkpt><trkpt lat="42.66195598083077" lon="13.269114131011166"><ele>807.0</ele><time>2026-04-18T09:18:32Z</time></trkpt><trkpt lat="42.661788098294785" lon="13.269248272139187"><ele>807.0</ele><time>2026-04-18T09:18:33Z</time></trkpt><trkpt lat="42.66162069462609" lon="13.269374261865527"><ele>807.0</ele><time>2026-04-18T09:18:34Z</time></trkpt><trkpt lat="42.66144574131641" lon="13.26949656210861"><ele>807.0</ele><time>2026-04-18T09:18:35Z</time></trkpt><trkpt lat="42.66126787124554" lon="13.269618449774411"><ele>810.6666666666667</ele><time>2026-04-18T09:18:36Z</time></trkpt><trkpt lat="42.66108822306319" lon="13.269742731301099"><ele>814.3333333333334</ele><time>2026-04-18T09:18:37Z</time></trkpt><trkpt lat="42.660912643522536" lon="13.269858775675205"><ele>818.0</ele><time>2026-04-18T09:18:38Z</time></trkpt><trkpt lat="42.66073531655454" lon="13.269968984983507"><ele>818.0</ele><time>2026-04-18T09:18:39Z</time></trkpt><trkpt lat="42.66055575549837" lon="13.270066701122078"><ele>818.0</ele><time>2026-04-18T09:18:40Z</time></trkpt><trkpt lat="42.66037356012672" lon="13.270154868961166"><ele>818.0</ele><time>2026-04-18T09:18:41Z</time></trkpt><trkpt lat="42.66019562240715" lon="13.27023528577857"><ele>813.3333333333334</ele><time>2026-04-18T09:18:42Z</time></trkpt><trkpt lat="42.66002125178229" lon="13.270316896962548"><ele>808.6666666666667</ele><time>2026-04-18T09:18:43Z</time></trkpt><trkpt lat="42.65984178312312" lon="13.270390037065216"><ele>804.0</ele><time>2026-04-18T09:18:44Z</time></trkpt><trkpt lat="42.659656443734605" lon="13.27045130046583"><ele>804.0</ele><time>2026-04-18T09:18:45Z</time></trkpt><trkpt lat="42.65947368808008" lon="13.27048945185358"><ele>804.0</ele><time>2026-04-18T09:18:46Z</time></trkpt><trkpt lat="42.659291785572265" lon="13.270510618461635"><ele>804.0</ele><time>2026-04-18T09:18:47Z</time></trkpt><trkpt lat="42.65910211425135" lon="13.270520154680733"><ele>802.0</ele><time>2026-04-18T09:18:48Z</time></trkpt><trkpt lat="42.6589185939851" lon="13.27052254455989"><ele>800.0</ele><time>2026-04-18T09:18:49Z</time></trkpt><trkpt lat="42.65873596760155" lon="13.270512343293465"><ele>798.0</ele><time>2026-04-18T09:18:50Z</time></trkpt><trkpt lat="42.658550587047536" lon="13.270491855726933"><ele>797.0</ele><time>2026-04-18T09:18:51Z</time></trkpt><trkpt lat="42.658370613647485" lon="13.270461926790063"><ele>796.0</ele><time>2026-04-18T09:18:52Z</time></trkpt><trkpt lat="42.65818803898439" lon="13.270434161287698"><ele>795.0</ele><time>2026-04-18T09:18:53Z</time></trkpt><trkpt lat="42.65800702836252" lon="13.270379317730619"><ele>795.0</ele><time>2026-04-18T09:18:54Z</time></trkpt><trkpt lat="42.65782302772003" lon="13.27034678232904"><ele>795.0</ele><time>2026-04-18T09:18:55Z</time></trkpt><trkpt lat="42.65763233280544" lon="13.270320263868678"><ele>795.0</ele><time>2026-04-18T09:18:56Z</time></trkpt><trkpt lat="42.65744642268139" lon="13.270318829705134"><ele>800.0</ele><time>2026-04-18T09:18:57Z</time></trkpt><trkpt lat="42.657258555325875" lon="13.270289130416398"><ele>805.0</ele><time>2026-04-18T09:18:58Z</time></trkpt><trkpt lat="42.657075309129375" lon="13.270263200716842"><ele>810.0</ele><time>2026-04-18T09:18:59Z</time></trkpt><trkpt lat="42.65689257123563" lon="13.27024040441183"><ele>818.6666666666667</ele><time>2026-04-18T09:19:00Z</time></trkpt><trkpt lat="42.65670738735056" lon="13.270226385471073"><ele>827.3333333333334</ele><time>2026-04-18T09:19:01Z</time></trkpt><trkpt lat="42.65652454508309" lon="13.270222248551608"><ele>836.0</ele><time>2026-04-18T09:19:02Z</time></trkpt><trkpt lat="42.65634248240185" lon="13.270235380469387"><ele>836.0</ele><time>2026-04-18T09:19:03Z</time></trkpt><trkpt lat="42.65616122554544" lon="13.270230429359284"><ele>836.0</ele><time>2026-04-18T09:19:04Z</time></trkpt><trkpt lat="42.655986884288225" lon="13.270274559014723"><ele>836.0</ele><time>2026-04-18T09:19:05Z</time></trkpt><trkpt lat="42.65581179903246" lon="13.27030853801955"><ele>841.3333333333334</ele><time>2026-04-18T09:19:06Z</time></trkpt><trkpt lat="42.6556361719078" lon="13.270358838123911"><ele>846.6666666666667</ele><time>2026-04-18T09:19:07Z</time></trkpt><trkpt lat="42.65545914383894" lon="13.270420261782089"><ele>852.0</ele><time>2026-04-18T09:19:08Z</time></trkpt><trkpt lat="42.65528278602057" lon="13.270485904749432"><ele>847.6666666666667</ele><time>2026-04-18T09:19:09Z</time></trkpt><trkpt lat="42.655103764052036" lon="13.270551098401516"><ele>843.3333333333334</ele><time>2026-04-18T09:19:10Z</time></trkpt><trkpt lat="42.654924245579444" lon="13.270616810388011"><ele>839.0</ele><time>2026-04-18T09:19:11Z</time></trkpt><trkpt lat="42.654745186760195" lon="13.270677818931789"><ele>839.0</ele><time>2026-04-18T09:19:12Z</time></trkpt><trkpt lat="42.65456254139808" lon="13.270737768609264"><ele>839.0</ele><time>2026-04-18T09:19:13Z</time></trkpt><trkpt lat="42.654383587688464" lon="13.270794697869533"><ele>839.0</ele><time>2026-04-18T09:19:14Z</time></trkpt><trkpt lat="42.654201253514586" lon="13.270842377997445"><ele>843.3333333333334</ele><time>2026-04-18T09:19:15Z</time></trkpt><trkpt lat="42.65401946894295" lon="13.270879438787814"><ele>847.6666666666667</ele><time>2026-04-18T09:19:16Z</time></trkpt><trkpt lat="42.653837904565" lon="13.270900944732247"><ele>852.0</ele><time>2026-04-18T09:19:17Z</time></trkpt><trkpt lat="42.65365459578516" lon="13.270905815433304"><ele>854.0</ele><time>2026-04-18T09:19:18Z</time></trkpt><trkpt lat="42.65347072382786" lon="13.270899247079736"><ele>856.0</ele><time>2026-04-18T09:19:19Z</time></trkpt><trkpt lat="42.65328908315355" lon="13.27088341675751"><ele>858.0</ele><time>2026-04-18T09:19:20Z</time></trkpt><trkpt lat="42.6531126730178" lon="13.270857362042515"><ele>858.0</ele><time>2026-04-18T09:19:21Z</time></trkpt><trkpt lat="42.65293338229255" lon="13.270817373579872"><ele>858.0</ele><time>2026-04-18T09:19:22Z</time></trkpt><trkpt lat="42.65275345297357" lon="13.27077312189394"><ele>858.0</ele><time>2026-04-18T09:19:23Z</time></trkpt><trkpt lat="42.652575500650315" lon="13.270735941991166"><ele>859.3333333333333</ele><time>2026-04-18T09:19:24Z</time></trkpt><trkpt lat="42.65239490016147" lon="13.270701772358397"><ele>860.6666666666666</ele><time>2026-04-18T09:19:25Z</time></trkpt><trkpt lat="42.65221348357757" lon="13.270666581007797"><ele>862.0</ele><time>2026-04-18T09:19:26Z</time></trkpt><trkpt lat="42.6520306014159" lon="13.270627151337631"><ele>868.3333333333333</ele><time>2026-04-18T09:19:27Z</time></trkpt><trkpt lat="42.65184763688381" lon="13.270589740157378"><ele>874.6666666666667</ele><time>2026-04-18T09:19:28Z</time></trkpt><trkpt lat="42.65166438511756" lon="13.27054914533325"><ele>881.0</ele><time>2026-04-18T09:19:29Z</time></trkpt><trkpt lat="42.65148287622702" lon="13.270509197478566"><ele>881.0</ele><time>2026-04-18T09:19:30Z</time></trkpt><trkpt lat="42.65130277969888" lon="13.270466914274099"><ele>881.0</ele><time>2026-04-18T09:19:31Z</time></trkpt><trkpt lat="42.65112102217728" lon="13.270426858652899"><ele>881.0</ele><time>2026-04-18T09:19:32Z</time></trkpt><trkpt lat="42.650940932581136" lon="13.270387046912747"><ele>880.3333333333334</ele><time>2026-04-18T09:19:33Z</time></trkpt><trkpt lat="42.650762325313735" lon="13.270346247574643"><ele>879.6666666666667</ele><time>2026-04-18T09:19:34Z</time></trkpt><trkpt lat="42.650580428657044" lon="13.270303641115653"><ele>879.0</ele><time>2026-04-18T09:19:35Z</time></trkpt><trkpt lat="42.65039698579433" lon="13.270263828864659"><ele>880.3333333333333</ele><time>2026-04-18T09:19:36Z</time></trkpt><trkpt lat="42.650211504590736" lon="13.270223131600835"><ele>881.6666666666666</ele><time>2026-04-18T09:19:37Z</time></trkpt><trkpt lat="42.65002539319783" lon="13.270183173819154"><ele>883.0</ele><time>2026-04-18T09:19:38Z</time></trkpt><trkpt lat="42.6498424136768" lon="13.270148289815024"><ele>883.0</ele><time>2026-04-18T09:19:39Z</time></trkpt><trkpt lat="42.649658962731735" lon="13.270110513385532"><ele>883.0</ele><time>2026-04-18T09:19:40Z</time></trkpt><trkpt lat="42.649470606494546" lon="13.27007130249815"><ele>883.0</ele><time>2026-04-18T09:19:41Z</time></trkpt><trkpt lat="42.64928232190544" lon="13.270032372460461"><ele>886.0</ele><time>2026-04-18T09:19:42Z</time></trkpt><trkpt lat="42.64909050503985" lon="13.269985593252498"><ele>889.0</ele><time>2026-04-18T09:19:43Z</time></trkpt><trkpt lat="42.648892998306145" lon="13.269934006938108"><ele>892.0</ele><time>2026-04-18T09:19:44Z</time></trkpt><trkpt lat="42.64869187374655" lon="13.269880800027854"><ele>892.0</ele><time>2026-04-18T09:19:45Z</time></trkpt><trkpt lat="42.64848793149078" lon="13.269833022656298"><ele>892.0</ele><time>2026-04-18T09:19:46Z</time></trkpt><trkpt lat="42.64828054641434" lon="13.269792085666442"><ele>892.0</ele><time>2026-04-18T09:19:47Z</time></trkpt><trkpt lat="42.648063716978896" lon="13.269752905092316"><ele>897.6666666666666</ele><time>2026-04-18T09:19:48.042Z</time></trkpt><trkpt lat="42.64785344557075" lon="13.26971903520956"><ele>903.3333333333333</ele><time>2026-04-18T09:19:49.045Z</time></trkpt><trkpt lat="42.64765851576296" lon="13.269700469533053"><ele>909.0</ele><time>2026-04-18T09:19:49.999Z</time></trkpt><trkpt lat="42.647480980716345" lon="13.269762890697383"><ele>903.6666666666667</ele><time>2026-04-18T09:19:50.999Z</time></trkpt><trkpt lat="42.64734385786219" lon="13.269807305374927"><ele>898.3333333333334</ele><time>2026-04-18T09:19:51.999Z</time></trkpt><trkpt lat="42.64715569247232" lon="13.269823438357497"><ele>893.0</ele><time>2026-04-18T09:19:52.999Z</time></trkpt><trkpt lat="42.6469712453007" lon="13.269838720880204"><ele>893.6666666666667</ele><time>2026-04-18T09:19:53.999Z</time></trkpt><trkpt lat="42.64678742716948" lon="13.269864354476166"><ele>894.3333333333333</ele><time>2026-04-18T09:19:54.999Z</time></trkpt><trkpt lat="42.64660459797153" lon="13.269888505770096"><ele>895.0</ele><time>2026-04-18T09:19:55.999Z</time></trkpt><trkpt lat="42.646425600530385" lon="13.269913668771732"><ele>895.0</ele><time>2026-04-18T09:19:56.999Z</time></trkpt><trkpt lat="42.64624511342517" lon="13.26993092040341"><ele>895.0</ele><time>2026-04-18T09:19:57.999Z</time></trkpt><trkpt lat="42.64606638966142" lon="13.269936502342258"><ele>895.0</ele><time>2026-04-18T09:19:58.999Z</time></trkpt><trkpt lat="42.645887316657365" lon="13.269926809541618"><ele>895.6666666666666</ele><time>2026-04-18T09:19:59.999Z</time></trkpt><trkpt lat="42.64570563932845" lon="13.269901382573863"><ele>896.3333333333333</ele><time>2026-04-18T09:20:00.999Z</time></trkpt><trkpt lat="42.64552631505177" lon="13.26985961387988"><ele>897.0</ele><time>2026-04-18T09:20:01.999Z</time></trkpt><trkpt lat="42.645345914756724" lon="13.269795073098246"><ele>904.6666666666667</ele><time>2026-04-18T09:20:02.999Z</time></trkpt><trkpt lat="42.64517016213922" lon="13.269712933874205"><ele>912.3333333333334</ele><time>2026-04-18T09:20:03.999Z</time></trkpt><trkpt lat="42.644997452980725" lon="13.269614951612661"><ele>920.0</ele><time>2026-04-18T09:20:04.999Z</time></trkpt><trkpt lat="42.644822339062166" lon="13.269498157171538"><ele>920.0</ele><time>2026-04-18T09:20:05.999Z</time></trkpt><trkpt lat="42.64465596425876" lon="13.269373994823587"><ele>920.0</ele><time>2026-04-18T09:20:06.999Z</time></trkpt><trkpt lat="42.644495365869446" lon="13.2692293848488"><ele>920.0</ele><time>2026-04-18T09:20:07.999Z</time></trkpt><trkpt lat="42.64434143087299" lon="13.269070872458904"><ele>918.3333333333334</ele><time>2026-04-18T09:20:08.999Z</time></trkpt><trkpt lat="42.64419114593276" lon="13.268897152176887"><ele>916.6666666666667</ele><time>2026-04-18T09:20:09.999Z</time></trkpt><trkpt lat="42.64405126450465" lon="13.268702391284602"><ele>915.0</ele><time>2026-04-18T09:20:10.999Z</time></trkpt><trkpt lat="42.643926202355" lon="13.26850349205937"><ele>915.0</ele><time>2026-04-18T09:20:11.999Z</time></trkpt><trkpt lat="42.64380716710735" lon="13.268293749607876"><ele>915.0</ele><time>2026-04-18T09:20:12.999Z</time></trkpt><trkpt lat="42.643698105093804" lon="13.26807687188114"><ele>915.0</ele><time>2026-04-18T09:20:13.999Z</time></trkpt><trkpt lat="42.6436033604581" lon="13.267852600785208"><ele>908.6666666666667</ele><time>2026-04-18T09:20:14.999Z</time></trkpt><trkpt lat="42.64351322351814" lon="13.267623357753603"><ele>902.3333333333334</ele><time>2026-04-18T09:20:15.999Z</time></trkpt><trkpt lat="42.64343609126106" lon="13.267388163742233"><ele>896.0</ele><time>2026-04-18T09:20:16.999Z</time></trkpt><trkpt lat="42.643391496832486" lon="13.267145298768824"><ele>896.0</ele><time>2026-04-18T09:20:17.999Z</time></trkpt><trkpt lat="42.643322736776746" lon="13.266910335011586"><ele>896.0</ele><time>2026-04-18T09:20:18.999Z</time></trkpt><trkpt lat="42.643277557755674" lon="13.266664866647844"><ele>896.0</ele><time>2026-04-18T09:20:19.999Z</time></trkpt><trkpt lat="42.643239332286285" lon="13.266417581786763"><ele>899.6666666666667</ele><time>2026-04-18T09:20:20.999Z</time></trkpt><trkpt lat="42.643211544338605" lon="13.266162440641718"><ele>903.3333333333333</ele><time>2026-04-18T09:20:21.999Z</time></trkpt><trkpt lat="42.643197814777224" lon="13.265915139244752"><ele>907.0</ele><time>2026-04-18T09:20:22.999Z</time></trkpt><trkpt lat="42.643182984003154" lon="13.26566301320413"><ele>910.0</ele><time>2026-04-18T09:20:23.999Z</time></trkpt><trkpt lat="42.64316705220206" lon="13.26540506783961"><ele>913.0</ele><time>2026-04-18T09:20:24.999Z</time></trkpt><trkpt lat="42.643152631284224" lon="13.265159425471044"><ele>916.0</ele><time>2026-04-18T09:20:25.999Z</time></trkpt><trkpt lat="42.6431396365669" lon="13.264914609411047"><ele>916.3333333333333</ele><time>2026-04-18T09:20:26.999Z</time></trkpt><trkpt lat="42.64312414874664" lon="13.264671491596022"><ele>916.6666666666667</ele><time>2026-04-18T09:20:27.999Z</time></trkpt><trkpt lat="42.64310982713752" lon="13.2644399405144"><ele>917.0</ele><time>2026-04-18T09:20:28.999Z</time></trkpt><trkpt lat="42.643098001465745" lon="13.264218559898973"><ele>917.0</ele><time>2026-04-18T09:20:29.999Z</time></trkpt><trkpt lat="42.64309110800743" lon="13.264019299884815"><ele>917.0</ele><time>2026-04-18T09:20:30.999Z</time></trkpt><trkpt lat="42.643085123016" lon="13.263848502810577"><ele>917.0</ele><time>2026-04-18T09:20:31.999Z</time></trkpt><trkpt lat="42.64310148950198" lon="13.26370813119404"><ele>917.0</ele><time>2026-04-18T09:20:32.999Z</time></trkpt><trkpt lat="42.643130580758886" lon="13.263590509349083"><ele>917.0</ele><time>2026-04-18T09:20:33.998Z</time></trkpt><trkpt lat="42.64321662818415" lon="13.263490970528219"><ele>917.0</ele><time>2026-04-18T09:20:34.998Z</time></trkpt><trkpt lat="42.64334163787824" lon="13.263414516403571"><ele>917.0</ele><time>2026-04-18T09:20:35.998Z</time></trkpt><trkpt lat="42.64342358223873" lon="13.263294550373738"><ele>917.0</ele><time>2026-04-18T09:20:36.998Z</time></trkpt><trkpt lat="42.643486343643914" lon="13.263134633953042"><ele>916.75</ele><time>2026-04-18T09:20:38Z</time></trkpt><trkpt lat="42.64350878556381" lon="13.2629480176432"><ele>916.5</ele><time>2026-04-18T09:20:39Z</time></trkpt><trkpt lat="42.643492235390475" lon="13.262742321693446"><ele>916.25</ele><time>2026-04-18T09:20:40Z</time></trkpt><trkpt lat="42.643475643047346" lon="13.262533870446365"><ele>916.0</ele><time>2026-04-18T09:20:41Z</time></trkpt><trkpt lat="42.64345595749175" lon="13.262331276771889"><ele>916.5</ele><time>2026-04-18T09:20:42Z</time></trkpt><trkpt lat="42.64343362740705" lon="13.262146747317832"><ele>917.0</ele><time>2026-04-18T09:20:43Z</time></trkpt><trkpt lat="42.64341037403246" lon="13.261980884856143"><ele>917.5</ele><time>2026-04-18T09:20:44Z</time></trkpt><trkpt lat="42.64338752410457" lon="13.261828052969632"><ele>918.0</ele><time>2026-04-18T09:20:45Z</time></trkpt><trkpt lat="42.64337134701493" lon="13.261675970132307"><ele>918.0</ele><time>2026-04-18T09:20:46Z</time></trkpt><trkpt lat="42.64335817491603" lon="13.261550173622645"><ele>918.0</ele><time>2026-04-18T09:20:47Z</time></trkpt><trkpt lat="42.643338916291306" lon="13.261458040223546"><ele>918.0</ele><time>2026-04-18T09:20:48Z</time></trkpt><trkpt lat="42.6432717575045" lon="13.26133239489081"><ele>918.0</ele><time>2026-04-18T09:20:50Z</time></trkpt><trkpt lat="42.64311466915852" lon="13.26125586561758"><ele>918.0</ele><time>2026-04-18T09:20:52Z</time></trkpt><trkpt lat="42.64300832202372" lon="13.261256648131102"><ele>917.25</ele><time>2026-04-18T09:20:53Z</time></trkpt><trkpt lat="42.642892370077035" lon="13.261251884636227"><ele>916.5</ele><time>2026-04-18T09:20:54Z</time></trkpt><trkpt lat="42.64276891280156" lon="13.261249250176293"><ele>915.75</ele><time>2026-04-18T09:20:55Z</time></trkpt><trkpt lat="42.64264353199449" lon="13.261240549827791"><ele>915.0</ele><time>2026-04-18T09:20:56Z</time></trkpt><trkpt lat="42.64252550768308" lon="13.261228648050738"><ele>913.8</ele><time>2026-04-18T09:20:57Z</time></trkpt><trkpt lat="42.6424109972217" lon="13.26122073617929"><ele>912.6</ele><time>2026-04-18T09:20:58Z</time></trkpt><trkpt lat="42.64229855660806" lon="13.261222539594844"><ele>911.4000000000001</ele><time>2026-04-18T09:20:59Z</time></trkpt><trkpt lat="42.64219084816665" lon="13.261243443066956"><ele>910.2</ele><time>2026-04-18T09:21:00Z</time></trkpt><trkpt lat="42.64209336366199" lon="13.261289820604315"><ele>909.0</ele><time>2026-04-18T09:21:01Z</time></trkpt><trkpt lat="42.64201200128639" lon="13.261364299989168"><ele>909.1666666666666</ele><time>2026-04-18T09:21:02Z</time></trkpt><trkpt lat="42.64195334717688" lon="13.261457622544814"><ele>909.3333333333333</ele><time>2026-04-18T09:21:02.999Z</time></trkpt><trkpt lat="42.64192375210539" lon="13.2615671174826"><ele>909.5</ele><time>2026-04-18T09:21:03.999Z</time></trkpt><trkpt lat="42.641926321818296" lon="13.261681050871994"><ele>909.6666666666666</ele><time>2026-04-18T09:21:04.999Z</time></trkpt><trkpt lat="42.64194631701704" lon="13.261785202295169"><ele>909.8333333333333</ele><time>2026-04-18T09:21:05.999Z</time></trkpt><trkpt lat="42.64198073365036" lon="13.261881733211947"><ele>910.0</ele><time>2026-04-18T09:21:06.999Z</time></trkpt><trkpt lat="42.642036970662694" lon="13.261969766815039"><ele>910.0</ele><time>2026-04-18T09:21:07.999Z</time></trkpt><trkpt lat="42.64211132002235" lon="13.262040963906937"><ele>910.0</ele><time>2026-04-18T09:21:08.999Z</time></trkpt><trkpt lat="42.64218659349483" lon="13.262115198453426"><ele>910.0</ele><time>2026-04-18T09:21:09.999Z</time></trkpt><trkpt lat="42.64225993072096" lon="13.26219363460855"><ele>910.0</ele><time>2026-04-18T09:21:10.999Z</time></trkpt><trkpt lat="42.6423309150113" lon="13.262274845752396"><ele>910.0</ele><time>2026-04-18T09:21:11.999Z</time></trkpt><trkpt lat="42.64239521389623" lon="13.262361312599957"><ele>908.8</ele><time>2026-04-18T09:21:12.999Z</time></trkpt><trkpt lat="42.64245558676669" lon="13.262454971964875"><ele>907.6</ele><time>2026-04-18T09:21:13.999Z</time></trkpt><trkpt lat="42.64251199646239" lon="13.262549972602153"><ele>906.4000000000001</ele><time>2026-04-18T09:21:14.999Z</time></trkpt><trkpt lat="42.642559765185396" lon="13.262651675169055"><ele>905.2</ele><time>2026-04-18T09:21:15.999Z</time></trkpt><trkpt lat="42.64260709314584" lon="13.262756956319269"><ele>904.0</ele><time>2026-04-18T09:21:16.999Z</time></trkpt><trkpt lat="42.642649908295084" lon="13.262872870292238"><ele>904.0</ele><time>2026-04-18T09:21:17.999Z</time></trkpt><trkpt lat="42.64267278552986" lon="13.263004994822378"><ele>904.0000000000001</ele><time>2026-04-18T09:21:18.999Z</time></trkpt><trkpt lat="42.64267297895789" lon="13.263142367462612"><ele>904.0000000000001</ele><time>2026-04-18T09:21:19.999Z</time></trkpt><trkpt lat="42.64264406764983" lon="13.263270311346012"><ele>904.0</ele><time>2026-04-18T09:21:20.999Z</time></trkpt><trkpt lat="42.642603581770224" lon="13.263401362634017"><ele>904.0</ele><time>2026-04-18T09:21:21.999Z</time></trkpt><trkpt lat="42.642558274886234" lon="13.263533766372996"><ele>903.4000000000001</ele><time>2026-04-18T09:21:22.999Z</time></trkpt><trkpt lat="42.642516652128144" lon="13.263672937895507"><ele>902.8000000000001</ele><time>2026-04-18T09:21:23.999Z</time></trkpt><trkpt lat="42.642479970453316" lon="13.263818562984996"><ele>902.1999999999999</ele><time>2026-04-18T09:21:24.999Z</time></trkpt><trkpt lat="42.6424457898158" lon="13.263960293862509"><ele>901.5999999999999</ele><time>2026-04-18T09:21:25.999Z</time></trkpt><trkpt lat="42.64240754326229" lon="13.264102888076161"><ele>901.0</ele><time>2026-04-18T09:21:26.999Z</time></trkpt><trkpt lat="42.6423627485318" lon="13.264240280299965"><ele>901.0</ele><time>2026-04-18T09:21:27.999Z</time></trkpt><trkpt lat="42.642313083766666" lon="13.264372605982446"><ele>900.9999999999999</ele><time>2026-04-18T09:21:28.999Z</time></trkpt><trkpt lat="42.64224863926654" lon="13.264493431717352"><ele>900.9999999999999</ele><time>2026-04-18T09:21:29.999Z</time></trkpt><trkpt lat="42.642167813502574" lon="13.264601436157669"><ele>901.0</ele><time>2026-04-18T09:21:30.999Z</time></trkpt><trkpt lat="42.64207858884509" lon="13.264694572082188"><ele>901.0</ele><time>2026-04-18T09:21:31.999Z</time></trkpt><trkpt lat="42.64198438673245" lon="13.26478680722853"><ele>897.75</ele><time>2026-04-18T09:21:32.999Z</time></trkpt><trkpt lat="42.641893789350824" lon="13.264881184833165"><ele>894.5</ele><time>2026-04-18T09:21:33.999Z</time></trkpt><trkpt lat="42.64180306688178" lon="13.264979856856288"><ele>891.25</ele><time>2026-04-18T09:21:34.999Z</time></trkpt><trkpt lat="42.64171865701065" lon="13.265076172525303"><ele>888.0</ele><time>2026-04-18T09:21:35.999Z</time></trkpt><trkpt lat="42.64163581521131" lon="13.26517328451046"><ele>888.0</ele><time>2026-04-18T09:21:36.999Z</time></trkpt><trkpt lat="42.64155639044593" lon="13.26527195595486"><ele>888.0</ele><time>2026-04-18T09:21:37.999Z</time></trkpt><trkpt lat="42.641480124587744" lon="13.265371505073446"><ele>888.0</ele><time>2026-04-18T09:21:38.999Z</time></trkpt><trkpt lat="42.64140919006718" lon="13.265473386129692"><ele>888.0</ele><time>2026-04-18T09:21:39.999Z</time></trkpt><trkpt lat="42.641346869489226" lon="13.26556852786534"><ele>888.0</ele><time>2026-04-18T09:21:40.999Z</time></trkpt><trkpt lat="42.64129906274373" lon="13.265656149959112"><ele>888.0</ele><time>2026-04-18T09:21:41.999Z</time></trkpt><trkpt lat="42.64122914442693" lon="13.265763457496679"><ele>888.0</ele><time>2026-04-18T09:21:43.999Z</time></trkpt><trkpt lat="42.64116217864396" lon="13.26570712368359"><ele>888.0</ele><time>2026-04-18T09:21:46.999Z</time></trkpt><trkpt lat="42.6412177162471" lon="13.265654065532235"><ele>888.0</ele><time>2026-04-18T09:21:47.999Z</time></trkpt><trkpt lat="42.641239304593356" lon="13.265482309299625"><ele>888.0</ele><time>2026-04-18T09:21:49.999Z</time></trkpt><trkpt lat="42.641251355286" lon="13.265379725391565"><ele>888.0</ele><time>2026-04-18T09:21:50.999Z</time></trkpt><trkpt lat="42.64125834733478" lon="13.265287857893153"><ele>888.0</ele><time>2026-04-18T09:21:51.999Z</time></trkpt><trkpt lat="42.641242880404256" lon="13.2651988396202"><ele>888.0</ele><time>2026-04-18T09:21:52.999Z</time></trkpt><trkpt lat="42.641253439899316" lon="13.26510456074935"><ele>888.0</ele><time>2026-04-18T09:21:53.999Z</time></trkpt><trkpt lat="42.64123269167079" lon="13.265002406152629"><ele>888.0</ele><time>2026-04-18T09:21:54.999Z</time></trkpt><trkpt lat="42.641204169553355" lon="13.264896794787127"><ele>888.0</ele><time>2026-04-18T09:21:55.999Z</time></trkpt><trkpt lat="42.64116834448178" lon="13.264791256850863"><ele>885.0</ele><time>2026-04-18T09:21:56.999Z</time></trkpt><trkpt lat="42.64112837245131" lon="13.264682545639081"><ele>882.0</ele><time>2026-04-18T09:21:57.999Z</time></trkpt><trkpt lat="42.641081935095855" lon="13.264567863371058"><ele>879.0</ele><time>2026-04-18T09:21:58.999Z</time></trkpt><trkpt lat="42.641030065601164" lon="13.264451553587254"><ele>876.0</ele><time>2026-04-18T09:21:59.999Z</time></trkpt><trkpt lat="42.64097536948853" lon="13.264350767131795"><ele>873.0</ele><time>2026-04-18T09:22:00.999Z</time></trkpt><trkpt lat="42.640905303127454" lon="13.264220048556599"><ele>873.0</ele><time>2026-04-18T09:22:01.999Z</time></trkpt><trkpt lat="42.64084120058756" lon="13.264094198688843"><ele>873.0</ele><time>2026-04-18T09:22:02.999Z</time></trkpt><trkpt lat="42.640777645021274" lon="13.26396942264912"><ele>873.0</ele><time>2026-04-18T09:22:03.999Z</time></trkpt><trkpt lat="42.640715186699296" lon="13.263846800752356"><ele>873.0</ele><time>2026-04-18T09:22:04.999Z</time></trkpt><trkpt lat="42.640653691991716" lon="13.263726070704456"><ele>873.0</ele><time>2026-04-18T09:22:05.999Z</time></trkpt><trkpt lat="42.640592835330445" lon="13.263606593311751"><ele>873.2</ele><time>2026-04-18T09:22:06.999Z</time></trkpt><trkpt lat="42.640530747823654" lon="13.263486280499091"><ele>873.4</ele><time>2026-04-18T09:22:07.999Z</time></trkpt><trkpt lat="42.640470611823325" lon="13.26337013403362"><ele>873.6000000000001</ele><time>2026-04-18T09:22:08.999Z</time></trkpt><trkpt lat="42.64041023718621" lon="13.263252890927738"><ele>873.8000000000001</ele><time>2026-04-18T09:22:09.999Z</time></trkpt><trkpt lat="42.640344151210506" lon="13.263142387260892"><ele>874.0</ele><time>2026-04-18T09:22:10.999Z</time></trkpt><trkpt lat="42.640290665450756" lon="13.263033347915439"><ele>873.9999999999999</ele><time>2026-04-18T09:22:11.999Z</time></trkpt><trkpt lat="42.640251393893166" lon="13.262929999207595"><ele>874.0</ele><time>2026-04-18T09:22:12.999Z</time></trkpt><trkpt lat="42.64021842250965" lon="13.262838520344406"><ele>874.0</ele><time>2026-04-18T09:22:13.999Z</time></trkpt><trkpt lat="42.64019599175897" lon="13.262747476264003"><ele>874.0</ele><time>2026-04-18T09:22:14.999Z</time></trkpt><trkpt lat="42.640178291596044" lon="13.262650868211056"><ele>873.9999999999999</ele><time>2026-04-18T09:22:15.999Z</time></trkpt><trkpt lat="42.64016189125966" lon="13.262541064288072"><ele>874.0</ele><time>2026-04-18T09:22:16.999Z</time></trkpt><trkpt lat="42.64014317878776" lon="13.26242119248802"><ele>873.9999999999999</ele><time>2026-04-18T09:22:17.999Z</time></trkpt><trkpt lat="42.64012210968139" lon="13.26229989622596"><ele>874.0</ele><time>2026-04-18T09:22:18.999Z</time></trkpt><trkpt lat="42.640088005958084" lon="13.262193510197866"><ele>874.0</ele><time>2026-04-18T09:22:19.999Z</time></trkpt><trkpt lat="42.64005575358064" lon="13.262094923041694"><ele>874.0</ele><time>2026-04-18T09:22:20.999Z</time></trkpt><trkpt lat="42.64000506343437" lon="13.262027403142271"><ele>873.9999999999999</ele><time>2026-04-18T09:22:21.999Z</time></trkpt><trkpt lat="42.63995588812187" lon="13.261929512578252"><ele>874.0</ele><time>2026-04-18T09:22:22.999Z</time></trkpt><trkpt lat="42.639887503398754" lon="13.261838263688892"><ele>874.6666666666666</ele><time>2026-04-18T09:22:23.999Z</time></trkpt><trkpt lat="42.639821839772715" lon="13.261751000518505"><ele>875.3333333333333</ele><time>2026-04-18T09:22:24.999Z</time></trkpt><trkpt lat="42.639760626053786" lon="13.261648551281265"><ele>876.0</ele><time>2026-04-18T09:22:25.999Z</time></trkpt><trkpt lat="42.639714155853454" lon="13.261555930435515"><ele>876.6666666666667</ele><time>2026-04-18T09:22:26.999Z</time></trkpt><trkpt lat="42.639667618127035" lon="13.261449228778991"><ele>877.3333333333334</ele><time>2026-04-18T09:22:27.999Z</time></trkpt><trkpt lat="42.639631654187724" lon="13.261350028569954"><ele>878.0</ele><time>2026-04-18T09:22:28.999Z</time></trkpt><trkpt lat="42.6396070985264" lon="13.26124167175878"><ele>878.0000000000001</ele><time>2026-04-18T09:22:29.999Z</time></trkpt><trkpt lat="42.63960659203" lon="13.261141501272427"><ele>878.0</ele><time>2026-04-18T09:22:30.999Z</time></trkpt><trkpt lat="42.639615118912985" lon="13.261030510423963"><ele>878.0</ele><time>2026-04-18T09:22:31.999Z</time></trkpt><trkpt lat="42.639624483754424" lon="13.260924173556669"><ele>878.0</ele><time>2026-04-18T09:22:32.999Z</time></trkpt><trkpt lat="42.63963988448276" lon="13.26080862474979"><ele>878.0000000000001</ele><time>2026-04-18T09:22:33.999Z</time></trkpt><trkpt lat="42.63965826047908" lon="13.26071317453472"><ele>878.0</ele><time>2026-04-18T09:22:34.999Z</time></trkpt><trkpt lat="42.639690003070925" lon="13.260608317296729"><ele>878.1666666666667</ele><time>2026-04-18T09:22:35.999Z</time></trkpt><trkpt lat="42.63972209246912" lon="13.260506551218018"><ele>878.3333333333334</ele><time>2026-04-18T09:22:36.999Z</time></trkpt><trkpt lat="42.639734369693635" lon="13.260394946541627"><ele>878.5</ele><time>2026-04-18T09:22:37.999Z</time></trkpt><trkpt lat="42.63972171222005" lon="13.260276424680322"><ele>878.6666666666667</ele><time>2026-04-18T09:22:38.999Z</time></trkpt><trkpt lat="42.639675188986544" lon="13.260174811327984"><ele>878.8333333333334</ele><time>2026-04-18T09:22:39.999Z</time></trkpt><trkpt lat="42.639621291729064" lon="13.260092289409412"><ele>879.0</ele><time>2026-04-18T09:22:40.999Z</time></trkpt><trkpt lat="42.63957011875458" lon="13.260008096583123"><ele>879.0</ele><time>2026-04-18T09:22:41.999Z</time></trkpt><trkpt lat="42.63952795426157" lon="13.25993162889812"><ele>879.0</ele><time>2026-04-18T09:22:43Z</time></trkpt><trkpt lat="42.63948455558721" lon="13.259860218995238"><ele>879.0</ele><time>2026-04-18T09:22:44Z</time></trkpt><trkpt lat="42.63942773685622" lon="13.259770924131296"><ele>879.0</ele><time>2026-04-18T09:22:46Z</time></trkpt><trkpt lat="42.63935352950996" lon="13.259753708495072"><ele>879.0</ele><time>2026-04-18T09:22:50Z</time></trkpt><trkpt lat="42.63942472186444" lon="13.259793861381672"><ele>879.0</ele><time>2026-04-18T09:22:56Z</time></trkpt><trkpt lat="42.639479556335715" lon="13.259887780277912"><ele>879.0</ele><time>2026-04-18T09:22:59Z</time></trkpt><trkpt lat="42.63955714869793" lon="13.259987364983544"><ele>879.0</ele><time>2026-04-18T09:23:01Z</time></trkpt><trkpt lat="42.639592678936594" lon="13.260062244823757"><ele>879.0</ele><time>2026-04-18T09:23:02Z</time></trkpt><trkpt lat="42.63962668188871" lon="13.260145533114006"><ele>879.0</ele><time>2026-04-18T09:23:03Z</time></trkpt><trkpt lat="42.63965733755084" lon="13.2602299139892"><ele>879.0</ele><time>2026-04-18T09:23:04Z</time></trkpt><trkpt lat="42.63967766531745" lon="13.26032122612594"><ele>879.0</ele><time>2026-04-18T09:23:05Z</time></trkpt><trkpt lat="42.63968747188837" lon="13.260423044810821"><ele>879.0</ele><time>2026-04-18T09:23:06Z</time></trkpt><trkpt lat="42.63967771272433" lon="13.260530503853493"><ele>879.0</ele><time>2026-04-18T09:23:07Z</time></trkpt><trkpt lat="42.63963993193516" lon="13.260632081003587"><ele>879.0</ele><time>2026-04-18T09:23:08Z</time></trkpt><trkpt lat="42.63959823574689" lon="13.260724191873956"><ele>879.0</ele><time>2026-04-18T09:23:09Z</time></trkpt><trkpt lat="42.63958455698161" lon="13.260835760757198"><ele>879.0</ele><time>2026-04-18T09:23:10Z</time></trkpt><trkpt lat="42.63957104328248" lon="13.260946776896981"><ele>879.0</ele><time>2026-04-18T09:23:11Z</time></trkpt><trkpt lat="42.63956311865222" lon="13.261062736809198"><ele>878.8333333333334</ele><time>2026-04-18T09:23:12Z</time></trkpt><trkpt lat="42.63954730461424" lon="13.261180173112482"><ele>878.6666666666667</ele><time>2026-04-18T09:23:13Z</time></trkpt><trkpt lat="42.63955940627761" lon="13.261292017597341"><ele>878.5</ele><time>2026-04-18T09:23:14Z</time></trkpt><trkpt lat="42.639584105889064" lon="13.261383200238873"><ele>878.3333333333334</ele><time>2026-04-18T09:23:15Z</time></trkpt><trkpt lat="42.639623374389565" lon="13.261462653960479"><ele>878.1666666666667</ele><time>2026-04-18T09:23:16Z</time></trkpt><trkpt lat="42.63966965670789" lon="13.261538333718844"><ele>878.0</ele><time>2026-04-18T09:23:17Z</time></trkpt><trkpt lat="42.639714345762684" lon="13.26163483238791"><ele>878.0000000000001</ele><time>2026-04-18T09:23:18Z</time></trkpt><trkpt lat="42.63975272564889" lon="13.26172496560175"><ele>878.0</ele><time>2026-04-18T09:23:19Z</time></trkpt><trkpt lat="42.63979529244032" lon="13.261817133919111"><ele>878.0</ele><time>2026-04-18T09:23:20Z</time></trkpt><trkpt lat="42.63985000910815" lon="13.261903976084172"><ele>878.0</ele><time>2026-04-18T09:23:20.999Z</time></trkpt><trkpt lat="42.63991126628453" lon="13.261977641511796"><ele>878.0000000000001</ele><time>2026-04-18T09:23:21.999Z</time></trkpt><trkpt lat="42.63998055778497" lon="13.262040686157395"><ele>878.0</ele><time>2026-04-18T09:23:22.999Z</time></trkpt><trkpt lat="42.64003814688472" lon="13.262119254495117"><ele>878.0000000000001</ele><time>2026-04-18T09:23:23.999Z</time></trkpt><trkpt lat="42.64006422328301" lon="13.262226434661162"><ele>878.0</ele><time>2026-04-18T09:23:24.999Z</time></trkpt><trkpt lat="42.64010375492573" lon="13.2623310671498"><ele>878.0</ele><time>2026-04-18T09:23:25.999Z</time></trkpt><trkpt lat="42.6401079550408" lon="13.262458160849011"><ele>878.0</ele><time>2026-04-18T09:23:26.999Z</time></trkpt><trkpt lat="42.640121913943865" lon="13.262578346693736"><ele>878.0000000000001</ele><time>2026-04-18T09:23:27.999Z</time></trkpt><trkpt lat="42.64014830941926" lon="13.262699431377925"><ele>878.0</ele><time>2026-04-18T09:23:28.999Z</time></trkpt><trkpt lat="42.64017003612588" lon="13.26280847184707"><ele>877.8</ele><time>2026-04-18T09:23:29.999Z</time></trkpt><trkpt lat="42.640195342328866" lon="13.262914745594626"><ele>877.5999999999999</ele><time>2026-04-18T09:23:30.999Z</time></trkpt><trkpt lat="42.640252788445025" lon="13.263017479553058"><ele>877.4000000000001</ele><time>2026-04-18T09:23:31.999Z</time></trkpt><trkpt lat="42.640311623621436" lon="13.263117618131725"><ele>877.2</ele><time>2026-04-18T09:23:32.999Z</time></trkpt><trkpt lat="42.6403749934099" lon="13.263233033578196"><ele>877.0</ele><time>2026-04-18T09:23:33.999Z</time></trkpt><trkpt lat="42.64043037687725" lon="13.263343771498024"><ele>876.9999999999999</ele><time>2026-04-18T09:23:34.999Z</time></trkpt><trkpt lat="42.640481951084965" lon="13.263445506933072"><ele>877.0</ele><time>2026-04-18T09:23:35.999Z</time></trkpt><trkpt lat="42.640532377285815" lon="13.263539958794947"><ele>877.0</ele><time>2026-04-18T09:23:36.999Z</time></trkpt><trkpt lat="42.640574528285036" lon="13.263642102242287"><ele>877.0</ele><time>2026-04-18T09:23:37.999Z</time></trkpt><trkpt lat="42.64061773476295" lon="13.2637319242103"><ele>876.9999999999999</ele><time>2026-04-18T09:23:38.999Z</time></trkpt><trkpt lat="42.64066749656817" lon="13.263815392049318"><ele>877.0</ele><time>2026-04-18T09:23:39.999Z</time></trkpt><trkpt lat="42.64072202911919" lon="13.263915295933288"><ele>876.2</ele><time>2026-04-18T09:23:40.999Z</time></trkpt><trkpt lat="42.640778461248914" lon="13.264024272603908"><ele>875.4000000000001</ele><time>2026-04-18T09:23:41.999Z</time></trkpt><trkpt lat="42.64083871440178" lon="13.264139334203723"><ele>874.5999999999999</ele><time>2026-04-18T09:23:42.999Z</time></trkpt><trkpt lat="42.64090177869807" lon="13.264260241506719"><ele>873.8</ele><time>2026-04-18T09:23:43.999Z</time></trkpt><trkpt lat="42.64096737820512" lon="13.26438646809082"><ele>873.0</ele><time>2026-04-18T09:23:44.999Z</time></trkpt><trkpt lat="42.64103128226005" lon="13.264518097439606"><ele>873.0</ele><time>2026-04-18T09:23:45.999Z</time></trkpt><trkpt lat="42.64108328504103" lon="13.264653962110861"><ele>873.0</ele><time>2026-04-18T09:23:46.999Z</time></trkpt><trkpt lat="42.64112643528678" lon="13.26479069401224"><ele>873.0</ele><time>2026-04-18T09:23:47.999Z</time></trkpt><trkpt lat="42.641170053093596" lon="13.264916708898367"><ele>873.0</ele><time>2026-04-18T09:23:48.999Z</time></trkpt><trkpt lat="42.641206497058754" lon="13.265035355487859"><ele>873.0</ele><time>2026-04-18T09:23:49.999Z</time></trkpt><trkpt lat="42.64123286437401" lon="13.265161795126652"><ele>875.5</ele><time>2026-04-18T09:23:50.999Z</time></trkpt><trkpt lat="42.641232966332346" lon="13.265278485670958"><ele>878.0</ele><time>2026-04-18T09:23:51.999Z</time></trkpt><trkpt lat="42.641212419731936" lon="13.265395102541088"><ele>880.5</ele><time>2026-04-18T09:23:52.999Z</time></trkpt><trkpt lat="42.641189925707295" lon="13.265517101612001"><ele>883.0</ele><time>2026-04-18T09:23:53.999Z</time></trkpt><trkpt lat="42.641177125117565" lon="13.265618787013853"><ele>885.5</ele><time>2026-04-18T09:23:54.999Z</time></trkpt><trkpt lat="42.64116986982808" lon="13.265757059985363"><ele>888.0</ele><time>2026-04-18T09:23:56.999Z</time></trkpt><trkpt lat="42.64118518542451" lon="13.265847398971562"><ele>889.5999999999999</ele><time>2026-04-18T09:24:41.999Z</time></trkpt><trkpt lat="42.64115400340612" lon="13.265953451041073"><ele>891.1999999999999</ele><time>2026-04-18T09:24:43.999Z</time></trkpt><trkpt lat="42.64116623714171" lon="13.266059659247636"><ele>892.8</ele><time>2026-04-18T09:24:44.999Z</time></trkpt><trkpt lat="42.64106023775887" lon="13.266116772796519"><ele>894.4</ele><time>2026-04-18T09:24:45.999Z</time></trkpt><trkpt lat="42.6410017353863" lon="13.26620963172389"><ele>896.0</ele><time>2026-04-18T09:24:46.999Z</time></trkpt><trkpt lat="42.64094537242599" lon="13.26630824901739"><ele>893.0</ele><time>2026-04-18T09:24:47.999Z</time></trkpt><trkpt lat="42.640894655641624" lon="13.266408574108418"><ele>889.9999999999999</ele><time>2026-04-18T09:24:49Z</time></trkpt><trkpt lat="42.64084796235846" lon="13.266513555603742"><ele>886.9999999999999</ele><time>2026-04-18T09:24:50Z</time></trkpt><trkpt lat="42.640800499521596" lon="13.266623667799772"><ele>884.0</ele><time>2026-04-18T09:24:51Z</time></trkpt><trkpt lat="42.6407658351515" lon="13.26674356336869"><ele>881.0</ele><time>2026-04-18T09:24:52Z</time></trkpt><trkpt lat="42.64074794905865" lon="13.266882023083857"><ele>881.0</ele><time>2026-04-18T09:24:53Z</time></trkpt><trkpt lat="42.64075043401326" lon="13.267028688765983"><ele>881.0</ele><time>2026-04-18T09:24:54Z</time></trkpt><trkpt lat="42.64079261468291" lon="13.267177741043412"><ele>881.0</ele><time>2026-04-18T09:24:55Z</time></trkpt><trkpt lat="42.64085548119713" lon="13.26731474506943"><ele>881.0</ele><time>2026-04-18T09:24:56Z</time></trkpt><trkpt lat="42.64093843955902" lon="13.267430138461203"><ele>881.0</ele><time>2026-04-18T09:24:57Z</time></trkpt><trkpt lat="42.64103793306518" lon="13.267514112771138"><ele>881.0</ele><time>2026-04-18T09:24:58Z</time></trkpt><trkpt lat="42.64115389750075" lon="13.267550150451216"><ele>881.0</ele><time>2026-04-18T09:24:59Z</time></trkpt><trkpt lat="42.64127508807139" lon="13.267545376863984"><ele>881.0</ele><time>2026-04-18T09:25:00Z</time></trkpt><trkpt lat="42.64139590462505" lon="13.267532869358046"><ele>881.0</ele><time>2026-04-18T09:25:01Z</time></trkpt><trkpt lat="42.641518968464155" lon="13.267526557974733"><ele>881.0</ele><time>2026-04-18T09:25:02Z</time></trkpt><trkpt lat="42.64163764708453" lon="13.267526534158991"><ele>881.0</ele><time>2026-04-18T09:25:03Z</time></trkpt><trkpt lat="42.64175187845534" lon="13.267541395475996"><ele>881.0</ele><time>2026-04-18T09:25:04Z</time></trkpt><trkpt lat="42.6418614261766" lon="13.267590601278531"><ele>881.0</ele><time>2026-04-18T09:25:05Z</time></trkpt><trkpt lat="42.64195595308785" lon="13.26767075017895"><ele>881.0</ele><time>2026-04-18T09:25:06Z</time></trkpt><trkpt lat="42.64203635581221" lon="13.267782274355225"><ele>881.0</ele><time>2026-04-18T09:25:07Z</time></trkpt><trkpt lat="42.64210043454316" lon="13.267910704649525"><ele>881.0</ele><time>2026-04-18T09:25:08Z</time></trkpt><trkpt lat="42.64211984104787" lon="13.26806034323209"><ele>880.4</ele><time>2026-04-18T09:25:09Z</time></trkpt><trkpt lat="42.642130404610214" lon="13.268205829601818"><ele>879.8</ele><time>2026-04-18T09:25:10Z</time></trkpt><trkpt lat="42.642100599783" lon="13.268345459370595"><ele>879.1999999999999</ele><time>2026-04-18T09:25:11Z</time></trkpt><trkpt lat="42.64208028939866" lon="13.268491198872812"><ele>878.5999999999999</ele><time>2026-04-18T09:25:12Z</time></trkpt><trkpt lat="42.64204278356426" lon="13.268627288370002"><ele>878.0</ele><time>2026-04-18T09:25:13Z</time></trkpt><trkpt lat="42.64201588820682" lon="13.268770142364017"><ele>878.0</ele><time>2026-04-18T09:25:14Z</time></trkpt><trkpt lat="42.6420066184966" lon="13.268916354377073"><ele>878.0</ele><time>2026-04-18T09:25:15Z</time></trkpt><trkpt lat="42.64201659760554" lon="13.269067323625997"><ele>878.0</ele><time>2026-04-18T09:25:16Z</time></trkpt><trkpt lat="42.64203631277544" lon="13.26921897930013"><ele>878.0</ele><time>2026-04-18T09:25:17Z</time></trkpt><trkpt lat="42.64205954647665" lon="13.269369663052325"><ele>878.0</ele><time>2026-04-18T09:25:18Z</time></trkpt><trkpt lat="42.642084061771186" lon="13.269515607178487"><ele>879.0</ele><time>2026-04-18T09:25:19Z</time></trkpt><trkpt lat="42.642112535892785" lon="13.26965323781851"><ele>880.0</ele><time>2026-04-18T09:25:20Z</time></trkpt><trkpt lat="42.64213397128197" lon="13.26979482218347"><ele>881.0</ele><time>2026-04-18T09:25:21Z</time></trkpt><trkpt lat="42.642219655477035" lon="13.269902090510456"><ele>882.0</ele><time>2026-04-18T09:25:22Z</time></trkpt><trkpt lat="42.64232171580358" lon="13.2699907324976"><ele>883.0</ele><time>2026-04-18T09:25:23Z</time></trkpt><trkpt lat="42.642434276273136" lon="13.27007389641599"><ele>882.25</ele><time>2026-04-18T09:25:24Z</time></trkpt><trkpt lat="42.64254787716162" lon="13.270166858498106"><ele>881.5</ele><time>2026-04-18T09:25:25Z</time></trkpt><trkpt lat="42.642656778319086" lon="13.2702688109996"><ele>880.75</ele><time>2026-04-18T09:25:26Z</time></trkpt><trkpt lat="42.642761357201955" lon="13.270371357005105"><ele>880.0</ele><time>2026-04-18T09:25:27Z</time></trkpt><trkpt lat="42.64286331283114" lon="13.270469303521187"><ele>880.0</ele><time>2026-04-18T09:25:28Z</time></trkpt><trkpt lat="42.64296947281271" lon="13.270557192896435"><ele>880.0</ele><time>2026-04-18T09:25:29Z</time></trkpt><trkpt lat="42.64308495395261" lon="13.270617403502253"><ele>880.0</ele><time>2026-04-18T09:25:30Z</time></trkpt><trkpt lat="42.64321013636772" lon="13.270620181081243"><ele>880.0</ele><time>2026-04-18T09:25:31Z</time></trkpt><trkpt lat="42.643331629196005" lon="13.2705893333696"><ele>880.0</ele><time>2026-04-18T09:25:32Z</time></trkpt><trkpt lat="42.643452592184246" lon="13.270544207856767"><ele>880.0</ele><time>2026-04-18T09:25:33Z</time></trkpt><trkpt lat="42.643574676431236" lon="13.270497115087359"><ele>880.0</ele><time>2026-04-18T09:25:34Z</time></trkpt><trkpt lat="42.64370078965996" lon="13.270450071498866"><ele>880.0</ele><time>2026-04-18T09:25:35Z</time></trkpt><trkpt lat="42.64383068087112" lon="13.270401817708198"><ele>879.75</ele><time>2026-04-18T09:25:36Z</time></trkpt><trkpt lat="42.64396508168736" lon="13.270362468667212"><ele>879.5</ele><time>2026-04-18T09:25:37Z</time></trkpt><trkpt lat="42.64410500958195" lon="13.27033935871655"><ele>879.25</ele><time>2026-04-18T09:25:37.999Z</time></trkpt><trkpt lat="42.64424806632888" lon="13.27033473484046"><ele>879.0</ele><time>2026-04-18T09:25:38.999Z</time></trkpt><trkpt lat="42.6443918204537" lon="13.270354894035473"><ele>881.25</ele><time>2026-04-18T09:25:39.999Z</time></trkpt><trkpt lat="42.64453568587339" lon="13.270410229658154"><ele>883.5</ele><time>2026-04-18T09:25:40.999Z</time></trkpt><trkpt lat="42.644672341048796" lon="13.270479132669172"><ele>885.75</ele><time>2026-04-18T09:25:41.999Z</time></trkpt><trkpt lat="42.64480392059774" lon="13.270568335608736"><ele>888.0</ele><time>2026-04-18T09:25:42.999Z</time></trkpt><trkpt lat="42.64492951777602" lon="13.270664248626261"><ele>883.0</ele><time>2026-04-18T09:25:43.999Z</time></trkpt><trkpt lat="42.64505013159799" lon="13.270765474573619"><ele>878.0</ele><time>2026-04-18T09:25:44.999Z</time></trkpt><trkpt lat="42.64516514885887" lon="13.270858876691959"><ele>873.0</ele><time>2026-04-18T09:25:45.999Z</time></trkpt><trkpt lat="42.64525520553718" lon="13.270952335776276"><ele>868.0</ele><time>2026-04-18T09:25:46.999Z</time></trkpt><trkpt lat="42.645316715326196" lon="13.271067714091435"><ele>868.0</ele><time>2026-04-18T09:25:47.999Z</time></trkpt><trkpt lat="42.645338848711994" lon="13.271207730360002"><ele>868.0</ele><time>2026-04-18T09:25:48.999Z</time></trkpt><trkpt lat="42.645291413224925" lon="13.271354349159479"><ele>868.0</ele><time>2026-04-18T09:25:49.999Z</time></trkpt><trkpt lat="42.64523977089905" lon="13.27150267933696"><ele>868.0</ele><time>2026-04-18T09:25:50.999Z</time></trkpt><trkpt lat="42.6451915560057" lon="13.271662484333655"><ele>862.0</ele><time>2026-04-18T09:25:51.999Z</time></trkpt><trkpt lat="42.64513407639024" lon="13.27181156247809"><ele>856.0</ele><time>2026-04-18T09:25:52.999Z</time></trkpt><trkpt lat="42.64508536865918" lon="13.271945417119934"><ele>850.0</ele><time>2026-04-18T09:25:53.999Z</time></trkpt><trkpt lat="42.64506067518471" lon="13.27206670607786"><ele>844.0</ele><time>2026-04-18T09:25:54.999Z</time></trkpt><trkpt lat="42.645084971092494" lon="13.272181785515741"><ele>838.0</ele><time>2026-04-18T09:25:55.999Z</time></trkpt><trkpt lat="42.645150593514195" lon="13.272265727359544"><ele>835.5999999999999</ele><time>2026-04-18T09:25:56.999Z</time></trkpt><trkpt lat="42.6452371413233" lon="13.27231096867778"><ele>833.1999999999999</ele><time>2026-04-18T09:25:57.999Z</time></trkpt><trkpt lat="42.64533228590013" lon="13.272309447921232"><ele>830.8</ele><time>2026-04-18T09:25:58.999Z</time></trkpt><trkpt lat="42.64543332342009" lon="13.272278894195194"><ele>828.4</ele><time>2026-04-18T09:25:59.999Z</time></trkpt><trkpt lat="42.64553145604292" lon="13.272232306354352"><ele>826.0</ele><time>2026-04-18T09:26:00.999Z</time></trkpt><trkpt lat="42.64564918609897" lon="13.272178337750487"><ele>829.0</ele><time>2026-04-18T09:26:01.999Z</time></trkpt><trkpt lat="42.64577107433586" lon="13.272143250132467"><ele>832.0</ele><time>2026-04-18T09:26:02.999Z</time></trkpt><trkpt lat="42.64589431767244" lon="13.272088373779946"><ele>835.0</ele><time>2026-04-18T09:26:03.999Z</time></trkpt><trkpt lat="42.64603269101797" lon="13.27202555426915"><ele>838.0</ele><time>2026-04-18T09:26:04.999Z</time></trkpt><trkpt lat="42.64617752390677" lon="13.271954236841184"><ele>838.0</ele><time>2026-04-18T09:26:05.999Z</time></trkpt><trkpt lat="42.64633419012011" lon="13.271879058822398"><ele>838.0</ele><time>2026-04-18T09:26:06.999Z</time></trkpt><trkpt lat="42.64649843575977" lon="13.271804947986388"><ele>838.0</ele><time>2026-04-18T09:26:07.999Z</time></trkpt><trkpt lat="42.64667307149618" lon="13.271731124129868"><ele>838.0</ele><time>2026-04-18T09:26:08.999Z</time></trkpt><trkpt lat="42.64684772992406" lon="13.271673571363765"><ele>838.0</ele><time>2026-04-18T09:26:09.999Z</time></trkpt><trkpt lat="42.64702536801561" lon="13.271627955391974"><ele>838.0</ele><time>2026-04-18T09:26:10.999Z</time></trkpt><trkpt lat="42.64719354394311" lon="13.271572413614004"><ele>834.6666666666666</ele><time>2026-04-18T09:26:11.999Z</time></trkpt><trkpt lat="42.64736004615433" lon="13.271505411615493"><ele>831.3333333333333</ele><time>2026-04-18T09:26:12.999Z</time></trkpt><trkpt lat="42.64751924165312" lon="13.271477015187413"><ele>828.0</ele><time>2026-04-18T09:26:13.999Z</time></trkpt><trkpt lat="42.64767882895758" lon="13.271496177421781"><ele>830.3333333333333</ele><time>2026-04-18T09:26:14.999Z</time></trkpt><trkpt lat="42.647834027278115" lon="13.271578936268197"><ele>832.6666666666666</ele><time>2026-04-18T09:26:15.999Z</time></trkpt><trkpt lat="42.64797784963732" lon="13.271686633970983"><ele>835.0</ele><time>2026-04-18T09:26:16.999Z</time></trkpt><trkpt lat="42.648110102201656" lon="13.271806208856852"><ele>835.0</ele><time>2026-04-18T09:26:17.999Z</time></trkpt><trkpt lat="42.648228702005866" lon="13.271942092147114"><ele>835.0</ele><time>2026-04-18T09:26:18.999Z</time></trkpt><trkpt lat="42.648325422193345" lon="13.272088983154633"><ele>835.0</ele><time>2026-04-18T09:26:19.999Z</time></trkpt><trkpt lat="42.64839916799771" lon="13.272237169479046"><ele>835.0</ele><time>2026-04-18T09:26:20.999Z</time></trkpt><trkpt lat="42.6485081811317" lon="13.272353466648688"><ele>831.6</ele><time>2026-04-18T09:26:21.999Z</time></trkpt><trkpt lat="42.64863553013565" lon="13.272408897082812"><ele>828.2</ele><time>2026-04-18T09:26:22.999Z</time></trkpt><trkpt lat="42.648749848675465" lon="13.272427099262845"><ele>824.8</ele><time>2026-04-18T09:26:23.999Z</time></trkpt><trkpt lat="42.648832996485474" lon="13.272501295739197"><ele>821.4</ele><time>2026-04-18T09:26:24.999Z</time></trkpt><trkpt lat="42.64888419578307" lon="13.272555390818638"><ele>818.0</ele><time>2026-04-18T09:26:25.999Z</time></trkpt><trkpt lat="42.64886512112792" lon="13.27274495720574"><ele>818.0</ele><time>2026-04-18T09:26:26.999Z</time></trkpt><trkpt lat="42.64884778453516" lon="13.272882228191301"><ele>818.0</ele><time>2026-04-18T09:26:27.999Z</time></trkpt><trkpt lat="42.64883442376966" lon="13.273030333385105"><ele>818.0</ele><time>2026-04-18T09:26:28.999Z</time></trkpt><trkpt lat="42.6488032656114" lon="13.27319105633213"><ele>818.0</ele><time>2026-04-18T09:26:29.999Z</time></trkpt><trkpt lat="42.648736099915915" lon="13.273349262393163"><ele>818.5</ele><time>2026-04-18T09:26:30.999Z</time></trkpt><trkpt lat="42.648643793640716" lon="13.273490999348166"><ele>819.0</ele><time>2026-04-18T09:26:31.999Z</time></trkpt><trkpt lat="42.64854298134282" lon="13.273640321992813"><ele>819.5</ele><time>2026-04-18T09:26:32.999Z</time></trkpt><trkpt lat="42.648446974219574" lon="13.273810135450512"><ele>820.0</ele><time>2026-04-18T09:26:33.999Z</time></trkpt><trkpt lat="42.6483499551517" lon="13.273984035522192"><ele>820.0</ele><time>2026-04-18T09:26:34.999Z</time></trkpt><trkpt lat="42.64823789420042" lon="13.274146344649656"><ele>820.0</ele><time>2026-04-18T09:26:35.999Z</time></trkpt><trkpt lat="42.64814552943962" lon="13.274338301983459"><ele>820.0</ele><time>2026-04-18T09:26:36.999Z</time></trkpt><trkpt lat="42.64803397539242" lon="13.274518430652222"><ele>820.0</ele><time>2026-04-18T09:26:37.999Z</time></trkpt><trkpt lat="42.64792679557174" lon="13.274694480540774"><ele>820.0</ele><time>2026-04-18T09:26:38.999Z</time></trkpt><trkpt lat="42.647817446263474" lon="13.274865988849191"><ele>820.0</ele><time>2026-04-18T09:26:39.999Z</time></trkpt><trkpt lat="42.64770467433802" lon="13.275025753685496"><ele>825.3333333333333</ele><time>2026-04-18T09:26:40.999Z</time></trkpt><trkpt lat="42.647580389375" lon="13.275161634192381"><ele>830.6666666666667</ele><time>2026-04-18T09:26:41.999Z</time></trkpt><trkpt lat="42.647448491300544" lon="13.275279560763156"><ele>836.0</ele><time>2026-04-18T09:26:42.999Z</time></trkpt><trkpt lat="42.647314793301184" lon="13.275396000922301"><ele>836.0</ele><time>2026-04-18T09:26:43.999Z</time></trkpt><trkpt lat="42.64717602345808" lon="13.275507570097403"><ele>836.0</ele><time>2026-04-18T09:26:44.999Z</time></trkpt><trkpt lat="42.647029139515226" lon="13.275603258659988"><ele>836.0</ele><time>2026-04-18T09:26:45.999Z</time></trkpt><trkpt lat="42.64687507439621" lon="13.275680157342583"><ele>833.0</ele><time>2026-04-18T09:26:46.999Z</time></trkpt><trkpt lat="42.6467143893886" lon="13.275734362744497"><ele>830.0</ele><time>2026-04-18T09:26:47.999Z</time></trkpt><trkpt lat="42.646545612393744" lon="13.275734438314622"><ele>827.0</ele><time>2026-04-18T09:26:48.999Z</time></trkpt><trkpt lat="42.64637706569036" lon="13.27576427748793"><ele>827.0</ele><time>2026-04-18T09:26:49.999Z</time></trkpt><trkpt lat="42.64620690683438" lon="13.275789315351977"><ele>827.0</ele><time>2026-04-18T09:26:50.999Z</time></trkpt><trkpt lat="42.646037785708316" lon="13.275834496875266"><ele>827.0</ele><time>2026-04-18T09:26:51.999Z</time></trkpt><trkpt lat="42.64586145192608" lon="13.275892904731199"><ele>830.0</ele><time>2026-04-18T09:26:52.999Z</time></trkpt><trkpt lat="42.64567831755645" lon="13.275955149454527"><ele>833.0</ele><time>2026-04-18T09:26:53.999Z</time></trkpt><trkpt lat="42.6454904675987" lon="13.27601589089038"><ele>836.0</ele><time>2026-04-18T09:26:55Z</time></trkpt><trkpt lat="42.64530478507699" lon="13.276074287664498"><ele>839.3333333333334</ele><time>2026-04-18T09:26:56Z</time></trkpt><trkpt lat="42.64511268924035" lon="13.276128751608"><ele>842.6666666666667</ele><time>2026-04-18T09:26:57Z</time></trkpt><trkpt lat="42.64492184977852" lon="13.27618731700756"><ele>846.0</ele><time>2026-04-18T09:26:58Z</time></trkpt><trkpt lat="42.644731846023646" lon="13.276252476880913"><ele>846.0</ele><time>2026-04-18T09:26:59Z</time></trkpt><trkpt lat="42.64454412316815" lon="13.276325409252912"><ele>846.0</ele><time>2026-04-18T09:27:00Z</time></trkpt><trkpt lat="42.64435375497587" lon="13.27641067333511"><ele>846.0</ele><time>2026-04-18T09:27:01Z</time></trkpt><trkpt lat="42.64416487845097" lon="13.276500992331767"><ele>842.6666666666667</ele><time>2026-04-18T09:27:02Z</time></trkpt><trkpt lat="42.64397479549015" lon="13.276595249262865"><ele>839.3333333333334</ele><time>2026-04-18T09:27:03Z</time></trkpt><trkpt lat="42.64379041609667" lon="13.276693162379106"><ele>836.0</ele><time>2026-04-18T09:27:04Z</time></trkpt><trkpt lat="42.643611536995174" lon="13.276802956125328"><ele>843.0</ele><time>2026-04-18T09:27:05Z</time></trkpt><trkpt lat="42.643442430390245" lon="13.276934072787599"><ele>850.0</ele><time>2026-04-18T09:27:06Z</time></trkpt><trkpt lat="42.6432773718791" lon="13.277074960523061"><ele>857.0</ele><time>2026-04-18T09:27:07Z</time></trkpt><trkpt lat="42.643113182722466" lon="13.277223199454141"><ele>854.0</ele><time>2026-04-18T09:27:08Z</time></trkpt><trkpt lat="42.64295533643427" lon="13.277355220462526"><ele>851.0</ele><time>2026-04-18T09:27:09Z</time></trkpt><trkpt lat="42.64280823544259" lon="13.277476727444906"><ele>848.0</ele><time>2026-04-18T09:27:10Z</time></trkpt><trkpt lat="42.64264676819311" lon="13.277560728628721"><ele>848.0</ele><time>2026-04-18T09:27:11Z</time></trkpt><trkpt lat="42.64247687508286" lon="13.277630667817574"><ele>848.0</ele><time>2026-04-18T09:27:12Z</time></trkpt><trkpt lat="42.642311102282555" lon="13.277705223197229"><ele>848.0</ele><time>2026-04-18T09:27:13Z</time></trkpt><trkpt lat="42.64213434561335" lon="13.277770362519199"><ele>848.0</ele><time>2026-04-18T09:27:14Z</time></trkpt><trkpt lat="42.641971833082344" lon="13.277882934656992"><ele>848.0</ele><time>2026-04-18T09:27:15Z</time></trkpt><trkpt lat="42.64182766548205" lon="13.278042847682967"><ele>848.0</ele><time>2026-04-18T09:27:16Z</time></trkpt><trkpt lat="42.64169052183573" lon="13.278211589591763"><ele>847.0</ele><time>2026-04-18T09:27:17Z</time></trkpt><trkpt lat="42.641526915799126" lon="13.278349346184143"><ele>846.0</ele><time>2026-04-18T09:27:18Z</time></trkpt><trkpt lat="42.64136583961398" lon="13.278470654774045"><ele>845.0</ele><time>2026-04-18T09:27:19Z</time></trkpt><trkpt lat="42.64119950048232" lon="13.278605795397453"><ele>842.6666666666667</ele><time>2026-04-18T09:27:20Z</time></trkpt><trkpt lat="42.641025312002576" lon="13.278715798882946"><ele>840.3333333333333</ele><time>2026-04-18T09:27:21Z</time></trkpt><trkpt lat="42.6408485984451" lon="13.278829626944082"><ele>838.0</ele><time>2026-04-18T09:27:22Z</time></trkpt><trkpt lat="42.64066818476633" lon="13.278945505224346"><ele>838.0</ele><time>2026-04-18T09:27:23Z</time></trkpt><trkpt lat="42.6404894159012" lon="13.27906236165186"><ele>838.0</ele><time>2026-04-18T09:27:24Z</time></trkpt><trkpt lat="42.64030635338503" lon="13.279176848694691"><ele>838.0</ele><time>2026-04-18T09:27:25Z</time></trkpt><trkpt lat="42.640120402951155" lon="13.279267907131473"><ele>843.6666666666666</ele><time>2026-04-18T09:27:26Z</time></trkpt><trkpt lat="42.63993454765703" lon="13.27935876675201"><ele>849.3333333333333</ele><time>2026-04-18T09:27:27Z</time></trkpt><trkpt lat="42.63975853552901" lon="13.27946923092244"><ele>855.0</ele><time>2026-04-18T09:27:28Z</time></trkpt><trkpt lat="42.63958502115114" lon="13.279589982501411"><ele>852.6666666666667</ele><time>2026-04-18T09:27:29Z</time></trkpt><trkpt lat="42.63941730510824" lon="13.279707656567624"><ele>850.3333333333334</ele><time>2026-04-18T09:27:30Z</time></trkpt><trkpt lat="42.63925173959406" lon="13.279813496682461"><ele>848.0</ele><time>2026-04-18T09:27:31Z</time></trkpt><trkpt lat="42.63908182130011" lon="13.279908739328583"><ele>848.0</ele><time>2026-04-18T09:27:32Z</time></trkpt><trkpt lat="42.6389112577219" lon="13.279931995869926"><ele>848.0</ele><time>2026-04-18T09:27:33Z</time></trkpt><trkpt lat="42.6387519498411" lon="13.279902933878526"><ele>848.0</ele><time>2026-04-18T09:27:34Z</time></trkpt><trkpt lat="42.638573656997195" lon="13.27984959805306"><ele>849.0</ele><time>2026-04-18T09:27:35Z</time></trkpt><trkpt lat="42.63838739824711" lon="13.27981596129262"><ele>850.0</ele><time>2026-04-18T09:27:36Z</time></trkpt><trkpt lat="42.63819710216408" lon="13.27978203497224"><ele>851.0</ele><time>2026-04-18T09:27:37Z</time></trkpt><trkpt lat="42.638000908404806" lon="13.279781752648212"><ele>851.0</ele><time>2026-04-18T09:27:38Z</time></trkpt><trkpt lat="42.63780509583952" lon="13.279792622253346"><ele>851.0</ele><time>2026-04-18T09:27:39Z</time></trkpt><trkpt lat="42.63760611062011" lon="13.279810294555052"><ele>851.0</ele><time>2026-04-18T09:27:40Z</time></trkpt><trkpt lat="42.63741254035842" lon="13.279840261968781"><ele>851.6666666666667</ele><time>2026-04-18T09:27:41Z</time></trkpt><trkpt lat="42.63721915060829" lon="13.279871099458914"><ele>852.3333333333333</ele><time>2026-04-18T09:27:42Z</time></trkpt><trkpt lat="42.63702597274232" lon="13.279901840510385"><ele>853.0</ele><time>2026-04-18T09:27:43Z</time></trkpt><trkpt lat="42.636834517839006" lon="13.279946625908174"><ele>853.0</ele><time>2026-04-18T09:27:44Z</time></trkpt><trkpt lat="42.63664576125306" lon="13.280017416707881"><ele>853.0</ele><time>2026-04-18T09:27:45Z</time></trkpt><trkpt lat="42.6364624440245" lon="13.28010821935914"><ele>853.0</ele><time>2026-04-18T09:27:46Z</time></trkpt><trkpt lat="42.63628883871439" lon="13.280206176444445"><ele>850.3333333333333</ele><time>2026-04-18T09:27:47Z</time></trkpt><trkpt lat="42.6361274131443" lon="13.280342144619372"><ele>847.6666666666667</ele><time>2026-04-18T09:27:48Z</time></trkpt><trkpt lat="42.63597677483822" lon="13.280488656218468"><ele>845.0</ele><time>2026-04-18T09:27:49Z</time></trkpt><trkpt lat="42.63581838714375" lon="13.280625479855757"><ele>845.0</ele><time>2026-04-18T09:27:50Z</time></trkpt><trkpt lat="42.63566025184056" lon="13.280765967878816"><ele>845.0</ele><time>2026-04-18T09:27:51Z</time></trkpt><trkpt lat="42.63550751270754" lon="13.28090848833294"><ele>845.0</ele><time>2026-04-18T09:27:52Z</time></trkpt><trkpt lat="42.63535695440695" lon="13.281048501897093"><ele>847.0</ele><time>2026-04-18T09:27:53Z</time></trkpt><trkpt lat="42.63521183551697" lon="13.281186453961157"><ele>849.0</ele><time>2026-04-18T09:27:53.999Z</time></trkpt><trkpt lat="42.635090860336355" lon="13.281349280104918"><ele>851.0</ele><time>2026-04-18T09:27:54.999Z</time></trkpt><trkpt lat="42.63497721585763" lon="13.281514705325332"><ele>851.0</ele><time>2026-04-18T09:27:55.999Z</time></trkpt><trkpt lat="42.63488957304391" lon="13.281705673971876"><ele>851.0</ele><time>2026-04-18T09:27:56.999Z</time></trkpt><trkpt lat="42.634820341847885" lon="13.281903008675112"><ele>851.0</ele><time>2026-04-18T09:27:57.999Z</time></trkpt><trkpt lat="42.63472651449354" lon="13.282088511692974"><ele>851.0</ele><time>2026-04-18T09:27:58.999Z</time></trkpt><trkpt lat="42.63462731464992" lon="13.282248868786711"><ele>851.0</ele><time>2026-04-18T09:27:59.999Z</time></trkpt><trkpt lat="42.634514488144255" lon="13.28239145232891"><ele>851.0</ele><time>2026-04-18T09:28:00.999Z</time></trkpt><trkpt lat="42.63438921925807" lon="13.28251042259449"><ele>852.6666666666667</ele><time>2026-04-18T09:28:01.999Z</time></trkpt><trkpt lat="42.63425469844533" lon="13.282612556754353"><ele>854.3333333333333</ele><time>2026-04-18T09:28:02.999Z</time></trkpt><trkpt lat="42.63411324398128" lon="13.282705880656978"><ele>856.0</ele><time>2026-04-18T09:28:03.999Z</time></trkpt><trkpt lat="42.63396458505473" lon="13.282784551644744"><ele>856.0</ele><time>2026-04-18T09:28:04.999Z</time></trkpt><trkpt lat="42.63381479288363" lon="13.282852879952284"><ele>856.0</ele><time>2026-04-18T09:28:05.999Z</time></trkpt><trkpt lat="42.63366405769703" lon="13.282924608582096"><ele>856.0</ele><time>2026-04-18T09:28:06.999Z</time></trkpt><trkpt lat="42.63351160230856" lon="13.28300617007773"><ele>857.0</ele><time>2026-04-18T09:28:07.999Z</time></trkpt><trkpt lat="42.63335929527983" lon="13.283095120146784"><ele>858.0</ele><time>2026-04-18T09:28:08.999Z</time></trkpt><trkpt lat="42.63321833712062" lon="13.2831946754282"><ele>859.0</ele><time>2026-04-18T09:28:09.999Z</time></trkpt><trkpt lat="42.633101382494765" lon="13.283332596197429"><ele>859.0</ele><time>2026-04-18T09:28:10.999Z</time></trkpt><trkpt lat="42.63300787252221" lon="13.28350277987625"><ele>859.0</ele><time>2026-04-18T09:28:11.999Z</time></trkpt><trkpt lat="42.63295636223675" lon="13.283698030246729"><ele>859.0</ele><time>2026-04-18T09:28:12.999Z</time></trkpt><trkpt lat="42.63293464755307" lon="13.283891392441705"><ele>863.3333333333333</ele><time>2026-04-18T09:28:13.999Z</time></trkpt><trkpt lat="42.632931500902416" lon="13.284091806341733"><ele>867.6666666666667</ele><time>2026-04-18T09:28:14.999Z</time></trkpt><trkpt lat="42.63293188283198" lon="13.284296741920175"><ele>872.0</ele><time>2026-04-18T09:28:15.999Z</time></trkpt><trkpt lat="42.632908903795006" lon="13.284502340163101"><ele>872.0</ele><time>2026-04-18T09:28:16.999Z</time></trkpt><trkpt lat="42.632901524284584" lon="13.284701525205332"><ele>872.0</ele><time>2026-04-18T09:28:17.999Z</time></trkpt><trkpt lat="42.632895907848955" lon="13.284906797063172"><ele>872.0</ele><time>2026-04-18T09:28:18.999Z</time></trkpt><trkpt lat="42.632900965142106" lon="13.285109435745168"><ele>872.0</ele><time>2026-04-18T09:28:19.999Z</time></trkpt><trkpt lat="42.63288195577858" lon="13.28531199364072"><ele>871.6666666666667</ele><time>2026-04-18T09:28:20.999Z</time></trkpt><trkpt lat="42.63285127090687" lon="13.285510324342436"><ele>871.3333333333333</ele><time>2026-04-18T09:28:21.999Z</time></trkpt><trkpt lat="42.632805701415975" lon="13.285708739822573"><ele>871.0</ele><time>2026-04-18T09:28:22.999Z</time></trkpt><trkpt lat="42.63274473938873" lon="13.285899744025913"><ele>870.5</ele><time>2026-04-18T09:28:23.999Z</time></trkpt><trkpt lat="42.63266642125692" lon="13.286077011633836"><ele>870.0</ele><time>2026-04-18T09:28:24.999Z</time></trkpt><trkpt lat="42.63257035836955" lon="13.286233136918685"><ele>869.5</ele><time>2026-04-18T09:28:25.999Z</time></trkpt><trkpt lat="42.63247284886125" lon="13.286371971233754"><ele>869.0</ele><time>2026-04-18T09:28:26.999Z</time></trkpt><trkpt lat="42.63236699846588" lon="13.28648774047599"><ele>871.25</ele><time>2026-04-18T09:28:27.999Z</time></trkpt><trkpt lat="42.63224938023633" lon="13.286579902854115"><ele>873.5</ele><time>2026-04-18T09:28:28.999Z</time></trkpt><trkpt lat="42.63212044643714" lon="13.286644778906766"><ele>875.75</ele><time>2026-04-18T09:28:29.999Z</time></trkpt><trkpt lat="42.63198635424359" lon="13.286706436338196"><ele>878.0</ele><time>2026-04-18T09:28:30.999Z</time></trkpt><trkpt lat="42.631850838179886" lon="13.286765352809194"><ele>878.5</ele><time>2026-04-18T09:28:31.999Z</time></trkpt><trkpt lat="42.631715720921875" lon="13.28681317765638"><ele>879.0</ele><time>2026-04-18T09:28:32.999Z</time></trkpt><trkpt lat="42.63158797758842" lon="13.28681932100617"><ele>879.5</ele><time>2026-04-18T09:28:33.999Z</time></trkpt><trkpt lat="42.63146801303905" lon="13.286747977444806"><ele>880.0</ele><time>2026-04-18T09:28:34.999Z</time></trkpt><trkpt lat="42.63133278975316" lon="13.286686984579084"><ele>880.0</ele><time>2026-04-18T09:28:35.999Z</time></trkpt><trkpt lat="42.631206063144425" lon="13.286583246537832"><ele>880.0</ele><time>2026-04-18T09:28:36.999Z</time></trkpt><trkpt lat="42.63107554043642" lon="13.28648845753632"><ele>880.0</ele><time>2026-04-18T09:28:37.999Z</time></trkpt><trkpt lat="42.63094000330236" lon="13.28641706707989"><ele>880.0</ele><time>2026-04-18T09:28:38.999Z</time></trkpt><trkpt lat="42.63080858059454" lon="13.286346194732362"><ele>879.5</ele><time>2026-04-18T09:28:39.999Z</time></trkpt><trkpt lat="42.63068672534934" lon="13.28625987696865"><ele>879.0</ele><time>2026-04-18T09:28:40.999Z</time></trkpt><trkpt lat="42.63058020718119" lon="13.28614121609697"><ele>878.5</ele><time>2026-04-18T09:28:41.999Z</time></trkpt><trkpt lat="42.63049434466893" lon="13.285984093686858"><ele>878.0</ele><time>2026-04-18T09:28:42.999Z</time></trkpt><trkpt lat="42.63042191332384" lon="13.285811477134757"><ele>878.0</ele><time>2026-04-18T09:28:43.999Z</time></trkpt><trkpt lat="42.630333270221705" lon="13.285672428467407"><ele>878.0</ele><time>2026-04-18T09:28:44.999Z</time></trkpt><trkpt lat="42.63021952566719" lon="13.285604085095853"><ele>878.0</ele><time>2026-04-18T09:28:45.999Z</time></trkpt><trkpt lat="42.63007443990642" lon="13.285590337245349"><ele>878.0</ele><time>2026-04-18T09:28:46.999Z</time></trkpt><trkpt lat="42.6299178794083" lon="13.28561153817866"><ele>884.0</ele><time>2026-04-18T09:28:47.999Z</time></trkpt><trkpt lat="42.629765347720586" lon="13.285649771167005"><ele>890.0</ele><time>2026-04-18T09:28:48.999Z</time></trkpt><trkpt lat="42.629613275809106" lon="13.28570895322844"><ele>896.0</ele><time>2026-04-18T09:28:49.999Z</time></trkpt><trkpt lat="42.629463786260615" lon="13.285765070185475"><ele>896.0</ele><time>2026-04-18T09:28:50.999Z</time></trkpt><trkpt lat="42.629321420229054" lon="13.285813028128892"><ele>896.0</ele><time>2026-04-18T09:28:51.999Z</time></trkpt><trkpt lat="42.62918429118561" lon="13.2858615605751"><ele>896.0</ele><time>2026-04-18T09:28:52.999Z</time></trkpt><trkpt lat="42.62905878577454" lon="13.28590447654461"><ele>896.0</ele><time>2026-04-18T09:28:53.999Z</time></trkpt><trkpt lat="42.62893944426072" lon="13.285944657075524"><ele>896.0</ele><time>2026-04-18T09:28:54.999Z</time></trkpt><trkpt lat="42.62882562908698" lon="13.28598908618099"><ele>896.0</ele><time>2026-04-18T09:28:55.999Z</time></trkpt><trkpt lat="42.62871151028405" lon="13.28602844427968"><ele>896.0</ele><time>2026-04-18T09:28:56.999Z</time></trkpt><trkpt lat="42.628599171739715" lon="13.286057491905803"><ele>896.0</ele><time>2026-04-18T09:28:57.999Z</time></trkpt><trkpt lat="42.628474893390475" lon="13.286080054731775"><ele>895.5</ele><time>2026-04-18T09:28:58.999Z</time></trkpt><trkpt lat="42.628352940572896" lon="13.286109343318985"><ele>895.0</ele><time>2026-04-18T09:29:00Z</time></trkpt><trkpt lat="42.628227498159674" lon="13.286126420234005"><ele>894.5</ele><time>2026-04-18T09:29:01Z</time></trkpt><trkpt lat="42.62810704446537" lon="13.28613588704665"><ele>894.0</ele><time>2026-04-18T09:29:02Z</time></trkpt><trkpt lat="42.62798695549378" lon="13.286159616039921"><ele>894.0</ele><time>2026-04-18T09:29:03Z</time></trkpt><trkpt lat="42.62786882632908" lon="13.28619512919398"><ele>894.0000000000001</ele><time>2026-04-18T09:29:04Z</time></trkpt><trkpt lat="42.62775749446581" lon="13.286238263557243"><ele>894.0000000000001</ele><time>2026-04-18T09:29:05Z</time></trkpt><trkpt lat="42.62767043605264" lon="13.286290894250762"><ele>894.0</ele><time>2026-04-18T09:29:06Z</time></trkpt><trkpt lat="42.62758921096125" lon="13.286351733871998"><ele>894.0</ele><time>2026-04-18T09:29:07Z</time></trkpt><trkpt lat="42.62752408943328" lon="13.286433179201444"><ele>894.6666666666666</ele><time>2026-04-18T09:29:08Z</time></trkpt><trkpt lat="42.62748247059734" lon="13.286530650127036"><ele>895.3333333333333</ele><time>2026-04-18T09:29:09Z</time></trkpt><trkpt lat="42.627484157797234" lon="13.28664170503228"><ele>896.0</ele><time>2026-04-18T09:29:10Z</time></trkpt><trkpt lat="42.62751765889103" lon="13.286747162324943"><ele>896.6666666666666</ele><time>2026-04-18T09:29:11Z</time></trkpt><trkpt lat="42.62757939194141" lon="13.286835245912"><ele>897.3333333333333</ele><time>2026-04-18T09:29:12Z</time></trkpt><trkpt lat="42.62765906203303" lon="13.286896283701276"><ele>898.0</ele><time>2026-04-18T09:29:13Z</time></trkpt><trkpt lat="42.627749803189985" lon="13.286915146819261"><ele>902.4</ele><time>2026-04-18T09:29:14Z</time></trkpt><trkpt lat="42.62784439311747" lon="13.286886098456472"><ele>906.8</ele><time>2026-04-18T09:29:15Z</time></trkpt><trkpt lat="42.62794509232525" lon="13.286846938566919"><ele>911.2</ele><time>2026-04-18T09:29:16Z</time></trkpt><trkpt lat="42.62804863403666" lon="13.286787329314174"><ele>915.6</ele><time>2026-04-18T09:29:17Z</time></trkpt><trkpt lat="42.62815311662713" lon="13.286740785351082"><ele>920.0</ele><time>2026-04-18T09:29:18Z</time></trkpt><trkpt lat="42.62826417202918" lon="13.28669061422269"><ele>920.0</ele><time>2026-04-18T09:29:19Z</time></trkpt><trkpt lat="42.62837199761497" lon="13.286651974707317"><ele>920.0</ele><time>2026-04-18T09:29:20Z</time></trkpt><trkpt lat="42.628485392373314" lon="13.286632691496662"><ele>920.0</ele><time>2026-04-18T09:29:20.999Z</time></trkpt><trkpt lat="42.62859630182305" lon="13.286619485888114"><ele>920.0</ele><time>2026-04-18T09:29:21.999Z</time></trkpt><trkpt lat="42.628709294494925" lon="13.286611092924115"><ele>921.2</ele><time>2026-04-18T09:29:22.999Z</time></trkpt><trkpt lat="42.62882255439091" lon="13.286604132580292"><ele>922.4</ele><time>2026-04-18T09:29:23.999Z</time></trkpt><trkpt lat="42.628935616874315" lon="13.286620119012342"><ele>923.5999999999999</ele><time>2026-04-18T09:29:24.999Z</time></trkpt><trkpt lat="42.62904214297155" lon="13.286610338246835"><ele>924.8</ele><time>2026-04-18T09:29:25.999Z</time></trkpt><trkpt lat="42.629142633886026" lon="13.28657599462027"><ele>926.0</ele><time>2026-04-18T09:29:26.999Z</time></trkpt><trkpt lat="42.62924042879006" lon="13.28655891929527"><ele>926.0000000000001</ele><time>2026-04-18T09:29:27.999Z</time></trkpt><trkpt lat="42.62933349879228" lon="13.286537978643901"><ele>926.0</ele><time>2026-04-18T09:29:28.999Z</time></trkpt><trkpt lat="42.62942466536514" lon="13.286503699573782"><ele>926.0</ele><time>2026-04-18T09:29:29.999Z</time></trkpt><trkpt lat="42.62951307066097" lon="13.286472610964145"><ele>926.0</ele><time>2026-04-18T09:29:30.999Z</time></trkpt><trkpt lat="42.62958746238533" lon="13.28644971668508"><ele>926.0000000000001</ele><time>2026-04-18T09:29:31.999Z</time></trkpt><trkpt lat="42.62966426327764" lon="13.286451555260248"><ele>926.0</ele><time>2026-04-18T09:29:32.999Z</time></trkpt><trkpt lat="42.629738255980584" lon="13.286443574449407"><ele>926.3333333333334</ele><time>2026-04-18T09:29:33.999Z</time></trkpt><trkpt lat="42.62980628044999" lon="13.286424807959918"><ele>926.6666666666667</ele><time>2026-04-18T09:29:34.999Z</time></trkpt><trkpt lat="42.62987524855296" lon="13.286454538767419"><ele>927.0</ele><time>2026-04-18T09:29:35.999Z</time></trkpt><trkpt lat="42.62994443522843" lon="13.286483381886946"><ele>927.3333333333333</ele><time>2026-04-18T09:29:36.999Z</time></trkpt><trkpt lat="42.630020655815315" lon="13.286519876331786"><ele>927.6666666666666</ele><time>2026-04-18T09:29:37.999Z</time></trkpt><trkpt lat="42.63009951595144" lon="13.286537283661534"><ele>928.0</ele><time>2026-04-18T09:29:38.999Z</time></trkpt><trkpt lat="42.630178286038046" lon="13.286584340610712"><ele>927.9999999999999</ele><time>2026-04-18T09:29:39.999Z</time></trkpt><trkpt lat="42.63025217571074" lon="13.286639761855012"><ele>928.0</ele><time>2026-04-18T09:29:40.999Z</time></trkpt><trkpt lat="42.630307563805246" lon="13.286715850085532"><ele>928.0</ele><time>2026-04-18T09:29:41.999Z</time></trkpt><trkpt lat="42.63033740569273" lon="13.286804348403376"><ele>928.0</ele><time>2026-04-18T09:29:42.999Z</time></trkpt><trkpt lat="42.630339884684446" lon="13.286904775666573"><ele>927.9999999999999</ele><time>2026-04-18T09:29:43.999Z</time></trkpt><trkpt lat="42.63032079372025" lon="13.287000505053655"><ele>928.0</ele><time>2026-04-18T09:29:44.999Z</time></trkpt><trkpt lat="42.630299711207094" lon="13.28709371181512"><ele>927.9999999999999</ele><time>2026-04-18T09:29:45.998Z</time></trkpt><trkpt lat="42.63027657009091" lon="13.28719432549133"><ele>928.0</ele><time>2026-04-18T09:29:46.998Z</time></trkpt><trkpt lat="42.630256657076146" lon="13.287297482964535"><ele>928.0</ele><time>2026-04-18T09:29:47.998Z</time></trkpt><trkpt lat="42.63023168473151" lon="13.287406259088744"><ele>928.0</ele><time>2026-04-18T09:29:48.998Z</time></trkpt><trkpt lat="42.63020726916879" lon="13.287514811472219"><ele>927.9999999999999</ele><time>2026-04-18T09:29:49.998Z</time></trkpt><trkpt lat="42.630166541813125" lon="13.287618379654768"><ele>928.0</ele><time>2026-04-18T09:29:50.998Z</time></trkpt><trkpt lat="42.630135010499004" lon="13.287727766303338"><ele>930.1666666666666</ele><time>2026-04-18T09:29:51.998Z</time></trkpt><trkpt lat="42.630103392056405" lon="13.287837455032681"><ele>932.3333333333333</ele><time>2026-04-18T09:29:52.998Z</time></trkpt><trkpt lat="42.6300714230621" lon="13.28794835996904"><ele>934.5</ele><time>2026-04-18T09:29:53.998Z</time></trkpt><trkpt lat="42.63004030782787" lon="13.288056303071539"><ele>936.6666666666667</ele><time>2026-04-18T09:29:54.998Z</time></trkpt><trkpt lat="42.63001094088748" lon="13.288158181143773"><ele>938.8333333333334</ele><time>2026-04-18T09:29:55.998Z</time></trkpt><trkpt lat="42.629995255191695" lon="13.28826465347185"><ele>941.0</ele><time>2026-04-18T09:29:56.998Z</time></trkpt><trkpt lat="42.62996499874728" lon="13.288362274438189"><ele>941.4</ele><time>2026-04-18T09:29:57.998Z</time></trkpt><trkpt lat="42.62993133019036" lon="13.288449283672911"><ele>941.8</ele><time>2026-04-18T09:29:58.998Z</time></trkpt><trkpt lat="42.62988332099284" lon="13.288594818273575"><ele>942.1999999999999</ele><time>2026-04-18T09:30:00.998Z</time></trkpt><trkpt lat="42.62983717515478" lon="13.288755614806925"><ele>942.5999999999999</ele><time>2026-04-18T09:30:02.998Z</time></trkpt><trkpt lat="42.629794599784574" lon="13.288879631892742"><ele>943.0</ele><time>2026-04-18T09:30:04.998Z</time></trkpt><trkpt lat="42.629762711442574" lon="13.289007334694958"><ele>942.3333333333333</ele><time>2026-04-18T09:30:06.998Z</time></trkpt><trkpt lat="42.62972079503878" lon="13.289130271238006"><ele>941.6666666666666</ele><time>2026-04-18T09:30:08.998Z</time></trkpt><trkpt lat="42.629679623490354" lon="13.28927616798364"><ele>941.0</ele><time>2026-04-18T09:30:10.998Z</time></trkpt><trkpt lat="42.629659524896965" lon="13.289359530103223"><ele>940.3333333333333</ele><time>2026-04-18T09:30:11.998Z</time></trkpt><trkpt lat="42.62963952602881" lon="13.289446867692385"><ele>939.6666666666666</ele><time>2026-04-18T09:30:12.998Z</time></trkpt><trkpt lat="42.629612617017706" lon="13.28953374154416"><ele>939.0</ele><time>2026-04-18T09:30:13.998Z</time></trkpt><trkpt lat="42.62958302918502" lon="13.28962066287399"><ele>939.0</ele><time>2026-04-18T09:30:14.998Z</time></trkpt><trkpt lat="42.62955971635732" lon="13.289707727243101"><ele>939.0</ele><time>2026-04-18T09:30:15.998Z</time></trkpt><trkpt lat="42.62953830099194" lon="13.289796842355274"><ele>939.0</ele><time>2026-04-18T09:30:16.998Z</time></trkpt><trkpt lat="42.62951544981891" lon="13.289888114273044"><ele>939.0</ele><time>2026-04-18T09:30:17.998Z</time></trkpt><trkpt lat="42.629490054131175" lon="13.2899770743758"><ele>939.0</ele><time>2026-04-18T09:30:18.998Z</time></trkpt><trkpt lat="42.62946547962365" lon="13.290070144651587"><ele>939.0</ele><time>2026-04-18T09:30:19.998Z</time></trkpt><trkpt lat="42.62944304070807" lon="13.290163564876543"><ele>939.0</ele><time>2026-04-18T09:30:20.998Z</time></trkpt><trkpt lat="42.62942062376572" lon="13.290255256074671"><ele>940.5714285714287</ele><time>2026-04-18T09:30:21.998Z</time></trkpt><trkpt lat="42.62939709368411" lon="13.29034629010029"><ele>942.1428571428571</ele><time>2026-04-18T09:30:22.998Z</time></trkpt><trkpt lat="42.62937787705379" lon="13.290439346878545"><ele>943.7142857142858</ele><time>2026-04-18T09:30:23.998Z</time></trkpt><trkpt lat="42.62935689505745" lon="13.29053086420232"><ele>945.2857142857143</ele><time>2026-04-18T09:30:24.998Z</time></trkpt><trkpt lat="42.629330227896325" lon="13.290613968585314"><ele>946.8571428571429</ele><time>2026-04-18T09:30:25.998Z</time></trkpt><trkpt lat="42.62929393980266" lon="13.290690366549223"><ele>948.4285714285714</ele><time>2026-04-18T09:30:26.998Z</time></trkpt><trkpt lat="42.62924824791495" lon="13.290761348580652"><ele>950.0</ele><time>2026-04-18T09:30:27.998Z</time></trkpt><trkpt lat="42.62919476200278" lon="13.290822951445282"><ele>950.0</ele><time>2026-04-18T09:30:28.998Z</time></trkpt><trkpt lat="42.6291374652739" lon="13.290870835811738"><ele>950.0000000000001</ele><time>2026-04-18T09:30:29.998Z</time></trkpt><trkpt lat="42.62907272484561" lon="13.290903657134919"><ele>950.0</ele><time>2026-04-18T09:30:30.998Z</time></trkpt><trkpt lat="42.62900538052398" lon="13.290940523789857"><ele>950.0</ele><time>2026-04-18T09:30:31.998Z</time></trkpt><trkpt lat="42.6289341963396" lon="13.290970550507131"><ele>950.0000000000001</ele><time>2026-04-18T09:30:32.998Z</time></trkpt><trkpt lat="42.628862901978756" lon="13.291003348844773"><ele>950.0</ele><time>2026-04-18T09:30:33.998Z</time></trkpt><trkpt lat="42.628794978807676" lon="13.291042134563561"><ele>950.0</ele><time>2026-04-18T09:30:34.998Z</time></trkpt><trkpt lat="42.62873081316628" lon="13.29107836738922"><ele>950.0</ele><time>2026-04-18T09:30:35.998Z</time></trkpt><trkpt lat="42.62866824161132" lon="13.291111064138535"><ele>950.0</ele><time>2026-04-18T09:30:36.998Z</time></trkpt><trkpt lat="42.62856631715462" lon="13.29117765542177"><ele>950.0</ele><time>2026-04-18T09:30:38.998Z</time></trkpt><trkpt lat="42.62848040657497" lon="13.29123434570428"><ele>950.0</ele><time>2026-04-18T09:30:40.998Z</time></trkpt><trkpt lat="42.62841476574438" lon="13.29132460379571"><ele>950.0</ele><time>2026-04-18T09:30:42.998Z</time></trkpt><trkpt lat="42.628376579116484" lon="13.29144850978416"><ele>950.6</ele><time>2026-04-18T09:30:44.998Z</time></trkpt><trkpt lat="42.628348681871486" lon="13.29155901925904"><ele>951.2</ele><time>2026-04-18T09:30:46.998Z</time></trkpt><trkpt lat="42.62830828468187" lon="13.291663978097105"><ele>951.8</ele><time>2026-04-18T09:30:48.998Z</time></trkpt><trkpt lat="42.62825868509048" lon="13.291780695436762"><ele>952.4</ele><time>2026-04-18T09:30:50.998Z</time></trkpt><trkpt lat="42.62820550492442" lon="13.291916441094404"><ele>953.0</ele><time>2026-04-18T09:30:52.998Z</time></trkpt><trkpt lat="42.62817678649026" lon="13.2919969992681"><ele>953.0</ele><time>2026-04-18T09:30:53.998Z</time></trkpt><trkpt lat="42.628143150607364" lon="13.29207826051937"><ele>953.0</ele><time>2026-04-18T09:30:54.998Z</time></trkpt><trkpt lat="42.62811982253625" lon="13.292164882621554"><ele>953.0</ele><time>2026-04-18T09:30:55.998Z</time></trkpt><trkpt lat="42.62809324781049" lon="13.292250164254108"><ele>953.0</ele><time>2026-04-18T09:30:56.998Z</time></trkpt><trkpt lat="42.62805968015852" lon="13.292327111799917"><ele>953.0</ele><time>2026-04-18T09:30:57.998Z</time></trkpt><trkpt lat="42.628021070710595" lon="13.292401013142875"><ele>953.0</ele><time>2026-04-18T09:30:58.998Z</time></trkpt><trkpt lat="42.62798105177286" lon="13.292469392269199"><ele>953.0</ele><time>2026-04-18T09:30:59.998Z</time></trkpt><trkpt lat="42.6279107423496" lon="13.292606033997368"><ele>953.0</ele><time>2026-04-18T09:31:01.998Z</time></trkpt><trkpt lat="42.62787611311818" lon="13.292684073764425"><ele>953.0</ele><time>2026-04-18T09:31:02.998Z</time></trkpt><trkpt lat="42.62783353347855" lon="13.292761532500332"><ele>953.0</ele><time>2026-04-18T09:31:03.998Z</time></trkpt><trkpt lat="42.62778966012093" lon="13.292845797677254"><ele>953.0</ele><time>2026-04-18T09:31:04.999Z</time></trkpt><trkpt lat="42.627744913799084" lon="13.292933901055633"><ele>953.0</ele><time>2026-04-18T09:31:05.999Z</time></trkpt><trkpt lat="42.62770434857347" lon="13.293021638234858"><ele>953.0</ele><time>2026-04-18T09:31:06.999Z</time></trkpt><trkpt lat="42.62766420507792" lon="13.293104553114631"><ele>953.0</ele><time>2026-04-18T09:31:07.999Z</time></trkpt><trkpt lat="42.62760996264538" lon="13.293201910644086"><ele>953.2</ele><time>2026-04-18T09:31:08.999Z</time></trkpt><trkpt lat="42.62754604948383" lon="13.29332106120421"><ele>953.4</ele><time>2026-04-18T09:31:09.999Z</time></trkpt><trkpt lat="42.62748022380039" lon="13.293443651769481"><ele>953.6000000000001</ele><time>2026-04-18T09:31:10.999Z</time></trkpt><trkpt lat="42.62741585804044" lon="13.293564103716493"><ele>953.8000000000001</ele><time>2026-04-18T09:31:11.999Z</time></trkpt><trkpt lat="42.62736084038019" lon="13.293685936307122"><ele>954.0</ele><time>2026-04-18T09:31:12.999Z</time></trkpt><trkpt lat="42.62730677703381" lon="13.2938043649348"><ele>954.0</ele><time>2026-04-18T09:31:13.999Z</time></trkpt><trkpt lat="42.62725101884295" lon="13.293910962023885"><ele>954.0000000000001</ele><time>2026-04-18T09:31:15Z</time></trkpt><trkpt lat="42.62719730345133" lon="13.294004894356451"><ele>954.0000000000001</ele><time>2026-04-18T09:31:16Z</time></trkpt><trkpt lat="42.62714948412056" lon="13.294107852630116"><ele>954.0</ele><time>2026-04-18T09:31:17Z</time></trkpt><trkpt lat="42.62709973147981" lon="13.294212194919693"><ele>954.0</ele><time>2026-04-18T09:31:18Z</time></trkpt><trkpt lat="42.62704925425489" lon="13.294309879600995"><ele>954.0</ele><time>2026-04-18T09:31:19Z</time></trkpt><trkpt lat="42.6269931416105" lon="13.294407268851234"><ele>954.0</ele><time>2026-04-18T09:31:20Z</time></trkpt><trkpt lat="42.626943942032156" lon="13.2945045915283"><ele>954.0</ele><time>2026-04-18T09:31:21Z</time></trkpt><trkpt lat="42.62689838114452" lon="13.294609318986113"><ele>954.0</ele><time>2026-04-18T09:31:22Z</time></trkpt><trkpt lat="42.62685102300882" lon="13.29470682181519"><ele>954.0</ele><time>2026-04-18T09:31:23Z</time></trkpt><trkpt lat="42.62680222079459" lon="13.294800964836856"><ele>954.0</ele><time>2026-04-18T09:31:24Z</time></trkpt><trkpt lat="42.62675309115302" lon="13.29489732456119"><ele>955.0</ele><time>2026-04-18T09:31:25Z</time></trkpt><trkpt lat="42.626707351531984" lon="13.294994710120005"><ele>956.0</ele><time>2026-04-18T09:31:26Z</time></trkpt><trkpt lat="42.626664266556894" lon="13.295085157539846"><ele>957.0</ele><time>2026-04-18T09:31:27Z</time></trkpt><trkpt lat="42.62662450591775" lon="13.295170592645253"><ele>958.0</ele><time>2026-04-18T09:31:28Z</time></trkpt><trkpt lat="42.62658403328542" lon="13.295253892011598"><ele>959.0</ele><time>2026-04-18T09:31:29Z</time></trkpt><trkpt lat="42.62654728459171" lon="13.295338642562026"><ele>960.0</ele><time>2026-04-18T09:31:30Z</time></trkpt><trkpt lat="42.626513730476155" lon="13.295421110772573"><ele>960.0</ele><time>2026-04-18T09:31:31Z</time></trkpt><trkpt lat="42.62647971228872" lon="13.29549709959641"><ele>960.0</ele><time>2026-04-18T09:31:32Z</time></trkpt><trkpt lat="42.62644826395794" lon="13.295572519805416"><ele>960.0</ele><time>2026-04-18T09:31:33Z</time></trkpt><trkpt lat="42.626421840489975" lon="13.295651382364937"><ele>960.0</ele><time>2026-04-18T09:31:34Z</time></trkpt><trkpt lat="42.62636939392146" lon="13.295803091393969"><ele>960.0</ele><time>2026-04-18T09:31:36Z</time></trkpt><trkpt lat="42.62634366507438" lon="13.295884514573542"><ele>960.0</ele><time>2026-04-18T09:31:37Z</time></trkpt><trkpt lat="42.626317460064605" lon="13.295967332763862"><ele>960.0</ele><time>2026-04-18T09:31:38Z</time></trkpt><trkpt lat="42.62628811912628" lon="13.296051416641678"><ele>960.1428571428571</ele><time>2026-04-18T09:31:39Z</time></trkpt><trkpt lat="42.62626347916147" lon="13.29613527961393"><ele>960.2857142857142</ele><time>2026-04-18T09:31:40Z</time></trkpt><trkpt lat="42.62623849194417" lon="13.296215820311156"><ele>960.4285714285713</ele><time>2026-04-18T09:31:41Z</time></trkpt><trkpt lat="42.62621038676286" lon="13.296294626097623"><ele>960.5714285714286</ele><time>2026-04-18T09:31:42Z</time></trkpt><trkpt lat="42.626182085991836" lon="13.296374087009601"><ele>960.7142857142856</ele><time>2026-04-18T09:31:43Z</time></trkpt><trkpt lat="42.626160300851666" lon="13.296458116862453"><ele>960.8571428571428</ele><time>2026-04-18T09:31:44Z</time></trkpt><trkpt lat="42.62613536839777" lon="13.296542790594588"><ele>961.0</ele><time>2026-04-18T09:31:45Z</time></trkpt><trkpt lat="42.62608444868322" lon="13.296607867193556"><ele>962.0</ele><time>2026-04-18T09:31:46Z</time></trkpt><trkpt lat="42.62604002255088" lon="13.29675320622564"><ele>962.9999999999999</ele><time>2026-04-18T09:31:48Z</time></trkpt><trkpt lat="42.6260013270677" lon="13.296880417483731"><ele>963.9999999999999</ele><time>2026-04-18T09:31:50Z</time></trkpt><trkpt lat="42.62596213276389" lon="13.297009712185226"><ele>965.0</ele><time>2026-04-18T09:31:52Z</time></trkpt><trkpt lat="42.62592780829402" lon="13.297122942458897"><ele>966.0</ele><time>2026-04-18T09:31:54Z</time></trkpt><trkpt lat="42.62589791402382" lon="13.297221559991193"><ele>966.1999999999999</ele><time>2026-04-18T09:31:56Z</time></trkpt><trkpt lat="42.625873621679666" lon="13.29730733177713"><ele>966.3999999999999</ele><time>2026-04-18T09:31:58Z</time></trkpt><trkpt lat="42.62583993138761" lon="13.29742486995173"><ele>966.6</ele><time>2026-04-18T09:32:00Z</time></trkpt><trkpt lat="42.62580316274679" lon="13.297555423312419"><ele>966.8</ele><time>2026-04-18T09:32:02Z</time></trkpt><trkpt lat="42.625763949970285" lon="13.297694655055453"><ele>967.0</ele><time>2026-04-18T09:32:04Z</time></trkpt><trkpt lat="42.625719036380424" lon="13.297854128483918"><ele>966.9999999999999</ele><time>2026-04-18T09:32:06Z</time></trkpt><trkpt lat="42.62569530209107" lon="13.297938401157985"><ele>967.0</ele><time>2026-04-18T09:32:07Z</time></trkpt><trkpt lat="42.62567184773994" lon="13.298021679861506"><ele>967.0</ele><time>2026-04-18T09:32:08Z</time></trkpt><trkpt lat="42.625648595913994" lon="13.298103110570782"><ele>967.0</ele><time>2026-04-18T09:32:09Z</time></trkpt><trkpt lat="42.62561680394563" lon="13.29824685050038"><ele>966.9999999999999</ele><time>2026-04-18T09:32:11Z</time></trkpt><trkpt lat="42.62557311791246" lon="13.298352514655612"><ele>967.0</ele><time>2026-04-18T09:32:13Z</time></trkpt><trkpt lat="42.62554167494519" lon="13.298486471932197"><ele>967.1428571428571</ele><time>2026-04-18T09:32:15Z</time></trkpt><trkpt lat="42.625504259888274" lon="13.298561702667207"><ele>967.2857142857142</ele><time>2026-04-18T09:32:16Z</time></trkpt><trkpt lat="42.625489830563545" lon="13.298667013432592"><ele>967.4285714285713</ele><time>2026-04-18T09:32:17Z</time></trkpt><trkpt lat="42.625455526977525" lon="13.298756228830246"><ele>967.5714285714286</ele><time>2026-04-18T09:32:18Z</time></trkpt><trkpt lat="42.62541814151993" lon="13.298844503567"><ele>967.7142857142856</ele><time>2026-04-18T09:32:19Z</time></trkpt><trkpt lat="42.62537538253329" lon="13.29893047175162"><ele>967.8571428571428</ele><time>2026-04-18T09:32:20Z</time></trkpt><trkpt lat="42.625332228777665" lon="13.299019371814191"><ele>968.0</ele><time>2026-04-18T09:32:21Z</time></trkpt><trkpt lat="42.62528815662892" lon="13.2991017127257"><ele>968.6666666666667</ele><time>2026-04-18T09:32:22Z</time></trkpt><trkpt lat="42.6252461428025" lon="13.299178394907146"><ele>969.3333333333334</ele><time>2026-04-18T09:32:23Z</time></trkpt><trkpt lat="42.625179210927406" lon="13.299234013129391"><ele>970.0</ele><time>2026-04-18T09:32:24Z</time></trkpt><trkpt lat="42.62514823661719" lon="13.299313609643256"><ele>970.6666666666667</ele><time>2026-04-18T09:32:25Z</time></trkpt><trkpt lat="42.625109411318824" lon="13.299383906162904"><ele>971.3333333333334</ele><time>2026-04-18T09:32:26Z</time></trkpt><trkpt lat="42.625034026459375" lon="13.299509695333237"><ele>972.0</ele><time>2026-04-18T09:32:28Z</time></trkpt><trkpt lat="42.6249557619089" lon="13.299628398607824"><ele>972.0</ele><time>2026-04-18T09:32:30Z</time></trkpt><trkpt lat="42.62490546977362" lon="13.299681269621908"><ele>972.0</ele><time>2026-04-18T09:32:31Z</time></trkpt><trkpt lat="42.62486428418556" lon="13.299747922805652"><ele>972.0</ele><time>2026-04-18T09:32:32Z</time></trkpt><trkpt lat="42.62482235738289" lon="13.299815775504896"><ele>972.0</ele><time>2026-04-18T09:32:33Z</time></trkpt><trkpt lat="42.62477775082321" lon="13.299887965012802"><ele>972.0</ele><time>2026-04-18T09:32:34Z</time></trkpt><trkpt lat="42.624746173037174" lon="13.299973585439568"><ele>972.0</ele><time>2026-04-18T09:32:35Z</time></trkpt><trkpt lat="42.62469707893011" lon="13.300043184076157"><ele>972.0</ele><time>2026-04-18T09:32:36Z</time></trkpt><trkpt lat="42.624651801027866" lon="13.30011970147918"><ele>972.1428571428571</ele><time>2026-04-18T09:32:37Z</time></trkpt><trkpt lat="42.62460054437547" lon="13.300194663288103"><ele>972.2857142857143</ele><time>2026-04-18T09:32:38Z</time></trkpt><trkpt lat="42.62455244393092" lon="13.300271044869353"><ele>972.4285714285714</ele><time>2026-04-18T09:32:39Z</time></trkpt><trkpt lat="42.624505235750085" lon="13.300350992836956"><ele>972.5714285714286</ele><time>2026-04-18T09:32:40Z</time></trkpt><trkpt lat="42.62446094763226" lon="13.300431520727791"><ele>972.7142857142858</ele><time>2026-04-18T09:32:41Z</time></trkpt><trkpt lat="42.624419275307844" lon="13.300508898490612"><ele>972.8571428571429</ele><time>2026-04-18T09:32:41.999Z</time></trkpt><trkpt lat="42.624370096135145" lon="13.300584660846447"><ele>973.0</ele><time>2026-04-18T09:32:42.999Z</time></trkpt><trkpt lat="42.62432185257361" lon="13.300666626554593"><ele>973.3333333333333</ele><time>2026-04-18T09:32:43.999Z</time></trkpt><trkpt lat="42.62427401101408" lon="13.300748477118058"><ele>973.6666666666666</ele><time>2026-04-18T09:32:44.999Z</time></trkpt><trkpt lat="42.62421962284227" lon="13.300827127394507"><ele>974.0</ele><time>2026-04-18T09:32:45.999Z</time></trkpt><trkpt lat="42.62416705140621" lon="13.300911809222379"><ele>974.3333333333333</ele><time>2026-04-18T09:32:46.999Z</time></trkpt><trkpt lat="42.624115269540916" lon="13.301000603522295"><ele>974.6666666666666</ele><time>2026-04-18T09:32:47.999Z</time></trkpt><trkpt lat="42.62406266209013" lon="13.301092760853592"><ele>975.0</ele><time>2026-04-18T09:32:48.999Z</time></trkpt><trkpt lat="42.62400599954406" lon="13.301184323972372"><ele>975.0</ele><time>2026-04-18T09:32:49.999Z</time></trkpt><trkpt lat="42.62394676161186" lon="13.30127936614434"><ele>975.0</ele><time>2026-04-18T09:32:50.999Z</time></trkpt><trkpt lat="42.623887977237" lon="13.301378497803045"><ele>975.0</ele><time>2026-04-18T09:32:51.999Z</time></trkpt><trkpt lat="42.623830300247576" lon="13.301479802392064"><ele>975.0</ele><time>2026-04-18T09:32:52.999Z</time></trkpt><trkpt lat="42.62377329214768" lon="13.30158106688035"><ele>975.0</ele><time>2026-04-18T09:32:53.999Z</time></trkpt><trkpt lat="42.62371978271759" lon="13.301686409819792"><ele>975.0</ele><time>2026-04-18T09:32:54.999Z</time></trkpt><trkpt lat="42.623669447541" lon="13.301796558313804"><ele>975.0</ele><time>2026-04-18T09:32:55.999Z</time></trkpt><trkpt lat="42.623616431054735" lon="13.301904618025064"><ele>975.0</ele><time>2026-04-18T09:32:56.999Z</time></trkpt><trkpt lat="42.62356150197137" lon="13.302011911078857"><ele>975.0</ele><time>2026-04-18T09:32:57.999Z</time></trkpt><trkpt lat="42.62350876404979" lon="13.302120723854303"><ele>975.0</ele><time>2026-04-18T09:32:58.999Z</time></trkpt><trkpt lat="42.62346014075352" lon="13.302230283012756"><ele>976.6</ele><time>2026-04-18T09:32:59.999Z</time></trkpt><trkpt lat="42.623412415992306" lon="13.30234139195031"><ele>978.2</ele><time>2026-04-18T09:33:00.999Z</time></trkpt><trkpt lat="42.623362649075005" lon="13.302450671351675"><ele>979.8</ele><time>2026-04-18T09:33:01.999Z</time></trkpt><trkpt lat="42.62329508341487" lon="13.302552406554698"><ele>981.4</ele><time>2026-04-18T09:33:02.999Z</time></trkpt><trkpt lat="42.62323964773971" lon="13.302668421672053"><ele>983.0</ele><time>2026-04-18T09:33:03.999Z</time></trkpt><trkpt lat="42.6231963070257" lon="13.302796039972758"><ele>983.0</ele><time>2026-04-18T09:33:04.999Z</time></trkpt><trkpt lat="42.62314075162118" lon="13.302906911126238"><ele>983.0</ele><time>2026-04-18T09:33:05.999Z</time></trkpt><trkpt lat="42.623086383239084" lon="13.303019515503443"><ele>983.0</ele><time>2026-04-18T09:33:06.999Z</time></trkpt><trkpt lat="42.62303082198723" lon="13.303133305601943"><ele>983.0</ele><time>2026-04-18T09:33:07.999Z</time></trkpt><trkpt lat="42.62297463423213" lon="13.303247164501858"><ele>983.0</ele><time>2026-04-18T09:33:08.999Z</time></trkpt><trkpt lat="42.62291930914178" lon="13.303363716318026"><ele>983.0</ele><time>2026-04-18T09:33:09.999Z</time></trkpt><trkpt lat="42.62286009029909" lon="13.303479711338182"><ele>983.0</ele><time>2026-04-18T09:33:11.001Z</time></trkpt><trkpt lat="42.62280404576576" lon="13.30359821186317"><ele>983.0</ele><time>2026-04-18T09:33:12.001Z</time></trkpt><trkpt lat="42.62274664234186" lon="13.303718803411535"><ele>983.0</ele><time>2026-04-18T09:33:13.001Z</time></trkpt><trkpt lat="42.62268514432954" lon="13.303840479163007"><ele>983.0</ele><time>2026-04-18T09:33:14.001Z</time></trkpt><trkpt lat="42.62262725364351" lon="13.30396468628064"><ele>983.0</ele><time>2026-04-18T09:33:15.001Z</time></trkpt><trkpt lat="42.622564073480994" lon="13.304086683341936"><ele>983.0</ele><time>2026-04-18T09:33:16Z</time></trkpt><trkpt lat="42.6225034336427" lon="13.30420771314226"><ele>983.0</ele><time>2026-04-18T09:33:17Z</time></trkpt><trkpt lat="42.6224399345289" lon="13.304326576488306"><ele>983.0</ele><time>2026-04-18T09:33:18Z</time></trkpt><trkpt lat="42.622377452357085" lon="13.304445256164142"><ele>983.0</ele><time>2026-04-18T09:33:19Z</time></trkpt><trkpt lat="42.622312073335586" lon="13.304564721013723"><ele>983.0</ele><time>2026-04-18T09:33:20Z</time></trkpt><trkpt lat="42.622246929024506" lon="13.304677402983632"><ele>983.0</ele><time>2026-04-18T09:33:21Z</time></trkpt><trkpt lat="42.62218035674193" lon="13.304788415769771"><ele>983.0</ele><time>2026-04-18T09:33:22Z</time></trkpt><trkpt lat="42.62211568943488" lon="13.304898031221486"><ele>983.0</ele><time>2026-04-18T09:33:23Z</time></trkpt><trkpt lat="42.62205224550249" lon="13.305007336768417"><ele>983.0</ele><time>2026-04-18T09:33:24Z</time></trkpt><trkpt lat="42.62198859208529" lon="13.305110955145409"><ele>983.0000000000001</ele><time>2026-04-18T09:33:25Z</time></trkpt><trkpt lat="42.62192892578001" lon="13.305214686300761"><ele>983.0</ele><time>2026-04-18T09:33:26Z</time></trkpt><trkpt lat="42.62188440119534" lon="13.305321737340181"><ele>983.0</ele><time>2026-04-18T09:33:27Z</time></trkpt><trkpt lat="42.621831052954" lon="13.305401475304652"><ele>983.0</ele><time>2026-04-18T09:33:28Z</time></trkpt><trkpt lat="42.62183540098566" lon="13.30551879239222"><ele>983.0000000000001</ele><time>2026-04-18T09:33:29Z</time></trkpt><trkpt lat="42.621824779750206" lon="13.305615197121545"><ele>983.0</ele><time>2026-04-18T09:33:30Z</time></trkpt><trkpt lat="42.62182259422135" lon="13.305717763516357"><ele>983.0</ele><time>2026-04-18T09:33:31Z</time></trkpt><trkpt lat="42.621832477716595" lon="13.305810251002361"><ele>983.0</ele><time>2026-04-18T09:33:32Z</time></trkpt><trkpt lat="42.62181466659275" lon="13.305909235018703"><ele>983.0</ele><time>2026-04-18T09:33:33Z</time></trkpt><trkpt lat="42.62182979982649" lon="13.306017687392572"><ele>983.0</ele><time>2026-04-18T09:33:34Z</time></trkpt><trkpt lat="42.62193675283664" lon="13.306205700200652"><ele>983.0</ele><time>2026-04-18T09:33:36Z</time></trkpt><trkpt lat="42.62199713995518" lon="13.30626467701764"><ele>983.5000000000001</ele><time>2026-04-18T09:33:37Z</time></trkpt><trkpt lat="42.6220650767629" lon="13.306331027366877"><ele>984.0</ele><time>2026-04-18T09:33:38Z</time></trkpt><trkpt lat="42.62213409271722" lon="13.306398431553252"><ele>984.5</ele><time>2026-04-18T09:33:39Z</time></trkpt><trkpt lat="42.622199658129134" lon="13.306462465830426"><ele>985.0</ele><time>2026-04-18T09:33:40Z</time></trkpt><trkpt lat="42.62231826131114" lon="13.306411783180662"><ele>985.5000000000001</ele><time>2026-04-18T09:33:41Z</time></trkpt><trkpt lat="42.62235634055512" lon="13.306487432893924"><ele>986.0</ele><time>2026-04-18T09:33:42Z</time></trkpt><trkpt lat="42.62244534765722" lon="13.306491350211246"><ele>986.3333333333334</ele><time>2026-04-18T09:33:44Z</time></trkpt><trkpt lat="42.62245568465712" lon="13.306359775766635"><ele>986.6666666666667</ele><time>2026-04-18T09:33:46Z</time></trkpt><trkpt lat="42.6224011344176" lon="13.306300221558189"><ele>987.0</ele><time>2026-04-18T09:33:47Z</time></trkpt><trkpt lat="42.62231652893637" lon="13.306278886906489"><ele>987.3333333333333</ele><time>2026-04-18T09:33:48Z</time></trkpt><trkpt lat="42.62223541857665" lon="13.306247181896824"><ele>987.6666666666666</ele><time>2026-04-18T09:33:49Z</time></trkpt><trkpt lat="42.62216315938648" lon="13.30617984332943"><ele>988.0</ele><time>2026-04-18T09:33:50Z</time></trkpt><trkpt lat="42.62211163598356" lon="13.306107070412889"><ele>987.9999999999999</ele><time>2026-04-18T09:33:51Z</time></trkpt><trkpt lat="42.622052600162725" lon="13.306039989081988"><ele>988.0</ele><time>2026-04-18T09:33:52Z</time></trkpt><trkpt lat="42.621997313993106" lon="13.305976862477644"><ele>988.0</ele><time>2026-04-18T09:33:53Z</time></trkpt><trkpt lat="42.62194557702473" lon="13.305921229633448"><ele>988.0</ele><time>2026-04-18T09:33:54Z</time></trkpt><trkpt lat="42.621858873737175" lon="13.305787226482446"><ele>987.9999999999999</ele><time>2026-04-18T09:33:56Z</time></trkpt><trkpt lat="42.62184201774037" lon="13.30570175523578"><ele>988.0</ele><time>2026-04-18T09:33:57Z</time></trkpt><trkpt lat="42.621858235677585" lon="13.305602577418222"><ele>988.0</ele><time>2026-04-18T09:33:58Z</time></trkpt><trkpt lat="42.621876510764295" lon="13.305505652358681"><ele>988.0</ele><time>2026-04-18T09:33:59Z</time></trkpt><trkpt lat="42.62189323384893" lon="13.305413620675637"><ele>988.0</ele><time>2026-04-18T09:34:00Z</time></trkpt><trkpt lat="42.62191117194316" lon="13.30531728153926"><ele>988.0</ele><time>2026-04-18T09:34:01Z</time></trkpt><trkpt lat="42.621950784322436" lon="13.30522214229904"><ele>988.0</ele><time>2026-04-18T09:34:02Z</time></trkpt><trkpt lat="42.62200971637464" lon="13.30515918648357"><ele>988.0</ele><time>2026-04-18T09:34:03Z</time></trkpt><trkpt lat="42.62207826388857" lon="13.305119787653583"><ele>988.0</ele><time>2026-04-18T09:34:04Z</time></trkpt><trkpt lat="42.62215286934107" lon="13.305096419370114"><ele>987.9999999999999</ele><time>2026-04-18T09:34:05Z</time></trkpt><trkpt lat="42.62223640380401" lon="13.305090747181838"><ele>988.0</ele><time>2026-04-18T09:34:06Z</time></trkpt><trkpt lat="42.62232128329865" lon="13.305086666423678"><ele>988.0</ele><time>2026-04-18T09:34:07Z</time></trkpt><trkpt lat="42.622401848381394" lon="13.305067093805073"><ele>988.0</ele><time>2026-04-18T09:34:08Z</time></trkpt><trkpt lat="42.622486580485464" lon="13.305051169695522"><ele>987.9999999999999</ele><time>2026-04-18T09:34:09Z</time></trkpt><trkpt lat="42.62257273317129" lon="13.305040154939938"><ele>988.0</ele><time>2026-04-18T09:34:10Z</time></trkpt><trkpt lat="42.62265528511664" lon="13.305027726285504"><ele>987.9999999999999</ele><time>2026-04-18T09:34:11Z</time></trkpt><trkpt lat="42.62273085923398" lon="13.305009624612435"><ele>988.0</ele><time>2026-04-18T09:34:12Z</time></trkpt><trkpt lat="42.62284568951808" lon="13.30500858449907"><ele>988.0</ele><time>2026-04-18T09:34:14Z</time></trkpt><trkpt lat="42.62291744996079" lon="13.3050572562766"><ele>988.0</ele><time>2026-04-18T09:34:16Z</time></trkpt><trkpt lat="42.62298729112266" lon="13.305131452605698"><ele>987.9999999999999</ele><time>2026-04-18T09:34:19Z</time></trkpt><trkpt lat="42.62301667874731" lon="13.30521209630156"><ele>988.0</ele><time>2026-04-18T09:34:22Z</time></trkpt><trkpt lat="42.623012226441936" lon="13.305309416516739"><ele>987.8333333333333</ele><time>2026-04-18T09:34:24Z</time></trkpt><trkpt lat="42.62300258814449" lon="13.305396247329245"><ele>987.6666666666666</ele><time>2026-04-18T09:34:26Z</time></trkpt><trkpt lat="42.623010211068426" lon="13.305509674981481"><ele>987.5</ele><time>2026-04-18T09:34:29Z</time></trkpt><trkpt lat="42.62308807094768" lon="13.305566947618653"><ele>987.3333333333333</ele><time>2026-04-18T09:34:32Z</time></trkpt><trkpt lat="42.623150170795675" lon="13.305603442833414"><ele>987.1666666666666</ele><time>2026-04-18T09:34:34Z</time></trkpt><trkpt lat="42.62322066345123" lon="13.305687660618357"><ele>987.0</ele><time>2026-04-18T09:34:37Z</time></trkpt><trkpt lat="42.62324179874256" lon="13.30580322122159"><ele>987.0</ele><time>2026-04-18T09:34:39.999Z</time></trkpt><trkpt lat="42.62317104096691" lon="13.3058790677601"><ele>987.0</ele><time>2026-04-18T09:34:42.999Z</time></trkpt><trkpt lat="42.623095330075486" lon="13.30583398197178"><ele>987.0</ele><time>2026-04-18T09:34:45.999Z</time></trkpt><trkpt lat="42.623103530282606" lon="13.305721342357796"><ele>987.0</ele><time>2026-04-18T09:34:48.999Z</time></trkpt><trkpt lat="42.623123432341664" lon="13.305614673210096"><ele>987.0</ele><time>2026-04-18T09:34:51.999Z</time></trkpt><trkpt lat="42.62309187104446" lon="13.305524466507556"><ele>987.0</ele><time>2026-04-18T09:34:54.999Z</time></trkpt><trkpt lat="42.623030436274966" lon="13.305482760965608"><ele>987.0</ele><time>2026-04-18T09:34:57.999Z</time></trkpt><trkpt lat="42.62299706417993" lon="13.305404124043898"><ele>987.0</ele><time>2026-04-18T09:35:00.999Z</time></trkpt><trkpt lat="42.62300502382958" lon="13.305316924652011"><ele>987.0</ele><time>2026-04-18T09:35:03.999Z</time></trkpt><trkpt lat="42.62303224114016" lon="13.305213667609147"><ele>987.0</ele><time>2026-04-18T09:35:07.999Z</time></trkpt><trkpt lat="42.62304372854453" lon="13.30512476176274"><ele>987.0</ele><time>2026-04-18T09:38:54.999Z</time></trkpt><trkpt lat="42.623049902914524" lon="13.305030010593564"><ele>987.0</ele><time>2026-04-18T09:38:56.999Z</time></trkpt><trkpt lat="42.623097235361904" lon="13.304967296606815"><ele>987.0</ele><time>2026-04-18T09:38:58.999Z</time></trkpt><trkpt lat="42.623134366269284" lon="13.304874672018867"><ele>987.0</ele><time>2026-04-18T09:39:00.999Z</time></trkpt><trkpt lat="42.62316620715196" lon="13.304795110858501"><ele>987.0</ele><time>2026-04-18T09:39:02.999Z</time></trkpt><trkpt lat="42.623206871869684" lon="13.304693501319038"><ele>987.0</ele><time>2026-04-18T09:39:05.999Z</time></trkpt><trkpt lat="42.62323096987744" lon="13.304609117251125"><ele>987.0</ele><time>2026-04-18T09:39:09.999Z</time></trkpt><trkpt lat="42.62327111097597" lon="13.304513147246821"><ele>987.0</ele><time>2026-04-18T09:39:11.999Z</time></trkpt><trkpt lat="42.62331810209063" lon="13.304410903651728"><ele>987.0</ele><time>2026-04-18T09:39:13.999Z</time></trkpt><trkpt lat="42.623382031801974" lon="13.304292539755032"><ele>987.2</ele><time>2026-04-18T09:39:15.999Z</time></trkpt><trkpt lat="42.62343655402996" lon="13.30414420534361"><ele>987.4000000000001</ele><time>2026-04-18T09:39:17.999Z</time></trkpt><trkpt lat="42.62349622308382" lon="13.304002641508257"><ele>987.5999999999999</ele><time>2026-04-18T09:39:19.999Z</time></trkpt><trkpt lat="42.62357038321442" lon="13.303921957638568"><ele>987.8</ele><time>2026-04-18T09:39:21.999Z</time></trkpt><trkpt lat="42.6236266924423" lon="13.303857195300793"><ele>988.0</ele><time>2026-04-18T09:39:23.999Z</time></trkpt><trkpt lat="42.62367571807498" lon="13.303800809657574"><ele>987.5999999999999</ele><time>2026-04-18T09:39:25.999Z</time></trkpt><trkpt lat="42.62368560531906" lon="13.303658087150612"><ele>987.1999999999999</ele><time>2026-04-18T09:39:27.998Z</time></trkpt><trkpt lat="42.623719500662794" lon="13.303533003793966"><ele>986.8</ele><time>2026-04-18T09:39:30.001Z</time></trkpt><trkpt lat="42.623734330624366" lon="13.303403001946295"><ele>986.4</ele><time>2026-04-18T09:39:32.001Z</time></trkpt><trkpt lat="42.62372906419894" lon="13.303269305934348"><ele>986.0</ele><time>2026-04-18T09:39:34.001Z</time></trkpt><trkpt lat="42.623732372589984" lon="13.30311878112127"><ele>985.8</ele><time>2026-04-18T09:39:36.001Z</time></trkpt><trkpt lat="42.62373594231974" lon="13.302969460808926"><ele>985.5999999999999</ele><time>2026-04-18T09:39:38.001Z</time></trkpt><trkpt lat="42.623729738263975" lon="13.302841062777057"><ele>985.4</ele><time>2026-04-18T09:39:40.001Z</time></trkpt><trkpt lat="42.623717551482294" lon="13.30272026045231"><ele>985.2</ele><time>2026-04-18T09:39:42.001Z</time></trkpt><trkpt lat="42.62369917268776" lon="13.302621016107832"><ele>985.0</ele><time>2026-04-18T09:39:44Z</time></trkpt><trkpt lat="42.623662505746715" lon="13.302514174582518"><ele>984.6666666666666</ele><time>2026-04-18T09:39:46Z</time></trkpt><trkpt lat="42.62361175768494" lon="13.302436619043863"><ele>984.3333333333333</ele><time>2026-04-18T09:39:48Z</time></trkpt><trkpt lat="42.62355040096342" lon="13.302354290518489"><ele>984.0</ele><time>2026-04-18T09:39:50Z</time></trkpt><trkpt lat="42.62350367109643" lon="13.302283910801437"><ele>983.6666666666667</ele><time>2026-04-18T09:39:52Z</time></trkpt><trkpt lat="42.62339826963231" lon="13.302333538751947"><ele>983.3333333333334</ele><time>2026-04-18T09:40:00Z</time></trkpt><trkpt lat="42.62334276293025" lon="13.302452624655736"><ele>983.0</ele><time>2026-04-18T09:40:01Z</time></trkpt><trkpt lat="42.6233100090712" lon="13.302557067709648"><ele>983.0</ele><time>2026-04-18T09:40:02Z</time></trkpt><trkpt lat="42.62325809700374" lon="13.302663256415636"><ele>983.0</ele><time>2026-04-18T09:40:03Z</time></trkpt><trkpt lat="42.62320780783928" lon="13.302768584103129"><ele>983.0</ele><time>2026-04-18T09:40:04Z</time></trkpt><trkpt lat="42.62315283068675" lon="13.302885362899804"><ele>983.0</ele><time>2026-04-18T09:40:05Z</time></trkpt><trkpt lat="42.62309446847836" lon="13.303004300391283"><ele>983.0</ele><time>2026-04-18T09:40:06Z</time></trkpt><trkpt lat="42.62303307077485" lon="13.30313026843554"><ele>983.75</ele><time>2026-04-18T09:40:07Z</time></trkpt><trkpt lat="42.622967856524866" lon="13.303259230699798"><ele>984.5</ele><time>2026-04-18T09:40:08Z</time></trkpt><trkpt lat="42.622904709920924" lon="13.303393326582729"><ele>985.25</ele><time>2026-04-18T09:40:09Z</time></trkpt><trkpt lat="42.62283905737626" lon="13.303531535208581"><ele>986.0</ele><time>2026-04-18T09:40:10Z</time></trkpt><trkpt lat="42.62276977438122" lon="13.303672218060651"><ele>985.25</ele><time>2026-04-18T09:40:11Z</time></trkpt><trkpt lat="42.62270213014472" lon="13.30381468939852"><ele>984.5</ele><time>2026-04-18T09:40:12Z</time></trkpt><trkpt lat="42.62263151729351" lon="13.303957417057477"><ele>983.75</ele><time>2026-04-18T09:40:13Z</time></trkpt><trkpt lat="42.622559717489835" lon="13.304099871085228"><ele>983.0</ele><time>2026-04-18T09:40:14Z</time></trkpt><trkpt lat="42.622485267470466" lon="13.304242167259453"><ele>983.0</ele><time>2026-04-18T09:40:15Z</time></trkpt><trkpt lat="42.6224116419521" lon="13.30438264709229"><ele>983.0</ele><time>2026-04-18T09:40:16Z</time></trkpt><trkpt lat="42.62233500985756" lon="13.304521291407298"><ele>983.0</ele><time>2026-04-18T09:40:17Z</time></trkpt><trkpt lat="42.622255756530194" lon="13.304658946240028"><ele>983.0</ele><time>2026-04-18T09:40:18Z</time></trkpt><trkpt lat="42.622174921534786" lon="13.304798038912464"><ele>984.25</ele><time>2026-04-18T09:40:19Z</time></trkpt><trkpt lat="42.6220945067496" lon="13.304932586999243"><ele>985.5</ele><time>2026-04-18T09:40:20Z</time></trkpt><trkpt lat="42.62201651805436" lon="13.305069194466626"><ele>986.75</ele><time>2026-04-18T09:40:21Z</time></trkpt><trkpt lat="42.621940778753746" lon="13.30521604699952"><ele>988.0</ele><time>2026-04-18T09:40:22Z</time></trkpt><trkpt lat="42.62186642433434" lon="13.305357137989654"><ele>986.75</ele><time>2026-04-18T09:40:23Z</time></trkpt><trkpt lat="42.62179026338567" lon="13.305495202903222"><ele>985.5</ele><time>2026-04-18T09:40:24Z</time></trkpt><trkpt lat="42.621712187179256" lon="13.305631447281366"><ele>984.25</ele><time>2026-04-18T09:40:25Z</time></trkpt><trkpt lat="42.62163235261744" lon="13.305770371892566"><ele>983.0</ele><time>2026-04-18T09:40:26Z</time></trkpt><trkpt lat="42.62155188318603" lon="13.305909289295899"><ele>983.0</ele><time>2026-04-18T09:40:27Z</time></trkpt><trkpt lat="42.62146871819245" lon="13.306045479320986"><ele>983.0</ele><time>2026-04-18T09:40:28Z</time></trkpt><trkpt lat="42.6213843178623" lon="13.306179510011104"><ele>983.0</ele><time>2026-04-18T09:40:29Z</time></trkpt><trkpt lat="42.62130100609888" lon="13.306313967116315"><ele>983.0</ele><time>2026-04-18T09:40:30Z</time></trkpt><trkpt lat="42.621224699886696" lon="13.306458908180394"><ele>982.25</ele><time>2026-04-18T09:40:31Z</time></trkpt><trkpt lat="42.621159908285556" lon="13.306611673765463"><ele>981.5</ele><time>2026-04-18T09:40:31.999Z</time></trkpt><trkpt lat="42.62111509100125" lon="13.306777821619097"><ele>980.75</ele><time>2026-04-18T09:40:32.999Z</time></trkpt><trkpt lat="42.621087602609364" lon="13.306949196380407"><ele>980.0</ele><time>2026-04-18T09:40:33.999Z</time></trkpt><trkpt lat="42.62108024290559" lon="13.307124162309762"><ele>980.75</ele><time>2026-04-18T09:40:34.999Z</time></trkpt><trkpt lat="42.62107827132699" lon="13.307297413628492"><ele>981.5</ele><time>2026-04-18T09:40:35.999Z</time></trkpt><trkpt lat="42.6210766510618" lon="13.307471490385828"><ele>982.25</ele><time>2026-04-18T09:40:36.999Z</time></trkpt><trkpt lat="42.62107182997295" lon="13.307643707304408"><ele>983.0</ele><time>2026-04-18T09:40:37.999Z</time></trkpt><trkpt lat="42.62106981710638" lon="13.30781378194408"><ele>983.0</ele><time>2026-04-18T09:40:38.999Z</time></trkpt><trkpt lat="42.62106788974022" lon="13.307976964691957"><ele>983.0</ele><time>2026-04-18T09:40:39.999Z</time></trkpt><trkpt lat="42.6210622652557" lon="13.308137775891906"><ele>983.0</ele><time>2026-04-18T09:40:40.999Z</time></trkpt><trkpt lat="42.62103069845047" lon="13.308286179118152"><ele>983.0</ele><time>2026-04-18T09:40:41.999Z</time></trkpt><trkpt lat="42.62100674270819" lon="13.30843203374941"><ele>983.0</ele><time>2026-04-18T09:40:42.999Z</time></trkpt><trkpt lat="42.62098540428165" lon="13.308578531852234"><ele>983.0</ele><time>2026-04-18T09:40:43.999Z</time></trkpt><trkpt lat="42.6209839077764" lon="13.30872714701568"><ele>983.0</ele><time>2026-04-18T09:40:44.999Z</time></trkpt><trkpt lat="42.62097402376053" lon="13.30887713721499"><ele>983.0</ele><time>2026-04-18T09:40:45.999Z</time></trkpt><trkpt lat="42.62097279401973" lon="13.309031040899493"><ele>983.0</ele><time>2026-04-18T09:40:46.999Z</time></trkpt><trkpt lat="42.62097709002951" lon="13.30918417000905"><ele>983.5</ele><time>2026-04-18T09:40:47.999Z</time></trkpt><trkpt lat="42.620985229553064" lon="13.309336137094483"><ele>984.0</ele><time>2026-04-18T09:40:48.999Z</time></trkpt><trkpt lat="42.620996409822254" lon="13.30949018577007"><ele>984.5</ele><time>2026-04-18T09:40:49.999Z</time></trkpt><trkpt lat="42.62100923047612" lon="13.309646988963886"><ele>985.0</ele><time>2026-04-18T09:40:50.999Z</time></trkpt><trkpt lat="42.621022481440924" lon="13.309803902150081"><ele>985.25</ele><time>2026-04-18T09:40:51.999Z</time></trkpt><trkpt lat="42.62101441655476" lon="13.309966395630903"><ele>985.5</ele><time>2026-04-18T09:40:52.999Z</time></trkpt><trkpt lat="42.62103056063557" lon="13.310122263151174"><ele>985.75</ele><time>2026-04-18T09:40:53.999Z</time></trkpt><trkpt lat="42.621010051701134" lon="13.310276651989055"><ele>986.0</ele><time>2026-04-18T09:40:54.999Z</time></trkpt><trkpt lat="42.620970677837676" lon="13.31042593155441"><ele>986.0</ele><time>2026-04-18T09:40:55.999Z</time></trkpt><trkpt lat="42.62092093784903" lon="13.310568334223477"><ele>986.0</ele><time>2026-04-18T09:40:56.999Z</time></trkpt><trkpt lat="42.62087011606082" lon="13.31071135450036"><ele>986.0</ele><time>2026-04-18T09:40:57.999Z</time></trkpt><trkpt lat="42.62081888226554" lon="13.310860191503194"><ele>986.0</ele><time>2026-04-18T09:40:58.999Z</time></trkpt><trkpt lat="42.62076808616492" lon="13.3110123989157"><ele>985.75</ele><time>2026-04-18T09:40:59.999Z</time></trkpt><trkpt lat="42.62071472042873" lon="13.3111636861965"><ele>985.5</ele><time>2026-04-18T09:41:00.999Z</time></trkpt><trkpt lat="42.62065520293185" lon="13.311309297186584"><ele>985.25</ele><time>2026-04-18T09:41:01.999Z</time></trkpt><trkpt lat="42.620599239095284" lon="13.3114521628129"><ele>985.0</ele><time>2026-04-18T09:41:02.999Z</time></trkpt><trkpt lat="42.62054986811776" lon="13.311603697583775"><ele>985.0</ele><time>2026-04-18T09:41:03.999Z</time></trkpt><trkpt lat="42.62050322913822" lon="13.311756780555879"><ele>985.0</ele><time>2026-04-18T09:41:04.999Z</time></trkpt><trkpt lat="42.620463242719026" lon="13.3119147344461"><ele>985.0</ele><time>2026-04-18T09:41:05.999Z</time></trkpt><trkpt lat="42.620431464035214" lon="13.312075601803702"><ele>985.0</ele><time>2026-04-18T09:41:06.999Z</time></trkpt><trkpt lat="42.620415170277255" lon="13.312238185428646"><ele>984.25</ele><time>2026-04-18T09:41:07.999Z</time></trkpt><trkpt lat="42.62041186771838" lon="13.312404970935836"><ele>983.5</ele><time>2026-04-18T09:41:08.999Z</time></trkpt><trkpt lat="42.62041704591219" lon="13.3125703880932"><ele>982.75</ele><time>2026-04-18T09:41:09.999Z</time></trkpt><trkpt lat="42.620423483152784" lon="13.312737011822694"><ele>982.0</ele><time>2026-04-18T09:41:10.999Z</time></trkpt><trkpt lat="42.62042927687442" lon="13.312905961226551"><ele>982.0</ele><time>2026-04-18T09:41:11.999Z</time></trkpt><trkpt lat="42.62043126026542" lon="13.313078022521525"><ele>982.0</ele><time>2026-04-18T09:41:12.999Z</time></trkpt><trkpt lat="42.620435321472335" lon="13.313251212250861"><ele>982.0</ele><time>2026-04-18T09:41:13.999Z</time></trkpt><trkpt lat="42.620438885339894" lon="13.313424205516684"><ele>982.0</ele><time>2026-04-18T09:41:14.999Z</time></trkpt><trkpt lat="42.62043998171335" lon="13.313599740159741"><ele>982.0</ele><time>2026-04-18T09:41:15.999Z</time></trkpt><trkpt lat="42.62043988633189" lon="13.313776405951753"><ele>982.0</ele><time>2026-04-18T09:41:16.999Z</time></trkpt><trkpt lat="42.62044042616609" lon="13.313951703696416"><ele>982.0</ele><time>2026-04-18T09:41:17.999Z</time></trkpt><trkpt lat="42.6204416588981" lon="13.314128435032945"><ele>982.0</ele><time>2026-04-18T09:41:18.999Z</time></trkpt><trkpt lat="42.62044289742689" lon="13.314305545089608"><ele>981.25</ele><time>2026-04-18T09:41:19.999Z</time></trkpt><trkpt lat="42.620445048220915" lon="13.314482366226"><ele>980.5</ele><time>2026-04-18T09:41:20.999Z</time></trkpt><trkpt lat="42.620449397062984" lon="13.31465351411001"><ele>979.75</ele><time>2026-04-18T09:41:21.999Z</time></trkpt><trkpt lat="42.620442920973495" lon="13.314825627062284"><ele>979.0</ele><time>2026-04-18T09:41:22.999Z</time></trkpt><trkpt lat="42.62041169738417" lon="13.314989872678145"><ele>978.25</ele><time>2026-04-18T09:41:23.999Z</time></trkpt><trkpt lat="42.620367676396285" lon="13.315146717057226"><ele>977.5</ele><time>2026-04-18T09:41:24.999Z</time></trkpt><trkpt lat="42.620315776012625" lon="13.315295293921611"><ele>976.75</ele><time>2026-04-18T09:41:25.999Z</time></trkpt><trkpt lat="42.620263672327695" lon="13.315435687362172"><ele>976.0</ele><time>2026-04-18T09:41:26.999Z</time></trkpt><trkpt lat="42.620212712153055" lon="13.3155696736832"><ele>980.8</ele><time>2026-04-18T09:41:27.999Z</time></trkpt><trkpt lat="42.620165980477324" lon="13.315701601800463"><ele>985.5999999999999</ele><time>2026-04-18T09:41:28.999Z</time></trkpt><trkpt lat="42.62012911237398" lon="13.315835841985503"><ele>990.4</ele><time>2026-04-18T09:41:29.999Z</time></trkpt><trkpt lat="42.620103163653866" lon="13.31596582597411"><ele>995.2</ele><time>2026-04-18T09:41:30.999Z</time></trkpt><trkpt lat="42.62008983697554" lon="13.316097235892924"><ele>1000.0</ele><time>2026-04-18T09:41:31.999Z</time></trkpt><trkpt lat="42.6200793928391" lon="13.31622999794785"><ele>1000.0</ele><time>2026-04-18T09:41:32.999Z</time></trkpt><trkpt lat="42.62006493804409" lon="13.316360788763765"><ele>1000.0</ele><time>2026-04-18T09:41:33.999Z</time></trkpt><trkpt lat="42.620043533463225" lon="13.316489382972778"><ele>1000.0</ele><time>2026-04-18T09:41:35.001Z</time></trkpt><trkpt lat="42.620008037644745" lon="13.316612436528846"><ele>1000.0</ele><time>2026-04-18T09:41:36.001Z</time></trkpt><trkpt lat="42.61994601625214" lon="13.316718455427855"><ele>1000.0</ele><time>2026-04-18T09:41:37.001Z</time></trkpt><trkpt lat="42.61986895136126" lon="13.316805698765695"><ele>1001.8</ele><time>2026-04-18T09:41:38.001Z</time></trkpt><trkpt lat="42.61977308539215" lon="13.316870837413786"><ele>1003.6</ele><time>2026-04-18T09:41:39.001Z</time></trkpt><trkpt lat="42.61967424466152" lon="13.316931724152484"><ele>1005.4000000000001</ele><time>2026-04-18T09:41:40.001Z</time></trkpt><trkpt lat="42.619571240176576" lon="13.316995787427617"><ele>1007.2</ele><time>2026-04-18T09:41:41.001Z</time></trkpt><trkpt lat="42.61946602993401" lon="13.317063548234811"><ele>1009.0</ele><time>2026-04-18T09:41:42.001Z</time></trkpt><trkpt lat="42.61936017316491" lon="13.317131171083046"><ele>1009.0</ele><time>2026-04-18T09:41:43.001Z</time></trkpt><trkpt lat="42.61926021477908" lon="13.317215320577851"><ele>1009.0</ele><time>2026-04-18T09:41:44.001Z</time></trkpt><trkpt lat="42.619168906153874" lon="13.317318073182722"><ele>1009.0</ele><time>2026-04-18T09:41:45.001Z</time></trkpt><trkpt lat="42.61909295056201" lon="13.31744549378401"><ele>1009.0</ele><time>2026-04-18T09:41:46.001Z</time></trkpt><trkpt lat="42.61902687020448" lon="13.317579071929908"><ele>1005.5</ele><time>2026-04-18T09:41:47.001Z</time></trkpt><trkpt lat="42.61896454011036" lon="13.317714092335232"><ele>1002.0</ele><time>2026-04-18T09:41:48.001Z</time></trkpt><trkpt lat="42.61890614246083" lon="13.317851664365085"><ele>998.5</ele><time>2026-04-18T09:41:49.001Z</time></trkpt><trkpt lat="42.61885152500177" lon="13.317992211838211"><ele>995.0</ele><time>2026-04-18T09:41:50.001Z</time></trkpt><trkpt lat="42.61881002046806" lon="13.318143932341263"><ele>993.5</ele><time>2026-04-18T09:41:51.001Z</time></trkpt><trkpt lat="42.61878050826714" lon="13.318304615658626"><ele>992.0</ele><time>2026-04-18T09:41:52.001Z</time></trkpt><trkpt lat="42.61876145777737" lon="13.318471603625563"><ele>990.5</ele><time>2026-04-18T09:41:53Z</time></trkpt><trkpt lat="42.61874038350183" lon="13.318640337433099"><ele>989.0</ele><time>2026-04-18T09:41:54Z</time></trkpt><trkpt lat="42.61871458354874" lon="13.318807552544456"><ele>986.75</ele><time>2026-04-18T09:41:55Z</time></trkpt><trkpt lat="42.61869101584084" lon="13.31897448318856"><ele>984.5</ele><time>2026-04-18T09:41:56Z</time></trkpt><trkpt lat="42.61866651429008" lon="13.319143225261255"><ele>982.25</ele><time>2026-04-18T09:41:57Z</time></trkpt><trkpt lat="42.61864211865101" lon="13.319311740673847"><ele>980.0</ele><time>2026-04-18T09:41:58Z</time></trkpt><trkpt lat="42.61861775167789" lon="13.319479332301052"><ele>984.5</ele><time>2026-04-18T09:41:59Z</time></trkpt><trkpt lat="42.61859053581094" lon="13.319643513599559"><ele>989.0</ele><time>2026-04-18T09:42:00Z</time></trkpt><trkpt lat="42.618559635791016" lon="13.319805548815012"><ele>993.5</ele><time>2026-04-18T09:42:01Z</time></trkpt><trkpt lat="42.618513007359745" lon="13.319967109737474"><ele>998.0</ele><time>2026-04-18T09:42:02Z</time></trkpt><trkpt lat="42.61845269528989" lon="13.32011573010486"><ele>998.0</ele><time>2026-04-18T09:42:03Z</time></trkpt><trkpt lat="42.61837802362055" lon="13.320255208977464"><ele>998.0</ele><time>2026-04-18T09:42:04Z</time></trkpt><trkpt lat="42.618278973817695" lon="13.320359189772601"><ele>998.0</ele><time>2026-04-18T09:42:05Z</time></trkpt><trkpt lat="42.61817383166533" lon="13.320441694573912"><ele>998.0</ele><time>2026-04-18T09:42:06Z</time></trkpt><trkpt lat="42.6180825152185" lon="13.32055033472415"><ele>995.0</ele><time>2026-04-18T09:42:07Z</time></trkpt><trkpt lat="42.618020757878" lon="13.320702080536936"><ele>992.0</ele><time>2026-04-18T09:42:08Z</time></trkpt><trkpt lat="42.618001426047314" lon="13.320873054891964"><ele>989.0</ele><time>2026-04-18T09:42:09Z</time></trkpt><trkpt lat="42.618010233501415" lon="13.321042178420697"><ele>986.0</ele><time>2026-04-18T09:42:10Z</time></trkpt><trkpt lat="42.61803064199015" lon="13.321210111758434"><ele>986.0</ele><time>2026-04-18T09:42:11Z</time></trkpt><trkpt lat="42.618031471280794" lon="13.321381205508132"><ele>986.0</ele><time>2026-04-18T09:42:12Z</time></trkpt><trkpt lat="42.61799299674847" lon="13.321543296601082"><ele>986.0</ele><time>2026-04-18T09:42:13Z</time></trkpt><trkpt lat="42.61792508352184" lon="13.321671275476826"><ele>986.0</ele><time>2026-04-18T09:42:14Z</time></trkpt><trkpt lat="42.61782831455497" lon="13.321771561552199"><ele>990.0</ele><time>2026-04-18T09:42:15Z</time></trkpt><trkpt lat="42.61771806373114" lon="13.321857538290509"><ele>994.0</ele><time>2026-04-18T09:42:16Z</time></trkpt><trkpt lat="42.617609890271815" lon="13.3219534872734"><ele>998.0</ele><time>2026-04-18T09:42:17Z</time></trkpt><trkpt lat="42.61750894862394" lon="13.32206629160952"><ele>1002.0</ele><time>2026-04-18T09:42:18Z</time></trkpt><trkpt lat="42.61742329947733" lon="13.322204024590663"><ele>1000.75</ele><time>2026-04-18T09:42:19Z</time></trkpt><trkpt lat="42.61735707165967" lon="13.322366652493342"><ele>999.5</ele><time>2026-04-18T09:42:20Z</time></trkpt><trkpt lat="42.61731148140192" lon="13.322544920692664"><ele>998.25</ele><time>2026-04-18T09:42:21Z</time></trkpt><trkpt lat="42.61728211041007" lon="13.322730716596503"><ele>997.0</ele><time>2026-04-18T09:42:22Z</time></trkpt><trkpt lat="42.61724209471778" lon="13.322913416637718"><ele>997.5</ele><time>2026-04-18T09:42:23Z</time></trkpt><trkpt lat="42.617204496664634" lon="13.323091062981492"><ele>998.0</ele><time>2026-04-18T09:42:24Z</time></trkpt><trkpt lat="42.61717970272116" lon="13.323260258769674"><ele>998.5</ele><time>2026-04-18T09:42:25Z</time></trkpt><trkpt lat="42.61714900122503" lon="13.323402908777782"><ele>999.0</ele><time>2026-04-18T09:42:26Z</time></trkpt><trkpt lat="42.61711992266995" lon="13.32351363980919"><ele>999.0</ele><time>2026-04-18T09:42:27Z</time></trkpt><trkpt lat="42.61715385751107" lon="13.323637719471604"><ele>999.0000000000001</ele><time>2026-04-18T09:42:28Z</time></trkpt><trkpt lat="42.61723383982078" lon="13.323723963408272"><ele>999.0000000000001</ele><time>2026-04-18T09:42:29Z</time></trkpt><trkpt lat="42.61734323144655" lon="13.323736864199613"><ele>999.0</ele><time>2026-04-18T09:42:30Z</time></trkpt><trkpt lat="42.61744817719666" lon="13.323772330506944"><ele>999.0</ele><time>2026-04-18T09:42:31Z</time></trkpt><trkpt lat="42.61755947109437" lon="13.32378939885906"><ele>999.0</ele><time>2026-04-18T09:42:32Z</time></trkpt><trkpt lat="42.61765452661365" lon="13.323854033536552"><ele>999.0</ele><time>2026-04-18T09:42:33Z</time></trkpt><trkpt lat="42.617722189481654" lon="13.323970744270254"><ele>999.0</ele><time>2026-04-18T09:42:34Z</time></trkpt><trkpt lat="42.617790319249316" lon="13.324101397638495"><ele>999.0</ele><time>2026-04-18T09:42:35Z</time></trkpt><trkpt lat="42.617861340358495" lon="13.324235210462497"><ele>998.25</ele><time>2026-04-18T09:42:36Z</time></trkpt><trkpt lat="42.61794134028289" lon="13.324371574678194"><ele>997.5</ele><time>2026-04-18T09:42:37Z</time></trkpt><trkpt lat="42.618023882468435" lon="13.324499443727728"><ele>996.75</ele><time>2026-04-18T09:42:38Z</time></trkpt><trkpt lat="42.61808209773571" lon="13.32464562428666"><ele>996.0</ele><time>2026-04-18T09:42:39Z</time></trkpt><trkpt lat="42.618079911026754" lon="13.324806027367552"><ele>997.5</ele><time>2026-04-18T09:42:40Z</time></trkpt><trkpt lat="42.618064651186266" lon="13.324973839496682"><ele>999.0</ele><time>2026-04-18T09:42:41Z</time></trkpt><trkpt lat="42.6180457806268" lon="13.325147006133205"><ele>1000.5</ele><time>2026-04-18T09:42:42Z</time></trkpt><trkpt lat="42.61802469219464" lon="13.325329307921558"><ele>1002.0</ele><time>2026-04-18T09:42:43Z</time></trkpt><trkpt lat="42.61800336886643" lon="13.325513640181406"><ele>1003.5</ele><time>2026-04-18T09:42:43.999Z</time></trkpt><trkpt lat="42.617982558537754" lon="13.32569966884689"><ele>1005.0</ele><time>2026-04-18T09:42:44.999Z</time></trkpt><trkpt lat="42.617966198145105" lon="13.32588546860784"><ele>1006.5</ele><time>2026-04-18T09:42:45.999Z</time></trkpt><trkpt lat="42.61796477829919" lon="13.326074046158096"><ele>1008.0</ele><time>2026-04-18T09:42:46.999Z</time></trkpt><trkpt lat="42.61797985519923" lon="13.326260543589056"><ele>1008.0</ele><time>2026-04-18T09:42:47.999Z</time></trkpt><trkpt lat="42.618000050289595" lon="13.32644261886953"><ele>1008.0</ele><time>2026-04-18T09:42:48.999Z</time></trkpt><trkpt lat="42.618006748807126" lon="13.326620157268422"><ele>1008.0</ele><time>2026-04-18T09:42:49.999Z</time></trkpt><trkpt lat="42.61799851388593" lon="13.326793322839562"><ele>1008.0</ele><time>2026-04-18T09:42:50.999Z</time></trkpt><trkpt lat="42.61797550332884" lon="13.326966896078437"><ele>1008.0</ele><time>2026-04-18T09:42:51.999Z</time></trkpt><trkpt lat="42.61792821164918" lon="13.327122478163082"><ele>1008.0</ele><time>2026-04-18T09:42:52.999Z</time></trkpt><trkpt lat="42.61787989175163" lon="13.327287052077926"><ele>1008.0</ele><time>2026-04-18T09:42:53.999Z</time></trkpt><trkpt lat="42.617853429377625" lon="13.327464735699628"><ele>1008.0</ele><time>2026-04-18T09:42:54.999Z</time></trkpt><trkpt lat="42.617872796657316" lon="13.3276469947923"><ele>1009.0</ele><time>2026-04-18T09:42:55.999Z</time></trkpt><trkpt lat="42.6179080738323" lon="13.327823437853494"><ele>1010.0</ele><time>2026-04-18T09:42:56.999Z</time></trkpt><trkpt lat="42.61794775205489" lon="13.327993262552322"><ele>1011.0</ele><time>2026-04-18T09:42:57.999Z</time></trkpt><trkpt lat="42.6179812958232" lon="13.328167818179622"><ele>1012.0</ele><time>2026-04-18T09:42:58.999Z</time></trkpt><trkpt lat="42.61800826302975" lon="13.328345938239332"><ele>1014.5</ele><time>2026-04-18T09:42:59.999Z</time></trkpt><trkpt lat="42.618030133151294" lon="13.328526199412453"><ele>1017.0</ele><time>2026-04-18T09:43:00.999Z</time></trkpt><trkpt lat="42.618044323880554" lon="13.328707348541835"><ele>1019.5</ele><time>2026-04-18T09:43:01.999Z</time></trkpt><trkpt lat="42.61805356038244" lon="13.328888677673945"><ele>1022.0</ele><time>2026-04-18T09:43:02.999Z</time></trkpt><trkpt lat="42.61806281077633" lon="13.32907449981783"><ele>1024.0</ele><time>2026-04-18T09:43:03.999Z</time></trkpt><trkpt lat="42.6180753635468" lon="13.329258753553765"><ele>1026.0</ele><time>2026-04-18T09:43:04.999Z</time></trkpt><trkpt lat="42.618087894529076" lon="13.329442687232142"><ele>1028.0</ele><time>2026-04-18T09:43:05.999Z</time></trkpt><trkpt lat="42.61810623186129" lon="13.329627106636075"><ele>1030.0</ele><time>2026-04-18T09:43:06.999Z</time></trkpt><trkpt lat="42.61813681142714" lon="13.329809962595451"><ele>1033.5</ele><time>2026-04-18T09:43:07.999Z</time></trkpt><trkpt lat="42.61819906726248" lon="13.329977750127446"><ele>1037.0</ele><time>2026-04-18T09:43:08.999Z</time></trkpt><trkpt lat="42.61831187937507" lon="13.330090466170626"><ele>1040.5</ele><time>2026-04-18T09:43:09.999Z</time></trkpt><trkpt lat="42.61840729468009" lon="13.330221631860034"><ele>1044.0</ele><time>2026-04-18T09:43:10.999Z</time></trkpt><trkpt lat="42.618512944909725" lon="13.330330681992342"><ele>1044.0</ele><time>2026-04-18T09:43:11.999Z</time></trkpt><trkpt lat="42.61861887556475" lon="13.330439343114438"><ele>1044.0</ele><time>2026-04-18T09:43:12.999Z</time></trkpt><trkpt lat="42.61871885463612" lon="13.330538215397999"><ele>1044.0</ele><time>2026-04-18T09:43:13.999Z</time></trkpt><trkpt lat="42.6187998247414" lon="13.330642653610672"><ele>1044.0</ele><time>2026-04-18T09:43:14.999Z</time></trkpt><trkpt lat="42.61887076352421" lon="13.330756117809447"><ele>1043.0</ele><time>2026-04-18T09:43:15.999Z</time></trkpt><trkpt lat="42.61889167010682" lon="13.330913478763858"><ele>1042.0</ele><time>2026-04-18T09:43:16.999Z</time></trkpt><trkpt lat="42.6188679878154" lon="13.331076592379338"><ele>1041.0</ele><time>2026-04-18T09:43:17.999Z</time></trkpt><trkpt lat="42.618856712721794" lon="13.331247000894809"><ele>1040.0</ele><time>2026-04-18T09:43:18.999Z</time></trkpt><trkpt lat="42.618817512192145" lon="13.331411860946341"><ele>1042.25</ele><time>2026-04-18T09:43:19.999Z</time></trkpt><trkpt lat="42.61876772034201" lon="13.33157541163048"><ele>1044.5</ele><time>2026-04-18T09:43:20.999Z</time></trkpt><trkpt lat="42.618699458682826" lon="13.331729773570572"><ele>1046.75</ele><time>2026-04-18T09:43:21.999Z</time></trkpt><trkpt lat="42.61861126866841" lon="13.331868059336546"><ele>1049.0</ele><time>2026-04-18T09:43:22.999Z</time></trkpt><trkpt lat="42.6185132232986" lon="13.331994164426956"><ele>1050.25</ele><time>2026-04-18T09:43:23.999Z</time></trkpt><trkpt lat="42.618415472790915" lon="13.332122395749998"><ele>1051.5</ele><time>2026-04-18T09:43:24.999Z</time></trkpt><trkpt lat="42.61831919632907" lon="13.332254775112014"><ele>1052.75</ele><time>2026-04-18T09:43:25.999Z</time></trkpt><trkpt lat="42.618219339266986" lon="13.332381638662477"><ele>1054.0</ele><time>2026-04-18T09:43:26.999Z</time></trkpt><trkpt lat="42.61814561119269" lon="13.332538589620418"><ele>1054.0</ele><time>2026-04-18T09:43:27.999Z</time></trkpt><trkpt lat="42.61807169364913" lon="13.332692498213877"><ele>1054.0</ele><time>2026-04-18T09:43:28.999Z</time></trkpt><trkpt lat="42.61799954611227" lon="13.332848547734383"><ele>1054.0</ele><time>2026-04-18T09:43:29.999Z</time></trkpt><trkpt lat="42.617924408039634" lon="13.3330015718513"><ele>1054.0</ele><time>2026-04-18T09:43:30.999Z</time></trkpt><trkpt lat="42.61784731814691" lon="13.333151131372235"><ele>1057.5</ele><time>2026-04-18T09:43:31.999Z</time></trkpt><trkpt lat="42.61776990586096" lon="13.333301735670263"><ele>1061.0</ele><time>2026-04-18T09:43:32.999Z</time></trkpt><trkpt lat="42.61769541384265" lon="13.33345575723906"><ele>1064.5</ele><time>2026-04-18T09:43:33.999Z</time></trkpt><trkpt lat="42.61762327931404" lon="13.333608379190304"><ele>1068.0</ele><time>2026-04-18T09:43:34.999Z</time></trkpt><trkpt lat="42.61755864020839" lon="13.33376553197895"><ele>1067.5</ele><time>2026-04-18T09:43:35.999Z</time></trkpt><trkpt lat="42.61750172005003" lon="13.333927334483855"><ele>1067.0</ele><time>2026-04-18T09:43:36.999Z</time></trkpt><trkpt lat="42.61746274792638" lon="13.334093302601033"><ele>1066.5</ele><time>2026-04-18T09:43:37.999Z</time></trkpt><trkpt lat="42.61741710885774" lon="13.334251674725108"><ele>1066.0</ele><time>2026-04-18T09:43:38.999Z</time></trkpt><trkpt lat="42.61741691121342" lon="13.334426042922487"><ele>1066.0</ele><time>2026-04-18T09:43:39.999Z</time></trkpt><trkpt lat="42.61745132357717" lon="13.334586337687815"><ele>1066.0</ele><time>2026-04-18T09:43:41.001Z</time></trkpt><trkpt lat="42.617501486678705" lon="13.334738289160608"><ele>1066.0</ele><time>2026-04-18T09:43:42.001Z</time></trkpt><trkpt lat="42.617548722393515" lon="13.334884191089749"><ele>1066.0</ele><time>2026-04-18T09:43:43.001Z</time></trkpt><trkpt lat="42.6175847796166" lon="13.335031118362217"><ele>1066.8</ele><time>2026-04-18T09:43:44.001Z</time></trkpt><trkpt lat="42.617599686894856" lon="13.335180999662288"><ele>1067.6</ele><time>2026-04-18T09:43:45.001Z</time></trkpt><trkpt lat="42.61757499779846" lon="13.335321916222773"><ele>1068.4</ele><time>2026-04-18T09:43:46.001Z</time></trkpt><trkpt lat="42.617549360794186" lon="13.33546955281792"><ele>1069.2</ele><time>2026-04-18T09:43:47.001Z</time></trkpt><trkpt lat="42.61752183459185" lon="13.335610172074599"><ele>1070.0</ele><time>2026-04-18T09:43:48.001Z</time></trkpt><trkpt lat="42.617508361906125" lon="13.335735182821011"><ele>1070.0</ele><time>2026-04-18T09:43:49.001Z</time></trkpt><trkpt lat="42.61745585597129" lon="13.335820864629348"><ele>1070.0</ele><time>2026-04-18T09:43:50.001Z</time></trkpt><trkpt lat="42.61738310519538" lon="13.335851298340835"><ele>1070.0</ele><time>2026-04-18T09:43:51.001Z</time></trkpt><trkpt lat="42.61730867218836" lon="13.335821277754906"><ele>1070.0</ele><time>2026-04-18T09:43:52.001Z</time></trkpt><trkpt lat="42.617255641590496" lon="13.33573848878988"><ele>1070.0</ele><time>2026-04-18T09:43:53.001Z</time></trkpt><trkpt lat="42.61722127860876" lon="13.335632441025881"><ele>1070.0</ele><time>2026-04-18T09:43:54.001Z</time></trkpt><trkpt lat="42.61718762030163" lon="13.335506058983716"><ele>1070.0</ele><time>2026-04-18T09:43:55.001Z</time></trkpt><trkpt lat="42.61714697883259" lon="13.335377402697185"><ele>1070.0</ele><time>2026-04-18T09:43:56.001Z</time></trkpt><trkpt lat="42.61709566184061" lon="13.335245637062442"><ele>1070.0</ele><time>2026-04-18T09:43:57.001Z</time></trkpt><trkpt lat="42.61703704194218" lon="13.335114070393793"><ele>1070.0</ele><time>2026-04-18T09:43:58.001Z</time></trkpt><trkpt lat="42.61697809275106" lon="13.334978390922986"><ele>1070.0</ele><time>2026-04-18T09:43:59.001Z</time></trkpt><trkpt lat="42.61692232593623" lon="13.334837184796426"><ele>1075.0</ele><time>2026-04-18T09:44:00.001Z</time></trkpt><trkpt lat="42.616865913188285" lon="13.334692813423768"><ele>1080.0</ele><time>2026-04-18T09:44:01.001Z</time></trkpt><trkpt lat="42.616812190467435" lon="13.334545096246407"><ele>1085.0</ele><time>2026-04-18T09:44:02.001Z</time></trkpt><trkpt lat="42.61675579106019" lon="13.334397716991486"><ele>1090.0</ele><time>2026-04-18T09:44:03.001Z</time></trkpt><trkpt lat="42.6166986324196" lon="13.334249712886393"><ele>1090.0</ele><time>2026-04-18T09:44:04.001Z</time></trkpt><trkpt lat="42.616645864590566" lon="13.334095218010559"><ele>1090.0</ele><time>2026-04-18T09:44:05.001Z</time></trkpt><trkpt lat="42.616594269339004" lon="13.333936737131044"><ele>1090.0</ele><time>2026-04-18T09:44:06.001Z</time></trkpt><trkpt lat="42.6165464970539" lon="13.333777078243415"><ele>1090.0</ele><time>2026-04-18T09:44:07Z</time></trkpt><trkpt lat="42.61650180104454" lon="13.333615083488942"><ele>1089.5</ele><time>2026-04-18T09:44:08Z</time></trkpt><trkpt lat="42.61645818483627" lon="13.333452391145178"><ele>1089.0</ele><time>2026-04-18T09:44:09Z</time></trkpt><trkpt lat="42.61641381894538" lon="13.333291363750842"><ele>1088.5</ele><time>2026-04-18T09:44:10Z</time></trkpt><trkpt lat="42.61636222665585" lon="13.333134839173216"><ele>1088.0</ele><time>2026-04-18T09:44:11Z</time></trkpt><trkpt lat="42.61629154521941" lon="13.332998413518915"><ele>1087.5</ele><time>2026-04-18T09:44:12Z</time></trkpt><trkpt lat="42.616200713470725" lon="13.33289041452159"><ele>1087.0</ele><time>2026-04-18T09:44:13Z</time></trkpt><trkpt lat="42.61609473838518" lon="13.33281265930203"><ele>1086.5</ele><time>2026-04-18T09:44:14Z</time></trkpt><trkpt lat="42.61598696337973" lon="13.332748115828933"><ele>1086.0</ele><time>2026-04-18T09:44:15Z</time></trkpt><trkpt lat="42.615883395563166" lon="13.332674971091519"><ele>1088.6</ele><time>2026-04-18T09:44:16Z</time></trkpt><trkpt lat="42.61579854175559" lon="13.33257426105261"><ele>1091.1999999999998</ele><time>2026-04-18T09:44:17Z</time></trkpt><trkpt lat="42.61573904542877" lon="13.332450957706891"><ele>1093.8000000000002</ele><time>2026-04-18T09:44:18Z</time></trkpt><trkpt lat="42.61571797264096" lon="13.332310712070136"><ele>1096.4</ele><time>2026-04-18T09:44:19Z</time></trkpt><trkpt lat="42.61572529787785" lon="13.332171551615097"><ele>1099.0</ele><time>2026-04-18T09:44:20Z</time></trkpt><trkpt lat="42.61575067720645" lon="13.332034459740834"><ele>1100.4</ele><time>2026-04-18T09:44:21Z</time></trkpt><trkpt lat="42.61578915317981" lon="13.331900949965167"><ele>1101.8000000000002</ele><time>2026-04-18T09:44:22Z</time></trkpt><trkpt lat="42.615833321569674" lon="13.33177063237844"><ele>1103.1999999999998</ele><time>2026-04-18T09:44:23Z</time></trkpt><trkpt lat="42.61587866823348" lon="13.331638847063568"><ele>1104.6</ele><time>2026-04-18T09:44:24Z</time></trkpt><trkpt lat="42.61591816594791" lon="13.331502507767395"><ele>1106.0</ele><time>2026-04-18T09:44:25Z</time></trkpt><trkpt lat="42.615958992283026" lon="13.331360250822735"><ele>1108.75</ele><time>2026-04-18T09:44:26Z</time></trkpt><trkpt lat="42.61599138440233" lon="13.331214415773102"><ele>1111.5</ele><time>2026-04-18T09:44:27Z</time></trkpt><trkpt lat="42.61601669152962" lon="13.331061344468475"><ele>1114.25</ele><time>2026-04-18T09:44:28Z</time></trkpt><trkpt lat="42.61602980315437" lon="13.330903542114482"><ele>1117.0</ele><time>2026-04-18T09:44:29Z</time></trkpt><trkpt lat="42.61604020269957" lon="13.330741206280244"><ele>1117.0</ele><time>2026-04-18T09:44:30Z</time></trkpt><trkpt lat="42.61606186061841" lon="13.330581786245657"><ele>1117.0</ele><time>2026-04-18T09:44:31Z</time></trkpt><trkpt lat="42.61609717467772" lon="13.330426286797442"><ele>1117.0</ele><time>2026-04-18T09:44:32Z</time></trkpt><trkpt lat="42.61614020853873" lon="13.330272487683546"><ele>1117.0</ele><time>2026-04-18T09:44:33Z</time></trkpt><trkpt lat="42.61618865064647" lon="13.330124237249517"><ele>1113.75</ele><time>2026-04-18T09:44:34Z</time></trkpt><trkpt lat="42.616245951944684" lon="13.32998104285519"><ele>1110.5</ele><time>2026-04-18T09:44:35Z</time></trkpt><trkpt lat="42.61629627519973" lon="13.32983615150542"><ele>1107.25</ele><time>2026-04-18T09:44:36Z</time></trkpt><trkpt lat="42.61632391819648" lon="13.329683328572031"><ele>1104.0</ele><time>2026-04-18T09:44:37Z</time></trkpt><trkpt lat="42.61633405938741" lon="13.329537797588278"><ele>1103.2</ele><time>2026-04-18T09:44:38Z</time></trkpt><trkpt lat="42.616328577661356" lon="13.32940052231359"><ele>1102.4</ele><time>2026-04-18T09:44:39Z</time></trkpt><trkpt lat="42.61630005143717" lon="13.32927411169195"><ele>1101.6</ele><time>2026-04-18T09:44:40Z</time></trkpt><trkpt lat="42.61624530948292" lon="13.329170266242492"><ele>1100.8</ele><time>2026-04-18T09:44:41Z</time></trkpt><trkpt lat="42.61616795235577" lon="13.32910126805294"><ele>1100.0</ele><time>2026-04-18T09:44:42Z</time></trkpt><trkpt lat="42.61607950470373" lon="13.329051973307909"><ele>1103.4</ele><time>2026-04-18T09:44:43Z</time></trkpt><trkpt lat="42.61598174496934" lon="13.329030611809605"><ele>1106.8</ele><time>2026-04-18T09:44:44Z</time></trkpt><trkpt lat="42.61588180242163" lon="13.32906187253894"><ele>1110.2</ele><time>2026-04-18T09:44:45Z</time></trkpt><trkpt lat="42.61579641088283" lon="13.32914239625835"><ele>1113.6</ele><time>2026-04-18T09:44:46Z</time></trkpt><trkpt lat="42.61574155800161" lon="13.329261834522422"><ele>1117.0</ele><time>2026-04-18T09:44:47Z</time></trkpt><trkpt lat="42.61570707756646" lon="13.3293892534126"><ele>1117.0</ele><time>2026-04-18T09:44:48Z</time></trkpt><trkpt lat="42.615668869551335" lon="13.329512239999604"><ele>1117.0</ele><time>2026-04-18T09:44:49Z</time></trkpt><trkpt lat="42.61562112082277" lon="13.329634651831029"><ele>1117.0</ele><time>2026-04-18T09:44:50Z</time></trkpt><trkpt lat="42.61558024304887" lon="13.329761092625928"><ele>1117.0</ele><time>2026-04-18T09:44:51Z</time></trkpt><trkpt lat="42.61554112128785" lon="13.329892599416803"><ele>1117.0</ele><time>2026-04-18T09:44:52Z</time></trkpt><trkpt lat="42.61550193302439" lon="13.330023649922259"><ele>1118.2</ele><time>2026-04-18T09:44:53Z</time></trkpt><trkpt lat="42.61546107208975" lon="13.330155771029785"><ele>1119.4</ele><time>2026-04-18T09:44:54Z</time></trkpt><trkpt lat="42.61542042492902" lon="13.330286627956186"><ele>1120.6</ele><time>2026-04-18T09:44:55Z</time></trkpt><trkpt lat="42.615381127185245" lon="13.330415060420698"><ele>1121.8</ele><time>2026-04-18T09:44:56Z</time></trkpt><trkpt lat="42.61532961664061" lon="13.330536441634049"><ele>1123.0</ele><time>2026-04-18T09:44:57Z</time></trkpt><trkpt lat="42.615296347925224" lon="13.33066686204186"><ele>1124.0</ele><time>2026-04-18T09:44:58Z</time></trkpt><trkpt lat="42.61525140452988" lon="13.330789291071184"><ele>1125.0</ele><time>2026-04-18T09:44:58.999Z</time></trkpt><trkpt lat="42.615202256584624" lon="13.330910538993116"><ele>1126.0</ele><time>2026-04-18T09:44:59.999Z</time></trkpt><trkpt lat="42.615149138582495" lon="13.331033832120566"><ele>1127.0</ele><time>2026-04-18T09:45:00.999Z</time></trkpt><trkpt lat="42.6150935000833" lon="13.331160049461705"><ele>1128.0</ele><time>2026-04-18T09:45:01.999Z</time></trkpt><trkpt lat="42.61503577449546" lon="13.331293149104912"><ele>1127.75</ele><time>2026-04-18T09:45:02.999Z</time></trkpt><trkpt lat="42.614974597213205" lon="13.331428147802768"><ele>1127.5</ele><time>2026-04-18T09:45:03.999Z</time></trkpt><trkpt lat="42.61491064706754" lon="13.331564097626616"><ele>1127.25</ele><time>2026-04-18T09:45:04.999Z</time></trkpt><trkpt lat="42.61485422631917" lon="13.33170804712244"><ele>1127.0</ele><time>2026-04-18T09:45:05.999Z</time></trkpt><trkpt lat="42.6147990120669" lon="13.33186059126161"><ele>1127.0</ele><time>2026-04-18T09:45:06.999Z</time></trkpt><trkpt lat="42.614749085107874" lon="13.332016188520676"><ele>1127.0</ele><time>2026-04-18T09:45:07.999Z</time></trkpt><trkpt lat="42.61470550077452" lon="13.332176720749649"><ele>1127.0</ele><time>2026-04-18T09:45:08.999Z</time></trkpt><trkpt lat="42.61466676512513" lon="13.332335678748372"><ele>1127.0</ele><time>2026-04-18T09:45:09.999Z</time></trkpt><trkpt lat="42.6146254856273" lon="13.332490459176892"><ele>1125.0</ele><time>2026-04-18T09:45:10.999Z</time></trkpt><trkpt lat="42.61457741061648" lon="13.332644434380562"><ele>1123.0</ele><time>2026-04-18T09:45:11.999Z</time></trkpt><trkpt lat="42.614527547941684" lon="13.332796484385096"><ele>1121.0</ele><time>2026-04-18T09:45:12.999Z</time></trkpt><trkpt lat="42.61448334614425" lon="13.332953000203382"><ele>1119.0</ele><time>2026-04-18T09:45:13.999Z</time></trkpt><trkpt lat="42.61445354265521" lon="13.333116492319855"><ele>1118.25</ele><time>2026-04-18T09:45:14.999Z</time></trkpt><trkpt lat="42.614446851505356" lon="13.333286094480565"><ele>1117.5</ele><time>2026-04-18T09:45:15.999Z</time></trkpt><trkpt lat="42.614467499514724" lon="13.333450013333985"><ele>1116.75</ele><time>2026-04-18T09:45:16.999Z</time></trkpt><trkpt lat="42.61450211822806" lon="13.333606981708101"><ele>1116.0</ele><time>2026-04-18T09:45:17.999Z</time></trkpt><trkpt lat="42.61451740647107" lon="13.3337685956685"><ele>1118.0</ele><time>2026-04-18T09:45:18.999Z</time></trkpt><trkpt lat="42.614533632854155" lon="13.333926641372795"><ele>1120.0</ele><time>2026-04-18T09:45:19.999Z</time></trkpt><trkpt lat="42.61453874492626" lon="13.3340878216215"><ele>1122.0</ele><time>2026-04-18T09:45:20.999Z</time></trkpt><trkpt lat="42.61454360844899" lon="13.334253796998235"><ele>1124.0</ele><time>2026-04-18T09:45:21.999Z</time></trkpt><trkpt lat="42.61455011253559" lon="13.334426716284408"><ele>1124.0</ele><time>2026-04-18T09:45:22.999Z</time></trkpt><trkpt lat="42.61457143916123" lon="13.334596430734981"><ele>1124.0</ele><time>2026-04-18T09:45:23.999Z</time></trkpt><trkpt lat="42.61457564153585" lon="13.334771344094383"><ele>1124.0</ele><time>2026-04-18T09:45:24.999Z</time></trkpt><trkpt lat="42.614583769317186" lon="13.334944273207931"><ele>1124.0</ele><time>2026-04-18T09:45:25.999Z</time></trkpt><trkpt lat="42.61459248577906" lon="13.335118854028469"><ele>1126.25</ele><time>2026-04-18T09:45:26.999Z</time></trkpt><trkpt lat="42.61459936694476" lon="13.335293617971637"><ele>1128.5</ele><time>2026-04-18T09:45:27.999Z</time></trkpt><trkpt lat="42.61460107312071" lon="13.335468806143965"><ele>1130.75</ele><time>2026-04-18T09:45:28.999Z</time></trkpt><trkpt lat="42.61459569097476" lon="13.335645051779224"><ele>1133.0</ele><time>2026-04-18T09:45:29.999Z</time></trkpt><trkpt lat="42.61458620082542" lon="13.335821727078965"><ele>1133.75</ele><time>2026-04-18T09:45:30.999Z</time></trkpt><trkpt lat="42.61457895346919" lon="13.33600058263652"><ele>1134.5</ele><time>2026-04-18T09:45:31.999Z</time></trkpt><trkpt lat="42.614574695446386" lon="13.336178740453255"><ele>1135.25</ele><time>2026-04-18T09:45:32.999Z</time></trkpt><trkpt lat="42.61457017915262" lon="13.336356589934748"><ele>1136.0</ele><time>2026-04-18T09:45:33.999Z</time></trkpt><trkpt lat="42.6145634341545" lon="13.336535183183077"><ele>1136.0</ele><time>2026-04-18T09:45:34.999Z</time></trkpt><trkpt lat="42.614551840366225" lon="13.336713745321662"><ele>1136.0</ele><time>2026-04-18T09:45:35.999Z</time></trkpt><trkpt lat="42.61452514797283" lon="13.336884745714672"><ele>1136.0</ele><time>2026-04-18T09:45:36.999Z</time></trkpt><trkpt lat="42.614487882181756" lon="13.337037862078482"><ele>1136.0</ele><time>2026-04-18T09:45:37.999Z</time></trkpt><trkpt lat="42.61442987335252" lon="13.337180732286058"><ele>1137.8</ele><time>2026-04-18T09:45:38.999Z</time></trkpt><trkpt lat="42.61434706633132" lon="13.337280145690258"><ele>1139.6</ele><time>2026-04-18T09:45:39.999Z</time></trkpt><trkpt lat="42.61425102651876" lon="13.33731214415823"><ele>1141.4</ele><time>2026-04-18T09:45:40.999Z</time></trkpt><trkpt lat="42.614159665375325" lon="13.337282514813078"><ele>1143.2</ele><time>2026-04-18T09:45:41.999Z</time></trkpt><trkpt lat="42.614077071953034" lon="13.337207554853725"><ele>1145.0</ele><time>2026-04-18T09:45:42.999Z</time></trkpt><trkpt lat="42.61401686835169" lon="13.337095421214302"><ele>1145.0</ele><time>2026-04-18T09:45:43.999Z</time></trkpt><trkpt lat="42.613990817355436" lon="13.336950987124647"><ele>1145.0</ele><time>2026-04-18T09:45:44.999Z</time></trkpt><trkpt lat="42.61401053778591" lon="13.336805086583064"><ele>1145.0</ele><time>2026-04-18T09:45:45.999Z</time></trkpt><trkpt lat="42.614030080680614" lon="13.336647839798909"><ele>1145.0</ele><time>2026-04-18T09:45:47.001Z</time></trkpt><trkpt lat="42.61402061334204" lon="13.336484475287723"><ele>1145.5</ele><time>2026-04-18T09:45:48.001Z</time></trkpt><trkpt lat="42.61397798512305" lon="13.336324105776326"><ele>1146.0</ele><time>2026-04-18T09:45:49.001Z</time></trkpt><trkpt lat="42.61390689771652" lon="13.33618319277376"><ele>1146.5</ele><time>2026-04-18T09:45:50.001Z</time></trkpt><trkpt lat="42.61382783452547" lon="13.336040363117235"><ele>1147.0</ele><time>2026-04-18T09:45:51.001Z</time></trkpt><trkpt lat="42.61375455261334" lon="13.335890726680745"><ele>1147.0</ele><time>2026-04-18T09:45:52.001Z</time></trkpt><trkpt lat="42.613680540985456" lon="13.335742739243459"><ele>1147.0</ele><time>2026-04-18T09:45:53.001Z</time></trkpt><trkpt lat="42.613597524179625" lon="13.335605049480558"><ele>1147.0</ele><time>2026-04-18T09:45:54.001Z</time></trkpt><trkpt lat="42.61349609778285" lon="13.335487620434"><ele>1147.0</ele><time>2026-04-18T09:45:55.001Z</time></trkpt><trkpt lat="42.61338611236827" lon="13.33538900638098"><ele>1149.25</ele><time>2026-04-18T09:45:56.001Z</time></trkpt><trkpt lat="42.61326952305206" lon="13.335302703770534"><ele>1151.5</ele><time>2026-04-18T09:45:57.001Z</time></trkpt><trkpt lat="42.61315304528236" lon="13.335211608844322"><ele>1153.75</ele><time>2026-04-18T09:45:58.001Z</time></trkpt><trkpt lat="42.61305043171165" lon="13.33509210736464"><ele>1156.0</ele><time>2026-04-18T09:45:59.001Z</time></trkpt><trkpt lat="42.612963538866005" lon="13.334952974009287"><ele>1156.0</ele><time>2026-04-18T09:46:00.001Z</time></trkpt><trkpt lat="42.612883255355214" lon="13.334802497879807"><ele>1156.0</ele><time>2026-04-18T09:46:01.001Z</time></trkpt><trkpt lat="42.61280247237861" lon="13.334652573534436"><ele>1156.0</ele><time>2026-04-18T09:46:02.001Z</time></trkpt><trkpt lat="42.612728463217714" lon="13.334497558755888"><ele>1156.0</ele><time>2026-04-18T09:46:03.001Z</time></trkpt><trkpt lat="42.6126533911882" lon="13.33435020183063"><ele>1157.5</ele><time>2026-04-18T09:46:04.001Z</time></trkpt><trkpt lat="42.612560211160265" lon="13.334226381251574"><ele>1159.0</ele><time>2026-04-18T09:46:05.001Z</time></trkpt><trkpt lat="42.61244670836086" lon="13.3341335432661"><ele>1160.5</ele><time>2026-04-18T09:46:06.001Z</time></trkpt><trkpt lat="42.61231940521098" lon="13.334072581229833"><ele>1162.0</ele><time>2026-04-18T09:46:07.001Z</time></trkpt><trkpt lat="42.612189330205844" lon="13.334034233735627"><ele>1162.0</ele><time>2026-04-18T09:46:08.001Z</time></trkpt><trkpt lat="42.612060348133355" lon="13.334002430913634"><ele>1162.0</ele><time>2026-04-18T09:46:09.001Z</time></trkpt><trkpt lat="42.611930063217265" lon="13.333974715657524"><ele>1162.0</ele><time>2026-04-18T09:46:10.001Z</time></trkpt><trkpt lat="42.61179800602484" lon="13.333951155180767"><ele>1162.0</ele><time>2026-04-18T09:46:11.001Z</time></trkpt><trkpt lat="42.61166387806249" lon="13.333935267841746"><ele>1164.0</ele><time>2026-04-18T09:46:12.001Z</time></trkpt><trkpt lat="42.61153015648875" lon="13.333936390966644"><ele>1166.0</ele><time>2026-04-18T09:46:13.001Z</time></trkpt><trkpt lat="42.61139962634661" lon="13.333965766675046"><ele>1168.0</ele><time>2026-04-18T09:46:14.001Z</time></trkpt><trkpt lat="42.6112736591092" lon="13.334024043443549"><ele>1170.0</ele><time>2026-04-18T09:46:15.001Z</time></trkpt><trkpt lat="42.611150696121044" lon="13.334098571859977"><ele>1170.0</ele><time>2026-04-18T09:46:16.001Z</time></trkpt><trkpt lat="42.61103514474932" lon="13.334180997809286"><ele>1170.0</ele><time>2026-04-18T09:46:17.001Z</time></trkpt><trkpt lat="42.61092249396773" lon="13.334262448500212"><ele>1170.0</ele><time>2026-04-18T09:46:18.001Z</time></trkpt><trkpt lat="42.61083025593721" lon="13.334358014248828"><ele>1170.0</ele><time>2026-04-18T09:46:19.001Z</time></trkpt><trkpt lat="42.6107645450423" lon="13.334488248022833"><ele>1170.0</ele><time>2026-04-18T09:46:20Z</time></trkpt><trkpt lat="42.610722802550825" lon="13.334648514688515"><ele>1170.0</ele><time>2026-04-18T09:46:21Z</time></trkpt><trkpt lat="42.61067303905543" lon="13.334810937094446"><ele>1170.0</ele><time>2026-04-18T09:46:22Z</time></trkpt><trkpt lat="42.610603413668024" lon="13.334966308043679"><ele>1170.0</ele><time>2026-04-18T09:46:23Z</time></trkpt><trkpt lat="42.61052262809604" lon="13.335118182284823"><ele>1172.25</ele><time>2026-04-18T09:46:24Z</time></trkpt><trkpt lat="42.610437764275844" lon="13.335267648695677"><ele>1174.5</ele><time>2026-04-18T09:46:25Z</time></trkpt><trkpt lat="42.61035406002174" lon="13.335423271858971"><ele>1176.75</ele><time>2026-04-18T09:46:26Z</time></trkpt><trkpt lat="42.61027440653088" lon="13.335582785375063"><ele>1179.0</ele><time>2026-04-18T09:46:27Z</time></trkpt><trkpt lat="42.61019446952791" lon="13.335742337133256"><ele>1179.0</ele><time>2026-04-18T09:46:28Z</time></trkpt><trkpt lat="42.61011439348908" lon="13.335903066946516"><ele>1179.0</ele><time>2026-04-18T09:46:29Z</time></trkpt><trkpt lat="42.610035408330354" lon="13.336062667152499"><ele>1179.0</ele><time>2026-04-18T09:46:30Z</time></trkpt><trkpt lat="42.60995725933071" lon="13.336221440985502"><ele>1179.0</ele><time>2026-04-18T09:46:31Z</time></trkpt><trkpt lat="42.60987515581277" lon="13.336377115951944"><ele>1180.5</ele><time>2026-04-18T09:46:32Z</time></trkpt><trkpt lat="42.60977728142582" lon="13.336514074016371"><ele>1182.0</ele><time>2026-04-18T09:46:33Z</time></trkpt><trkpt lat="42.60966678126201" lon="13.336631077393928"><ele>1183.5</ele><time>2026-04-18T09:46:34Z</time></trkpt><trkpt lat="42.60954856105941" lon="13.336729366217911"><ele>1185.0</ele><time>2026-04-18T09:46:35Z</time></trkpt><trkpt lat="42.60942260242017" lon="13.336794459385155"><ele>1185.0</ele><time>2026-04-18T09:46:36Z</time></trkpt><trkpt lat="42.60928932233254" lon="13.3368216182619"><ele>1185.0</ele><time>2026-04-18T09:46:37Z</time></trkpt><trkpt lat="42.609155450585824" lon="13.336834235405162"><ele>1185.0</ele><time>2026-04-18T09:46:38Z</time></trkpt><trkpt lat="42.609018577165116" lon="13.336851683380525"><ele>1185.0</ele><time>2026-04-18T09:46:39Z</time></trkpt><trkpt lat="42.60887773872827" lon="13.336878516254984"><ele>1185.0</ele><time>2026-04-18T09:46:40Z</time></trkpt><trkpt lat="42.60873107386018" lon="13.336910666777474"><ele>1185.0</ele><time>2026-04-18T09:46:41Z</time></trkpt><trkpt lat="42.60858687664405" lon="13.336939511756077"><ele>1185.0</ele><time>2026-04-18T09:46:42Z</time></trkpt><trkpt lat="42.60843974684163" lon="13.33696966551921"><ele>1185.0</ele><time>2026-04-18T09:46:43Z</time></trkpt><trkpt lat="42.60829524290277" lon="13.337000888195607"><ele>1185.5</ele><time>2026-04-18T09:46:44Z</time></trkpt><trkpt lat="42.608146845313584" lon="13.33702986628483"><ele>1186.0</ele><time>2026-04-18T09:46:45Z</time></trkpt><trkpt lat="42.60800073976374" lon="13.337061738327847"><ele>1186.5</ele><time>2026-04-18T09:46:46Z</time></trkpt><trkpt lat="42.60785524138789" lon="13.337090814493738"><ele>1187.0</ele><time>2026-04-18T09:46:47Z</time></trkpt><trkpt lat="42.60771001721738" lon="13.337101141638767"><ele>1189.0</ele><time>2026-04-18T09:46:48Z</time></trkpt><trkpt lat="42.6075666658662" lon="13.337091202952555"><ele>1191.0</ele><time>2026-04-18T09:46:49Z</time></trkpt><trkpt lat="42.60742460183522" lon="13.337056991846344"><ele>1193.0</ele><time>2026-04-18T09:46:50Z</time></trkpt><trkpt lat="42.607293735819354" lon="13.336981880374003"><ele>1195.0</ele><time>2026-04-18T09:46:51Z</time></trkpt><trkpt lat="42.607177317606116" lon="13.336867336975532"><ele>1195.0</ele><time>2026-04-18T09:46:52Z</time></trkpt><trkpt lat="42.60707030808016" lon="13.336736062078284"><ele>1195.0</ele><time>2026-04-18T09:46:53Z</time></trkpt><trkpt lat="42.60696189778825" lon="13.336608076316022"><ele>1195.0</ele><time>2026-04-18T09:46:54Z</time></trkpt><trkpt lat="42.60685027748269" lon="13.336484376196525"><ele>1195.0</ele><time>2026-04-18T09:46:55Z</time></trkpt><trkpt lat="42.60674737513905" lon="13.336346192646237"><ele>1197.5</ele><time>2026-04-18T09:46:56Z</time></trkpt><trkpt lat="42.60667911674593" lon="13.336188826603989"><ele>1200.0</ele><time>2026-04-18T09:46:57Z</time></trkpt><trkpt lat="42.606677116610875" lon="13.336008446408401"><ele>1202.5</ele><time>2026-04-18T09:46:58Z</time></trkpt><trkpt lat="42.60671500672078" lon="13.335836654419996"><ele>1205.0</ele><time>2026-04-18T09:46:59Z</time></trkpt><trkpt lat="42.60677304808226" lon="13.335661379114692"><ele>1205.5</ele><time>2026-04-18T09:47:00Z</time></trkpt><trkpt lat="42.60685079405928" lon="13.335498014142516"><ele>1206.0</ele><time>2026-04-18T09:47:01Z</time></trkpt><trkpt lat="42.60691812460918" lon="13.33532917678408"><ele>1206.5</ele><time>2026-04-18T09:47:02Z</time></trkpt><trkpt lat="42.606987662496614" lon="13.335187155458657"><ele>1207.0</ele><time>2026-04-18T09:47:03Z</time></trkpt><trkpt lat="42.607038574767074" lon="13.335052730714233"><ele>1206.25</ele><time>2026-04-18T09:47:04Z</time></trkpt><trkpt lat="42.607050327648594" lon="13.334908845803353"><ele>1205.5</ele><time>2026-04-18T09:47:05Z</time></trkpt><trkpt lat="42.60701538542121" lon="13.334763850901536"><ele>1204.75</ele><time>2026-04-18T09:47:06Z</time></trkpt><trkpt lat="42.60692467054028" lon="13.33465981099512"><ele>1204.0</ele><time>2026-04-18T09:47:06.999Z</time></trkpt><trkpt lat="42.606802822182296" lon="13.334623827489219"><ele>1204.0</ele><time>2026-04-18T09:47:07.999Z</time></trkpt><trkpt lat="42.60668677044594" lon="13.334664471152951"><ele>1204.0</ele><time>2026-04-18T09:47:08.999Z</time></trkpt><trkpt lat="42.606612503863275" lon="13.334812451920312"><ele>1204.0</ele><time>2026-04-18T09:47:09.999Z</time></trkpt><trkpt lat="42.606567226359324" lon="13.334960075610907"><ele>1204.0</ele><time>2026-04-18T09:47:10.999Z</time></trkpt><trkpt lat="42.606532909714495" lon="13.335136597061839"><ele>1204.25</ele><time>2026-04-18T09:47:11.999Z</time></trkpt><trkpt lat="42.60648713988671" lon="13.335317728720797"><ele>1204.5</ele><time>2026-04-18T09:47:12.999Z</time></trkpt><trkpt lat="42.606424746616185" lon="13.33549640244321"><ele>1204.75</ele><time>2026-04-18T09:47:13.999Z</time></trkpt><trkpt lat="42.60634925876081" lon="13.335658887621664"><ele>1205.0</ele><time>2026-04-18T09:47:14.999Z</time></trkpt><trkpt lat="42.60624880066902" lon="13.335782699291642"><ele>1209.25</ele><time>2026-04-18T09:47:15.999Z</time></trkpt><trkpt lat="42.60613783097131" lon="13.335859768968003"><ele>1213.5</ele><time>2026-04-18T09:47:16.999Z</time></trkpt><trkpt lat="42.60605052525831" lon="13.335961040434011"><ele>1217.75</ele><time>2026-04-18T09:47:17.999Z</time></trkpt><trkpt lat="42.60600544557124" lon="13.336097544323955"><ele>1222.0</ele><time>2026-04-18T09:47:18.999Z</time></trkpt><trkpt lat="42.605991860520966" lon="13.336251277829014"><ele>1221.75</ele><time>2026-04-18T09:47:19.999Z</time></trkpt><trkpt lat="42.60601270641135" lon="13.336427012223512"><ele>1221.5</ele><time>2026-04-18T09:47:20.999Z</time></trkpt><trkpt lat="42.60603870467721" lon="13.336604183754888"><ele>1221.25</ele><time>2026-04-18T09:47:21.999Z</time></trkpt><trkpt lat="42.606058886335134" lon="13.336790929862232"><ele>1221.0</ele><time>2026-04-18T09:47:22.999Z</time></trkpt><trkpt lat="42.60606458726018" lon="13.336949412515382"><ele>1221.0</ele><time>2026-04-18T09:47:23.999Z</time></trkpt><trkpt lat="42.60608950384922" lon="13.337140307708417"><ele>1221.0</ele><time>2026-04-18T09:47:24.999Z</time></trkpt><trkpt lat="42.60611480786117" lon="13.337332648937974"><ele>1221.0</ele><time>2026-04-18T09:47:25.999Z</time></trkpt><trkpt lat="42.606140117839175" lon="13.337527578526103"><ele>1221.0</ele><time>2026-04-18T09:47:26.999Z</time></trkpt><trkpt lat="42.60616410018113" lon="13.337724645464505"><ele>1220.0</ele><time>2026-04-18T09:47:27.999Z</time></trkpt><trkpt lat="42.606187126115785" lon="13.33792544185314"><ele>1219.0</ele><time>2026-04-18T09:47:28.999Z</time></trkpt><trkpt lat="42.60621452393812" lon="13.33812361591122"><ele>1218.0</ele><time>2026-04-18T09:47:29.999Z</time></trkpt><trkpt lat="42.606247689236525" lon="13.338315955297578"><ele>1217.0</ele><time>2026-04-18T09:47:30.999Z</time></trkpt><trkpt lat="42.60624892826227" lon="13.338499465223228"><ele>1217.0</ele><time>2026-04-18T09:47:31.999Z</time></trkpt><trkpt lat="42.606235073332186" lon="13.338661137505301"><ele>1217.0</ele><time>2026-04-18T09:47:32.999Z</time></trkpt><trkpt lat="42.606187716139935" lon="13.33877685069467"><ele>1217.0</ele><time>2026-04-18T09:47:33.999Z</time></trkpt><trkpt lat="42.60612748960907" lon="13.338845631468569"><ele>1217.0</ele><time>2026-04-18T09:47:34.999Z</time></trkpt><trkpt lat="42.60604384764181" lon="13.338846294301552"><ele>1217.0</ele><time>2026-04-18T09:47:35.999Z</time></trkpt><trkpt lat="42.60596072516566" lon="13.338801143383707"><ele>1219.5</ele><time>2026-04-18T09:47:36.999Z</time></trkpt><trkpt lat="42.60587248944456" lon="13.338732799483985"><ele>1222.0</ele><time>2026-04-18T09:47:37.999Z</time></trkpt><trkpt lat="42.60584854789877" lon="13.338554207964362"><ele>1224.5</ele><time>2026-04-18T09:47:38.999Z</time></trkpt><trkpt lat="42.60580096743088" lon="13.338387310891552"><ele>1227.0</ele><time>2026-04-18T09:47:39.999Z</time></trkpt><trkpt lat="42.60574664940954" lon="13.338213140515291"><ele>1225.6666666666667</ele><time>2026-04-18T09:47:40.999Z</time></trkpt><trkpt lat="42.6056972090465" lon="13.338017040389833"><ele>1224.3333333333335</ele><time>2026-04-18T09:47:41.999Z</time></trkpt><trkpt lat="42.60564048682477" lon="13.337825320339137"><ele>1223.0</ele><time>2026-04-18T09:47:42.999Z</time></trkpt><trkpt lat="42.60557782231847" lon="13.337642574456162"><ele>1223.0</ele><time>2026-04-18T09:47:43.999Z</time></trkpt><trkpt lat="42.60548156538416" lon="13.337482449337758"><ele>1223.0</ele><time>2026-04-18T09:47:44.999Z</time></trkpt><trkpt lat="42.605358837145474" lon="13.337369626207579"><ele>1223.0</ele><time>2026-04-18T09:47:45.999Z</time></trkpt><trkpt lat="42.605222931531266" lon="13.337295594825273"><ele>1223.0</ele><time>2026-04-18T09:47:46.999Z</time></trkpt><trkpt lat="42.6051003686153" lon="13.337225026196593"><ele>1228.25</ele><time>2026-04-18T09:47:47.999Z</time></trkpt><trkpt lat="42.60501129931464" lon="13.337127258691291"><ele>1233.5</ele><time>2026-04-18T09:47:48.999Z</time></trkpt><trkpt lat="42.604992959236796" lon="13.33697904725908"><ele>1238.75</ele><time>2026-04-18T09:47:49.999Z</time></trkpt><trkpt lat="42.60501588898154" lon="13.336831957586694"><ele>1244.0</ele><time>2026-04-18T09:47:50.999Z</time></trkpt><trkpt lat="42.60502987066312" lon="13.33666441425452"><ele>1244.0</ele><time>2026-04-18T09:47:51.999Z</time></trkpt><trkpt lat="42.60505129012271" lon="13.336481723135087"><ele>1244.0</ele><time>2026-04-18T09:47:53.001Z</time></trkpt><trkpt lat="42.60508436308977" lon="13.33629448699994"><ele>1244.0</ele><time>2026-04-18T09:47:54.001Z</time></trkpt><trkpt lat="42.60512560554325" lon="13.336099973160131"><ele>1244.0</ele><time>2026-04-18T09:47:55.001Z</time></trkpt><trkpt lat="42.60516512164931" lon="13.335900234467237"><ele>1244.6666666666667</ele><time>2026-04-18T09:47:56.001Z</time></trkpt><trkpt lat="42.605171219777475" lon="13.335692483885598"><ele>1245.3333333333333</ele><time>2026-04-18T09:47:57.001Z</time></trkpt><trkpt lat="42.60518524969432" lon="13.335480326618129"><ele>1246.0</ele><time>2026-04-18T09:47:58.001Z</time></trkpt><trkpt lat="42.60519261619572" lon="13.335271618728209"><ele>1244.8</ele><time>2026-04-18T09:47:59.001Z</time></trkpt><trkpt lat="42.60519338462324" lon="13.335104381594853"><ele>1243.6</ele><time>2026-04-18T09:48:00.001Z</time></trkpt><trkpt lat="42.605170147688526" lon="13.33496284464042"><ele>1242.4</ele><time>2026-04-18T09:48:01.001Z</time></trkpt><trkpt lat="42.60510722350416" lon="13.334861798709252"><ele>1241.2</ele><time>2026-04-18T09:48:02.001Z</time></trkpt><trkpt lat="42.60501711196848" lon="13.334803145905935"><ele>1240.0</ele><time>2026-04-18T09:48:03.001Z</time></trkpt><trkpt lat="42.60491196867576" lon="13.334791620364816"><ele>1240.0</ele><time>2026-04-18T09:48:04.001Z</time></trkpt><trkpt lat="42.60480862950916" lon="13.334852569279958"><ele>1240.0</ele><time>2026-04-18T09:48:05.001Z</time></trkpt><trkpt lat="42.604731864381314" lon="13.334976001397955"><ele>1240.0</ele><time>2026-04-18T09:48:06.001Z</time></trkpt><trkpt lat="42.60468692936114" lon="13.33514270148333"><ele>1240.0</ele><time>2026-04-18T09:48:07.001Z</time></trkpt><trkpt lat="42.60465557218421" lon="13.335331436374396"><ele>1240.0</ele><time>2026-04-18T09:48:08.001Z</time></trkpt><trkpt lat="42.60461974753875" lon="13.335522657378299"><ele>1240.0</ele><time>2026-04-18T09:48:09.001Z</time></trkpt><trkpt lat="42.604570526950404" lon="13.335716363890384"><ele>1240.0</ele><time>2026-04-18T09:48:10.001Z</time></trkpt><trkpt lat="42.60451312919848" lon="13.335905388496105"><ele>1240.0</ele><time>2026-04-18T09:48:11.001Z</time></trkpt><trkpt lat="42.604458315924774" lon="13.336097866869002"><ele>1242.6666666666665</ele><time>2026-04-18T09:48:12.001Z</time></trkpt><trkpt lat="42.60440549039061" lon="13.336294012302494"><ele>1245.3333333333333</ele><time>2026-04-18T09:48:13.001Z</time></trkpt><trkpt lat="42.60435357573037" lon="13.336488701580764"><ele>1248.0</ele><time>2026-04-18T09:48:14.001Z</time></trkpt><trkpt lat="42.6043030106806" lon="13.336680383877786"><ele>1249.75</ele><time>2026-04-18T09:48:15.001Z</time></trkpt><trkpt lat="42.60425706989577" lon="13.33685421820331"><ele>1251.5</ele><time>2026-04-18T09:48:16.001Z</time></trkpt><trkpt lat="42.6042153431142" lon="13.33700943176434"><ele>1253.25</ele><time>2026-04-18T09:48:17.001Z</time></trkpt><trkpt lat="42.60416922647259" lon="13.337133560463835"><ele>1255.0</ele><time>2026-04-18T09:48:18.001Z</time></trkpt><trkpt lat="42.60410255496254" lon="13.33722103518494"><ele>1255.0</ele><time>2026-04-18T09:48:19.001Z</time></trkpt><trkpt lat="42.604005487450216" lon="13.33724925339094"><ele>1255.0</ele><time>2026-04-18T09:48:20.001Z</time></trkpt><trkpt lat="42.60390414152093" lon="13.337242077253306"><ele>1255.0</ele><time>2026-04-18T09:48:21.001Z</time></trkpt><trkpt lat="42.60380881338568" lon="13.337185416827355"><ele>1255.0</ele><time>2026-04-18T09:48:22.001Z</time></trkpt><trkpt lat="42.60372299141971" lon="13.337097927604182"><ele>1255.0</ele><time>2026-04-18T09:48:23.001Z</time></trkpt><trkpt lat="42.60364137012449" lon="13.336992952244"><ele>1256.5</ele><time>2026-04-18T09:48:24.001Z</time></trkpt><trkpt lat="42.603565913216215" lon="13.336867014305161"><ele>1258.0</ele><time>2026-04-18T09:48:25.001Z</time></trkpt><trkpt lat="42.603496942629796" lon="13.336722218397695"><ele>1259.5</ele><time>2026-04-18T09:48:26Z</time></trkpt><trkpt lat="42.60342599124865" lon="13.336569489985203"><ele>1261.0</ele><time>2026-04-18T09:48:27Z</time></trkpt><trkpt lat="42.603339970167106" lon="13.336417291936037"><ele>1259.0</ele><time>2026-04-18T09:48:28Z</time></trkpt><trkpt lat="42.60324549470616" lon="13.336276945289558"><ele>1257.0</ele><time>2026-04-18T09:48:29Z</time></trkpt><trkpt lat="42.60314071564436" lon="13.336150516965464"><ele>1255.0</ele><time>2026-04-18T09:48:30Z</time></trkpt><trkpt lat="42.60303125843394" lon="13.33603013591679"><ele>1253.0</ele><time>2026-04-18T09:48:31Z</time></trkpt><trkpt lat="42.602919164819326" lon="13.335920249742356"><ele>1254.0</ele><time>2026-04-18T09:48:32Z</time></trkpt><trkpt lat="42.60280447156874" lon="13.335814805023064"><ele>1255.0</ele><time>2026-04-18T09:48:33Z</time></trkpt><trkpt lat="42.60268968116567" lon="13.335712985349291"><ele>1256.0</ele><time>2026-04-18T09:48:34Z</time></trkpt><trkpt lat="42.60257449340541" lon="13.33561494583312"><ele>1257.0</ele><time>2026-04-18T09:48:35Z</time></trkpt><trkpt lat="42.60245348104877" lon="13.335534093484787"><ele>1257.0</ele><time>2026-04-18T09:48:36Z</time></trkpt><trkpt lat="42.602321838894895" lon="13.335500991511562"><ele>1257.0</ele><time>2026-04-18T09:48:37Z</time></trkpt><trkpt lat="42.602190546316336" lon="13.335494937452173"><ele>1257.0</ele><time>2026-04-18T09:48:38Z</time></trkpt><trkpt lat="42.602063680971504" lon="13.3354834169212"><ele>1257.0</ele><time>2026-04-18T09:48:39Z</time></trkpt><trkpt lat="42.601943374259115" lon="13.335425334429688"><ele>1261.5</ele><time>2026-04-18T09:48:40Z</time></trkpt><trkpt lat="42.601843351005314" lon="13.335307510978978"><ele>1266.0</ele><time>2026-04-18T09:48:41Z</time></trkpt><trkpt lat="42.601756119780056" lon="13.335163980176251"><ele>1270.5</ele><time>2026-04-18T09:48:42Z</time></trkpt><trkpt lat="42.601672090067865" lon="13.335015281709284"><ele>1275.0</ele><time>2026-04-18T09:48:43Z</time></trkpt><trkpt lat="42.60159215159206" lon="13.3348644785786"><ele>1274.0</ele><time>2026-04-18T09:48:44Z</time></trkpt><trkpt lat="42.60154934383748" lon="13.33470057341948"><ele>1273.0</ele><time>2026-04-18T09:48:45Z</time></trkpt><trkpt lat="42.60157676382435" lon="13.334528525713587"><ele>1272.0</ele><time>2026-04-18T09:48:46Z</time></trkpt><trkpt lat="42.60161564574068" lon="13.33434960035633"><ele>1271.0</ele><time>2026-04-18T09:48:47Z</time></trkpt><trkpt lat="42.60163494630723" lon="13.334173006355421"><ele>1271.0</ele><time>2026-04-18T09:48:48Z</time></trkpt><trkpt lat="42.60163493990898" lon="13.334016568481424"><ele>1271.0</ele><time>2026-04-18T09:48:49Z</time></trkpt><trkpt lat="42.60158075922141" lon="13.333888253274356"><ele>1271.0</ele><time>2026-04-18T09:48:50Z</time></trkpt><trkpt lat="42.60148295210684" lon="13.333795982882657"><ele>1271.0</ele><time>2026-04-18T09:48:51Z</time></trkpt><trkpt lat="42.60136489703629" lon="13.333739786882258"><ele>1269.25</ele><time>2026-04-18T09:48:52Z</time></trkpt><trkpt lat="42.60123876543103" lon="13.333702182480375"><ele>1267.5</ele><time>2026-04-18T09:48:53Z</time></trkpt><trkpt lat="42.60110974930406" lon="13.333666921070272"><ele>1265.75</ele><time>2026-04-18T09:48:54Z</time></trkpt><trkpt lat="42.60097908940481" lon="13.333625277982659"><ele>1264.0</ele><time>2026-04-18T09:48:55Z</time></trkpt><trkpt lat="42.600857273020736" lon="13.333553512442677"><ele>1267.5</ele><time>2026-04-18T09:48:56Z</time></trkpt><trkpt lat="42.60075433802361" lon="13.33345296090263"><ele>1271.0</ele><time>2026-04-18T09:48:57Z</time></trkpt><trkpt lat="42.60066647012288" lon="13.333339696258472"><ele>1274.5</ele><time>2026-04-18T09:48:58Z</time></trkpt><trkpt lat="42.600587619238986" lon="13.333233881121474"><ele>1278.0</ele><time>2026-04-18T09:48:59Z</time></trkpt><trkpt lat="42.60050532014606" lon="13.333147063464171"><ele>1278.0</ele><time>2026-04-18T09:49:00Z</time></trkpt><trkpt lat="42.60040802844276" lon="13.333113102036375"><ele>1278.0</ele><time>2026-04-18T09:49:01Z</time></trkpt><trkpt lat="42.600297964781674" lon="13.333134569917672"><ele>1278.0</ele><time>2026-04-18T09:49:02Z</time></trkpt><trkpt lat="42.60018631001333" lon="13.33321926706048"><ele>1278.0</ele><time>2026-04-18T09:49:03Z</time></trkpt><trkpt lat="42.600077690757594" lon="13.333323633794356"><ele>1279.0</ele><time>2026-04-18T09:49:04Z</time></trkpt><trkpt lat="42.5999597031449" lon="13.333399918712827"><ele>1280.0</ele><time>2026-04-18T09:49:05Z</time></trkpt><trkpt lat="42.599822534572624" lon="13.333406532445382"><ele>1281.0</ele><time>2026-04-18T09:49:06Z</time></trkpt><trkpt lat="42.5996829777621" lon="13.333359928996906"><ele>1282.0</ele><time>2026-04-18T09:49:07Z</time></trkpt><trkpt lat="42.599545407431556" lon="13.333327570347153"><ele>1283.5</ele><time>2026-04-18T09:49:08Z</time></trkpt><trkpt lat="42.59940781088983" lon="13.333306736743394"><ele>1285.0</ele><time>2026-04-18T09:49:08.999Z</time></trkpt><trkpt lat="42.599273070292014" lon="13.333282891494152"><ele>1286.5</ele><time>2026-04-18T09:49:09.999Z</time></trkpt><trkpt lat="42.599147974131654" lon="13.333260679475341"><ele>1288.0</ele><time>2026-04-18T09:49:10.999Z</time></trkpt><trkpt lat="42.5990379420323" lon="13.333212098723141"><ele>1288.0</ele><time>2026-04-18T09:49:11.999Z</time></trkpt><trkpt lat="42.598955730201375" lon="13.333106952981453"><ele>1288.0</ele><time>2026-04-18T09:49:12.999Z</time></trkpt><trkpt lat="42.598914354993056" lon="13.332963540835362"><ele>1288.0</ele><time>2026-04-18T09:49:13.999Z</time></trkpt><trkpt lat="42.59890857690156" lon="13.332812850127203"><ele>1288.0</ele><time>2026-04-18T09:49:14.999Z</time></trkpt><trkpt lat="42.598948251041584" lon="13.332671384961902"><ele>1288.0</ele><time>2026-04-18T09:49:15.999Z</time></trkpt><trkpt lat="42.59905154865179" lon="13.332579876083317"><ele>1287.75</ele><time>2026-04-18T09:49:16.999Z</time></trkpt><trkpt lat="42.599126238537835" lon="13.332446449783372"><ele>1287.5</ele><time>2026-04-18T09:49:17.999Z</time></trkpt><trkpt lat="42.599203836211984" lon="13.332338560716257"><ele>1287.25</ele><time>2026-04-18T09:49:18.999Z</time></trkpt><trkpt lat="42.59924042640519" lon="13.33219605165765"><ele>1287.0</ele><time>2026-04-18T09:49:19.999Z</time></trkpt><trkpt lat="42.59922612645959" lon="13.332035625599362"><ele>1288.25</ele><time>2026-04-18T09:49:20.999Z</time></trkpt><trkpt lat="42.59916743658663" lon="13.331884574583674"><ele>1289.5</ele><time>2026-04-18T09:49:21.999Z</time></trkpt><trkpt lat="42.59907657530048" lon="13.331758888148554"><ele>1290.75</ele><time>2026-04-18T09:49:22.999Z</time></trkpt><trkpt lat="42.598986639722035" lon="13.331628295479954"><ele>1292.0</ele><time>2026-04-18T09:49:23.999Z</time></trkpt><trkpt lat="42.59891393559214" lon="13.331479770061863"><ele>1292.5</ele><time>2026-04-18T09:49:24.999Z</time></trkpt><trkpt lat="42.59886585323292" lon="13.331311727274425"><ele>1293.0</ele><time>2026-04-18T09:49:25.999Z</time></trkpt><trkpt lat="42.598827211925226" lon="13.331138988274576"><ele>1293.5</ele><time>2026-04-18T09:49:26.999Z</time></trkpt><trkpt lat="42.59879805088286" lon="13.330969085086846"><ele>1294.0</ele><time>2026-04-18T09:49:27.999Z</time></trkpt><trkpt lat="42.59875915729926" lon="13.330797290744174"><ele>1294.0</ele><time>2026-04-18T09:49:28.999Z</time></trkpt><trkpt lat="42.59870289089933" lon="13.330634967520313"><ele>1294.0</ele><time>2026-04-18T09:49:29.999Z</time></trkpt><trkpt lat="42.598632035338824" lon="13.33048531609286"><ele>1294.0</ele><time>2026-04-18T09:49:30.999Z</time></trkpt><trkpt lat="42.59855688795803" lon="13.330332583619656"><ele>1294.0</ele><time>2026-04-18T09:49:31.999Z</time></trkpt><trkpt lat="42.59848069984809" lon="13.330177970103675"><ele>1296.0</ele><time>2026-04-18T09:49:32.999Z</time></trkpt><trkpt lat="42.598403477138476" lon="13.330022639024376"><ele>1298.0</ele><time>2026-04-18T09:49:33.999Z</time></trkpt><trkpt lat="42.59831085435697" lon="13.329881640508715"><ele>1300.0</ele><time>2026-04-18T09:49:34.999Z</time></trkpt><trkpt lat="42.598203177942054" lon="13.329764592460423"><ele>1302.0</ele><time>2026-04-18T09:49:35.999Z</time></trkpt><trkpt lat="42.59808996114538" lon="13.329657193975308"><ele>1302.75</ele><time>2026-04-18T09:49:36.999Z</time></trkpt><trkpt lat="42.597980940387664" lon="13.329552567668333"><ele>1303.5</ele><time>2026-04-18T09:49:37.999Z</time></trkpt><trkpt lat="42.59789588282426" lon="13.32943655756431"><ele>1304.25</ele><time>2026-04-18T09:49:38.999Z</time></trkpt><trkpt lat="42.59785979800887" lon="13.329294262946338"><ele>1305.0</ele><time>2026-04-18T09:49:39.999Z</time></trkpt><trkpt lat="42.59786823518099" lon="13.32914989812612"><ele>1305.0</ele><time>2026-04-18T09:49:40.999Z</time></trkpt><trkpt lat="42.59790421905137" lon="13.329007189679272"><ele>1305.0</ele><time>2026-04-18T09:49:41.999Z</time></trkpt><trkpt lat="42.59794088313572" lon="13.328861250221463"><ele>1305.0</ele><time>2026-04-18T09:49:42.999Z</time></trkpt><trkpt lat="42.59800364560144" lon="13.32874055552151"><ele>1305.0</ele><time>2026-04-18T09:49:43.999Z</time></trkpt><trkpt lat="42.59810651511755" lon="13.328681523972735"><ele>1305.0</ele><time>2026-04-18T09:49:44.999Z</time></trkpt><trkpt lat="42.59822597356059" lon="13.328721334262381"><ele>1309.0</ele><time>2026-04-18T09:49:45.999Z</time></trkpt><trkpt lat="42.598343269081205" lon="13.328753440661378"><ele>1313.0</ele><time>2026-04-18T09:49:46.999Z</time></trkpt><trkpt lat="42.598468934903494" lon="13.32876695221572"><ele>1317.0</ele><time>2026-04-18T09:49:47.999Z</time></trkpt><trkpt lat="42.598603553738904" lon="13.328799140613285"><ele>1321.0</ele><time>2026-04-18T09:49:48.999Z</time></trkpt><trkpt lat="42.598740376636144" lon="13.3288224120211"><ele>1322.75</ele><time>2026-04-18T09:49:49.999Z</time></trkpt><trkpt lat="42.59888190960184" lon="13.328857663717935"><ele>1324.5</ele><time>2026-04-18T09:49:50.999Z</time></trkpt><trkpt lat="42.599031169842334" lon="13.328861243055977"><ele>1326.25</ele><time>2026-04-18T09:49:51.999Z</time></trkpt><trkpt lat="42.5991843199311" lon="13.328847986204211"><ele>1328.0</ele><time>2026-04-18T09:49:52.999Z</time></trkpt><trkpt lat="42.59933374619324" lon="13.328827741864997"><ele>1328.0</ele><time>2026-04-18T09:49:53.999Z</time></trkpt><trkpt lat="42.599487663179076" lon="13.328801108852852"><ele>1328.0</ele><time>2026-04-18T09:49:54.999Z</time></trkpt><trkpt lat="42.59963659761042" lon="13.328776507845456"><ele>1328.0</ele><time>2026-04-18T09:49:55.999Z</time></trkpt><trkpt lat="42.5997814270463" lon="13.328755266249381"><ele>1326.5</ele><time>2026-04-18T09:49:56.999Z</time></trkpt><trkpt lat="42.59991680594882" lon="13.328702107548946"><ele>1325.0</ele><time>2026-04-18T09:49:58.001Z</time></trkpt><trkpt lat="42.60003807710713" lon="13.328604338108448"><ele>1323.5</ele><time>2026-04-18T09:49:59.001Z</time></trkpt><trkpt lat="42.600146026993" lon="13.328474186553919"><ele>1322.0</ele><time>2026-04-18T09:50:00.001Z</time></trkpt><trkpt lat="42.60025039154337" lon="13.328343564790732"><ele>1321.75</ele><time>2026-04-18T09:50:01.001Z</time></trkpt><trkpt lat="42.60035462985821" lon="13.328213609443434"><ele>1321.5</ele><time>2026-04-18T09:50:02.001Z</time></trkpt><trkpt lat="42.600451557284785" lon="13.328082340250537"><ele>1321.25</ele><time>2026-04-18T09:50:03.001Z</time></trkpt><trkpt lat="42.60053184094058" lon="13.327926777071495"><ele>1321.0</ele><time>2026-04-18T09:50:04.001Z</time></trkpt><trkpt lat="42.60057923778125" lon="13.327747000821438"><ele>1321.0</ele><time>2026-04-18T09:50:05.001Z</time></trkpt><trkpt lat="42.60060651073946" lon="13.327557775551538"><ele>1321.0</ele><time>2026-04-18T09:50:06.001Z</time></trkpt><trkpt lat="42.60061162778086" lon="13.32736636653284"><ele>1321.0</ele><time>2026-04-18T09:50:07.001Z</time></trkpt><trkpt lat="42.60058640279259" lon="13.327179568386498"><ele>1321.0</ele><time>2026-04-18T09:50:08.001Z</time></trkpt><trkpt lat="42.60052965275628" lon="13.327004435879463"><ele>1321.25</ele><time>2026-04-18T09:50:09.001Z</time></trkpt><trkpt lat="42.600466230010845" lon="13.326840361848912"><ele>1321.5</ele><time>2026-04-18T09:50:10.001Z</time></trkpt><trkpt lat="42.60037970052747" lon="13.326692579144751"><ele>1321.75</ele><time>2026-04-18T09:50:11.001Z</time></trkpt><trkpt lat="42.60027780394039" lon="13.326578569148195"><ele>1322.0</ele><time>2026-04-18T09:50:12.001Z</time></trkpt><trkpt lat="42.60016981122715" lon="13.326477754212393"><ele>1322.5</ele><time>2026-04-18T09:50:13.001Z</time></trkpt><trkpt lat="42.60005816954116" lon="13.326410800776417"><ele>1323.0</ele><time>2026-04-18T09:50:14.001Z</time></trkpt><trkpt lat="42.59994233745614" lon="13.326371291978022"><ele>1323.5</ele><time>2026-04-18T09:50:15.001Z</time></trkpt><trkpt lat="42.599817114607916" lon="13.326377477446092"><ele>1324.0</ele><time>2026-04-18T09:50:16.001Z</time></trkpt><trkpt lat="42.59968924052248" lon="13.326400089314602"><ele>1324.75</ele><time>2026-04-18T09:50:17.001Z</time></trkpt><trkpt lat="42.599559609681855" lon="13.32641762470678"><ele>1325.5</ele><time>2026-04-18T09:50:18.001Z</time></trkpt><trkpt lat="42.599429035898616" lon="13.326437273196712"><ele>1326.25</ele><time>2026-04-18T09:50:19.001Z</time></trkpt><trkpt lat="42.59929581046446" lon="13.32645906949994"><ele>1327.0</ele><time>2026-04-18T09:50:20.001Z</time></trkpt><trkpt lat="42.59916090227485" lon="13.326481099114467"><ele>1327.0</ele><time>2026-04-18T09:50:21.001Z</time></trkpt><trkpt lat="42.599025352463016" lon="13.326502242864484"><ele>1327.0</ele><time>2026-04-18T09:50:22.001Z</time></trkpt><trkpt lat="42.59889305700044" lon="13.326520135698647"><ele>1327.0</ele><time>2026-04-18T09:50:23.001Z</time></trkpt><trkpt lat="42.59876291468732" lon="13.326544429141054"><ele>1327.0</ele><time>2026-04-18T09:50:24.001Z</time></trkpt><trkpt lat="42.598639193991154" lon="13.326573888185688"><ele>1325.5</ele><time>2026-04-18T09:50:25.001Z</time></trkpt><trkpt lat="42.59852861649498" lon="13.326613233034209"><ele>1324.0</ele><time>2026-04-18T09:50:26.001Z</time></trkpt><trkpt lat="42.59843086647469" lon="13.326671768467198"><ele>1322.5</ele><time>2026-04-18T09:50:27.001Z</time></trkpt><trkpt lat="42.59834673378689" lon="13.326779496244088"><ele>1321.0</ele><time>2026-04-18T09:50:28.001Z</time></trkpt><trkpt lat="42.59827807416406" lon="13.326915868921866"><ele>1321.0</ele><time>2026-04-18T09:50:29.001Z</time></trkpt><trkpt lat="42.59821523501158" lon="13.327061815409747"><ele>1321.0</ele><time>2026-04-18T09:50:30Z</time></trkpt><trkpt lat="42.59813655856946" lon="13.327195073223013"><ele>1321.0</ele><time>2026-04-18T09:50:31Z</time></trkpt><trkpt lat="42.59803909859996" lon="13.327310378583787"><ele>1321.0</ele><time>2026-04-18T09:50:32Z</time></trkpt><trkpt lat="42.59792249996405" lon="13.327387438468534"><ele>1320.25</ele><time>2026-04-18T09:50:33Z</time></trkpt><trkpt lat="42.59780096511119" lon="13.327421368652825"><ele>1319.5</ele><time>2026-04-18T09:50:34Z</time></trkpt><trkpt lat="42.59767451411362" lon="13.327393103773376"><ele>1318.75</ele><time>2026-04-18T09:50:35Z</time></trkpt><trkpt lat="42.59755743253179" lon="13.32732301978827"><ele>1318.0</ele><time>2026-04-18T09:50:36Z</time></trkpt><trkpt lat="42.59745471052722" lon="13.327209385979074"><ele>1318.0</ele><time>2026-04-18T09:50:37Z</time></trkpt><trkpt lat="42.597353584384436" lon="13.327082011951628"><ele>1318.0</ele><time>2026-04-18T09:50:38Z</time></trkpt><trkpt lat="42.59724463894854" lon="13.326957801240154"><ele>1318.0</ele><time>2026-04-18T09:50:39Z</time></trkpt><trkpt lat="42.597129800020106" lon="13.326833459835465"><ele>1318.0</ele><time>2026-04-18T09:50:40Z</time></trkpt><trkpt lat="42.59701382294294" lon="13.326716417971376"><ele>1317.0</ele><time>2026-04-18T09:50:41Z</time></trkpt><trkpt lat="42.59689281185057" lon="13.326608091968364"><ele>1316.0</ele><time>2026-04-18T09:50:42Z</time></trkpt><trkpt lat="42.596771070510194" lon="13.326506436282113"><ele>1315.0</ele><time>2026-04-18T09:50:43Z</time></trkpt><trkpt lat="42.59664481133331" lon="13.326424165807332"><ele>1314.0</ele><time>2026-04-18T09:50:44Z</time></trkpt><trkpt lat="42.5965133134387" lon="13.326360527802198"><ele>1314.0</ele><time>2026-04-18T09:50:45Z</time></trkpt><trkpt lat="42.59637885808245" lon="13.326322025068057"><ele>1314.0</ele><time>2026-04-18T09:50:46Z</time></trkpt><trkpt lat="42.59624211931808" lon="13.326316482236257"><ele>1314.0</ele><time>2026-04-18T09:50:47Z</time></trkpt><trkpt lat="42.59610370558366" lon="13.326334478936756"><ele>1314.0</ele><time>2026-04-18T09:50:48Z</time></trkpt><trkpt lat="42.59596528816526" lon="13.326360860609796"><ele>1312.75</ele><time>2026-04-18T09:50:49Z</time></trkpt><trkpt lat="42.59582580963523" lon="13.326390691723846"><ele>1311.5</ele><time>2026-04-18T09:50:50Z</time></trkpt><trkpt lat="42.59568397898099" lon="13.326420197130515"><ele>1310.25</ele><time>2026-04-18T09:50:51Z</time></trkpt><trkpt lat="42.595542231161836" lon="13.32645009063615"><ele>1309.0</ele><time>2026-04-18T09:50:52Z</time></trkpt><trkpt lat="42.59539938293673" lon="13.326479548215092"><ele>1312.5</ele><time>2026-04-18T09:50:53Z</time></trkpt><trkpt lat="42.595258668925524" lon="13.326509167408286"><ele>1316.0</ele><time>2026-04-18T09:50:54Z</time></trkpt><trkpt lat="42.595119502092125" lon="13.326537800219166"><ele>1319.5</ele><time>2026-04-18T09:50:55Z</time></trkpt><trkpt lat="42.59498095028425" lon="13.326569873417638"><ele>1323.0</ele><time>2026-04-18T09:50:56Z</time></trkpt><trkpt lat="42.59484243370386" lon="13.326605539587286"><ele>1323.0</ele><time>2026-04-18T09:50:57Z</time></trkpt><trkpt lat="42.594703475122806" lon="13.326643692537953"><ele>1323.0</ele><time>2026-04-18T09:50:58Z</time></trkpt><trkpt lat="42.59456681513984" lon="13.326690402209831"><ele>1323.0</ele><time>2026-04-18T09:50:59Z</time></trkpt><trkpt lat="42.59443493638749" lon="13.32675555359959"><ele>1323.0</ele><time>2026-04-18T09:51:00Z</time></trkpt><trkpt lat="42.59431670569966" lon="13.32684970917192"><ele>1322.0</ele><time>2026-04-18T09:51:01Z</time></trkpt><trkpt lat="42.594213479206786" lon="13.326975870690783"><ele>1321.0</ele><time>2026-04-18T09:51:02Z</time></trkpt><trkpt lat="42.59412213622289" lon="13.327119868569488"><ele>1320.0</ele><time>2026-04-18T09:51:03Z</time></trkpt><trkpt lat="42.594031864675905" lon="13.327269225468928"><ele>1319.0</ele><time>2026-04-18T09:51:04Z</time></trkpt><trkpt lat="42.59393441865631" lon="13.327417093421797"><ele>1319.0</ele><time>2026-04-18T09:51:05Z</time></trkpt><trkpt lat="42.59382787947653" lon="13.327549950067123"><ele>1319.0</ele><time>2026-04-18T09:51:06Z</time></trkpt><trkpt lat="42.59371465456068" lon="13.32765952078026"><ele>1319.0</ele><time>2026-04-18T09:51:07Z</time></trkpt><trkpt lat="42.593592041493224" lon="13.327744641886921"><ele>1319.0</ele><time>2026-04-18T09:51:08Z</time></trkpt><trkpt lat="42.59346741796346" lon="13.327825723478558"><ele>1318.5</ele><time>2026-04-18T09:51:09Z</time></trkpt><trkpt lat="42.59334426711719" lon="13.32790623709752"><ele>1318.0</ele><time>2026-04-18T09:51:09.999Z</time></trkpt><trkpt lat="42.59322280095474" lon="13.327986134405233"><ele>1317.5</ele><time>2026-04-18T09:51:10.999Z</time></trkpt><trkpt lat="42.59309556663569" lon="13.328068045191287"><ele>1317.0</ele><time>2026-04-18T09:51:11.999Z</time></trkpt><trkpt lat="42.59296635494008" lon="13.328147026701343"><ele>1314.0</ele><time>2026-04-18T09:51:12.999Z</time></trkpt><trkpt lat="42.59283077176716" lon="13.328199919435187"><ele>1311.0</ele><time>2026-04-18T09:51:13.999Z</time></trkpt><trkpt lat="42.59269652127362" lon="13.32821991127304"><ele>1308.0</ele><time>2026-04-18T09:51:14.999Z</time></trkpt><trkpt lat="42.59256126969797" lon="13.328222642201645"><ele>1305.0</ele><time>2026-04-18T09:51:15.999Z</time></trkpt><trkpt lat="42.5924243373806" lon="13.328203757765955"><ele>1305.0</ele><time>2026-04-18T09:51:16.999Z</time></trkpt><trkpt lat="42.592289378120796" lon="13.32815199430253"><ele>1305.0</ele><time>2026-04-18T09:51:17.999Z</time></trkpt><trkpt lat="42.592163240486165" lon="13.32807721380522"><ele>1305.0</ele><time>2026-04-18T09:51:18.999Z</time></trkpt><trkpt lat="42.59204225717732" lon="13.327987891218136"><ele>1305.0</ele><time>2026-04-18T09:51:19.999Z</time></trkpt><trkpt lat="42.59192294333633" lon="13.327890236275667"><ele>1302.75</ele><time>2026-04-18T09:51:20.999Z</time></trkpt><trkpt lat="42.59180057494422" lon="13.327799636264265"><ele>1300.5</ele><time>2026-04-18T09:51:21.999Z</time></trkpt><trkpt lat="42.59167998643828" lon="13.327716513207394"><ele>1298.25</ele><time>2026-04-18T09:51:22.999Z</time></trkpt><trkpt lat="42.59155526351059" lon="13.327637724907209"><ele>1296.0</ele><time>2026-04-18T09:51:23.999Z</time></trkpt><trkpt lat="42.591430389670194" lon="13.327563434294408"><ele>1296.0</ele><time>2026-04-18T09:51:24.999Z</time></trkpt><trkpt lat="42.59130642075439" lon="13.327489854913608"><ele>1296.0</ele><time>2026-04-18T09:51:25.999Z</time></trkpt><trkpt lat="42.591184363687084" lon="13.327420599567796"><ele>1296.0</ele><time>2026-04-18T09:51:26.999Z</time></trkpt><trkpt lat="42.59106241924135" lon="13.327357695823622"><ele>1296.0</ele><time>2026-04-18T09:51:27.999Z</time></trkpt><trkpt lat="42.590938053544946" lon="13.327302513150071"><ele>1295.75</ele><time>2026-04-18T09:51:28.999Z</time></trkpt><trkpt lat="42.590816355362335" lon="13.327259231212274"><ele>1295.5</ele><time>2026-04-18T09:51:29.999Z</time></trkpt><trkpt lat="42.59069644046343" lon="13.32724617251624"><ele>1295.25</ele><time>2026-04-18T09:51:30.999Z</time></trkpt><trkpt lat="42.590583468809704" lon="13.327278835128226"><ele>1295.0</ele><time>2026-04-18T09:51:31.999Z</time></trkpt><trkpt lat="42.590488438463275" lon="13.327365677443114"><ele>1295.0</ele><time>2026-04-18T09:51:32.999Z</time></trkpt><trkpt lat="42.59042458403294" lon="13.32749234247748"><ele>1295.0</ele><time>2026-04-18T09:51:33.999Z</time></trkpt><trkpt lat="42.59039065865409" lon="13.327646429058799"><ele>1295.0</ele><time>2026-04-18T09:51:34.999Z</time></trkpt><trkpt lat="42.59038188894079" lon="13.32781089393291"><ele>1295.0</ele><time>2026-04-18T09:51:35.999Z</time></trkpt><trkpt lat="42.59038729202747" lon="13.32797802666046"><ele>1296.6666666666667</ele><time>2026-04-18T09:51:36.999Z</time></trkpt><trkpt lat="42.59039916051326" lon="13.328147770437807"><ele>1298.3333333333333</ele><time>2026-04-18T09:51:37.999Z</time></trkpt><trkpt lat="42.590424629936415" lon="13.328498471053646"><ele>1300.0</ele><time>2026-04-18T09:51:39.999Z</time></trkpt><trkpt lat="42.59043074578862" lon="13.328673727995572"><ele>1300.0</ele><time>2026-04-18T09:51:40.999Z</time></trkpt><trkpt lat="42.59042011752016" lon="13.328850293059732"><ele>1300.0</ele><time>2026-04-18T09:51:41.999Z</time></trkpt><trkpt lat="42.590396082084965" lon="13.32902405080283"><ele>1300.0</ele><time>2026-04-18T09:51:42.999Z</time></trkpt><trkpt lat="42.5903579880597" lon="13.329196590670216"><ele>1300.0</ele><time>2026-04-18T09:51:43.999Z</time></trkpt><trkpt lat="42.590312313816135" lon="13.329369147359857"><ele>1296.25</ele><time>2026-04-18T09:51:44.999Z</time></trkpt><trkpt lat="42.590266094831094" lon="13.329539327613281"><ele>1292.5</ele><time>2026-04-18T09:51:45.999Z</time></trkpt><trkpt lat="42.59022083165512" lon="13.329706999345944"><ele>1288.75</ele><time>2026-04-18T09:51:46.999Z</time></trkpt><trkpt lat="42.590178982826615" lon="13.32986603484006"><ele>1285.0</ele><time>2026-04-18T09:51:47.999Z</time></trkpt><trkpt lat="42.59013597747825" lon="13.330011237090664"><ele>1285.0</ele><time>2026-04-18T09:51:48.999Z</time></trkpt><trkpt lat="42.59008183651066" lon="13.330140524563642"><ele>1285.0</ele><time>2026-04-18T09:51:49.999Z</time></trkpt><trkpt lat="42.59000678344207" lon="13.330244748227608"><ele>1285.0</ele><time>2026-04-18T09:51:50.999Z</time></trkpt><trkpt lat="42.589913014426564" lon="13.330317119964734"><ele>1285.0</ele><time>2026-04-18T09:51:51.999Z</time></trkpt><trkpt lat="42.589803854401325" lon="13.330353207014452"><ele>1285.0</ele><time>2026-04-18T09:51:52.999Z</time></trkpt><trkpt lat="42.5896880827237" lon="13.330348171224164"><ele>1285.0</ele><time>2026-04-18T09:51:53.999Z</time></trkpt><trkpt lat="42.58956354766631" lon="13.330290234569055"><ele>1285.0</ele><time>2026-04-18T09:51:54.998Z</time></trkpt><trkpt lat="42.58944121385169" lon="13.330197008506268"><ele>1285.0</ele><time>2026-04-18T09:51:55.998Z</time></trkpt><trkpt lat="42.589306660204414" lon="13.330109855132125"><ele>1285.0</ele><time>2026-04-18T09:51:56.998Z</time></trkpt><trkpt lat="42.58922746727888" lon="13.330044583067906"><ele>1283.8</ele><time>2026-04-18T09:51:57.998Z</time></trkpt><trkpt lat="42.589116189555504" lon="13.329963658395764"><ele>1282.6</ele><time>2026-04-18T09:51:58.998Z</time></trkpt><trkpt lat="42.589013848183704" lon="13.329881732007479"><ele>1281.4</ele><time>2026-04-18T09:51:59.998Z</time></trkpt><trkpt lat="42.588932735433445" lon="13.329804974237472"><ele>1280.2</ele><time>2026-04-18T09:52:00.998Z</time></trkpt><trkpt lat="42.588870742436775" lon="13.3297591025548"><ele>1279.0</ele><time>2026-04-18T09:52:01.998Z</time></trkpt><trkpt lat="42.58880367701681" lon="13.329706396160692"><ele>1279.0</ele><time>2026-04-18T10:02:00.998Z</time></trkpt><trkpt lat="42.588691809850665" lon="13.329655867446073"><ele>1279.0</ele><time>2026-04-18T10:02:02.998Z</time></trkpt><trkpt lat="42.58862175152865" lon="13.329609376753591"><ele>1279.0</ele><time>2026-04-18T10:02:03.998Z</time></trkpt><trkpt lat="42.588552430672046" lon="13.329555021201422"><ele>1279.0</ele><time>2026-04-18T10:02:04.998Z</time></trkpt><trkpt lat="42.58847844615923" lon="13.329494354601053"><ele>1279.0</ele><time>2026-04-18T10:02:05.998Z</time></trkpt><trkpt lat="42.588403882439614" lon="13.329429742966706"><ele>1279.6</ele><time>2026-04-18T10:02:06.998Z</time></trkpt><trkpt lat="42.588322379012574" lon="13.329364055019285"><ele>1280.2</ele><time>2026-04-18T10:02:07.998Z</time></trkpt><trkpt lat="42.58823718738621" lon="13.329303576486549"><ele>1280.8</ele><time>2026-04-18T10:02:08.998Z</time></trkpt><trkpt lat="42.588148600463136" lon="13.329237953324098"><ele>1281.3999999999999</ele><time>2026-04-18T10:02:09.998Z</time></trkpt><trkpt lat="42.588056427474136" lon="13.329164937332413"><ele>1282.0</ele><time>2026-04-18T10:02:10.998Z</time></trkpt><trkpt lat="42.58795954001164" lon="13.329089666854083"><ele>1282.0</ele><time>2026-04-18T10:02:11.998Z</time></trkpt><trkpt lat="42.58786000262952" lon="13.329011787353148"><ele>1282.0</ele><time>2026-04-18T10:02:12.998Z</time></trkpt><trkpt lat="42.58775686230487" lon="13.32892951872095"><ele>1282.0</ele><time>2026-04-18T10:02:13.998Z</time></trkpt><trkpt lat="42.58765489469885" lon="13.32884931252376"><ele>1282.0</ele><time>2026-04-18T10:02:14.998Z</time></trkpt><trkpt lat="42.58755256346715" lon="13.328771200059812"><ele>1283.25</ele><time>2026-04-18T10:02:15.998Z</time></trkpt><trkpt lat="42.587449175098264" lon="13.328693156401885"><ele>1284.5</ele><time>2026-04-18T10:02:16.998Z</time></trkpt><trkpt lat="42.58734280122733" lon="13.328614876495683"><ele>1285.75</ele><time>2026-04-18T10:02:17.997Z</time></trkpt><trkpt lat="42.587235225428806" lon="13.328530988956027"><ele>1287.0</ele><time>2026-04-18T10:02:18.997Z</time></trkpt><trkpt lat="42.58712613438672" lon="13.328444591108065"><ele>1287.0</ele><time>2026-04-18T10:02:19.997Z</time></trkpt><trkpt lat="42.587013579290655" lon="13.328356326004265"><ele>1287.0</ele><time>2026-04-18T10:02:20.997Z</time></trkpt><trkpt lat="42.586901123371895" lon="13.328264237770533"><ele>1287.0</ele><time>2026-04-18T10:02:21.997Z</time></trkpt><trkpt lat="42.5867871459876" lon="13.328172190134817"><ele>1287.0</ele><time>2026-04-18T10:02:22.997Z</time></trkpt><trkpt lat="42.58667296850049" lon="13.32807482658431"><ele>1288.75</ele><time>2026-04-18T10:02:23.997Z</time></trkpt><trkpt lat="42.58656128556176" lon="13.327971273900742"><ele>1290.5</ele><time>2026-04-18T10:02:24.997Z</time></trkpt><trkpt lat="42.586454746508586" lon="13.327858165612586"><ele>1292.25</ele><time>2026-04-18T10:02:25.997Z</time></trkpt><trkpt lat="42.5863560293784" lon="13.327734229478594"><ele>1294.0</ele><time>2026-04-18T10:02:26.997Z</time></trkpt><trkpt lat="42.586261360697144" lon="13.327601883107096"><ele>1296.0</ele><time>2026-04-18T10:02:27.997Z</time></trkpt><trkpt lat="42.58616868729539" lon="13.327463408822876"><ele>1298.0</ele><time>2026-04-18T10:02:28.997Z</time></trkpt><trkpt lat="42.586079312409645" lon="13.327317119191203"><ele>1300.0</ele><time>2026-04-18T10:02:30Z</time></trkpt><trkpt lat="42.58599512986418" lon="13.327164225824816"><ele>1302.0</ele><time>2026-04-18T10:02:31Z</time></trkpt><trkpt lat="42.585911861730544" lon="13.327007490069402"><ele>1302.0</ele><time>2026-04-18T10:02:32Z</time></trkpt><trkpt lat="42.58582921559584" lon="13.326853413425292"><ele>1302.0</ele><time>2026-04-18T10:02:33Z</time></trkpt><trkpt lat="42.585746149230424" lon="13.326699090436785"><ele>1302.0</ele><time>2026-04-18T10:02:34Z</time></trkpt><trkpt lat="42.585662594377894" lon="13.326544090824138"><ele>1302.0</ele><time>2026-04-18T10:02:35Z</time></trkpt><trkpt lat="42.58557993833011" lon="13.32638816087977"><ele>1301.5</ele><time>2026-04-18T10:02:36Z</time></trkpt><trkpt lat="42.585496929872164" lon="13.32622920433869"><ele>1301.0</ele><time>2026-04-18T10:02:37Z</time></trkpt><trkpt lat="42.58541258029935" lon="13.326071728635192"><ele>1300.5</ele><time>2026-04-18T10:02:38Z</time></trkpt><trkpt lat="42.58532718936434" lon="13.32591224144139"><ele>1300.0</ele><time>2026-04-18T10:02:39Z</time></trkpt><trkpt lat="42.5852412463632" lon="13.325752706073024"><ele>1299.0</ele><time>2026-04-18T10:02:40Z</time></trkpt><trkpt lat="42.585155874860256" lon="13.325593592573695"><ele>1298.0</ele><time>2026-04-18T10:02:41Z</time></trkpt><trkpt lat="42.58506951347604" lon="13.325430204677065"><ele>1297.0</ele><time>2026-04-18T10:02:42Z</time></trkpt><trkpt lat="42.58498432480908" lon="13.325263537231706"><ele>1296.0</ele><time>2026-04-18T10:02:43Z</time></trkpt><trkpt lat="42.58489817773372" lon="13.325096815327342"><ele>1296.0</ele><time>2026-04-18T10:02:44Z</time></trkpt><trkpt lat="42.58480980884554" lon="13.324927034053308"><ele>1296.0</ele><time>2026-04-18T10:02:45Z</time></trkpt><trkpt lat="42.58472318912322" lon="13.324756613021975"><ele>1296.0</ele><time>2026-04-18T10:02:46Z</time></trkpt><trkpt lat="42.58463585579667" lon="13.324586900329813"><ele>1297.0</ele><time>2026-04-18T10:02:47Z</time></trkpt><trkpt lat="42.58454951964105" lon="13.324417175981488"><ele>1298.0</ele><time>2026-04-18T10:02:48Z</time></trkpt><trkpt lat="42.5844629682063" lon="13.324247900316571"><ele>1299.0</ele><time>2026-04-18T10:02:49Z</time></trkpt><trkpt lat="42.58437476168694" lon="13.32407950173729"><ele>1299.0</ele><time>2026-04-18T10:02:50Z</time></trkpt><trkpt lat="42.58428779793446" lon="13.323906724806083"><ele>1299.0</ele><time>2026-04-18T10:02:51Z</time></trkpt><trkpt lat="42.584200832438576" lon="13.323732900431008"><ele>1299.0</ele><time>2026-04-18T10:02:52Z</time></trkpt><trkpt lat="42.58411258701272" lon="13.32355775363986"><ele>1297.0</ele><time>2026-04-18T10:02:53Z</time></trkpt><trkpt lat="42.58402362626524" lon="13.32338164516801"><ele>1295.0</ele><time>2026-04-18T10:02:54Z</time></trkpt><trkpt lat="42.583932140780924" lon="13.323207645667182"><ele>1293.0</ele><time>2026-04-18T10:02:54.999Z</time></trkpt><trkpt lat="42.58383969567932" lon="13.323036183986167"><ele>1293.0</ele><time>2026-04-18T10:02:55.999Z</time></trkpt><trkpt lat="42.58374477454591" lon="13.322866659804085"><ele>1293.0</ele><time>2026-04-18T10:02:56.999Z</time></trkpt><trkpt lat="42.58364404592796" lon="13.322701564882408"><ele>1293.0</ele><time>2026-04-18T10:02:57.999Z</time></trkpt><trkpt lat="42.58353728771614" lon="13.322547970247834"><ele>1293.0</ele><time>2026-04-18T10:02:58.999Z</time></trkpt><trkpt lat="42.583420965488614" lon="13.322397837990529"><ele>1293.0</ele><time>2026-04-18T10:02:59.999Z</time></trkpt><trkpt lat="42.58330386936534" lon="13.322249883803869"><ele>1293.0</ele><time>2026-04-18T10:03:00.999Z</time></trkpt><trkpt lat="42.58318545287094" lon="13.32210412048623"><ele>1293.6666666666667</ele><time>2026-04-18T10:03:01.999Z</time></trkpt><trkpt lat="42.58306458589741" lon="13.321960058026868"><ele>1294.3333333333335</ele><time>2026-04-18T10:03:02.999Z</time></trkpt><trkpt lat="42.582941808824614" lon="13.321816231583355"><ele>1295.0</ele><time>2026-04-18T10:03:03.999Z</time></trkpt><trkpt lat="42.58282098980343" lon="13.32167031414055"><ele>1295.0</ele><time>2026-04-18T10:03:04.999Z</time></trkpt><trkpt lat="42.582696501439976" lon="13.321525206190342"><ele>1295.0</ele><time>2026-04-18T10:03:05.999Z</time></trkpt><trkpt lat="42.582572248765075" lon="13.321382969235861"><ele>1295.0</ele><time>2026-04-18T10:03:06.999Z</time></trkpt><trkpt lat="42.58244419174366" lon="13.321252525722791"><ele>1292.0</ele><time>2026-04-18T10:03:07.999Z</time></trkpt><trkpt lat="42.58231049088332" lon="13.32112852035082"><ele>1289.0</ele><time>2026-04-18T10:03:08.999Z</time></trkpt><trkpt lat="42.58217307668052" lon="13.321005571771583"><ele>1286.0</ele><time>2026-04-18T10:03:09.999Z</time></trkpt><trkpt lat="42.58203312648083" lon="13.320882701942233"><ele>1288.3333333333335</ele><time>2026-04-18T10:03:10.999Z</time></trkpt><trkpt lat="42.58189170466633" lon="13.320767208370748"><ele>1290.6666666666667</ele><time>2026-04-18T10:03:11.999Z</time></trkpt><trkpt lat="42.58175048186875" lon="13.320647784303512"><ele>1293.0</ele><time>2026-04-18T10:03:12.999Z</time></trkpt><trkpt lat="42.58160646560746" lon="13.32053168789574"><ele>1291.6666666666667</ele><time>2026-04-18T10:03:13.999Z</time></trkpt><trkpt lat="42.58146591983082" lon="13.320414242934804"><ele>1290.3333333333335</ele><time>2026-04-18T10:03:14.999Z</time></trkpt><trkpt lat="42.58132416681957" lon="13.320295913196864"><ele>1289.0</ele><time>2026-04-18T10:03:15.999Z</time></trkpt><trkpt lat="42.58117922897328" lon="13.320175299737233"><ele>1289.0</ele><time>2026-04-18T10:03:16.999Z</time></trkpt><trkpt lat="42.58103249735659" lon="13.32005538572782"><ele>1289.0</ele><time>2026-04-18T10:03:17.999Z</time></trkpt><trkpt lat="42.58088734952106" lon="13.319933458444408"><ele>1289.0</ele><time>2026-04-18T10:03:18.999Z</time></trkpt><trkpt lat="42.58074450717272" lon="13.319813036670034"><ele>1288.6666666666667</ele><time>2026-04-18T10:03:19.999Z</time></trkpt><trkpt lat="42.580600257569245" lon="13.319693741287562"><ele>1288.3333333333333</ele><time>2026-04-18T10:03:20.999Z</time></trkpt><trkpt lat="42.58045390240212" lon="13.319572957712275"><ele>1288.0</ele><time>2026-04-18T10:03:21.999Z</time></trkpt><trkpt lat="42.58030773605135" lon="13.319455733740206"><ele>1288.0</ele><time>2026-04-18T10:03:22.999Z</time></trkpt><trkpt lat="42.58016208897322" lon="13.31932928604374"><ele>1288.0</ele><time>2026-04-18T10:03:23.999Z</time></trkpt><trkpt lat="42.58001790488021" lon="13.319204368552676"><ele>1288.0</ele><time>2026-04-18T10:03:24.999Z</time></trkpt><trkpt lat="42.5798737823761" lon="13.319084544633283"><ele>1288.0</ele><time>2026-04-18T10:03:25.999Z</time></trkpt><trkpt lat="42.579731085257926" lon="13.318970054407448"><ele>1288.0</ele><time>2026-04-18T10:03:26.999Z</time></trkpt><trkpt lat="42.57958746249454" lon="13.31887366237244"><ele>1288.0</ele><time>2026-04-18T10:03:27.999Z</time></trkpt><trkpt lat="42.579438591218825" lon="13.318795920782371"><ele>1286.0</ele><time>2026-04-18T10:03:28.999Z</time></trkpt><trkpt lat="42.57928376702324" lon="13.318735807739609"><ele>1284.0</ele><time>2026-04-18T10:03:29.999Z</time></trkpt><trkpt lat="42.57912783268154" lon="13.318727885161671"><ele>1282.0</ele><time>2026-04-18T10:03:30.999Z</time></trkpt><trkpt lat="42.5789668481207" lon="13.31873121754978"><ele>1282.0</ele><time>2026-04-18T10:03:31.999Z</time></trkpt><trkpt lat="42.5788094310594" lon="13.318754015290896"><ele>1282.0</ele><time>2026-04-18T10:03:32.999Z</time></trkpt><trkpt lat="42.57865205532956" lon="13.31878323584147"><ele>1282.0</ele><time>2026-04-18T10:03:33.999Z</time></trkpt><trkpt lat="42.578493396565726" lon="13.318817209704648"><ele>1282.0</ele><time>2026-04-18T10:03:34.999Z</time></trkpt><trkpt lat="42.57833623608227" lon="13.318859709286997"><ele>1282.0</ele><time>2026-04-18T10:03:35.999Z</time></trkpt><trkpt lat="42.57817953980173" lon="13.318910061542605"><ele>1282.0</ele><time>2026-04-18T10:03:36.999Z</time></trkpt><trkpt lat="42.57802799722796" lon="13.318974260016208"><ele>1284.3333333333333</ele><time>2026-04-18T10:03:37.999Z</time></trkpt><trkpt lat="42.57787615891741" lon="13.319055538214"><ele>1286.6666666666667</ele><time>2026-04-18T10:03:38.999Z</time></trkpt><trkpt lat="42.577732816120765" lon="13.319154781344412"><ele>1289.0</ele><time>2026-04-18T10:03:39.999Z</time></trkpt><trkpt lat="42.5775993409141" lon="13.319263713520913"><ele>1289.0</ele><time>2026-04-18T10:03:40.999Z</time></trkpt><trkpt lat="42.57747219826369" lon="13.319380700512122"><ele>1289.0</ele><time>2026-04-18T10:03:41.998Z</time></trkpt><trkpt lat="42.57734463857644" lon="13.319503135560417"><ele>1289.0</ele><time>2026-04-18T10:03:42.998Z</time></trkpt><trkpt lat="42.577216938303565" lon="13.31962061532531"><ele>1288.6666666666667</ele><time>2026-04-18T10:03:43.998Z</time></trkpt><trkpt lat="42.57708640899747" lon="13.319735821742633"><ele>1288.3333333333333</ele><time>2026-04-18T10:03:44.998Z</time></trkpt><trkpt lat="42.57695415742913" lon="13.319850187078789"><ele>1288.0</ele><time>2026-04-18T10:03:45.998Z</time></trkpt><trkpt lat="42.5768207409038" lon="13.319967355200806"><ele>1288.0</ele><time>2026-04-18T10:03:46.998Z</time></trkpt><trkpt lat="42.57668847303991" lon="13.320085946204268"><ele>1288.0</ele><time>2026-04-18T10:03:47.998Z</time></trkpt><trkpt lat="42.57655440297338" lon="13.320204429806529"><ele>1288.0</ele><time>2026-04-18T10:03:48.998Z</time></trkpt><trkpt lat="42.57642025085918" lon="13.320319679602404"><ele>1288.0</ele><time>2026-04-18T10:03:49.998Z</time></trkpt><trkpt lat="42.57628736440004" lon="13.320435394619695"><ele>1288.0</ele><time>2026-04-18T10:03:50.998Z</time></trkpt><trkpt lat="42.5761537070012" lon="13.3205514746371"><ele>1288.0</ele><time>2026-04-18T10:03:51.998Z</time></trkpt><trkpt lat="42.57602171974977" lon="13.320670421236837"><ele>1290.3333333333333</ele><time>2026-04-18T10:03:52.998Z</time></trkpt><trkpt lat="42.57589278342092" lon="13.320786344192479"><ele>1292.6666666666667</ele><time>2026-04-18T10:03:53.998Z</time></trkpt><trkpt lat="42.57576259485207" lon="13.320895743810896"><ele>1295.0</ele><time>2026-04-18T10:03:54.998Z</time></trkpt><trkpt lat="42.575629441973426" lon="13.32100158686009"><ele>1295.0</ele><time>2026-04-18T10:03:55.998Z</time></trkpt><trkpt lat="42.5754899899158" lon="13.32109300344303"><ele>1295.0</ele><time>2026-04-18T10:03:56.998Z</time></trkpt><trkpt lat="42.575341350449655" lon="13.321168341658803"><ele>1295.0</ele><time>2026-04-18T10:03:57.998Z</time></trkpt><trkpt lat="42.57518951952878" lon="13.321231868020549"><ele>1295.3333333333335</ele><time>2026-04-18T10:03:58.998Z</time></trkpt><trkpt lat="42.57503449162461" lon="13.321290942725886"><ele>1295.6666666666667</ele><time>2026-04-18T10:03:59.998Z</time></trkpt><trkpt lat="42.574881230550574" lon="13.321350294266596"><ele>1296.0</ele><time>2026-04-18T10:04:00.998Z</time></trkpt><trkpt lat="42.57472560186686" lon="13.321412121118573"><ele>1296.3333333333333</ele><time>2026-04-18T10:04:01.998Z</time></trkpt><trkpt lat="42.57456615427559" lon="13.321476172751188"><ele>1296.6666666666665</ele><time>2026-04-18T10:04:02.998Z</time></trkpt><trkpt lat="42.57440986450342" lon="13.321539869228703"><ele>1297.0</ele><time>2026-04-18T10:04:03.998Z</time></trkpt><trkpt lat="42.57425191225741" lon="13.321600939710716"><ele>1298.6666666666665</ele><time>2026-04-18T10:04:04.998Z</time></trkpt><trkpt lat="42.574095962521795" lon="13.321661727777709"><ele>1300.3333333333333</ele><time>2026-04-18T10:04:05.998Z</time></trkpt><trkpt lat="42.57393919499172" lon="13.321723719970787"><ele>1302.0</ele><time>2026-04-18T10:04:06.998Z</time></trkpt><trkpt lat="42.57377810064978" lon="13.321786618651684"><ele>1302.0</ele><time>2026-04-18T10:04:07.998Z</time></trkpt><trkpt lat="42.57362193187743" lon="13.321848032379695"><ele>1302.0</ele><time>2026-04-18T10:04:08.998Z</time></trkpt><trkpt lat="42.573472937955835" lon="13.321920013218381"><ele>1302.0</ele><time>2026-04-18T10:04:09.998Z</time></trkpt><trkpt lat="42.573334098496304" lon="13.32201284488203"><ele>1302.0</ele><time>2026-04-18T10:04:10.998Z</time></trkpt><trkpt lat="42.57321580911121" lon="13.322148351697042"><ele>1302.0</ele><time>2026-04-18T10:04:11.998Z</time></trkpt><trkpt lat="42.573133608157306" lon="13.322318309495929"><ele>1302.0</ele><time>2026-04-18T10:04:12.998Z</time></trkpt><trkpt lat="42.57308082518665" lon="13.322515671065348"><ele>1302.6666666666667</ele><time>2026-04-18T10:04:13.998Z</time></trkpt><trkpt lat="42.57305781093328" lon="13.32272507170894"><ele>1303.3333333333335</ele><time>2026-04-18T10:04:14.998Z</time></trkpt><trkpt lat="42.573037994514564" lon="13.322936265779214"><ele>1304.0</ele><time>2026-04-18T10:04:15.998Z</time></trkpt><trkpt lat="42.573005266775716" lon="13.32314421895626"><ele>1305.3333333333335</ele><time>2026-04-18T10:04:16.998Z</time></trkpt><trkpt lat="42.57294870271293" lon="13.323343938534698"><ele>1306.6666666666667</ele><time>2026-04-18T10:04:17.998Z</time></trkpt><trkpt lat="42.57286393142245" lon="13.323529908992574"><ele>1308.0</ele><time>2026-04-18T10:04:18.998Z</time></trkpt><trkpt lat="42.57275580458224" lon="13.323694651359872"><ele>1306.0</ele><time>2026-04-18T10:04:19.998Z</time></trkpt><trkpt lat="42.572627410326575" lon="13.323835839022326"><ele>1304.0</ele><time>2026-04-18T10:04:20.998Z</time></trkpt><trkpt lat="42.572487587157994" lon="13.323961878509301"><ele>1302.0</ele><time>2026-04-18T10:04:21.998Z</time></trkpt><trkpt lat="42.57234742326475" lon="13.324088708188649"><ele>1302.0</ele><time>2026-04-18T10:04:22.998Z</time></trkpt><trkpt lat="42.57220853351987" lon="13.324220626067014"><ele>1302.0</ele><time>2026-04-18T10:04:23.997Z</time></trkpt><trkpt lat="42.57207080994238" lon="13.324350983452149"><ele>1302.0</ele><time>2026-04-18T10:04:24.997Z</time></trkpt><trkpt lat="42.57193676006256" lon="13.324478918912408"><ele>1302.6666666666667</ele><time>2026-04-18T10:04:25.997Z</time></trkpt><trkpt lat="42.571802858279135" lon="13.324606618504946"><ele>1303.3333333333335</ele><time>2026-04-18T10:04:26.997Z</time></trkpt><trkpt lat="42.57166391361441" lon="13.3247198293981"><ele>1304.0</ele><time>2026-04-18T10:04:27.997Z</time></trkpt><trkpt lat="42.57151584066587" lon="13.324798462850088"><ele>1304.0</ele><time>2026-04-18T10:04:28.997Z</time></trkpt><trkpt lat="42.57136141960526" lon="13.324836750781547"><ele>1304.0</ele><time>2026-04-18T10:04:29.997Z</time></trkpt><trkpt lat="42.57120885228574" lon="13.324839005246085"><ele>1304.0</ele><time>2026-04-18T10:04:30.997Z</time></trkpt><trkpt lat="42.57106089159067" lon="13.324820310704565"><ele>1305.0</ele><time>2026-04-18T10:04:31.997Z</time></trkpt><trkpt lat="42.570912132469964" lon="13.324810214538639"><ele>1306.0</ele><time>2026-04-18T10:04:32.997Z</time></trkpt><trkpt lat="42.57076201385599" lon="13.324826283464608"><ele>1307.0</ele><time>2026-04-18T10:04:33.997Z</time></trkpt><trkpt lat="42.57061562367548" lon="13.324882075504854"><ele>1307.0</ele><time>2026-04-18T10:04:34.997Z</time></trkpt><trkpt lat="42.57047549217851" lon="13.324977079814566"><ele>1307.0</ele><time>2026-04-18T10:04:36Z</time></trkpt><trkpt lat="42.57034698147945" lon="13.32509853169494"><ele>1307.0</ele><time>2026-04-18T10:04:37Z</time></trkpt><trkpt lat="42.57023585322583" lon="13.325239288484896"><ele>1306.6666666666667</ele><time>2026-04-18T10:04:38Z</time></trkpt><trkpt lat="42.57013157304103" lon="13.325387266911866"><ele>1306.3333333333333</ele><time>2026-04-18T10:04:39Z</time></trkpt><trkpt lat="42.57002164654958" lon="13.325539998512344"><ele>1306.0</ele><time>2026-04-18T10:04:40Z</time></trkpt><trkpt lat="42.56991119856207" lon="13.325687612663891"><ele>1307.0</ele><time>2026-04-18T10:04:41Z</time></trkpt><trkpt lat="42.569794861905734" lon="13.325822558539453"><ele>1308.0</ele><time>2026-04-18T10:04:42Z</time></trkpt><trkpt lat="42.56966672132649" lon="13.325927475667372"><ele>1309.0</ele><time>2026-04-18T10:04:43Z</time></trkpt><trkpt lat="42.56952576059828" lon="13.325984489491582"><ele>1309.25</ele><time>2026-04-18T10:04:44Z</time></trkpt><trkpt lat="42.5693783431834" lon="13.326007046251634"><ele>1309.5</ele><time>2026-04-18T10:04:45Z</time></trkpt><trkpt lat="42.569229281451484" lon="13.325992086874706"><ele>1309.75</ele><time>2026-04-18T10:04:46Z</time></trkpt><trkpt lat="42.56908447080926" lon="13.32593787705011"><ele>1310.0</ele><time>2026-04-18T10:04:47Z</time></trkpt><trkpt lat="42.568943173599536" lon="13.325871975415595"><ele>1310.0</ele><time>2026-04-18T10:04:48Z</time></trkpt><trkpt lat="42.56879780592491" lon="13.325804096768387"><ele>1310.0</ele><time>2026-04-18T10:04:49Z</time></trkpt><trkpt lat="42.56864824583848" lon="13.325743090721055"><ele>1310.0</ele><time>2026-04-18T10:04:50Z</time></trkpt><trkpt lat="42.56849758435992" lon="13.325700447210956"><ele>1308.6666666666667</ele><time>2026-04-18T10:04:51Z</time></trkpt><trkpt lat="42.56834201600342" lon="13.32568600310097"><ele>1307.3333333333333</ele><time>2026-04-18T10:04:52Z</time></trkpt><trkpt lat="42.568185735746624" lon="13.325712530102955"><ele>1306.0</ele><time>2026-04-18T10:04:53Z</time></trkpt><trkpt lat="42.56802539641301" lon="13.325757803219508"><ele>1306.0</ele><time>2026-04-18T10:04:54Z</time></trkpt><trkpt lat="42.56787418519281" lon="13.325810591721632"><ele>1306.0</ele><time>2026-04-18T10:04:55Z</time></trkpt><trkpt lat="42.56772171888368" lon="13.325868673940882"><ele>1306.0</ele><time>2026-04-18T10:04:56Z</time></trkpt><trkpt lat="42.567570940093795" lon="13.325941593494502"><ele>1305.0</ele><time>2026-04-18T10:04:57Z</time></trkpt><trkpt lat="42.56743220205173" lon="13.326037308546896"><ele>1304.0</ele><time>2026-04-18T10:04:58Z</time></trkpt><trkpt lat="42.567303785712596" lon="13.32615731623242"><ele>1303.0</ele><time>2026-04-18T10:04:59Z</time></trkpt><trkpt lat="42.56718211812459" lon="13.326289208726175"><ele>1303.3333333333333</ele><time>2026-04-18T10:05:00Z</time></trkpt><trkpt lat="42.56706045924845" lon="13.326421815387134"><ele>1303.6666666666667</ele><time>2026-04-18T10:05:01Z</time></trkpt><trkpt lat="42.56694294780464" lon="13.326549746837602"><ele>1304.0</ele><time>2026-04-18T10:05:02Z</time></trkpt><trkpt lat="42.5668212567295" lon="13.32666488073812"><ele>1304.0</ele><time>2026-04-18T10:05:03Z</time></trkpt><trkpt lat="42.5666933707478" lon="13.32675855016768"><ele>1304.0</ele><time>2026-04-18T10:05:04Z</time></trkpt><trkpt lat="42.566557165461965" lon="13.32681326504856"><ele>1304.0</ele><time>2026-04-18T10:05:05Z</time></trkpt><trkpt lat="42.56641615129173" lon="13.326839107593228"><ele>1304.0</ele><time>2026-04-18T10:05:05.999Z</time></trkpt><trkpt lat="42.566279663708265" lon="13.326848057206503"><ele>1304.0</ele><time>2026-04-18T10:05:06.999Z</time></trkpt><trkpt lat="42.56614223278934" lon="13.32684770811568"><ele>1304.0</ele><time>2026-04-18T10:05:07.999Z</time></trkpt><trkpt lat="42.5660063045765" lon="13.326842581469226"><ele>1304.0</ele><time>2026-04-18T10:05:08.999Z</time></trkpt><trkpt lat="42.56587036822481" lon="13.326853667802215"><ele>1304.0</ele><time>2026-04-18T10:05:09.999Z</time></trkpt><trkpt lat="42.56573568857628" lon="13.326889091659439"><ele>1304.0</ele><time>2026-04-18T10:05:10.999Z</time></trkpt><trkpt lat="42.565606199042065" lon="13.32694769725458"><ele>1304.0</ele><time>2026-04-18T10:05:11.999Z</time></trkpt><trkpt lat="42.56548423079199" lon="13.32702085808209"><ele>1304.0</ele><time>2026-04-18T10:05:12.999Z</time></trkpt><trkpt lat="42.565376902370424" lon="13.327107979679532"><ele>1304.0</ele><time>2026-04-18T10:05:13.999Z</time></trkpt><trkpt lat="42.56528005805591" lon="13.327198700177608"><ele>1304.75</ele><time>2026-04-18T10:05:14.999Z</time></trkpt><trkpt lat="42.56519771983927" lon="13.327310741264116"><ele>1305.5</ele><time>2026-04-18T10:05:15.999Z</time></trkpt><trkpt lat="42.565126579682" lon="13.327445774751608"><ele>1306.25</ele><time>2026-04-18T10:05:16.999Z</time></trkpt><trkpt lat="42.56504020212668" lon="13.327560482034125"><ele>1307.0</ele><time>2026-04-18T10:05:17.999Z</time></trkpt><trkpt lat="42.56493573233016" lon="13.327651117789713"><ele>1307.0</ele><time>2026-04-18T10:05:18.999Z</time></trkpt><trkpt lat="42.56482522523379" lon="13.327731751601197"><ele>1307.0</ele><time>2026-04-18T10:05:19.999Z</time></trkpt><trkpt lat="42.56470195646384" lon="13.327783686060986"><ele>1307.0</ele><time>2026-04-18T10:05:20.999Z</time></trkpt><trkpt lat="42.56457293766163" lon="13.327814724222279"><ele>1307.0</ele><time>2026-04-18T10:05:21.999Z</time></trkpt><trkpt lat="42.56444718470523" lon="13.327847574888239"><ele>1305.75</ele><time>2026-04-18T10:05:22.999Z</time></trkpt><trkpt lat="42.564320687820484" lon="13.32789317441946"><ele>1304.5</ele><time>2026-04-18T10:05:23.999Z</time></trkpt><trkpt lat="42.56420060217367" lon="13.327949948273444"><ele>1303.25</ele><time>2026-04-18T10:05:24.999Z</time></trkpt><trkpt lat="42.56408667512944" lon="13.32800841120622"><ele>1302.0</ele><time>2026-04-18T10:05:25.999Z</time></trkpt><trkpt lat="42.56398246996229" lon="13.328058311028713"><ele>1302.0</ele><time>2026-04-18T10:05:26.999Z</time></trkpt><trkpt lat="42.56389003006747" lon="13.328084475057207"><ele>1302.0</ele><time>2026-04-18T10:05:27.999Z</time></trkpt><trkpt lat="42.56380163063371" lon="13.328048849466324"><ele>1302.0</ele><time>2026-04-18T10:05:28.999Z</time></trkpt><trkpt lat="42.56371551438823" lon="13.327969215444163"><ele>1302.0</ele><time>2026-04-18T10:05:29.999Z</time></trkpt><trkpt lat="42.5636193595109" lon="13.327879119923153"><ele>1302.0</ele><time>2026-04-18T10:05:30.999Z</time></trkpt><trkpt lat="42.56350998986618" lon="13.327787279370485"><ele>1301.25</ele><time>2026-04-18T10:05:31.999Z</time></trkpt><trkpt lat="42.56339582070065" lon="13.32767846746673"><ele>1300.5</ele><time>2026-04-18T10:05:32.999Z</time></trkpt><trkpt lat="42.56327595574158" lon="13.327561378508374"><ele>1299.75</ele><time>2026-04-18T10:05:33.999Z</time></trkpt><trkpt lat="42.563149572731625" lon="13.327449273210531"><ele>1299.0</ele><time>2026-04-18T10:05:34.999Z</time></trkpt><trkpt lat="42.563018060469986" lon="13.327335368574866"><ele>1298.3333333333333</ele><time>2026-04-18T10:05:35.999Z</time></trkpt><trkpt lat="42.56288738848512" lon="13.327220872115413"><ele>1297.6666666666665</ele><time>2026-04-18T10:05:36.999Z</time></trkpt><trkpt lat="42.562755901922046" lon="13.32710879844426"><ele>1297.0</ele><time>2026-04-18T10:05:37.999Z</time></trkpt><trkpt lat="42.56262821000966" lon="13.327000739532723"><ele>1297.0</ele><time>2026-04-18T10:05:38.999Z</time></trkpt><trkpt lat="42.56250552566073" lon="13.326881726885686"><ele>1297.0</ele><time>2026-04-18T10:05:39.999Z</time></trkpt><trkpt lat="42.562386437395" lon="13.326764611807578"><ele>1297.0</ele><time>2026-04-18T10:05:40.999Z</time></trkpt><trkpt lat="42.56226055578529" lon="13.326660214258215"><ele>1297.0</ele><time>2026-04-18T10:05:41.999Z</time></trkpt><trkpt lat="42.562126351530694" lon="13.326584003521871"><ele>1297.75</ele><time>2026-04-18T10:05:42.999Z</time></trkpt><trkpt lat="42.56198675936513" lon="13.326553369682395"><ele>1298.5</ele><time>2026-04-18T10:05:43.999Z</time></trkpt><trkpt lat="42.56184723704835" lon="13.326554515461968"><ele>1299.25</ele><time>2026-04-18T10:05:44.999Z</time></trkpt><trkpt lat="42.56170891015329" lon="13.326553257112764"><ele>1300.0</ele><time>2026-04-18T10:05:45.999Z</time></trkpt><trkpt lat="42.561574081378154" lon="13.326550112043297"><ele>1300.0</ele><time>2026-04-18T10:05:46.999Z</time></trkpt><trkpt lat="42.56143885128047" lon="13.326552629895422"><ele>1300.0</ele><time>2026-04-18T10:05:47.999Z</time></trkpt><trkpt lat="42.56130636137441" lon="13.326570596295763"><ele>1300.0</ele><time>2026-04-18T10:05:48.999Z</time></trkpt><trkpt lat="42.56117753496412" lon="13.326604576091134"><ele>1300.0</ele><time>2026-04-18T10:05:49.999Z</time></trkpt><trkpt lat="42.56105239062757" lon="13.326650931098872"><ele>1300.75</ele><time>2026-04-18T10:05:50.999Z</time></trkpt><trkpt lat="42.56093075044752" lon="13.326702972030184"><ele>1301.5</ele><time>2026-04-18T10:05:51.999Z</time></trkpt><trkpt lat="42.56080965156305" lon="13.326755269105533"><ele>1302.25</ele><time>2026-04-18T10:05:52.998Z</time></trkpt><trkpt lat="42.560693801563886" lon="13.326806233411306"><ele>1303.0</ele><time>2026-04-18T10:05:53.998Z</time></trkpt><trkpt lat="42.56059047214095" lon="13.326874563247504"><ele>1303.0</ele><time>2026-04-18T10:05:54.998Z</time></trkpt><trkpt lat="42.56051251247403" lon="13.326972316529748"><ele>1303.0</ele><time>2026-04-18T10:05:55.998Z</time></trkpt><trkpt lat="42.56047261236491" lon="13.32709862777779"><ele>1303.0</ele><time>2026-04-18T10:05:56.998Z</time></trkpt><trkpt lat="42.56045023259946" lon="13.327218779610778"><ele>1303.0</ele><time>2026-04-18T10:05:57.998Z</time></trkpt><trkpt lat="42.560385591080845" lon="13.327311231658003"><ele>1303.0</ele><time>2026-04-18T10:05:58.998Z</time></trkpt><trkpt lat="42.56029052158726" lon="13.327379706646491"><ele>1303.25</ele><time>2026-04-18T10:05:59.998Z</time></trkpt><trkpt lat="42.560191952582336" lon="13.327446520735537"><ele>1303.5</ele><time>2026-04-18T10:06:00.998Z</time></trkpt><trkpt lat="42.5600941245817" lon="13.327518910139757"><ele>1303.75</ele><time>2026-04-18T10:06:01.998Z</time></trkpt><trkpt lat="42.55999544693347" lon="13.327599566304533"><ele>1304.0</ele><time>2026-04-18T10:06:02.998Z</time></trkpt><trkpt lat="42.55989479192864" lon="13.327683287849249"><ele>1304.0</ele><time>2026-04-18T10:06:03.998Z</time></trkpt><trkpt lat="42.55979454542692" lon="13.327773544761829"><ele>1304.0</ele><time>2026-04-18T10:06:04.998Z</time></trkpt><trkpt lat="42.55969832344422" lon="13.327867878996317"><ele>1304.0</ele><time>2026-04-18T10:06:05.998Z</time></trkpt><trkpt lat="42.55960368598559" lon="13.327963677568649"><ele>1304.0</ele><time>2026-04-18T10:06:06.998Z</time></trkpt><trkpt lat="42.559509561836386" lon="13.328058912183117"><ele>1303.8000000000002</ele><time>2026-04-18T10:06:07.998Z</time></trkpt><trkpt lat="42.55941639493341" lon="13.328154096036172"><ele>1303.6000000000001</ele><time>2026-04-18T10:06:08.998Z</time></trkpt><trkpt lat="42.55932253577972" lon="13.328243583377464"><ele>1303.4</ele><time>2026-04-18T10:06:09.998Z</time></trkpt><trkpt lat="42.559234252370175" lon="13.328327653646827"><ele>1303.2</ele><time>2026-04-18T10:06:10.998Z</time></trkpt><trkpt lat="42.55915444578707" lon="13.328390919701338"><ele>1303.0</ele><time>2026-04-18T10:06:11.998Z</time></trkpt><trkpt lat="42.559094903293406" lon="13.328434391365821"><ele>1303.0</ele><time>2026-04-18T10:06:12.998Z</time></trkpt><trkpt lat="42.55915261512516" lon="13.328768501935143"><ele>1303.0</ele><time>2026-04-18T10:06:14.998Z</time></trkpt><trkpt lat="42.55921026861969" lon="13.328886417629313"><ele>1303.0</ele><time>2026-04-18T10:06:15.998Z</time></trkpt><trkpt lat="42.559286789617936" lon="13.32899684602995"><ele>1301.5</ele><time>2026-04-18T10:06:16.998Z</time></trkpt><trkpt lat="42.559363975731344" lon="13.329116894343056"><ele>1300.0</ele><time>2026-04-18T10:06:17.998Z</time></trkpt><trkpt lat="42.55943879401841" lon="13.329247210856442"><ele>1298.5</ele><time>2026-04-18T10:06:18.998Z</time></trkpt><trkpt lat="42.559518401252795" lon="13.329385152485548"><ele>1297.0</ele><time>2026-04-18T10:06:19.998Z</time></trkpt><trkpt lat="42.55959030020386" lon="13.32953416027692"><ele>1297.0</ele><time>2026-04-18T10:06:20.998Z</time></trkpt><trkpt lat="42.55964040798706" lon="13.329703436214935"><ele>1297.0</ele><time>2026-04-18T10:06:21.998Z</time></trkpt><trkpt lat="42.559660664772416" lon="13.329881654634258"><ele>1297.0</ele><time>2026-04-18T10:06:22.998Z</time></trkpt><trkpt lat="42.55964801285784" lon="13.33006232951048"><ele>1297.0</ele><time>2026-04-18T10:06:23.998Z</time></trkpt><trkpt lat="42.55957567244921" lon="13.330223008791519"><ele>1296.75</ele><time>2026-04-18T10:06:24.998Z</time></trkpt><trkpt lat="42.55948959892052" lon="13.330369084708016"><ele>1296.5</ele><time>2026-04-18T10:06:25.998Z</time></trkpt><trkpt lat="42.559429760460034" lon="13.330539208890343"><ele>1296.25</ele><time>2026-04-18T10:06:26.998Z</time></trkpt><trkpt lat="42.55936659287555" lon="13.330708427768453"><ele>1296.0</ele><time>2026-04-18T10:06:27.998Z</time></trkpt><trkpt lat="42.559332491359605" lon="13.330892744508597"><ele>1297.0</ele><time>2026-04-18T10:06:28.998Z</time></trkpt><trkpt lat="42.55931374539043" lon="13.33108192055336"><ele>1298.0</ele><time>2026-04-18T10:06:29.998Z</time></trkpt><trkpt lat="42.559303445228146" lon="13.331273893772458"><ele>1299.0</ele><time>2026-04-18T10:06:30.998Z</time></trkpt><trkpt lat="42.5592946532741" lon="13.331466066180646"><ele>1300.0</ele><time>2026-04-18T10:06:31.998Z</time></trkpt><trkpt lat="42.559284459667836" lon="13.331662681336343"><ele>1300.5</ele><time>2026-04-18T10:06:32.998Z</time></trkpt><trkpt lat="42.55927811905603" lon="13.331863105324391"><ele>1301.0</ele><time>2026-04-18T10:06:33.998Z</time></trkpt><trkpt lat="42.5592744254187" lon="13.332064806364292"><ele>1301.5</ele><time>2026-04-18T10:06:34.998Z</time></trkpt><trkpt lat="42.55927442558791" lon="13.332260268074693"><ele>1302.0</ele><time>2026-04-18T10:06:35.998Z</time></trkpt><trkpt lat="42.55927287941081" lon="13.332453290524866"><ele>1302.75</ele><time>2026-04-18T10:06:36.998Z</time></trkpt><trkpt lat="42.5592676396609" lon="13.332649411916776"><ele>1303.5</ele><time>2026-04-18T10:06:37.997Z</time></trkpt><trkpt lat="42.55926084476298" lon="13.332840637658494"><ele>1304.25</ele><time>2026-04-18T10:06:38.997Z</time></trkpt><trkpt lat="42.559258994775696" lon="13.333026919334143"><ele>1305.0</ele><time>2026-04-18T10:06:39.997Z</time></trkpt><trkpt lat="42.55926918756308" lon="13.33321065767142"><ele>1305.5</ele><time>2026-04-18T10:06:40.997Z</time></trkpt><trkpt lat="42.55927572631865" lon="13.333388900337859"><ele>1306.0</ele><time>2026-04-18T10:06:42Z</time></trkpt><trkpt lat="42.55927843301301" lon="13.333560232907754"><ele>1306.5</ele><time>2026-04-18T10:06:43Z</time></trkpt><trkpt lat="42.55928162526534" lon="13.33372639210229"><ele>1307.0</ele><time>2026-04-18T10:06:44Z</time></trkpt><trkpt lat="42.55927652000393" lon="13.333888502928875"><ele>1308.5</ele><time>2026-04-18T10:06:45Z</time></trkpt><trkpt lat="42.55926377216153" lon="13.33404522182708"><ele>1310.0</ele><time>2026-04-18T10:06:46Z</time></trkpt><trkpt lat="42.55924379841269" lon="13.334201382153655"><ele>1311.5</ele><time>2026-04-18T10:06:47Z</time></trkpt><trkpt lat="42.55922304575553" lon="13.334363178956604"><ele>1313.0</ele><time>2026-04-18T10:06:48Z</time></trkpt><trkpt lat="42.55920273581953" lon="13.334529988137207"><ele>1313.0</ele><time>2026-04-18T10:06:49Z</time></trkpt><trkpt lat="42.559181679472786" lon="13.334701468805385"><ele>1313.0</ele><time>2026-04-18T10:06:50Z</time></trkpt><trkpt lat="42.55915756810516" lon="13.334877347352453"><ele>1313.0</ele><time>2026-04-18T10:06:51Z</time></trkpt><trkpt lat="42.559125808841934" lon="13.335056471664604"><ele>1313.0</ele><time>2026-04-18T10:06:52Z</time></trkpt><trkpt lat="42.55909116242807" lon="13.335234770294122"><ele>1314.75</ele><time>2026-04-18T10:06:53Z</time></trkpt><trkpt lat="42.55904982533068" lon="13.335414786140984"><ele>1316.5</ele><time>2026-04-18T10:06:54Z</time></trkpt><trkpt lat="42.55898471351198" lon="13.335584033091296"><ele>1318.25</ele><time>2026-04-18T10:06:55Z</time></trkpt><trkpt lat="42.55895428590079" lon="13.335775534240362"><ele>1320.0</ele><time>2026-04-18T10:06:56Z</time></trkpt><trkpt lat="42.55890823543576" lon="13.335961521357667"><ele>1321.5</ele><time>2026-04-18T10:06:57Z</time></trkpt><trkpt lat="42.55887633038309" lon="13.33615577302534"><ele>1323.0</ele><time>2026-04-18T10:06:58Z</time></trkpt><trkpt lat="42.55886283266374" lon="13.336351432851997"><ele>1324.5</ele><time>2026-04-18T10:06:59Z</time></trkpt><trkpt lat="42.558878086063835" lon="13.336547310697528"><ele>1326.0</ele><time>2026-04-18T10:07:00Z</time></trkpt><trkpt lat="42.558922357797975" lon="13.336723569253866"><ele>1325.5</ele><time>2026-04-18T10:07:01Z</time></trkpt><trkpt lat="42.55898138544182" lon="13.336885574069363"><ele>1325.0</ele><time>2026-04-18T10:07:02Z</time></trkpt><trkpt lat="42.55903340906093" lon="13.337047418231363"><ele>1324.5</ele><time>2026-04-18T10:07:03Z</time></trkpt><trkpt lat="42.55907986180814" lon="13.337206620397984"><ele>1324.0</ele><time>2026-04-18T10:07:04Z</time></trkpt><trkpt lat="42.55909436659705" lon="13.337376617118025"><ele>1324.0</ele><time>2026-04-18T10:07:05Z</time></trkpt><trkpt lat="42.559105746450214" lon="13.33753983983628"><ele>1324.0</ele><time>2026-04-18T10:07:06Z</time></trkpt><trkpt lat="42.5591049200457" lon="13.33770302652612"><ele>1324.0</ele><time>2026-04-18T10:07:07Z</time></trkpt><trkpt lat="42.5591001046599" lon="13.337868313286997"><ele>1324.0</ele><time>2026-04-18T10:07:08Z</time></trkpt><trkpt lat="42.55909125875687" lon="13.33803006402857"><ele>1325.0</ele><time>2026-04-18T10:07:09Z</time></trkpt><trkpt lat="42.55904696026385" lon="13.338181556390216"><ele>1326.0</ele><time>2026-04-18T10:07:10Z</time></trkpt><trkpt lat="42.558986067845055" lon="13.338320007926637"><ele>1327.0</ele><time>2026-04-18T10:07:11Z</time></trkpt><trkpt lat="42.5589039604867" lon="13.338439029888654"><ele>1328.0</ele><time>2026-04-18T10:07:12Z</time></trkpt><trkpt lat="42.55880855681277" lon="13.338532522441088"><ele>1328.0</ele><time>2026-04-18T10:07:13Z</time></trkpt><trkpt lat="42.558707623681684" lon="13.338612748857512"><ele>1328.0</ele><time>2026-04-18T10:07:14Z</time></trkpt><trkpt lat="42.55861092591442" lon="13.338698630468206"><ele>1328.0</ele><time>2026-04-18T10:07:15Z</time></trkpt><trkpt lat="42.558523760716895" lon="13.338794956922873"><ele>1328.0</ele><time>2026-04-18T10:07:16Z</time></trkpt><trkpt lat="42.55846885638223" lon="13.338928209316538"><ele>1327.75</ele><time>2026-04-18T10:07:17Z</time></trkpt><trkpt lat="42.55843543055902" lon="13.339075783269516"><ele>1327.5</ele><time>2026-04-18T10:07:18Z</time></trkpt><trkpt lat="42.55841122863113" lon="13.339228025909668"><ele>1327.25</ele><time>2026-04-18T10:07:19Z</time></trkpt><trkpt lat="42.55839973883267" lon="13.339382171175536"><ele>1327.0</ele><time>2026-04-18T10:07:20Z</time></trkpt><trkpt lat="42.55841504908246" lon="13.339531994697229"><ele>1327.0</ele><time>2026-04-18T10:07:21Z</time></trkpt><trkpt lat="42.5584432428678" lon="13.339681434861552"><ele>1327.0</ele><time>2026-04-18T10:07:22Z</time></trkpt><trkpt lat="42.55847100172581" lon="13.339831925676613"><ele>1327.0</ele><time>2026-04-18T10:07:23Z</time></trkpt><trkpt lat="42.55848925362658" lon="13.339984246535273"><ele>1327.0</ele><time>2026-04-18T10:07:24Z</time></trkpt><trkpt lat="42.55849412163185" lon="13.340141250953087"><ele>1327.5</ele><time>2026-04-18T10:07:25Z</time></trkpt><trkpt lat="42.55846249107093" lon="13.340294083868189"><ele>1328.0</ele><time>2026-04-18T10:07:26Z</time></trkpt><trkpt lat="42.55839854130143" lon="13.340425983975335"><ele>1328.5</ele><time>2026-04-18T10:07:27Z</time></trkpt><trkpt lat="42.55831884935087" lon="13.34054705621224"><ele>1329.0</ele><time>2026-04-18T10:07:28Z</time></trkpt><trkpt lat="42.55823857583557" lon="13.34064338164403"><ele>1330.6</ele><time>2026-04-18T10:07:29Z</time></trkpt><trkpt lat="42.55813544728611" lon="13.340725217623936"><ele>1332.2</ele><time>2026-04-18T10:07:30Z</time></trkpt><trkpt lat="42.55803554647385" lon="13.340805894136782"><ele>1333.8</ele><time>2026-04-18T10:07:31Z</time></trkpt><trkpt lat="42.557949508521624" lon="13.340897572817461"><ele>1335.3999999999999</ele><time>2026-04-18T10:07:32Z</time></trkpt><trkpt lat="42.55787911517482" lon="13.340999056756958"><ele>1337.0</ele><time>2026-04-18T10:07:33Z</time></trkpt><trkpt lat="42.55782459661801" lon="13.341108855607201"><ele>1334.5</ele><time>2026-04-18T10:07:34Z</time></trkpt><trkpt lat="42.557782937672044" lon="13.341223455544524"><ele>1332.0</ele><time>2026-04-18T10:07:34.999Z</time></trkpt><trkpt lat="42.557748463043204" lon="13.34134913868738"><ele>1329.5</ele><time>2026-04-18T10:07:35.999Z</time></trkpt><trkpt lat="42.55771460495335" lon="13.341484447576354"><ele>1327.0</ele><time>2026-04-18T10:07:36.999Z</time></trkpt><trkpt lat="42.55765512197716" lon="13.341773079105609"><ele>1327.0</ele><time>2026-04-18T10:07:38.999Z</time></trkpt><trkpt lat="42.557630035064" lon="13.341924602056416"><ele>1327.0</ele><time>2026-04-18T10:07:39.999Z</time></trkpt><trkpt lat="42.55760688214902" lon="13.342081152358087"><ele>1327.0</ele><time>2026-04-18T10:07:40.999Z</time></trkpt><trkpt lat="42.55759065639224" lon="13.342239742550886"><ele>1327.0</ele><time>2026-04-18T10:07:41.999Z</time></trkpt><trkpt lat="42.55756927199001" lon="13.342396935925741"><ele>1327.5</ele><time>2026-04-18T10:07:42.999Z</time></trkpt><trkpt lat="42.55754787544795" lon="13.342552610038142"><ele>1328.0</ele><time>2026-04-18T10:07:43.999Z</time></trkpt><trkpt lat="42.55752434228738" lon="13.34270555511465"><ele>1328.5</ele><time>2026-04-18T10:07:44.999Z</time></trkpt><trkpt lat="42.55750874234236" lon="13.342863145532403"><ele>1329.0</ele><time>2026-04-18T10:07:45.999Z</time></trkpt><trkpt lat="42.557511454741324" lon="13.3430284507064"><ele>1329.0</ele><time>2026-04-18T10:07:46.999Z</time></trkpt><trkpt lat="42.55753104614434" lon="13.343194247531152"><ele>1329.0</ele><time>2026-04-18T10:07:47.999Z</time></trkpt><trkpt lat="42.55757307454541" lon="13.343349305277346"><ele>1329.0</ele><time>2026-04-18T10:07:48.999Z</time></trkpt><trkpt lat="42.55760003868753" lon="13.34350938478099"><ele>1329.0</ele><time>2026-04-18T10:07:49.999Z</time></trkpt><trkpt lat="42.557636852836005" lon="13.34365172221482"><ele>1329.0</ele><time>2026-04-18T10:07:50.999Z</time></trkpt><trkpt lat="42.557675119237004" lon="13.343779938278578"><ele>1329.0</ele><time>2026-04-18T10:07:51.999Z</time></trkpt><trkpt lat="42.55771165206294" lon="13.34388800634564"><ele>1329.0</ele><time>2026-04-18T10:07:52.999Z</time></trkpt><trkpt lat="42.55775287499923" lon="13.34396685828487"><ele>1329.0</ele><time>2026-04-18T10:07:53.999Z</time></trkpt><trkpt lat="42.55782197173244" lon="13.344053130464868"><ele>1329.0</ele><time>2026-04-18T10:07:55.999Z</time></trkpt><trkpt lat="42.55786097023836" lon="13.344124265535472"><ele>1329.0</ele><time>2026-04-18T10:08:27.998Z</time></trkpt><trkpt lat="42.55793166359968" lon="13.344169803865208"><ele>1328.8000000000002</ele><time>2026-04-18T10:11:48.998Z</time></trkpt><trkpt lat="42.55805464577726" lon="13.344234683205903"><ele>1328.6000000000001</ele><time>2026-04-18T10:11:50.998Z</time></trkpt><trkpt lat="42.558129343761834" lon="13.344273685392888"><ele>1328.4</ele><time>2026-04-18T10:11:51.998Z</time></trkpt><trkpt lat="42.558216366004245" lon="13.34425324015267"><ele>1328.2</ele><time>2026-04-18T10:11:52.998Z</time></trkpt><trkpt lat="42.558306363731944" lon="13.344232713806813"><ele>1328.0</ele><time>2026-04-18T10:11:53.998Z</time></trkpt><trkpt lat="42.5583973855499" lon="13.344195191008467"><ele>1328.0</ele><time>2026-04-18T10:11:54.998Z</time></trkpt><trkpt lat="42.55849495842021" lon="13.34417382389211"><ele>1328.0</ele><time>2026-04-18T10:11:55.998Z</time></trkpt><trkpt lat="42.55858623107214" lon="13.344110840537338"><ele>1328.0</ele><time>2026-04-18T10:11:56.998Z</time></trkpt><trkpt lat="42.55868218546894" lon="13.344057641485639"><ele>1328.0</ele><time>2026-04-18T10:11:57.998Z</time></trkpt><trkpt lat="42.5587817179354" lon="13.344002671224665"><ele>1328.0</ele><time>2026-04-18T10:11:58.998Z</time></trkpt><trkpt lat="42.55888540204679" lon="13.343952695036702"><ele>1327.25</ele><time>2026-04-18T10:11:59.998Z</time></trkpt><trkpt lat="42.55899330783825" lon="13.343902521132476"><ele>1326.5</ele><time>2026-04-18T10:12:00.998Z</time></trkpt><trkpt lat="42.55910516389412" lon="13.34385392715819"><ele>1325.75</ele><time>2026-04-18T10:12:01.998Z</time></trkpt><trkpt lat="42.55921737418084" lon="13.343809556970198"><ele>1325.0</ele><time>2026-04-18T10:12:02.997Z</time></trkpt><trkpt lat="42.55933206828263" lon="13.343772401868998"><ele>1329.25</ele><time>2026-04-18T10:12:03.997Z</time></trkpt><trkpt lat="42.55944886152809" lon="13.343752620824906"><ele>1333.5</ele><time>2026-04-18T10:12:04.997Z</time></trkpt><trkpt lat="42.55956320289126" lon="13.343737376260645"><ele>1337.75</ele><time>2026-04-18T10:12:05.997Z</time></trkpt><trkpt lat="42.55967557246635" lon="13.343737894257588"><ele>1342.0</ele><time>2026-04-18T10:12:06.997Z</time></trkpt><trkpt lat="42.55978806407609" lon="13.343725853760782"><ele>1342.0</ele><time>2026-04-18T10:12:07.997Z</time></trkpt><trkpt lat="42.55989915184678" lon="13.343710292662966"><ele>1342.0</ele><time>2026-04-18T10:12:08.997Z</time></trkpt><trkpt lat="42.560011513743554" lon="13.343694553106593"><ele>1342.0</ele><time>2026-04-18T10:12:09.997Z</time></trkpt><trkpt lat="42.560124723885" lon="13.343680255294945"><ele>1342.0</ele><time>2026-04-18T10:12:10.997Z</time></trkpt><trkpt lat="42.56023978803547" lon="13.34366624353609"><ele>1342.0</ele><time>2026-04-18T10:12:11.997Z</time></trkpt><trkpt lat="42.56035674575079" lon="13.343651505580587"><ele>1342.0</ele><time>2026-04-18T10:12:12.997Z</time></trkpt><trkpt lat="42.56047544034584" lon="13.343636548763328"><ele>1342.0</ele><time>2026-04-18T10:12:13.997Z</time></trkpt><trkpt lat="42.56059648128985" lon="13.343621296276082"><ele>1342.0</ele><time>2026-04-18T10:12:14.997Z</time></trkpt><trkpt lat="42.560716905229" lon="13.34360612154766"><ele>1342.25</ele><time>2026-04-18T10:12:15.997Z</time></trkpt><trkpt lat="42.560837631568106" lon="13.343590908707016"><ele>1342.5</ele><time>2026-04-18T10:12:16.997Z</time></trkpt><trkpt lat="42.56096114558773" lon="13.343575344580682"><ele>1342.75</ele><time>2026-04-18T10:12:17.997Z</time></trkpt><trkpt lat="42.56108246148293" lon="13.343551915822326"><ele>1343.0</ele><time>2026-04-18T10:12:18.997Z</time></trkpt><trkpt lat="42.56120422639858" lon="13.343566893179622"><ele>1343.0</ele><time>2026-04-18T10:12:19.997Z</time></trkpt><trkpt lat="42.56132146699507" lon="13.343597085644006"><ele>1343.0</ele><time>2026-04-18T10:12:20.997Z</time></trkpt><trkpt lat="42.561427174166674" lon="13.343665872484308"><ele>1343.0</ele><time>2026-04-18T10:12:21.997Z</time></trkpt><trkpt lat="42.561535796134386" lon="13.343719594454942"><ele>1343.0</ele><time>2026-04-18T10:12:22.997Z</time></trkpt><trkpt lat="42.56164727968444" lon="13.343772271175899"><ele>1343.0</ele><time>2026-04-18T10:12:23.997Z</time></trkpt><trkpt lat="42.561757705705666" lon="13.343824512105083"><ele>1343.0</ele><time>2026-04-18T10:12:24.997Z</time></trkpt><trkpt lat="42.56186688855095" lon="13.343877922223847"><ele>1343.0</ele><time>2026-04-18T10:12:25.997Z</time></trkpt><trkpt lat="42.56197640924" lon="13.343933701628815"><ele>1343.0</ele><time>2026-04-18T10:12:26.997Z</time></trkpt><trkpt lat="42.5620833477187" lon="13.343992395536535"><ele>1341.2</ele><time>2026-04-18T10:12:27.997Z</time></trkpt><trkpt lat="42.56218016295029" lon="13.344060072492459"><ele>1339.4</ele><time>2026-04-18T10:12:28.997Z</time></trkpt><trkpt lat="42.56226454279872" lon="13.344141095283065"><ele>1337.6000000000001</ele><time>2026-04-18T10:12:29.997Z</time></trkpt><trkpt lat="42.56229123749129" lon="13.344287676890662"><ele>1335.8000000000002</ele><time>2026-04-18T10:12:30.997Z</time></trkpt><trkpt lat="42.562304662895365" lon="13.344436011913487"><ele>1334.0</ele><time>2026-04-18T10:12:31.997Z</time></trkpt><trkpt lat="42.56230232443537" lon="13.344591001839635"><ele>1334.0</ele><time>2026-04-18T10:12:32.997Z</time></trkpt><trkpt lat="42.562296209375944" lon="13.344748803707738"><ele>1334.0</ele><time>2026-04-18T10:12:33.997Z</time></trkpt><trkpt lat="42.5622972450539" lon="13.344908367314657"><ele>1334.0</ele><time>2026-04-18T10:12:34.997Z</time></trkpt><trkpt lat="42.56226142679314" lon="13.345060597944137"><ele>1334.0</ele><time>2026-04-18T10:12:35.997Z</time></trkpt><trkpt lat="42.5621927696333" lon="13.345190066464157"><ele>1334.0</ele><time>2026-04-18T10:12:36.997Z</time></trkpt><trkpt lat="42.562096112065475" lon="13.345289309250662"><ele>1334.0</ele><time>2026-04-18T10:12:37.997Z</time></trkpt><trkpt lat="42.56199680256878" lon="13.345376373353128"><ele>1334.0</ele><time>2026-04-18T10:12:38.997Z</time></trkpt><trkpt lat="42.56189651043786" lon="13.345468750637279"><ele>1334.0</ele><time>2026-04-18T10:12:39.997Z</time></trkpt><trkpt lat="42.56179896583453" lon="13.345569573434627"><ele>1333.0</ele><time>2026-04-18T10:12:40.997Z</time></trkpt><trkpt lat="42.56171630060427" lon="13.345691456915807"><ele>1332.0</ele><time>2026-04-18T10:12:41.997Z</time></trkpt><trkpt lat="42.5616621651578" lon="13.345836347824683"><ele>1331.0</ele><time>2026-04-18T10:12:42.997Z</time></trkpt><trkpt lat="42.56165121559769" lon="13.345997141597282"><ele>1330.0</ele><time>2026-04-18T10:12:43.997Z</time></trkpt><trkpt lat="42.561688340650576" lon="13.346155039511514"><ele>1330.0</ele><time>2026-04-18T10:12:44.997Z</time></trkpt><trkpt lat="42.56173852731169" lon="13.346311207204533"><ele>1330.0</ele><time>2026-04-18T10:12:45.997Z</time></trkpt><trkpt lat="42.561825751143566" lon="13.346438505517085"><ele>1330.0</ele><time>2026-04-18T10:12:46.997Z</time></trkpt><trkpt lat="42.56193779900071" lon="13.346534257728855"><ele>1330.0</ele><time>2026-04-18T10:12:47.997Z</time></trkpt><trkpt lat="42.56205689285155" lon="13.346612858735849"><ele>1332.75</ele><time>2026-04-18T10:12:48.997Z</time></trkpt><trkpt lat="42.562176953038616" lon="13.346688431116743"><ele>1335.5</ele><time>2026-04-18T10:12:49.997Z</time></trkpt><trkpt lat="42.56228507868359" lon="13.346754227057215"><ele>1338.25</ele><time>2026-04-18T10:12:50.997Z</time></trkpt><trkpt lat="42.56238734266964" lon="13.34682018149366"><ele>1341.0</ele><time>2026-04-18T10:12:51.997Z</time></trkpt><trkpt lat="42.562482953617035" lon="13.346896280063543"><ele>1341.0</ele><time>2026-04-18T10:12:52.997Z</time></trkpt><trkpt lat="42.56256474808633" lon="13.346993619881886"><ele>1341.0</ele><time>2026-04-18T10:12:53.997Z</time></trkpt><trkpt lat="42.56262480586791" lon="13.347116825132368"><ele>1341.0</ele><time>2026-04-18T10:12:54.997Z</time></trkpt><trkpt lat="42.56261334945486" lon="13.347276601466046"><ele>1341.0</ele><time>2026-04-18T10:12:55.997Z</time></trkpt><trkpt lat="42.562611109897766" lon="13.347440943703543"><ele>1339.0</ele><time>2026-04-18T10:12:56.997Z</time></trkpt><trkpt lat="42.56256976513577" lon="13.347600748835637"><ele>1337.0</ele><time>2026-04-18T10:12:57.997Z</time></trkpt><trkpt lat="42.562515302275635" lon="13.347759008627582"><ele>1335.0</ele><time>2026-04-18T10:12:58.997Z</time></trkpt><trkpt lat="42.56244339913455" lon="13.347906174938085"><ele>1333.0</ele><time>2026-04-18T10:12:59.998Z</time></trkpt><trkpt lat="42.562348326126056" lon="13.34802228210732"><ele>1334.0</ele><time>2026-04-18T10:13:00.998Z</time></trkpt><trkpt lat="42.56224018121103" lon="13.348121778880708"><ele>1335.0</ele><time>2026-04-18T10:13:01.998Z</time></trkpt><trkpt lat="42.56213528873146" lon="13.348235241281243"><ele>1336.0</ele><time>2026-04-18T10:13:02.998Z</time></trkpt><trkpt lat="42.56203509846427" lon="13.348360676121874"><ele>1337.0</ele><time>2026-04-18T10:13:03.998Z</time></trkpt><trkpt lat="42.56193622537135" lon="13.348488829809156"><ele>1335.5</ele><time>2026-04-18T10:13:04.998Z</time></trkpt><trkpt lat="42.56184123078532" lon="13.348620059235461"><ele>1334.0</ele><time>2026-04-18T10:13:05.998Z</time></trkpt><trkpt lat="42.56175048355171" lon="13.348754564048242"><ele>1332.5</ele><time>2026-04-18T10:13:06.998Z</time></trkpt><trkpt lat="42.5616665516193" lon="13.34888707697945"><ele>1331.0</ele><time>2026-04-18T10:13:07.998Z</time></trkpt><trkpt lat="42.56158605515696" lon="13.349018907407414"><ele>1331.0</ele><time>2026-04-18T10:13:08.998Z</time></trkpt><trkpt lat="42.56150235896429" lon="13.349140274807485"><ele>1331.0</ele><time>2026-04-18T10:13:09.998Z</time></trkpt><trkpt lat="42.561424501168815" lon="13.349264126391054"><ele>1331.0</ele><time>2026-04-18T10:13:10.998Z</time></trkpt><trkpt lat="42.56135899959579" lon="13.349398040573043"><ele>1331.0</ele><time>2026-04-18T10:13:11.998Z</time></trkpt><trkpt lat="42.56130126124351" lon="13.349541053575575"><ele>1331.5</ele><time>2026-04-18T10:13:12.998Z</time></trkpt><trkpt lat="42.56131448815992" lon="13.349725678450044"><ele>1332.0</ele><time>2026-04-18T10:13:13.998Z</time></trkpt><trkpt lat="42.561363962958104" lon="13.349896520402297"><ele>1332.5</ele><time>2026-04-18T10:13:14.999Z</time></trkpt><trkpt lat="42.56143912743686" lon="13.350050185801779"><ele>1333.0</ele><time>2026-04-18T10:13:15.999Z</time></trkpt><trkpt lat="42.56154214011686" lon="13.350157405942257"><ele>1333.0</ele><time>2026-04-18T10:13:16.999Z</time></trkpt><trkpt lat="42.561674646388916" lon="13.350208473638036"><ele>1333.0</ele><time>2026-04-18T10:13:17.999Z</time></trkpt><trkpt lat="42.56181303339947" lon="13.350160675146652"><ele>1333.0</ele><time>2026-04-18T10:13:18.999Z</time></trkpt><trkpt lat="42.56194112796767" lon="13.350081358571714"><ele>1333.0</ele><time>2026-04-18T10:13:19.999Z</time></trkpt><trkpt lat="42.56205373164338" lon="13.34996625176858"><ele>1333.6666666666665</ele><time>2026-04-18T10:13:20.999Z</time></trkpt><trkpt lat="42.56216748983432" lon="13.349841630987731"><ele>1334.3333333333333</ele><time>2026-04-18T10:13:21.999Z</time></trkpt><trkpt lat="42.56228924829904" lon="13.349715000258152"><ele>1335.0</ele><time>2026-04-18T10:13:22.999Z</time></trkpt><trkpt lat="42.56241009495729" lon="13.34959367191209"><ele>1335.0</ele><time>2026-04-18T10:13:23.999Z</time></trkpt><trkpt lat="42.56253481010875" lon="13.34948050654544"><ele>1335.0</ele><time>2026-04-18T10:13:24.999Z</time></trkpt><trkpt lat="42.56266825712496" lon="13.349390307609303"><ele>1335.0</ele><time>2026-04-18T10:13:25.999Z</time></trkpt><trkpt lat="42.5628118623174" lon="13.349378898885547"><ele>1335.0</ele><time>2026-04-18T10:13:26.999Z</time></trkpt><trkpt lat="42.56294527937024" lon="13.349413222815375"><ele>1336.75</ele><time>2026-04-18T10:13:27.999Z</time></trkpt><trkpt lat="42.56308919424584" lon="13.34945184710609"><ele>1338.5</ele><time>2026-04-18T10:13:28.999Z</time></trkpt><trkpt lat="42.563224404565425" lon="13.349523538365931"><ele>1340.25</ele><time>2026-04-18T10:13:29.999Z</time></trkpt><trkpt lat="42.563358735390686" lon="13.349612018679396"><ele>1342.0</ele><time>2026-04-18T10:13:30.999Z</time></trkpt><trkpt lat="42.56349381335306" lon="13.349679303098851"><ele>1340.0</ele><time>2026-04-18T10:13:31.999Z</time></trkpt><trkpt lat="42.56362553247174" lon="13.349748767063998"><ele>1338.0</ele><time>2026-04-18T10:13:32.999Z</time></trkpt><trkpt lat="42.56374677574647" lon="13.34982426175184"><ele>1336.0</ele><time>2026-04-18T10:13:33.999Z</time></trkpt><trkpt lat="42.56386176917863" lon="13.349902254572036"><ele>1334.0</ele><time>2026-04-18T10:13:34.999Z</time></trkpt><trkpt lat="42.56393479487939" lon="13.35005225884811"><ele>1334.0</ele><time>2026-04-18T10:13:35.999Z</time></trkpt><trkpt lat="42.56395229468394" lon="13.350234955100351"><ele>1334.0</ele><time>2026-04-18T10:13:36.999Z</time></trkpt><trkpt lat="42.56396520785966" lon="13.350422024792353"><ele>1334.0</ele><time>2026-04-18T10:13:37.999Z</time></trkpt><trkpt lat="42.56397000096268" lon="13.35061220321263"><ele>1334.0</ele><time>2026-04-18T10:13:38.999Z</time></trkpt><trkpt lat="42.56397765118325" lon="13.35080627788846"><ele>1334.3333333333335</ele><time>2026-04-18T10:13:39.999Z</time></trkpt><trkpt lat="42.56392736617905" lon="13.350994574982598"><ele>1334.6666666666667</ele><time>2026-04-18T10:13:40.999Z</time></trkpt><trkpt lat="42.56383258280025" lon="13.351155383136595"><ele>1335.0</ele><time>2026-04-18T10:13:41.999Z</time></trkpt><trkpt lat="42.56370706426947" lon="13.351277571653581"><ele>1333.6666666666667</ele><time>2026-04-18T10:13:42.999Z</time></trkpt><trkpt lat="42.563574391336566" lon="13.351387909456307"><ele>1332.3333333333335</ele><time>2026-04-18T10:13:43.999Z</time></trkpt><trkpt lat="42.56344834804619" lon="13.35151461860832"><ele>1331.0</ele><time>2026-04-18T10:13:44.999Z</time></trkpt><trkpt lat="42.563339267533046" lon="13.351665695930404"><ele>1331.0</ele><time>2026-04-18T10:13:45.999Z</time></trkpt><trkpt lat="42.56324626480035" lon="13.351836532835083"><ele>1331.0</ele><time>2026-04-18T10:13:46.999Z</time></trkpt><trkpt lat="42.5631610341172" lon="13.352018525179423"><ele>1331.0</ele><time>2026-04-18T10:13:47.999Z</time></trkpt><trkpt lat="42.56307636064242" lon="13.352201810193874"><ele>1329.6666666666667</ele><time>2026-04-18T10:13:48.998Z</time></trkpt><trkpt lat="42.56298979991291" lon="13.352380598924546"><ele>1328.3333333333333</ele><time>2026-04-18T10:13:49.998Z</time></trkpt><trkpt lat="42.562906660555136" lon="13.352557361572627"><ele>1327.0</ele><time>2026-04-18T10:13:50.998Z</time></trkpt><trkpt lat="42.562829090174226" lon="13.352736306168083"><ele>1327.0</ele><time>2026-04-18T10:13:51.998Z</time></trkpt><trkpt lat="42.56275988367912" lon="13.352922735858902"><ele>1327.0</ele><time>2026-04-18T10:13:52.998Z</time></trkpt><trkpt lat="42.56272527779989" lon="13.353122640301484"><ele>1327.0</ele><time>2026-04-18T10:13:53.998Z</time></trkpt><trkpt lat="42.56272968390754" lon="13.353327053157512"><ele>1327.3333333333333</ele><time>2026-04-18T10:13:54.998Z</time></trkpt><trkpt lat="42.56277188646384" lon="13.353523459602119"><ele>1327.6666666666667</ele><time>2026-04-18T10:13:55.998Z</time></trkpt><trkpt lat="42.56285365531032" lon="13.353699421426638"><ele>1328.0</ele><time>2026-04-18T10:13:56.998Z</time></trkpt><trkpt lat="42.562968514431425" lon="13.353837004715958"><ele>1329.0</ele><time>2026-04-18T10:13:57.998Z</time></trkpt><trkpt lat="42.56310028812165" lon="13.353927181064332"><ele>1330.0</ele><time>2026-04-18T10:13:58.998Z</time></trkpt><trkpt lat="42.56322257989123" lon="13.354039254119778"><ele>1331.0</ele><time>2026-04-18T10:13:59.998Z</time></trkpt><trkpt lat="42.56334098950974" lon="13.354143248990626"><ele>1332.0</ele><time>2026-04-18T10:14:00.998Z</time></trkpt><trkpt lat="42.56345071439534" lon="13.354253727887498"><ele>1332.0</ele><time>2026-04-18T10:14:01.998Z</time></trkpt><trkpt lat="42.563540099963696" lon="13.354376177247135"><ele>1332.0</ele><time>2026-04-18T10:14:02.998Z</time></trkpt><trkpt lat="42.563563536257426" lon="13.354546391699534"><ele>1332.0</ele><time>2026-04-18T10:14:03.998Z</time></trkpt><trkpt lat="42.56354275153278" lon="13.354715396292827"><ele>1332.0</ele><time>2026-04-18T10:14:04.998Z</time></trkpt><trkpt lat="42.56348548191004" lon="13.354863894748586"><ele>1332.25</ele><time>2026-04-18T10:14:05.998Z</time></trkpt><trkpt lat="42.56339332052152" lon="13.354979585248866"><ele>1332.5</ele><time>2026-04-18T10:14:06.998Z</time></trkpt><trkpt lat="42.56328020279705" lon="13.355035449570547"><ele>1332.75</ele><time>2026-04-18T10:14:07.998Z</time></trkpt><trkpt lat="42.56313948647052" lon="13.355039482115348"><ele>1333.0</ele><time>2026-04-18T10:14:08.998Z</time></trkpt><trkpt lat="42.56298870835441" lon="13.355029345822034"><ele>1332.25</ele><time>2026-04-18T10:14:09.998Z</time></trkpt><trkpt lat="42.562844680028064" lon="13.355040980011928"><ele>1331.5</ele><time>2026-04-18T10:14:10.998Z</time></trkpt><trkpt lat="42.562696607726906" lon="13.355057519572565"><ele>1330.75</ele><time>2026-04-18T10:14:11.998Z</time></trkpt><trkpt lat="42.562547389493915" lon="13.355073273088445"><ele>1330.0</ele><time>2026-04-18T10:14:12.998Z</time></trkpt><trkpt lat="42.56239788810687" lon="13.355085407356754"><ele>1330.0</ele><time>2026-04-18T10:14:13.998Z</time></trkpt><trkpt lat="42.56224819126708" lon="13.355104547356639"><ele>1330.0</ele><time>2026-04-18T10:14:14.998Z</time></trkpt><trkpt lat="42.5621076686189" lon="13.355149911131429"><ele>1330.0</ele><time>2026-04-18T10:14:15.998Z</time></trkpt><trkpt lat="42.5619822468662" lon="13.355237594916376"><ele>1330.0</ele><time>2026-04-18T10:14:16.998Z</time></trkpt><trkpt lat="42.56188481068962" lon="13.355376626543586"><ele>1330.0</ele><time>2026-04-18T10:14:17.998Z</time></trkpt><trkpt lat="42.56183337104517" lon="13.355547859334862"><ele>1330.0</ele><time>2026-04-18T10:14:18.998Z</time></trkpt><trkpt lat="42.56182421450188" lon="13.3557348737983"><ele>1330.0</ele><time>2026-04-18T10:14:19.998Z</time></trkpt><trkpt lat="42.56184915968982" lon="13.35591985723378"><ele>1330.0</ele><time>2026-04-18T10:14:20.998Z</time></trkpt><trkpt lat="42.56189672562005" lon="13.356093978512433"><ele>1330.0</ele><time>2026-04-18T10:14:21.998Z</time></trkpt><trkpt lat="42.56195789551228" lon="13.3562604402958"><ele>1330.0</ele><time>2026-04-18T10:14:22.998Z</time></trkpt><trkpt lat="42.56200715994385" lon="13.356436230665258"><ele>1330.0</ele><time>2026-04-18T10:14:23.998Z</time></trkpt><trkpt lat="42.56207212360689" lon="13.356596038979728"><ele>1330.0</ele><time>2026-04-18T10:14:24.998Z</time></trkpt><trkpt lat="42.56212090432372" lon="13.356763753184195"><ele>1329.75</ele><time>2026-04-18T10:14:25.998Z</time></trkpt><trkpt lat="42.562105089692814" lon="13.356945181757151"><ele>1329.5</ele><time>2026-04-18T10:14:26.998Z</time></trkpt><trkpt lat="42.562035925418506" lon="13.357099474060531"><ele>1329.25</ele><time>2026-04-18T10:14:27.998Z</time></trkpt><trkpt lat="42.56192707591294" lon="13.357214142109301"><ele>1329.0</ele><time>2026-04-18T10:14:28.998Z</time></trkpt><trkpt lat="42.56179640903459" lon="13.357287910449998"><ele>1329.0</ele><time>2026-04-18T10:14:29.998Z</time></trkpt><trkpt lat="42.561665987726045" lon="13.357355523985566"><ele>1329.0</ele><time>2026-04-18T10:14:30.998Z</time></trkpt><trkpt lat="42.561543750161725" lon="13.357420700625921"><ele>1329.0</ele><time>2026-04-18T10:14:31.998Z</time></trkpt><trkpt lat="42.56143498948657" lon="13.357507851024668"><ele>1329.0</ele><time>2026-04-18T10:14:32.998Z</time></trkpt><trkpt lat="42.56134390534148" lon="13.357619903975529"><ele>1329.0</ele><time>2026-04-18T10:14:33.998Z</time></trkpt><trkpt lat="42.56128914423096" lon="13.357770844125165"><ele>1329.0</ele><time>2026-04-18T10:14:34.998Z</time></trkpt><trkpt lat="42.56125421073966" lon="13.357936491386182"><ele>1329.0</ele><time>2026-04-18T10:14:35.998Z</time></trkpt><trkpt lat="42.561272694299824" lon="13.358111685800923"><ele>1329.0</ele><time>2026-04-18T10:14:36.998Z</time></trkpt><trkpt lat="42.56132183576241" lon="13.358272912031877"><ele>1328.75</ele><time>2026-04-18T10:14:37.998Z</time></trkpt><trkpt lat="42.56141161348826" lon="13.358416801737443"><ele>1328.5</ele><time>2026-04-18T10:14:38.998Z</time></trkpt><trkpt lat="42.56155830934391" lon="13.358464575900278"><ele>1328.25</ele><time>2026-04-18T10:14:39.998Z</time></trkpt><trkpt lat="42.56169011726892" lon="13.358536267496184"><ele>1328.0</ele><time>2026-04-18T10:14:40.998Z</time></trkpt><trkpt lat="42.561830877401185" lon="13.358592790063918"><ele>1328.0</ele><time>2026-04-18T10:14:41.998Z</time></trkpt><trkpt lat="42.56197620294848" lon="13.358651145873095"><ele>1328.0</ele><time>2026-04-18T10:14:42.998Z</time></trkpt><trkpt lat="42.562125610592425" lon="13.358711140872083"><ele>1328.0</ele><time>2026-04-18T10:14:43.998Z</time></trkpt><trkpt lat="42.56227703339392" lon="13.358771321109566"><ele>1329.3333333333335</ele><time>2026-04-18T10:14:44.998Z</time></trkpt><trkpt lat="42.56243149250118" lon="13.358807998165002"><ele>1330.6666666666667</ele><time>2026-04-18T10:14:45.998Z</time></trkpt><trkpt lat="42.56258013970796" lon="13.358872060706485"><ele>1332.0</ele><time>2026-04-18T10:14:46.998Z</time></trkpt><trkpt lat="42.5627275837199" lon="13.358939514951"><ele>1332.3333333333333</ele><time>2026-04-18T10:14:47.998Z</time></trkpt><trkpt lat="42.5628689535584" lon="13.35902123447017"><ele>1332.6666666666665</ele><time>2026-04-18T10:14:48.998Z</time></trkpt><trkpt lat="42.563000683239956" lon="13.359124391519071"><ele>1333.0</ele><time>2026-04-18T10:14:49.998Z</time></trkpt><trkpt lat="42.56310305819122" lon="13.359274641311517"><ele>1333.0</ele><time>2026-04-18T10:14:50.998Z</time></trkpt><trkpt lat="42.5631965402105" lon="13.359426754647055"><ele>1333.0</ele><time>2026-04-18T10:14:51.998Z</time></trkpt><trkpt lat="42.563296803160924" lon="13.359572243979715"><ele>1333.0</ele><time>2026-04-18T10:14:52.998Z</time></trkpt><trkpt lat="42.56336955538828" lon="13.359741378507415"><ele>1333.0</ele><time>2026-04-18T10:14:53.998Z</time></trkpt><trkpt lat="42.56346510585172" lon="13.359892894658543"><ele>1333.25</ele><time>2026-04-18T10:14:54.998Z</time></trkpt><trkpt lat="42.56357536763109" lon="13.360023303436975"><ele>1333.5</ele><time>2026-04-18T10:14:55.998Z</time></trkpt><trkpt lat="42.563664916808605" lon="13.360176809032716"><ele>1333.75</ele><time>2026-04-18T10:14:56.998Z</time></trkpt><trkpt lat="42.56376170392915" lon="13.360316768442472"><ele>1334.0</ele><time>2026-04-18T10:14:57.998Z</time></trkpt><trkpt lat="42.5638532183529" lon="13.360457503240935"><ele>1333.25</ele><time>2026-04-18T10:14:58.998Z</time></trkpt><trkpt lat="42.56394721178588" lon="13.360588032506975"><ele>1332.5</ele><time>2026-04-18T10:14:59.998Z</time></trkpt><trkpt lat="42.563990237932586" lon="13.360756457456858"><ele>1331.75</ele><time>2026-04-18T10:15:00.997Z</time></trkpt><trkpt lat="42.56399345981156" lon="13.360934191270449"><ele>1331.0</ele><time>2026-04-18T10:15:01.997Z</time></trkpt><trkpt lat="42.56397470298086" lon="13.36111138029459"><ele>1331.0</ele><time>2026-04-18T10:15:02.997Z</time></trkpt><trkpt lat="42.563962816679286" lon="13.361296525141285"><ele>1331.0</ele><time>2026-04-18T10:15:03.997Z</time></trkpt><trkpt lat="42.563945951918946" lon="13.361481305377723"><ele>1331.0</ele><time>2026-04-18T10:15:05Z</time></trkpt><trkpt lat="42.563927739466116" lon="13.361667675645135"><ele>1331.0</ele><time>2026-04-18T10:15:06Z</time></trkpt><trkpt lat="42.56390651697202" lon="13.361851460675702"><ele>1331.5</ele><time>2026-04-18T10:15:07Z</time></trkpt><trkpt lat="42.56389061037404" lon="13.36203494524045"><ele>1332.0</ele><time>2026-04-18T10:15:08Z</time></trkpt><trkpt lat="42.56386992985979" lon="13.362216055280491"><ele>1332.5</ele><time>2026-04-18T10:15:09Z</time></trkpt><trkpt lat="42.563851641676536" lon="13.36238483004143"><ele>1333.0</ele><time>2026-04-18T10:15:10Z</time></trkpt><trkpt lat="42.56382824600995" lon="13.362537958188678"><ele>1333.4</ele><time>2026-04-18T10:15:11Z</time></trkpt><trkpt lat="42.5637730224248" lon="13.362663896215725"><ele>1333.8000000000002</ele><time>2026-04-18T10:15:12Z</time></trkpt><trkpt lat="42.56368452862057" lon="13.362749117424162"><ele>1334.2</ele><time>2026-04-18T10:15:13Z</time></trkpt><trkpt lat="42.56358462452606" lon="13.362769685965226"><ele>1334.6</ele><time>2026-04-18T10:15:14Z</time></trkpt><trkpt lat="42.563480144384826" lon="13.362732806360748"><ele>1335.0</ele><time>2026-04-18T10:15:15Z</time></trkpt><trkpt lat="42.56337934262749" lon="13.36265625509185"><ele>1335.0</ele><time>2026-04-18T10:15:16Z</time></trkpt><trkpt lat="42.56327863627752" lon="13.36255180338469"><ele>1335.0</ele><time>2026-04-18T10:15:17Z</time></trkpt><trkpt lat="42.56317556163328" lon="13.362451774877982"><ele>1335.0</ele><time>2026-04-18T10:15:18Z</time></trkpt><trkpt lat="42.56307275379445" lon="13.362379023743195"><ele>1335.0</ele><time>2026-04-18T10:15:19Z</time></trkpt><trkpt lat="42.562967985833964" lon="13.362310390524906"><ele>1333.0</ele><time>2026-04-18T10:15:20Z</time></trkpt><trkpt lat="42.56285159909564" lon="13.362238916683976"><ele>1331.0</ele><time>2026-04-18T10:15:21Z</time></trkpt><trkpt lat="42.56273441750406" lon="13.362178118588602"><ele>1329.0</ele><time>2026-04-18T10:15:22Z</time></trkpt><trkpt lat="42.56261785079983" lon="13.36212582311662"><ele>1327.0</ele><time>2026-04-18T10:15:23Z</time></trkpt><trkpt lat="42.562498639410215" lon="13.362092538284513"><ele>1327.0</ele><time>2026-04-18T10:15:24Z</time></trkpt><trkpt lat="42.56237808697976" lon="13.362077976278949"><ele>1327.0</ele><time>2026-04-18T10:15:25Z</time></trkpt><trkpt lat="42.562254854441676" lon="13.362082695489937"><ele>1327.0</ele><time>2026-04-18T10:15:26Z</time></trkpt><trkpt lat="42.56213345926214" lon="13.362114026895286"><ele>1327.0</ele><time>2026-04-18T10:15:27Z</time></trkpt><trkpt lat="42.562015392777134" lon="13.362167436688171"><ele>1330.75</ele><time>2026-04-18T10:15:28Z</time></trkpt><trkpt lat="42.56189914489907" lon="13.362234975712841"><ele>1334.5</ele><time>2026-04-18T10:15:29Z</time></trkpt><trkpt lat="42.5617839133129" lon="13.36230373112192"><ele>1338.25</ele><time>2026-04-18T10:15:30Z</time></trkpt><trkpt lat="42.561669775100924" lon="13.362374793010012"><ele>1342.0</ele><time>2026-04-18T10:15:31Z</time></trkpt><trkpt lat="42.56156627098864" lon="13.362465623933888"><ele>1342.0</ele><time>2026-04-18T10:15:32Z</time></trkpt><trkpt lat="42.56148143891375" lon="13.36258716375891"><ele>1342.0</ele><time>2026-04-18T10:15:33Z</time></trkpt><trkpt lat="42.56142022219692" lon="13.362738500961969"><ele>1342.0</ele><time>2026-04-18T10:15:34Z</time></trkpt><trkpt lat="42.561385762410765" lon="13.36290595712856"><ele>1342.0</ele><time>2026-04-18T10:15:35Z</time></trkpt><trkpt lat="42.56136980618895" lon="13.363078839063578"><ele>1344.75</ele><time>2026-04-18T10:15:36Z</time></trkpt><trkpt lat="42.56135281700073" lon="13.363251393575004"><ele>1347.5</ele><time>2026-04-18T10:15:37Z</time></trkpt><trkpt lat="42.56132434855059" lon="13.36342048481112"><ele>1350.25</ele><time>2026-04-18T10:15:38Z</time></trkpt><trkpt lat="42.561275755906834" lon="13.36358547559104"><ele>1353.0</ele><time>2026-04-18T10:15:39Z</time></trkpt><trkpt lat="42.56120209408005" lon="13.363734286744332"><ele>1351.0</ele><time>2026-04-18T10:15:40Z</time></trkpt><trkpt lat="42.56111450867215" lon="13.363861541235979"><ele>1349.0</ele><time>2026-04-18T10:15:41Z</time></trkpt><trkpt lat="42.56102276982619" lon="13.363991502439616"><ele>1347.0</ele><time>2026-04-18T10:15:42Z</time></trkpt><trkpt lat="42.56093194318599" lon="13.364125590201477"><ele>1345.0</ele><time>2026-04-18T10:15:43Z</time></trkpt><trkpt lat="42.56084011475867" lon="13.364260910827628"><ele>1345.0</ele><time>2026-04-18T10:15:43.999Z</time></trkpt><trkpt lat="42.56074544375469" lon="13.364393405142078"><ele>1345.0</ele><time>2026-04-18T10:15:44.999Z</time></trkpt><trkpt lat="42.56064096753173" lon="13.364518903317274"><ele>1345.0</ele><time>2026-04-18T10:15:45.999Z</time></trkpt><trkpt lat="42.56053115628504" lon="13.364632196739311"><ele>1345.0</ele><time>2026-04-18T10:15:46.999Z</time></trkpt><trkpt lat="42.56041756249585" lon="13.364741725397325"><ele>1346.25</ele><time>2026-04-18T10:15:47.999Z</time></trkpt><trkpt lat="42.56029955527691" lon="13.364841973798908"><ele>1347.5</ele><time>2026-04-18T10:15:48.999Z</time></trkpt><trkpt lat="42.56017698902146" lon="13.364926688857242"><ele>1348.75</ele><time>2026-04-18T10:15:49.999Z</time></trkpt><trkpt lat="42.56005306663528" lon="13.364997183601753"><ele>1350.0</ele><time>2026-04-18T10:15:50.999Z</time></trkpt><trkpt lat="42.5599311606688" lon="13.36506066270167"><ele>1350.0</ele><time>2026-04-18T10:15:51.999Z</time></trkpt><trkpt lat="42.559813057437" lon="13.365124870208763"><ele>1350.0</ele><time>2026-04-18T10:15:52.999Z</time></trkpt><trkpt lat="42.559696810703535" lon="13.365186568739977"><ele>1350.0</ele><time>2026-04-18T10:15:53.999Z</time></trkpt><trkpt lat="42.559582316595964" lon="13.365224576221543"><ele>1350.0</ele><time>2026-04-18T10:15:54.999Z</time></trkpt><trkpt lat="42.55946329070402" lon="13.365226445734246"><ele>1352.5</ele><time>2026-04-18T10:15:55.999Z</time></trkpt><trkpt lat="42.559346329996146" lon="13.365184163287822"><ele>1355.0</ele><time>2026-04-18T10:15:56.999Z</time></trkpt><trkpt lat="42.559238356052575" lon="13.36509580290451"><ele>1357.5</ele><time>2026-04-18T10:15:57.999Z</time></trkpt><trkpt lat="42.55915193037523" lon="13.364968594931605"><ele>1360.0</ele><time>2026-04-18T10:15:58.999Z</time></trkpt><trkpt lat="42.55909868809311" lon="13.364811908608107"><ele>1357.75</ele><time>2026-04-18T10:15:59.999Z</time></trkpt><trkpt lat="42.55907101207076" lon="13.364635342616381"><ele>1355.5</ele><time>2026-04-18T10:16:00.999Z</time></trkpt><trkpt lat="42.55903036033493" lon="13.364468017065576"><ele>1353.25</ele><time>2026-04-18T10:16:01.999Z</time></trkpt><trkpt lat="42.55895202106612" lon="13.364329673157489"><ele>1351.0</ele><time>2026-04-18T10:16:02.999Z</time></trkpt><trkpt lat="42.558836862583114" lon="13.364242707131558"><ele>1351.0</ele><time>2026-04-18T10:16:03.999Z</time></trkpt><trkpt lat="42.55871101580513" lon="13.364192668705964"><ele>1351.0</ele><time>2026-04-18T10:16:04.999Z</time></trkpt><trkpt lat="42.55858115619655" lon="13.364172337293985"><ele>1351.0</ele><time>2026-04-18T10:16:05.999Z</time></trkpt><trkpt lat="42.55844662451761" lon="13.364167554410697"><ele>1351.0</ele><time>2026-04-18T10:16:06.999Z</time></trkpt><trkpt lat="42.55831485518298" lon="13.364155168465285"><ele>1352.25</ele><time>2026-04-18T10:16:07.999Z</time></trkpt><trkpt lat="42.558188331367596" lon="13.364143966956082"><ele>1353.5</ele><time>2026-04-18T10:16:08.999Z</time></trkpt><trkpt lat="42.558069263920046" lon="13.364144122061804"><ele>1354.75</ele><time>2026-04-18T10:16:09.999Z</time></trkpt><trkpt lat="42.557954396034674" lon="13.364154881956228"><ele>1356.0</ele><time>2026-04-18T10:16:10.999Z</time></trkpt><trkpt lat="42.55785054657837" lon="13.364200697221538"><ele>1356.0</ele><time>2026-04-18T10:16:11.999Z</time></trkpt><trkpt lat="42.557771452338464" lon="13.364293952126982"><ele>1356.0</ele><time>2026-04-18T10:16:12.999Z</time></trkpt><trkpt lat="42.55773984371487" lon="13.364421281306422"><ele>1356.0</ele><time>2026-04-18T10:16:13.999Z</time></trkpt><trkpt lat="42.557750393445886" lon="13.364547244463257"><ele>1356.0</ele><time>2026-04-18T10:16:14.999Z</time></trkpt><trkpt lat="42.55779610311625" lon="13.364676358000107"><ele>1356.0</ele><time>2026-04-18T10:16:15.999Z</time></trkpt><trkpt lat="42.5578660623839" lon="13.364795889443128"><ele>1360.25</ele><time>2026-04-18T10:16:16.999Z</time></trkpt><trkpt lat="42.55793274780813" lon="13.36492103964828"><ele>1364.5</ele><time>2026-04-18T10:16:17.999Z</time></trkpt><trkpt lat="42.55798458170542" lon="13.365061235837349"><ele>1368.75</ele><time>2026-04-18T10:16:18.999Z</time></trkpt><trkpt lat="42.558034206930095" lon="13.36521279254936"><ele>1373.0</ele><time>2026-04-18T10:16:19.999Z</time></trkpt><trkpt lat="42.55805971707434" lon="13.365375152234309"><ele>1371.25</ele><time>2026-04-18T10:16:20.999Z</time></trkpt><trkpt lat="42.558047643318126" lon="13.365532693042274"><ele>1369.5</ele><time>2026-04-18T10:16:21.999Z</time></trkpt><trkpt lat="42.557998695632186" lon="13.365674532861147"><ele>1367.75</ele><time>2026-04-18T10:16:22.999Z</time></trkpt><trkpt lat="42.557922797218446" lon="13.365791275491045"><ele>1366.0</ele><time>2026-04-18T10:16:23.999Z</time></trkpt><trkpt lat="42.55783396418332" lon="13.365893921824325"><ele>1366.0</ele><time>2026-04-18T10:16:24.999Z</time></trkpt><trkpt lat="42.557743141945245" lon="13.365997583333192"><ele>1366.0</ele><time>2026-04-18T10:16:25.999Z</time></trkpt><trkpt lat="42.55765144813892" lon="13.366103501385401"><ele>1366.0</ele><time>2026-04-18T10:16:26.999Z</time></trkpt><trkpt lat="42.55757220295304" lon="13.366228380462434"><ele>1366.0</ele><time>2026-04-18T10:16:27.999Z</time></trkpt><trkpt lat="42.55751583090337" lon="13.366376142220487"><ele>1368.75</ele><time>2026-04-18T10:16:28.999Z</time></trkpt><trkpt lat="42.557483500165965" lon="13.366537704043235"><ele>1371.5</ele><time>2026-04-18T10:16:29.999Z</time></trkpt><trkpt lat="42.55747969130663" lon="13.366704852580943"><ele>1374.25</ele><time>2026-04-18T10:16:30.999Z</time></trkpt><trkpt lat="42.55746265894714" lon="13.36686949856466"><ele>1377.0</ele><time>2026-04-18T10:16:31.999Z</time></trkpt><trkpt lat="42.55747723640465" lon="13.367030087572813"><ele>1377.0</ele><time>2026-04-18T10:16:32.999Z</time></trkpt><trkpt lat="42.55745318007305" lon="13.36719163294548"><ele>1377.0</ele><time>2026-04-18T10:16:33.999Z</time></trkpt><trkpt lat="42.557446225720795" lon="13.36735724813102"><ele>1377.0</ele><time>2026-04-18T10:16:34.999Z</time></trkpt><trkpt lat="42.557441399384665" lon="13.367523227069826"><ele>1377.0</ele><time>2026-04-18T10:16:35.999Z</time></trkpt><trkpt lat="42.557438276221696" lon="13.367685866902654"><ele>1378.5</ele><time>2026-04-18T10:16:36.999Z</time></trkpt><trkpt lat="42.55743525925543" lon="13.367845898317345"><ele>1380.0</ele><time>2026-04-18T10:16:37.999Z</time></trkpt><trkpt lat="42.557445971915385" lon="13.368007115189167"><ele>1381.5</ele><time>2026-04-18T10:16:38.999Z</time></trkpt><trkpt lat="42.55744024609511" lon="13.368166330538447"><ele>1383.0</ele><time>2026-04-18T10:16:39.999Z</time></trkpt><trkpt lat="42.55743842362663" lon="13.368309610946174"><ele>1383.3333333333333</ele><time>2026-04-18T10:16:40.999Z</time></trkpt><trkpt lat="42.55743511600506" lon="13.368441217454366"><ele>1383.6666666666667</ele><time>2026-04-18T10:16:41.999Z</time></trkpt><trkpt lat="42.55742903776747" lon="13.368558081301037"><ele>1384.0</ele><time>2026-04-18T10:16:42.999Z</time></trkpt><trkpt lat="42.557423757822114" lon="13.36864943373414"><ele>1384.3333333333335</ele><time>2026-04-18T10:16:43.999Z</time></trkpt><trkpt lat="42.557413184797156" lon="13.368760920374548"><ele>1384.6666666666667</ele><time>2026-04-18T10:16:45.999Z</time></trkpt><trkpt lat="42.55741617478363" lon="13.368867854519332"><ele>1385.0</ele><time>2026-04-18T10:16:47.999Z</time></trkpt><trkpt lat="42.5574891373028" lon="13.368998329923603"><ele>1385.142857142857</ele><time>2026-04-18T10:16:49.999Z</time></trkpt><trkpt lat="42.55750666651864" lon="13.369082235488193"><ele>1385.2857142857142</ele><time>2026-04-18T10:16:50.999Z</time></trkpt><trkpt lat="42.55752977905767" lon="13.369170945125727"><ele>1385.4285714285716</ele><time>2026-04-18T10:16:51.999Z</time></trkpt><trkpt lat="42.55755358941342" lon="13.369267394905386"><ele>1385.5714285714284</ele><time>2026-04-18T10:16:52.998Z</time></trkpt><trkpt lat="42.557580939783925" lon="13.369365526845264"><ele>1385.7142857142858</ele><time>2026-04-18T10:16:53.998Z</time></trkpt><trkpt lat="42.557610364051875" lon="13.369461433438302"><ele>1385.857142857143</ele><time>2026-04-18T10:16:54.998Z</time></trkpt><trkpt lat="42.55764129471704" lon="13.369551118316638"><ele>1386.0</ele><time>2026-04-18T10:16:55.998Z</time></trkpt><trkpt lat="42.557677681154715" lon="13.369627618443053"><ele>1385.25</ele><time>2026-04-18T10:16:56.998Z</time></trkpt><trkpt lat="42.55777492751346" lon="13.369707246090712"><ele>1384.5</ele><time>2026-04-18T10:16:58.998Z</time></trkpt><trkpt lat="42.55787398067032" lon="13.369674581023647"><ele>1383.75</ele><time>2026-04-18T10:17:00.998Z</time></trkpt><trkpt lat="42.55796679187907" lon="13.369588901538222"><ele>1383.0</ele><time>2026-04-18T10:17:02.998Z</time></trkpt><trkpt lat="42.55807335593865" lon="13.369480978042523"><ele>1383.0</ele><time>2026-04-18T10:17:04.998Z</time></trkpt><trkpt lat="42.55813210384137" lon="13.369415838319622"><ele>1383.0</ele><time>2026-04-18T10:17:05.998Z</time></trkpt><trkpt lat="42.55818227369533" lon="13.369333098342063"><ele>1383.0</ele><time>2026-04-18T10:17:06.998Z</time></trkpt><trkpt lat="42.558244061484125" lon="13.369270513968202"><ele>1383.0</ele><time>2026-04-18T10:17:07.998Z</time></trkpt><trkpt lat="42.558304123438674" lon="13.369197650201942"><ele>1383.0</ele><time>2026-04-18T10:17:08.998Z</time></trkpt><trkpt lat="42.55837854344013" lon="13.369131870836819"><ele>1383.0</ele><time>2026-04-18T10:17:10.001Z</time></trkpt><trkpt lat="42.55844335033599" lon="13.369056772427095"><ele>1383.0</ele><time>2026-04-18T10:17:11.001Z</time></trkpt><trkpt lat="42.558502420357286" lon="13.368988321818618"><ele>1383.0</ele><time>2026-04-18T10:17:12.001Z</time></trkpt><trkpt lat="42.55854431631983" lon="13.368914291415695"><ele>1383.0</ele><time>2026-04-18T10:17:13.001Z</time></trkpt><trkpt lat="42.55859597758993" lon="13.368858892447417"><ele>1383.0</ele><time>2026-04-18T10:17:14.001Z</time></trkpt><trkpt lat="42.55866059217203" lon="13.368834733226388"><ele>1383.0</ele><time>2026-04-18T10:17:15.001Z</time></trkpt><trkpt lat="42.55877616064945" lon="13.368825073954907"><ele>1383.0</ele><time>2026-04-18T10:17:17.001Z</time></trkpt><trkpt lat="42.55883640293066" lon="13.368874423416976"><ele>1384.1666666666667</ele><time>2026-04-18T10:17:18.001Z</time></trkpt><trkpt lat="42.55885466911738" lon="13.36898871690542"><ele>1385.3333333333333</ele><time>2026-04-18T10:17:19.001Z</time></trkpt><trkpt lat="42.558893558514136" lon="13.369064864475876"><ele>1386.5</ele><time>2026-04-18T10:17:20.001Z</time></trkpt><trkpt lat="42.558936453700525" lon="13.369146419731223"><ele>1387.6666666666665</ele><time>2026-04-18T10:17:21.001Z</time></trkpt><trkpt lat="42.558979723801365" lon="13.369231014660986"><ele>1388.8333333333333</ele><time>2026-04-18T10:17:22.001Z</time></trkpt><trkpt lat="42.55902432945312" lon="13.369322801348442"><ele>1390.0</ele><time>2026-04-18T10:17:23.001Z</time></trkpt><trkpt lat="42.55906423130513" lon="13.369418152472772"><ele>1390.0</ele><time>2026-04-18T10:17:24.001Z</time></trkpt><trkpt lat="42.55909543805814" lon="13.369512964619968"><ele>1390.0</ele><time>2026-04-18T10:17:25.001Z</time></trkpt><trkpt lat="42.559117222128236" lon="13.369621813866539"><ele>1390.0</ele><time>2026-04-18T10:17:26.001Z</time></trkpt><trkpt lat="42.559121588187644" lon="13.369739363542916"><ele>1390.0</ele><time>2026-04-18T10:17:27.001Z</time></trkpt><trkpt lat="42.55912404955173" lon="13.36986923576641"><ele>1390.0</ele><time>2026-04-18T10:17:28.001Z</time></trkpt><trkpt lat="42.559122921191666" lon="13.370002331713527"><ele>1390.0</ele><time>2026-04-18T10:17:29.001Z</time></trkpt><trkpt lat="42.55912024582477" lon="13.37014086250711"><ele>1388.2</ele><time>2026-04-18T10:17:30.001Z</time></trkpt><trkpt lat="42.55911956354099" lon="13.370284509765394"><ele>1386.4</ele><time>2026-04-18T10:17:31.001Z</time></trkpt><trkpt lat="42.55912199593959" lon="13.3704225152347"><ele>1384.6</ele><time>2026-04-18T10:17:32.001Z</time></trkpt><trkpt lat="42.55912961747433" lon="13.370561880176128"><ele>1382.8</ele><time>2026-04-18T10:17:33.001Z</time></trkpt><trkpt lat="42.559150758546885" lon="13.370700553595496"><ele>1381.0</ele><time>2026-04-18T10:17:34.001Z</time></trkpt><trkpt lat="42.55919888923503" lon="13.370825948921667"><ele>1380.4</ele><time>2026-04-18T10:17:35.001Z</time></trkpt><trkpt lat="42.55927363464069" lon="13.370927244004049"><ele>1379.8</ele><time>2026-04-18T10:17:36.001Z</time></trkpt><trkpt lat="42.559396262870095" lon="13.370952899641514"><ele>1379.2</ele><time>2026-04-18T10:17:37Z</time></trkpt><trkpt lat="42.55950669628333" lon="13.370973500403094"><ele>1378.6000000000001</ele><time>2026-04-18T10:17:38Z</time></trkpt><trkpt lat="42.55961118436108" lon="13.371009851371706"><ele>1378.0</ele><time>2026-04-18T10:17:39Z</time></trkpt><trkpt lat="42.55971893991169" lon="13.371030605585975"><ele>1378.0</ele><time>2026-04-18T10:17:40Z</time></trkpt><trkpt lat="42.55983452041552" lon="13.371054540496512"><ele>1378.0</ele><time>2026-04-18T10:17:41Z</time></trkpt><trkpt lat="42.55995509090231" lon="13.371079365436506"><ele>1378.0</ele><time>2026-04-18T10:17:42Z</time></trkpt><trkpt lat="42.56008390940136" lon="13.371104470816707"><ele>1378.0</ele><time>2026-04-18T10:17:43Z</time></trkpt><trkpt lat="42.560211669753436" lon="13.37112565296564"><ele>1378.0</ele><time>2026-04-18T10:17:44Z</time></trkpt><trkpt lat="42.56035002374507" lon="13.371124301115826"><ele>1378.0</ele><time>2026-04-18T10:17:45Z</time></trkpt><trkpt lat="42.56048750847582" lon="13.37110819699653"><ele>1378.0</ele><time>2026-04-18T10:17:46Z</time></trkpt><trkpt lat="42.56062598122068" lon="13.37108849514997"><ele>1378.0</ele><time>2026-04-18T10:17:47Z</time></trkpt><trkpt lat="42.56076354556683" lon="13.371064221847083"><ele>1377.0</ele><time>2026-04-18T10:17:48Z</time></trkpt><trkpt lat="42.56090504526792" lon="13.371038231013825"><ele>1376.0</ele><time>2026-04-18T10:17:49Z</time></trkpt><trkpt lat="42.561043023505746" lon="13.371013064309649"><ele>1375.0</ele><time>2026-04-18T10:17:50Z</time></trkpt><trkpt lat="42.561174955525175" lon="13.37098995138973"><ele>1374.0</ele><time>2026-04-18T10:17:51Z</time></trkpt><trkpt lat="42.56130226470239" lon="13.370988272827542"><ele>1373.5</ele><time>2026-04-18T10:17:52Z</time></trkpt><trkpt lat="42.56141923345646" lon="13.371028824888255"><ele>1373.0</ele><time>2026-04-18T10:17:53Z</time></trkpt><trkpt lat="42.56153941718223" lon="13.371084068104112"><ele>1372.5</ele><time>2026-04-18T10:17:54Z</time></trkpt><trkpt lat="42.56165495157614" lon="13.371137900301576"><ele>1372.0</ele><time>2026-04-18T10:17:55Z</time></trkpt><trkpt lat="42.56176484295796" lon="13.371193765832663"><ele>1372.0</ele><time>2026-04-18T10:17:56Z</time></trkpt><trkpt lat="42.5618639186737" lon="13.371250498983851"><ele>1372.0</ele><time>2026-04-18T10:17:57Z</time></trkpt><trkpt lat="42.561951778551354" lon="13.37132327808968"><ele>1372.0</ele><time>2026-04-18T10:17:58Z</time></trkpt><trkpt lat="42.56202611759708" lon="13.371412986225312"><ele>1372.0</ele><time>2026-04-18T10:17:59Z</time></trkpt><trkpt lat="42.56203720067445" lon="13.371550714933782"><ele>1372.0</ele><time>2026-04-18T10:18:00Z</time></trkpt><trkpt lat="42.56197925456252" lon="13.371671938999567"><ele>1368.8</ele><time>2026-04-18T10:18:01Z</time></trkpt><trkpt lat="42.56195846957965" lon="13.371800144065842"><ele>1365.6</ele><time>2026-04-18T10:18:02Z</time></trkpt><trkpt lat="42.56191012247738" lon="13.371917696137846"><ele>1362.3999999999999</ele><time>2026-04-18T10:18:03Z</time></trkpt><trkpt lat="42.56184744743771" lon="13.372032654060572"><ele>1359.1999999999998</ele><time>2026-04-18T10:18:04Z</time></trkpt><trkpt lat="42.561762461333245" lon="13.372125445021537"><ele>1356.0</ele><time>2026-04-18T10:18:05Z</time></trkpt><trkpt lat="42.56165117041079" lon="13.37217363206047"><ele>1356.0</ele><time>2026-04-18T10:18:06Z</time></trkpt><trkpt lat="42.56153182713875" lon="13.37216499921616"><ele>1356.0</ele><time>2026-04-18T10:18:07Z</time></trkpt><trkpt lat="42.56140816896595" lon="13.372113945440024"><ele>1356.0</ele><time>2026-04-18T10:18:08Z</time></trkpt><trkpt lat="42.56128791621275" lon="13.372058168429335"><ele>1356.0</ele><time>2026-04-18T10:18:09Z</time></trkpt><trkpt lat="42.561164177600226" lon="13.372014794343713"><ele>1355.25</ele><time>2026-04-18T10:18:10Z</time></trkpt><trkpt lat="42.561038488956235" lon="13.371972911082121"><ele>1354.5</ele><time>2026-04-18T10:18:11Z</time></trkpt><trkpt lat="42.56092040155471" lon="13.3719348164312"><ele>1353.75</ele><time>2026-04-18T10:18:12Z</time></trkpt><trkpt lat="42.56080514009282" lon="13.37193183487104"><ele>1353.0</ele><time>2026-04-18T10:18:13Z</time></trkpt><trkpt lat="42.56069308779514" lon="13.371973548694735"><ele>1353.0</ele><time>2026-04-18T10:18:14Z</time></trkpt><trkpt lat="42.560581550407875" lon="13.372042573157513"><ele>1353.0</ele><time>2026-04-18T10:18:15Z</time></trkpt><trkpt lat="42.56047168436892" lon="13.372104892886883"><ele>1353.0</ele><time>2026-04-18T10:18:16Z</time></trkpt><trkpt lat="42.56035681591277" lon="13.372154901688448"><ele>1353.0</ele><time>2026-04-18T10:18:17Z</time></trkpt><trkpt lat="42.56023701670868" lon="13.372185231962057"><ele>1351.75</ele><time>2026-04-18T10:18:18Z</time></trkpt><trkpt lat="42.56011546804426" lon="13.372198862692896"><ele>1350.5</ele><time>2026-04-18T10:18:19Z</time></trkpt><trkpt lat="42.559995696312164" lon="13.372207839100538"><ele>1349.25</ele><time>2026-04-18T10:18:20Z</time></trkpt><trkpt lat="42.559874785367676" lon="13.372233750546465"><ele>1348.0</ele><time>2026-04-18T10:18:21Z</time></trkpt><trkpt lat="42.55975526948147" lon="13.372292125987395"><ele>1348.0</ele><time>2026-04-18T10:18:22Z</time></trkpt><trkpt lat="42.559638662963664" lon="13.372374341311401"><ele>1348.0</ele><time>2026-04-18T10:18:23Z</time></trkpt><trkpt lat="42.559522216218085" lon="13.372469397240431"><ele>1348.0</ele><time>2026-04-18T10:18:24Z</time></trkpt><trkpt lat="42.55940543902305" lon="13.372564416929892"><ele>1348.0</ele><time>2026-04-18T10:18:25Z</time></trkpt><trkpt lat="42.55928749026653" lon="13.372656291315907"><ele>1346.5</ele><time>2026-04-18T10:18:25.999Z</time></trkpt><trkpt lat="42.55916121100481" lon="13.372736561599442"><ele>1345.0</ele><time>2026-04-18T10:18:26.999Z</time></trkpt><trkpt lat="42.559030625304786" lon="13.372787345374244"><ele>1343.5</ele><time>2026-04-18T10:18:27.999Z</time></trkpt><trkpt lat="42.5588975649068" lon="13.372812018256994"><ele>1342.0</ele><time>2026-04-18T10:18:28.999Z</time></trkpt><trkpt lat="42.5587622860714" lon="13.372839857454329"><ele>1341.5</ele><time>2026-04-18T10:18:29.999Z</time></trkpt><trkpt lat="42.55862650326811" lon="13.372876373489095"><ele>1341.0</ele><time>2026-04-18T10:18:30.999Z</time></trkpt><trkpt lat="42.5584885610991" lon="13.372913100932578"><ele>1340.5</ele><time>2026-04-18T10:18:31.999Z</time></trkpt><trkpt lat="42.55835087988411" lon="13.37294939932608"><ele>1340.0</ele><time>2026-04-18T10:18:32.999Z</time></trkpt><trkpt lat="42.55821197303863" lon="13.372988260966785"><ele>1340.5</ele><time>2026-04-18T10:18:33.999Z</time></trkpt><trkpt lat="42.5580750140465" lon="13.373031299710512"><ele>1341.0</ele><time>2026-04-18T10:18:34.999Z</time></trkpt><trkpt lat="42.55794753412152" lon="13.373091799019091"><ele>1341.5</ele><time>2026-04-18T10:18:35.999Z</time></trkpt><trkpt lat="42.55783396741786" lon="13.373189554379865"><ele>1342.0</ele><time>2026-04-18T10:18:36.999Z</time></trkpt><trkpt lat="42.55773959788528" lon="13.373317698861621"><ele>1341.0</ele><time>2026-04-18T10:18:37.999Z</time></trkpt><trkpt lat="42.55765047474493" lon="13.373453409041435"><ele>1340.0</ele><time>2026-04-18T10:18:38.999Z</time></trkpt><trkpt lat="42.557562964688934" lon="13.373590124492704"><ele>1339.0</ele><time>2026-04-18T10:18:39.999Z</time></trkpt><trkpt lat="42.557472074946084" lon="13.373725718691373"><ele>1338.0</ele><time>2026-04-18T10:18:40.999Z</time></trkpt><trkpt lat="42.55738240966346" lon="13.373860781362099"><ele>1338.0</ele><time>2026-04-18T10:18:41.999Z</time></trkpt><trkpt lat="42.55730042021633" lon="13.374002789907124"><ele>1338.0</ele><time>2026-04-18T10:18:42.999Z</time></trkpt><trkpt lat="42.55722821254215" lon="13.37415761729227"><ele>1338.0</ele><time>2026-04-18T10:18:43.999Z</time></trkpt><trkpt lat="42.55716413123253" lon="13.374315608183808"><ele>1338.0</ele><time>2026-04-18T10:18:44.999Z</time></trkpt><trkpt lat="42.557106914350115" lon="13.37448310955734"><ele>1338.0</ele><time>2026-04-18T10:18:45.999Z</time></trkpt><trkpt lat="42.557060392863114" lon="13.374652974856703"><ele>1338.0</ele><time>2026-04-18T10:18:46.999Z</time></trkpt><trkpt lat="42.557018345682884" lon="13.374826691722275"><ele>1338.0</ele><time>2026-04-18T10:18:47.999Z</time></trkpt><trkpt lat="42.55696881884535" lon="13.374996580872155"><ele>1338.0</ele><time>2026-04-18T10:18:48.999Z</time></trkpt><trkpt lat="42.556917639788324" lon="13.37516440011936"><ele>1338.5</ele><time>2026-04-18T10:18:49.999Z</time></trkpt><trkpt lat="42.55685744749396" lon="13.375326571542015"><ele>1339.0</ele><time>2026-04-18T10:18:50.999Z</time></trkpt><trkpt lat="42.556777846048774" lon="13.375473848258052"><ele>1339.5</ele><time>2026-04-18T10:18:51.999Z</time></trkpt><trkpt lat="42.55667673445353" lon="13.375593250599959"><ele>1340.0</ele><time>2026-04-18T10:18:52.999Z</time></trkpt><trkpt lat="42.55655864860589" lon="13.375671331924273"><ele>1340.0</ele><time>2026-04-18T10:18:53.999Z</time></trkpt><trkpt lat="42.55643531643989" lon="13.375734420051106"><ele>1340.0</ele><time>2026-04-18T10:18:54.999Z</time></trkpt><trkpt lat="42.55631458032141" lon="13.37580448088411"><ele>1340.0</ele><time>2026-04-18T10:18:55.999Z</time></trkpt><trkpt lat="42.5562030837061" lon="13.375898506311731"><ele>1340.0</ele><time>2026-04-18T10:18:56.999Z</time></trkpt><trkpt lat="42.55610560761096" lon="13.376015372622254"><ele>1339.5</ele><time>2026-04-18T10:18:57.999Z</time></trkpt><trkpt lat="42.55602276748301" lon="13.37615328273061"><ele>1339.0</ele><time>2026-04-18T10:18:58.999Z</time></trkpt><trkpt lat="42.555950989650434" lon="13.376305606365895"><ele>1338.5</ele><time>2026-04-18T10:18:59.999Z</time></trkpt><trkpt lat="42.555882435051515" lon="13.376463008091713"><ele>1338.0</ele><time>2026-04-18T10:19:00.999Z</time></trkpt><trkpt lat="42.55581089849119" lon="13.376625233162713"><ele>1338.0</ele><time>2026-04-18T10:19:01.999Z</time></trkpt><trkpt lat="42.555738990052596" lon="13.376786004206535"><ele>1338.0</ele><time>2026-04-18T10:19:02.999Z</time></trkpt><trkpt lat="42.55566901311408" lon="13.37694541110886"><ele>1338.0</ele><time>2026-04-18T10:19:03.999Z</time></trkpt><trkpt lat="42.555598871284076" lon="13.377105140499324"><ele>1338.0</ele><time>2026-04-18T10:19:04.999Z</time></trkpt><trkpt lat="42.55552848360854" lon="13.377265469175837"><ele>1338.75</ele><time>2026-04-18T10:19:05.999Z</time></trkpt><trkpt lat="42.55545606319958" lon="13.377426225954146"><ele>1339.5</ele><time>2026-04-18T10:19:06.999Z</time></trkpt><trkpt lat="42.55538454074367" lon="13.377585977673949"><ele>1340.25</ele><time>2026-04-18T10:19:07.999Z</time></trkpt><trkpt lat="42.555318479372616" lon="13.377746037062382"><ele>1341.0</ele><time>2026-04-18T10:19:08.999Z</time></trkpt><trkpt lat="42.555265789269455" lon="13.377911034259249"><ele>1340.25</ele><time>2026-04-18T10:19:09.999Z</time></trkpt><trkpt lat="42.555235487852926" lon="13.378082757988505"><ele>1339.5</ele><time>2026-04-18T10:19:10.999Z</time></trkpt><trkpt lat="42.5552302553398" lon="13.378256943821974"><ele>1338.75</ele><time>2026-04-18T10:19:11.999Z</time></trkpt><trkpt lat="42.55525198112854" lon="13.37842567691024"><ele>1338.0</ele><time>2026-04-18T10:19:12.999Z</time></trkpt><trkpt lat="42.555293644950275" lon="13.378583484400306"><ele>1338.0</ele><time>2026-04-18T10:19:13.999Z</time></trkpt><trkpt lat="42.55534402782736" lon="13.378733667479489"><ele>1338.0</ele><time>2026-04-18T10:19:14.999Z</time></trkpt><trkpt lat="42.55537667271424" lon="13.378889983321313"><ele>1338.0</ele><time>2026-04-18T10:19:16.002Z</time></trkpt><trkpt lat="42.55540266876901" lon="13.379038911708012"><ele>1338.0</ele><time>2026-04-18T10:19:17.002Z</time></trkpt><trkpt lat="42.55540918738444" lon="13.379190696947315"><ele>1338.25</ele><time>2026-04-18T10:19:18.002Z</time></trkpt><trkpt lat="42.555399031507896" lon="13.379343561939498"><ele>1338.5</ele><time>2026-04-18T10:19:19.002Z</time></trkpt><trkpt lat="42.55533710459917" lon="13.379481215145583"><ele>1338.75</ele><time>2026-04-18T10:19:20.002Z</time></trkpt><trkpt lat="42.55524796378846" lon="13.379601813725431"><ele>1339.0</ele><time>2026-04-18T10:19:21.002Z</time></trkpt><trkpt lat="42.55513648633853" lon="13.379688273217305"><ele>1341.5</ele><time>2026-04-18T10:19:22.002Z</time></trkpt><trkpt lat="42.55501088090481" lon="13.379745877024439"><ele>1344.0</ele><time>2026-04-18T10:19:23.002Z</time></trkpt><trkpt lat="42.554879662745314" lon="13.379788423398683"><ele>1346.5</ele><time>2026-04-18T10:19:24.002Z</time></trkpt><trkpt lat="42.5547451564074" lon="13.379828927283988"><ele>1349.0</ele><time>2026-04-18T10:19:25.002Z</time></trkpt><trkpt lat="42.554610571872004" lon="13.379872365533267"><ele>1347.5</ele><time>2026-04-18T10:19:26.001Z</time></trkpt><trkpt lat="42.55447179100181" lon="13.379916905491621"><ele>1346.0</ele><time>2026-04-18T10:19:27.001Z</time></trkpt><trkpt lat="42.554331500445336" lon="13.37996073984966"><ele>1344.5</ele><time>2026-04-18T10:19:28.001Z</time></trkpt><trkpt lat="42.55419273416709" lon="13.380004343169789"><ele>1343.0</ele><time>2026-04-18T10:19:29.001Z</time></trkpt><trkpt lat="42.55405794064693" lon="13.380048359782794"><ele>1343.0</ele><time>2026-04-18T10:19:30.001Z</time></trkpt><trkpt lat="42.55392630053633" lon="13.380099503016607"><ele>1343.0</ele><time>2026-04-18T10:19:31.001Z</time></trkpt><trkpt lat="42.5538074667463" lon="13.380179263526335"><ele>1343.0</ele><time>2026-04-18T10:19:32.001Z</time></trkpt><trkpt lat="42.55370872860487" lon="13.380298603205066"><ele>1343.0</ele><time>2026-04-18T10:19:33.001Z</time></trkpt><trkpt lat="42.55363829071675" lon="13.380444581472723"><ele>1341.25</ele><time>2026-04-18T10:19:34.001Z</time></trkpt><trkpt lat="42.553597588936185" lon="13.380609649046365"><ele>1339.5</ele><time>2026-04-18T10:19:35.001Z</time></trkpt><trkpt lat="42.553585622437794" lon="13.380782313776026"><ele>1337.75</ele><time>2026-04-18T10:19:36.001Z</time></trkpt><trkpt lat="42.55360036575358" lon="13.380954458964297"><ele>1336.0</ele><time>2026-04-18T10:19:37.001Z</time></trkpt><trkpt lat="42.55361397810337" lon="13.38112632564669"><ele>1336.0</ele><time>2026-04-18T10:19:38.001Z</time></trkpt><trkpt lat="42.55361332142335" lon="13.381293860350723"><ele>1336.0</ele><time>2026-04-18T10:19:39.001Z</time></trkpt><trkpt lat="42.55359735912384" lon="13.381454418168154"><ele>1336.0</ele><time>2026-04-18T10:19:40.001Z</time></trkpt><trkpt lat="42.55356631113337" lon="13.38160305918586"><ele>1336.0</ele><time>2026-04-18T10:19:41.001Z</time></trkpt><trkpt lat="42.55350863243573" lon="13.38173679929937"><ele>1336.5</ele><time>2026-04-18T10:19:42.001Z</time></trkpt><trkpt lat="42.55342589544913" lon="13.381843250078369"><ele>1337.0</ele><time>2026-04-18T10:19:43.001Z</time></trkpt><trkpt lat="42.55331759062684" lon="13.381896304373157"><ele>1337.5</ele><time>2026-04-18T10:19:44.001Z</time></trkpt><trkpt lat="42.553198074284715" lon="13.3818992515817"><ele>1338.0</ele><time>2026-04-18T10:19:45.001Z</time></trkpt><trkpt lat="42.553074359740805" lon="13.381884625231159"><ele>1338.0</ele><time>2026-04-18T10:19:46.001Z</time></trkpt><trkpt lat="42.55294991853408" lon="13.381863372998126"><ele>1338.0</ele><time>2026-04-18T10:19:47.001Z</time></trkpt><trkpt lat="42.55282101004685" lon="13.38184678884126"><ele>1338.0</ele><time>2026-04-18T10:19:48.001Z</time></trkpt><trkpt lat="42.55269124142731" lon="13.381830321660875"><ele>1338.0</ele><time>2026-04-18T10:19:49.001Z</time></trkpt><trkpt lat="42.55256128266799" lon="13.381815768092578"><ele>1338.25</ele><time>2026-04-18T10:19:50.001Z</time></trkpt><trkpt lat="42.55243162310823" lon="13.381801332768205"><ele>1338.5</ele><time>2026-04-18T10:19:51.001Z</time></trkpt><trkpt lat="42.552304190302586" lon="13.381783407562098"><ele>1338.75</ele><time>2026-04-18T10:19:52.001Z</time></trkpt><trkpt lat="42.55217620134909" lon="13.381762822358624"><ele>1339.0</ele><time>2026-04-18T10:19:53.001Z</time></trkpt><trkpt lat="42.55204966242628" lon="13.381742992593374"><ele>1339.0</ele><time>2026-04-18T10:19:54.001Z</time></trkpt><trkpt lat="42.551922339818965" lon="13.38172337939095"><ele>1339.0</ele><time>2026-04-18T10:19:55.001Z</time></trkpt><trkpt lat="42.55179665094142" lon="13.381707630738397"><ele>1339.0</ele><time>2026-04-18T10:19:56Z</time></trkpt><trkpt lat="42.5516705631762" lon="13.381694370534051"><ele>1339.0</ele><time>2026-04-18T10:19:57Z</time></trkpt><trkpt lat="42.55154382528778" lon="13.38168118654344"><ele>1339.0</ele><time>2026-04-18T10:19:58Z</time></trkpt><trkpt lat="42.55141642160904" lon="13.381670503447063"><ele>1339.0</ele><time>2026-04-18T10:19:59Z</time></trkpt><trkpt lat="42.55129017517787" lon="13.381666168095968"><ele>1339.0</ele><time>2026-04-18T10:20:00Z</time></trkpt><trkpt lat="42.55116358464671" lon="13.381675618152613"><ele>1339.0</ele><time>2026-04-18T10:20:01Z</time></trkpt><trkpt lat="42.5510359538545" lon="13.38169787486658"><ele>1340.25</ele><time>2026-04-18T10:20:02Z</time></trkpt><trkpt lat="42.55091053386422" lon="13.381724292498753"><ele>1341.5</ele><time>2026-04-18T10:20:03Z</time></trkpt><trkpt lat="42.55078538023708" lon="13.381749001574546"><ele>1342.75</ele><time>2026-04-18T10:20:04Z</time></trkpt><trkpt lat="42.550661203892126" lon="13.381773578737006"><ele>1344.0</ele><time>2026-04-18T10:20:05Z</time></trkpt><trkpt lat="42.55053831007706" lon="13.381803572686263"><ele>1344.0</ele><time>2026-04-18T10:20:06Z</time></trkpt><trkpt lat="42.550415071292804" lon="13.381826147733825"><ele>1344.0</ele><time>2026-04-18T10:20:07Z</time></trkpt><trkpt lat="42.550293225989954" lon="13.381842131023625"><ele>1344.0</ele><time>2026-04-18T10:20:08Z</time></trkpt><trkpt lat="42.55017245216532" lon="13.381858746786513"><ele>1344.0</ele><time>2026-04-18T10:20:09Z</time></trkpt><trkpt lat="42.55005122744174" lon="13.381881324321744"><ele>1343.75</ele><time>2026-04-18T10:20:10Z</time></trkpt><trkpt lat="42.549933616704685" lon="13.381909749715325"><ele>1343.5</ele><time>2026-04-18T10:20:11Z</time></trkpt><trkpt lat="42.54981842530756" lon="13.381952365831921"><ele>1343.25</ele><time>2026-04-18T10:20:12Z</time></trkpt><trkpt lat="42.549706796002944" lon="13.382015928813665"><ele>1343.0</ele><time>2026-04-18T10:20:13Z</time></trkpt><trkpt lat="42.54959826107519" lon="13.38210242195327"><ele>1343.0</ele><time>2026-04-18T10:20:14Z</time></trkpt><trkpt lat="42.54949400318032" lon="13.382204045614307"><ele>1343.0</ele><time>2026-04-18T10:20:15Z</time></trkpt><trkpt lat="42.54938878117715" lon="13.38231133277256"><ele>1343.0</ele><time>2026-04-18T10:20:16Z</time></trkpt><trkpt lat="42.54928564843354" lon="13.382417544987831"><ele>1343.0</ele><time>2026-04-18T10:20:17Z</time></trkpt><trkpt lat="42.54918270249114" lon="13.382524476840347"><ele>1343.0</ele><time>2026-04-18T10:20:18Z</time></trkpt><trkpt lat="42.54908002117017" lon="13.382631885856183"><ele>1343.0</ele><time>2026-04-18T10:20:19Z</time></trkpt><trkpt lat="42.54897707128656" lon="13.382728622941386"><ele>1343.0</ele><time>2026-04-18T10:20:20Z</time></trkpt><trkpt lat="42.54887323952896" lon="13.382826867303848"><ele>1343.0</ele><time>2026-04-18T10:20:21Z</time></trkpt><trkpt lat="42.54876984770561" lon="13.382925474219988"><ele>1343.25</ele><time>2026-04-18T10:20:22Z</time></trkpt><trkpt lat="42.54866647595429" lon="13.383025885313936"><ele>1343.5</ele><time>2026-04-18T10:20:23Z</time></trkpt><trkpt lat="42.54856357049127" lon="13.383128755866638"><ele>1343.75</ele><time>2026-04-18T10:20:24Z</time></trkpt><trkpt lat="42.54846107731303" lon="13.38323446525857"><ele>1344.0</ele><time>2026-04-18T10:20:25Z</time></trkpt><trkpt lat="42.548356825398955" lon="13.383341816891635"><ele>1344.0</ele><time>2026-04-18T10:20:26Z</time></trkpt><trkpt lat="42.54825102081519" lon="13.38344982643166"><ele>1344.0</ele><time>2026-04-18T10:20:27Z</time></trkpt><trkpt lat="42.54814511904435" lon="13.383554447917328"><ele>1344.0</ele><time>2026-04-18T10:20:28Z</time></trkpt><trkpt lat="42.548040232245974" lon="13.383659453942347"><ele>1344.0</ele><time>2026-04-18T10:20:29Z</time></trkpt><trkpt lat="42.547935228361354" lon="13.383770451348136"><ele>1342.75</ele><time>2026-04-18T10:20:30Z</time></trkpt><trkpt lat="42.5478379434435" lon="13.383890429306746"><ele>1341.5</ele><time>2026-04-18T10:20:31Z</time></trkpt><trkpt lat="42.54775464153275" lon="13.384030392006473"><ele>1340.25</ele><time>2026-04-18T10:20:32Z</time></trkpt><trkpt lat="42.547690229709545" lon="13.384183951591897"><ele>1339.0</ele><time>2026-04-18T10:20:33Z</time></trkpt><trkpt lat="42.54763680218677" lon="13.384339167630232"><ele>1339.0</ele><time>2026-04-18T10:20:34Z</time></trkpt><trkpt lat="42.54758600631498" lon="13.384499972420164"><ele>1339.0</ele><time>2026-04-18T10:20:35Z</time></trkpt><trkpt lat="42.54753677863347" lon="13.384668872443102"><ele>1339.0</ele><time>2026-04-18T10:20:36Z</time></trkpt><trkpt lat="42.547488748896264" lon="13.384842680116751"><ele>1339.0</ele><time>2026-04-18T10:20:37Z</time></trkpt><trkpt lat="42.54743558458059" lon="13.385018067906145"><ele>1339.25</ele><time>2026-04-18T10:20:38Z</time></trkpt><trkpt lat="42.54738115849783" lon="13.385197369120831"><ele>1339.5</ele><time>2026-04-18T10:20:39Z</time></trkpt><trkpt lat="42.54732578328482" lon="13.385377812914934"><ele>1339.75</ele><time>2026-04-18T10:20:40Z</time></trkpt><trkpt lat="42.5472748298354" lon="13.385558862192651"><ele>1340.0</ele><time>2026-04-18T10:20:41Z</time></trkpt><trkpt lat="42.54722319055316" lon="13.385740020617222"><ele>1340.5</ele><time>2026-04-18T10:20:42Z</time></trkpt><trkpt lat="42.54717162485651" lon="13.385921615227632"><ele>1341.0</ele><time>2026-04-18T10:20:42.999Z</time></trkpt><trkpt lat="42.54711622148839" lon="13.386102006678808"><ele>1341.5</ele><time>2026-04-18T10:20:43.999Z</time></trkpt><trkpt lat="42.54706010795197" lon="13.386281925591108"><ele>1342.0</ele><time>2026-04-18T10:20:44.999Z</time></trkpt><trkpt lat="42.5470091801418" lon="13.386458976653726"><ele>1340.75</ele><time>2026-04-18T10:20:45.999Z</time></trkpt><trkpt lat="42.54695533548199" lon="13.386641533382713"><ele>1339.5</ele><time>2026-04-18T10:20:46.999Z</time></trkpt><trkpt lat="42.546903712145706" lon="13.386820046076016"><ele>1338.25</ele><time>2026-04-18T10:20:47.999Z</time></trkpt><trkpt lat="42.54684970203043" lon="13.387005556498266"><ele>1337.0</ele><time>2026-04-18T10:20:48.999Z</time></trkpt><trkpt lat="42.54679624554509" lon="13.387186624891461"><ele>1337.0</ele><time>2026-04-18T10:20:49.999Z</time></trkpt><trkpt lat="42.54673854922099" lon="13.387367914024738"><ele>1337.0</ele><time>2026-04-18T10:20:50.999Z</time></trkpt><trkpt lat="42.546681010578574" lon="13.387553441948045"><ele>1337.0</ele><time>2026-04-18T10:20:51.999Z</time></trkpt><trkpt lat="42.54662359224858" lon="13.387735504137396"><ele>1337.0</ele><time>2026-04-18T10:20:52.999Z</time></trkpt><trkpt lat="42.54656789064542" lon="13.387919503185138"><ele>1338.25</ele><time>2026-04-18T10:20:53.999Z</time></trkpt><trkpt lat="42.54651296521728" lon="13.388104152147335"><ele>1339.5</ele><time>2026-04-18T10:20:54.999Z</time></trkpt><trkpt lat="42.54645315233075" lon="13.388280108455985"><ele>1340.75</ele><time>2026-04-18T10:20:55.999Z</time></trkpt><trkpt lat="42.54637530204192" lon="13.388448836492087"><ele>1342.0</ele><time>2026-04-18T10:20:56.999Z</time></trkpt><trkpt lat="42.54627833240623" lon="13.38860474225909"><ele>1342.25</ele><time>2026-04-18T10:20:57.999Z</time></trkpt><trkpt lat="42.546178987384195" lon="13.388745731299535"><ele>1342.5</ele><time>2026-04-18T10:20:58.999Z</time></trkpt><trkpt lat="42.54608053190717" lon="13.388890791186597"><ele>1342.75</ele><time>2026-04-18T10:20:59.999Z</time></trkpt><trkpt lat="42.54598135464083" lon="13.389038442909863"><ele>1343.0</ele><time>2026-04-18T10:21:00.999Z</time></trkpt><trkpt lat="42.54588701636577" lon="13.389185508742294"><ele>1343.0</ele><time>2026-04-18T10:21:01.999Z</time></trkpt><trkpt lat="42.5457896016486" lon="13.389337025499149"><ele>1343.0</ele><time>2026-04-18T10:21:02.999Z</time></trkpt><trkpt lat="42.54569119985605" lon="13.389487342614109"><ele>1343.0</ele><time>2026-04-18T10:21:03.999Z</time></trkpt><trkpt lat="42.545597051958595" lon="13.389632650929414"><ele>1343.0</ele><time>2026-04-18T10:21:04.999Z</time></trkpt><trkpt lat="42.545502233542" lon="13.389780303292893"><ele>1341.5</ele><time>2026-04-18T10:21:05.999Z</time></trkpt><trkpt lat="42.54540382386518" lon="13.389928317742191"><ele>1340.0</ele><time>2026-04-18T10:21:06.999Z</time></trkpt><trkpt lat="42.545304283737316" lon="13.390076735057013"><ele>1338.5</ele><time>2026-04-18T10:21:07.999Z</time></trkpt><trkpt lat="42.54520719986632" lon="13.39022707255394"><ele>1337.0</ele><time>2026-04-18T10:21:08.999Z</time></trkpt><trkpt lat="42.54510857164912" lon="13.3903823510076"><ele>1338.0</ele><time>2026-04-18T10:21:09.999Z</time></trkpt><trkpt lat="42.54500835480701" lon="13.390535755318924"><ele>1339.0</ele><time>2026-04-18T10:21:10.999Z</time></trkpt><trkpt lat="42.54491000622241" lon="13.39068303674596"><ele>1340.0</ele><time>2026-04-18T10:21:11.999Z</time></trkpt><trkpt lat="42.54481003203868" lon="13.390828752716594"><ele>1341.0</ele><time>2026-04-18T10:21:12.999Z</time></trkpt><trkpt lat="42.54471217169309" lon="13.390975738109441"><ele>1341.0</ele><time>2026-04-18T10:21:13.999Z</time></trkpt><trkpt lat="42.544616277103316" lon="13.39112829018573"><ele>1341.0</ele><time>2026-04-18T10:21:14.999Z</time></trkpt><trkpt lat="42.54452100049454" lon="13.391278976093046"><ele>1341.0</ele><time>2026-04-18T10:21:15.999Z</time></trkpt><trkpt lat="42.544426762141235" lon="13.391428160965473"><ele>1341.0</ele><time>2026-04-18T10:21:16.999Z</time></trkpt><trkpt lat="42.544332339349964" lon="13.391573828872474"><ele>1340.75</ele><time>2026-04-18T10:21:17.999Z</time></trkpt><trkpt lat="42.54423654554374" lon="13.391717852738282"><ele>1340.5</ele><time>2026-04-18T10:21:18.999Z</time></trkpt><trkpt lat="42.54414364339494" lon="13.391861255181123"><ele>1340.25</ele><time>2026-04-18T10:21:19.999Z</time></trkpt><trkpt lat="42.54404839123179" lon="13.392002455560425"><ele>1340.0</ele><time>2026-04-18T10:21:20.999Z</time></trkpt><trkpt lat="42.543955326551256" lon="13.392142957973602"><ele>1339.25</ele><time>2026-04-18T10:21:22.002Z</time></trkpt><trkpt lat="42.54386454378646" lon="13.392286359065704"><ele>1338.5</ele><time>2026-04-18T10:21:23.002Z</time></trkpt><trkpt lat="42.5437712238254" lon="13.392433033285794"><ele>1337.75</ele><time>2026-04-18T10:21:24.002Z</time></trkpt><trkpt lat="42.54367961032419" lon="13.392577411536816"><ele>1337.0</ele><time>2026-04-18T10:21:25.002Z</time></trkpt><trkpt lat="42.54358803853367" lon="13.39272077831588"><ele>1337.0</ele><time>2026-04-18T10:21:26.002Z</time></trkpt><trkpt lat="42.543493786269586" lon="13.3928634450005"><ele>1337.0</ele><time>2026-04-18T10:21:27.002Z</time></trkpt><trkpt lat="42.54339940462355" lon="13.393003428253476"><ele>1337.0</ele><time>2026-04-18T10:21:28.002Z</time></trkpt><trkpt lat="42.54330137039388" lon="13.393148531027844"><ele>1337.0</ele><time>2026-04-18T10:21:29.002Z</time></trkpt><trkpt lat="42.54320426386701" lon="13.393295494618217"><ele>1336.75</ele><time>2026-04-18T10:21:30.002Z</time></trkpt><trkpt lat="42.54310164637829" lon="13.393436892115952"><ele>1336.5</ele><time>2026-04-18T10:21:31.002Z</time></trkpt><trkpt lat="42.54299235919594" lon="13.393558539069664"><ele>1336.25</ele><time>2026-04-18T10:21:32.002Z</time></trkpt><trkpt lat="42.54287351023587" lon="13.393661524343656"><ele>1336.0</ele><time>2026-04-18T10:21:33.002Z</time></trkpt><trkpt lat="42.542732416875964" lon="13.393735650251742"><ele>1336.0</ele><time>2026-04-18T10:21:34.002Z</time></trkpt><trkpt lat="42.54259531568888" lon="13.393801122089954"><ele>1336.0</ele><time>2026-04-18T10:21:35.002Z</time></trkpt><trkpt lat="42.54245838188903" lon="13.393870873437187"><ele>1336.0</ele><time>2026-04-18T10:21:36.002Z</time></trkpt><trkpt lat="42.54232303444033" lon="13.393941197613758"><ele>1336.0</ele><time>2026-04-18T10:21:37.002Z</time></trkpt><trkpt lat="42.54219065400971" lon="13.394014652257024"><ele>1337.25</ele><time>2026-04-18T10:21:38.002Z</time></trkpt><trkpt lat="42.54205403573526" lon="13.394083822418253"><ele>1338.5</ele><time>2026-04-18T10:21:39.001Z</time></trkpt><trkpt lat="42.54191923017924" lon="13.394149279583656"><ele>1339.75</ele><time>2026-04-18T10:21:40.001Z</time></trkpt><trkpt lat="42.54178079177248" lon="13.394213415649745"><ele>1341.0</ele><time>2026-04-18T10:21:41.001Z</time></trkpt><trkpt lat="42.541644980100365" lon="13.394282440139294"><ele>1341.0</ele><time>2026-04-18T10:21:42.001Z</time></trkpt><trkpt lat="42.541508537744804" lon="13.394355805391879"><ele>1341.0</ele><time>2026-04-18T10:21:43.001Z</time></trkpt><trkpt lat="42.54137581398129" lon="13.394445425465234"><ele>1341.0</ele><time>2026-04-18T10:21:44.001Z</time></trkpt><trkpt lat="42.54126029551826" lon="13.394563328564676"><ele>1341.0</ele><time>2026-04-18T10:21:45.001Z</time></trkpt><trkpt lat="42.54115441387536" lon="13.394709442394856"><ele>1340.25</ele><time>2026-04-18T10:21:46.001Z</time></trkpt><trkpt lat="42.541059469827694" lon="13.394860082042221"><ele>1339.5</ele><time>2026-04-18T10:21:47.001Z</time></trkpt><trkpt lat="42.54096700397669" lon="13.395008616258052"><ele>1338.75</ele><time>2026-04-18T10:21:48.001Z</time></trkpt><trkpt lat="42.54088051849128" lon="13.395161027507429"><ele>1338.0</ele><time>2026-04-18T10:21:49.001Z</time></trkpt><trkpt lat="42.540809390424336" lon="13.395325696500219"><ele>1339.75</ele><time>2026-04-18T10:21:50.001Z</time></trkpt><trkpt lat="42.540764183188585" lon="13.395504786801226"><ele>1341.5</ele><time>2026-04-18T10:21:51.001Z</time></trkpt><trkpt lat="42.54073815624156" lon="13.395684519015267"><ele>1343.25</ele><time>2026-04-18T10:21:52.001Z</time></trkpt><trkpt lat="42.540709741285376" lon="13.395853607989443"><ele>1345.0</ele><time>2026-04-18T10:21:53.001Z</time></trkpt><trkpt lat="42.54065613510751" lon="13.396002596648259"><ele>1345.0</ele><time>2026-04-18T10:21:54.001Z</time></trkpt><trkpt lat="42.540565727545165" lon="13.396111911608008"><ele>1345.0</ele><time>2026-04-18T10:21:55.001Z</time></trkpt><trkpt lat="42.540454275863794" lon="13.396188605832952"><ele>1345.0</ele><time>2026-04-18T10:21:56.001Z</time></trkpt><trkpt lat="42.54032946916366" lon="13.396234370777277"><ele>1345.0</ele><time>2026-04-18T10:21:57.001Z</time></trkpt><trkpt lat="42.540194590111234" lon="13.396253327214723"><ele>1345.0</ele><time>2026-04-18T10:21:58.001Z</time></trkpt><trkpt lat="42.5400573472812" lon="13.396273311265475"><ele>1345.0</ele><time>2026-04-18T10:21:59.001Z</time></trkpt><trkpt lat="42.53991831803043" lon="13.396310423484971"><ele>1345.0</ele><time>2026-04-18T10:22:00.001Z</time></trkpt><trkpt lat="42.539784491037025" lon="13.396366211469841"><ele>1345.0</ele><time>2026-04-18T10:22:01.001Z</time></trkpt><trkpt lat="42.53965691396392" lon="13.396446719503935"><ele>1342.75</ele><time>2026-04-18T10:22:02.001Z</time></trkpt><trkpt lat="42.53954187827865" lon="13.396553449135471"><ele>1340.5</ele><time>2026-04-18T10:22:03.001Z</time></trkpt><trkpt lat="42.53944186462973" lon="13.396680579216763"><ele>1338.25</ele><time>2026-04-18T10:22:04.001Z</time></trkpt><trkpt lat="42.53934876584455" lon="13.396812044253124"><ele>1336.0</ele><time>2026-04-18T10:22:05.001Z</time></trkpt><trkpt lat="42.539250617583534" lon="13.396930773338475"><ele>1336.0</ele><time>2026-04-18T10:22:06Z</time></trkpt><trkpt lat="42.53914074495457" lon="13.397013790703337"><ele>1336.0</ele><time>2026-04-18T10:22:07Z</time></trkpt><trkpt lat="42.53902538810789" lon="13.397073119044993"><ele>1336.0</ele><time>2026-04-18T10:22:08Z</time></trkpt><trkpt lat="42.53891158011094" lon="13.397112234877929"><ele>1336.0</ele><time>2026-04-18T10:22:09Z</time></trkpt><trkpt lat="42.53879722501481" lon="13.397161780167032"><ele>1336.0</ele><time>2026-04-18T10:22:10Z</time></trkpt><trkpt lat="42.538689683658845" lon="13.397235415360106"><ele>1336.0</ele><time>2026-04-18T10:22:11Z</time></trkpt><trkpt lat="42.5385933907701" lon="13.397334636998632"><ele>1336.0</ele><time>2026-04-18T10:22:12Z</time></trkpt><trkpt lat="42.53851248186627" lon="13.397456869879562"><ele>1336.0</ele><time>2026-04-18T10:22:13Z</time></trkpt><trkpt lat="42.538445996182965" lon="13.397599669508306"><ele>1336.0</ele><time>2026-04-18T10:22:14Z</time></trkpt><trkpt lat="42.53838197514452" lon="13.397738509140083"><ele>1336.0</ele><time>2026-04-18T10:22:15Z</time></trkpt><trkpt lat="42.538297543954066" lon="13.397863953215326"><ele>1336.0</ele><time>2026-04-18T10:22:16Z</time></trkpt><trkpt lat="42.538200555843865" lon="13.39796591472152"><ele>1336.0</ele><time>2026-04-18T10:22:17Z</time></trkpt><trkpt lat="42.53808799615352" lon="13.39804520250023"><ele>1336.75</ele><time>2026-04-18T10:22:18Z</time></trkpt><trkpt lat="42.537971426817855" lon="13.398107674202539"><ele>1337.5</ele><time>2026-04-18T10:22:19Z</time></trkpt><trkpt lat="42.537851052183946" lon="13.39814911146317"><ele>1338.25</ele><time>2026-04-18T10:22:20Z</time></trkpt><trkpt lat="42.53773259127036" lon="13.398192048181512"><ele>1339.0</ele><time>2026-04-18T10:22:21Z</time></trkpt><trkpt lat="42.53762193395785" lon="13.398259409261428"><ele>1339.0</ele><time>2026-04-18T10:22:22Z</time></trkpt><trkpt lat="42.53751708300246" lon="13.39834777818839"><ele>1339.0</ele><time>2026-04-18T10:22:23Z</time></trkpt><trkpt lat="42.53741864913457" lon="13.398443779120171"><ele>1339.0</ele><time>2026-04-18T10:22:24Z</time></trkpt><trkpt lat="42.53732460264246" lon="13.398549828450665"><ele>1339.0</ele><time>2026-04-18T10:22:25Z</time></trkpt><trkpt lat="42.53723222891592" lon="13.39865634280282"><ele>1339.0</ele><time>2026-04-18T10:22:26Z</time></trkpt><trkpt lat="42.537142853652625" lon="13.398759632810119"><ele>1339.0</ele><time>2026-04-18T10:22:27Z</time></trkpt><trkpt lat="42.53704877506748" lon="13.398861145260518"><ele>1339.0</ele><time>2026-04-18T10:22:28Z</time></trkpt><trkpt lat="42.536963744377346" lon="13.398969688581275"><ele>1339.0</ele><time>2026-04-18T10:22:29Z</time></trkpt><trkpt lat="42.536902310736956" lon="13.399109571768493"><ele>1339.25</ele><time>2026-04-18T10:22:30Z</time></trkpt><trkpt lat="42.536862917198775" lon="13.399261482648008"><ele>1339.5</ele><time>2026-04-18T10:22:31Z</time></trkpt><trkpt lat="42.53682932689011" lon="13.39941723976282"><ele>1339.75</ele><time>2026-04-18T10:22:32Z</time></trkpt><trkpt lat="42.53680144345354" lon="13.399578874065337"><ele>1340.0</ele><time>2026-04-18T10:22:33Z</time></trkpt><trkpt lat="42.53677915582054" lon="13.399742539174566"><ele>1340.0</ele><time>2026-04-18T10:22:34Z</time></trkpt><trkpt lat="42.53675836071321" lon="13.399908135461562"><ele>1340.0</ele><time>2026-04-18T10:22:35Z</time></trkpt><trkpt lat="42.5367383452173" lon="13.400077024939822"><ele>1340.0</ele><time>2026-04-18T10:22:36Z</time></trkpt><trkpt lat="42.53671928261181" lon="13.400243518111541"><ele>1340.0</ele><time>2026-04-18T10:22:37Z</time></trkpt><trkpt lat="42.53670126349218" lon="13.400412613391863"><ele>1340.5</ele><time>2026-04-18T10:22:38Z</time></trkpt><trkpt lat="42.53668405167036" lon="13.400579717076363"><ele>1341.0</ele><time>2026-04-18T10:22:39Z</time></trkpt><trkpt lat="42.536665488779605" lon="13.400746909445067"><ele>1341.5</ele><time>2026-04-18T10:22:40Z</time></trkpt><trkpt lat="42.53664693963193" lon="13.400915211860625"><ele>1342.0</ele><time>2026-04-18T10:22:41Z</time></trkpt><trkpt lat="42.53662790717163" lon="13.401083092227669"><ele>1342.0</ele><time>2026-04-18T10:22:42Z</time></trkpt><trkpt lat="42.53660882401906" lon="13.40124937178163"><ele>1342.0</ele><time>2026-04-18T10:22:43Z</time></trkpt><trkpt lat="42.53658215446571" lon="13.401416479062531"><ele>1342.0</ele><time>2026-04-18T10:22:44Z</time></trkpt><trkpt lat="42.536541793763" lon="13.401580829285543"><ele>1342.0</ele><time>2026-04-18T10:22:45Z</time></trkpt><trkpt lat="42.536478162158055" lon="13.401726287957866"><ele>1342.5</ele><time>2026-04-18T10:22:46Z</time></trkpt><trkpt lat="42.53640136398029" lon="13.401868012692386"><ele>1343.0</ele><time>2026-04-18T10:22:47Z</time></trkpt><trkpt lat="42.53632256022375" lon="13.402014263206935"><ele>1343.5</ele><time>2026-04-18T10:22:47.999Z</time></trkpt><trkpt lat="42.53624497497292" lon="13.40216701073016"><ele>1344.0</ele><time>2026-04-18T10:22:48.999Z</time></trkpt><trkpt lat="42.536169824008745" lon="13.402319099358925"><ele>1340.75</ele><time>2026-04-18T10:22:49.999Z</time></trkpt><trkpt lat="42.53609578064252" lon="13.402470902600488"><ele>1337.5</ele><time>2026-04-18T10:22:50.999Z</time></trkpt><trkpt lat="42.53602214000301" lon="13.402627188727275"><ele>1334.25</ele><time>2026-04-18T10:22:51.999Z</time></trkpt><trkpt lat="42.53595511248845" lon="13.402789950584232"><ele>1331.0</ele><time>2026-04-18T10:22:52.999Z</time></trkpt><trkpt lat="42.535908612776275" lon="13.402961657057576"><ele>1330.75</ele><time>2026-04-18T10:22:53.999Z</time></trkpt><trkpt lat="42.53587742305145" lon="13.403140278595501"><ele>1330.5</ele><time>2026-04-18T10:22:54.999Z</time></trkpt><trkpt lat="42.535866515040084" lon="13.403318720766407"><ele>1330.25</ele><time>2026-04-18T10:22:55.999Z</time></trkpt><trkpt lat="42.53585188255671" lon="13.403498679508916"><ele>1330.0</ele><time>2026-04-18T10:22:56.999Z</time></trkpt><trkpt lat="42.53587511532722" lon="13.403676800580998"><ele>1329.5</ele><time>2026-04-18T10:22:57.999Z</time></trkpt><trkpt lat="42.535891068190324" lon="13.40385296750902"><ele>1329.0</ele><time>2026-04-18T10:22:58.999Z</time></trkpt><trkpt lat="42.53590881715535" lon="13.404026891342019"><ele>1328.5</ele><time>2026-04-18T10:22:59.999Z</time></trkpt><trkpt lat="42.53592877304837" lon="13.404203316912223"><ele>1328.0</ele><time>2026-04-18T10:23:00.999Z</time></trkpt><trkpt lat="42.535951012365985" lon="13.404378440128836"><ele>1328.0</ele><time>2026-04-18T10:23:01.999Z</time></trkpt><trkpt lat="42.53595432428973" lon="13.404555050324452"><ele>1328.0</ele><time>2026-04-18T10:23:02.999Z</time></trkpt><trkpt lat="42.535972540899664" lon="13.404731383435204"><ele>1328.0</ele><time>2026-04-18T10:23:03.999Z</time></trkpt><trkpt lat="42.5359945771447" lon="13.404912914695855"><ele>1328.0</ele><time>2026-04-18T10:23:04.999Z</time></trkpt><trkpt lat="42.536008040100384" lon="13.405088985891526"><ele>1328.5</ele><time>2026-04-18T10:23:05.999Z</time></trkpt><trkpt lat="42.53600617937717" lon="13.405263764598036"><ele>1329.0</ele><time>2026-04-18T10:23:06.999Z</time></trkpt><trkpt lat="42.5359866252334" lon="13.405437046528926"><ele>1329.5</ele><time>2026-04-18T10:23:07.999Z</time></trkpt><trkpt lat="42.53594959559866" lon="13.405608559387717"><ele>1330.0</ele><time>2026-04-18T10:23:08.999Z</time></trkpt><trkpt lat="42.53590385896857" lon="13.405785033017683"><ele>1330.0</ele><time>2026-04-18T10:23:09.999Z</time></trkpt><trkpt lat="42.53585712637687" lon="13.405966168681438"><ele>1330.0</ele><time>2026-04-18T10:23:10.999Z</time></trkpt><trkpt lat="42.53582946314369" lon="13.40615617539132"><ele>1330.0</ele><time>2026-04-18T10:23:11.999Z</time></trkpt><trkpt lat="42.53579980943091" lon="13.406341168315576"><ele>1330.0</ele><time>2026-04-18T10:23:12.999Z</time></trkpt><trkpt lat="42.535777434179145" lon="13.406526183242395"><ele>1331.5</ele><time>2026-04-18T10:23:13.999Z</time></trkpt><trkpt lat="42.53575485521609" lon="13.406708664191484"><ele>1333.0</ele><time>2026-04-18T10:23:14.999Z</time></trkpt><trkpt lat="42.53573406133771" lon="13.406885742632268"><ele>1334.5</ele><time>2026-04-18T10:23:15.999Z</time></trkpt><trkpt lat="42.53571131039237" lon="13.407062871924726"><ele>1336.0</ele><time>2026-04-18T10:23:16.999Z</time></trkpt><trkpt lat="42.535690328083966" lon="13.407239954201271"><ele>1338.25</ele><time>2026-04-18T10:23:17.999Z</time></trkpt><trkpt lat="42.53567163410804" lon="13.407416864938284"><ele>1340.5</ele><time>2026-04-18T10:23:18.999Z</time></trkpt><trkpt lat="42.53565133672933" lon="13.407592691546684"><ele>1342.75</ele><time>2026-04-18T10:23:19.999Z</time></trkpt><trkpt lat="42.5356326721222" lon="13.407769255139716"><ele>1345.0</ele><time>2026-04-18T10:23:20.999Z</time></trkpt><trkpt lat="42.53561486936062" lon="13.407944855811506"><ele>1344.5</ele><time>2026-04-18T10:23:21.999Z</time></trkpt><trkpt lat="42.53560910020355" lon="13.408117397931184"><ele>1344.0</ele><time>2026-04-18T10:23:22.999Z</time></trkpt><trkpt lat="42.53561223580888" lon="13.408289796951093"><ele>1343.5</ele><time>2026-04-18T10:23:23.999Z</time></trkpt><trkpt lat="42.53562299818808" lon="13.408456438387082"><ele>1343.0</ele><time>2026-04-18T10:23:24.999Z</time></trkpt><trkpt lat="42.535615380949835" lon="13.408619698533691"><ele>1343.0</ele><time>2026-04-18T10:23:25.999Z</time></trkpt><trkpt lat="42.53562156486036" lon="13.408778269775041"><ele>1343.0</ele><time>2026-04-18T10:23:26.999Z</time></trkpt><trkpt lat="42.535645329125956" lon="13.40893556233168"><ele>1343.0</ele><time>2026-04-18T10:23:28.002Z</time></trkpt><trkpt lat="42.53565245994443" lon="13.409082458023038"><ele>1343.0</ele><time>2026-04-18T10:23:29.002Z</time></trkpt><trkpt lat="42.53565342834745" lon="13.409220366120508"><ele>1343.0</ele><time>2026-04-18T10:23:30.002Z</time></trkpt><trkpt lat="42.5356425500497" lon="13.409346765788824"><ele>1340.1666666666667</ele><time>2026-04-18T10:23:31.002Z</time></trkpt><trkpt lat="42.53562504584075" lon="13.409454192609772"><ele>1337.3333333333335</ele><time>2026-04-18T10:23:32.002Z</time></trkpt><trkpt lat="42.53559252674631" lon="13.409551782145236"><ele>1334.5</ele><time>2026-04-18T10:23:33.002Z</time></trkpt><trkpt lat="42.53555976690051" lon="13.409651308187247"><ele>1331.6666666666667</ele><time>2026-04-18T10:23:34.002Z</time></trkpt><trkpt lat="42.535540027821575" lon="13.409766719286665"><ele>1328.8333333333333</ele><time>2026-04-18T10:23:35.002Z</time></trkpt><trkpt lat="42.53550363590767" lon="13.409873176300708"><ele>1326.0</ele><time>2026-04-18T10:23:36.002Z</time></trkpt><trkpt lat="42.535471627078984" lon="13.409980361231122"><ele>1324.8333333333333</ele><time>2026-04-18T10:23:37.002Z</time></trkpt><trkpt lat="42.53543021325934" lon="13.410080195063646"><ele>1323.6666666666667</ele><time>2026-04-18T10:23:38.002Z</time></trkpt><trkpt lat="42.53537281692692" lon="13.410164935000575"><ele>1322.5</ele><time>2026-04-18T10:23:39.002Z</time></trkpt><trkpt lat="42.5353059645891" lon="13.410230504303408"><ele>1321.3333333333335</ele><time>2026-04-18T10:23:40.002Z</time></trkpt><trkpt lat="42.53524169853988" lon="13.410282863099326"><ele>1320.1666666666667</ele><time>2026-04-18T10:23:41.002Z</time></trkpt><trkpt lat="42.535180868909094" lon="13.410347017472475"><ele>1319.0</ele><time>2026-04-18T10:23:42.002Z</time></trkpt><trkpt lat="42.53510215563809" lon="13.410374962283624"><ele>1319.0</ele><time>2026-04-18T10:23:43.002Z</time></trkpt><trkpt lat="42.535018262484236" lon="13.41039994606926"><ele>1319.0</ele><time>2026-04-18T10:23:44.002Z</time></trkpt><trkpt lat="42.53493160721708" lon="13.410366582986066"><ele>1319.0</ele><time>2026-04-18T10:23:45.001Z</time></trkpt><trkpt lat="42.534846093897244" lon="13.41031766229188"><ele>1319.0</ele><time>2026-04-18T10:23:46.001Z</time></trkpt><trkpt lat="42.53475873313252" lon="13.410262354588541"><ele>1319.0</ele><time>2026-04-18T10:23:47.001Z</time></trkpt><trkpt lat="42.53467118344492" lon="13.410199620440538"><ele>1319.0</ele><time>2026-04-18T10:23:48.001Z</time></trkpt><trkpt lat="42.53457981920783" lon="13.41013534750239"><ele>1319.0</ele><time>2026-04-18T10:23:49.001Z</time></trkpt><trkpt lat="42.53448256594637" lon="13.410079326847237"><ele>1319.0</ele><time>2026-04-18T10:23:50.001Z</time></trkpt><trkpt lat="42.53438084555683" lon="13.410028699494443"><ele>1319.0</ele><time>2026-04-18T10:23:51.001Z</time></trkpt><trkpt lat="42.53427441065987" lon="13.40999187833793"><ele>1319.0</ele><time>2026-04-18T10:23:52.001Z</time></trkpt><trkpt lat="42.534163422921765" lon="13.40996548010845"><ele>1322.75</ele><time>2026-04-18T10:23:53.001Z</time></trkpt><trkpt lat="42.53405150483276" lon="13.409934523632245"><ele>1326.5</ele><time>2026-04-18T10:23:54.001Z</time></trkpt><trkpt lat="42.533938602834965" lon="13.409897424096032"><ele>1330.25</ele><time>2026-04-18T10:23:55.001Z</time></trkpt><trkpt lat="42.53382389626586" lon="13.409863727205313"><ele>1334.0</ele><time>2026-04-18T10:23:56.001Z</time></trkpt><trkpt lat="42.53370995716143" lon="13.40982904861037"><ele>1331.0</ele><time>2026-04-18T10:23:57.001Z</time></trkpt><trkpt lat="42.533597240095304" lon="13.409780421113805"><ele>1328.0</ele><time>2026-04-18T10:23:58.001Z</time></trkpt><trkpt lat="42.53349137793588" lon="13.409715185144112"><ele>1325.0</ele><time>2026-04-18T10:23:59.001Z</time></trkpt><trkpt lat="42.53338946917466" lon="13.409639422089269"><ele>1322.0</ele><time>2026-04-18T10:24:00.001Z</time></trkpt><trkpt lat="42.53328837712053" lon="13.409561997507629"><ele>1322.0</ele><time>2026-04-18T10:24:01.001Z</time></trkpt><trkpt lat="42.53318306015968" lon="13.409495242158297"><ele>1322.0</ele><time>2026-04-18T10:24:02.001Z</time></trkpt><trkpt lat="42.53307874553959" lon="13.409429702359017"><ele>1322.0</ele><time>2026-04-18T10:24:03.001Z</time></trkpt><trkpt lat="42.53296789578956" lon="13.409398242391147"><ele>1322.0</ele><time>2026-04-18T10:24:04.001Z</time></trkpt><trkpt lat="42.53285268274131" lon="13.409408316702836"><ele>1322.0</ele><time>2026-04-18T10:24:05.001Z</time></trkpt><trkpt lat="42.53273818348419" lon="13.40943390737778"><ele>1322.0</ele><time>2026-04-18T10:24:06.001Z</time></trkpt><trkpt lat="42.532623709671014" lon="13.409460561845117"><ele>1322.0</ele><time>2026-04-18T10:24:07.001Z</time></trkpt><trkpt lat="42.53250835406272" lon="13.409479822416527"><ele>1322.0</ele><time>2026-04-18T10:24:08.001Z</time></trkpt><trkpt lat="42.532394844253474" lon="13.409503551642436"><ele>1322.0</ele><time>2026-04-18T10:24:09.001Z</time></trkpt><trkpt lat="42.53228637349843" lon="13.40955281788893"><ele>1322.0</ele><time>2026-04-18T10:24:10.001Z</time></trkpt><trkpt lat="42.53219322191786" lon="13.409638577084039"><ele>1322.0</ele><time>2026-04-18T10:24:11.001Z</time></trkpt><trkpt lat="42.53210824736813" lon="13.409737111002887"><ele>1322.0</ele><time>2026-04-18T10:24:12Z</time></trkpt><trkpt lat="42.53202555865339" lon="13.40983646921381"><ele>1322.0</ele><time>2026-04-18T10:24:13Z</time></trkpt><trkpt lat="42.531930041407946" lon="13.40991460459936"><ele>1323.8</ele><time>2026-04-18T10:24:14Z</time></trkpt><trkpt lat="42.53185295169839" lon="13.410025088977727"><ele>1325.6</ele><time>2026-04-18T10:24:15Z</time></trkpt><trkpt lat="42.53176704193569" lon="13.410118463903064"><ele>1327.3999999999999</ele><time>2026-04-18T10:24:16Z</time></trkpt><trkpt lat="42.53167448603323" lon="13.410191525815195"><ele>1329.1999999999998</ele><time>2026-04-18T10:24:17Z</time></trkpt><trkpt lat="42.5315777265377" lon="13.41025353208196"><ele>1331.0</ele><time>2026-04-18T10:24:18Z</time></trkpt><trkpt lat="42.531481315228866" lon="13.41031511391567"><ele>1331.0</ele><time>2026-04-18T10:24:19Z</time></trkpt><trkpt lat="42.53138600570219" lon="13.410383495146178"><ele>1331.0</ele><time>2026-04-18T10:24:20Z</time></trkpt><trkpt lat="42.531289082553414" lon="13.410449118033194"><ele>1331.0</ele><time>2026-04-18T10:24:21Z</time></trkpt><trkpt lat="42.53118765257815" lon="13.410500271720908"><ele>1331.0</ele><time>2026-04-18T10:24:22Z</time></trkpt><trkpt lat="42.531083775797576" lon="13.410532976065756"><ele>1331.0</ele><time>2026-04-18T10:24:23Z</time></trkpt><trkpt lat="42.530978087114114" lon="13.41053554571512"><ele>1329.4</ele><time>2026-04-18T10:24:24Z</time></trkpt><trkpt lat="42.530874561437784" lon="13.410505679205874"><ele>1327.8</ele><time>2026-04-18T10:24:25Z</time></trkpt><trkpt lat="42.53077611773974" lon="13.4104476662838"><ele>1326.2</ele><time>2026-04-18T10:24:26Z</time></trkpt><trkpt lat="42.53067941344536" lon="13.410371425953471"><ele>1324.6000000000001</ele><time>2026-04-18T10:24:27Z</time></trkpt><trkpt lat="42.53058537300098" lon="13.410285181536745"><ele>1323.0</ele><time>2026-04-18T10:24:28Z</time></trkpt><trkpt lat="42.5304911950306" lon="13.410199639619881"><ele>1323.0</ele><time>2026-04-18T10:24:29Z</time></trkpt><trkpt lat="42.53039970221194" lon="13.410116115192091"><ele>1323.0</ele><time>2026-04-18T10:24:30Z</time></trkpt><trkpt lat="42.53031403339093" lon="13.410036978208808"><ele>1323.0</ele><time>2026-04-18T10:24:31Z</time></trkpt><trkpt lat="42.5302321110951" lon="13.409962281250065"><ele>1323.0</ele><time>2026-04-18T10:24:32Z</time></trkpt><trkpt lat="42.53015841003577" lon="13.40989374098053"><ele>1323.0</ele><time>2026-04-18T10:24:33Z</time></trkpt><trkpt lat="42.53009109713564" lon="13.409832449435482"><ele>1322.2</ele><time>2026-04-18T10:24:34Z</time></trkpt><trkpt lat="42.53003358837599" lon="13.409789236684917"><ele>1321.4</ele><time>2026-04-18T10:24:35Z</time></trkpt><trkpt lat="42.5299408454497" lon="13.40969486207224"><ele>1320.6000000000001</ele><time>2026-04-18T10:24:37Z</time></trkpt><trkpt lat="42.52985064719523" lon="13.40961998346128"><ele>1319.8000000000002</ele><time>2026-04-18T10:24:38.999Z</time></trkpt><trkpt lat="42.52976126231248" lon="13.40954546846423"><ele>1319.0</ele><time>2026-04-18T10:24:40.999Z</time></trkpt><trkpt lat="42.529627442424555" lon="13.409611026107314"><ele>1319.0</ele><time>2026-04-18T10:24:42.999Z</time></trkpt><trkpt lat="42.529559508300096" lon="13.409591111486185"><ele>1319.0</ele><time>2026-04-18T10:24:44.999Z</time></trkpt><trkpt lat="42.52947667253357" lon="13.409539839956015"><ele>1319.0</ele><time>2026-04-18T10:24:47.999Z</time></trkpt><trkpt lat="42.529513769248744" lon="13.409296692704576"><ele>1319.0</ele><time>2026-04-18T10:24:50.998Z</time></trkpt><trkpt lat="42.529364292638064" lon="13.409414197769848"><ele>1319.0</ele><time>2026-04-18T10:24:52.998Z</time></trkpt><trkpt lat="42.52930079501207" lon="13.409334065030874"><ele>1319.0</ele><time>2026-04-18T10:24:55.998Z</time></trkpt><trkpt lat="42.52932008921226" lon="13.40923739211083"><ele>1319.0</ele><time>2026-04-18T10:24:59.998Z</time></trkpt><trkpt lat="42.52941404704819" lon="13.409185720613662"><ele>1319.0</ele><time>2026-04-18T10:25:15.998Z</time></trkpt><trkpt lat="42.529468241272475" lon="13.409232874899383"><ele>1319.0</ele><time>2026-04-18T10:28:30.999Z</time></trkpt><trkpt lat="42.52951705171365" lon="13.409297571405146"><ele>1319.0</ele><time>2026-04-18T10:28:33.999Z</time></trkpt><trkpt lat="42.52957855644969" lon="13.409368786706326"><ele>1319.0</ele><time>2026-04-18T10:28:36.999Z</time></trkpt><trkpt lat="42.529568666189085" lon="13.40960988356835"><ele>1319.0</ele><time>2026-04-18T10:28:39.998Z</time></trkpt><trkpt lat="42.529640378859874" lon="13.409645511772633"><ele>1319.0</ele><time>2026-04-18T10:28:41.998Z</time></trkpt><trkpt lat="42.52977721447756" lon="13.409559782645454"><ele>1319.0</ele><time>2026-04-18T10:28:43.998Z</time></trkpt><trkpt lat="42.529857402482364" lon="13.409626599531814"><ele>1319.0</ele><time>2026-04-18T10:28:46.998Z</time></trkpt><trkpt lat="42.529809643820684" lon="13.409549816194183"><ele>1319.0</ele><time>2026-04-18T10:28:50.998Z</time></trkpt><trkpt lat="42.52973254442715" lon="13.409502979764149"><ele>1319.0</ele><time>2026-04-18T10:28:51.998Z</time></trkpt><trkpt lat="42.52967083158069" lon="13.409453406792887"><ele>1319.0</ele><time>2026-04-18T10:28:52.998Z</time></trkpt><trkpt lat="42.529608759595035" lon="13.409385009736996"><ele>1319.0</ele><time>2026-04-18T10:28:53.998Z</time></trkpt><trkpt lat="42.529542315985964" lon="13.409311855249555"><ele>1319.0</ele><time>2026-04-18T10:28:54.998Z</time></trkpt><trkpt lat="42.52947794383945" lon="13.409232508240567"><ele>1319.8000000000002</ele><time>2026-04-18T10:28:55.998Z</time></trkpt><trkpt lat="42.52942194572196" lon="13.409141825227202"><ele>1320.6000000000001</ele><time>2026-04-18T10:28:56.998Z</time></trkpt><trkpt lat="42.52936313577942" lon="13.409043929062893"><ele>1321.4</ele><time>2026-04-18T10:28:57.998Z</time></trkpt><trkpt lat="42.52929978741639" lon="13.408943047560768"><ele>1322.2</ele><time>2026-04-18T10:28:58.998Z</time></trkpt><trkpt lat="42.529237263099155" lon="13.408841928016185"><ele>1323.0</ele><time>2026-04-18T10:28:59.998Z</time></trkpt><trkpt lat="42.529184609239444" lon="13.408728567047126"><ele>1323.0</ele><time>2026-04-18T10:29:00.998Z</time></trkpt><trkpt lat="42.52911648785938" lon="13.408626600179938"><ele>1323.0</ele><time>2026-04-18T10:29:01.998Z</time></trkpt><trkpt lat="42.52904338013859" lon="13.408522045023858"><ele>1323.0</ele><time>2026-04-18T10:29:02.998Z</time></trkpt><trkpt lat="42.52897418859339" lon="13.408407888520271"><ele>1323.0</ele><time>2026-04-18T10:29:03.998Z</time></trkpt><trkpt lat="42.528907268517194" lon="13.4082879583468"><ele>1323.0</ele><time>2026-04-18T10:29:04.998Z</time></trkpt><trkpt lat="42.52883856069021" lon="13.40816612925123"><ele>1323.0</ele><time>2026-04-18T10:29:05.998Z</time></trkpt><trkpt lat="42.52876679084006" lon="13.408043752836209"><ele>1323.0</ele><time>2026-04-18T10:29:06.998Z</time></trkpt><trkpt lat="42.52869320597657" lon="13.407919831321012"><ele>1323.0</ele><time>2026-04-18T10:29:07.998Z</time></trkpt><trkpt lat="42.52861960087621" lon="13.40779196906656"><ele>1323.0</ele><time>2026-04-18T10:29:08.998Z</time></trkpt><trkpt lat="42.528546057975156" lon="13.40766307239826"><ele>1324.25</ele><time>2026-04-18T10:29:09.998Z</time></trkpt><trkpt lat="42.5284671416985" lon="13.407535673537382"><ele>1325.5</ele><time>2026-04-18T10:29:10.998Z</time></trkpt><trkpt lat="42.528387712436114" lon="13.407408659215102"><ele>1326.75</ele><time>2026-04-18T10:29:11.998Z</time></trkpt><trkpt lat="42.52831273839523" lon="13.407280002711502"><ele>1328.0</ele><time>2026-04-18T10:29:12.998Z</time></trkpt><trkpt lat="42.52823674998246" lon="13.407149822378909"><ele>1325.5</ele><time>2026-04-18T10:29:13.998Z</time></trkpt><trkpt lat="42.52815974729629" lon="13.407024039912907"><ele>1323.0</ele><time>2026-04-18T10:29:14.998Z</time></trkpt><trkpt lat="42.52808105087522" lon="13.406899654736764"><ele>1320.5</ele><time>2026-04-18T10:29:15.998Z</time></trkpt><trkpt lat="42.52800058252343" lon="13.406776049098097"><ele>1318.0</ele><time>2026-04-18T10:29:16.997Z</time></trkpt><trkpt lat="42.527917818944466" lon="13.406653494118473"><ele>1318.5</ele><time>2026-04-18T10:29:17.997Z</time></trkpt><trkpt lat="42.52783319598983" lon="13.406531906248091"><ele>1319.0</ele><time>2026-04-18T10:29:18.997Z</time></trkpt><trkpt lat="42.52774436977994" lon="13.406417545396597"><ele>1319.5</ele><time>2026-04-18T10:29:19.997Z</time></trkpt><trkpt lat="42.527641914045866" lon="13.406320332190061"><ele>1320.0</ele><time>2026-04-18T10:29:20.997Z</time></trkpt><trkpt lat="42.52752866738543" lon="13.406243239818654"><ele>1320.0</ele><time>2026-04-18T10:29:21.997Z</time></trkpt><trkpt lat="42.5274091233325" lon="13.406200715929982"><ele>1320.0</ele><time>2026-04-18T10:29:22.997Z</time></trkpt><trkpt lat="42.52728999280376" lon="13.406209168008498"><ele>1320.0</ele><time>2026-04-18T10:29:23.997Z</time></trkpt><trkpt lat="42.52718226824171" lon="13.406266986174371"><ele>1320.0</ele><time>2026-04-18T10:29:24.997Z</time></trkpt><trkpt lat="42.52708333455034" lon="13.406347809898561"><ele>1321.75</ele><time>2026-04-18T10:29:25.997Z</time></trkpt><trkpt lat="42.52698152720471" lon="13.406424152436442"><ele>1323.5</ele><time>2026-04-18T10:29:26.997Z</time></trkpt><trkpt lat="42.52687332363837" lon="13.406488122215347"><ele>1325.25</ele><time>2026-04-18T10:29:27.997Z</time></trkpt><trkpt lat="42.52676142962585" lon="13.406545495371585"><ele>1327.0</ele><time>2026-04-18T10:29:28.997Z</time></trkpt><trkpt lat="42.52664743153541" lon="13.406583750444916"><ele>1327.0</ele><time>2026-04-18T10:29:29.997Z</time></trkpt><trkpt lat="42.5265307053548" lon="13.406576474063156"><ele>1327.0</ele><time>2026-04-18T10:29:30.997Z</time></trkpt><trkpt lat="42.526421545922474" lon="13.406517044116557"><ele>1327.0</ele><time>2026-04-18T10:29:31.997Z</time></trkpt><trkpt lat="42.52631770301431" lon="13.406428327578606"><ele>1327.0</ele><time>2026-04-18T10:29:32.997Z</time></trkpt><trkpt lat="42.52622083579015" lon="13.406324157318464"><ele>1326.5</ele><time>2026-04-18T10:29:33.997Z</time></trkpt><trkpt lat="42.52612160820282" lon="13.406222073379789"><ele>1326.0</ele><time>2026-04-18T10:29:34.997Z</time></trkpt><trkpt lat="42.526012800905654" lon="13.40613500402029"><ele>1325.5</ele><time>2026-04-18T10:29:35.997Z</time></trkpt><trkpt lat="42.52589224373228" lon="13.406079053780214"><ele>1325.0</ele><time>2026-04-18T10:29:36.997Z</time></trkpt><trkpt lat="42.525763957317636" lon="13.40606078974915"><ele>1325.0</ele><time>2026-04-18T10:29:37.997Z</time></trkpt><trkpt lat="42.52563449636583" lon="13.406066601440026"><ele>1325.0</ele><time>2026-04-18T10:29:38.997Z</time></trkpt><trkpt lat="42.52550503815518" lon="13.40606892877621"><ele>1325.0</ele><time>2026-04-18T10:29:39.997Z</time></trkpt><trkpt lat="42.52537294185949" lon="13.406063149371139"><ele>1325.0</ele><time>2026-04-18T10:29:40.997Z</time></trkpt><trkpt lat="42.52524138635444" lon="13.406057444554522"><ele>1325.25</ele><time>2026-04-18T10:29:41.997Z</time></trkpt><trkpt lat="42.525108034129" lon="13.406053316843414"><ele>1325.5</ele><time>2026-04-18T10:29:42.997Z</time></trkpt><trkpt lat="42.52497522355924" lon="13.406052750513203"><ele>1325.75</ele><time>2026-04-18T10:29:43.997Z</time></trkpt><trkpt lat="42.52484140292307" lon="13.406051774795925"><ele>1326.0</ele><time>2026-04-18T10:29:44.997Z</time></trkpt><trkpt lat="42.52470570695906" lon="13.406042642613862"><ele>1326.0</ele><time>2026-04-18T10:29:46Z</time></trkpt><trkpt lat="42.524572751933995" lon="13.406027398246502"><ele>1326.0</ele><time>2026-04-18T10:29:47Z</time></trkpt><trkpt lat="42.524445507194294" lon="13.4059995708165"><ele>1326.0</ele><time>2026-04-18T10:29:47.999Z</time></trkpt><trkpt lat="42.524327008581615" lon="13.405943173251424"><ele>1326.0</ele><time>2026-04-18T10:29:49Z</time></trkpt><trkpt lat="42.524222015445716" lon="13.405848189436325"><ele>1327.75</ele><time>2026-04-18T10:29:50Z</time></trkpt><trkpt lat="42.524130189691384" lon="13.405728453024588"><ele>1329.5</ele><time>2026-04-18T10:29:51Z</time></trkpt><trkpt lat="42.52406427817643" lon="13.40559908312534"><ele>1331.25</ele><time>2026-04-18T10:29:52Z</time></trkpt><trkpt lat="42.524042420868085" lon="13.405454574012639"><ele>1333.0</ele><time>2026-04-18T10:29:53Z</time></trkpt><trkpt lat="42.52406011501984" lon="13.405312749779627"><ele>1333.0</ele><time>2026-04-18T10:29:54Z</time></trkpt><trkpt lat="42.52412731060847" lon="13.405198201598331"><ele>1333.0</ele><time>2026-04-18T10:29:55Z</time></trkpt><trkpt lat="42.524178331072946" lon="13.405073463247186"><ele>1333.0</ele><time>2026-04-18T10:29:56Z</time></trkpt><trkpt lat="42.52425000047195" lon="13.404953236404468"><ele>1333.0</ele><time>2026-04-18T10:29:57Z</time></trkpt><trkpt lat="42.52431748798546" lon="13.40482322693635"><ele>1333.0</ele><time>2026-04-18T10:29:58Z</time></trkpt><trkpt lat="42.52436854805512" lon="13.404678042111428"><ele>1332.75</ele><time>2026-04-18T10:29:59Z</time></trkpt><trkpt lat="42.5243836519451" lon="13.404516845480078"><ele>1332.5</ele><time>2026-04-18T10:30:00Z</time></trkpt><trkpt lat="42.5243486154192" lon="13.404357662345125"><ele>1332.25</ele><time>2026-04-18T10:30:01Z</time></trkpt><trkpt lat="42.524271326737455" lon="13.4042351262725"><ele>1332.0</ele><time>2026-04-18T10:30:02Z</time></trkpt><trkpt lat="42.52415449254609" lon="13.404168747652118"><ele>1332.0</ele><time>2026-04-18T10:30:02.999Z</time></trkpt><trkpt lat="42.524031120818485" lon="13.404131645728606"><ele>1332.0</ele><time>2026-04-18T10:30:03.999Z</time></trkpt><trkpt lat="42.52392109991502" lon="13.404080622644095"><ele>1332.0</ele><time>2026-04-18T10:30:04.999Z</time></trkpt><trkpt lat="42.52380807182983" lon="13.404024145065348"><ele>1332.0</ele><time>2026-04-18T10:30:05.999Z</time></trkpt><trkpt lat="42.5236945799388" lon="13.403972901480191"><ele>1333.5</ele><time>2026-04-18T10:30:06.999Z</time></trkpt><trkpt lat="42.52357744196406" lon="13.403917348768209"><ele>1335.0</ele><time>2026-04-18T10:30:07.999Z</time></trkpt><trkpt lat="42.5234638219012" lon="13.403857783519042"><ele>1336.5</ele><time>2026-04-18T10:30:08.999Z</time></trkpt><trkpt lat="42.52335842566369" lon="13.403794021921998"><ele>1338.0</ele><time>2026-04-18T10:30:09.999Z</time></trkpt><trkpt lat="42.52326232087707" lon="13.403719430369144"><ele>1338.0</ele><time>2026-04-18T10:30:10.999Z</time></trkpt><trkpt lat="42.52318891923993" lon="13.403615090632025"><ele>1338.0</ele><time>2026-04-18T10:30:11.999Z</time></trkpt><trkpt lat="42.52315736115029" lon="13.403481314363303"><ele>1338.0</ele><time>2026-04-18T10:30:12.999Z</time></trkpt><trkpt lat="42.52316681551022" lon="13.403338595944234"><ele>1338.0</ele><time>2026-04-18T10:30:13.999Z</time></trkpt><trkpt lat="42.52318867603626" lon="13.40319708102395"><ele>1338.0</ele><time>2026-04-18T10:30:14.999Z</time></trkpt><trkpt lat="42.52320686948127" lon="13.403044943355734"><ele>1340.25</ele><time>2026-04-18T10:30:15.999Z</time></trkpt><trkpt lat="42.52323241540156" lon="13.40288921279802"><ele>1342.5</ele><time>2026-04-18T10:30:16.999Z</time></trkpt><trkpt lat="42.52329513046739" lon="13.402754020672031"><ele>1344.75</ele><time>2026-04-18T10:30:17.999Z</time></trkpt><trkpt lat="42.52339931380202" lon="13.402689875269008"><ele>1347.0</ele><time>2026-04-18T10:30:18.999Z</time></trkpt><trkpt lat="42.523512983920526" lon="13.402633435431406"><ele>1347.0</ele><time>2026-04-18T10:30:19.999Z</time></trkpt><trkpt lat="42.523624012816924" lon="13.402574038348234"><ele>1347.0</ele><time>2026-04-18T10:30:20.999Z</time></trkpt><trkpt lat="42.52373513894008" lon="13.402526312311196"><ele>1347.0</ele><time>2026-04-18T10:30:21.999Z</time></trkpt><trkpt lat="42.52384521306345" lon="13.402466561476635"><ele>1347.0</ele><time>2026-04-18T10:30:22.999Z</time></trkpt><trkpt lat="42.523953746834316" lon="13.402402455270343"><ele>1343.5</ele><time>2026-04-18T10:30:23.999Z</time></trkpt><trkpt lat="42.52405780926782" lon="13.402348679839232"><ele>1340.0</ele><time>2026-04-18T10:30:24.999Z</time></trkpt><trkpt lat="42.52415400200807" lon="13.40226350794403"><ele>1336.5</ele><time>2026-04-18T10:30:25.999Z</time></trkpt><trkpt lat="42.52422099630956" lon="13.402132291228114"><ele>1333.0</ele><time>2026-04-18T10:30:26.999Z</time></trkpt><trkpt lat="42.52424487673687" lon="13.40196785092531"><ele>1333.0</ele><time>2026-04-18T10:30:27.999Z</time></trkpt><trkpt lat="42.52422365434283" lon="13.401794516434357"><ele>1333.0</ele><time>2026-04-18T10:30:28.999Z</time></trkpt><trkpt lat="42.52419273737496" lon="13.401622372474243"><ele>1333.0</ele><time>2026-04-18T10:30:29.999Z</time></trkpt><trkpt lat="42.52415974959268" lon="13.4014506979837"><ele>1333.0</ele><time>2026-04-18T10:30:30.999Z</time></trkpt><trkpt lat="42.524121089380436" lon="13.401280052681674"><ele>1331.0</ele><time>2026-04-18T10:30:31.999Z</time></trkpt><trkpt lat="42.52405830863194" lon="13.401122714766569"><ele>1329.0</ele><time>2026-04-18T10:30:32.999Z</time></trkpt><trkpt lat="42.52396627006887" lon="13.400986832410569"><ele>1327.0</ele><time>2026-04-18T10:30:33.999Z</time></trkpt><trkpt lat="42.523863348767144" lon="13.400867893531428"><ele>1325.0</ele><time>2026-04-18T10:30:34.999Z</time></trkpt><trkpt lat="42.5237576490743" lon="13.400756007165867"><ele>1328.25</ele><time>2026-04-18T10:30:35.999Z</time></trkpt><trkpt lat="42.52365401780998" lon="13.400640085544032"><ele>1331.5</ele><time>2026-04-18T10:30:36.999Z</time></trkpt><trkpt lat="42.523552498752004" lon="13.400519363248295"><ele>1334.75</ele><time>2026-04-18T10:30:37.999Z</time></trkpt><trkpt lat="42.52346045778382" lon="13.400386914946457"><ele>1338.0</ele><time>2026-04-18T10:30:38.999Z</time></trkpt><trkpt lat="42.52339722079403" lon="13.400232027776696"><ele>1338.0</ele><time>2026-04-18T10:30:39.999Z</time></trkpt><trkpt lat="42.52338001213046" lon="13.400058520704773"><ele>1338.0</ele><time>2026-04-18T10:30:40.999Z</time></trkpt><trkpt lat="42.52340710618788" lon="13.399878331778735"><ele>1338.0</ele><time>2026-04-18T10:30:41.999Z</time></trkpt><trkpt lat="42.52344786207797" lon="13.399694937616056"><ele>1338.0</ele><time>2026-04-18T10:30:42.999Z</time></trkpt><trkpt lat="42.52348241800133" lon="13.399508952393898"><ele>1338.25</ele><time>2026-04-18T10:30:43.999Z</time></trkpt><trkpt lat="42.523517794739945" lon="13.399316553324944"><ele>1338.5</ele><time>2026-04-18T10:30:44.999Z</time></trkpt><trkpt lat="42.52354812082573" lon="13.399125310392742"><ele>1338.75</ele><time>2026-04-18T10:30:45.999Z</time></trkpt><trkpt lat="42.52354765352829" lon="13.398928355829685"><ele>1339.0</ele><time>2026-04-18T10:30:46.998Z</time></trkpt><trkpt lat="42.523488536611666" lon="13.3987401569044"><ele>1336.6666666666665</ele><time>2026-04-18T10:30:47.998Z</time></trkpt><trkpt lat="42.52338572431727" lon="13.398581482431366"><ele>1334.3333333333333</ele><time>2026-04-18T10:30:48.998Z</time></trkpt><trkpt lat="42.523283035285964" lon="13.398423160400231"><ele>1332.0</ele><time>2026-04-18T10:30:49.998Z</time></trkpt><trkpt lat="42.52320294401859" lon="13.398241147860947"><ele>1332.0</ele><time>2026-04-18T10:30:50.998Z</time></trkpt><trkpt lat="42.52315444113357" lon="13.398038162027142"><ele>1332.0</ele><time>2026-04-18T10:30:51.998Z</time></trkpt><trkpt lat="42.52313082558075" lon="13.397828214988053"><ele>1332.0</ele><time>2026-04-18T10:30:52.998Z</time></trkpt><trkpt lat="42.523117857249105" lon="13.397624980728361"><ele>1332.0</ele><time>2026-04-18T10:30:53.998Z</time></trkpt><trkpt lat="42.52313580609787" lon="13.397434751490811"><ele>1332.0</ele><time>2026-04-18T10:30:54.998Z</time></trkpt><trkpt lat="42.523213941182185" lon="13.397282381146988"><ele>1332.0</ele><time>2026-04-18T10:30:55.998Z</time></trkpt><trkpt lat="42.52334779071276" lon="13.397216456495356"><ele>1332.0</ele><time>2026-04-18T10:30:56.998Z</time></trkpt><trkpt lat="42.52349546378507" lon="13.397162332069028"><ele>1334.0</ele><time>2026-04-18T10:30:57.998Z</time></trkpt><trkpt lat="42.523647084916654" lon="13.397097848926595"><ele>1336.0</ele><time>2026-04-18T10:30:58.998Z</time></trkpt><trkpt lat="42.52380804539182" lon="13.397042774515283"><ele>1338.0</ele><time>2026-04-18T10:30:59.998Z</time></trkpt><trkpt lat="42.52397496442056" lon="13.39698925483657"><ele>1338.0</ele><time>2026-04-18T10:31:00.998Z</time></trkpt><trkpt lat="42.524148744750285" lon="13.396956237013752"><ele>1338.0</ele><time>2026-04-18T10:31:01.998Z</time></trkpt><trkpt lat="42.524319674264106" lon="13.396901692923997"><ele>1338.0</ele><time>2026-04-18T10:31:02.998Z</time></trkpt><trkpt lat="42.524490604423555" lon="13.396828509834458"><ele>1336.6666666666667</ele><time>2026-04-18T10:31:03.998Z</time></trkpt><trkpt lat="42.524664831973325" lon="13.39677490628867"><ele>1335.3333333333335</ele><time>2026-04-18T10:31:04.998Z</time></trkpt><trkpt lat="42.524840085819086" lon="13.396716132424363"><ele>1334.0</ele><time>2026-04-18T10:31:05.998Z</time></trkpt><trkpt lat="42.52502249787864" lon="13.39666804137758"><ele>1334.0</ele><time>2026-04-18T10:31:06.998Z</time></trkpt><trkpt lat="42.52520823676759" lon="13.396625669036737"><ele>1334.0</ele><time>2026-04-18T10:31:07.998Z</time></trkpt><trkpt lat="42.52539446208554" lon="13.396603902213416"><ele>1334.0</ele><time>2026-04-18T10:31:08.998Z</time></trkpt><trkpt lat="42.52558232102094" lon="13.396589170032422"><ele>1332.3333333333335</ele><time>2026-04-18T10:31:09.998Z</time></trkpt><trkpt lat="42.52576685035537" lon="13.396600850172602"><ele>1330.6666666666667</ele><time>2026-04-18T10:31:10.998Z</time></trkpt><trkpt lat="42.52594474074368" lon="13.396638763454423"><ele>1329.0</ele><time>2026-04-18T10:31:11.998Z</time></trkpt><trkpt lat="42.52613826890932" lon="13.39669884747939"><ele>1329.0</ele><time>2026-04-18T10:31:12.998Z</time></trkpt><trkpt lat="42.52622605578844" lon="13.396702894675581"><ele>1329.0</ele><time>2026-04-18T10:31:13.998Z</time></trkpt><trkpt lat="42.52640911157329" lon="13.396745708391979"><ele>1329.0</ele><time>2026-04-18T10:31:14.998Z</time></trkpt><trkpt lat="42.52659291832361" lon="13.39678783078133"><ele>1329.0</ele><time>2026-04-18T10:31:15.998Z</time></trkpt><trkpt lat="42.526776929374506" lon="13.396829999974258"><ele>1329.0</ele><time>2026-04-18T10:31:16.998Z</time></trkpt><trkpt lat="42.52695690727792" lon="13.396871725573115"><ele>1329.0</ele><time>2026-04-18T10:31:17.998Z</time></trkpt><trkpt lat="42.5271404832145" lon="13.396885316376054"><ele>1329.0</ele><time>2026-04-18T10:31:18.998Z</time></trkpt><trkpt lat="42.527320486532126" lon="13.396912993450302"><ele>1329.0</ele><time>2026-04-18T10:31:19.998Z</time></trkpt><trkpt lat="42.52749705954888" lon="13.396922091636787"><ele>1329.0</ele><time>2026-04-18T10:31:20.998Z</time></trkpt><trkpt lat="42.52767049818178" lon="13.39691021501588"><ele>1329.0</ele><time>2026-04-18T10:31:21.998Z</time></trkpt><trkpt lat="42.52783450866468" lon="13.396892372398858"><ele>1329.0</ele><time>2026-04-18T10:31:22.998Z</time></trkpt><trkpt lat="42.52798300591521" lon="13.396879954076232"><ele>1329.0</ele><time>2026-04-18T10:31:23.998Z</time></trkpt><trkpt lat="42.52810768620261" lon="13.396834508095555"><ele>1329.0</ele><time>2026-04-18T10:31:24.998Z</time></trkpt><trkpt lat="42.528197711445664" lon="13.396743238565119"><ele>1327.5</ele><time>2026-04-18T10:31:25.997Z</time></trkpt><trkpt lat="42.52825510271583" lon="13.396605205014472"><ele>1326.0</ele><time>2026-04-18T10:31:26.997Z</time></trkpt><trkpt lat="42.52824947230741" lon="13.3964263861046"><ele>1324.5</ele><time>2026-04-18T10:31:27.997Z</time></trkpt><trkpt lat="42.528233381560334" lon="13.396220347261794"><ele>1323.0</ele><time>2026-04-18T10:31:28.997Z</time></trkpt><trkpt lat="42.52816139475852" lon="13.396011431582735"><ele>1323.0</ele><time>2026-04-18T10:31:29.997Z</time></trkpt><trkpt lat="42.52809510261743" lon="13.395790082184831"><ele>1323.0</ele><time>2026-04-18T10:31:30.997Z</time></trkpt><trkpt lat="42.52807908452334" lon="13.395558313692487"><ele>1323.0</ele><time>2026-04-18T10:31:31.997Z</time></trkpt><trkpt lat="42.52811150209882" lon="13.395332352155965"><ele>1323.6666666666667</ele><time>2026-04-18T10:31:32.997Z</time></trkpt><trkpt lat="42.528142994240085" lon="13.395097545798906"><ele>1324.3333333333335</ele><time>2026-04-18T10:31:33.997Z</time></trkpt><trkpt lat="42.52819277415704" lon="13.394860631050173"><ele>1325.0</ele><time>2026-04-18T10:31:34.997Z</time></trkpt><trkpt lat="42.52822285880545" lon="13.394615448436111"><ele>1323.3333333333335</ele><time>2026-04-18T10:31:35.997Z</time></trkpt><trkpt lat="42.528225478095756" lon="13.394363774155698"><ele>1321.6666666666667</ele><time>2026-04-18T10:31:36.997Z</time></trkpt><trkpt lat="42.5281848481607" lon="13.39411684574769"><ele>1320.0</ele><time>2026-04-18T10:31:37.997Z</time></trkpt><trkpt lat="42.528108304205446" lon="13.393881052613072"><ele>1318.3333333333333</ele><time>2026-04-18T10:31:38.997Z</time></trkpt><trkpt lat="42.528023064657916" lon="13.39365220696289"><ele>1316.6666666666665</ele><time>2026-04-18T10:31:39.997Z</time></trkpt><trkpt lat="42.52792135156503" lon="13.393433929806472"><ele>1315.0</ele><time>2026-04-18T10:31:40.997Z</time></trkpt><trkpt lat="42.52779918029794" lon="13.393234311246095"><ele>1319.3333333333333</ele><time>2026-04-18T10:31:41.997Z</time></trkpt><trkpt lat="42.52766806074002" lon="13.393038981942569"><ele>1323.6666666666667</ele><time>2026-04-18T10:31:42.997Z</time></trkpt><trkpt lat="42.52754238537249" lon="13.392841453925298"><ele>1328.0</ele><time>2026-04-18T10:31:43.997Z</time></trkpt><trkpt lat="42.527417497316684" lon="13.392645091506719"><ele>1328.0</ele><time>2026-04-18T10:31:44.997Z</time></trkpt><trkpt lat="42.5272984584941" lon="13.392453136599837"><ele>1328.0</ele><time>2026-04-18T10:31:45.997Z</time></trkpt><trkpt lat="42.527186631534015" lon="13.392273421014409"><ele>1328.0</ele><time>2026-04-18T10:31:46.997Z</time></trkpt><trkpt lat="42.52707914841062" lon="13.39210453301086"><ele>1330.0</ele><time>2026-04-18T10:31:47.997Z</time></trkpt><trkpt lat="42.526981795988995" lon="13.391947311436427"><ele>1332.0</ele><time>2026-04-18T10:31:48.997Z</time></trkpt><trkpt lat="42.52689045683941" lon="13.391808030896327"><ele>1334.0</ele><time>2026-04-18T10:31:49.997Z</time></trkpt><trkpt lat="42.52678446405281" lon="13.391688382394268"><ele>1336.0</ele><time>2026-04-18T10:31:51Z</time></trkpt><trkpt lat="42.526646997942905" lon="13.391602380383915"><ele>1336.0</ele><time>2026-04-18T10:31:52Z</time></trkpt><trkpt lat="42.526487784555485" lon="13.391530595050464"><ele>1336.0</ele><time>2026-04-18T10:31:53Z</time></trkpt><trkpt lat="42.52631947928083" lon="13.39143874111237"><ele>1336.0</ele><time>2026-04-18T10:31:54Z</time></trkpt><trkpt lat="42.526160928968096" lon="13.391317712023474"><ele>1333.6666666666665</ele><time>2026-04-18T10:31:55Z</time></trkpt><trkpt lat="42.5260106648967" lon="13.391170394201506"><ele>1331.3333333333333</ele><time>2026-04-18T10:31:56Z</time></trkpt><trkpt lat="42.52586909520076" lon="13.391000457733671"><ele>1329.0</ele><time>2026-04-18T10:31:57Z</time></trkpt><trkpt lat="42.52572024636014" lon="13.390843838788342"><ele>1329.0</ele><time>2026-04-18T10:31:58Z</time></trkpt><trkpt lat="42.525556258516744" lon="13.390716645930626"><ele>1329.0</ele><time>2026-04-18T10:31:59Z</time></trkpt><trkpt lat="42.525366009250455" lon="13.390628925962101"><ele>1329.0</ele><time>2026-04-18T10:32:00Z</time></trkpt><trkpt lat="42.52517783860452" lon="13.39053801701858"><ele>1327.3333333333333</ele><time>2026-04-18T10:32:01Z</time></trkpt><trkpt lat="42.524988209665636" lon="13.390445391040899"><ele>1325.6666666666665</ele><time>2026-04-18T10:32:02Z</time></trkpt><trkpt lat="42.52480197783003" lon="13.390354613219593"><ele>1324.0</ele><time>2026-04-18T10:32:03Z</time></trkpt><trkpt lat="42.52462720431967" lon="13.390265339741957"><ele>1327.0</ele><time>2026-04-18T10:32:04Z</time></trkpt><trkpt lat="42.52446560705015" lon="13.390175952687597"><ele>1330.0</ele><time>2026-04-18T10:32:05Z</time></trkpt><trkpt lat="42.52432378553783" lon="13.39006299268045"><ele>1333.0</ele><time>2026-04-18T10:32:06Z</time></trkpt><trkpt lat="42.524204920766685" lon="13.389909635212696"><ele>1333.0</ele><time>2026-04-18T10:32:07Z</time></trkpt><trkpt lat="42.52413060900499" lon="13.389710585881152"><ele>1333.0</ele><time>2026-04-18T10:32:08Z</time></trkpt><trkpt lat="42.52408331083026" lon="13.38949509344678"><ele>1333.0</ele><time>2026-04-18T10:32:09Z</time></trkpt><trkpt lat="42.52403928285301" lon="13.389272057535928"><ele>1330.3333333333333</ele><time>2026-04-18T10:32:10Z</time></trkpt><trkpt lat="42.52399109974664" lon="13.389070474496666"><ele>1327.6666666666667</ele><time>2026-04-18T10:32:11Z</time></trkpt><trkpt lat="42.52390087697777" lon="13.388910422662233"><ele>1325.0</ele><time>2026-04-18T10:32:12Z</time></trkpt><trkpt lat="42.5237615054428" lon="13.388807659889016"><ele>1326.6666666666667</ele><time>2026-04-18T10:32:13Z</time></trkpt><trkpt lat="42.52359745016785" lon="13.388767064484867"><ele>1328.3333333333333</ele><time>2026-04-18T10:32:14Z</time></trkpt><trkpt lat="42.52343093922891" lon="13.388771498227715"><ele>1330.0</ele><time>2026-04-18T10:32:15Z</time></trkpt><trkpt lat="42.523278139075316" lon="13.388753470160676"><ele>1330.0</ele><time>2026-04-18T10:32:15.999Z</time></trkpt><trkpt lat="42.52316247246546" lon="13.388692320561434"><ele>1330.0</ele><time>2026-04-18T10:32:16.999Z</time></trkpt><trkpt lat="42.523083807125616" lon="13.38858742859099"><ele>1330.0</ele><time>2026-04-18T10:32:17.999Z</time></trkpt><trkpt lat="42.52304487327109" lon="13.388447001275797"><ele>1330.0</ele><time>2026-04-18T10:32:18.999Z</time></trkpt><trkpt lat="42.52304950961901" lon="13.38828340030145"><ele>1330.0</ele><time>2026-04-18T10:32:19.999Z</time></trkpt><trkpt lat="42.523135719962404" lon="13.38814277995402"><ele>1330.0</ele><time>2026-04-18T10:32:20.999Z</time></trkpt><trkpt lat="42.523206515453644" lon="13.387975105740672"><ele>1330.0</ele><time>2026-04-18T10:32:21.999Z</time></trkpt><trkpt lat="42.52327818087919" lon="13.3877926125783"><ele>1330.0</ele><time>2026-04-18T10:32:22.999Z</time></trkpt><trkpt lat="42.52334660429815" lon="13.387592530162268"><ele>1329.6666666666665</ele><time>2026-04-18T10:32:23.999Z</time></trkpt><trkpt lat="42.52338752579017" lon="13.387364599796774"><ele>1329.3333333333333</ele><time>2026-04-18T10:32:24.999Z</time></trkpt><trkpt lat="42.523412559632675" lon="13.387127526773908"><ele>1329.0</ele><time>2026-04-18T10:32:25.999Z</time></trkpt><trkpt lat="42.523459647461934" lon="13.386921205851783"><ele>1330.0</ele><time>2026-04-18T10:32:26.999Z</time></trkpt><trkpt lat="42.52356819106064" lon="13.386785898355406"><ele>1331.0</ele><time>2026-04-18T10:32:27.999Z</time></trkpt><trkpt lat="42.52370499738373" lon="13.386700709390503"><ele>1332.0</ele><time>2026-04-18T10:32:28.999Z</time></trkpt><trkpt lat="42.52384607520961" lon="13.386585289094862"><ele>1328.3333333333333</ele><time>2026-04-18T10:32:29.999Z</time></trkpt><trkpt lat="42.523985340230745" lon="13.386471989287008"><ele>1324.6666666666665</ele><time>2026-04-18T10:32:30.999Z</time></trkpt><trkpt lat="42.52408240020598" lon="13.386290950533711"><ele>1321.0</ele><time>2026-04-18T10:32:31.999Z</time></trkpt><trkpt lat="42.52412197334592" lon="13.38605936483401"><ele>1321.0</ele><time>2026-04-18T10:32:32.999Z</time></trkpt><trkpt lat="42.52412078160155" lon="13.385828460817272"><ele>1321.0</ele><time>2026-04-18T10:32:33.999Z</time></trkpt><trkpt lat="42.524074789810115" lon="13.385623159199824"><ele>1321.0</ele><time>2026-04-18T10:32:34.999Z</time></trkpt><trkpt lat="42.523981431207424" lon="13.385458009683676"><ele>1320.6666666666665</ele><time>2026-04-18T10:32:35.999Z</time></trkpt><trkpt lat="42.523847997525074" lon="13.385350148964996"><ele>1320.3333333333333</ele><time>2026-04-18T10:32:36.999Z</time></trkpt><trkpt lat="42.52369700151721" lon="13.385315547751622"><ele>1320.0</ele><time>2026-04-18T10:32:37.999Z</time></trkpt><trkpt lat="42.5235400977825" lon="13.385356929200041"><ele>1320.0</ele><time>2026-04-18T10:32:38.999Z</time></trkpt><trkpt lat="42.52338069289388" lon="13.385449463080901"><ele>1320.0</ele><time>2026-04-18T10:32:39.999Z</time></trkpt><trkpt lat="42.52320959393792" lon="13.385538277021173"><ele>1320.0</ele><time>2026-04-18T10:32:40.999Z</time></trkpt><trkpt lat="42.52302859619387" lon="13.385600152674169"><ele>1325.0</ele><time>2026-04-18T10:32:41.999Z</time></trkpt><trkpt lat="42.522852694136475" lon="13.385645730872973"><ele>1330.0</ele><time>2026-04-18T10:32:42.999Z</time></trkpt><trkpt lat="42.522691195506276" lon="13.38568411991613"><ele>1335.0</ele><time>2026-04-18T10:32:43.999Z</time></trkpt><trkpt lat="42.52255800123549" lon="13.385709257859528"><ele>1335.0</ele><time>2026-04-18T10:32:44.999Z</time></trkpt><trkpt lat="42.5224453021153" lon="13.385698980598809"><ele>1335.0</ele><time>2026-04-18T10:32:45.999Z</time></trkpt><trkpt lat="42.52234590330908" lon="13.385626523502422"><ele>1335.0</ele><time>2026-04-18T10:32:46.999Z</time></trkpt><trkpt lat="42.52229257108776" lon="13.385468574771332"><ele>1335.0</ele><time>2026-04-18T10:32:47.999Z</time></trkpt><trkpt lat="42.52225000831564" lon="13.38531070456523"><ele>1333.25</ele><time>2026-04-18T10:32:48.999Z</time></trkpt><trkpt lat="42.5222207371679" lon="13.385155478087906"><ele>1331.5</ele><time>2026-04-18T10:32:49.999Z</time></trkpt><trkpt lat="42.52226414058892" lon="13.384988893440639"><ele>1329.75</ele><time>2026-04-18T10:32:50.999Z</time></trkpt><trkpt lat="42.522361589381745" lon="13.384849380864654"><ele>1328.0</ele><time>2026-04-18T10:32:51.999Z</time></trkpt><trkpt lat="42.522420706549525" lon="13.384684610067703"><ele>1327.3333333333335</ele><time>2026-04-18T10:32:52.999Z</time></trkpt><trkpt lat="42.52244095101602" lon="13.38449844464197"><ele>1326.6666666666667</ele><time>2026-04-18T10:32:53.999Z</time></trkpt><trkpt lat="42.52238148391403" lon="13.384304758038219"><ele>1326.0</ele><time>2026-04-18T10:32:54.999Z</time></trkpt><trkpt lat="42.52228405858363" lon="13.384137675275683"><ele>1326.0</ele><time>2026-04-18T10:32:55.999Z</time></trkpt><trkpt lat="42.52221310250843" lon="13.38397972433971"><ele>1326.0</ele><time>2026-04-18T10:32:56.999Z</time></trkpt><trkpt lat="42.522199395270476" lon="13.383822975879124"><ele>1326.0</ele><time>2026-04-18T10:32:57.999Z</time></trkpt><trkpt lat="42.52225639581108" lon="13.383685932571549"><ele>1326.0</ele><time>2026-04-18T10:32:58.998Z</time></trkpt><trkpt lat="42.52232203814204" lon="13.383545320770406"><ele>1326.75</ele><time>2026-04-18T10:32:59.998Z</time></trkpt><trkpt lat="42.52243296152547" lon="13.383431294036363"><ele>1327.5</ele><time>2026-04-18T10:33:00.998Z</time></trkpt><trkpt lat="42.52254768611636" lon="13.383309170808571"><ele>1328.25</ele><time>2026-04-18T10:33:01.998Z</time></trkpt><trkpt lat="42.52265204417544" lon="13.38315614886264"><ele>1329.0</ele><time>2026-04-18T10:33:02.998Z</time></trkpt><trkpt lat="42.52274650099185" lon="13.382988077857092"><ele>1331.0</ele><time>2026-04-18T10:33:03.998Z</time></trkpt><trkpt lat="42.52281550301314" lon="13.382803943140503"><ele>1333.0</ele><time>2026-04-18T10:33:04.998Z</time></trkpt><trkpt lat="42.52284445581795" lon="13.382597182703194"><ele>1335.0</ele><time>2026-04-18T10:33:05.998Z</time></trkpt><trkpt lat="42.52282471769737" lon="13.382374761408183"><ele>1334.6666666666667</ele><time>2026-04-18T10:33:06.998Z</time></trkpt><trkpt lat="42.52278425054543" lon="13.382153792080759"><ele>1334.3333333333335</ele><time>2026-04-18T10:33:07.998Z</time></trkpt><trkpt lat="42.52272585104694" lon="13.381934674044105"><ele>1334.0</ele><time>2026-04-18T10:33:08.998Z</time></trkpt><trkpt lat="42.5226504792482" lon="13.381737619704452"><ele>1334.0</ele><time>2026-04-18T10:33:09.998Z</time></trkpt><trkpt lat="42.52258018657424" lon="13.381549312145507"><ele>1334.0</ele><time>2026-04-18T10:33:10.998Z</time></trkpt><trkpt lat="42.52255875075003" lon="13.381352615064385"><ele>1334.0</ele><time>2026-04-18T10:33:11.998Z</time></trkpt><trkpt lat="42.522644826784706" lon="13.381192308777516"><ele>1334.0</ele><time>2026-04-18T10:33:12.998Z</time></trkpt><trkpt lat="42.522725725840566" lon="13.38101160346089"><ele>1334.3333333333335</ele><time>2026-04-18T10:33:13.998Z</time></trkpt><trkpt lat="42.52278700535406" lon="13.380823584650381"><ele>1334.6666666666667</ele><time>2026-04-18T10:33:14.998Z</time></trkpt><trkpt lat="42.52280789900401" lon="13.38061496262982"><ele>1335.0</ele><time>2026-04-18T10:33:15.998Z</time></trkpt><trkpt lat="42.522759732234476" lon="13.380401302682415"><ele>1336.25</ele><time>2026-04-18T10:33:16.998Z</time></trkpt><trkpt lat="42.522703330858526" lon="13.380207157147975"><ele>1337.5</ele><time>2026-04-18T10:33:17.998Z</time></trkpt><trkpt lat="42.52272475682736" lon="13.38002885357852"><ele>1338.75</ele><time>2026-04-18T10:33:18.998Z</time></trkpt><trkpt lat="42.52280346206838" lon="13.3798834970791"><ele>1340.0</ele><time>2026-04-18T10:33:19.998Z</time></trkpt><trkpt lat="42.52289732808563" lon="13.379726786850652"><ele>1333.3333333333335</ele><time>2026-04-18T10:33:20.998Z</time></trkpt><trkpt lat="42.52300952247745" lon="13.379577324312974"><ele>1326.6666666666667</ele><time>2026-04-18T10:33:21.998Z</time></trkpt><trkpt lat="42.523083608771216" lon="13.37937505889189"><ele>1320.0</ele><time>2026-04-18T10:33:22.998Z</time></trkpt><trkpt lat="42.523105008151035" lon="13.379139684816234"><ele>1320.0</ele><time>2026-04-18T10:33:23.998Z</time></trkpt><trkpt lat="42.52309085565112" lon="13.378889327119396"><ele>1320.0</ele><time>2026-04-18T10:33:24.998Z</time></trkpt><trkpt lat="42.52305745204316" lon="13.378647067813462"><ele>1320.0</ele><time>2026-04-18T10:33:25.998Z</time></trkpt><trkpt lat="42.523010961937544" lon="13.37842579501714"><ele>1320.0</ele><time>2026-04-18T10:33:26.998Z</time></trkpt><trkpt lat="42.52293989983568" lon="13.378227644211169"><ele>1320.0</ele><time>2026-04-18T10:33:27.998Z</time></trkpt><trkpt lat="42.52282922141599" lon="13.378070194892546"><ele>1320.0</ele><time>2026-04-18T10:33:28.998Z</time></trkpt><trkpt lat="42.52268959874242" lon="13.37796742853947"><ele>1322.25</ele><time>2026-04-18T10:33:29.998Z</time></trkpt><trkpt lat="42.52254933116588" lon="13.377906686840543"><ele>1324.5</ele><time>2026-04-18T10:33:30.998Z</time></trkpt><trkpt lat="42.52242712587974" lon="13.377828541414486"><ele>1326.75</ele><time>2026-04-18T10:33:31.998Z</time></trkpt><trkpt lat="42.522342753288015" lon="13.377695568427228"><ele>1329.0</ele><time>2026-04-18T10:33:32.998Z</time></trkpt><trkpt lat="42.52230917084299" lon="13.377529729033832"><ele>1329.0</ele><time>2026-04-18T10:33:33.998Z</time></trkpt><trkpt lat="42.52235296038724" lon="13.377362758354034"><ele>1329.0</ele><time>2026-04-18T10:33:34.998Z</time></trkpt><trkpt lat="42.5224406473705" lon="13.377224117277363"><ele>1329.0</ele><time>2026-04-18T10:33:35.998Z</time></trkpt><trkpt lat="42.52251173373954" lon="13.377049996872717"><ele>1329.0</ele><time>2026-04-18T10:33:36.998Z</time></trkpt><trkpt lat="42.52259979088271" lon="13.376883576577331"><ele>1331.3333333333333</ele><time>2026-04-18T10:33:37.998Z</time></trkpt><trkpt lat="42.52266257653504" lon="13.376689797473574"><ele>1333.6666666666665</ele><time>2026-04-18T10:33:38.997Z</time></trkpt><trkpt lat="42.52270989386589" lon="13.376475726212961"><ele>1336.0</ele><time>2026-04-18T10:33:39.997Z</time></trkpt><trkpt lat="42.52274105081462" lon="13.376250655928022"><ele>1338.6666666666665</ele><time>2026-04-18T10:33:40.997Z</time></trkpt><trkpt lat="42.52276892097706" lon="13.376017241129736"><ele>1341.3333333333333</ele><time>2026-04-18T10:33:41.997Z</time></trkpt><trkpt lat="42.522803353391524" lon="13.375790546825186"><ele>1344.0</ele><time>2026-04-18T10:33:42.997Z</time></trkpt><trkpt lat="42.522842234187586" lon="13.37556992852165"><ele>1345.0</ele><time>2026-04-18T10:33:43.997Z</time></trkpt><trkpt lat="42.52289284765756" lon="13.375370092075004"><ele>1346.0</ele><time>2026-04-18T10:33:44.997Z</time></trkpt><trkpt lat="42.52299721032139" lon="13.375209916610112"><ele>1347.0</ele><time>2026-04-18T10:33:45.997Z</time></trkpt><trkpt lat="42.52312512528939" lon="13.37508141098088"><ele>1342.0</ele><time>2026-04-18T10:33:46.997Z</time></trkpt><trkpt lat="42.523258142086384" lon="13.374923864149823"><ele>1337.0</ele><time>2026-04-18T10:33:47.997Z</time></trkpt><trkpt lat="42.52340107301255" lon="13.374787073242263"><ele>1332.0</ele><time>2026-04-18T10:33:48.997Z</time></trkpt><trkpt lat="42.523521089790044" lon="13.374614295473103"><ele>1332.0</ele><time>2026-04-18T10:33:49.997Z</time></trkpt><trkpt lat="42.52362659882559" lon="13.37442993221891"><ele>1332.0</ele><time>2026-04-18T10:33:50.997Z</time></trkpt><trkpt lat="42.5237066241678" lon="13.374238611999221"><ele>1332.0</ele><time>2026-04-18T10:33:51.997Z</time></trkpt><trkpt lat="42.5237452844577" lon="13.374017069941711"><ele>1332.3333333333333</ele><time>2026-04-18T10:33:52.997Z</time></trkpt><trkpt lat="42.523742178413706" lon="13.373794390338622"><ele>1332.6666666666665</ele><time>2026-04-18T10:33:53.997Z</time></trkpt><trkpt lat="42.52371370829148" lon="13.373572434510816"><ele>1333.0</ele><time>2026-04-18T10:33:54.997Z</time></trkpt><trkpt lat="42.52367121717638" lon="13.373356125294915"><ele>1333.0</ele><time>2026-04-18T10:33:55.997Z</time></trkpt><trkpt lat="42.52361774450112" lon="13.373142018375962"><ele>1333.0</ele><time>2026-04-18T10:33:57Z</time></trkpt><trkpt lat="42.52355837567951" lon="13.37294680382862"><ele>1333.0</ele><time>2026-04-18T10:33:58Z</time></trkpt><trkpt lat="42.52349692457816" lon="13.372765335337773"><ele>1332.0</ele><time>2026-04-18T10:33:59Z</time></trkpt><trkpt lat="42.52344168250506" lon="13.372604212881802"><ele>1331.0</ele><time>2026-04-18T10:34:00Z</time></trkpt><trkpt lat="42.52340583270064" lon="13.372465823376379"><ele>1330.0</ele><time>2026-04-18T10:34:01Z</time></trkpt><trkpt lat="42.52340374594988" lon="13.372341110981354"><ele>1329.0</ele><time>2026-04-18T10:34:02Z</time></trkpt><trkpt lat="42.52353354023124" lon="13.372175719865075"><ele>1327.5</ele><time>2026-04-18T10:34:04Z</time></trkpt><trkpt lat="42.52362653176884" lon="13.372089739825043"><ele>1326.0</ele><time>2026-04-18T10:34:05Z</time></trkpt><trkpt lat="42.52371966863847" lon="13.37198933093817"><ele>1324.5</ele><time>2026-04-18T10:34:06Z</time></trkpt><trkpt lat="42.523822064557585" lon="13.371896267764846"><ele>1323.0</ele><time>2026-04-18T10:34:07Z</time></trkpt><trkpt lat="42.52392627386595" lon="13.371798668185487"><ele>1320.0</ele><time>2026-04-18T10:34:08Z</time></trkpt><trkpt lat="42.52403607258764" lon="13.371697827131692"><ele>1317.0</ele><time>2026-04-18T10:34:09Z</time></trkpt><trkpt lat="42.52415110051788" lon="13.37159593246897"><ele>1314.0</ele><time>2026-04-18T10:34:10Z</time></trkpt><trkpt lat="42.52426445063286" lon="13.371491456995441"><ele>1311.0</ele><time>2026-04-18T10:34:11Z</time></trkpt><trkpt lat="42.52437988480103" lon="13.37138385564634"><ele>1311.0</ele><time>2026-04-18T10:34:12Z</time></trkpt><trkpt lat="42.5244939548825" lon="13.371275361400853"><ele>1311.0</ele><time>2026-04-18T10:34:13Z</time></trkpt><trkpt lat="42.524612802740826" lon="13.371167454028884"><ele>1311.0</ele><time>2026-04-18T10:34:14Z</time></trkpt><trkpt lat="42.52473233126617" lon="13.371056498911493"><ele>1311.0</ele><time>2026-04-18T10:34:15Z</time></trkpt><trkpt lat="42.5248523950409" lon="13.370944751654736"><ele>1311.0</ele><time>2026-04-18T10:34:16Z</time></trkpt><trkpt lat="42.52497653377416" lon="13.370835048055861"><ele>1311.0</ele><time>2026-04-18T10:34:17Z</time></trkpt><trkpt lat="42.525099492923665" lon="13.370724576772226"><ele>1311.0</ele><time>2026-04-18T10:34:18Z</time></trkpt><trkpt lat="42.52522079115108" lon="13.370608690144387"><ele>1311.0</ele><time>2026-04-18T10:34:19Z</time></trkpt><trkpt lat="42.525341095619105" lon="13.370490760556468"><ele>1311.0</ele><time>2026-04-18T10:34:20Z</time></trkpt><trkpt lat="42.525462689011" lon="13.370377746033482"><ele>1311.0</ele><time>2026-04-18T10:34:21Z</time></trkpt><trkpt lat="42.52558675798049" lon="13.37026755192646"><ele>1311.0</ele><time>2026-04-18T10:34:22Z</time></trkpt><trkpt lat="42.52570795367251" lon="13.370156983036834"><ele>1311.0</ele><time>2026-04-18T10:34:23Z</time></trkpt><trkpt lat="42.525827450346846" lon="13.370046005659473"><ele>1311.0</ele><time>2026-04-18T10:34:24Z</time></trkpt><trkpt lat="42.525948229372226" lon="13.369934512344336"><ele>1311.0</ele><time>2026-04-18T10:34:25Z</time></trkpt><trkpt lat="42.5260665875067" lon="13.369828005299656"><ele>1311.0</ele><time>2026-04-18T10:34:26Z</time></trkpt><trkpt lat="42.526181424128794" lon="13.369721725771878"><ele>1311.0</ele><time>2026-04-18T10:34:27Z</time></trkpt><trkpt lat="42.52629361141528" lon="13.369613526892099"><ele>1311.25</ele><time>2026-04-18T10:34:28Z</time></trkpt><trkpt lat="42.52640353061278" lon="13.36951180157678"><ele>1311.5</ele><time>2026-04-18T10:34:29Z</time></trkpt><trkpt lat="42.52651214630647" lon="13.369415581255128"><ele>1311.75</ele><time>2026-04-18T10:34:30Z</time></trkpt><trkpt lat="42.52661631697378" lon="13.369318480749383"><ele>1312.0</ele><time>2026-04-18T10:34:31Z</time></trkpt><trkpt lat="42.52671670200422" lon="13.369226088851168"><ele>1312.0</ele><time>2026-04-18T10:34:32Z</time></trkpt><trkpt lat="42.52680930211021" lon="13.369137338312374"><ele>1312.0</ele><time>2026-04-18T10:34:32.999Z</time></trkpt><trkpt lat="42.52689818181141" lon="13.369055690208564"><ele>1312.0</ele><time>2026-04-18T10:34:33.999Z</time></trkpt><trkpt lat="42.52697808558901" lon="13.368981646844343"><ele>1312.0</ele><time>2026-04-18T10:34:34.999Z</time></trkpt><trkpt lat="42.52704940764374" lon="13.368912764103406"><ele>1312.0</ele><time>2026-04-18T10:34:35.999Z</time></trkpt><trkpt lat="42.527118232076496" lon="13.36884807759767"><ele>1316.6</ele><time>2026-04-18T10:34:36.999Z</time></trkpt><trkpt lat="42.527176076282565" lon="13.36879417564602"><ele>1321.1999999999998</ele><time>2026-04-18T10:34:37.999Z</time></trkpt><trkpt lat="42.52727865138559" lon="13.368724326645994"><ele>1325.8</ele><time>2026-04-18T10:34:39.999Z</time></trkpt><trkpt lat="42.52734348400833" lon="13.368657573364628"><ele>1330.4</ele><time>2026-04-18T10:34:41.999Z</time></trkpt><trkpt lat="42.527443875157175" lon="13.368738749136044"><ele>1335.0</ele><time>2026-04-18T10:34:43.999Z</time></trkpt><trkpt lat="42.527501127286975" lon="13.368793199818038"><ele>1335.0</ele><time>2026-04-18T10:34:45.999Z</time></trkpt><trkpt lat="42.52756940697977" lon="13.368864871484183"><ele>1335.0</ele><time>2026-04-18T10:34:48.999Z</time></trkpt><trkpt lat="42.527498709951566" lon="13.368916419381812"><ele>1335.0</ele><time>2026-04-18T10:36:25Z</time></trkpt><trkpt lat="42.527443035067186" lon="13.36899808844117"><ele>1335.0</ele><time>2026-04-18T10:37:14.999Z</time></trkpt><trkpt lat="42.527415594978265" lon="13.368915288215584"><ele>1335.0</ele><time>2026-04-18T10:41:10.999Z</time></trkpt><trkpt lat="42.52736635323901" lon="13.36885284749507"><ele>1335.0</ele><time>2026-04-18T10:41:18.998Z</time></trkpt><trkpt lat="42.527450243936556" lon="13.368982243316859"><ele>1335.0</ele><time>2026-04-18T11:07:32Z</time></trkpt><trkpt lat="42.527520608085965" lon="13.368952972736126"><ele>1335.0</ele><time>2026-04-18T11:07:43Z</time></trkpt><trkpt lat="42.52758555109579" lon="13.368930003546964"><ele>1335.0</ele><time>2026-04-18T11:15:18.998Z</time></trkpt><trkpt lat="42.527642858608516" lon="13.368975972200705"><ele>1335.0</ele><time>2026-04-18T11:15:21.998Z</time></trkpt><trkpt lat="42.52770868213793" lon="13.368949992695383"><ele>1335.0</ele><time>2026-04-18T11:15:25.998Z</time></trkpt><trkpt lat="42.52765739919836" lon="13.368890016139144"><ele>1335.0</ele><time>2026-04-18T11:15:27.998Z</time></trkpt><trkpt lat="42.52757911813796" lon="13.368905158448072"><ele>1335.0</ele><time>2026-04-18T11:15:29.998Z</time></trkpt><trkpt lat="42.52753425835526" lon="13.368830345634354"><ele>1335.0</ele><time>2026-04-18T11:15:41.998Z</time></trkpt><trkpt lat="42.52743812175062" lon="13.368695410612677"><ele>1335.0</ele><time>2026-04-18T11:15:43.998Z</time></trkpt><trkpt lat="42.52738053065056" lon="13.368626593520489"><ele>1335.0</ele><time>2026-04-18T11:15:44.998Z</time></trkpt><trkpt lat="42.527180209104" lon="13.36875095636261"><ele>1335.0</ele><time>2026-04-18T11:15:46.998Z</time></trkpt><trkpt lat="42.527076697678126" lon="13.368851875204296"><ele>1327.3333333333333</ele><time>2026-04-18T11:15:48Z</time></trkpt><trkpt lat="42.526953437354095" lon="13.368967654653035"><ele>1319.6666666666665</ele><time>2026-04-18T11:15:49Z</time></trkpt><trkpt lat="42.52681779463346" lon="13.369096189307774"><ele>1312.0</ele><time>2026-04-18T11:15:50Z</time></trkpt><trkpt lat="42.52666746579799" lon="13.36923666737792"><ele>1312.0</ele><time>2026-04-18T11:15:51Z</time></trkpt><trkpt lat="42.52651073137822" lon="13.369386787835781"><ele>1312.0</ele><time>2026-04-18T11:15:52Z</time></trkpt><trkpt lat="42.526345086321115" lon="13.369521845581968"><ele>1312.0</ele><time>2026-04-18T11:15:53Z</time></trkpt><trkpt lat="42.52616417878804" lon="13.369703676511586"><ele>1311.6666666666665</ele><time>2026-04-18T11:15:54Z</time></trkpt><trkpt lat="42.525979633510744" lon="13.369869451644526"><ele>1311.3333333333333</ele><time>2026-04-18T11:15:55Z</time></trkpt><trkpt lat="42.52579495031894" lon="13.370042743472524"><ele>1311.0</ele><time>2026-04-18T11:15:56Z</time></trkpt><trkpt lat="42.525608952365126" lon="13.370214946635777"><ele>1311.0</ele><time>2026-04-18T11:15:57Z</time></trkpt><trkpt lat="42.5254316211131" lon="13.370376148474119"><ele>1311.0</ele><time>2026-04-18T11:15:58Z</time></trkpt><trkpt lat="42.52526363761915" lon="13.370528513346864"><ele>1311.0</ele><time>2026-04-18T11:15:59Z</time></trkpt><trkpt lat="42.525105305298744" lon="13.370678322849187"><ele>1311.0</ele><time>2026-04-18T11:16:00Z</time></trkpt><trkpt lat="42.524953212577515" lon="13.370825281185343"><ele>1311.0</ele><time>2026-04-18T11:16:01Z</time></trkpt><trkpt lat="42.524805486630434" lon="13.370966306864991"><ele>1311.0</ele><time>2026-04-18T11:16:02Z</time></trkpt><trkpt lat="42.52465885447791" lon="13.371101279672777"><ele>1311.0</ele><time>2026-04-18T11:16:03Z</time></trkpt><trkpt lat="42.52451500030486" lon="13.371231533639891"><ele>1311.0</ele><time>2026-04-18T11:16:04Z</time></trkpt><trkpt lat="42.52437505618596" lon="13.37135961637238"><ele>1311.0</ele><time>2026-04-18T11:16:05Z</time></trkpt><trkpt lat="42.524237050000146" lon="13.371490009965207"><ele>1311.0</ele><time>2026-04-18T11:16:06Z</time></trkpt><trkpt lat="42.52410645025789" lon="13.371612311819321"><ele>1311.0</ele><time>2026-04-18T11:16:07Z</time></trkpt><trkpt lat="42.52398004745918" lon="13.371727822820505"><ele>1311.0</ele><time>2026-04-18T11:16:08Z</time></trkpt><trkpt lat="42.52386079154717" lon="13.37183303017632"><ele>1311.0</ele><time>2026-04-18T11:16:09Z</time></trkpt><trkpt lat="42.52375111185737" lon="13.371933720524815"><ele>1311.0</ele><time>2026-04-18T11:16:10Z</time></trkpt><trkpt lat="42.523648748844394" lon="13.372031119072863"><ele>1311.0</ele><time>2026-04-18T11:16:11Z</time></trkpt><trkpt lat="42.52355211132396" lon="13.372119818190145"><ele>1311.0</ele><time>2026-04-18T11:16:12Z</time></trkpt><trkpt lat="42.52346667838192" lon="13.372191879680779"><ele>1313.4</ele><time>2026-04-18T11:16:13Z</time></trkpt><trkpt lat="42.52339134699383" lon="13.372228475026173"><ele>1315.8</ele><time>2026-04-18T11:16:14Z</time></trkpt><trkpt lat="42.52326329459278" lon="13.372150014891163"><ele>1318.2</ele><time>2026-04-18T11:16:15.999Z</time></trkpt><trkpt lat="42.5232230280717" lon="13.372041457719483"><ele>1320.6000000000001</ele><time>2026-04-18T11:16:16.999Z</time></trkpt><trkpt lat="42.523183172735614" lon="13.37190970541773"><ele>1323.0</ele><time>2026-04-18T11:16:17.999Z</time></trkpt><trkpt lat="42.52312837864117" lon="13.371785693322254"><ele>1323.0</ele><time>2026-04-18T11:16:18.999Z</time></trkpt><trkpt lat="42.523062778582954" lon="13.371646537226184"><ele>1323.0</ele><time>2026-04-18T11:16:19.999Z</time></trkpt><trkpt lat="42.52299084958593" lon="13.371497038873954"><ele>1323.0</ele><time>2026-04-18T11:16:20.999Z</time></trkpt><trkpt lat="42.52291067183789" lon="13.371350590965509"><ele>1323.0</ele><time>2026-04-18T11:16:21.999Z</time></trkpt><trkpt lat="42.52280903398035" lon="13.371231387806512"><ele>1322.5</ele><time>2026-04-18T11:16:22.999Z</time></trkpt><trkpt lat="42.52269274284411" lon="13.371144918191185"><ele>1322.0</ele><time>2026-04-18T11:16:23.999Z</time></trkpt><trkpt lat="42.52256239907742" lon="13.371111450959615"><ele>1321.5</ele><time>2026-04-18T11:16:24.999Z</time></trkpt><trkpt lat="42.52243127182516" lon="13.37114327659877"><ele>1321.0</ele><time>2026-04-18T11:16:25.999Z</time></trkpt><trkpt lat="42.522320994782476" lon="13.371239335951527"><ele>1321.75</ele><time>2026-04-18T11:16:26.999Z</time></trkpt><trkpt lat="42.52223418994699" lon="13.37137257164165"><ele>1322.5</ele><time>2026-04-18T11:16:27.999Z</time></trkpt><trkpt lat="42.52215595676763" lon="13.371518752437362"><ele>1323.25</ele><time>2026-04-18T11:16:28.999Z</time></trkpt><trkpt lat="42.52206778908167" lon="13.371659079419842"><ele>1324.0</ele><time>2026-04-18T11:16:29.999Z</time></trkpt><trkpt lat="42.52196792493907" lon="13.371790186285033"><ele>1324.0</ele><time>2026-04-18T11:16:30.999Z</time></trkpt><trkpt lat="42.521858705084995" lon="13.37190169777577"><ele>1324.0</ele><time>2026-04-18T11:16:31.999Z</time></trkpt><trkpt lat="42.52173393489432" lon="13.371989361327108"><ele>1324.0</ele><time>2026-04-18T11:16:32.999Z</time></trkpt><trkpt lat="42.521597682008284" lon="13.372050429589756"><ele>1324.0</ele><time>2026-04-18T11:16:33.999Z</time></trkpt><trkpt lat="42.5214588337147" lon="13.372109930978512"><ele>1324.0</ele><time>2026-04-18T11:16:34.999Z</time></trkpt><trkpt lat="42.52132043149414" lon="13.372185035999543"><ele>1324.0</ele><time>2026-04-18T11:16:35.999Z</time></trkpt><trkpt lat="42.521193760223206" lon="13.37228495448869"><ele>1324.0</ele><time>2026-04-18T11:16:36.999Z</time></trkpt><trkpt lat="42.5210835887387" lon="13.372411425209808"><ele>1324.0</ele><time>2026-04-18T11:16:37.999Z</time></trkpt><trkpt lat="42.5209935114456" lon="13.372548840470047"><ele>1326.25</ele><time>2026-04-18T11:16:38.999Z</time></trkpt><trkpt lat="42.520908775817965" lon="13.372673514530211"><ele>1328.5</ele><time>2026-04-18T11:16:39.999Z</time></trkpt><trkpt lat="42.520816182243856" lon="13.372765018625818"><ele>1330.75</ele><time>2026-04-18T11:16:40.999Z</time></trkpt><trkpt lat="42.52071665989885" lon="13.372816120633098"><ele>1333.0</ele><time>2026-04-18T11:16:41.999Z</time></trkpt><trkpt lat="42.52061254130416" lon="13.372817686992965"><ele>1333.0</ele><time>2026-04-18T11:16:42.999Z</time></trkpt><trkpt lat="42.52050967871889" lon="13.372773509697382"><ele>1333.0</ele><time>2026-04-18T11:16:43.999Z</time></trkpt><trkpt lat="42.520411828366036" lon="13.372695403278072"><ele>1333.0</ele><time>2026-04-18T11:16:44.999Z</time></trkpt><trkpt lat="42.520327271246515" lon="13.37259665841036"><ele>1333.0</ele><time>2026-04-18T11:16:45.999Z</time></trkpt><trkpt lat="42.52027092428288" lon="13.372471502187627"><ele>1333.0</ele><time>2026-04-18T11:16:46.999Z</time></trkpt><trkpt lat="42.52025394675425" lon="13.372330162328593"><ele>1331.5</ele><time>2026-04-18T11:16:47.999Z</time></trkpt><trkpt lat="42.52028183772854" lon="13.372185553426261"><ele>1330.0</ele><time>2026-04-18T11:16:48.999Z</time></trkpt><trkpt lat="42.52034784503901" lon="13.372052602043922"><ele>1328.5</ele><time>2026-04-18T11:16:49.999Z</time></trkpt><trkpt lat="42.52042532564922" lon="13.371921195466406"><ele>1327.0</ele><time>2026-04-18T11:16:50.999Z</time></trkpt><trkpt lat="42.5204991755733" lon="13.371774964433989"><ele>1327.0</ele><time>2026-04-18T11:16:51.999Z</time></trkpt><trkpt lat="42.520574128398" lon="13.3716224741981"><ele>1327.0</ele><time>2026-04-18T11:16:52.999Z</time></trkpt><trkpt lat="42.520647190517444" lon="13.371472314560775"><ele>1327.0</ele><time>2026-04-18T11:16:53.999Z</time></trkpt><trkpt lat="42.520716921092394" lon="13.371327565369947"><ele>1327.0</ele><time>2026-04-18T11:16:54.999Z</time></trkpt><trkpt lat="42.52075815846725" lon="13.371178851444524"><ele>1327.0</ele><time>2026-04-18T11:16:55.999Z</time></trkpt><trkpt lat="42.520752723467815" lon="13.371027419661164"><ele>1327.0</ele><time>2026-04-18T11:16:56.999Z</time></trkpt><trkpt lat="42.52070453984102" lon="13.370890092035864"><ele>1327.0</ele><time>2026-04-18T11:16:57.999Z</time></trkpt><trkpt lat="42.52062218872401" lon="13.370787112164292"><ele>1327.0</ele><time>2026-04-18T11:16:58.999Z</time></trkpt><trkpt lat="42.52052243890373" lon="13.37072062666311"><ele>1327.0</ele><time>2026-04-18T11:16:59.999Z</time></trkpt><trkpt lat="42.520414442662066" lon="13.37069152608184"><ele>1327.6</ele><time>2026-04-18T11:17:00.999Z</time></trkpt><trkpt lat="42.520305605212705" lon="13.37068160127277"><ele>1328.1999999999998</ele><time>2026-04-18T11:17:01.998Z</time></trkpt><trkpt lat="42.52019574904445" lon="13.370660918014398"><ele>1328.8</ele><time>2026-04-18T11:17:02.998Z</time></trkpt><trkpt lat="42.520089894080066" lon="13.3706090534309"><ele>1329.4</ele><time>2026-04-18T11:17:03.998Z</time></trkpt><trkpt lat="42.5199932582714" lon="13.370526696228527"><ele>1330.0</ele><time>2026-04-18T11:17:04.998Z</time></trkpt><trkpt lat="42.51990632917397" lon="13.37042554768263"><ele>1330.0</ele><time>2026-04-18T11:17:05.998Z</time></trkpt><trkpt lat="42.51983016998191" lon="13.370311676398373"><ele>1330.0</ele><time>2026-04-18T11:17:06.998Z</time></trkpt><trkpt lat="42.519750892966385" lon="13.37020108002843"><ele>1330.0</ele><time>2026-04-18T11:17:07.998Z</time></trkpt><trkpt lat="42.51966463546438" lon="13.370098094296727"><ele>1330.0</ele><time>2026-04-18T11:17:08.998Z</time></trkpt><trkpt lat="42.51957930202047" lon="13.369992567848398"><ele>1331.8</ele><time>2026-04-18T11:17:09.998Z</time></trkpt><trkpt lat="42.51950441801527" lon="13.369878389503379"><ele>1333.6</ele><time>2026-04-18T11:17:10.998Z</time></trkpt><trkpt lat="42.51945007644216" lon="13.369748711271852"><ele>1335.4</ele><time>2026-04-18T11:17:11.998Z</time></trkpt><trkpt lat="42.51943324720633" lon="13.369605952267841"><ele>1337.2</ele><time>2026-04-18T11:17:12.998Z</time></trkpt><trkpt lat="42.51945017131266" lon="13.369468412407915"><ele>1339.0</ele><time>2026-04-18T11:17:13.998Z</time></trkpt><trkpt lat="42.51947660236703" lon="13.36934033819877"><ele>1339.0</ele><time>2026-04-18T11:17:14.998Z</time></trkpt><trkpt lat="42.51949469432035" lon="13.369211529900122"><ele>1339.0</ele><time>2026-04-18T11:17:15.998Z</time></trkpt><trkpt lat="42.519490991402826" lon="13.369076229020738"><ele>1339.0</ele><time>2026-04-18T11:17:16.998Z</time></trkpt><trkpt lat="42.51946921154347" lon="13.368940556195424"><ele>1339.0</ele><time>2026-04-18T11:17:17.998Z</time></trkpt><trkpt lat="42.51942708983283" lon="13.368807455769817"><ele>1339.0</ele><time>2026-04-18T11:17:18.998Z</time></trkpt><trkpt lat="42.51936451994683" lon="13.368681495637867"><ele>1336.75</ele><time>2026-04-18T11:17:19.998Z</time></trkpt><trkpt lat="42.51928565819298" lon="13.368571402339358"><ele>1334.5</ele><time>2026-04-18T11:17:20.998Z</time></trkpt><trkpt lat="42.519193878635924" lon="13.368473827531263"><ele>1332.25</ele><time>2026-04-18T11:17:21.998Z</time></trkpt><trkpt lat="42.519092332117246" lon="13.368388374903615"><ele>1330.0</ele><time>2026-04-18T11:17:22.998Z</time></trkpt><trkpt lat="42.51898134870761" lon="13.368318517840825"><ele>1330.0</ele><time>2026-04-18T11:17:23.998Z</time></trkpt><trkpt lat="42.51885913367318" lon="13.368282445665487"><ele>1330.0</ele><time>2026-04-18T11:17:24.998Z</time></trkpt><trkpt lat="42.51873017203055" lon="13.368290763913494"><ele>1330.0</ele><time>2026-04-18T11:17:25.998Z</time></trkpt><trkpt lat="42.518602697115156" lon="13.36833023630056"><ele>1330.0</ele><time>2026-04-18T11:17:26.998Z</time></trkpt><trkpt lat="42.51847773651" lon="13.368388794162467"><ele>1329.5</ele><time>2026-04-18T11:17:27.998Z</time></trkpt><trkpt lat="42.51836035701412" lon="13.368473111528694"><ele>1329.0</ele><time>2026-04-18T11:17:28.998Z</time></trkpt><trkpt lat="42.518260480698856" lon="13.368595343339907"><ele>1328.5</ele><time>2026-04-18T11:17:29.998Z</time></trkpt><trkpt lat="42.51817149222334" lon="13.368735999001652"><ele>1328.0</ele><time>2026-04-18T11:17:30.998Z</time></trkpt><trkpt lat="42.51807451314081" lon="13.36886799355365"><ele>1330.5</ele><time>2026-04-18T11:17:31.998Z</time></trkpt><trkpt lat="42.5179544953812" lon="13.368961886779983"><ele>1333.0</ele><time>2026-04-18T11:17:32.998Z</time></trkpt><trkpt lat="42.51781556865977" lon="13.369005894218292"><ele>1335.5</ele><time>2026-04-18T11:17:33.998Z</time></trkpt><trkpt lat="42.51766921580127" lon="13.36902016859388"><ele>1338.0</ele><time>2026-04-18T11:17:34.998Z</time></trkpt><trkpt lat="42.517518207196794" lon="13.369025885768535"><ele>1338.0</ele><time>2026-04-18T11:17:35.998Z</time></trkpt><trkpt lat="42.51736576912812" lon="13.36903861187733"><ele>1338.0</ele><time>2026-04-18T11:17:36.998Z</time></trkpt><trkpt lat="42.5172147255404" lon="13.369054887965302"><ele>1338.0</ele><time>2026-04-18T11:17:37.998Z</time></trkpt><trkpt lat="42.51706454096546" lon="13.369080819242182"><ele>1335.3333333333333</ele><time>2026-04-18T11:17:38.998Z</time></trkpt><trkpt lat="42.51691583104547" lon="13.369124181004047"><ele>1332.6666666666665</ele><time>2026-04-18T11:17:39.998Z</time></trkpt><trkpt lat="42.51677031602563" lon="13.369180261608289"><ele>1330.0</ele><time>2026-04-18T11:17:40.998Z</time></trkpt><trkpt lat="42.51662687227283" lon="13.369240789269998"><ele>1330.0</ele><time>2026-04-18T11:17:41.998Z</time></trkpt><trkpt lat="42.51648440920813" lon="13.369305011968224"><ele>1330.0</ele><time>2026-04-18T11:17:42.998Z</time></trkpt><trkpt lat="42.51634381388765" lon="13.369381096642986"><ele>1330.0</ele><time>2026-04-18T11:17:43.998Z</time></trkpt><trkpt lat="42.516215569084565" lon="13.369483226788601"><ele>1330.25</ele><time>2026-04-18T11:17:44.998Z</time></trkpt><trkpt lat="42.51610041492448" lon="13.369611509085647"><ele>1330.5</ele><time>2026-04-18T11:17:45.998Z</time></trkpt><trkpt lat="42.51599392702987" lon="13.369752085310864"><ele>1330.75</ele><time>2026-04-18T11:17:46.998Z</time></trkpt><trkpt lat="42.515890757931466" lon="13.369897855731997"><ele>1331.0</ele><time>2026-04-18T11:17:47.998Z</time></trkpt><trkpt lat="42.515787694432305" lon="13.370044174898565"><ele>1331.0</ele><time>2026-04-18T11:17:48.998Z</time></trkpt><trkpt lat="42.515675391066196" lon="13.370176599665708"><ele>1331.0</ele><time>2026-04-18T11:17:49.997Z</time></trkpt><trkpt lat="42.51555217736989" lon="13.37028166490442"><ele>1331.0</ele><time>2026-04-18T11:17:50.997Z</time></trkpt><trkpt lat="42.515426176773396" lon="13.370374606648122"><ele>1331.0</ele><time>2026-04-18T11:17:51.997Z</time></trkpt><trkpt lat="42.51530478151709" lon="13.370465961715505"><ele>1329.25</ele><time>2026-04-18T11:17:52.997Z</time></trkpt><trkpt lat="42.51518663937409" lon="13.370553659838825"><ele>1327.5</ele><time>2026-04-18T11:17:53.999Z</time></trkpt><trkpt lat="42.515061502233586" lon="13.370611017838645"><ele>1325.75</ele><time>2026-04-18T11:17:54.999Z</time></trkpt><trkpt lat="42.514932193210136" lon="13.370634897620949"><ele>1324.0</ele><time>2026-04-18T11:17:55.999Z</time></trkpt><trkpt lat="42.51479999275033" lon="13.370624005073635"><ele>1324.0</ele><time>2026-04-18T11:17:56.999Z</time></trkpt><trkpt lat="42.514671389520004" lon="13.370581722204605"><ele>1324.0</ele><time>2026-04-18T11:17:57.999Z</time></trkpt><trkpt lat="42.51455030180969" lon="13.370509565723175"><ele>1324.0</ele><time>2026-04-18T11:17:58.999Z</time></trkpt><trkpt lat="42.5144392227222" lon="13.370417840009223"><ele>1324.0</ele><time>2026-04-18T11:17:59.999Z</time></trkpt><trkpt lat="42.51432573073418" lon="13.370319636574271"><ele>1321.5</ele><time>2026-04-18T11:18:00.999Z</time></trkpt><trkpt lat="42.514207058166676" lon="13.3702166273813"><ele>1319.0</ele><time>2026-04-18T11:18:01.999Z</time></trkpt><trkpt lat="42.51407930984199" lon="13.370116324351638"><ele>1316.5</ele><time>2026-04-18T11:18:02.999Z</time></trkpt><trkpt lat="42.51395427628934" lon="13.370017714811066"><ele>1314.0</ele><time>2026-04-18T11:18:04Z</time></trkpt><trkpt lat="42.51383716979076" lon="13.369914647635861"><ele>1313.0</ele><time>2026-04-18T11:18:05Z</time></trkpt><trkpt lat="42.51372797305503" lon="13.369804131709564"><ele>1312.0</ele><time>2026-04-18T11:18:06Z</time></trkpt><trkpt lat="42.513627527352796" lon="13.369683607498688"><ele>1311.0</ele><time>2026-04-18T11:18:07Z</time></trkpt><trkpt lat="42.51353949550728" lon="13.369552394230308"><ele>1310.0</ele><time>2026-04-18T11:18:08Z</time></trkpt><trkpt lat="42.513466811829694" lon="13.369407809560823"><ele>1310.0</ele><time>2026-04-18T11:18:09Z</time></trkpt><trkpt lat="42.51341126767753" lon="13.369255373647054"><ele>1310.0</ele><time>2026-04-18T11:18:10Z</time></trkpt><trkpt lat="42.51337200811484" lon="13.369104267550911"><ele>1310.0</ele><time>2026-04-18T11:18:11Z</time></trkpt><trkpt lat="42.51334309346573" lon="13.36895324228372"><ele>1310.0</ele><time>2026-04-18T11:18:12Z</time></trkpt><trkpt lat="42.51332059059051" lon="13.36880400964243"><ele>1309.4</ele><time>2026-04-18T11:18:12.999Z</time></trkpt><trkpt lat="42.5132999478528" lon="13.368658021851592"><ele>1308.8</ele><time>2026-04-18T11:18:13.999Z</time></trkpt><trkpt lat="42.51328014403722" lon="13.368512493004806"><ele>1308.1999999999998</ele><time>2026-04-18T11:18:14.999Z</time></trkpt><trkpt lat="42.513258694966986" lon="13.368372976454232"><ele>1307.6</ele><time>2026-04-18T11:18:15.999Z</time></trkpt><trkpt lat="42.5132354804197" lon="13.368242002744337"><ele>1307.0</ele><time>2026-04-18T11:18:16.999Z</time></trkpt><trkpt lat="42.51321530699523" lon="13.36812242512964"><ele>1307.1666666666667</ele><time>2026-04-18T11:18:17.999Z</time></trkpt><trkpt lat="42.51320004203108" lon="13.368011442166107"><ele>1307.3333333333335</ele><time>2026-04-18T11:18:18.999Z</time></trkpt><trkpt lat="42.51318392423054" lon="13.367917885460749"><ele>1307.5</ele><time>2026-04-18T11:18:19.999Z</time></trkpt><trkpt lat="42.513146604312794" lon="13.367770951761766"><ele>1307.6666666666667</ele><time>2026-04-18T11:18:21.999Z</time></trkpt><trkpt lat="42.51310642499638" lon="13.367659202451842"><ele>1307.8333333333333</ele><time>2026-04-18T11:18:23.999Z</time></trkpt><trkpt lat="42.513073961117236" lon="13.367564968248635"><ele>1308.0</ele><time>2026-04-18T11:18:26.999Z</time></trkpt><trkpt lat="42.51305019558869" lon="13.367474736305725"><ele>1308.0</ele><time>2026-04-18T11:18:58.999Z</time></trkpt><trkpt lat="42.51298628251373" lon="13.367358118574405"><ele>1308.0</ele><time>2026-04-18T11:19:00.999Z</time></trkpt><trkpt lat="42.512922119030115" lon="13.367227845869644"><ele>1308.0</ele><time>2026-04-18T11:19:02.999Z</time></trkpt><trkpt lat="42.51285677883166" lon="13.36708830551888"><ele>1308.0</ele><time>2026-04-18T11:19:04.999Z</time></trkpt><trkpt lat="42.51282134830414" lon="13.367013289270735"><ele>1308.0</ele><time>2026-04-18T11:19:05.999Z</time></trkpt><trkpt lat="42.5127795097638" lon="13.366931668040154"><ele>1306.0</ele><time>2026-04-18T11:19:06.999Z</time></trkpt><trkpt lat="42.51273548223087" lon="13.366844463008274"><ele>1304.0</ele><time>2026-04-18T11:19:07.999Z</time></trkpt><trkpt lat="42.51269458007238" lon="13.366748772863591"><ele>1302.0</ele><time>2026-04-18T11:19:08.999Z</time></trkpt><trkpt lat="42.512656829792256" lon="13.36663517021536"><ele>1300.0</ele><time>2026-04-18T11:19:09.998Z</time></trkpt><trkpt lat="42.51261508194435" lon="13.366506050881465"><ele>1298.0</ele><time>2026-04-18T11:19:10.998Z</time></trkpt><trkpt lat="42.512566820491294" lon="13.366367635359628"><ele>1299.25</ele><time>2026-04-18T11:19:11.998Z</time></trkpt><trkpt lat="42.512517299499116" lon="13.366219273096547"><ele>1300.5</ele><time>2026-04-18T11:19:12.998Z</time></trkpt><trkpt lat="42.51246773354995" lon="13.36606684356769"><ele>1301.75</ele><time>2026-04-18T11:19:13.998Z</time></trkpt><trkpt lat="42.51241106192852" lon="13.365903744646324"><ele>1303.0</ele><time>2026-04-18T11:19:14.998Z</time></trkpt><trkpt lat="42.512352456600325" lon="13.36573404917816"><ele>1303.0</ele><time>2026-04-18T11:19:15.998Z</time></trkpt><trkpt lat="42.51229271066632" lon="13.36555740938418"><ele>1303.0</ele><time>2026-04-18T11:19:16.998Z</time></trkpt><trkpt lat="42.512230412981246" lon="13.365374970566716"><ele>1303.0</ele><time>2026-04-18T11:19:17.998Z</time></trkpt><trkpt lat="42.51217262697386" lon="13.365184995944853"><ele>1303.0</ele><time>2026-04-18T11:19:18.998Z</time></trkpt><trkpt lat="42.51212531898428" lon="13.364988894207748"><ele>1303.75</ele><time>2026-04-18T11:19:19.998Z</time></trkpt><trkpt lat="42.51208900625225" lon="13.364788598383264"><ele>1304.5</ele><time>2026-04-18T11:19:20.998Z</time></trkpt><trkpt lat="42.512059372772804" lon="13.36458694499128"><ele>1305.25</ele><time>2026-04-18T11:19:21.998Z</time></trkpt><trkpt lat="42.512035295070945" lon="13.36439256539722"><ele>1306.0</ele><time>2026-04-18T11:19:22.998Z</time></trkpt><trkpt lat="42.5120124072674" lon="13.364207359028821"><ele>1301.5</ele><time>2026-04-18T11:19:23.998Z</time></trkpt><trkpt lat="42.51198996054504" lon="13.36402335441516"><ele>1297.0</ele><time>2026-04-18T11:19:24.998Z</time></trkpt><trkpt lat="42.51196314972623" lon="13.363848384586744"><ele>1292.5</ele><time>2026-04-18T11:19:25.998Z</time></trkpt><trkpt lat="42.51193206383856" lon="13.363677459094443"><ele>1288.0</ele><time>2026-04-18T11:19:26.998Z</time></trkpt><trkpt lat="42.51189800917813" lon="13.363510202773051"><ele>1288.0</ele><time>2026-04-18T11:19:27.998Z</time></trkpt><trkpt lat="42.51186307885739" lon="13.363344810082886"><ele>1288.0</ele><time>2026-04-18T11:19:28.998Z</time></trkpt><trkpt lat="42.511829484491344" lon="13.363181986962632"><ele>1288.0</ele><time>2026-04-18T11:19:29.998Z</time></trkpt><trkpt lat="42.511795026073415" lon="13.363024194925838"><ele>1288.0</ele><time>2026-04-18T11:19:30.998Z</time></trkpt><trkpt lat="42.51175377985004" lon="13.362876318685085"><ele>1290.0</ele><time>2026-04-18T11:19:31.998Z</time></trkpt><trkpt lat="42.511699525945296" lon="13.362743333717804"><ele>1292.0</ele><time>2026-04-18T11:19:32.998Z</time></trkpt><trkpt lat="42.51161768361438" lon="13.362646303058767"><ele>1294.0</ele><time>2026-04-18T11:19:33.998Z</time></trkpt><trkpt lat="42.51151450102016" lon="13.362601794891717"><ele>1296.0</ele><time>2026-04-18T11:19:34.998Z</time></trkpt><trkpt lat="42.511403393726845" lon="13.362603555021735"><ele>1298.0</ele><time>2026-04-18T11:19:35.998Z</time></trkpt><trkpt lat="42.51128636553913" lon="13.362600234976338"><ele>1293.5</ele><time>2026-04-18T11:19:36.998Z</time></trkpt><trkpt lat="42.511169150694606" lon="13.362580880321707"><ele>1289.0</ele><time>2026-04-18T11:19:37.998Z</time></trkpt><trkpt lat="42.51106300390753" lon="13.362523844984306"><ele>1284.5</ele><time>2026-04-18T11:19:38.998Z</time></trkpt><trkpt lat="42.51096530142446" lon="13.362419398271749"><ele>1280.0</ele><time>2026-04-18T11:19:39.998Z</time></trkpt><trkpt lat="42.510892043284784" lon="13.362276929723096"><ele>1282.0</ele><time>2026-04-18T11:19:40.998Z</time></trkpt><trkpt lat="42.510835582941326" lon="13.362106099149962"><ele>1284.0</ele><time>2026-04-18T11:19:41.998Z</time></trkpt><trkpt lat="42.510781110846416" lon="13.361936871580227"><ele>1286.0</ele><time>2026-04-18T11:19:42.998Z</time></trkpt><trkpt lat="42.51072809120439" lon="13.361767543626476"><ele>1288.0</ele><time>2026-04-18T11:19:43.998Z</time></trkpt><trkpt lat="42.510674839578826" lon="13.361593473798667"><ele>1288.0</ele><time>2026-04-18T11:19:44.998Z</time></trkpt><trkpt lat="42.510631233596136" lon="13.361419727260783"><ele>1288.0</ele><time>2026-04-18T11:19:45.998Z</time></trkpt><trkpt lat="42.51060338108507" lon="13.361243866893728"><ele>1288.0</ele><time>2026-04-18T11:19:46.998Z</time></trkpt><trkpt lat="42.510598267646365" lon="13.3610714979739"><ele>1288.0</ele><time>2026-04-18T11:19:47.998Z</time></trkpt><trkpt lat="42.510603748823776" lon="13.360908208076552"><ele>1288.25</ele><time>2026-04-18T11:19:48.998Z</time></trkpt><trkpt lat="42.510581565967414" lon="13.36075540831674"><ele>1288.5</ele><time>2026-04-18T11:19:49.998Z</time></trkpt><trkpt lat="42.5105218273055" lon="13.360620968153022"><ele>1288.75</ele><time>2026-04-18T11:19:50.998Z</time></trkpt><trkpt lat="42.510423753897435" lon="13.360516613102737"><ele>1289.0</ele><time>2026-04-18T11:19:51.998Z</time></trkpt><trkpt lat="42.51030186034843" lon="13.360460991150477"><ele>1288.5</ele><time>2026-04-18T11:19:52.998Z</time></trkpt><trkpt lat="42.5101696037046" lon="13.360440098727496"><ele>1288.0</ele><time>2026-04-18T11:19:53.998Z</time></trkpt><trkpt lat="42.510044156204714" lon="13.360459087898896"><ele>1287.5</ele><time>2026-04-18T11:19:54.998Z</time></trkpt><trkpt lat="42.509931534683524" lon="13.360510008317819"><ele>1287.0</ele><time>2026-04-18T11:19:55.998Z</time></trkpt><trkpt lat="42.5098259085065" lon="13.36056435602912"><ele>1284.0</ele><time>2026-04-18T11:19:56.998Z</time></trkpt><trkpt lat="42.50971574116121" lon="13.360593040670654"><ele>1281.0</ele><time>2026-04-18T11:19:57.998Z</time></trkpt><trkpt lat="42.509602462971486" lon="13.360585444580405"><ele>1278.0</ele><time>2026-04-18T11:19:58.998Z</time></trkpt><trkpt lat="42.50949345435614" lon="13.360537850688079"><ele>1275.0</ele><time>2026-04-18T11:20:00Z</time></trkpt><trkpt lat="42.509396286557404" lon="13.360456979149111"><ele>1275.0</ele><time>2026-04-18T11:20:01Z</time></trkpt><trkpt lat="42.5093017636286" lon="13.360356435893232"><ele>1275.0</ele><time>2026-04-18T11:20:02Z</time></trkpt><trkpt lat="42.50919786819823" lon="13.36027884567443"><ele>1275.0</ele><time>2026-04-18T11:20:03Z</time></trkpt><trkpt lat="42.5090770088826" lon="13.360247158360405"><ele>1275.0</ele><time>2026-04-18T11:20:04Z</time></trkpt><trkpt lat="42.508952265583986" lon="13.360267325375196"><ele>1275.0</ele><time>2026-04-18T11:20:05Z</time></trkpt><trkpt lat="42.50883511437104" lon="13.360340477948517"><ele>1275.0</ele><time>2026-04-18T11:20:06Z</time></trkpt><trkpt lat="42.508724916652845" lon="13.360431065746758"><ele>1275.0</ele><time>2026-04-18T11:20:07Z</time></trkpt><trkpt lat="42.50861214129495" lon="13.360516384951561"><ele>1275.0</ele><time>2026-04-18T11:20:08Z</time></trkpt><trkpt lat="42.508497966131664" lon="13.360597202858838"><ele>1272.75</ele><time>2026-04-18T11:20:09Z</time></trkpt><trkpt lat="42.50838585932966" lon="13.360678614447746"><ele>1270.5</ele><time>2026-04-18T11:20:10Z</time></trkpt><trkpt lat="42.50827523467314" lon="13.360760859559273"><ele>1268.25</ele><time>2026-04-18T11:20:11Z</time></trkpt><trkpt lat="42.50816753065702" lon="13.360839640182308"><ele>1266.0</ele><time>2026-04-18T11:20:12Z</time></trkpt><trkpt lat="42.50806403491559" lon="13.360915472063676"><ele>1266.0</ele><time>2026-04-18T11:20:13Z</time></trkpt><trkpt lat="42.507963959510995" lon="13.360986938052742"><ele>1266.0</ele><time>2026-04-18T11:20:14Z</time></trkpt><trkpt lat="42.50786181959617" lon="13.361035136938666"><ele>1266.0</ele><time>2026-04-18T11:20:15Z</time></trkpt><trkpt lat="42.50775177651761" lon="13.36103238097981"><ele>1266.0</ele><time>2026-04-18T11:20:16Z</time></trkpt><trkpt lat="42.50764602128932" lon="13.360977088646285"><ele>1266.0</ele><time>2026-04-18T11:20:17Z</time></trkpt><trkpt lat="42.50756122632893" lon="13.360863412513144"><ele>1266.75</ele><time>2026-04-18T11:20:18Z</time></trkpt><trkpt lat="42.507506027354424" lon="13.360714953377252"><ele>1267.5</ele><time>2026-04-18T11:20:19Z</time></trkpt><trkpt lat="42.50745634026155" lon="13.360551955057652"><ele>1268.25</ele><time>2026-04-18T11:20:20Z</time></trkpt><trkpt lat="42.507394186398734" lon="13.360385056401569"><ele>1269.0</ele><time>2026-04-18T11:20:21Z</time></trkpt><trkpt lat="42.507336095932615" lon="13.360232963411972"><ele>1269.0</ele><time>2026-04-18T11:20:22Z</time></trkpt><trkpt lat="42.50727358116461" lon="13.3600696031794"><ele>1269.0</ele><time>2026-04-18T11:20:23Z</time></trkpt><trkpt lat="42.507215351131315" lon="13.359898544432037"><ele>1269.0</ele><time>2026-04-18T11:20:24Z</time></trkpt><trkpt lat="42.50716186383357" lon="13.359722438542503"><ele>1269.0</ele><time>2026-04-18T11:20:25Z</time></trkpt><trkpt lat="42.50711970008623" lon="13.359541017064421"><ele>1268.0</ele><time>2026-04-18T11:20:26Z</time></trkpt><trkpt lat="42.50708923832956" lon="13.359354476147216"><ele>1267.0</ele><time>2026-04-18T11:20:27Z</time></trkpt><trkpt lat="42.507054274740604" lon="13.35917518474623"><ele>1266.0</ele><time>2026-04-18T11:20:28Z</time></trkpt><trkpt lat="42.5069961527827" lon="13.359008355771786"><ele>1265.0</ele><time>2026-04-18T11:20:29Z</time></trkpt><trkpt lat="42.506916836062906" lon="13.358861228843876"><ele>1265.0</ele><time>2026-04-18T11:20:30Z</time></trkpt><trkpt lat="42.50682522104964" lon="13.358733722600054"><ele>1265.0</ele><time>2026-04-18T11:20:31Z</time></trkpt><trkpt lat="42.506737330076135" lon="13.358609010439709"><ele>1265.0</ele><time>2026-04-18T11:20:32Z</time></trkpt><trkpt lat="42.506650906977654" lon="13.358480955147614"><ele>1265.0</ele><time>2026-04-18T11:20:33Z</time></trkpt><trkpt lat="42.50656540123354" lon="13.358352708747406"><ele>1265.0</ele><time>2026-04-18T11:20:34Z</time></trkpt><trkpt lat="42.50647640804391" lon="13.358229035821802"><ele>1265.0</ele><time>2026-04-18T11:20:35Z</time></trkpt><trkpt lat="42.50637786310036" lon="13.358117082784425"><ele>1265.0</ele><time>2026-04-18T11:20:35.999Z</time></trkpt><trkpt lat="42.506258009150166" lon="13.358043519489332"><ele>1265.0</ele><time>2026-04-18T11:20:36.999Z</time></trkpt><trkpt lat="42.50613118296813" lon="13.358007064999942"><ele>1263.5</ele><time>2026-04-18T11:20:37.999Z</time></trkpt><trkpt lat="42.50600366293837" lon="13.357976229459286"><ele>1262.0</ele><time>2026-04-18T11:20:38.999Z</time></trkpt><trkpt lat="42.505877868170245" lon="13.357927036845451"><ele>1260.5</ele><time>2026-04-18T11:20:39.999Z</time></trkpt><trkpt lat="42.50575504034916" lon="13.357855136089508"><ele>1259.0</ele><time>2026-04-18T11:20:40.999Z</time></trkpt><trkpt lat="42.5056390920124" lon="13.357762972814568"><ele>1259.0</ele><time>2026-04-18T11:20:41.999Z</time></trkpt><trkpt lat="42.50553147589374" lon="13.357647572364808"><ele>1259.0</ele><time>2026-04-18T11:20:42.999Z</time></trkpt><trkpt lat="42.50543599018604" lon="13.357507584208426"><ele>1259.0</ele><time>2026-04-18T11:20:43.999Z</time></trkpt><trkpt lat="42.505351815465936" lon="13.35735903857771"><ele>1259.0</ele><time>2026-04-18T11:20:44.999Z</time></trkpt><trkpt lat="42.50526295034029" lon="13.357212601036693"><ele>1257.75</ele><time>2026-04-18T11:20:45.999Z</time></trkpt><trkpt lat="42.50516249458524" lon="13.357082022964086"><ele>1256.5</ele><time>2026-04-18T11:20:46.999Z</time></trkpt><trkpt lat="42.50504605005793" lon="13.356982664042517"><ele>1255.25</ele><time>2026-04-18T11:20:47.999Z</time></trkpt><trkpt lat="42.504919751679665" lon="13.35691702210707"><ele>1254.0</ele><time>2026-04-18T11:20:48.999Z</time></trkpt><trkpt lat="42.50480074527125" lon="13.356854614330274"><ele>1254.0</ele><time>2026-04-18T11:20:49.999Z</time></trkpt><trkpt lat="42.50469183790026" lon="13.356754276459741"><ele>1254.0</ele><time>2026-04-18T11:20:50.999Z</time></trkpt><trkpt lat="42.50460864856204" lon="13.356610173045015"><ele>1254.0</ele><time>2026-04-18T11:20:51.999Z</time></trkpt><trkpt lat="42.50455513552902" lon="13.356444541750253"><ele>1254.0</ele><time>2026-04-18T11:20:52.999Z</time></trkpt><trkpt lat="42.504499437238465" lon="13.356284581775627"><ele>1253.25</ele><time>2026-04-18T11:20:53.999Z</time></trkpt><trkpt lat="42.504419449862596" lon="13.35613460528763"><ele>1252.5</ele><time>2026-04-18T11:20:54.999Z</time></trkpt><trkpt lat="42.50430909609518" lon="13.35600993725073"><ele>1251.75</ele><time>2026-04-18T11:20:55.999Z</time></trkpt><trkpt lat="42.50418439639334" lon="13.355909903170039"><ele>1251.0</ele><time>2026-04-18T11:20:56.999Z</time></trkpt><trkpt lat="42.50407051114736" lon="13.355828895757517"><ele>1251.0</ele><time>2026-04-18T11:20:57.999Z</time></trkpt><trkpt lat="42.50395339817808" lon="13.355764999105244"><ele>1251.0</ele><time>2026-04-18T11:20:58.999Z</time></trkpt><trkpt lat="42.503830046000004" lon="13.355720548127872"><ele>1251.0</ele><time>2026-04-18T11:20:59.999Z</time></trkpt><trkpt lat="42.503706617479054" lon="13.355696191071608"><ele>1251.0</ele><time>2026-04-18T11:21:00.999Z</time></trkpt><trkpt lat="42.503584526547826" lon="13.355674651160172"><ele>1249.25</ele><time>2026-04-18T11:21:01.999Z</time></trkpt><trkpt lat="42.50346367578649" lon="13.35565485957305"><ele>1247.5</ele><time>2026-04-18T11:21:02.999Z</time></trkpt><trkpt lat="42.5033488278204" lon="13.35562959339073"><ele>1245.75</ele><time>2026-04-18T11:21:03.999Z</time></trkpt><trkpt lat="42.5032426584191" lon="13.355574360799949"><ele>1244.0</ele><time>2026-04-18T11:21:04.999Z</time></trkpt><trkpt lat="42.50315570309853" lon="13.355479513949888"><ele>1244.0</ele><time>2026-04-18T11:21:05.999Z</time></trkpt><trkpt lat="42.503099515655606" lon="13.35534244108537"><ele>1244.0</ele><time>2026-04-18T11:21:06.999Z</time></trkpt><trkpt lat="42.50308407969538" lon="13.355185082724317"><ele>1244.0</ele><time>2026-04-18T11:21:07.999Z</time></trkpt><trkpt lat="42.50311362172654" lon="13.35504970037703"><ele>1244.0</ele><time>2026-04-18T11:21:08.999Z</time></trkpt><trkpt lat="42.5031330497805" lon="13.354897841304574"><ele>1244.0</ele><time>2026-04-18T11:21:09.999Z</time></trkpt><trkpt lat="42.50311992990458" lon="13.354741861799651"><ele>1244.0</ele><time>2026-04-18T11:21:10.999Z</time></trkpt><trkpt lat="42.50306439462275" lon="13.354599931243845"><ele>1244.0</ele><time>2026-04-18T11:21:11.999Z</time></trkpt><trkpt lat="42.50298231287432" lon="13.354477243620108"><ele>1244.0</ele><time>2026-04-18T11:21:12.999Z</time></trkpt><trkpt lat="42.50287391751836" lon="13.354383926603893"><ele>1242.5</ele><time>2026-04-18T11:21:13.999Z</time></trkpt><trkpt lat="42.50275465506168" lon="13.35433213643104"><ele>1241.0</ele><time>2026-04-18T11:21:14.999Z</time></trkpt><trkpt lat="42.5026332036299" lon="13.35431338770838"><ele>1239.5</ele><time>2026-04-18T11:21:15.999Z</time></trkpt><trkpt lat="42.50252939988518" lon="13.354289630071003"><ele>1238.0</ele><time>2026-04-18T11:21:16.999Z</time></trkpt><trkpt lat="42.502403201694925" lon="13.354273333245303"><ele>1238.0</ele><time>2026-04-18T11:21:17.999Z</time></trkpt><trkpt lat="42.50227783870648" lon="13.354242979588959"><ele>1238.0</ele><time>2026-04-18T11:21:18.999Z</time></trkpt><trkpt lat="42.50215629349932" lon="13.354194040325705"><ele>1238.0</ele><time>2026-04-18T11:21:19.999Z</time></trkpt><trkpt lat="42.5020353155571" lon="13.354133219008132"><ele>1238.0</ele><time>2026-04-18T11:21:20.999Z</time></trkpt><trkpt lat="42.50192113926566" lon="13.354058475877197"><ele>1237.25</ele><time>2026-04-18T11:21:21.999Z</time></trkpt><trkpt lat="42.50181929559675" lon="13.353960407834377"><ele>1236.5</ele><time>2026-04-18T11:21:22.999Z</time></trkpt><trkpt lat="42.501736040649874" lon="13.353835540885914"><ele>1235.75</ele><time>2026-04-18T11:21:23.999Z</time></trkpt><trkpt lat="42.50168173167519" lon="13.353685322128795"><ele>1235.0</ele><time>2026-04-18T11:21:24.999Z</time></trkpt><trkpt lat="42.501658351793594" lon="13.353520860262837"><ele>1235.0</ele><time>2026-04-18T11:21:25.999Z</time></trkpt><trkpt lat="42.50164820179838" lon="13.353356322888732"><ele>1235.0</ele><time>2026-04-18T11:21:26.999Z</time></trkpt><trkpt lat="42.50162879247966" lon="13.353188770118178"><ele>1235.0</ele><time>2026-04-18T11:21:27.999Z</time></trkpt><trkpt lat="42.501596187848456" lon="13.353023543051973"><ele>1235.0</ele><time>2026-04-18T11:21:28.998Z</time></trkpt><trkpt lat="42.50153187176324" lon="13.352873613092543"><ele>1235.5</ele><time>2026-04-18T11:21:29.998Z</time></trkpt><trkpt lat="42.50144126607627" lon="13.352743791872696"><ele>1236.0</ele><time>2026-04-18T11:21:30.998Z</time></trkpt><trkpt lat="42.50133306596929" lon="13.352634602568385"><ele>1236.5</ele><time>2026-04-18T11:21:31.998Z</time></trkpt><trkpt lat="42.501209507748094" lon="13.352560815211225"><ele>1237.0</ele><time>2026-04-18T11:21:32.998Z</time></trkpt><trkpt lat="42.50108336566343" lon="13.352516534862666"><ele>1233.75</ele><time>2026-04-18T11:21:33.998Z</time></trkpt><trkpt lat="42.50095232450486" lon="13.352463893633836"><ele>1230.5</ele><time>2026-04-18T11:21:34.998Z</time></trkpt><trkpt lat="42.50081862468379" lon="13.352412002187615"><ele>1227.25</ele><time>2026-04-18T11:21:35.998Z</time></trkpt><trkpt lat="42.50068236226406" lon="13.352357514664169"><ele>1224.0</ele><time>2026-04-18T11:21:36.998Z</time></trkpt><trkpt lat="42.50054364777094" lon="13.35230460667422"><ele>1224.25</ele><time>2026-04-18T11:21:37.998Z</time></trkpt><trkpt lat="42.50040474384969" lon="13.352257740150176"><ele>1224.5</ele><time>2026-04-18T11:21:38.998Z</time></trkpt><trkpt lat="42.50026987394752" lon="13.352220082584665"><ele>1224.75</ele><time>2026-04-18T11:21:39.998Z</time></trkpt><trkpt lat="42.50014013652663" lon="13.352201132337607"><ele>1225.0</ele><time>2026-04-18T11:21:40.998Z</time></trkpt><trkpt lat="42.500017553505586" lon="13.352196937369866"><ele>1225.0</ele><time>2026-04-18T11:21:41.998Z</time></trkpt><trkpt lat="42.49990407805195" lon="13.352168400224095"><ele>1225.0</ele><time>2026-04-18T11:21:42.998Z</time></trkpt><trkpt lat="42.49980174866522" lon="13.352093850527531"><ele>1225.0</ele><time>2026-04-18T11:21:43.998Z</time></trkpt><trkpt lat="42.49971753954908" lon="13.351982412348503"><ele>1225.0</ele><time>2026-04-18T11:21:44.998Z</time></trkpt><trkpt lat="42.49965923715847" lon="13.351836102406232"><ele>1225.0</ele><time>2026-04-18T11:21:45.998Z</time></trkpt><trkpt lat="42.49963052589835" lon="13.351673293612725"><ele>1225.0</ele><time>2026-04-18T11:21:46.998Z</time></trkpt><trkpt lat="42.499617318594574" lon="13.351519203212721"><ele>1225.0</ele><time>2026-04-18T11:21:47.998Z</time></trkpt><trkpt lat="42.499564118801274" lon="13.351388429019282"><ele>1225.0</ele><time>2026-04-18T11:21:48.998Z</time></trkpt><trkpt lat="42.49946918490703" lon="13.35129555962248"><ele>1225.4</ele><time>2026-04-18T11:21:49.998Z</time></trkpt><trkpt lat="42.499357547814604" lon="13.351248973862283"><ele>1225.8</ele><time>2026-04-18T11:21:50.998Z</time></trkpt><trkpt lat="42.499246929792015" lon="13.351229909694236"><ele>1226.2</ele><time>2026-04-18T11:21:51.998Z</time></trkpt><trkpt lat="42.49914207845341" lon="13.351225288330495"><ele>1226.6</ele><time>2026-04-18T11:21:52.998Z</time></trkpt><trkpt lat="42.499047342283234" lon="13.351266105636993"><ele>1227.0</ele><time>2026-04-18T11:21:53.998Z</time></trkpt><trkpt lat="42.498978438089026" lon="13.35136534370179"><ele>1225.75</ele><time>2026-04-18T11:21:54.998Z</time></trkpt><trkpt lat="42.49894450769568" lon="13.351502286702754"><ele>1224.5</ele><time>2026-04-18T11:21:55.998Z</time></trkpt><trkpt lat="42.49892520153273" lon="13.351668622970134"><ele>1223.25</ele><time>2026-04-18T11:21:56.998Z</time></trkpt><trkpt lat="42.49889151556499" lon="13.351841267491118"><ele>1222.0</ele><time>2026-04-18T11:21:57.998Z</time></trkpt><trkpt lat="42.49885669256929" lon="13.352019005656626"><ele>1222.0</ele><time>2026-04-18T11:21:58.998Z</time></trkpt><trkpt lat="42.49881949675349" lon="13.35219921176007"><ele>1222.0</ele><time>2026-04-18T11:21:59.998Z</time></trkpt><trkpt lat="42.49877453846567" lon="13.352381600187872"><ele>1222.0</ele><time>2026-04-18T11:22:00.998Z</time></trkpt><trkpt lat="42.49873050746012" lon="13.35255921497701"><ele>1222.0</ele><time>2026-04-18T11:22:01.998Z</time></trkpt><trkpt lat="42.49867159207436" lon="13.35272527701476"><ele>1222.5</ele><time>2026-04-18T11:22:02.998Z</time></trkpt><trkpt lat="42.49859424447428" lon="13.352866318987461"><ele>1223.0</ele><time>2026-04-18T11:22:03.998Z</time></trkpt><trkpt lat="42.49850809666428" lon="13.352979892199633"><ele>1223.5</ele><time>2026-04-18T11:22:04.998Z</time></trkpt><trkpt lat="42.498432640226554" lon="13.353103000954821"><ele>1224.0</ele><time>2026-04-18T11:22:06Z</time></trkpt><trkpt lat="42.49839117191143" lon="13.353249743082024"><ele>1224.0</ele><time>2026-04-18T11:22:07Z</time></trkpt><trkpt lat="42.49838768690049" lon="13.353408490126201"><ele>1224.0</ele><time>2026-04-18T11:22:08Z</time></trkpt><trkpt lat="42.49841710853502" lon="13.353568061279605"><ele>1224.0</ele><time>2026-04-18T11:22:09Z</time></trkpt><trkpt lat="42.49845776887795" lon="13.353719320918573"><ele>1224.0</ele><time>2026-04-18T11:22:10Z</time></trkpt><trkpt lat="42.49845788584041" lon="13.353867632315067"><ele>1222.0</ele><time>2026-04-18T11:22:11Z</time></trkpt><trkpt lat="42.49841311214275" lon="13.354003030720905"><ele>1220.0</ele><time>2026-04-18T11:22:12Z</time></trkpt><trkpt lat="42.49832462886838" lon="13.354097414679565"><ele>1218.0</ele><time>2026-04-18T11:22:13Z</time></trkpt><trkpt lat="42.49821228011009" lon="13.35413766151984"><ele>1216.0</ele><time>2026-04-18T11:22:14Z</time></trkpt><trkpt lat="42.49808858783023" lon="13.354133644945481"><ele>1216.0</ele><time>2026-04-18T11:22:15Z</time></trkpt><trkpt lat="42.49796472157084" lon="13.354134027092856"><ele>1216.0</ele><time>2026-04-18T11:22:16Z</time></trkpt><trkpt lat="42.49783853440926" lon="13.354156030764742"><ele>1216.0</ele><time>2026-04-18T11:22:17Z</time></trkpt><trkpt lat="42.4977132921559" lon="13.354214514183788"><ele>1216.0</ele><time>2026-04-18T11:22:18Z</time></trkpt><trkpt lat="42.497603590743125" lon="13.354317941283306"><ele>1215.25</ele><time>2026-04-18T11:22:19Z</time></trkpt><trkpt lat="42.497494587621425" lon="13.354428407574572"><ele>1214.5</ele><time>2026-04-18T11:22:20Z</time></trkpt><trkpt lat="42.49738017416356" lon="13.35454130493839"><ele>1213.75</ele><time>2026-04-18T11:22:21Z</time></trkpt><trkpt lat="42.49726777339432" lon="13.354657278624135"><ele>1213.0</ele><time>2026-04-18T11:22:22Z</time></trkpt><trkpt lat="42.497152940262865" lon="13.354774205926958"><ele>1215.5</ele><time>2026-04-18T11:22:23Z</time></trkpt><trkpt lat="42.49703426176998" lon="13.35489050095423"><ele>1218.0</ele><time>2026-04-18T11:22:24Z</time></trkpt><trkpt lat="42.496916991521836" lon="13.355009217831537"><ele>1220.5</ele><time>2026-04-18T11:22:25Z</time></trkpt><trkpt lat="42.496800367856004" lon="13.355128786975387"><ele>1223.0</ele><time>2026-04-18T11:22:26Z</time></trkpt><trkpt lat="42.4966868824568" lon="13.355244450111105"><ele>1223.0</ele><time>2026-04-18T11:22:27Z</time></trkpt><trkpt lat="42.49657730324228" lon="13.355356630852812"><ele>1223.0</ele><time>2026-04-18T11:22:28Z</time></trkpt><trkpt lat="42.496475879288774" lon="13.355466012746211"><ele>1223.0</ele><time>2026-04-18T11:22:29Z</time></trkpt><trkpt lat="42.49638321794565" lon="13.355567638679734"><ele>1223.0</ele><time>2026-04-18T11:22:30Z</time></trkpt><trkpt lat="42.49629882854225" lon="13.355672658283677"><ele>1225.0</ele><time>2026-04-18T11:22:31Z</time></trkpt><trkpt lat="42.496233396006346" lon="13.355806970879394"><ele>1227.0</ele><time>2026-04-18T11:22:32Z</time></trkpt><trkpt lat="42.496214543804115" lon="13.35596765264588"><ele>1229.0</ele><time>2026-04-18T11:22:33Z</time></trkpt><trkpt lat="42.496217488163964" lon="13.356126857150795"><ele>1231.0</ele><time>2026-04-18T11:22:34Z</time></trkpt><trkpt lat="42.496260395509886" lon="13.356272412825046"><ele>1227.0</ele><time>2026-04-18T11:22:35Z</time></trkpt><trkpt lat="42.496340476681816" lon="13.356385082460934"><ele>1223.0</ele><time>2026-04-18T11:22:36Z</time></trkpt><trkpt lat="42.49645079674887" lon="13.356473227764095"><ele>1219.0</ele><time>2026-04-18T11:22:37Z</time></trkpt><trkpt lat="42.49655299748552" lon="13.356570585214739"><ele>1215.0</ele><time>2026-04-18T11:22:38Z</time></trkpt><trkpt lat="42.49665257924477" lon="13.356674833197838"><ele>1215.0</ele><time>2026-04-18T11:22:39Z</time></trkpt><trkpt lat="42.496739260650166" lon="13.356785461004709"><ele>1215.0</ele><time>2026-04-18T11:22:40Z</time></trkpt><trkpt lat="42.49680336865564" lon="13.35691826016955"><ele>1215.0</ele><time>2026-04-18T11:22:41Z</time></trkpt><trkpt lat="42.496831464484266" lon="13.357067380211337"><ele>1215.0</ele><time>2026-04-18T11:22:42Z</time></trkpt><trkpt lat="42.496826502264625" lon="13.357220542246246"><ele>1215.0</ele><time>2026-04-18T11:22:43Z</time></trkpt><trkpt lat="42.49679123813838" lon="13.357374400849837"><ele>1215.0</ele><time>2026-04-18T11:22:44Z</time></trkpt><trkpt lat="42.49672429288094" lon="13.357507762669668"><ele>1215.0</ele><time>2026-04-18T11:22:45Z</time></trkpt><trkpt lat="42.496648510608026" lon="13.357622005931928"><ele>1215.0</ele><time>2026-04-18T11:22:46Z</time></trkpt><trkpt lat="42.49655194317743" lon="13.357714892576174"><ele>1215.0</ele><time>2026-04-18T11:22:47Z</time></trkpt><trkpt lat="42.49643411275202" lon="13.357747042790159"><ele>1215.0</ele><time>2026-04-18T11:22:48Z</time></trkpt><trkpt lat="42.49631214241154" lon="13.357747220873502"><ele>1215.0</ele><time>2026-04-18T11:22:49Z</time></trkpt><trkpt lat="42.49618520691355" lon="13.357736083217533"><ele>1215.0</ele><time>2026-04-18T11:22:50Z</time></trkpt><trkpt lat="42.496045469585226" lon="13.35772908538389"><ele>1217.5</ele><time>2026-04-18T11:22:51Z</time></trkpt><trkpt lat="42.49590739007027" lon="13.357742179527957"><ele>1220.0</ele><time>2026-04-18T11:22:52Z</time></trkpt><trkpt lat="42.49578439976735" lon="13.357787794612658"><ele>1222.5</ele><time>2026-04-18T11:22:53Z</time></trkpt><trkpt lat="42.495685489312685" lon="13.35786837294092"><ele>1225.0</ele><time>2026-04-18T11:22:54Z</time></trkpt><trkpt lat="42.495591857287145" lon="13.357986622203127"><ele>1221.5</ele><time>2026-04-18T11:22:55Z</time></trkpt><trkpt lat="42.495518880622654" lon="13.358130148248724"><ele>1218.0</ele><time>2026-04-18T11:22:56Z</time></trkpt><trkpt lat="42.49547110767599" lon="13.358296604456251"><ele>1214.5</ele><time>2026-04-18T11:22:56.999Z</time></trkpt><trkpt lat="42.49544515093212" lon="13.358471734151635"><ele>1211.0</ele><time>2026-04-18T11:22:57.999Z</time></trkpt><trkpt lat="42.49542974855355" lon="13.358647116088896"><ele>1211.0</ele><time>2026-04-18T11:22:58.999Z</time></trkpt><trkpt lat="42.495438255576985" lon="13.358824390617823"><ele>1211.0</ele><time>2026-04-18T11:22:59.999Z</time></trkpt><trkpt lat="42.495466961211164" lon="13.358998446036802"><ele>1211.0</ele><time>2026-04-18T11:23:00.999Z</time></trkpt><trkpt lat="42.4955098927612" lon="13.359167294479393"><ele>1211.0</ele><time>2026-04-18T11:23:01.999Z</time></trkpt><trkpt lat="42.49555747480216" lon="13.359331863582193"><ele>1210.25</ele><time>2026-04-18T11:23:02.999Z</time></trkpt><trkpt lat="42.495594396739904" lon="13.359500183987906"><ele>1209.5</ele><time>2026-04-18T11:23:03.999Z</time></trkpt><trkpt lat="42.49562119655352" lon="13.359672678042472"><ele>1208.75</ele><time>2026-04-18T11:23:04.999Z</time></trkpt><trkpt lat="42.49564384375788" lon="13.359853308314497"><ele>1208.0</ele><time>2026-04-18T11:23:05.999Z</time></trkpt><trkpt lat="42.495660016274044" lon="13.360033963787972"><ele>1208.0</ele><time>2026-04-18T11:23:06.999Z</time></trkpt><trkpt lat="42.49565135428395" lon="13.360208056392459"><ele>1208.0</ele><time>2026-04-18T11:23:07.999Z</time></trkpt><trkpt lat="42.49567111529061" lon="13.360373379442372"><ele>1208.0</ele><time>2026-04-18T11:23:08.999Z</time></trkpt><trkpt lat="42.495670308206016" lon="13.3605289135431"><ele>1208.0</ele><time>2026-04-18T11:23:09.999Z</time></trkpt><trkpt lat="42.49566515288003" lon="13.360672933874556"><ele>1207.8</ele><time>2026-04-18T11:23:10.999Z</time></trkpt><trkpt lat="42.49561444449745" lon="13.360791853184194"><ele>1207.6</ele><time>2026-04-18T11:23:11.999Z</time></trkpt><trkpt lat="42.49553512017769" lon="13.36085611791561"><ele>1207.4</ele><time>2026-04-18T11:23:12.999Z</time></trkpt><trkpt lat="42.495445808890274" lon="13.360850125741793"><ele>1207.2</ele><time>2026-04-18T11:23:13.999Z</time></trkpt><trkpt lat="42.49537338387347" lon="13.360771826906706"><ele>1207.0</ele><time>2026-04-18T11:23:14.999Z</time></trkpt><trkpt lat="42.49529288842422" lon="13.360681319338592"><ele>1207.0</ele><time>2026-04-18T11:23:15.999Z</time></trkpt><trkpt lat="42.49520946402424" lon="13.360567921591002"><ele>1207.0</ele><time>2026-04-18T11:23:16.999Z</time></trkpt><trkpt lat="42.49511094991746" lon="13.360460572475898"><ele>1207.0</ele><time>2026-04-18T11:23:17.999Z</time></trkpt><trkpt lat="42.49502285384983" lon="13.360354823349143"><ele>1207.0</ele><time>2026-04-18T11:23:18.999Z</time></trkpt><trkpt lat="42.49492852615621" lon="13.360242092501863"><ele>1206.5</ele><time>2026-04-18T11:23:19.999Z</time></trkpt><trkpt lat="42.49483480559939" lon="13.360131799567379"><ele>1206.0</ele><time>2026-04-18T11:23:20.999Z</time></trkpt><trkpt lat="42.49474048078621" lon="13.360031729747124"><ele>1205.5</ele><time>2026-04-18T11:23:21.999Z</time></trkpt><trkpt lat="42.49463222517942" lon="13.359966954286115"><ele>1205.0</ele><time>2026-04-18T11:23:22.999Z</time></trkpt><trkpt lat="42.49451715328344" lon="13.359940996160514"><ele>1205.0</ele><time>2026-04-18T11:23:23.999Z</time></trkpt><trkpt lat="42.49439557937807" lon="13.359943679485035"><ele>1205.0</ele><time>2026-04-18T11:23:24.999Z</time></trkpt><trkpt lat="42.49426537763054" lon="13.359934780052555"><ele>1205.0</ele><time>2026-04-18T11:23:25.999Z</time></trkpt><trkpt lat="42.4941309598887" lon="13.35989642659898"><ele>1205.0</ele><time>2026-04-18T11:23:26.999Z</time></trkpt><trkpt lat="42.49399831545646" lon="13.35982783190972"><ele>1205.0</ele><time>2026-04-18T11:23:27.999Z</time></trkpt><trkpt lat="42.49387298215416" lon="13.359731002169013"><ele>1205.0</ele><time>2026-04-18T11:23:28.999Z</time></trkpt><trkpt lat="42.49375470949255" lon="13.35962294301953"><ele>1205.0</ele><time>2026-04-18T11:23:29.999Z</time></trkpt><trkpt lat="42.49363301631116" lon="13.359515974608568"><ele>1205.0</ele><time>2026-04-18T11:23:30.999Z</time></trkpt><trkpt lat="42.4935110002549" lon="13.359416330055105"><ele>1205.0</ele><time>2026-04-18T11:23:31.999Z</time></trkpt><trkpt lat="42.493386332101494" lon="13.359331869970067"><ele>1205.0</ele><time>2026-04-18T11:23:32.999Z</time></trkpt><trkpt lat="42.4932488308295" lon="13.35928778317829"><ele>1205.0</ele><time>2026-04-18T11:23:33.999Z</time></trkpt><trkpt lat="42.49310496138981" lon="13.35928761597561"><ele>1205.0</ele><time>2026-04-18T11:23:34.999Z</time></trkpt><trkpt lat="42.49296749060748" lon="13.359320859498172"><ele>1203.0</ele><time>2026-04-18T11:23:35.999Z</time></trkpt><trkpt lat="42.49283124453141" lon="13.359352164052332"><ele>1201.0</ele><time>2026-04-18T11:23:36.999Z</time></trkpt><trkpt lat="42.492699911029675" lon="13.35938516469061"><ele>1199.0</ele><time>2026-04-18T11:23:37.999Z</time></trkpt><trkpt lat="42.492573281661414" lon="13.359415668600969"><ele>1197.0</ele><time>2026-04-18T11:23:38.999Z</time></trkpt><trkpt lat="42.49245068482927" lon="13.3594293941966"><ele>1197.0</ele><time>2026-04-18T11:23:39.999Z</time></trkpt><trkpt lat="42.49233522410311" lon="13.359406783525381"><ele>1197.0</ele><time>2026-04-18T11:23:40.999Z</time></trkpt><trkpt lat="42.49223022652852" lon="13.35935350083415"><ele>1197.0</ele><time>2026-04-18T11:23:41.999Z</time></trkpt><trkpt lat="42.49213996275779" lon="13.359272806596703"><ele>1197.0</ele><time>2026-04-18T11:23:42.999Z</time></trkpt><trkpt lat="42.492062222678896" lon="13.359163596035447"><ele>1197.0</ele><time>2026-04-18T11:23:43.999Z</time></trkpt><trkpt lat="42.4920009388917" lon="13.359028468120453"><ele>1195.5</ele><time>2026-04-18T11:23:44.999Z</time></trkpt><trkpt lat="42.4919653897887" lon="13.358878837299251"><ele>1194.0</ele><time>2026-04-18T11:23:45.999Z</time></trkpt><trkpt lat="42.49196101976054" lon="13.358727333143197"><ele>1192.5</ele><time>2026-04-18T11:23:46.999Z</time></trkpt><trkpt lat="42.49198399280003" lon="13.358575063452102"><ele>1191.0</ele><time>2026-04-18T11:23:47.999Z</time></trkpt><trkpt lat="42.49202761084283" lon="13.358423373054055"><ele>1191.0</ele><time>2026-04-18T11:23:48.998Z</time></trkpt><trkpt lat="42.49206143047218" lon="13.358275858863397"><ele>1191.0</ele><time>2026-04-18T11:23:49.998Z</time></trkpt><trkpt lat="42.49206665262067" lon="13.358125561793814"><ele>1191.0</ele><time>2026-04-18T11:23:50.998Z</time></trkpt><trkpt lat="42.49202280300318" lon="13.357989810044186"><ele>1191.0</ele><time>2026-04-18T11:23:51.998Z</time></trkpt><trkpt lat="42.49193752421673" lon="13.357885381033826"><ele>1191.0</ele><time>2026-04-18T11:23:52.998Z</time></trkpt><trkpt lat="42.491822278965344" lon="13.357828620766671"><ele>1192.5</ele><time>2026-04-18T11:23:53.998Z</time></trkpt><trkpt lat="42.49170006909525" lon="13.357797450117168"><ele>1194.0</ele><time>2026-04-18T11:23:54.998Z</time></trkpt><trkpt lat="42.49158489262216" lon="13.357780450181707"><ele>1195.5</ele><time>2026-04-18T11:23:55.998Z</time></trkpt><trkpt lat="42.49146670657788" lon="13.357825869499896"><ele>1197.0</ele><time>2026-04-18T11:23:56.998Z</time></trkpt><trkpt lat="42.49136431856205" lon="13.357925241062805"><ele>1195.5</ele><time>2026-04-18T11:23:57.998Z</time></trkpt><trkpt lat="42.491269045837235" lon="13.358046277048865"><ele>1194.0</ele><time>2026-04-18T11:23:58.998Z</time></trkpt><trkpt lat="42.49115829458576" lon="13.358149516057109"><ele>1192.5</ele><time>2026-04-18T11:23:59.998Z</time></trkpt><trkpt lat="42.491046017216505" lon="13.35824338275129"><ele>1191.0</ele><time>2026-04-18T11:24:00.998Z</time></trkpt><trkpt lat="42.49093001091612" lon="13.35831562726967"><ele>1191.0</ele><time>2026-04-18T11:24:01.998Z</time></trkpt><trkpt lat="42.49080961416874" lon="13.358351941238375"><ele>1191.0</ele><time>2026-04-18T11:24:02.998Z</time></trkpt><trkpt lat="42.49069433550734" lon="13.358343427031558"><ele>1191.0</ele><time>2026-04-18T11:24:03.998Z</time></trkpt><trkpt lat="42.490589760941006" lon="13.358284496872233"><ele>1191.0</ele><time>2026-04-18T11:24:04.998Z</time></trkpt><trkpt lat="42.49049537861204" lon="13.358182489743635"><ele>1190.25</ele><time>2026-04-18T11:24:05.998Z</time></trkpt><trkpt lat="42.49041344451785" lon="13.358057395379285"><ele>1189.5</ele><time>2026-04-18T11:24:06.998Z</time></trkpt><trkpt lat="42.490327032537856" lon="13.357920808422943"><ele>1188.75</ele><time>2026-04-18T11:24:07.998Z</time></trkpt><trkpt lat="42.490230849085364" lon="13.3577941950273"><ele>1188.0</ele><time>2026-04-18T11:24:08.998Z</time></trkpt><trkpt lat="42.49011498761906" lon="13.357688560525038"><ele>1188.0</ele><time>2026-04-18T11:24:09.998Z</time></trkpt><trkpt lat="42.48998495465539" lon="13.357608968393427"><ele>1188.0</ele><time>2026-04-18T11:24:11.001Z</time></trkpt><trkpt lat="42.48985495192996" lon="13.35755461253833"><ele>1188.0</ele><time>2026-04-18T11:24:12.001Z</time></trkpt><trkpt lat="42.489724851019695" lon="13.357506822081074"><ele>1188.0</ele><time>2026-04-18T11:24:13.001Z</time></trkpt><trkpt lat="42.4896025574151" lon="13.35746211048979"><ele>1189.0</ele><time>2026-04-18T11:24:14.001Z</time></trkpt><trkpt lat="42.48948755827285" lon="13.357444341107511"><ele>1190.0</ele><time>2026-04-18T11:24:15.001Z</time></trkpt><trkpt lat="42.489383203005175" lon="13.357462507143866"><ele>1191.0</ele><time>2026-04-18T11:24:16.001Z</time></trkpt><trkpt lat="42.489313212721825" lon="13.357587786262235"><ele>1192.0</ele><time>2026-04-18T11:24:17.001Z</time></trkpt><trkpt lat="42.4892646126733" lon="13.357736588627523"><ele>1192.0</ele><time>2026-04-18T11:24:18.001Z</time></trkpt><trkpt lat="42.48923441859422" lon="13.357898179598624"><ele>1192.0</ele><time>2026-04-18T11:24:19.001Z</time></trkpt><trkpt lat="42.48921143301584" lon="13.3580580880485"><ele>1192.0</ele><time>2026-04-18T11:24:20.001Z</time></trkpt><trkpt lat="42.489180574789636" lon="13.358232452579287"><ele>1192.0</ele><time>2026-04-18T11:24:21.001Z</time></trkpt><trkpt lat="42.489157028755294" lon="13.358401794981722"><ele>1190.25</ele><time>2026-04-18T11:24:22.001Z</time></trkpt><trkpt lat="42.48913563460938" lon="13.358563993965078"><ele>1188.5</ele><time>2026-04-18T11:24:23.001Z</time></trkpt><trkpt lat="42.489113635406" lon="13.358717033874145"><ele>1186.75</ele><time>2026-04-18T11:24:24.001Z</time></trkpt><trkpt lat="42.489068951924324" lon="13.358862747227574"><ele>1185.0</ele><time>2026-04-18T11:24:25.001Z</time></trkpt><trkpt lat="42.489001405363595" lon="13.358995622477698"><ele>1184.0</ele><time>2026-04-18T11:24:26.001Z</time></trkpt><trkpt lat="42.48890732067166" lon="13.35910323955541"><ele>1183.0</ele><time>2026-04-18T11:24:27.001Z</time></trkpt><trkpt lat="42.488804833582144" lon="13.35920338503723"><ele>1182.0</ele><time>2026-04-18T11:24:28.001Z</time></trkpt><trkpt lat="42.48869907352038" lon="13.359312011865198"><ele>1181.0</ele><time>2026-04-18T11:24:29.001Z</time></trkpt><trkpt lat="42.48859390520868" lon="13.359429030449027"><ele>1181.0</ele><time>2026-04-18T11:24:30Z</time></trkpt><trkpt lat="42.48848920581419" lon="13.359551834558305"><ele>1181.0</ele><time>2026-04-18T11:24:31Z</time></trkpt><trkpt lat="42.4883846012897" lon="13.35967321628733"><ele>1181.0</ele><time>2026-04-18T11:24:32Z</time></trkpt><trkpt lat="42.48827324557359" lon="13.359778749720185"><ele>1181.0</ele><time>2026-04-18T11:24:33Z</time></trkpt><trkpt lat="42.48816012110932" lon="13.359862388637618"><ele>1181.0</ele><time>2026-04-18T11:24:34Z</time></trkpt><trkpt lat="42.48803468300851" lon="13.359882811466539"><ele>1181.0</ele><time>2026-04-18T11:24:35Z</time></trkpt><trkpt lat="42.48791050085854" lon="13.359831268804138"><ele>1181.0</ele><time>2026-04-18T11:24:36Z</time></trkpt><trkpt lat="42.48779937017476" lon="13.359727139403144"><ele>1181.0</ele><time>2026-04-18T11:24:37Z</time></trkpt><trkpt lat="42.487702337018916" lon="13.359592384222742"><ele>1181.0</ele><time>2026-04-18T11:24:38Z</time></trkpt><trkpt lat="42.48759861363138" lon="13.359459911815247"><ele>1181.0</ele><time>2026-04-18T11:24:39Z</time></trkpt><trkpt lat="42.487483185275835" lon="13.359356496402567"><ele>1181.0</ele><time>2026-04-18T11:24:40Z</time></trkpt><trkpt lat="42.48735236962455" lon="13.35930109223112"><ele>1181.0</ele><time>2026-04-18T11:24:41Z</time></trkpt><trkpt lat="42.48721490121656" lon="13.359294681608649"><ele>1181.0</ele><time>2026-04-18T11:24:42Z</time></trkpt><trkpt lat="42.48707874850621" lon="13.359331135845888"><ele>1181.0</ele><time>2026-04-18T11:24:43Z</time></trkpt><trkpt lat="42.48695590277364" lon="13.359400402233275"><ele>1181.0</ele><time>2026-04-18T11:24:44Z</time></trkpt><trkpt lat="42.48685082322724" lon="13.359507862528435"><ele>1181.0</ele><time>2026-04-18T11:24:45Z</time></trkpt><trkpt lat="42.48677134397021" lon="13.359639981802264"><ele>1180.5</ele><time>2026-04-18T11:24:46Z</time></trkpt><trkpt lat="42.486762823050576" lon="13.35982761828773"><ele>1180.0</ele><time>2026-04-18T11:24:47Z</time></trkpt><trkpt lat="42.48677185647125" lon="13.360003502799266"><ele>1179.5</ele><time>2026-04-18T11:24:48Z</time></trkpt><trkpt lat="42.48678168477724" lon="13.360183123862203"><ele>1179.0</ele><time>2026-04-18T11:24:49Z</time></trkpt><trkpt lat="42.48678455957367" lon="13.360369696596472"><ele>1178.0</ele><time>2026-04-18T11:24:50Z</time></trkpt><trkpt lat="42.486791726330466" lon="13.360562617236278"><ele>1177.0</ele><time>2026-04-18T11:24:51Z</time></trkpt><trkpt lat="42.48680046897575" lon="13.360760660091476"><ele>1176.0</ele><time>2026-04-18T11:24:52Z</time></trkpt><trkpt lat="42.48680843867381" lon="13.360960084041626"><ele>1175.0</ele><time>2026-04-18T11:24:53Z</time></trkpt><trkpt lat="42.48681328295394" lon="13.361160703757681"><ele>1175.0</ele><time>2026-04-18T11:24:54Z</time></trkpt><trkpt lat="42.486820580057596" lon="13.361364394823777"><ele>1175.0</ele><time>2026-04-18T11:24:55Z</time></trkpt><trkpt lat="42.48683238235402" lon="13.361572565168926"><ele>1175.0</ele><time>2026-04-18T11:24:56Z</time></trkpt><trkpt lat="42.486843446909546" lon="13.361782661411064"><ele>1175.0</ele><time>2026-04-18T11:24:57Z</time></trkpt><trkpt lat="42.486852629811516" lon="13.36199592809219"><ele>1175.0</ele><time>2026-04-18T11:24:58Z</time></trkpt><trkpt lat="42.48686293754033" lon="13.36219736448441"><ele>1175.0</ele><time>2026-04-18T11:24:59Z</time></trkpt><trkpt lat="42.48687108536035" lon="13.362367550098181"><ele>1175.0</ele><time>2026-04-18T11:25:00Z</time></trkpt><trkpt lat="42.486873798196456" lon="13.36254385932325"><ele>1174.5</ele><time>2026-04-18T11:25:01Z</time></trkpt><trkpt lat="42.48686646992783" lon="13.362732360373583"><ele>1174.0</ele><time>2026-04-18T11:25:02Z</time></trkpt><trkpt lat="42.48683000801759" lon="13.362910011969264"><ele>1173.5</ele><time>2026-04-18T11:25:03Z</time></trkpt><trkpt lat="42.48680785091374" lon="13.36305764626982"><ele>1173.0</ele><time>2026-04-18T11:25:04Z</time></trkpt><trkpt lat="42.48675933283502" lon="13.363196999867046"><ele>1171.75</ele><time>2026-04-18T11:25:05Z</time></trkpt><trkpt lat="42.48671465468116" lon="13.363354507237878"><ele>1170.5</ele><time>2026-04-18T11:25:06Z</time></trkpt><trkpt lat="42.486656518524136" lon="13.363505252999282"><ele>1169.25</ele><time>2026-04-18T11:25:07Z</time></trkpt><trkpt lat="42.48661046857129" lon="13.363647385910905"><ele>1168.0</ele><time>2026-04-18T11:25:08Z</time></trkpt><trkpt lat="42.486572381886404" lon="13.363778342561782"><ele>1167.1666666666665</ele><time>2026-04-18T11:25:09Z</time></trkpt><trkpt lat="42.48653638111851" lon="13.363885964574054"><ele>1166.3333333333333</ele><time>2026-04-18T11:25:10Z</time></trkpt><trkpt lat="42.48650705184965" lon="13.363965309281577"><ele>1165.5</ele><time>2026-04-18T11:25:11Z</time></trkpt><trkpt lat="42.48648568900198" lon="13.36406525807477"><ele>1164.6666666666667</ele><time>2026-04-18T11:25:13Z</time></trkpt><trkpt lat="42.486591718754966" lon="13.364177063647709"><ele>1163.8333333333335</ele><time>2026-04-18T11:25:17.999Z</time></trkpt><trkpt lat="42.4866771918581" lon="13.364167170265228"><ele>1163.0</ele><time>2026-04-18T11:25:18.999Z</time></trkpt><trkpt lat="42.48676823734638" lon="13.364167782071021"><ele>1163.0</ele><time>2026-04-18T11:25:19.999Z</time></trkpt><trkpt lat="42.486869805312786" lon="13.364173051499888"><ele>1163.0</ele><time>2026-04-18T11:25:20.999Z</time></trkpt><trkpt lat="42.48698164970704" lon="13.364193830236022"><ele>1163.0</ele><time>2026-04-18T11:25:21.999Z</time></trkpt><trkpt lat="42.4871003846389" lon="13.364226699894205"><ele>1163.0</ele><time>2026-04-18T11:25:22.999Z</time></trkpt><trkpt lat="42.48722338065759" lon="13.364269765289889"><ele>1161.5</ele><time>2026-04-18T11:25:23.999Z</time></trkpt><trkpt lat="42.487347291711714" lon="13.364320174356454"><ele>1160.0</ele><time>2026-04-18T11:25:24.999Z</time></trkpt><trkpt lat="42.487466616466506" lon="13.364380658813243"><ele>1158.5</ele><time>2026-04-18T11:25:25.999Z</time></trkpt><trkpt lat="42.487586059626345" lon="13.364457319257419"><ele>1157.0</ele><time>2026-04-18T11:25:26.999Z</time></trkpt><trkpt lat="42.487703743960594" lon="13.364552997209245"><ele>1157.0</ele><time>2026-04-18T11:25:27.999Z</time></trkpt><trkpt lat="42.487817630862544" lon="13.364670599394872"><ele>1157.0</ele><time>2026-04-18T11:25:28.999Z</time></trkpt><trkpt lat="42.487926476534845" lon="13.364804604034251"><ele>1157.0</ele><time>2026-04-18T11:25:29.999Z</time></trkpt><trkpt lat="42.48803326505135" lon="13.36494632844703"><ele>1157.0</ele><time>2026-04-18T11:25:30.999Z</time></trkpt><trkpt lat="42.48814236076403" lon="13.365089288203452"><ele>1156.6666666666667</ele><time>2026-04-18T11:25:31.999Z</time></trkpt><trkpt lat="42.48825510285211" lon="13.365230211994918"><ele>1156.3333333333333</ele><time>2026-04-18T11:25:32.999Z</time></trkpt><trkpt lat="42.4883694672541" lon="13.365373485466606"><ele>1156.0</ele><time>2026-04-18T11:25:33.999Z</time></trkpt><trkpt lat="42.48848391606574" lon="13.365513693867648"><ele>1156.3333333333333</ele><time>2026-04-18T11:25:34.999Z</time></trkpt><trkpt lat="42.48859967490706" lon="13.365657252366546"><ele>1156.6666666666667</ele><time>2026-04-18T11:25:35.999Z</time></trkpt><trkpt lat="42.48871582146504" lon="13.36580130910576"><ele>1157.0</ele><time>2026-04-18T11:25:36.999Z</time></trkpt><trkpt lat="42.488832414813224" lon="13.36595297705296"><ele>1157.0</ele><time>2026-04-18T11:25:37.999Z</time></trkpt><trkpt lat="42.488947332472534" lon="13.366106263377066"><ele>1157.0</ele><time>2026-04-18T11:25:38.999Z</time></trkpt><trkpt lat="42.48906358869598" lon="13.36625385148025"><ele>1157.0</ele><time>2026-04-18T11:25:39.999Z</time></trkpt><trkpt lat="42.489181474836016" lon="13.366406648729894"><ele>1156.3333333333335</ele><time>2026-04-18T11:25:40.999Z</time></trkpt><trkpt lat="42.48930168558542" lon="13.366555073703477"><ele>1155.6666666666667</ele><time>2026-04-18T11:25:41.999Z</time></trkpt><trkpt lat="42.489422089477095" lon="13.366701012644508"><ele>1155.0</ele><time>2026-04-18T11:25:42.999Z</time></trkpt><trkpt lat="42.48954261045097" lon="13.366840853517626"><ele>1156.0</ele><time>2026-04-18T11:25:43.999Z</time></trkpt><trkpt lat="42.48966831854473" lon="13.366972528488926"><ele>1157.0</ele><time>2026-04-18T11:25:44.999Z</time></trkpt><trkpt lat="42.48980205606756" lon="13.367085093796952"><ele>1158.0</ele><time>2026-04-18T11:25:45.999Z</time></trkpt><trkpt lat="42.48994245967353" lon="13.36718473058772"><ele>1155.3333333333333</ele><time>2026-04-18T11:25:46.999Z</time></trkpt><trkpt lat="42.490088770509246" lon="13.367272459112153"><ele>1152.6666666666665</ele><time>2026-04-18T11:25:47.999Z</time></trkpt><trkpt lat="42.49024266356634" lon="13.367350049303345"><ele>1150.0</ele><time>2026-04-18T11:25:48.999Z</time></trkpt><trkpt lat="42.49040107349352" lon="13.367421633088428"><ele>1148.6666666666665</ele><time>2026-04-18T11:25:49.999Z</time></trkpt><trkpt lat="42.490562240930615" lon="13.36748766623991"><ele>1147.3333333333333</ele><time>2026-04-18T11:25:50.999Z</time></trkpt><trkpt lat="42.49072566231538" lon="13.367556806030752"><ele>1146.0</ele><time>2026-04-18T11:25:51.999Z</time></trkpt><trkpt lat="42.49089031256746" lon="13.36762451425476"><ele>1146.0</ele><time>2026-04-18T11:25:52.999Z</time></trkpt><trkpt lat="42.49105617007992" lon="13.367688327880597"><ele>1146.0</ele><time>2026-04-18T11:25:53.999Z</time></trkpt><trkpt lat="42.49122144013161" lon="13.367753205889024"><ele>1146.0</ele><time>2026-04-18T11:25:54.999Z</time></trkpt><trkpt lat="42.49138614224807" lon="13.367816648307638"><ele>1145.6666666666667</ele><time>2026-04-18T11:25:55.999Z</time></trkpt><trkpt lat="42.49154846265179" lon="13.367882884126404"><ele>1145.3333333333335</ele><time>2026-04-18T11:25:56.999Z</time></trkpt><trkpt lat="42.49170984936934" lon="13.367951473515046"><ele>1145.0</ele><time>2026-04-18T11:25:57.999Z</time></trkpt><trkpt lat="42.4918724311142" lon="13.368024618659899"><ele>1145.0</ele><time>2026-04-18T11:25:58.999Z</time></trkpt><trkpt lat="42.49203005103073" lon="13.368109909858106"><ele>1145.0</ele><time>2026-04-18T11:25:59.999Z</time></trkpt><trkpt lat="42.492183363355934" lon="13.36820903014333"><ele>1145.0</ele><time>2026-04-18T11:26:00.999Z</time></trkpt><trkpt lat="42.492332425051316" lon="13.36832050974918"><ele>1145.0</ele><time>2026-04-18T11:26:01.999Z</time></trkpt><trkpt lat="42.49247815199262" lon="13.368456178453059"><ele>1145.0</ele><time>2026-04-18T11:26:02.998Z</time></trkpt><trkpt lat="42.49261115967028" lon="13.368606905290367"><ele>1145.0</ele><time>2026-04-18T11:26:03.998Z</time></trkpt><trkpt lat="42.492745722498796" lon="13.368773202506517"><ele>1145.0</ele><time>2026-04-18T11:26:04.998Z</time></trkpt><trkpt lat="42.49287664112453" lon="13.368939270268724"><ele>1145.0</ele><time>2026-04-18T11:26:05.998Z</time></trkpt><trkpt lat="42.493004817558976" lon="13.369114413940833"><ele>1145.0</ele><time>2026-04-18T11:26:06.998Z</time></trkpt><trkpt lat="42.493129463321154" lon="13.369293246306322"><ele>1145.0</ele><time>2026-04-18T11:26:07.998Z</time></trkpt><trkpt lat="42.49325289844085" lon="13.369477620812091"><ele>1145.0</ele><time>2026-04-18T11:26:08.998Z</time></trkpt><trkpt lat="42.49337395919987" lon="13.369663421359874"><ele>1145.0</ele><time>2026-04-18T11:26:09.998Z</time></trkpt><trkpt lat="42.49349254402664" lon="13.369846011689841"><ele>1145.0</ele><time>2026-04-18T11:26:10.998Z</time></trkpt><trkpt lat="42.493610697976685" lon="13.37003184207154"><ele>1145.0</ele><time>2026-04-18T11:26:11.998Z</time></trkpt><trkpt lat="42.49372324782234" lon="13.370224369138393"><ele>1145.0</ele><time>2026-04-18T11:26:12.998Z</time></trkpt><trkpt lat="42.493822416993865" lon="13.370419159727849"><ele>1145.0</ele><time>2026-04-18T11:26:13.998Z</time></trkpt><trkpt lat="42.49390300772712" lon="13.370645997635101"><ele>1145.0</ele><time>2026-04-18T11:26:14.998Z</time></trkpt><trkpt lat="42.49394122657036" lon="13.370890906190251"><ele>1145.0</ele><time>2026-04-18T11:26:16.001Z</time></trkpt><trkpt lat="42.49393513920515" lon="13.371136561367758"><ele>1145.3333333333335</ele><time>2026-04-18T11:26:17.001Z</time></trkpt><trkpt lat="42.49388399471135" lon="13.371386996843043"><ele>1145.6666666666667</ele><time>2026-04-18T11:26:18.001Z</time></trkpt><trkpt lat="42.493806133796596" lon="13.371636576592378"><ele>1146.0</ele><time>2026-04-18T11:26:19.001Z</time></trkpt><trkpt lat="42.493742386341" lon="13.371889352102974"><ele>1144.6666666666667</ele><time>2026-04-18T11:26:20.001Z</time></trkpt><trkpt lat="42.49366804652288" lon="13.372149228736308"><ele>1143.3333333333335</ele><time>2026-04-18T11:26:21.001Z</time></trkpt><trkpt lat="42.49359232909413" lon="13.372407857193139"><ele>1142.0</ele><time>2026-04-18T11:26:22.001Z</time></trkpt><trkpt lat="42.493513807602326" lon="13.372664572581423"><ele>1142.0</ele><time>2026-04-18T11:26:23.001Z</time></trkpt><trkpt lat="42.49343307607794" lon="13.372919281690672"><ele>1142.0</ele><time>2026-04-18T11:26:24.001Z</time></trkpt><trkpt lat="42.49335486452869" lon="13.373170150635803"><ele>1142.0</ele><time>2026-04-18T11:26:25.001Z</time></trkpt><trkpt lat="42.49327704185973" lon="13.373417909494057"><ele>1141.6666666666667</ele><time>2026-04-18T11:26:26.001Z</time></trkpt><trkpt lat="42.493202071150236" lon="13.373657734256321"><ele>1141.3333333333333</ele><time>2026-04-18T11:26:27.001Z</time></trkpt><trkpt lat="42.49313685600724" lon="13.373891770808964"><ele>1141.0</ele><time>2026-04-18T11:26:28.001Z</time></trkpt><trkpt lat="42.493088487452106" lon="13.374134386237364"><ele>1141.6666666666665</ele><time>2026-04-18T11:26:29.001Z</time></trkpt><trkpt lat="42.49306773020131" lon="13.3743836424957"><ele>1142.3333333333333</ele><time>2026-04-18T11:26:30.001Z</time></trkpt><trkpt lat="42.49306533541825" lon="13.3746332516058"><ele>1143.0</ele><time>2026-04-18T11:26:31.001Z</time></trkpt><trkpt lat="42.49306140113614" lon="13.374884552808776"><ele>1143.3333333333333</ele><time>2026-04-18T11:26:32.001Z</time></trkpt><trkpt lat="42.49306154996592" lon="13.375134250130598"><ele>1143.6666666666665</ele><time>2026-04-18T11:26:33.001Z</time></trkpt><trkpt lat="42.493058731138206" lon="13.37537999954401"><ele>1144.0</ele><time>2026-04-18T11:26:34.001Z</time></trkpt><trkpt lat="42.49305578831879" lon="13.37562893580654"><ele>1144.6666666666665</ele><time>2026-04-18T11:26:35.001Z</time></trkpt><trkpt lat="42.49306356920934" lon="13.375871728803004"><ele>1145.3333333333333</ele><time>2026-04-18T11:26:36.001Z</time></trkpt><trkpt lat="42.49308885834928" lon="13.376117708043019"><ele>1146.0</ele><time>2026-04-18T11:26:37.001Z</time></trkpt><trkpt lat="42.49313889258015" lon="13.376357503229707"><ele>1146.0</ele><time>2026-04-18T11:26:38.001Z</time></trkpt><trkpt lat="42.49321032169686" lon="13.37658567158364"><ele>1146.0</ele><time>2026-04-18T11:26:39.001Z</time></trkpt><trkpt lat="42.493294680815204" lon="13.376809935196604"><ele>1146.0</ele><time>2026-04-18T11:26:40.001Z</time></trkpt><trkpt lat="42.49337573508246" lon="13.377036033898818"><ele>1144.0</ele><time>2026-04-18T11:26:41.001Z</time></trkpt><trkpt lat="42.49344194312336" lon="13.377273906400832"><ele>1142.0</ele><time>2026-04-18T11:26:42.001Z</time></trkpt><trkpt lat="42.49349139683791" lon="13.377520311887709"><ele>1140.0</ele><time>2026-04-18T11:26:43.001Z</time></trkpt><trkpt lat="42.493529594560535" lon="13.377774684369912"><ele>1139.3333333333333</ele><time>2026-04-18T11:26:44.001Z</time></trkpt><trkpt lat="42.49356277606448" lon="13.378032898719672"><ele>1138.6666666666665</ele><time>2026-04-18T11:26:45.001Z</time></trkpt><trkpt lat="42.49359519737899" lon="13.378297841824558"><ele>1138.0</ele><time>2026-04-18T11:26:46.001Z</time></trkpt><trkpt lat="42.49362830033388" lon="13.378568956694222"><ele>1138.0</ele><time>2026-04-18T11:26:47Z</time></trkpt><trkpt lat="42.4936686722869" lon="13.378833005265289"><ele>1138.0</ele><time>2026-04-18T11:26:48Z</time></trkpt><trkpt lat="42.49370984745794" lon="13.379092476178414"><ele>1138.0</ele><time>2026-04-18T11:26:49Z</time></trkpt><trkpt lat="42.493758786426355" lon="13.379342760920531"><ele>1139.6666666666665</ele><time>2026-04-18T11:26:50Z</time></trkpt><trkpt lat="42.493813731975244" lon="13.37960984116663"><ele>1141.3333333333333</ele><time>2026-04-18T11:26:51Z</time></trkpt><trkpt lat="42.493855611523635" lon="13.379803087483339"><ele>1143.0</ele><time>2026-04-18T11:26:52Z</time></trkpt><trkpt lat="42.49392263822271" lon="13.380041542744511"><ele>1143.0</ele><time>2026-04-18T11:26:53Z</time></trkpt><trkpt lat="42.4939955887782" lon="13.38027142910618"><ele>1143.0</ele><time>2026-04-18T11:26:54Z</time></trkpt><trkpt lat="42.494073835144604" lon="13.380501435505229"><ele>1143.0</ele><time>2026-04-18T11:26:55Z</time></trkpt><trkpt lat="42.49415886261743" lon="13.380729764986539"><ele>1141.0</ele><time>2026-04-18T11:26:56Z</time></trkpt><trkpt lat="42.49425863389945" lon="13.380945371466352"><ele>1139.0</ele><time>2026-04-18T11:26:57Z</time></trkpt><trkpt lat="42.494371371534726" lon="13.3811522725599"><ele>1137.0</ele><time>2026-04-18T11:26:58Z</time></trkpt><trkpt lat="42.494475448007655" lon="13.381377005724268"><ele>1135.0</ele><time>2026-04-18T11:26:59Z</time></trkpt><trkpt lat="42.494556203714254" lon="13.38162392994123"><ele>1133.0</ele><time>2026-04-18T11:27:00Z</time></trkpt><trkpt lat="42.494630531398016" lon="13.381853492734049"><ele>1131.0</ele><time>2026-04-18T11:27:01Z</time></trkpt><trkpt lat="42.494699090165255" lon="13.382071032994618"><ele>1135.3333333333333</ele><time>2026-04-18T11:27:02Z</time></trkpt><trkpt lat="42.4947661189493" lon="13.38230436450564"><ele>1139.6666666666665</ele><time>2026-04-18T11:27:03Z</time></trkpt><trkpt lat="42.49480557359067" lon="13.382548961817877"><ele>1144.0</ele><time>2026-04-18T11:27:04Z</time></trkpt><trkpt lat="42.49480404105803" lon="13.382800241303118"><ele>1143.3333333333333</ele><time>2026-04-18T11:27:05Z</time></trkpt><trkpt lat="42.494800735378405" lon="13.383038148585987"><ele>1142.6666666666667</ele><time>2026-04-18T11:27:06Z</time></trkpt><trkpt lat="42.494783302883754" lon="13.383309065436011"><ele>1142.0</ele><time>2026-04-18T11:27:07Z</time></trkpt><trkpt lat="42.494743387127635" lon="13.383552579134466"><ele>1142.0</ele><time>2026-04-18T11:27:08Z</time></trkpt><trkpt lat="42.49469318735015" lon="13.38379753356311"><ele>1142.0</ele><time>2026-04-18T11:27:09Z</time></trkpt><trkpt lat="42.4946373161186" lon="13.384035090031958"><ele>1142.0</ele><time>2026-04-18T11:27:10Z</time></trkpt><trkpt lat="42.49459046376408" lon="13.384275972940179"><ele>1138.3333333333335</ele><time>2026-04-18T11:27:11Z</time></trkpt><trkpt lat="42.49456531525878" lon="13.384515197666545"><ele>1134.6666666666667</ele><time>2026-04-18T11:27:11.999Z</time></trkpt><trkpt lat="42.49457610944004" lon="13.384743907409534"><ele>1131.0</ele><time>2026-04-18T11:27:12.999Z</time></trkpt><trkpt lat="42.494629371966695" lon="13.384949075092536"><ele>1131.0</ele><time>2026-04-18T11:27:13.999Z</time></trkpt><trkpt lat="42.494721852077184" lon="13.385121834057367"><ele>1131.0</ele><time>2026-04-18T11:27:14.999Z</time></trkpt><trkpt lat="42.4948553830411" lon="13.385243274026049"><ele>1131.0</ele><time>2026-04-18T11:27:15.999Z</time></trkpt><trkpt lat="42.495021743529996" lon="13.38530671028567"><ele>1131.0</ele><time>2026-04-18T11:27:16.999Z</time></trkpt><trkpt lat="42.495205978583535" lon="13.385299184594118"><ele>1131.0</ele><time>2026-04-18T11:27:17.999Z</time></trkpt><trkpt lat="42.49539049028832" lon="13.385262329725578"><ele>1131.0</ele><time>2026-04-18T11:27:18.999Z</time></trkpt><trkpt lat="42.495583367918584" lon="13.385223139892162"><ele>1132.0</ele><time>2026-04-18T11:27:19.999Z</time></trkpt><trkpt lat="42.49577484431367" lon="13.385220245863525"><ele>1133.0</ele><time>2026-04-18T11:27:20.999Z</time></trkpt><trkpt lat="42.49596378101178" lon="13.385235239127526"><ele>1134.0</ele><time>2026-04-18T11:27:21.999Z</time></trkpt><trkpt lat="42.49615469663047" lon="13.38527376343108"><ele>1137.3333333333333</ele><time>2026-04-18T11:27:22.999Z</time></trkpt><trkpt lat="42.49633885298292" lon="13.385338722850417"><ele>1140.6666666666665</ele><time>2026-04-18T11:27:23.999Z</time></trkpt><trkpt lat="42.49649749190588" lon="13.38547104714452"><ele>1144.0</ele><time>2026-04-18T11:27:24.999Z</time></trkpt><trkpt lat="42.496652568123444" lon="13.385604795337464"><ele>1139.3333333333333</ele><time>2026-04-18T11:27:25.999Z</time></trkpt><trkpt lat="42.49680416103583" lon="13.385743474216689"><ele>1134.6666666666667</ele><time>2026-04-18T11:27:26.999Z</time></trkpt><trkpt lat="42.49696278265898" lon="13.385865356173028"><ele>1130.0</ele><time>2026-04-18T11:27:27.999Z</time></trkpt><trkpt lat="42.49710742506186" lon="13.386026125207568"><ele>1130.0</ele><time>2026-04-18T11:27:28.999Z</time></trkpt><trkpt lat="42.497257166284754" lon="13.386155719621373"><ele>1130.0</ele><time>2026-04-18T11:27:29.999Z</time></trkpt><trkpt lat="42.49741122294009" lon="13.386289865507988"><ele>1130.0</ele><time>2026-04-18T11:27:30.998Z</time></trkpt><trkpt lat="42.49755922593255" lon="13.386420286983109"><ele>1129.0</ele><time>2026-04-18T11:27:31.998Z</time></trkpt><trkpt lat="42.497705432156486" lon="13.386565058986367"><ele>1128.0</ele><time>2026-04-18T11:27:32.998Z</time></trkpt><trkpt lat="42.49784039028019" lon="13.386712515961493"><ele>1127.0</ele><time>2026-04-18T11:27:33.998Z</time></trkpt><trkpt lat="42.497976848868205" lon="13.38686750993621"><ele>1127.0</ele><time>2026-04-18T11:27:34.998Z</time></trkpt><trkpt lat="42.49810878569505" lon="13.387025986072635"><ele>1127.0</ele><time>2026-04-18T11:27:35.998Z</time></trkpt><trkpt lat="42.49823737318612" lon="13.387196081820745"><ele>1127.0</ele><time>2026-04-18T11:27:36.998Z</time></trkpt><trkpt lat="42.498356836467536" lon="13.387380891628792"><ele>1123.6666666666667</ele><time>2026-04-18T11:27:37.998Z</time></trkpt><trkpt lat="42.49846303015649" lon="13.38757942888467"><ele>1120.3333333333333</ele><time>2026-04-18T11:27:38.998Z</time></trkpt><trkpt lat="42.49855417602286" lon="13.38779126410121"><ele>1117.0</ele><time>2026-04-18T11:27:39.998Z</time></trkpt><trkpt lat="42.49862758143655" lon="13.388011631823128"><ele>1114.3333333333333</ele><time>2026-04-18T11:27:40.998Z</time></trkpt><trkpt lat="42.498683566680846" lon="13.388249023499833"><ele>1111.6666666666667</ele><time>2026-04-18T11:27:41.998Z</time></trkpt><trkpt lat="42.49871181131995" lon="13.388483766527015"><ele>1109.0</ele><time>2026-04-18T11:27:42.998Z</time></trkpt><trkpt lat="42.498718212940965" lon="13.388721535489127"><ele>1109.6666666666667</ele><time>2026-04-18T11:27:43.998Z</time></trkpt><trkpt lat="42.49872441061773" lon="13.388959504496121"><ele>1110.3333333333333</ele><time>2026-04-18T11:27:44.998Z</time></trkpt><trkpt lat="42.49875303811274" lon="13.389176154871958"><ele>1111.0</ele><time>2026-04-18T11:27:45.998Z</time></trkpt><trkpt lat="42.49882718173702" lon="13.389396755625508"><ele>1112.6666666666665</ele><time>2026-04-18T11:27:46.998Z</time></trkpt><trkpt lat="42.49892704276691" lon="13.38959866136636"><ele>1114.3333333333333</ele><time>2026-04-18T11:27:47.998Z</time></trkpt><trkpt lat="42.49902824136928" lon="13.389791630686329"><ele>1116.0</ele><time>2026-04-18T11:27:48.998Z</time></trkpt><trkpt lat="42.49912228182723" lon="13.389984403782424"><ele>1116.0</ele><time>2026-04-18T11:27:49.998Z</time></trkpt><trkpt lat="42.49921196640387" lon="13.390165290775922"><ele>1116.0</ele><time>2026-04-18T11:27:50.998Z</time></trkpt><trkpt lat="42.49929828644313" lon="13.390332822905934"><ele>1116.0</ele><time>2026-04-18T11:27:51.998Z</time></trkpt><trkpt lat="42.49938365879302" lon="13.390487861629808"><ele>1116.5</ele><time>2026-04-18T11:27:52.998Z</time></trkpt><trkpt lat="42.499466268818146" lon="13.390626667802126"><ele>1117.0</ele><time>2026-04-18T11:27:53.998Z</time></trkpt><trkpt lat="42.4995560581918" lon="13.390761073901785"><ele>1117.5</ele><time>2026-04-18T11:27:54.998Z</time></trkpt><trkpt lat="42.499650480574466" lon="13.390876405641981"><ele>1118.0</ele><time>2026-04-18T11:27:55.998Z</time></trkpt><trkpt lat="42.49975629789283" lon="13.390973720263498"><ele>1118.0</ele><time>2026-04-18T11:27:56.998Z</time></trkpt><trkpt lat="42.49987125548686" lon="13.391052047232096"><ele>1118.0</ele><time>2026-04-18T11:27:57.998Z</time></trkpt><trkpt lat="42.499994410096285" lon="13.39111513633693"><ele>1118.0</ele><time>2026-04-18T11:27:58.998Z</time></trkpt><trkpt lat="42.500119685575164" lon="13.391175419201431"><ele>1118.0</ele><time>2026-04-18T11:27:59.998Z</time></trkpt><trkpt lat="42.50024674122633" lon="13.391245555220173"><ele>1118.0</ele><time>2026-04-18T11:28:00.998Z</time></trkpt><trkpt lat="42.50037650053628" lon="13.391319841350832"><ele>1118.0</ele><time>2026-04-18T11:28:01.998Z</time></trkpt><trkpt lat="42.50050096175582" lon="13.391403783169265"><ele>1118.0</ele><time>2026-04-18T11:28:02.998Z</time></trkpt><trkpt lat="42.50061678648385" lon="13.391515436712103"><ele>1118.0</ele><time>2026-04-18T11:28:03.998Z</time></trkpt><trkpt lat="42.50071895360654" lon="13.391663518570262"><ele>1115.0</ele><time>2026-04-18T11:28:04.998Z</time></trkpt><trkpt lat="42.500801927380806" lon="13.391848061485364"><ele>1112.0</ele><time>2026-04-18T11:28:05.998Z</time></trkpt><trkpt lat="42.50085682025101" lon="13.392058561663553"><ele>1109.0</ele><time>2026-04-18T11:28:06.998Z</time></trkpt><trkpt lat="42.50088362097715" lon="13.392281974475996"><ele>1108.6666666666667</ele><time>2026-04-18T11:28:07.998Z</time></trkpt><trkpt lat="42.50089897626272" lon="13.392509262395786"><ele>1108.3333333333333</ele><time>2026-04-18T11:28:08.998Z</time></trkpt><trkpt lat="42.500902275881174" lon="13.39272867769283"><ele>1108.0</ele><time>2026-04-18T11:28:09.998Z</time></trkpt><trkpt lat="42.50089145376841" lon="13.392941841050616"><ele>1107.5</ele><time>2026-04-18T11:28:10.998Z</time></trkpt><trkpt lat="42.50091564695059" lon="13.393133730386879"><ele>1107.0</ele><time>2026-04-18T11:28:11.998Z</time></trkpt><trkpt lat="42.50099913573694" lon="13.393287324258145"><ele>1106.5</ele><time>2026-04-18T11:28:12.998Z</time></trkpt><trkpt lat="42.50113252877761" lon="13.393391658027204"><ele>1106.0</ele><time>2026-04-18T11:28:13.998Z</time></trkpt><trkpt lat="42.50129414710218" lon="13.393466395380708"><ele>1114.3333333333335</ele><time>2026-04-18T11:28:14.998Z</time></trkpt><trkpt lat="42.50144909044948" lon="13.39356161363936"><ele>1122.6666666666667</ele><time>2026-04-18T11:28:15.998Z</time></trkpt><trkpt lat="42.501594586095095" lon="13.393683457293877"><ele>1131.0</ele><time>2026-04-18T11:28:16.998Z</time></trkpt><trkpt lat="42.50172117787346" lon="13.39383657999963"><ele>1124.0</ele><time>2026-04-18T11:28:17.997Z</time></trkpt><trkpt lat="42.50182456558677" lon="13.394020772882058"><ele>1117.0</ele><time>2026-04-18T11:28:18.997Z</time></trkpt><trkpt lat="42.501923693749205" lon="13.394224063038136"><ele>1110.0</ele><time>2026-04-18T11:28:19.997Z</time></trkpt><trkpt lat="42.50200086582925" lon="13.394441716996196"><ele>1108.0</ele><time>2026-04-18T11:28:20.997Z</time></trkpt><trkpt lat="42.50201327077359" lon="13.39469479505434"><ele>1106.0</ele><time>2026-04-18T11:28:22Z</time></trkpt><trkpt lat="42.502063467450476" lon="13.39492981694385"><ele>1104.0</ele><time>2026-04-18T11:28:23Z</time></trkpt><trkpt lat="42.50215167529824" lon="13.395148491661086"><ele>1112.3333333333333</ele><time>2026-04-18T11:28:24Z</time></trkpt><trkpt lat="42.50225980333661" lon="13.395358207241188"><ele>1120.6666666666665</ele><time>2026-04-18T11:28:25Z</time></trkpt><trkpt lat="42.50233764291549" lon="13.395600491773004"><ele>1129.0</ele><time>2026-04-18T11:28:26Z</time></trkpt><trkpt lat="42.502375492823916" lon="13.395864157197062"><ele>1129.0</ele><time>2026-04-18T11:28:27Z</time></trkpt><trkpt lat="42.502407330898784" lon="13.396131235658787"><ele>1129.0</ele><time>2026-04-18T11:28:28Z</time></trkpt><trkpt lat="42.50242919955939" lon="13.396384452134676"><ele>1129.0</ele><time>2026-04-18T11:28:29Z</time></trkpt><trkpt lat="42.50243384705721" lon="13.396630105054813"><ele>1124.6666666666665</ele><time>2026-04-18T11:28:30Z</time></trkpt><trkpt lat="42.50245005285601" lon="13.396861366149565"><ele>1120.3333333333333</ele><time>2026-04-18T11:28:31Z</time></trkpt><trkpt lat="42.502488227251916" lon="13.397082733146215"><ele>1116.0</ele><time>2026-04-18T11:28:32Z</time></trkpt><trkpt lat="42.50253257691388" lon="13.397288909805674"><ele>1114.0</ele><time>2026-04-18T11:28:33Z</time></trkpt><trkpt lat="42.50257110944198" lon="13.397486515022527"><ele>1112.0</ele><time>2026-04-18T11:28:34Z</time></trkpt><trkpt lat="42.502636329822515" lon="13.397664599284816"><ele>1110.0</ele><time>2026-04-18T11:28:35Z</time></trkpt><trkpt lat="42.502747083941586" lon="13.397826568532306"><ele>1110.0</ele><time>2026-04-18T11:28:36Z</time></trkpt><trkpt lat="42.50289884233643" lon="13.39795766789926"><ele>1110.0</ele><time>2026-04-18T11:28:37Z</time></trkpt><trkpt lat="42.50306287623179" lon="13.398087019300439"><ele>1110.0</ele><time>2026-04-18T11:28:38Z</time></trkpt><trkpt lat="42.50321563477049" lon="13.39823741417669"><ele>1111.3333333333333</ele><time>2026-04-18T11:28:39Z</time></trkpt><trkpt lat="42.50336812039125" lon="13.398376902970245"><ele>1112.6666666666665</ele><time>2026-04-18T11:28:40Z</time></trkpt><trkpt lat="42.50352033699052" lon="13.398526577847987"><ele>1114.0</ele><time>2026-04-18T11:28:41Z</time></trkpt><trkpt lat="42.503666666475716" lon="13.398686445322861"><ele>1114.6666666666665</ele><time>2026-04-18T11:28:42Z</time></trkpt><trkpt lat="42.5038070509228" lon="13.398852254257466"><ele>1115.3333333333333</ele><time>2026-04-18T11:28:43Z</time></trkpt><trkpt lat="42.50394536865543" lon="13.399021319649238"><ele>1116.0</ele><time>2026-04-18T11:28:44Z</time></trkpt><trkpt lat="42.50407400906162" lon="13.399189460552881"><ele>1116.0</ele><time>2026-04-18T11:28:45Z</time></trkpt><trkpt lat="42.504176950622295" lon="13.399390721271553"><ele>1116.0</ele><time>2026-04-18T11:28:46Z</time></trkpt><trkpt lat="42.50427951964122" lon="13.399592630939424"><ele>1116.0</ele><time>2026-04-18T11:28:47Z</time></trkpt><trkpt lat="42.504346680785574" lon="13.399812968272645"><ele>1108.6666666666667</ele><time>2026-04-18T11:28:48Z</time></trkpt><trkpt lat="42.504410741112174" lon="13.400034941870617"><ele>1101.3333333333335</ele><time>2026-04-18T11:28:49Z</time></trkpt><trkpt lat="42.504471452225204" lon="13.400244915368313"><ele>1094.0</ele><time>2026-04-18T11:28:50Z</time></trkpt><trkpt lat="42.50452919255293" lon="13.400439582829522"><ele>1097.0</ele><time>2026-04-18T11:28:51Z</time></trkpt><trkpt lat="42.50460148602336" lon="13.400614372649317"><ele>1100.0</ele><time>2026-04-18T11:28:52Z</time></trkpt><trkpt lat="42.504708699118396" lon="13.400759281629494"><ele>1103.0</ele><time>2026-04-18T11:28:53Z</time></trkpt><trkpt lat="42.504849456695695" lon="13.400868467944024"><ele>1103.0</ele><time>2026-04-18T11:28:54Z</time></trkpt><trkpt lat="42.50500003776777" lon="13.400955994151907"><ele>1103.0</ele><time>2026-04-18T11:28:55Z</time></trkpt><trkpt lat="42.5051479933774" lon="13.401059390632566"><ele>1103.0</ele><time>2026-04-18T11:28:56Z</time></trkpt><trkpt lat="42.50529227532606" lon="13.401174481088672"><ele>1100.6666666666667</ele><time>2026-04-18T11:28:57Z</time></trkpt><trkpt lat="42.50544183763522" lon="13.401289906123361"><ele>1098.3333333333333</ele><time>2026-04-18T11:28:58Z</time></trkpt><trkpt lat="42.50559513948838" lon="13.401399685281993"><ele>1096.0</ele><time>2026-04-18T11:28:58.999Z</time></trkpt><trkpt lat="42.50574885440438" lon="13.401506194960199"><ele>1096.0</ele><time>2026-04-18T11:28:59.999Z</time></trkpt><trkpt lat="42.50590792411001" lon="13.401619214298249"><ele>1096.0</ele><time>2026-04-18T11:29:00.999Z</time></trkpt><trkpt lat="42.50607669520246" lon="13.401740746589606"><ele>1096.0</ele><time>2026-04-18T11:29:01.999Z</time></trkpt><trkpt lat="42.5062383794346" lon="13.401861899204171"><ele>1092.3333333333333</ele><time>2026-04-18T11:29:02.999Z</time></trkpt><trkpt lat="42.50638808272971" lon="13.401973015542715"><ele>1088.6666666666667</ele><time>2026-04-18T11:29:03.999Z</time></trkpt><trkpt lat="42.50655542870478" lon="13.40208819210871"><ele>1085.0</ele><time>2026-04-18T11:29:04.999Z</time></trkpt><trkpt lat="42.50672515462806" lon="13.402217131672028"><ele>1085.0</ele><time>2026-04-18T11:29:05.999Z</time></trkpt><trkpt lat="42.506889260052056" lon="13.402334644217301"><ele>1085.0</ele><time>2026-04-18T11:29:06.999Z</time></trkpt><trkpt lat="42.50704653738446" lon="13.402466357878945"><ele>1085.0</ele><time>2026-04-18T11:29:07.999Z</time></trkpt><trkpt lat="42.5072061245958" lon="13.402549338080282"><ele>1085.5</ele><time>2026-04-18T11:29:08.999Z</time></trkpt><trkpt lat="42.507340830741825" lon="13.402657508168295"><ele>1086.0</ele><time>2026-04-18T11:29:09.999Z</time></trkpt><trkpt lat="42.50746638255708" lon="13.402751842422512"><ele>1086.5</ele><time>2026-04-18T11:29:10.999Z</time></trkpt><trkpt lat="42.50755298678555" lon="13.402888353384121"><ele>1087.0</ele><time>2026-04-18T11:29:11.999Z</time></trkpt><trkpt lat="42.50760228824598" lon="13.403072027482223"><ele>1087.0</ele><time>2026-04-18T11:29:12.999Z</time></trkpt><trkpt lat="42.50761351605248" lon="13.403278299283137"><ele>1087.0</ele><time>2026-04-18T11:29:13.999Z</time></trkpt><trkpt lat="42.50763111608096" lon="13.403510765214465"><ele>1087.0</ele><time>2026-04-18T11:29:14.999Z</time></trkpt><trkpt lat="42.507639065471736" lon="13.403748943161634"><ele>1083.0</ele><time>2026-04-18T11:29:15.999Z</time></trkpt><trkpt lat="42.50766257799789" lon="13.40397358261517"><ele>1079.0</ele><time>2026-04-18T11:29:16.999Z</time></trkpt><trkpt lat="42.50769493854642" lon="13.40418384679961"><ele>1075.0</ele><time>2026-04-18T11:29:17.999Z</time></trkpt><trkpt lat="42.50775458082881" lon="13.404375855700048"><ele>1075.0</ele><time>2026-04-18T11:29:18.999Z</time></trkpt><trkpt lat="42.50785166703579" lon="13.404551615726767"><ele>1075.0</ele><time>2026-04-18T11:29:19.999Z</time></trkpt><trkpt lat="42.50796097566184" lon="13.40472075838976"><ele>1075.0</ele><time>2026-04-18T11:29:20.999Z</time></trkpt><trkpt lat="42.50805591761635" lon="13.40489490467711"><ele>1081.3333333333333</ele><time>2026-04-18T11:29:21.999Z</time></trkpt><trkpt lat="42.50813529030793" lon="13.405093243646952"><ele>1087.6666666666667</ele><time>2026-04-18T11:29:22.999Z</time></trkpt><trkpt lat="42.50820093195665" lon="13.405287817767986"><ele>1094.0</ele><time>2026-04-18T11:29:23.999Z</time></trkpt><trkpt lat="42.50823405196458" lon="13.405495568890714"><ele>1094.0</ele><time>2026-04-18T11:29:24.999Z</time></trkpt><trkpt lat="42.508214053493674" lon="13.40571093514861"><ele>1094.0</ele><time>2026-04-18T11:29:25.999Z</time></trkpt><trkpt lat="42.50816815090318" lon="13.40593325574036"><ele>1094.0</ele><time>2026-04-18T11:29:26.999Z</time></trkpt><trkpt lat="42.50815347672481" lon="13.406157976680172"><ele>1091.0</ele><time>2026-04-18T11:29:27.999Z</time></trkpt><trkpt lat="42.508188759499674" lon="13.406374468347234"><ele>1088.0</ele><time>2026-04-18T11:29:28.999Z</time></trkpt><trkpt lat="42.50826100613981" lon="13.406575867290238"><ele>1085.0</ele><time>2026-04-18T11:29:29.999Z</time></trkpt><trkpt lat="42.508334043662444" lon="13.406771745030644"><ele>1085.0</ele><time>2026-04-18T11:29:30.999Z</time></trkpt><trkpt lat="42.50839131755465" lon="13.406969282616993"><ele>1085.0</ele><time>2026-04-18T11:29:31.999Z</time></trkpt><trkpt lat="42.50843958381725" lon="13.40715295753125"><ele>1085.0</ele><time>2026-04-18T11:29:32.999Z</time></trkpt><trkpt lat="42.508486945387425" lon="13.407330035826627"><ele>1085.0</ele><time>2026-04-18T11:29:33.999Z</time></trkpt><trkpt lat="42.508554622093044" lon="13.407471221953386"><ele>1084.75</ele><time>2026-04-18T11:29:34.999Z</time></trkpt><trkpt lat="42.508646774357565" lon="13.407577428816314"><ele>1084.5</ele><time>2026-04-18T11:29:35.999Z</time></trkpt><trkpt lat="42.50875305127399" lon="13.40765859336261"><ele>1084.25</ele><time>2026-04-18T11:29:36.999Z</time></trkpt><trkpt lat="42.50886041646679" lon="13.407722316841845"><ele>1084.0</ele><time>2026-04-18T11:29:37.999Z</time></trkpt><trkpt lat="42.50896395186907" lon="13.407779897928819"><ele>1084.0</ele><time>2026-04-18T11:29:38.999Z</time></trkpt><trkpt lat="42.50906674659663" lon="13.40784080519118"><ele>1084.0</ele><time>2026-04-18T11:29:39.999Z</time></trkpt><trkpt lat="42.50916785581084" lon="13.407908910979566"><ele>1084.0</ele><time>2026-04-18T11:29:40.998Z</time></trkpt><trkpt lat="42.50926725020172" lon="13.407974353246793"><ele>1084.0</ele><time>2026-04-18T11:29:41.998Z</time></trkpt><trkpt lat="42.50936393894166" lon="13.40804276968896"><ele>1084.0</ele><time>2026-04-18T11:29:42.998Z</time></trkpt><trkpt lat="42.5094536867598" lon="13.40812702685565"><ele>1089.0</ele><time>2026-04-18T11:29:43.998Z</time></trkpt><trkpt lat="42.509538251318105" lon="13.408228031253708"><ele>1094.0</ele><time>2026-04-18T11:29:44.998Z</time></trkpt><trkpt lat="42.50962501618185" lon="13.408339380673153"><ele>1099.0</ele><time>2026-04-18T11:29:45.998Z</time></trkpt><trkpt lat="42.50971797485866" lon="13.408447768614336"><ele>1104.0</ele><time>2026-04-18T11:29:46.998Z</time></trkpt><trkpt lat="42.509813733577936" lon="13.40856524879861"><ele>1104.0</ele><time>2026-04-18T11:29:47.998Z</time></trkpt><trkpt lat="42.50989392669166" lon="13.408704194600363"><ele>1104.0</ele><time>2026-04-18T11:29:48.998Z</time></trkpt><trkpt lat="42.50993821561098" lon="13.408865648686401"><ele>1104.0</ele><time>2026-04-18T11:29:49.998Z</time></trkpt><trkpt lat="42.50995669917345" lon="13.409038340738434"><ele>1104.0</ele><time>2026-04-18T11:29:50.998Z</time></trkpt><trkpt lat="42.5099645041953" lon="13.409196914177487"><ele>1100.0</ele><time>2026-04-18T11:29:51.998Z</time></trkpt><trkpt lat="42.50998208820665" lon="13.409349558250074"><ele>1096.0</ele><time>2026-04-18T11:29:52.998Z</time></trkpt><trkpt lat="42.51000021852581" lon="13.409499096011187"><ele>1092.0</ele><time>2026-04-18T11:29:53.998Z</time></trkpt><trkpt lat="42.51001800584808" lon="13.409645823472003"><ele>1088.0</ele><time>2026-04-18T11:29:54.998Z</time></trkpt><trkpt lat="42.51003419878917" lon="13.409786416086627"><ele>1084.0</ele><time>2026-04-18T11:29:55.998Z</time></trkpt><trkpt lat="42.510055604660586" lon="13.409919185113854"><ele>1085.2</ele><time>2026-04-18T11:29:56.998Z</time></trkpt><trkpt lat="42.510099739736205" lon="13.410040771151689"><ele>1086.4</ele><time>2026-04-18T11:29:57.998Z</time></trkpt><trkpt lat="42.51017060830583" lon="13.410137354875824"><ele>1087.6</ele><time>2026-04-18T11:29:58.998Z</time></trkpt><trkpt lat="42.510265373854054" lon="13.410209425477118"><ele>1088.8</ele><time>2026-04-18T11:29:59.998Z</time></trkpt><trkpt lat="42.51037406395533" lon="13.410270014445905"><ele>1090.0</ele><time>2026-04-18T11:30:00.998Z</time></trkpt><trkpt lat="42.510483948192146" lon="13.410336155878369"><ele>1090.0</ele><time>2026-04-18T11:30:01.998Z</time></trkpt><trkpt lat="42.51059878192642" lon="13.410409744788806"><ele>1090.0</ele><time>2026-04-18T11:30:02.998Z</time></trkpt><trkpt lat="42.51071753447199" lon="13.410478831836437"><ele>1090.0</ele><time>2026-04-18T11:30:03.998Z</time></trkpt><trkpt lat="42.51084832110469" lon="13.41055752137484"><ele>1090.0</ele><time>2026-04-18T11:30:04.998Z</time></trkpt><trkpt lat="42.510971060987394" lon="13.410645684821755"><ele>1088.75</ele><time>2026-04-18T11:30:05.998Z</time></trkpt><trkpt lat="42.511086379001014" lon="13.410758518972962"><ele>1087.5</ele><time>2026-04-18T11:30:06.998Z</time></trkpt><trkpt lat="42.51117690844376" lon="13.410901688696915"><ele>1086.25</ele><time>2026-04-18T11:30:07.998Z</time></trkpt><trkpt lat="42.511249332559345" lon="13.411072227090894"><ele>1085.0</ele><time>2026-04-18T11:30:08.998Z</time></trkpt><trkpt lat="42.51132075884433" lon="13.411240642557207"><ele>1080.25</ele><time>2026-04-18T11:30:09.998Z</time></trkpt><trkpt lat="42.51140219732074" lon="13.411407287180912"><ele>1075.5</ele><time>2026-04-18T11:30:10.998Z</time></trkpt><trkpt lat="42.51148386425427" lon="13.411578657347455"><ele>1070.75</ele><time>2026-04-18T11:30:11.998Z</time></trkpt><trkpt lat="42.51153179512228" lon="13.41176358864923"><ele>1066.0</ele><time>2026-04-18T11:30:12.998Z</time></trkpt><trkpt lat="42.51156750127669" lon="13.411934739517449"><ele>1066.0</ele><time>2026-04-18T11:30:13.998Z</time></trkpt><trkpt lat="42.51162001469483" lon="13.41207294511342"><ele>1066.0</ele><time>2026-04-18T11:30:14.998Z</time></trkpt><trkpt lat="42.51170170283706" lon="13.412183065786888"><ele>1066.0</ele><time>2026-04-18T11:30:15.998Z</time></trkpt><trkpt lat="42.51184547968051" lon="13.412200680371228"><ele>1066.0</ele><time>2026-04-18T11:30:16.998Z</time></trkpt><trkpt lat="42.511994992899275" lon="13.412167482153187"><ele>1070.3333333333333</ele><time>2026-04-18T11:30:17.998Z</time></trkpt><trkpt lat="42.51215247559935" lon="13.412152060671975"><ele>1074.6666666666667</ele><time>2026-04-18T11:30:18.998Z</time></trkpt><trkpt lat="42.51231500177068" lon="13.412114870739794"><ele>1079.0</ele><time>2026-04-18T11:30:19.998Z</time></trkpt><trkpt lat="42.51248352722055" lon="13.412086803319763"><ele>1079.0</ele><time>2026-04-18T11:30:20.998Z</time></trkpt><trkpt lat="42.51264632282886" lon="13.412081352697788"><ele>1079.0</ele><time>2026-04-18T11:30:21.998Z</time></trkpt><trkpt lat="42.512804524006036" lon="13.412079589792649"><ele>1079.0</ele><time>2026-04-18T11:30:22.998Z</time></trkpt><trkpt lat="42.512960473419916" lon="13.41213397049156"><ele>1074.3333333333335</ele><time>2026-04-18T11:30:23.998Z</time></trkpt><trkpt lat="42.51310671345801" lon="13.41222461689154"><ele>1069.6666666666667</ele><time>2026-04-18T11:30:24.997Z</time></trkpt><trkpt lat="42.5132377124427" lon="13.412363193310924"><ele>1065.0</ele><time>2026-04-18T11:30:25.997Z</time></trkpt><trkpt lat="42.51333823335409" lon="13.41254387038233"><ele>1065.0</ele><time>2026-04-18T11:30:26.997Z</time></trkpt><trkpt lat="42.51340300988763" lon="13.412761716959606"><ele>1065.0</ele><time>2026-04-18T11:30:28Z</time></trkpt><trkpt lat="42.51345274210709" lon="13.413002660080265"><ele>1065.0</ele><time>2026-04-18T11:30:29Z</time></trkpt><trkpt lat="42.51349628317019" lon="13.413250399078876"><ele>1058.3333333333333</ele><time>2026-04-18T11:30:30Z</time></trkpt><trkpt lat="42.513530600354315" lon="13.413494599235381"><ele>1051.6666666666665</ele><time>2026-04-18T11:30:31Z</time></trkpt><trkpt lat="42.513554155995266" lon="13.413722503896233"><ele>1045.0</ele><time>2026-04-18T11:30:32Z</time></trkpt><trkpt lat="42.51358457961894" lon="13.413945746761584"><ele>1041.3333333333333</ele><time>2026-04-18T11:30:33Z</time></trkpt><trkpt lat="42.51364768959053" lon="13.414152774876657"><ele>1037.6666666666667</ele><time>2026-04-18T11:30:34Z</time></trkpt><trkpt lat="42.51373302848827" lon="13.41435794997109"><ele>1034.0</ele><time>2026-04-18T11:30:35Z</time></trkpt><trkpt lat="42.513828247555246" lon="13.414564353825922"><ele>1039.6666666666667</ele><time>2026-04-18T11:30:36Z</time></trkpt><trkpt lat="42.5139293347299" lon="13.414767922746835"><ele>1045.3333333333333</ele><time>2026-04-18T11:30:37Z</time></trkpt><trkpt lat="42.51403345574926" lon="13.414979977030335"><ele>1051.0</ele><time>2026-04-18T11:30:38Z</time></trkpt><trkpt lat="42.514135592728984" lon="13.41519263565985"><ele>1051.0</ele><time>2026-04-18T11:30:39Z</time></trkpt><trkpt lat="42.51424015505596" lon="13.415402637142558"><ele>1051.0</ele><time>2026-04-18T11:30:40Z</time></trkpt><trkpt lat="42.51435125082666" lon="13.415603855956949"><ele>1051.0</ele><time>2026-04-18T11:30:41Z</time></trkpt><trkpt lat="42.51446388599834" lon="13.415790746189035"><ele>1055.3333333333333</ele><time>2026-04-18T11:30:42Z</time></trkpt><trkpt lat="42.514583317070276" lon="13.415955395197107"><ele>1059.6666666666667</ele><time>2026-04-18T11:30:43Z</time></trkpt><trkpt lat="42.51472464038389" lon="13.416071245530581"><ele>1064.0</ele><time>2026-04-18T11:30:44Z</time></trkpt><trkpt lat="42.51488744968284" lon="13.416141157422974"><ele>1064.0</ele><time>2026-04-18T11:30:45Z</time></trkpt><trkpt lat="42.51505139811563" lon="13.416216347936466"><ele>1064.0</ele><time>2026-04-18T11:30:46Z</time></trkpt><trkpt lat="42.515209790343846" lon="13.41631720745739"><ele>1064.0</ele><time>2026-04-18T11:30:47Z</time></trkpt><trkpt lat="42.5153650287128" lon="13.41642680398682"><ele>1065.3333333333335</ele><time>2026-04-18T11:30:48Z</time></trkpt><trkpt lat="42.51550414916348" lon="13.416574920950348"><ele>1066.6666666666667</ele><time>2026-04-18T11:30:49Z</time></trkpt><trkpt lat="42.5156121434332" lon="13.416766763763425"><ele>1068.0</ele><time>2026-04-18T11:30:50Z</time></trkpt><trkpt lat="42.515699904188494" lon="13.416992999633623"><ele>1057.0</ele><time>2026-04-18T11:30:51Z</time></trkpt><trkpt lat="42.515778057561974" lon="13.417212279854795"><ele>1046.0</ele><time>2026-04-18T11:30:52Z</time></trkpt><trkpt lat="42.51586503825504" lon="13.417426362353018"><ele>1035.0</ele><time>2026-04-18T11:30:53Z</time></trkpt><trkpt lat="42.51597337328279" lon="13.417632187030978"><ele>1035.0</ele><time>2026-04-18T11:30:54Z</time></trkpt><trkpt lat="42.51609704779974" lon="13.41782808198668"><ele>1035.0</ele><time>2026-04-18T11:30:55Z</time></trkpt><trkpt lat="42.5162224942953" lon="13.418030712074167"><ele>1035.0</ele><time>2026-04-18T11:30:56Z</time></trkpt><trkpt lat="42.51634229548877" lon="13.418236724705288"><ele>1039.3333333333333</ele><time>2026-04-18T11:30:57Z</time></trkpt><trkpt lat="42.516458481003745" lon="13.418441538872331"><ele>1043.6666666666665</ele><time>2026-04-18T11:30:58Z</time></trkpt><trkpt lat="42.516581071746764" lon="13.418637195399851"><ele>1048.0</ele><time>2026-04-18T11:30:59Z</time></trkpt><trkpt lat="42.516724948465956" lon="13.418799516433678"><ele>1047.0</ele><time>2026-04-18T11:31:00Z</time></trkpt><trkpt lat="42.51688636880151" lon="13.418923699825347"><ele>1046.0</ele><time>2026-04-18T11:31:00.999Z</time></trkpt><trkpt lat="42.517056271654695" lon="13.419023441521668"><ele>1045.0</ele><time>2026-04-18T11:31:01.999Z</time></trkpt><trkpt lat="42.51722549993655" lon="13.419131717132148"><ele>1045.0</ele><time>2026-04-18T11:31:02.999Z</time></trkpt><trkpt lat="42.51739269379341" lon="13.419259096977425"><ele>1045.0</ele><time>2026-04-18T11:31:03.999Z</time></trkpt><trkpt lat="42.51755051833716" lon="13.419415411088808"><ele>1045.0</ele><time>2026-04-18T11:31:04.999Z</time></trkpt><trkpt lat="42.517692142407384" lon="13.419590169512592"><ele>1052.6666666666665</ele><time>2026-04-18T11:31:05.999Z</time></trkpt><trkpt lat="42.517831101946484" lon="13.41975691960721"><ele>1060.3333333333333</ele><time>2026-04-18T11:31:06.999Z</time></trkpt><trkpt lat="42.5179520661914" lon="13.419906489601962"><ele>1068.0</ele><time>2026-04-18T11:31:07.999Z</time></trkpt><trkpt lat="42.518012691298615" lon="13.420103650673889"><ele>1068.0</ele><time>2026-04-18T11:31:08.999Z</time></trkpt><trkpt lat="42.51808027283344" lon="13.420311588628893"><ele>1068.0</ele><time>2026-04-18T11:31:09.999Z</time></trkpt><trkpt lat="42.51811466675651" lon="13.420506803540578"><ele>1068.0</ele><time>2026-04-18T11:31:10.999Z</time></trkpt><trkpt lat="42.518173142952875" lon="13.420728901506429"><ele>1061.0</ele><time>2026-04-18T11:31:11.999Z</time></trkpt><trkpt lat="42.51823908870211" lon="13.420953833796254"><ele>1054.0</ele><time>2026-04-18T11:31:12.999Z</time></trkpt><trkpt lat="42.51831357499171" lon="13.421167022043635"><ele>1047.0</ele><time>2026-04-18T11:31:13.999Z</time></trkpt><trkpt lat="42.518396771270126" lon="13.421362837214845"><ele>1041.0</ele><time>2026-04-18T11:31:14.999Z</time></trkpt><trkpt lat="42.51846439158919" lon="13.421543488264296"><ele>1035.0</ele><time>2026-04-18T11:31:15.999Z</time></trkpt><trkpt lat="42.51854242253965" lon="13.421706356044542"><ele>1029.0</ele><time>2026-04-18T11:31:16.999Z</time></trkpt><trkpt lat="42.51856977147261" lon="13.421893531550404"><ele>1023.0</ele><time>2026-04-18T11:31:17.999Z</time></trkpt><trkpt lat="42.51858544151365" lon="13.422067092340836"><ele>1022.75</ele><time>2026-04-18T11:31:18.999Z</time></trkpt><trkpt lat="42.51862713410485" lon="13.422225712808874"><ele>1022.5</ele><time>2026-04-18T11:31:19.999Z</time></trkpt><trkpt lat="42.51873746938212" lon="13.422328530468477"><ele>1022.25</ele><time>2026-04-18T11:31:20.999Z</time></trkpt><trkpt lat="42.518881296364036" lon="13.422421650951605"><ele>1022.0</ele><time>2026-04-18T11:31:21.999Z</time></trkpt><trkpt lat="42.519021974016646" lon="13.422469293030248"><ele>1022.0</ele><time>2026-04-18T11:31:22.999Z</time></trkpt><trkpt lat="42.519173186647414" lon="13.422437708612932"><ele>1022.0</ele><time>2026-04-18T11:31:23.999Z</time></trkpt><trkpt lat="42.51930012025153" lon="13.422345218793083"><ele>1022.0</ele><time>2026-04-18T11:31:24.999Z</time></trkpt><trkpt lat="42.51940035070907" lon="13.42226740109749"><ele>1022.0</ele><time>2026-04-18T11:31:25.999Z</time></trkpt><trkpt lat="42.519493966288366" lon="13.422176361285494"><ele>1024.3333333333335</ele><time>2026-04-18T11:31:26.999Z</time></trkpt><trkpt lat="42.5195669292087" lon="13.422087113205883"><ele>1026.6666666666667</ele><time>2026-04-18T11:31:27.999Z</time></trkpt><trkpt lat="42.519631925419155" lon="13.422014204624592"><ele>1029.0</ele><time>2026-04-18T11:31:28.999Z</time></trkpt><trkpt lat="42.519693506784805" lon="13.421985932610097"><ele>1031.3333333333333</ele><time>2026-04-18T11:31:29.999Z</time></trkpt><trkpt lat="42.519790077029015" lon="13.422069710678695"><ele>1033.6666666666665</ele><time>2026-04-18T11:31:31.999Z</time></trkpt><trkpt lat="42.51981275991571" lon="13.422178749626541"><ele>1036.0</ele><time>2026-04-18T11:31:32.999Z</time></trkpt><trkpt lat="42.519794399667695" lon="13.422300123119339"><ele>1036.0</ele><time>2026-04-18T11:31:33.999Z</time></trkpt><trkpt lat="42.51975915278191" lon="13.422402328678112"><ele>1036.0</ele><time>2026-04-18T11:31:34.999Z</time></trkpt><trkpt lat="42.51970284541787" lon="13.422523929557833"><ele>1036.0</ele><time>2026-04-18T11:31:35.999Z</time></trkpt><trkpt lat="42.5196774242706" lon="13.422661122993842"><ele>1036.0</ele><time>2026-04-18T11:31:36.998Z</time></trkpt><trkpt lat="42.51964367513103" lon="13.422810357527823"><ele>1036.0</ele><time>2026-04-18T11:31:37.998Z</time></trkpt><trkpt lat="42.51961011694387" lon="13.42296562757877"><ele>1037.75</ele><time>2026-04-18T11:31:38.998Z</time></trkpt><trkpt lat="42.51957512634383" lon="13.423123623325885"><ele>1039.5</ele><time>2026-04-18T11:31:39.998Z</time></trkpt><trkpt lat="42.51954217122605" lon="13.423281873763322"><ele>1041.25</ele><time>2026-04-18T11:31:40.998Z</time></trkpt><trkpt lat="42.519505834363116" lon="13.423440132887876"><ele>1043.0</ele><time>2026-04-18T11:31:41.998Z</time></trkpt><trkpt lat="42.51947487410759" lon="13.423600618421357"><ele>1035.25</ele><time>2026-04-18T11:31:42.998Z</time></trkpt><trkpt lat="42.51944510257007" lon="13.423758101531561"><ele>1027.5</ele><time>2026-04-18T11:31:43.998Z</time></trkpt><trkpt lat="42.5194087491477" lon="13.423914842844784"><ele>1019.75</ele><time>2026-04-18T11:31:44.998Z</time></trkpt><trkpt lat="42.5193707357858" lon="13.424066552512883"><ele>1012.0</ele><time>2026-04-18T11:31:45.998Z</time></trkpt><trkpt lat="42.51934343735294" lon="13.424217055922165"><ele>1011.25</ele><time>2026-04-18T11:31:46.998Z</time></trkpt><trkpt lat="42.51934261978835" lon="13.424363456071614"><ele>1010.5</ele><time>2026-04-18T11:31:47.998Z</time></trkpt><trkpt lat="42.51938350487984" lon="13.424504480731287"><ele>1009.75</ele><time>2026-04-18T11:31:48.998Z</time></trkpt><trkpt lat="42.519452651192175" lon="13.424631221903816"><ele>1009.0</ele><time>2026-04-18T11:31:49.998Z</time></trkpt><trkpt lat="42.51952761878057" lon="13.424759843856254"><ele>1013.5</ele><time>2026-04-18T11:31:50.998Z</time></trkpt><trkpt lat="42.519599488483784" lon="13.424897261627715"><ele>1018.0</ele><time>2026-04-18T11:31:51.998Z</time></trkpt><trkpt lat="42.51966610737205" lon="13.425043899269026"><ele>1022.5</ele><time>2026-04-18T11:31:52.998Z</time></trkpt><trkpt lat="42.51972532379024" lon="13.42519630414574"><ele>1027.0</ele><time>2026-04-18T11:31:53.998Z</time></trkpt><trkpt lat="42.51976779388517" lon="13.425367793723895"><ele>1026.3333333333333</ele><time>2026-04-18T11:31:54.998Z</time></trkpt><trkpt lat="42.5197822704387" lon="13.425553179549027"><ele>1025.6666666666667</ele><time>2026-04-18T11:31:55.998Z</time></trkpt><trkpt lat="42.51975774000083" lon="13.425754488825811"><ele>1025.0</ele><time>2026-04-18T11:31:56.998Z</time></trkpt><trkpt lat="42.519704178190224" lon="13.42596730753671"><ele>1025.0</ele><time>2026-04-18T11:31:57.998Z</time></trkpt><trkpt lat="42.51965261637866" lon="13.426176327931636"><ele>1025.0</ele><time>2026-04-18T11:31:58.998Z</time></trkpt><trkpt lat="42.519606653756476" lon="13.426382276803453"><ele>1025.0</ele><time>2026-04-18T11:31:59.998Z</time></trkpt><trkpt lat="42.51957444841519" lon="13.426592451681692"><ele>1014.3333333333334</ele><time>2026-04-18T11:32:00.998Z</time></trkpt><trkpt lat="42.51954703813075" lon="13.426805288832847"><ele>1003.6666666666667</ele><time>2026-04-18T11:32:01.998Z</time></trkpt><trkpt lat="42.51952247407469" lon="13.4270236485176"><ele>993.0</ele><time>2026-04-18T11:32:02.998Z</time></trkpt><trkpt lat="42.519499801172614" lon="13.427241897561709"><ele>993.0</ele><time>2026-04-18T11:32:03.998Z</time></trkpt><trkpt lat="42.51947776455279" lon="13.427455982649665"><ele>993.0</ele><time>2026-04-18T11:32:04.998Z</time></trkpt><trkpt lat="42.51947138542446" lon="13.427670943694775"><ele>993.0</ele><time>2026-04-18T11:32:05.998Z</time></trkpt><trkpt lat="42.51949000261305" lon="13.427883394098076"><ele>992.25</ele><time>2026-04-18T11:32:06.998Z</time></trkpt><trkpt lat="42.51950887804754" lon="13.428086000843217"><ele>991.5</ele><time>2026-04-18T11:32:07.998Z</time></trkpt><trkpt lat="42.519537888210515" lon="13.42828108081066"><ele>990.75</ele><time>2026-04-18T11:32:08.998Z</time></trkpt><trkpt lat="42.51956626846318" lon="13.428467673760746"><ele>990.0</ele><time>2026-04-18T11:32:09.998Z</time></trkpt><trkpt lat="42.51960509337177" lon="13.42863410298434"><ele>996.5</ele><time>2026-04-18T11:32:10.998Z</time></trkpt><trkpt lat="42.51966724555556" lon="13.42877837805464"><ele>1003.0</ele><time>2026-04-18T11:32:11.998Z</time></trkpt><trkpt lat="42.519746236260936" lon="13.428910158763728"><ele>1009.5</ele><time>2026-04-18T11:32:12.998Z</time></trkpt><trkpt lat="42.51984920620653" lon="13.42905753490356"><ele>1016.0</ele><time>2026-04-18T11:32:13.998Z</time></trkpt><trkpt lat="42.519877634765294" lon="13.429251153322127"><ele>1016.0</ele><time>2026-04-18T11:32:14.998Z</time></trkpt><trkpt lat="42.5198991790432" lon="13.429457050898863"><ele>1016.0</ele><time>2026-04-18T11:32:15.998Z</time></trkpt><trkpt lat="42.519936480397746" lon="13.429642490582223"><ele>1016.0</ele><time>2026-04-18T11:32:16.998Z</time></trkpt><trkpt lat="42.51998968170688" lon="13.42983275718332"><ele>1016.0</ele><time>2026-04-18T11:32:17.997Z</time></trkpt><trkpt lat="42.5200567242374" lon="13.430026361099435"><ele>1009.0</ele><time>2026-04-18T11:32:18.997Z</time></trkpt><trkpt lat="42.520108802091855" lon="13.430226933241784"><ele>1002.0</ele><time>2026-04-18T11:32:19.997Z</time></trkpt><trkpt lat="42.52017219978804" lon="13.430421692132034"><ele>995.0</ele><time>2026-04-18T11:32:20.997Z</time></trkpt><trkpt lat="42.520222821565" lon="13.430607334729723"><ele>992.0</ele><time>2026-04-18T11:32:21.997Z</time></trkpt><trkpt lat="42.52030578979467" lon="13.430772804151491"><ele>989.0</ele><time>2026-04-18T11:32:22.997Z</time></trkpt><trkpt lat="42.52038765613682" lon="13.430972193654743"><ele>986.0</ele><time>2026-04-18T11:32:23.997Z</time></trkpt><trkpt lat="42.520431787329265" lon="13.431176002931204"><ele>993.5</ele><time>2026-04-18T11:32:24.997Z</time></trkpt><trkpt lat="42.520469182392205" lon="13.431375968237854"><ele>1001.0</ele><time>2026-04-18T11:32:25.997Z</time></trkpt><trkpt lat="42.52050262115346" lon="13.431569127899383"><ele>1008.5</ele><time>2026-04-18T11:32:26.997Z</time></trkpt><trkpt lat="42.520534998094035" lon="13.431757962355327"><ele>1016.0</ele><time>2026-04-18T11:32:27.997Z</time></trkpt><trkpt lat="42.52056817955941" lon="13.431942614790145"><ele>1016.0</ele><time>2026-04-18T11:32:28.997Z</time></trkpt><trkpt lat="42.520611636268285" lon="13.432124889039175"><ele>1016.0</ele><time>2026-04-18T11:32:29.997Z</time></trkpt><trkpt lat="42.520672712967226" lon="13.43231003660018"><ele>1016.0</ele><time>2026-04-18T11:32:30.997Z</time></trkpt><trkpt lat="42.52074513577349" lon="13.432487653565895"><ele>1016.0</ele><time>2026-04-18T11:32:31.997Z</time></trkpt><trkpt lat="42.52083027863296" lon="13.432661321614763"><ele>1012.0</ele><time>2026-04-18T11:32:32.997Z</time></trkpt><trkpt lat="42.52090117071952" lon="13.43285037784175"><ele>1008.0</ele><time>2026-04-18T11:32:34Z</time></trkpt><trkpt lat="42.52097976558928" lon="13.43302823120429"><ele>1004.0</ele><time>2026-04-18T11:32:35Z</time></trkpt><trkpt lat="42.52105689805667" lon="13.433208572541393"><ele>1003.3333333333334</ele><time>2026-04-18T11:32:36Z</time></trkpt><trkpt lat="42.521137336432616" lon="13.433396643385427"><ele>1002.6666666666667</ele><time>2026-04-18T11:32:37.054Z</time></trkpt><trkpt lat="42.52121259522201" lon="13.43357240251736"><ele>1002.0</ele><time>2026-04-18T11:32:38.04Z</time></trkpt><trkpt lat="42.52128914836867" lon="13.433749763936927"><ele>1012.0</ele><time>2026-04-18T11:32:39.04Z</time></trkpt><trkpt lat="42.52241226308006" lon="13.435865607552076"><ele>1008.0</ele><time>2026-04-18T11:32:43.326Z</time></trkpt><trkpt lat="42.52270923646534" lon="13.436321882333779"><ele>1004.0</ele><time>2026-04-18T11:32:44.326Z</time></trkpt><trkpt lat="42.52305487393966" lon="13.436711251000698"><ele>1004.0</ele><time>2026-04-18T11:32:45.326Z</time></trkpt><trkpt lat="42.523405879381514" lon="13.43709288435505"><ele>1001.5</ele><time>2026-04-18T11:32:46.326Z</time></trkpt><trkpt lat="42.52375461527373" lon="13.437474807622465"><ele>999.0</ele><time>2026-04-18T11:32:47.324Z</time></trkpt><trkpt lat="42.524100350221644" lon="13.437865402135232"><ele>980.5</ele><time>2026-04-18T11:32:48.325Z</time></trkpt><trkpt lat="42.52447644656657" lon="13.438198278746599"><ele>962.0</ele><time>2026-04-18T11:32:49.326Z</time></trkpt><trkpt lat="42.52490795119986" lon="13.438363076642364"><ele>962.0</ele><time>2026-04-18T11:32:50.326Z</time></trkpt><trkpt lat="42.5252873" lon="13.4384548"><ele>962.0</ele><time>2026-04-18T11:32:51.326Z</time></trkpt><trkpt lat="42.52586992140996" lon="13.438713595192933"><ele>960.0</ele><time>2026-04-18T11:33:13.999Z</time></trkpt><trkpt lat="42.52603025158939" lon="13.4388438580596"><ele>958.0</ele><time>2026-04-18T11:33:14.999Z</time></trkpt><trkpt lat="42.52616060301844" lon="13.438975283356855"><ele>956.0</ele><time>2026-04-18T11:33:15.999Z</time></trkpt><trkpt lat="42.526300393572114" lon="13.439084896578"><ele>956.0</ele><time>2026-04-18T11:33:16.999Z</time></trkpt><trkpt lat="42.52643579279981" lon="13.43919333182607"><ele>956.0</ele><time>2026-04-18T11:33:17.999Z</time></trkpt><trkpt lat="42.5265570714325" lon="13.439325955049398"><ele>956.0</ele><time>2026-04-18T11:33:18.999Z</time></trkpt><trkpt lat="42.52663909757415" lon="13.43950526651936"><ele>950.3333333333334</ele><time>2026-04-18T11:33:19.999Z</time></trkpt><trkpt lat="42.52669731730836" lon="13.439708003572152"><ele>944.6666666666667</ele><time>2026-04-18T11:33:20.999Z</time></trkpt><trkpt lat="42.52673951666357" lon="13.439900500339846"><ele>939.0</ele><time>2026-04-18T11:33:21.999Z</time></trkpt><trkpt lat="42.526802646278526" lon="13.440079701641896"><ele>939.0</ele><time>2026-04-18T11:33:22.999Z</time></trkpt><trkpt lat="42.52689560416129" lon="13.44022892948438"><ele>939.0</ele><time>2026-04-18T11:33:23.999Z</time></trkpt><trkpt lat="42.52702674859371" lon="13.440331893192674"><ele>939.0</ele><time>2026-04-18T11:33:24.999Z</time></trkpt><trkpt lat="42.52718575830972" lon="13.440417121153649"><ele>935.6666666666667</ele><time>2026-04-18T11:33:25.999Z</time></trkpt><trkpt lat="42.52735594738936" lon="13.440489614623909"><ele>932.3333333333334</ele><time>2026-04-18T11:33:26.999Z</time></trkpt><trkpt lat="42.527515996552374" lon="13.440583414524461"><ele>929.0</ele><time>2026-04-18T11:33:27.999Z</time></trkpt><trkpt lat="42.52767047000264" lon="13.440692161608979"><ele>929.0</ele><time>2026-04-18T11:33:28.999Z</time></trkpt><trkpt lat="42.52781742971347" lon="13.44080823153274"><ele>929.0</ele><time>2026-04-18T11:33:29.999Z</time></trkpt><trkpt lat="42.52794238427092" lon="13.440931162709717"><ele>929.0</ele><time>2026-04-18T11:33:30.999Z</time></trkpt><trkpt lat="42.528050428395154" lon="13.441060052496171"><ele>935.6666666666667</ele><time>2026-04-18T11:33:31.999Z</time></trkpt><trkpt lat="42.528098705668796" lon="13.441252647457542"><ele>942.3333333333333</ele><time>2026-04-18T11:33:32.999Z</time></trkpt><trkpt lat="42.52810509110565" lon="13.441471758761343"><ele>949.0</ele><time>2026-04-18T11:33:33.999Z</time></trkpt><trkpt lat="42.52811539370244" lon="13.44170134664074"><ele>949.0</ele><time>2026-04-18T11:33:34.999Z</time></trkpt><trkpt lat="42.528144021851034" lon="13.441929239885686"><ele>949.0</ele><time>2026-04-18T11:33:35.999Z</time></trkpt><trkpt lat="42.52819741443666" lon="13.442151606742167"><ele>949.0</ele><time>2026-04-18T11:33:36.999Z</time></trkpt><trkpt lat="42.5282776173829" lon="13.442351745318032"><ele>941.0</ele><time>2026-04-18T11:33:37.999Z</time></trkpt><trkpt lat="42.528375451535574" lon="13.442528504734362"><ele>933.0</ele><time>2026-04-18T11:33:38.999Z</time></trkpt><trkpt lat="42.528490487209545" lon="13.442692207061997"><ele>925.0</ele><time>2026-04-18T11:33:39.999Z</time></trkpt><trkpt lat="42.528629515492526" lon="13.442831377104367"><ele>929.0</ele><time>2026-04-18T11:33:40.999Z</time></trkpt><trkpt lat="42.528784177075394" lon="13.44294544912556"><ele>933.0</ele><time>2026-04-18T11:33:41.999Z</time></trkpt><trkpt lat="42.528933886333455" lon="13.443075394916569"><ele>937.0</ele><time>2026-04-18T11:33:42.999Z</time></trkpt><trkpt lat="42.52904882049183" lon="13.44325195560242"><ele>937.0</ele><time>2026-04-18T11:33:43.999Z</time></trkpt><trkpt lat="42.5291249811011" lon="13.443469985268528"><ele>937.0</ele><time>2026-04-18T11:33:44.999Z</time></trkpt><trkpt lat="42.529173423539326" lon="13.44370135509036"><ele>937.0</ele><time>2026-04-18T11:33:45.999Z</time></trkpt><trkpt lat="42.5292409603364" lon="13.443912610601135"><ele>940.3333333333333</ele><time>2026-04-18T11:33:46.999Z</time></trkpt><trkpt lat="42.52933518017989" lon="13.444109954071282"><ele>943.6666666666667</ele><time>2026-04-18T11:33:47.999Z</time></trkpt><trkpt lat="42.52945866865034" lon="13.444271968535062"><ele>947.0</ele><time>2026-04-18T11:33:48.999Z</time></trkpt><trkpt lat="42.529609395502945" lon="13.444387225268772"><ele>947.0</ele><time>2026-04-18T11:33:49.999Z</time></trkpt><trkpt lat="42.52976315697662" lon="13.444478116261099"><ele>947.0</ele><time>2026-04-18T11:33:50.999Z</time></trkpt><trkpt lat="42.52990759256494" lon="13.444598621964094"><ele>947.0</ele><time>2026-04-18T11:33:51.999Z</time></trkpt><trkpt lat="42.530042886084786" lon="13.444742338035226"><ele>932.6666666666667</ele><time>2026-04-18T11:33:52.999Z</time></trkpt><trkpt lat="42.530170516544786" lon="13.444915632265795"><ele>918.3333333333333</ele><time>2026-04-18T11:33:53.998Z</time></trkpt><trkpt lat="42.53027699997416" lon="13.445113555204811"><ele>904.0</ele><time>2026-04-18T11:33:54.998Z</time></trkpt><trkpt lat="42.53036799099048" lon="13.44533260261671"><ele>908.0</ele><time>2026-04-18T11:33:55.998Z</time></trkpt><trkpt lat="42.53045891904409" lon="13.445554618013128"><ele>912.0</ele><time>2026-04-18T11:33:56.998Z</time></trkpt><trkpt lat="42.53054944469248" lon="13.445782733215497"><ele>916.0</ele><time>2026-04-18T11:33:57.998Z</time></trkpt><trkpt lat="42.53063793719042" lon="13.44601610057366"><ele>916.0</ele><time>2026-04-18T11:33:58.998Z</time></trkpt><trkpt lat="42.53072620826888" lon="13.446250789514444"><ele>916.0</ele><time>2026-04-18T11:33:59.998Z</time></trkpt><trkpt lat="42.53082614376416" lon="13.446470416912517"><ele>916.0</ele><time>2026-04-18T11:34:00.998Z</time></trkpt><trkpt lat="42.53094223081117" lon="13.446674692506042"><ele>916.3333333333333</ele><time>2026-04-18T11:34:01.998Z</time></trkpt><trkpt lat="42.53105528122443" lon="13.446874030009676"><ele>916.6666666666667</ele><time>2026-04-18T11:34:02.998Z</time></trkpt><trkpt lat="42.531171579153174" lon="13.447087418224491"><ele>917.0</ele><time>2026-04-18T11:34:04.048Z</time></trkpt><trkpt lat="42.53130954766375" lon="13.44730612607594"><ele>917.0</ele><time>2026-04-18T11:34:05.042Z</time></trkpt><trkpt lat="42.531423477535725" lon="13.447526126295097"><ele>917.0</ele><time>2026-04-18T11:34:06.04Z</time></trkpt><trkpt lat="42.531509609689195" lon="13.447731433880914"><ele>917.0</ele><time>2026-04-18T11:34:07.038Z</time></trkpt><trkpt lat="42.53160620659235" lon="13.447939191065691"><ele>908.6666666666667</ele><time>2026-04-18T11:34:08.037Z</time></trkpt><trkpt lat="42.53169027628435" lon="13.448123962096975"><ele>900.3333333333333</ele><time>2026-04-18T11:34:09.03Z</time></trkpt><trkpt lat="42.53178071994722" lon="13.448303078406518"><ele>892.0</ele><time>2026-04-18T11:34:10.028Z</time></trkpt><trkpt lat="42.53189788988205" lon="13.448445725332347"><ele>892.0</ele><time>2026-04-18T11:34:11.026Z</time></trkpt><trkpt lat="42.53202224989281" lon="13.448571725209886"><ele>892.0</ele><time>2026-04-18T11:34:12.029Z</time></trkpt><trkpt lat="42.53214889309201" lon="13.448690103649616"><ele>892.0</ele><time>2026-04-18T11:34:13.027Z</time></trkpt><trkpt lat="42.5322841777893" lon="13.4488290667666"><ele>890.0</ele><time>2026-04-18T11:34:14.026Z</time></trkpt><trkpt lat="42.532411116987895" lon="13.448970179326079"><ele>888.0</ele><time>2026-04-18T11:34:15.027Z</time></trkpt><trkpt lat="42.53254515081845" lon="13.449108365343584"><ele>886.0</ele><time>2026-04-18T11:34:16.03Z</time></trkpt><trkpt lat="42.532675206167475" lon="13.449250218361119"><ele>898.0</ele><time>2026-04-18T11:34:17.025Z</time></trkpt><trkpt lat="42.53319029859661" lon="13.449963070247515"><ele>898.0</ele><time>2026-04-18T11:34:19.998Z</time></trkpt><trkpt lat="42.5332039049049" lon="13.450093721030633"><ele>898.0</ele><time>2026-04-18T11:34:20.998Z</time></trkpt><trkpt lat="42.53325397721179" lon="13.450301207869217"><ele>898.0</ele><time>2026-04-18T11:34:21.998Z</time></trkpt><trkpt lat="42.53334877038451" lon="13.450515045650924"><ele>898.0</ele><time>2026-04-18T11:34:22.998Z</time></trkpt><trkpt lat="42.533470072204956" lon="13.450697557020474"><ele>892.0</ele><time>2026-04-18T11:34:23.998Z</time></trkpt><trkpt lat="42.53358292203446" lon="13.45089680366195"><ele>886.0</ele><time>2026-04-18T11:34:24.998Z</time></trkpt><trkpt lat="42.53364597155275" lon="13.451129812686512"><ele>880.0</ele><time>2026-04-18T11:34:25.998Z</time></trkpt><trkpt lat="42.53367759740867" lon="13.451365433597191"><ele>880.3333333333333</ele><time>2026-04-18T11:34:26.998Z</time></trkpt><trkpt lat="42.53371473878651" lon="13.45159772004471"><ele>880.6666666666667</ele><time>2026-04-18T11:34:27.998Z</time></trkpt><trkpt lat="42.53379251763846" lon="13.451801853450467"><ele>881.0</ele><time>2026-04-18T11:34:28.998Z</time></trkpt><trkpt lat="42.53390441950736" lon="13.451944115665727"><ele>881.0</ele><time>2026-04-18T11:34:29.998Z</time></trkpt><trkpt lat="42.53402531164026" lon="13.45203683779519"><ele>881.0</ele><time>2026-04-18T11:34:30.998Z</time></trkpt><trkpt lat="42.534137324012" lon="13.452106427396494"><ele>881.0</ele><time>2026-04-18T11:34:31.998Z</time></trkpt><trkpt lat="42.5342303126937" lon="13.452175637572147"><ele>881.0</ele><time>2026-04-18T11:34:32.998Z</time></trkpt><trkpt lat="42.534308559565865" lon="13.452237305289756"><ele>882.1999999999999</ele><time>2026-04-18T11:34:33.998Z</time></trkpt><trkpt lat="42.53437794159414" lon="13.452291696618715"><ele>883.3999999999999</ele><time>2026-04-18T11:34:34.998Z</time></trkpt><trkpt lat="42.53443837168181" lon="13.452339794037618"><ele>884.6</ele><time>2026-04-18T11:34:35.997Z</time></trkpt><trkpt lat="42.53452625759075" lon="13.452416607766512"><ele>885.8</ele><time>2026-04-18T11:34:37.997Z</time></trkpt><trkpt lat="42.5345999656251" lon="13.452484196886164"><ele>887.0</ele><time>2026-04-18T11:34:59Z</time></trkpt><trkpt lat="42.53469444591575" lon="13.452600539942312"><ele>887.0</ele><time>2026-04-18T11:35:01Z</time></trkpt><trkpt lat="42.5347478997734" lon="13.452680799236775"><ele>887.0</ele><time>2026-04-18T11:35:02Z</time></trkpt><trkpt lat="42.534803391716544" lon="13.452783105560487"><ele>887.0</ele><time>2026-04-18T11:35:03Z</time></trkpt><trkpt lat="42.53486856285058" lon="13.4528900807065"><ele>887.0</ele><time>2026-04-18T11:35:04Z</time></trkpt><trkpt lat="42.53494830863436" lon="13.452989622109554"><ele>887.0</ele><time>2026-04-18T11:35:05Z</time></trkpt><trkpt lat="42.53505090219766" lon="13.453078264985853"><ele>886.75</ele><time>2026-04-18T11:35:06Z</time></trkpt><trkpt lat="42.53516525405371" lon="13.453160451292348"><ele>886.5</ele><time>2026-04-18T11:35:07Z</time></trkpt><trkpt lat="42.53530188493093" lon="13.45326207553496"><ele>886.25</ele><time>2026-04-18T11:35:08Z</time></trkpt><trkpt lat="42.535427520831526" lon="13.453338119149349"><ele>886.0</ele><time>2026-04-18T11:35:09Z</time></trkpt><trkpt lat="42.53556930193439" lon="13.453409202438563"><ele>886.0</ele><time>2026-04-18T11:35:10Z</time></trkpt><trkpt lat="42.53573479469985" lon="13.453479150904682"><ele>886.0</ele><time>2026-04-18T11:35:11Z</time></trkpt><trkpt lat="42.53588581785761" lon="13.453538099222303"><ele>886.0</ele><time>2026-04-18T11:35:12Z</time></trkpt><trkpt lat="42.53602891551372" lon="13.453590582390698"><ele>886.0</ele><time>2026-04-18T11:35:13Z</time></trkpt><trkpt lat="42.536150338100626" lon="13.453705646452713"><ele>886.0</ele><time>2026-04-18T11:35:14Z</time></trkpt><trkpt lat="42.53627421201831" lon="13.453877782770922"><ele>886.0</ele><time>2026-04-18T11:35:15Z</time></trkpt><trkpt lat="42.53637394395717" lon="13.454053382964982"><ele>879.6666666666666</ele><time>2026-04-18T11:35:16Z</time></trkpt><trkpt lat="42.5364842691204" lon="13.454201133946514"><ele>873.3333333333333</ele><time>2026-04-18T11:35:17Z</time></trkpt><trkpt lat="42.53654780506726" lon="13.454407797944882"><ele>867.0</ele><time>2026-04-18T11:35:18Z</time></trkpt><trkpt lat="42.53674988257899" lon="13.45444693530297"><ele>867.0</ele><time>2026-04-18T11:35:19Z</time></trkpt><trkpt lat="42.536925686162675" lon="13.454540634582443"><ele>867.0</ele><time>2026-04-18T11:35:20Z</time></trkpt><trkpt lat="42.537096967904404" lon="13.45465928359481"><ele>867.0</ele><time>2026-04-18T11:35:21Z</time></trkpt><trkpt lat="42.53727658216728" lon="13.454787712751703"><ele>859.0</ele><time>2026-04-18T11:35:22Z</time></trkpt><trkpt lat="42.53746619057816" lon="13.454919660376046"><ele>851.0</ele><time>2026-04-18T11:35:23Z</time></trkpt><trkpt lat="42.537680265926205" lon="13.455070211595546"><ele>881.5</ele><time>2026-04-18T11:35:24Z</time></trkpt><trkpt lat="42.53789902539147" lon="13.455223125994397"><ele>912.0</ele><time>2026-04-18T11:35:25Z</time></trkpt><trkpt lat="42.53813842158346" lon="13.45538815066499"><ele>893.5</ele><time>2026-04-18T11:35:26Z</time></trkpt><trkpt lat="42.53839495687053" lon="13.455564091738205"><ele>875.0</ele><time>2026-04-18T11:35:27Z</time></trkpt><trkpt lat="42.53867003346629" lon="13.455750337261316"><ele>901.0</ele><time>2026-04-18T11:35:28Z</time></trkpt><trkpt lat="42.53897914565923" lon="13.455955507023141"><ele>927.0</ele><time>2026-04-18T11:35:29.057Z</time></trkpt><trkpt lat="42.539280226714865" lon="13.45615326496226"><ele>911.0</ele><time>2026-04-18T11:35:30.053Z</time></trkpt><trkpt lat="42.5409930132352" lon="13.457328585746376"><ele>919.0</ele><time>2026-04-18T11:35:34.321Z</time></trkpt><trkpt lat="42.54135796478129" lon="13.457683183570285"><ele>927.0</ele><time>2026-04-18T11:35:35.321Z</time></trkpt><trkpt lat="42.54167653635363" lon="13.458111941237886"><ele>910.5</ele><time>2026-04-18T11:35:36.321Z</time></trkpt><trkpt lat="42.5417612" lon="13.458252"><ele>894.0</ele><time>2026-04-18T11:35:37.321Z</time></trkpt><trkpt lat="42.54240074116384" lon="13.46051092160403"><ele>876.6</ele><time>2026-04-18T11:35:53.999Z</time></trkpt><trkpt lat="42.54243266843609" lon="13.460632265066673"><ele>859.2</ele><time>2026-04-18T11:35:54.999Z</time></trkpt><trkpt lat="42.5425648113362" lon="13.46071181021883"><ele>841.8000000000001</ele><time>2026-04-18T11:35:55.999Z</time></trkpt><trkpt lat="42.54252158669819" lon="13.46084530733271"><ele>824.4000000000001</ele><time>2026-04-18T11:35:56.999Z</time></trkpt><trkpt lat="42.54255940953276" lon="13.460955240956686"><ele>807.0</ele><time>2026-04-18T11:35:57.999Z</time></trkpt><trkpt lat="42.54261487476847" lon="13.461048029540532"><ele>807.0</ele><time>2026-04-18T11:35:58.999Z</time></trkpt><trkpt lat="42.5426650587833" lon="13.461126175242331"><ele>807.0</ele><time>2026-04-18T11:35:59.999Z</time></trkpt><trkpt lat="42.54271936330438" lon="13.46121084238332"><ele>807.0</ele><time>2026-04-18T11:36:00.999Z</time></trkpt><trkpt lat="42.54277748727731" lon="13.461297393133334"><ele>807.0</ele><time>2026-04-18T11:36:01.999Z</time></trkpt><trkpt lat="42.542838741444335" lon="13.461381267642576"><ele>807.0</ele><time>2026-04-18T11:36:02.999Z</time></trkpt><trkpt lat="42.54290059120855" lon="13.461461410742949"><ele>807.0</ele><time>2026-04-18T11:36:03.999Z</time></trkpt><trkpt lat="42.54296911929846" lon="13.461546010040875"><ele>806.8</ele><time>2026-04-18T11:36:04.999Z</time></trkpt><trkpt lat="42.5430430933765" lon="13.461634081295198"><ele>806.6</ele><time>2026-04-18T11:36:05.999Z</time></trkpt><trkpt lat="42.54312512083611" lon="13.461732633786387"><ele>806.4</ele><time>2026-04-18T11:36:06.998Z</time></trkpt><trkpt lat="42.54321071586644" lon="13.461835016063302"><ele>806.1999999999999</ele><time>2026-04-18T11:36:07.998Z</time></trkpt><trkpt lat="42.54330663696966" lon="13.461948915470755"><ele>806.0</ele><time>2026-04-18T11:36:08.998Z</time></trkpt><trkpt lat="42.54341078143833" lon="13.462072579496859"><ele>803.75</ele><time>2026-04-18T11:36:09.998Z</time></trkpt><trkpt lat="42.543520233423436" lon="13.462202545862967"><ele>801.5</ele><time>2026-04-18T11:36:10.998Z</time></trkpt><trkpt lat="42.54363168919852" lon="13.46233450424596"><ele>799.25</ele><time>2026-04-18T11:36:11.998Z</time></trkpt><trkpt lat="42.543746333267094" lon="13.462470219530234"><ele>797.0</ele><time>2026-04-18T11:36:12.998Z</time></trkpt><trkpt lat="42.54386071552035" lon="13.462608580117234"><ele>797.0</ele><time>2026-04-18T11:36:13.998Z</time></trkpt><trkpt lat="42.54397622418816" lon="13.462746949221158"><ele>797.0</ele><time>2026-04-18T11:36:14.998Z</time></trkpt><trkpt lat="42.54409775786784" lon="13.462887148407477"><ele>797.0</ele><time>2026-04-18T11:36:15.998Z</time></trkpt><trkpt lat="42.544221856831626" lon="13.463029538269552"><ele>795.3333333333334</ele><time>2026-04-18T11:36:16.998Z</time></trkpt><trkpt lat="42.544345872827385" lon="13.463173192266089"><ele>793.6666666666667</ele><time>2026-04-18T11:36:17.998Z</time></trkpt><trkpt lat="42.54447183459374" lon="13.463319167598945"><ele>792.0</ele><time>2026-04-18T11:36:18.998Z</time></trkpt><trkpt lat="42.54459670916555" lon="13.463461968049884"><ele>792.0</ele><time>2026-04-18T11:36:19.998Z</time></trkpt><trkpt lat="42.54472054525899" lon="13.463603580946781"><ele>792.0</ele><time>2026-04-18T11:36:20.998Z</time></trkpt><trkpt lat="42.54483555992889" lon="13.4637352603781"><ele>792.0</ele><time>2026-04-18T11:36:21.998Z</time></trkpt><trkpt lat="42.544946022988285" lon="13.463862598768033"><ele>795.3333333333333</ele><time>2026-04-18T11:36:22.998Z</time></trkpt><trkpt lat="42.54507011450471" lon="13.46398702106391"><ele>798.6666666666666</ele><time>2026-04-18T11:36:23.998Z</time></trkpt><trkpt lat="42.54521947764421" lon="13.46405756062756"><ele>802.0</ele><time>2026-04-18T11:36:24.998Z</time></trkpt><trkpt lat="42.545365804283875" lon="13.46409297211655"><ele>797.25</ele><time>2026-04-18T11:36:25.998Z</time></trkpt><trkpt lat="42.54548937940323" lon="13.464157727496104"><ele>792.5</ele><time>2026-04-18T11:36:26.998Z</time></trkpt><trkpt lat="42.54559756267845" lon="13.46427853075824"><ele>787.75</ele><time>2026-04-18T11:36:27.998Z</time></trkpt><trkpt lat="42.54570133861389" lon="13.464413588556269"><ele>783.0</ele><time>2026-04-18T11:36:28.998Z</time></trkpt><trkpt lat="42.545809777613876" lon="13.464553870514663"><ele>787.6666666666667</ele><time>2026-04-18T11:36:29.998Z</time></trkpt><trkpt lat="42.54592134013965" lon="13.464697758799355"><ele>792.3333333333334</ele><time>2026-04-18T11:36:30.998Z</time></trkpt><trkpt lat="42.54603616737722" lon="13.46484585777789"><ele>797.0</ele><time>2026-04-18T11:36:31.998Z</time></trkpt><trkpt lat="42.54615131243789" lon="13.464995331626865"><ele>795.3333333333334</ele><time>2026-04-18T11:36:32.998Z</time></trkpt><trkpt lat="42.54626723002918" lon="13.465145871894473"><ele>793.6666666666667</ele><time>2026-04-18T11:36:33.998Z</time></trkpt><trkpt lat="42.546384769988464" lon="13.46529851912231"><ele>792.0</ele><time>2026-04-18T11:36:34.998Z</time></trkpt><trkpt lat="42.546498325698366" lon="13.465451697786637"><ele>792.0</ele><time>2026-04-18T11:36:35.998Z</time></trkpt><trkpt lat="42.54660696261772" lon="13.465613042469233"><ele>792.0</ele><time>2026-04-18T11:36:36.998Z</time></trkpt><trkpt lat="42.54671876337872" lon="13.465775323504559"><ele>792.0</ele><time>2026-04-18T11:36:37.998Z</time></trkpt><trkpt lat="42.5468570028774" lon="13.46590340822877"><ele>792.0</ele><time>2026-04-18T11:36:38.998Z</time></trkpt><trkpt lat="42.54700117499566" lon="13.46599902312284"><ele>792.0</ele><time>2026-04-18T11:36:39.998Z</time></trkpt><trkpt lat="42.547138931699465" lon="13.466107519096491"><ele>792.0</ele><time>2026-04-18T11:36:40.998Z</time></trkpt><trkpt lat="42.547268167742175" lon="13.466236859178762"><ele>790.0</ele><time>2026-04-18T11:36:41.998Z</time></trkpt><trkpt lat="42.54739915350891" lon="13.466367013532562"><ele>788.0</ele><time>2026-04-18T11:36:42.998Z</time></trkpt><trkpt lat="42.54752646397538" lon="13.466492647758894"><ele>786.0</ele><time>2026-04-18T11:36:43.998Z</time></trkpt><trkpt lat="42.547656948554284" lon="13.46662597857056"><ele>786.0</ele><time>2026-04-18T11:36:45.001Z</time></trkpt><trkpt lat="42.5477853317323" lon="13.466756255371195"><ele>786.0</ele><time>2026-04-18T11:36:46.001Z</time></trkpt><trkpt lat="42.54791314911133" lon="13.466882852302426"><ele>786.0</ele><time>2026-04-18T11:36:47.001Z</time></trkpt><trkpt lat="42.54804956426142" lon="13.467005329487172"><ele>787.0</ele><time>2026-04-18T11:36:48.001Z</time></trkpt><trkpt lat="42.5481903174312" lon="13.467116999870056"><ele>788.0</ele><time>2026-04-18T11:36:49.001Z</time></trkpt><trkpt lat="42.54833401908891" lon="13.467219057580357"><ele>789.0</ele><time>2026-04-18T11:36:50.001Z</time></trkpt><trkpt lat="42.54848146974839" lon="13.467301796309265"><ele>789.0</ele><time>2026-04-18T11:36:51.001Z</time></trkpt><trkpt lat="42.548635581935685" lon="13.467367302449853"><ele>789.0</ele><time>2026-04-18T11:36:52.001Z</time></trkpt><trkpt lat="42.54879421655766" lon="13.467418244760433"><ele>789.0</ele><time>2026-04-18T11:36:53.001Z</time></trkpt><trkpt lat="42.54895233223025" lon="13.467453575992145"><ele>782.0</ele><time>2026-04-18T11:36:54.001Z</time></trkpt><trkpt lat="42.54910283766059" lon="13.46751856401747"><ele>775.0</ele><time>2026-04-18T11:36:55.001Z</time></trkpt><trkpt lat="42.549250154964525" lon="13.46761291731256"><ele>768.0</ele><time>2026-04-18T11:36:56.001Z</time></trkpt><trkpt lat="42.549389103902506" lon="13.46771563083085"><ele>768.0</ele><time>2026-04-18T11:36:57.001Z</time></trkpt><trkpt lat="42.549532307264194" lon="13.467835000443824"><ele>768.0</ele><time>2026-04-18T11:36:58.001Z</time></trkpt><trkpt lat="42.549667424807346" lon="13.467958245605619"><ele>768.0</ele><time>2026-04-18T11:36:59.001Z</time></trkpt><trkpt lat="42.549797611133" lon="13.468087738433164"><ele>765.6666666666666</ele><time>2026-04-18T11:37:00.001Z</time></trkpt><trkpt lat="42.54991936898305" lon="13.468215541595416"><ele>763.3333333333333</ele><time>2026-04-18T11:37:01Z</time></trkpt><trkpt lat="42.55003775032845" lon="13.468345531061617"><ele>761.0</ele><time>2026-04-18T11:37:02Z</time></trkpt><trkpt lat="42.55015095173479" lon="13.468469367259777"><ele>761.0</ele><time>2026-04-18T11:37:03Z</time></trkpt><trkpt lat="42.55025158368651" lon="13.46858816541784"><ele>761.0</ele><time>2026-04-18T11:37:04Z</time></trkpt><trkpt lat="42.55034672232423" lon="13.468720961064658"><ele>761.0</ele><time>2026-04-18T11:37:05Z</time></trkpt><trkpt lat="42.55043699691638" lon="13.468863245911034"><ele>761.0</ele><time>2026-04-18T11:37:06Z</time></trkpt><trkpt lat="42.550528129701554" lon="13.469005074521768"><ele>758.5</ele><time>2026-04-18T11:37:07Z</time></trkpt><trkpt lat="42.55062181896561" lon="13.469152689569928"><ele>756.0</ele><time>2026-04-18T11:37:08Z</time></trkpt><trkpt lat="42.55072666563046" lon="13.46928594669612"><ele>753.5</ele><time>2026-04-18T11:37:09Z</time></trkpt><trkpt lat="42.550803318278454" lon="13.469431678891702"><ele>751.0</ele><time>2026-04-18T11:37:10Z</time></trkpt><trkpt lat="42.55087780993596" lon="13.469578821176926"><ele>755.0</ele><time>2026-04-18T11:37:11Z</time></trkpt><trkpt lat="42.550947056926155" lon="13.469725876102245"><ele>759.0</ele><time>2026-04-18T11:37:12Z</time></trkpt><trkpt lat="42.55101700499641" lon="13.469863247601255"><ele>763.0</ele><time>2026-04-18T11:37:13Z</time></trkpt><trkpt lat="42.55108238985475" lon="13.470001098000461"><ele>767.0</ele><time>2026-04-18T11:37:14Z</time></trkpt><trkpt lat="42.55115084398666" lon="13.470145469078592"><ele>764.5</ele><time>2026-04-18T11:37:15Z</time></trkpt><trkpt lat="42.551221518530966" lon="13.47029632041487"><ele>762.0</ele><time>2026-04-18T11:37:16Z</time></trkpt><trkpt lat="42.551280687190975" lon="13.470455322075614"><ele>759.5</ele><time>2026-04-18T11:37:17Z</time></trkpt><trkpt lat="42.55132828832667" lon="13.470627146373804"><ele>757.0</ele><time>2026-04-18T11:37:18Z</time></trkpt><trkpt lat="42.55138059306625" lon="13.470802858003612"><ele>756.25</ele><time>2026-04-18T11:37:19Z</time></trkpt><trkpt lat="42.55144317653268" lon="13.470974538725539"><ele>755.5</ele><time>2026-04-18T11:37:20Z</time></trkpt><trkpt lat="42.551520132817785" lon="13.471142093806414"><ele>754.75</ele><time>2026-04-18T11:37:21Z</time></trkpt><trkpt lat="42.55159820702028" lon="13.471309562094875"><ele>754.0</ele><time>2026-04-18T11:37:22Z</time></trkpt><trkpt lat="42.551666032146116" lon="13.471484339371168"><ele>754.0</ele><time>2026-04-18T11:37:23Z</time></trkpt><trkpt lat="42.55169752949613" lon="13.471680921631805"><ele>754.0</ele><time>2026-04-18T11:37:24Z</time></trkpt><trkpt lat="42.55174874848582" lon="13.471871685636305"><ele>754.0</ele><time>2026-04-18T11:37:25Z</time></trkpt><trkpt lat="42.5517773444595" lon="13.472072701729122"><ele>754.0</ele><time>2026-04-18T11:37:26Z</time></trkpt><trkpt lat="42.55181057589527" lon="13.472275636039969"><ele>753.6666666666667</ele><time>2026-04-18T11:37:27Z</time></trkpt><trkpt lat="42.55183598709367" lon="13.47248114442673"><ele>753.3333333333334</ele><time>2026-04-18T11:37:28Z</time></trkpt><trkpt lat="42.55182071503884" lon="13.47268674437352"><ele>753.0</ele><time>2026-04-18T11:37:29Z</time></trkpt><trkpt lat="42.55180865570993" lon="13.472896218036661"><ele>751.6666666666666</ele><time>2026-04-18T11:37:30Z</time></trkpt><trkpt lat="42.551796081938264" lon="13.473102960492245"><ele>750.3333333333333</ele><time>2026-04-18T11:37:31Z</time></trkpt><trkpt lat="42.55178319423608" lon="13.473309182663405"><ele>749.0</ele><time>2026-04-18T11:37:32Z</time></trkpt><trkpt lat="42.55177011180659" lon="13.473513533015888"><ele>749.0</ele><time>2026-04-18T11:37:32.999Z</time></trkpt><trkpt lat="42.55176434786214" lon="13.47372214541404"><ele>749.0</ele><time>2026-04-18T11:37:33.999Z</time></trkpt><trkpt lat="42.55177281021395" lon="13.473929169334214"><ele>749.0</ele><time>2026-04-18T11:37:34.999Z</time></trkpt><trkpt lat="42.55178986985442" lon="13.47413124288436"><ele>749.5</ele><time>2026-04-18T11:37:35.999Z</time></trkpt><trkpt lat="42.55181918690879" lon="13.474325157264083"><ele>750.0</ele><time>2026-04-18T11:37:36.999Z</time></trkpt><trkpt lat="42.55180610309001" lon="13.474524759694596"><ele>750.5</ele><time>2026-04-18T11:37:37.999Z</time></trkpt><trkpt lat="42.55180049111483" lon="13.474723437000229"><ele>751.0</ele><time>2026-04-18T11:37:38.999Z</time></trkpt><trkpt lat="42.55180308115055" lon="13.474914650511053"><ele>752.75</ele><time>2026-04-18T11:37:39.999Z</time></trkpt><trkpt lat="42.5517890245183" lon="13.475102245685239"><ele>754.5</ele><time>2026-04-18T11:37:40.999Z</time></trkpt><trkpt lat="42.551776240886845" lon="13.475279003573403"><ele>756.25</ele><time>2026-04-18T11:37:41.999Z</time></trkpt><trkpt lat="42.551815155990624" lon="13.475447024351096"><ele>758.0</ele><time>2026-04-18T11:37:42.999Z</time></trkpt><trkpt lat="42.551882716608155" lon="13.475592850909013"><ele>759.0</ele><time>2026-04-18T11:37:43.999Z</time></trkpt><trkpt lat="42.55195309444725" lon="13.475733757239444"><ele>760.0</ele><time>2026-04-18T11:37:44.999Z</time></trkpt><trkpt lat="42.55203336807975" lon="13.475872948017726"><ele>761.0</ele><time>2026-04-18T11:37:45.999Z</time></trkpt><trkpt lat="42.55213469761321" lon="13.475991533504303"><ele>762.0</ele><time>2026-04-18T11:37:46.999Z</time></trkpt><trkpt lat="42.55223229059902" lon="13.47608405749013"><ele>756.0</ele><time>2026-04-18T11:37:47.999Z</time></trkpt><trkpt lat="42.55232615240384" lon="13.476183470466967"><ele>750.0</ele><time>2026-04-18T11:37:48.999Z</time></trkpt><trkpt lat="42.5524054887595" lon="13.476286969492921"><ele>744.0</ele><time>2026-04-18T11:37:49.999Z</time></trkpt><trkpt lat="42.552472847928385" lon="13.47639495847302"><ele>738.0</ele><time>2026-04-18T11:37:50.999Z</time></trkpt><trkpt lat="42.55253417581498" lon="13.476505004262728"><ele>732.0</ele><time>2026-04-18T11:37:51.999Z</time></trkpt><trkpt lat="42.552585507183075" lon="13.476618806714345"><ele>732.0</ele><time>2026-04-18T11:37:52.999Z</time></trkpt><trkpt lat="42.552633220627264" lon="13.476729484090551"><ele>732.0</ele><time>2026-04-18T11:37:53.999Z</time></trkpt><trkpt lat="42.55267607924404" lon="13.476833178266904"><ele>732.0</ele><time>2026-04-18T11:37:54.999Z</time></trkpt><trkpt lat="42.552695167157076" lon="13.476949462696714"><ele>732.0</ele><time>2026-04-18T11:37:55.999Z</time></trkpt><trkpt lat="42.552705456903915" lon="13.477055712323134"><ele>732.0</ele><time>2026-04-18T11:37:56.999Z</time></trkpt><trkpt lat="42.552708281155226" lon="13.47716299139494"><ele>732.0</ele><time>2026-04-18T11:37:57.999Z</time></trkpt><trkpt lat="42.552727776312395" lon="13.477268994788108"><ele>731.7142857142858</ele><time>2026-04-18T11:37:58.999Z</time></trkpt><trkpt lat="42.55272896807993" lon="13.477375044840901"><ele>731.4285714285714</ele><time>2026-04-18T11:37:59.999Z</time></trkpt><trkpt lat="42.55272384981362" lon="13.477482893907572"><ele>731.1428571428571</ele><time>2026-04-18T11:38:00.999Z</time></trkpt><trkpt lat="42.55273406572566" lon="13.4775807193305"><ele>730.8571428571429</ele><time>2026-04-18T11:38:01.999Z</time></trkpt><trkpt lat="42.55274704950005" lon="13.47767858036497"><ele>730.5714285714286</ele><time>2026-04-18T11:38:02.999Z</time></trkpt><trkpt lat="42.55276036941257" lon="13.47777324579071"><ele>730.2857142857143</ele><time>2026-04-18T11:38:03.999Z</time></trkpt><trkpt lat="42.55277366813606" lon="13.477864099162222"><ele>730.0</ele><time>2026-04-18T11:38:04.999Z</time></trkpt><trkpt lat="42.55279781489993" lon="13.47795688348265"><ele>730.0</ele><time>2026-04-18T11:38:05.999Z</time></trkpt><trkpt lat="42.552802027590324" lon="13.478062140168309"><ele>730.0</ele><time>2026-04-18T11:38:06.999Z</time></trkpt><trkpt lat="42.55280028648708" lon="13.478168759024067"><ele>730.0</ele><time>2026-04-18T11:38:07.999Z</time></trkpt><trkpt lat="42.55278556409675" lon="13.47827500594906"><ele>730.0</ele><time>2026-04-18T11:38:08.999Z</time></trkpt><trkpt lat="42.552757890316315" lon="13.47837426101893"><ele>730.0</ele><time>2026-04-18T11:38:09.998Z</time></trkpt><trkpt lat="42.55272428219767" lon="13.478463690388441"><ele>730.0</ele><time>2026-04-18T11:38:10.998Z</time></trkpt><trkpt lat="42.55268363331874" lon="13.478540102640372"><ele>730.0</ele><time>2026-04-18T11:38:11.998Z</time></trkpt><trkpt lat="42.55264010642143" lon="13.478603995001587"><ele>730.0</ele><time>2026-04-18T11:38:12.998Z</time></trkpt><trkpt lat="42.55254660303952" lon="13.478704190047536"><ele>730.0</ele><time>2026-04-18T11:38:14.998Z</time></trkpt><trkpt lat="42.552439395267264" lon="13.478794430381143"><ele>730.0</ele><time>2026-04-18T11:38:16.998Z</time></trkpt><trkpt lat="42.55237829610203" lon="13.47885401203833"><ele>730.0</ele><time>2026-04-18T11:38:17.998Z</time></trkpt><trkpt lat="42.55231571619027" lon="13.478926099420935"><ele>726.2</ele><time>2026-04-18T11:38:18.998Z</time></trkpt><trkpt lat="42.552251307647516" lon="13.47900083714049"><ele>722.4</ele><time>2026-04-18T11:38:19.998Z</time></trkpt><trkpt lat="42.55219047617096" lon="13.4790891048641"><ele>718.5999999999999</ele><time>2026-04-18T11:38:20.998Z</time></trkpt><trkpt lat="42.55213970458291" lon="13.479194175919053"><ele>714.8</ele><time>2026-04-18T11:38:21.998Z</time></trkpt><trkpt lat="42.5520933456242" lon="13.479310097009048"><ele>711.0</ele><time>2026-04-18T11:38:22.998Z</time></trkpt><trkpt lat="42.55205192325647" lon="13.479428939917264"><ele>717.0</ele><time>2026-04-18T11:38:23.998Z</time></trkpt><trkpt lat="42.55198683515952" lon="13.479539903720127"><ele>723.0</ele><time>2026-04-18T11:38:24.998Z</time></trkpt><trkpt lat="42.55194118222276" lon="13.479668717486197"><ele>729.0</ele><time>2026-04-18T11:38:25.998Z</time></trkpt><trkpt lat="42.551898670585175" lon="13.479813076570796"><ele>735.0</ele><time>2026-04-18T11:38:26.998Z</time></trkpt><trkpt lat="42.55186940010552" lon="13.479968458129317"><ele>741.0</ele><time>2026-04-18T11:38:27.998Z</time></trkpt><trkpt lat="42.55185130514255" lon="13.480127575146202"><ele>741.0</ele><time>2026-04-18T11:38:28.998Z</time></trkpt><trkpt lat="42.551845376629544" lon="13.480289538698882"><ele>741.0</ele><time>2026-04-18T11:38:29.998Z</time></trkpt><trkpt lat="42.5518516170961" lon="13.480445691976636"><ele>741.0</ele><time>2026-04-18T11:38:30.998Z</time></trkpt><trkpt lat="42.55188478146177" lon="13.480595555689556"><ele>741.0</ele><time>2026-04-18T11:38:31.998Z</time></trkpt><trkpt lat="42.551906608899" lon="13.480741930885754"><ele>738.5999999999999</ele><time>2026-04-18T11:38:32.998Z</time></trkpt><trkpt lat="42.55192700835312" lon="13.480880479325588"><ele>736.2</ele><time>2026-04-18T11:38:33.998Z</time></trkpt><trkpt lat="42.551950781114805" lon="13.481015698963018"><ele>733.8</ele><time>2026-04-18T11:38:34.998Z</time></trkpt><trkpt lat="42.5519596401955" lon="13.481149101680792"><ele>731.4000000000001</ele><time>2026-04-18T11:38:35.998Z</time></trkpt><trkpt lat="42.55193361181459" lon="13.481283895434816"><ele>729.0</ele><time>2026-04-18T11:38:36.998Z</time></trkpt><trkpt lat="42.551865015982074" lon="13.481393513077286"><ele>722.5</ele><time>2026-04-18T11:38:37.998Z</time></trkpt><trkpt lat="42.55177092771726" lon="13.481484471607658"><ele>716.0</ele><time>2026-04-18T11:38:38.998Z</time></trkpt><trkpt lat="42.55166763209208" lon="13.481568212051839"><ele>709.5</ele><time>2026-04-18T11:38:39.998Z</time></trkpt><trkpt lat="42.551557316488456" lon="13.481655978717306"><ele>703.0</ele><time>2026-04-18T11:38:40.998Z</time></trkpt><trkpt lat="42.55144084023633" lon="13.481719214080607"><ele>703.0</ele><time>2026-04-18T11:38:41.998Z</time></trkpt><trkpt lat="42.551330682071125" lon="13.481812397880478"><ele>703.0</ele><time>2026-04-18T11:38:42.998Z</time></trkpt><trkpt lat="42.551208513690945" lon="13.48187389942925"><ele>703.0</ele><time>2026-04-18T11:38:43.998Z</time></trkpt><trkpt lat="42.55109330133741" lon="13.481957055427921"><ele>703.0</ele><time>2026-04-18T11:38:44.998Z</time></trkpt><trkpt lat="42.55098958482651" lon="13.482069062517013"><ele>702.75</ele><time>2026-04-18T11:38:45.998Z</time></trkpt><trkpt lat="42.550899334410985" lon="13.482199744167849"><ele>702.5</ele><time>2026-04-18T11:38:46.998Z</time></trkpt><trkpt lat="42.550811026280755" lon="13.482337551802999"><ele>702.25</ele><time>2026-04-18T11:38:47.997Z</time></trkpt><trkpt lat="42.5507264587044" lon="13.482480088751846"><ele>702.0</ele><time>2026-04-18T11:38:48.997Z</time></trkpt><trkpt lat="42.55063909933049" lon="13.48261981881055"><ele>702.0</ele><time>2026-04-18T11:38:49.997Z</time></trkpt><trkpt lat="42.55054757488668" lon="13.482758421557648"><ele>702.0</ele><time>2026-04-18T11:38:51.001Z</time></trkpt><trkpt lat="42.550455897031156" lon="13.48290085119708"><ele>702.0</ele><time>2026-04-18T11:38:52.001Z</time></trkpt><trkpt lat="42.55036248938838" lon="13.483041463240214"><ele>702.0</ele><time>2026-04-18T11:38:53.001Z</time></trkpt><trkpt lat="42.550263299278015" lon="13.483174230404835"><ele>705.25</ele><time>2026-04-18T11:38:54.001Z</time></trkpt><trkpt lat="42.55016406194399" lon="13.483298790267751"><ele>708.5</ele><time>2026-04-18T11:38:55.001Z</time></trkpt><trkpt lat="42.55006510870128" lon="13.483418182053471"><ele>711.75</ele><time>2026-04-18T11:38:56.001Z</time></trkpt><trkpt lat="42.54996826892489" lon="13.483530275708867"><ele>715.0</ele><time>2026-04-18T11:38:57.001Z</time></trkpt><trkpt lat="42.54986415815897" lon="13.483619554561018"><ele>715.0</ele><time>2026-04-18T11:38:58.001Z</time></trkpt><trkpt lat="42.549746442025146" lon="13.483679059129228"><ele>715.0</ele><time>2026-04-18T11:38:59.001Z</time></trkpt><trkpt lat="42.549619082455386" lon="13.483701358627105"><ele>715.0</ele><time>2026-04-18T11:39:00.001Z</time></trkpt><trkpt lat="42.549490611193285" lon="13.483699462362189"><ele>715.0</ele><time>2026-04-18T11:39:01.001Z</time></trkpt><trkpt lat="42.549360214521855" lon="13.48367657739199"><ele>718.0</ele><time>2026-04-18T11:39:02.001Z</time></trkpt><trkpt lat="42.54923351650945" lon="13.48363756751115"><ele>721.0</ele><time>2026-04-18T11:39:03.001Z</time></trkpt><trkpt lat="42.54910781264065" lon="13.483586681096476"><ele>724.0</ele><time>2026-04-18T11:39:04.001Z</time></trkpt><trkpt lat="42.548983536505716" lon="13.483532539014575"><ele>727.0</ele><time>2026-04-18T11:39:05.001Z</time></trkpt><trkpt lat="42.548863383420624" lon="13.48346616202724"><ele>727.0</ele><time>2026-04-18T11:39:06.001Z</time></trkpt><trkpt lat="42.548749040571515" lon="13.483390520114167"><ele>727.0</ele><time>2026-04-18T11:39:07.001Z</time></trkpt><trkpt lat="42.54863802636495" lon="13.483317110327183"><ele>727.0</ele><time>2026-04-18T11:39:08Z</time></trkpt><trkpt lat="42.548531156351544" lon="13.483264982875372"><ele>727.0</ele><time>2026-04-18T11:39:09Z</time></trkpt><trkpt lat="42.548426291147074" lon="13.483223994552084"><ele>722.0</ele><time>2026-04-18T11:39:10Z</time></trkpt><trkpt lat="42.54832697605746" lon="13.483191810484534"><ele>717.0</ele><time>2026-04-18T11:39:11Z</time></trkpt><trkpt lat="42.54822785020847" lon="13.483176457348957"><ele>712.0</ele><time>2026-04-18T11:39:12Z</time></trkpt><trkpt lat="42.548133511259046" lon="13.48319070400911"><ele>707.0</ele><time>2026-04-18T11:39:13Z</time></trkpt><trkpt lat="42.548055977119255" lon="13.483245977104412"><ele>702.0</ele><time>2026-04-18T11:39:14Z</time></trkpt><trkpt lat="42.5479897805075" lon="13.4833293137898"><ele>702.0</ele><time>2026-04-18T11:39:15Z</time></trkpt><trkpt lat="42.547934632729664" lon="13.483430425786223"><ele>702.0</ele><time>2026-04-18T11:39:16Z</time></trkpt><trkpt lat="42.54788722717972" lon="13.483527017093863"><ele>702.0</ele><time>2026-04-18T11:39:17Z</time></trkpt><trkpt lat="42.547855236534915" lon="13.48362594943011"><ele>702.0</ele><time>2026-04-18T11:39:18Z</time></trkpt><trkpt lat="42.547862785450214" lon="13.483744383272597"><ele>702.0</ele><time>2026-04-18T11:39:19Z</time></trkpt><trkpt lat="42.547912788612955" lon="13.48385209909957"><ele>702.0</ele><time>2026-04-18T11:39:20Z</time></trkpt><trkpt lat="42.54799782944532" lon="13.48393534868357"><ele>701.25</ele><time>2026-04-18T11:39:21Z</time></trkpt><trkpt lat="42.54810363701383" lon="13.484009433718118"><ele>700.5</ele><time>2026-04-18T11:39:22Z</time></trkpt><trkpt lat="42.54820896817785" lon="13.484091562479573"><ele>699.75</ele><time>2026-04-18T11:39:23Z</time></trkpt><trkpt lat="42.54831260535041" lon="13.484180954432174"><ele>699.0</ele><time>2026-04-18T11:39:24Z</time></trkpt><trkpt lat="42.54841977370445" lon="13.484269346659667"><ele>699.0</ele><time>2026-04-18T11:39:25Z</time></trkpt><trkpt lat="42.548516958821466" lon="13.48436155586102"><ele>699.0</ele><time>2026-04-18T11:39:26Z</time></trkpt><trkpt lat="42.548609612946244" lon="13.48445958897362"><ele>699.0</ele><time>2026-04-18T11:39:27Z</time></trkpt><trkpt lat="42.548702721176035" lon="13.48455880269504"><ele>699.0</ele><time>2026-04-18T11:39:28Z</time></trkpt><trkpt lat="42.54879026099461" lon="13.484684549200754"><ele>694.5</ele><time>2026-04-18T11:39:29Z</time></trkpt><trkpt lat="42.54885185232045" lon="13.484829559634235"><ele>690.0</ele><time>2026-04-18T11:39:30Z</time></trkpt><trkpt lat="42.548908778860074" lon="13.484982072104334"><ele>685.5</ele><time>2026-04-18T11:39:31Z</time></trkpt><trkpt lat="42.548959699474445" lon="13.485137721344778"><ele>681.0</ele><time>2026-04-18T11:39:32Z</time></trkpt><trkpt lat="42.54901890116147" lon="13.485295649386524"><ele>686.0</ele><time>2026-04-18T11:39:33Z</time></trkpt><trkpt lat="42.54907721138382" lon="13.485456929652871"><ele>691.0</ele><time>2026-04-18T11:39:34Z</time></trkpt><trkpt lat="42.54912760377012" lon="13.485623308428249"><ele>696.0</ele><time>2026-04-18T11:39:35Z</time></trkpt><trkpt lat="42.549156233625496" lon="13.485802421083191"><ele>701.0</ele><time>2026-04-18T11:39:36Z</time></trkpt><trkpt lat="42.54917081187255" lon="13.485986664501327"><ele>701.0</ele><time>2026-04-18T11:39:37Z</time></trkpt><trkpt lat="42.54919738904856" lon="13.486167348691275"><ele>701.0</ele><time>2026-04-18T11:39:38Z</time></trkpt><trkpt lat="42.54924378270557" lon="13.486346052008582"><ele>701.0</ele><time>2026-04-18T11:39:39Z</time></trkpt><trkpt lat="42.549292004047885" lon="13.48652350567308"><ele>701.0</ele><time>2026-04-18T11:39:40Z</time></trkpt><trkpt lat="42.549340764943636" lon="13.486693851132566"><ele>696.75</ele><time>2026-04-18T11:39:40.999Z</time></trkpt><trkpt lat="42.54940016733566" lon="13.486857347145657"><ele>692.5</ele><time>2026-04-18T11:39:41.999Z</time></trkpt><trkpt lat="42.54947455137786" lon="13.487011966116077"><ele>688.25</ele><time>2026-04-18T11:39:42.999Z</time></trkpt><trkpt lat="42.54955057400862" lon="13.487159489291031"><ele>684.0</ele><time>2026-04-18T11:39:43.999Z</time></trkpt><trkpt lat="42.54963379516974" lon="13.4873068953794"><ele>684.0</ele><time>2026-04-18T11:39:44.999Z</time></trkpt><trkpt lat="42.54970736564574" lon="13.487466522224002"><ele>684.0</ele><time>2026-04-18T11:39:45.999Z</time></trkpt><trkpt lat="42.54975196966564" lon="13.487642901615951"><ele>684.0</ele><time>2026-04-18T11:39:46.999Z</time></trkpt><trkpt lat="42.54978393519975" lon="13.487809963764938"><ele>684.0</ele><time>2026-04-18T11:39:47.999Z</time></trkpt><trkpt lat="42.5498224120164" lon="13.487965907432692"><ele>685.0</ele><time>2026-04-18T11:39:48.999Z</time></trkpt><trkpt lat="42.549855557670185" lon="13.488113065181"><ele>686.0</ele><time>2026-04-18T11:39:49.999Z</time></trkpt><trkpt lat="42.549877619119485" lon="13.48826331386108"><ele>687.0</ele><time>2026-04-18T11:39:50.999Z</time></trkpt><trkpt lat="42.54988554913035" lon="13.488424077719214"><ele>688.0</ele><time>2026-04-18T11:39:51.999Z</time></trkpt><trkpt lat="42.54986641011481" lon="13.488589882141252"><ele>688.0</ele><time>2026-04-18T11:39:52.999Z</time></trkpt><trkpt lat="42.54982500902527" lon="13.488751847524473"><ele>688.0</ele><time>2026-04-18T11:39:53.999Z</time></trkpt><trkpt lat="42.54976937536525" lon="13.488912181477698"><ele>688.0</ele><time>2026-04-18T11:39:54.999Z</time></trkpt><trkpt lat="42.54970668853576" lon="13.489073228831522"><ele>688.0</ele><time>2026-04-18T11:39:55.999Z</time></trkpt><trkpt lat="42.54963691869283" lon="13.489231740379372"><ele>685.0</ele><time>2026-04-18T11:39:56.999Z</time></trkpt><trkpt lat="42.549564300430625" lon="13.489389241426519"><ele>682.0</ele><time>2026-04-18T11:39:57.999Z</time></trkpt><trkpt lat="42.549498695873176" lon="13.48955202863065"><ele>679.0</ele><time>2026-04-18T11:39:58.999Z</time></trkpt><trkpt lat="42.54943855789606" lon="13.489721584216664"><ele>676.0</ele><time>2026-04-18T11:39:59.999Z</time></trkpt><trkpt lat="42.54938557221367" lon="13.489889370997671"><ele>681.25</ele><time>2026-04-18T11:40:00.999Z</time></trkpt><trkpt lat="42.54934565036302" lon="13.490061429471968"><ele>686.5</ele><time>2026-04-18T11:40:01.999Z</time></trkpt><trkpt lat="42.54931543830201" lon="13.490239016619228"><ele>691.75</ele><time>2026-04-18T11:40:02.999Z</time></trkpt><trkpt lat="42.54930003299832" lon="13.490417702802718"><ele>697.0</ele><time>2026-04-18T11:40:03.999Z</time></trkpt><trkpt lat="42.54929221526682" lon="13.490594549870295"><ele>697.0</ele><time>2026-04-18T11:40:04.999Z</time></trkpt><trkpt lat="42.549284016419186" lon="13.490768922220006"><ele>697.0</ele><time>2026-04-18T11:40:05.999Z</time></trkpt><trkpt lat="42.549278723005244" lon="13.490939498069913"><ele>697.0</ele><time>2026-04-18T11:40:06.999Z</time></trkpt><trkpt lat="42.54926641689705" lon="13.491110417952543"><ele>697.0</ele><time>2026-04-18T11:40:07.999Z</time></trkpt><trkpt lat="42.549241898283434" lon="13.491278175447942"><ele>693.25</ele><time>2026-04-18T11:40:08.999Z</time></trkpt><trkpt lat="42.549203050529485" lon="13.491445288980701"><ele>689.5</ele><time>2026-04-18T11:40:09.999Z</time></trkpt><trkpt lat="42.549151636537324" lon="13.49160593647075"><ele>685.75</ele><time>2026-04-18T11:40:10.999Z</time></trkpt><trkpt lat="42.54908769965814" lon="13.491756405199753"><ele>682.0</ele><time>2026-04-18T11:40:11.999Z</time></trkpt><trkpt lat="42.549012523898554" lon="13.491883740352385"><ele>682.0</ele><time>2026-04-18T11:40:12.999Z</time></trkpt><trkpt lat="42.54891838728827" lon="13.49200232547041"><ele>682.0</ele><time>2026-04-18T11:40:13.999Z</time></trkpt><trkpt lat="42.548812620398735" lon="13.492115006296054"><ele>682.0</ele><time>2026-04-18T11:40:14.999Z</time></trkpt><trkpt lat="42.54870374150035" lon="13.492233198503317"><ele>682.0</ele><time>2026-04-18T11:40:15.999Z</time></trkpt><trkpt lat="42.548600789428406" lon="13.492369999019703"><ele>684.75</ele><time>2026-04-18T11:40:16.999Z</time></trkpt><trkpt lat="42.54850097300962" lon="13.492517661760804"><ele>687.5</ele><time>2026-04-18T11:40:17.998Z</time></trkpt><trkpt lat="42.548404223814686" lon="13.492671877715885"><ele>690.25</ele><time>2026-04-18T11:40:18.998Z</time></trkpt><trkpt lat="42.54830815217279" lon="13.492820835211"><ele>693.0</ele><time>2026-04-18T11:40:19.998Z</time></trkpt><trkpt lat="42.54820383354922" lon="13.492949771782184"><ele>691.75</ele><time>2026-04-18T11:40:20.998Z</time></trkpt><trkpt lat="42.54809251958481" lon="13.493069207823773"><ele>690.5</ele><time>2026-04-18T11:40:21.998Z</time></trkpt><trkpt lat="42.547982343272295" lon="13.493188518100142"><ele>689.25</ele><time>2026-04-18T11:40:22.998Z</time></trkpt><trkpt lat="42.547875905133544" lon="13.49331375205182"><ele>688.0</ele><time>2026-04-18T11:40:23.998Z</time></trkpt><trkpt lat="42.54777217068793" lon="13.493441520344645"><ele>688.0</ele><time>2026-04-18T11:40:24.998Z</time></trkpt><trkpt lat="42.54766961356871" lon="13.493577473801151"><ele>688.0</ele><time>2026-04-18T11:40:25.998Z</time></trkpt><trkpt lat="42.54756753389112" lon="13.493717404568688"><ele>688.0</ele><time>2026-04-18T11:40:26.998Z</time></trkpt><trkpt lat="42.54746194022141" lon="13.493850413579105"><ele>688.0</ele><time>2026-04-18T11:40:27.998Z</time></trkpt><trkpt lat="42.54734839652725" lon="13.493968757408387"><ele>685.75</ele><time>2026-04-18T11:40:28.998Z</time></trkpt><trkpt lat="42.547223841848805" lon="13.494068485967988"><ele>683.5</ele><time>2026-04-18T11:40:29.998Z</time></trkpt><trkpt lat="42.5470960379847" lon="13.494155394482027"><ele>681.25</ele><time>2026-04-18T11:40:30.998Z</time></trkpt><trkpt lat="42.54696933402722" lon="13.49424384745444"><ele>679.0</ele><time>2026-04-18T11:40:31.998Z</time></trkpt><trkpt lat="42.546853864951196" lon="13.494329435612453"><ele>679.0</ele><time>2026-04-18T11:40:32.998Z</time></trkpt><trkpt lat="42.54674190161075" lon="13.494406335092599"><ele>679.0</ele><time>2026-04-18T11:40:33.998Z</time></trkpt><trkpt lat="42.546637078947214" lon="13.494485734238669"><ele>679.0</ele><time>2026-04-18T11:40:34.998Z</time></trkpt><trkpt lat="42.54654519371513" lon="13.49459428173416"><ele>679.0</ele><time>2026-04-18T11:40:35.998Z</time></trkpt><trkpt lat="42.54647185200742" lon="13.494730889091713"><ele>674.0</ele><time>2026-04-18T11:40:36.998Z</time></trkpt><trkpt lat="42.54642943360279" lon="13.494892131273783"><ele>669.0</ele><time>2026-04-18T11:40:37.998Z</time></trkpt><trkpt lat="42.54640524126819" lon="13.495063619351166"><ele>664.0</ele><time>2026-04-18T11:40:38.998Z</time></trkpt><trkpt lat="42.546381239924706" lon="13.495234472144533"><ele>659.0</ele><time>2026-04-18T11:40:39.998Z</time></trkpt><trkpt lat="42.54635173614798" lon="13.495404451585527"><ele>656.5</ele><time>2026-04-18T11:40:40.998Z</time></trkpt><trkpt lat="42.546322937267234" lon="13.495576691372527"><ele>654.0</ele><time>2026-04-18T11:40:41.998Z</time></trkpt><trkpt lat="42.54630487338208" lon="13.495745871490916"><ele>651.5</ele><time>2026-04-18T11:40:42.998Z</time></trkpt><trkpt lat="42.546297737106485" lon="13.495921261480737"><ele>649.0</ele><time>2026-04-18T11:40:43.998Z</time></trkpt><trkpt lat="42.546298297616346" lon="13.496097274613756"><ele>646.0</ele><time>2026-04-18T11:40:44.998Z</time></trkpt><trkpt lat="42.54628575536415" lon="13.496269884506356"><ele>643.0</ele><time>2026-04-18T11:40:45.998Z</time></trkpt><trkpt lat="42.5462398292271" lon="13.496434844821257"><ele>640.0</ele><time>2026-04-18T11:40:46.998Z</time></trkpt><trkpt lat="42.54617112960105" lon="13.496583662445206"><ele>637.0</ele><time>2026-04-18T11:40:47.998Z</time></trkpt><trkpt lat="42.54607871164219" lon="13.496709559224309"><ele>644.5</ele><time>2026-04-18T11:40:48.998Z</time></trkpt><trkpt lat="42.54597621332551" lon="13.496823061734094"><ele>652.0</ele><time>2026-04-18T11:40:49.998Z</time></trkpt><trkpt lat="42.54585862088712" lon="13.496912312306069"><ele>659.5</ele><time>2026-04-18T11:40:50.998Z</time></trkpt><trkpt lat="42.545727687122486" lon="13.496974731404288"><ele>667.0</ele><time>2026-04-18T11:40:51.998Z</time></trkpt><trkpt lat="42.54559399477973" lon="13.4970358838213"><ele>664.0</ele><time>2026-04-18T11:40:52.998Z</time></trkpt><trkpt lat="42.54545903159441" lon="13.497101758457605"><ele>661.0</ele><time>2026-04-18T11:40:53.998Z</time></trkpt><trkpt lat="42.54532401271203" lon="13.497172788360032"><ele>658.0</ele><time>2026-04-18T11:40:54.997Z</time></trkpt><trkpt lat="42.54518793150399" lon="13.497233155232374"><ele>655.0</ele><time>2026-04-18T11:40:55.997Z</time></trkpt><trkpt lat="42.54504963239323" lon="13.49728039971693"><ele>655.0</ele><time>2026-04-18T11:40:57.001Z</time></trkpt><trkpt lat="42.54491597515702" lon="13.497331592135586"><ele>655.0</ele><time>2026-04-18T11:40:58.001Z</time></trkpt><trkpt lat="42.54478977199788" lon="13.497416760358536"><ele>655.0</ele><time>2026-04-18T11:40:59.001Z</time></trkpt><trkpt lat="42.54467432401664" lon="13.497541325809399"><ele>655.0</ele><time>2026-04-18T11:41:00.001Z</time></trkpt><trkpt lat="42.544572008147526" lon="13.497687114522758"><ele>656.75</ele><time>2026-04-18T11:41:01.001Z</time></trkpt><trkpt lat="42.54448135251939" lon="13.497847563106236"><ele>658.5</ele><time>2026-04-18T11:41:02.001Z</time></trkpt><trkpt lat="42.544404989653" lon="13.498019668059484"><ele>660.25</ele><time>2026-04-18T11:41:03.001Z</time></trkpt><trkpt lat="42.54434918590489" lon="13.498203142424623"><ele>662.0</ele><time>2026-04-18T11:41:04.001Z</time></trkpt><trkpt lat="42.544309215557846" lon="13.49840412043935"><ele>662.0</ele><time>2026-04-18T11:41:05.001Z</time></trkpt><trkpt lat="42.54429651654975" lon="13.498603924371169"><ele>662.0</ele><time>2026-04-18T11:41:06.001Z</time></trkpt><trkpt lat="42.54430254000538" lon="13.498809148073766"><ele>662.0</ele><time>2026-04-18T11:41:07.001Z</time></trkpt><trkpt lat="42.544327492506355" lon="13.499009874411918"><ele>662.0</ele><time>2026-04-18T11:41:08.001Z</time></trkpt><trkpt lat="42.54435795137125" lon="13.499207714662624"><ele>661.5</ele><time>2026-04-18T11:41:09.001Z</time></trkpt><trkpt lat="42.544390491084584" lon="13.499405127753162"><ele>661.0</ele><time>2026-04-18T11:41:10.001Z</time></trkpt><trkpt lat="42.54442530586362" lon="13.499598438233441"><ele>660.5</ele><time>2026-04-18T11:41:11.001Z</time></trkpt><trkpt lat="42.544465688450494" lon="13.499789010818128"><ele>660.0</ele><time>2026-04-18T11:41:12.001Z</time></trkpt><trkpt lat="42.544500832528136" lon="13.499979826222043"><ele>662.5</ele><time>2026-04-18T11:41:13.001Z</time></trkpt><trkpt lat="42.54453570333958" lon="13.500164973421986"><ele>665.0</ele><time>2026-04-18T11:41:14.001Z</time></trkpt><trkpt lat="42.544588704928906" lon="13.500338662583093"><ele>667.5</ele><time>2026-04-18T11:41:15Z</time></trkpt><trkpt lat="42.544666770030915" lon="13.500493862998642"><ele>670.0</ele><time>2026-04-18T11:41:16Z</time></trkpt><trkpt lat="42.54475401315773" lon="13.500632772151956"><ele>662.25</ele><time>2026-04-18T11:41:17Z</time></trkpt><trkpt lat="42.54483974554717" lon="13.500771415941763"><ele>654.5</ele><time>2026-04-18T11:41:18Z</time></trkpt><trkpt lat="42.544912999364534" lon="13.500906189227562"><ele>646.75</ele><time>2026-04-18T11:41:19Z</time></trkpt><trkpt lat="42.544980208155955" lon="13.501037064428813"><ele>639.0</ele><time>2026-04-18T11:41:20Z</time></trkpt><trkpt lat="42.54504508005804" lon="13.501160858600725"><ele>642.0</ele><time>2026-04-18T11:41:21Z</time></trkpt><trkpt lat="42.54510290026727" lon="13.501279381922176"><ele>645.0</ele><time>2026-04-18T11:41:22Z</time></trkpt><trkpt lat="42.545157188589215" lon="13.501394547679652"><ele>648.0</ele><time>2026-04-18T11:41:23Z</time></trkpt><trkpt lat="42.545209870764836" lon="13.50151240623472"><ele>651.0</ele><time>2026-04-18T11:41:24Z</time></trkpt><trkpt lat="42.545261431947885" lon="13.501626737323914"><ele>654.0</ele><time>2026-04-18T11:41:25Z</time></trkpt><trkpt lat="42.54532399381901" lon="13.501731632602294"><ele>651.4000000000001</ele><time>2026-04-18T11:41:26Z</time></trkpt><trkpt lat="42.545388342287126" lon="13.50183603289776"><ele>648.8</ele><time>2026-04-18T11:41:27Z</time></trkpt><trkpt lat="42.54545749534245" lon="13.50193823510863"><ele>646.2</ele><time>2026-04-18T11:41:28Z</time></trkpt><trkpt lat="42.54553730719289" lon="13.50202960081638"><ele>643.5999999999999</ele><time>2026-04-18T11:41:29Z</time></trkpt><trkpt lat="42.54562759304649" lon="13.502116749441242"><ele>641.0</ele><time>2026-04-18T11:41:30Z</time></trkpt><trkpt lat="42.5457196408772" lon="13.502211982196968"><ele>641.0</ele><time>2026-04-18T11:41:31Z</time></trkpt><trkpt lat="42.54580774801789" lon="13.502321393858503"><ele>641.0</ele><time>2026-04-18T11:41:32Z</time></trkpt><trkpt lat="42.54589278590602" lon="13.50244185791475"><ele>641.0</ele><time>2026-04-18T11:41:33Z</time></trkpt><trkpt lat="42.54597224364819" lon="13.502571244183647"><ele>641.0</ele><time>2026-04-18T11:41:34Z</time></trkpt><trkpt lat="42.546049030103916" lon="13.502705944528087"><ele>641.0</ele><time>2026-04-18T11:41:35Z</time></trkpt><trkpt lat="42.54612449916744" lon="13.502843405585898"><ele>641.0</ele><time>2026-04-18T11:41:36Z</time></trkpt><trkpt lat="42.546199924789754" lon="13.502982009247827"><ele>641.0</ele><time>2026-04-18T11:41:37Z</time></trkpt><trkpt lat="42.54626167103336" lon="13.503136198170813"><ele>641.0</ele><time>2026-04-18T11:41:38Z</time></trkpt><trkpt lat="42.54630892297374" lon="13.503298638163452"><ele>637.75</ele><time>2026-04-18T11:41:39Z</time></trkpt><trkpt lat="42.54635464602939" lon="13.503466840365979"><ele>634.5</ele><time>2026-04-18T11:41:40Z</time></trkpt><trkpt lat="42.546401263139046" lon="13.503637051301807"><ele>631.25</ele><time>2026-04-18T11:41:41Z</time></trkpt><trkpt lat="42.54644405905107" lon="13.503809495835746"><ele>628.0</ele><time>2026-04-18T11:41:42Z</time></trkpt><trkpt lat="42.54648604071964" lon="13.503983934576489"><ele>628.0</ele><time>2026-04-18T11:41:43Z</time></trkpt><trkpt lat="42.54652791822493" lon="13.504162894071158"><ele>628.0</ele><time>2026-04-18T11:41:44Z</time></trkpt><trkpt lat="42.546564633995764" lon="13.504344118137093"><ele>628.0</ele><time>2026-04-18T11:41:45Z</time></trkpt><trkpt lat="42.546602252133106" lon="13.504519210567805"><ele>628.0</ele><time>2026-04-18T11:41:46Z</time></trkpt><trkpt lat="42.54663262966974" lon="13.504684301209197"><ele>629.75</ele><time>2026-04-18T11:41:47Z</time></trkpt><trkpt lat="42.54666704256748" lon="13.504849549263573"><ele>631.5</ele><time>2026-04-18T11:41:48Z</time></trkpt><trkpt lat="42.54669949096807" lon="13.50501832386944"><ele>633.25</ele><time>2026-04-18T11:41:48.999Z</time></trkpt><trkpt lat="42.54672492294815" lon="13.5051900615357"><ele>635.0</ele><time>2026-04-18T11:41:49.999Z</time></trkpt><trkpt lat="42.54674032632866" lon="13.505362550741483"><ele>634.0</ele><time>2026-04-18T11:41:50.999Z</time></trkpt><trkpt lat="42.54675291793629" lon="13.505540010586191"><ele>633.0</ele><time>2026-04-18T11:41:51.999Z</time></trkpt><trkpt lat="42.54676613705433" lon="13.505719154839152"><ele>632.0</ele><time>2026-04-18T11:41:52.999Z</time></trkpt><trkpt lat="42.54678062085415" lon="13.505902315417856"><ele>631.0</ele><time>2026-04-18T11:41:53.999Z</time></trkpt><trkpt lat="42.54679564759695" lon="13.506086796360028"><ele>632.0</ele><time>2026-04-18T11:41:54.999Z</time></trkpt><trkpt lat="42.546814185251115" lon="13.50627279403398"><ele>633.0</ele><time>2026-04-18T11:41:55.999Z</time></trkpt><trkpt lat="42.546826854755345" lon="13.506458582593362"><ele>634.0</ele><time>2026-04-18T11:41:56.999Z</time></trkpt><trkpt lat="42.546837761380765" lon="13.50664405238687"><ele>635.0</ele><time>2026-04-18T11:41:57.999Z</time></trkpt><trkpt lat="42.54685080414532" lon="13.50682968267417"><ele>635.0</ele><time>2026-04-18T11:41:58.999Z</time></trkpt><trkpt lat="42.546864172568014" lon="13.507012116805713"><ele>635.0</ele><time>2026-04-18T11:41:59.999Z</time></trkpt><trkpt lat="42.546876135478286" lon="13.507195428069076"><ele>635.0</ele><time>2026-04-18T11:42:00.998Z</time></trkpt><trkpt lat="42.54688711297248" lon="13.5073838608682"><ele>635.0</ele><time>2026-04-18T11:42:01.998Z</time></trkpt><trkpt lat="42.54689920002383" lon="13.507573761365386"><ele>636.25</ele><time>2026-04-18T11:42:02.998Z</time></trkpt><trkpt lat="42.546904141146236" lon="13.507765148073977"><ele>637.5</ele><time>2026-04-18T11:42:03.998Z</time></trkpt><trkpt lat="42.546904859703524" lon="13.507959817881021"><ele>638.75</ele><time>2026-04-18T11:42:04.998Z</time></trkpt><trkpt lat="42.546908070522996" lon="13.508156311280194"><ele>640.0</ele><time>2026-04-18T11:42:05.998Z</time></trkpt><trkpt lat="42.54691169209575" lon="13.508352905699052"><ele>640.0</ele><time>2026-04-18T11:42:06.998Z</time></trkpt><trkpt lat="42.54691053393839" lon="13.50853507208498"><ele>640.0</ele><time>2026-04-18T11:42:07.998Z</time></trkpt><trkpt lat="42.54691214115521" lon="13.508716853485335"><ele>640.0</ele><time>2026-04-18T11:42:08.998Z</time></trkpt><trkpt lat="42.54691712229467" lon="13.50889488959861"><ele>640.0</ele><time>2026-04-18T11:42:09.998Z</time></trkpt><trkpt lat="42.546909905775976" lon="13.509072226595837"><ele>638.5</ele><time>2026-04-18T11:42:10.998Z</time></trkpt><trkpt lat="42.54689276464104" lon="13.509249296138742"><ele>637.0</ele><time>2026-04-18T11:42:11.998Z</time></trkpt><trkpt lat="42.54686306446004" lon="13.50941781107516"><ele>635.5</ele><time>2026-04-18T11:42:12.998Z</time></trkpt><trkpt lat="42.546825969830515" lon="13.509580652762597"><ele>634.0</ele><time>2026-04-18T11:42:13.998Z</time></trkpt><trkpt lat="42.54678721748737" lon="13.509731964346527"><ele>630.8</ele><time>2026-04-18T11:42:14.998Z</time></trkpt><trkpt lat="42.54674607528557" lon="13.509872520821007"><ele>627.5999999999999</ele><time>2026-04-18T11:42:15.998Z</time></trkpt><trkpt lat="42.54668853524823" lon="13.509995340815605"><ele>624.4</ele><time>2026-04-18T11:42:16.998Z</time></trkpt><trkpt lat="42.546614291770126" lon="13.510094197121905"><ele>621.1999999999999</ele><time>2026-04-18T11:42:17.998Z</time></trkpt><trkpt lat="42.54653058314811" lon="13.510175966350715"><ele>618.0</ele><time>2026-04-18T11:42:18.998Z</time></trkpt><trkpt lat="42.54643965217098" lon="13.510244746059659"><ele>618.0</ele><time>2026-04-18T11:42:19.998Z</time></trkpt><trkpt lat="42.54634408796633" lon="13.510314135633347"><ele>618.0</ele><time>2026-04-18T11:42:20.998Z</time></trkpt><trkpt lat="42.546245254092526" lon="13.510387664708565"><ele>618.0</ele><time>2026-04-18T11:42:21.998Z</time></trkpt><trkpt lat="42.54614593116436" lon="13.510468744540441"><ele>618.0</ele><time>2026-04-18T11:42:22.998Z</time></trkpt><trkpt lat="42.546049187652955" lon="13.510548399903733"><ele>618.25</ele><time>2026-04-18T11:42:23.998Z</time></trkpt><trkpt lat="42.545948865001165" lon="13.510621241504612"><ele>618.5</ele><time>2026-04-18T11:42:24.997Z</time></trkpt><trkpt lat="42.54584767935328" lon="13.510692261809949"><ele>618.75</ele><time>2026-04-18T11:42:25.997Z</time></trkpt><trkpt lat="42.54575115718054" lon="13.510770972701568"><ele>619.0</ele><time>2026-04-18T11:42:26.997Z</time></trkpt><trkpt lat="42.54565960476937" lon="13.510861227231437"><ele>619.0</ele><time>2026-04-18T11:42:27.997Z</time></trkpt><trkpt lat="42.545575919725906" lon="13.51096642093663"><ele>619.0</ele><time>2026-04-18T11:42:28.997Z</time></trkpt><trkpt lat="42.545507203297134" lon="13.511086614236754"><ele>619.0</ele><time>2026-04-18T11:42:29.997Z</time></trkpt><trkpt lat="42.545457690638464" lon="13.511207917843256"><ele>619.0</ele><time>2026-04-18T11:42:30.997Z</time></trkpt><trkpt lat="42.54541176773217" lon="13.511335003852508"><ele>619.0</ele><time>2026-04-18T11:42:31.997Z</time></trkpt><trkpt lat="42.54534979883453" lon="13.51146406990598"><ele>618.8</ele><time>2026-04-18T11:42:32.997Z</time></trkpt><trkpt lat="42.54530072711294" lon="13.51159800808939"><ele>618.5999999999999</ele><time>2026-04-18T11:42:33.997Z</time></trkpt><trkpt lat="42.5452529594148" lon="13.51172872006035"><ele>618.4</ele><time>2026-04-18T11:42:34.997Z</time></trkpt><trkpt lat="42.54520488966467" lon="13.511860604754862"><ele>618.1999999999999</ele><time>2026-04-18T11:42:35.997Z</time></trkpt><trkpt lat="42.54516213066343" lon="13.511992950855111"><ele>618.0</ele><time>2026-04-18T11:42:36.997Z</time></trkpt><trkpt lat="42.545119942188926" lon="13.512123980044244"><ele>618.0</ele><time>2026-04-18T11:42:37.997Z</time></trkpt><trkpt lat="42.54507532062662" lon="13.512255285105686"><ele>618.0</ele><time>2026-04-18T11:42:38.997Z</time></trkpt><trkpt lat="42.54503373346034" lon="13.512379046571667"><ele>618.0</ele><time>2026-04-18T11:42:39.997Z</time></trkpt><trkpt lat="42.54500449547284" lon="13.512515940490262"><ele>618.0</ele><time>2026-04-18T11:42:40.997Z</time></trkpt><trkpt lat="42.54499934157447" lon="13.512663816535465"><ele>618.0</ele><time>2026-04-18T11:42:41.997Z</time></trkpt><trkpt lat="42.545035057018694" lon="13.512791062357985"><ele>620.0</ele><time>2026-04-18T11:42:42.997Z</time></trkpt><trkpt lat="42.545086103049826" lon="13.512919787907608"><ele>622.0</ele><time>2026-04-18T11:42:43.997Z</time></trkpt><trkpt lat="42.54514176090751" lon="13.513036316016128"><ele>624.0</ele><time>2026-04-18T11:42:44.997Z</time></trkpt><trkpt lat="42.545188141429236" lon="13.513162315855102"><ele>626.0</ele><time>2026-04-18T11:42:45.997Z</time></trkpt><trkpt lat="42.54522469876202" lon="13.513298217770842"><ele>628.0</ele><time>2026-04-18T11:42:46.997Z</time></trkpt><trkpt lat="42.545254628642866" lon="13.513436253428463"><ele>628.0</ele><time>2026-04-18T11:42:47.997Z</time></trkpt><trkpt lat="42.545284104541196" lon="13.513573961304125"><ele>628.0</ele><time>2026-04-18T11:42:48.997Z</time></trkpt><trkpt lat="42.54530487846005" lon="13.513714178740814"><ele>628.0</ele><time>2026-04-18T11:42:49.997Z</time></trkpt><trkpt lat="42.545316030359025" lon="13.513855442401413"><ele>628.0</ele><time>2026-04-18T11:42:50.997Z</time></trkpt><trkpt lat="42.54531382796688" lon="13.514003268812996"><ele>628.0</ele><time>2026-04-18T11:42:51.997Z</time></trkpt><trkpt lat="42.54530496476957" lon="13.5141499661918"><ele>627.6</ele><time>2026-04-18T11:42:52.997Z</time></trkpt><trkpt lat="42.54528751485575" lon="13.51429552099684"><ele>627.1999999999999</ele><time>2026-04-18T11:42:53.997Z</time></trkpt><trkpt lat="42.54526550429313" lon="13.514439857486988"><ele>626.8</ele><time>2026-04-18T11:42:54.997Z</time></trkpt><trkpt lat="42.54521359188161" lon="13.514571277852266"><ele>626.4</ele><time>2026-04-18T11:42:55.997Z</time></trkpt><trkpt lat="42.54517998338784" lon="13.514712469791338"><ele>626.0</ele><time>2026-04-18T11:42:56.997Z</time></trkpt><trkpt lat="42.54515979890463" lon="13.514862180622268"><ele>624.8</ele><time>2026-04-18T11:42:57.997Z</time></trkpt><trkpt lat="42.545130951438" lon="13.515010948999707"><ele>623.6</ele><time>2026-04-18T11:42:58.997Z</time></trkpt><trkpt lat="42.5451038902313" lon="13.515160407565807"><ele>622.4</ele><time>2026-04-18T11:42:59.997Z</time></trkpt><trkpt lat="42.54507617876262" lon="13.515306628327373"><ele>621.2</ele><time>2026-04-18T11:43:00.997Z</time></trkpt><trkpt lat="42.54505210379811" lon="13.515452887627237"><ele>620.0</ele><time>2026-04-18T11:43:01.999Z</time></trkpt><trkpt lat="42.545038116047174" lon="13.515599201680477"><ele>620.0</ele><time>2026-04-18T11:43:02.999Z</time></trkpt><trkpt lat="42.54504673483779" lon="13.515740344567511"><ele>620.0</ele><time>2026-04-18T11:43:03.999Z</time></trkpt><trkpt lat="42.54508495913668" lon="13.515869198181237"><ele>620.0</ele><time>2026-04-18T11:43:04.999Z</time></trkpt><trkpt lat="42.545136895203406" lon="13.515981957614533"><ele>620.0</ele><time>2026-04-18T11:43:05.999Z</time></trkpt><trkpt lat="42.54520105539493" lon="13.516083638614067"><ele>620.0</ele><time>2026-04-18T11:43:06.999Z</time></trkpt><trkpt lat="42.54527160628564" lon="13.51618111814996"><ele>621.2</ele><time>2026-04-18T11:43:07.999Z</time></trkpt><trkpt lat="42.5453329720607" lon="13.516288795031278"><ele>622.4</ele><time>2026-04-18T11:43:08.999Z</time></trkpt><trkpt lat="42.54538292207585" lon="13.516405674485448"><ele>623.6</ele><time>2026-04-18T11:43:09.999Z</time></trkpt><trkpt lat="42.54542935234197" lon="13.516527709593612"><ele>624.8</ele><time>2026-04-18T11:43:10.999Z</time></trkpt><trkpt lat="42.545481920349275" lon="13.516644597625472"><ele>626.0</ele><time>2026-04-18T11:43:11.999Z</time></trkpt><trkpt lat="42.5455655131789" lon="13.516741740671131"><ele>617.0</ele><time>2026-04-18T11:43:12.999Z</time></trkpt><trkpt lat="42.545674761062195" lon="13.516803405608592"><ele>608.0</ele><time>2026-04-18T11:43:13.999Z</time></trkpt><trkpt lat="42.54579436861166" lon="13.516846614205045"><ele>599.0</ele><time>2026-04-18T11:43:14.999Z</time></trkpt><trkpt lat="42.54591854428005" lon="13.516885976381468"><ele>590.0</ele><time>2026-04-18T11:43:15.999Z</time></trkpt><trkpt lat="42.54604162219491" lon="13.516930771722429"><ele>590.0</ele><time>2026-04-18T11:43:16.999Z</time></trkpt><trkpt lat="42.54616497797967" lon="13.51698394937711"><ele>590.0</ele><time>2026-04-18T11:43:17.999Z</time></trkpt><trkpt lat="42.54628948691549" lon="13.517040247481576"><ele>590.0</ele><time>2026-04-18T11:43:18.999Z</time></trkpt><trkpt lat="42.54640727808485" lon="13.51710447124064"><ele>590.0</ele><time>2026-04-18T11:43:19.999Z</time></trkpt><trkpt lat="42.54651884899005" lon="13.517172671242562"><ele>591.6</ele><time>2026-04-18T11:43:20.999Z</time></trkpt><trkpt lat="42.54663109682059" lon="13.51721657002388"><ele>593.2</ele><time>2026-04-18T11:43:21.999Z</time></trkpt><trkpt lat="42.5467364728235" lon="13.517250739557138"><ele>594.8</ele><time>2026-04-18T11:43:22.999Z</time></trkpt><trkpt lat="42.5468291684659" lon="13.517318644443055"><ele>596.4</ele><time>2026-04-18T11:43:23.999Z</time></trkpt><trkpt lat="42.54689833577605" lon="13.517420028724288"><ele>598.0</ele><time>2026-04-18T11:43:24.999Z</time></trkpt><trkpt lat="42.54693651377945" lon="13.51755359503529"><ele>598.0</ele><time>2026-04-18T11:43:25.999Z</time></trkpt><trkpt lat="42.54694815077235" lon="13.517705296379647"><ele>598.0</ele><time>2026-04-18T11:43:26.999Z</time></trkpt><trkpt lat="42.54693289060458" lon="13.51785896041808"><ele>598.0</ele><time>2026-04-18T11:43:27.999Z</time></trkpt><trkpt lat="42.54690097519053" lon="13.51800792755309"><ele>598.0</ele><time>2026-04-18T11:43:28.999Z</time></trkpt><trkpt lat="42.54684779366132" lon="13.518150909565437"><ele>598.0</ele><time>2026-04-18T11:43:29.999Z</time></trkpt><trkpt lat="42.54679131634795" lon="13.518290587370872"><ele>598.0</ele><time>2026-04-18T11:43:30.999Z</time></trkpt><trkpt lat="42.54673396714856" lon="13.51843590191313"><ele>598.0</ele><time>2026-04-18T11:43:31.999Z</time></trkpt><trkpt lat="42.54668087542275" lon="13.518588778161455"><ele>598.0</ele><time>2026-04-18T11:43:32.999Z</time></trkpt><trkpt lat="42.54663809062447" lon="13.518753298257517"><ele>594.5</ele><time>2026-04-18T11:43:33.999Z</time></trkpt><trkpt lat="42.54661300825436" lon="13.518926017705967"><ele>591.0</ele><time>2026-04-18T11:43:34.999Z</time></trkpt><trkpt lat="42.546591168431064" lon="13.51910011691883"><ele>587.5</ele><time>2026-04-18T11:43:35.999Z</time></trkpt><trkpt lat="42.546566322312984" lon="13.51927169434592"><ele>584.0</ele><time>2026-04-18T11:43:36.999Z</time></trkpt><trkpt lat="42.54653504024666" lon="13.519442086159556"><ele>583.5</ele><time>2026-04-18T11:43:37.999Z</time></trkpt><trkpt lat="42.54649914183843" lon="13.51960250871213"><ele>583.0</ele><time>2026-04-18T11:43:38.999Z</time></trkpt><trkpt lat="42.54647783892205" lon="13.519757465499483"><ele>582.5</ele><time>2026-04-18T11:43:39.999Z</time></trkpt><trkpt lat="42.546497095433104" lon="13.519906676343547"><ele>582.0</ele><time>2026-04-18T11:43:40.999Z</time></trkpt><trkpt lat="42.54654475784969" lon="13.520033775180147"><ele>582.0</ele><time>2026-04-18T11:43:41.999Z</time></trkpt><trkpt lat="42.54660865121151" lon="13.520148582609306"><ele>582.0</ele><time>2026-04-18T11:43:42.999Z</time></trkpt><trkpt lat="42.54666336431507" lon="13.520281773870463"><ele>582.0</ele><time>2026-04-18T11:43:43.999Z</time></trkpt><trkpt lat="42.546678334355605" lon="13.520441328345985"><ele>582.0</ele><time>2026-04-18T11:43:44.999Z</time></trkpt><trkpt lat="42.546658209786195" lon="13.520605947400936"><ele>581.75</ele><time>2026-04-18T11:43:45.999Z</time></trkpt><trkpt lat="42.546619635049524" lon="13.520771386006"><ele>581.5</ele><time>2026-04-18T11:43:46.999Z</time></trkpt><trkpt lat="42.54657037525528" lon="13.520939278849344"><ele>581.25</ele><time>2026-04-18T11:43:47.999Z</time></trkpt><trkpt lat="42.546514213648024" lon="13.521108294947318"><ele>581.0</ele><time>2026-04-18T11:43:48.999Z</time></trkpt><trkpt lat="42.54645412513145" lon="13.521283518728922"><ele>577.75</ele><time>2026-04-18T11:43:49.999Z</time></trkpt><trkpt lat="42.54639643359575" lon="13.521459228271233"><ele>574.5</ele><time>2026-04-18T11:43:50.999Z</time></trkpt><trkpt lat="42.54633983713661" lon="13.521632759762644"><ele>571.25</ele><time>2026-04-18T11:43:51.999Z</time></trkpt><trkpt lat="42.54628650813961" lon="13.52180444136396"><ele>568.0</ele><time>2026-04-18T11:43:52.999Z</time></trkpt><trkpt lat="42.546234369491074" lon="13.521979526162704"><ele>576.75</ele><time>2026-04-18T11:43:53.999Z</time></trkpt><trkpt lat="42.54617873736954" lon="13.522150177346195"><ele>585.5</ele><time>2026-04-18T11:43:54.998Z</time></trkpt><trkpt lat="42.546125297497206" lon="13.522314057150693"><ele>594.25</ele><time>2026-04-18T11:43:55.998Z</time></trkpt><trkpt lat="42.5460854928928" lon="13.522472543614288"><ele>603.0</ele><time>2026-04-18T11:43:56.998Z</time></trkpt><trkpt lat="42.54606984713473" lon="13.522630955352946"><ele>603.0</ele><time>2026-04-18T11:43:57.998Z</time></trkpt><trkpt lat="42.54608652790884" lon="13.522781602998702"><ele>603.0</ele><time>2026-04-18T11:43:58.998Z</time></trkpt><trkpt lat="42.546137869374874" lon="13.522919488153898"><ele>603.0</ele><time>2026-04-18T11:43:59.998Z</time></trkpt><trkpt lat="42.546223084888865" lon="13.523039391639902"><ele>603.0</ele><time>2026-04-18T11:44:00.998Z</time></trkpt><trkpt lat="42.54632727436409" lon="13.523127073925176"><ele>597.75</ele><time>2026-04-18T11:44:01.998Z</time></trkpt><trkpt lat="42.546451099079725" lon="13.523177295693792"><ele>592.5</ele><time>2026-04-18T11:44:02.998Z</time></trkpt><trkpt lat="42.54658485545483" lon="13.523221861588722"><ele>587.25</ele><time>2026-04-18T11:44:03.998Z</time></trkpt><trkpt lat="42.54671397995229" lon="13.52329121040984"><ele>582.0</ele><time>2026-04-18T11:44:04.998Z</time></trkpt><trkpt lat="42.54683636078846" lon="13.523369282435954"><ele>582.0</ele><time>2026-04-18T11:44:05.998Z</time></trkpt><trkpt lat="42.54695138907909" lon="13.523449179685155"><ele>582.0</ele><time>2026-04-18T11:44:06.998Z</time></trkpt><trkpt lat="42.547065829335835" lon="13.523539354703015"><ele>582.0</ele><time>2026-04-18T11:44:07.998Z</time></trkpt><trkpt lat="42.547180385746" lon="13.523617131285503"><ele>582.0</ele><time>2026-04-18T11:44:08.998Z</time></trkpt><trkpt lat="42.547309290842456" lon="13.523670823135745"><ele>577.75</ele><time>2026-04-18T11:44:09.998Z</time></trkpt><trkpt lat="42.547447825037274" lon="13.523691589405153"><ele>573.5</ele><time>2026-04-18T11:44:10.998Z</time></trkpt><trkpt lat="42.547587847779845" lon="13.523671919018167"><ele>569.25</ele><time>2026-04-18T11:44:11.998Z</time></trkpt><trkpt lat="42.547724513346694" lon="13.523639419878172"><ele>565.0</ele><time>2026-04-18T11:44:12.998Z</time></trkpt><trkpt lat="42.54785990885526" lon="13.523596482334343"><ele>561.75</ele><time>2026-04-18T11:44:13.998Z</time></trkpt><trkpt lat="42.547987074633305" lon="13.523546077866255"><ele>558.5</ele><time>2026-04-18T11:44:14.998Z</time></trkpt><trkpt lat="42.54810442729501" lon="13.523501503120292"><ele>555.25</ele><time>2026-04-18T11:44:15.998Z</time></trkpt><trkpt lat="42.548224482426434" lon="13.523498329281919"><ele>552.0</ele><time>2026-04-18T11:44:16.998Z</time></trkpt><trkpt lat="42.54834685954464" lon="13.52356306756232"><ele>552.0</ele><time>2026-04-18T11:44:17.998Z</time></trkpt><trkpt lat="42.54845420879619" lon="13.523667703775844"><ele>552.0</ele><time>2026-04-18T11:44:18.998Z</time></trkpt><trkpt lat="42.54856475456303" lon="13.523751317803258"><ele>552.0</ele><time>2026-04-18T11:44:19.998Z</time></trkpt><trkpt lat="42.54869400964162" lon="13.523771741301669"><ele>552.0</ele><time>2026-04-18T11:44:20.998Z</time></trkpt><trkpt lat="42.54882069233129" lon="13.523717392074902"><ele>552.75</ele><time>2026-04-18T11:44:21.998Z</time></trkpt><trkpt lat="42.5489363030831" lon="13.523631279249303"><ele>553.5</ele><time>2026-04-18T11:44:22.998Z</time></trkpt><trkpt lat="42.54904317681641" lon="13.523516781478595"><ele>554.25</ele><time>2026-04-18T11:44:23.998Z</time></trkpt><trkpt lat="42.54917514065928" lon="13.523465815622817"><ele>555.0</ele><time>2026-04-18T11:44:24.998Z</time></trkpt><trkpt lat="42.54930810042975" lon="13.523442103919637"><ele>555.0</ele><time>2026-04-18T11:44:25.998Z</time></trkpt><trkpt lat="42.549444571761256" lon="13.523413311390106"><ele>555.0</ele><time>2026-04-18T11:44:26.998Z</time></trkpt><trkpt lat="42.54958387943939" lon="13.523397633549761"><ele>555.0</ele><time>2026-04-18T11:44:27.998Z</time></trkpt><trkpt lat="42.549724184157554" lon="13.523374994723847"><ele>555.0</ele><time>2026-04-18T11:44:28.998Z</time></trkpt><trkpt lat="42.5498664527199" lon="13.523382577857648"><ele>555.75</ele><time>2026-04-18T11:44:29.998Z</time></trkpt><trkpt lat="42.550009341153675" lon="13.523341107466113"><ele>556.5</ele><time>2026-04-18T11:44:30.998Z</time></trkpt><trkpt lat="42.550142927710176" lon="13.52324142588142"><ele>557.25</ele><time>2026-04-18T11:44:31.997Z</time></trkpt><trkpt lat="42.550273542837985" lon="13.523150703667666"><ele>558.0</ele><time>2026-04-18T11:44:32.997Z</time></trkpt><trkpt lat="42.55040281931969" lon="13.523049798470922"><ele>556.5</ele><time>2026-04-18T11:44:33.997Z</time></trkpt><trkpt lat="42.55051727251317" lon="13.522920316494453"><ele>555.0</ele><time>2026-04-18T11:44:34.997Z</time></trkpt><trkpt lat="42.5506235031164" lon="13.522797432356182"><ele>553.5</ele><time>2026-04-18T11:44:35.997Z</time></trkpt><trkpt lat="42.550746114522596" lon="13.52271998090313"><ele>552.0</ele><time>2026-04-18T11:44:36.997Z</time></trkpt><trkpt lat="42.550870265470316" lon="13.522616002973002"><ele>552.0</ele><time>2026-04-18T11:44:37.997Z</time></trkpt><trkpt lat="42.55093857950815" lon="13.522411416657384"><ele>552.0</ele><time>2026-04-18T11:44:38.997Z</time></trkpt><trkpt lat="42.55105102497326" lon="13.522271921131205"><ele>552.0</ele><time>2026-04-18T11:44:39.997Z</time></trkpt><trkpt lat="42.55115957245968" lon="13.522117714245583"><ele>555.0</ele><time>2026-04-18T11:44:40.997Z</time></trkpt><trkpt lat="42.55124809526976" lon="13.521935871047383"><ele>558.0</ele><time>2026-04-18T11:44:41.997Z</time></trkpt><trkpt lat="42.55132350864813" lon="13.521739828910771"><ele>561.0</ele><time>2026-04-18T11:44:42.997Z</time></trkpt><trkpt lat="42.55139742022108" lon="13.521552045831488"><ele>561.0</ele><time>2026-04-18T11:44:43.997Z</time></trkpt><trkpt lat="42.55147671968407" lon="13.521385198534606"><ele>561.0</ele><time>2026-04-18T11:44:44.997Z</time></trkpt><trkpt lat="42.55157455552914" lon="13.521260427707672"><ele>561.0</ele><time>2026-04-18T11:44:45.997Z</time></trkpt><trkpt lat="42.55169899543308" lon="13.521218788627504"><ele>561.0</ele><time>2026-04-18T11:44:46.997Z</time></trkpt><trkpt lat="42.55184501450301" lon="13.521161330181972"><ele>553.0</ele><time>2026-04-18T11:44:47.997Z</time></trkpt><trkpt lat="42.551999949358056" lon="13.521121082232282"><ele>545.0</ele><time>2026-04-18T11:44:48.997Z</time></trkpt><trkpt lat="42.55215153169952" lon="13.52108668456148"><ele>537.0</ele><time>2026-04-18T11:44:49.997Z</time></trkpt><trkpt lat="42.55230747746844" lon="13.521075726489611"><ele>537.0</ele><time>2026-04-18T11:44:50.997Z</time></trkpt><trkpt lat="42.55245782913589" lon="13.521049300124265"><ele>537.0</ele><time>2026-04-18T11:44:51.997Z</time></trkpt><trkpt lat="42.55259737584065" lon="13.521026926491155"><ele>537.0</ele><time>2026-04-18T11:44:52.997Z</time></trkpt><trkpt lat="42.552725447147594" lon="13.521087141429833"><ele>537.0</ele><time>2026-04-18T11:44:53.997Z</time></trkpt><trkpt lat="42.552818178138835" lon="13.521188543859296"><ele>541.75</ele><time>2026-04-18T11:44:54.997Z</time></trkpt><trkpt lat="42.552852189691755" lon="13.521313634014287"><ele>546.5</ele><time>2026-04-18T11:44:55.997Z</time></trkpt><trkpt lat="42.55283915325635" lon="13.521464903791415"><ele>551.25</ele><time>2026-04-18T11:44:56.997Z</time></trkpt><trkpt lat="42.552810982681756" lon="13.521622809622993"><ele>556.0</ele><time>2026-04-18T11:44:57.997Z</time></trkpt><trkpt lat="42.55277363324454" lon="13.521803155364523"><ele>556.0</ele><time>2026-04-18T11:44:58.997Z</time></trkpt><trkpt lat="42.552759214063805" lon="13.521996521313438"><ele>556.0</ele><time>2026-04-18T11:44:59.997Z</time></trkpt><trkpt lat="42.55275262420846" lon="13.522205040526229"><ele>556.0</ele><time>2026-04-18T11:45:00.997Z</time></trkpt><trkpt lat="42.552742181969364" lon="13.52240056115244"><ele>556.0</ele><time>2026-04-18T11:45:01.997Z</time></trkpt><trkpt lat="42.5527363600898" lon="13.522585903850592"><ele>557.5</ele><time>2026-04-18T11:45:02.997Z</time></trkpt><trkpt lat="42.55277739904564" lon="13.522756386468158"><ele>559.0</ele><time>2026-04-18T11:45:03.997Z</time></trkpt><trkpt lat="42.55286435990212" lon="13.52290543988003"><ele>560.5</ele><time>2026-04-18T11:45:04.997Z</time></trkpt><trkpt lat="42.552994325278824" lon="13.523013952776429"><ele>562.0</ele><time>2026-04-18T11:45:05.997Z</time></trkpt><trkpt lat="42.55314570113329" lon="13.523073051410389"><ele>557.25</ele><time>2026-04-18T11:45:07Z</time></trkpt><trkpt lat="42.55327585617289" lon="13.52313787356835"><ele>552.5</ele><time>2026-04-18T11:45:08Z</time></trkpt><trkpt lat="42.55341575737039" lon="13.523179389762902"><ele>547.75</ele><time>2026-04-18T11:45:09Z</time></trkpt><trkpt lat="42.553540288860525" lon="13.523251363761414"><ele>543.0</ele><time>2026-04-18T11:45:10Z</time></trkpt><trkpt lat="42.55365198555991" lon="13.523325988386624"><ele>540.5</ele><time>2026-04-18T11:45:11Z</time></trkpt><trkpt lat="42.5537605804975" lon="13.523394480806765"><ele>538.0</ele><time>2026-04-18T11:45:12Z</time></trkpt><trkpt lat="42.55388408439353" lon="13.523448698427268"><ele>535.5</ele><time>2026-04-18T11:45:13Z</time></trkpt><trkpt lat="42.55402073375237" lon="13.523468457636126"><ele>533.0</ele><time>2026-04-18T11:45:14Z</time></trkpt><trkpt lat="42.55416595494619" lon="13.52345868799202"><ele>533.0</ele><time>2026-04-18T11:45:15Z</time></trkpt><trkpt lat="42.554308981941844" lon="13.523438077670074"><ele>533.0</ele><time>2026-04-18T11:45:15.999Z</time></trkpt><trkpt lat="42.55445534822191" lon="13.523414614394428"><ele>533.0</ele><time>2026-04-18T11:45:16.999Z</time></trkpt><trkpt lat="42.554596995732986" lon="13.5233821858152"><ele>533.0</ele><time>2026-04-18T11:45:17.999Z</time></trkpt><trkpt lat="42.554738256878366" lon="13.523346705450999"><ele>532.25</ele><time>2026-04-18T11:45:18.999Z</time></trkpt><trkpt lat="42.554880506713296" lon="13.523333419269834"><ele>531.5</ele><time>2026-04-18T11:45:19.999Z</time></trkpt><trkpt lat="42.55501027359886" lon="13.523282943990488"><ele>530.75</ele><time>2026-04-18T11:45:20.999Z</time></trkpt><trkpt lat="42.5551343074713" lon="13.523258009322895"><ele>530.0</ele><time>2026-04-18T11:45:21.999Z</time></trkpt><trkpt lat="42.55525522698367" lon="13.52323954762143"><ele>529.5</ele><time>2026-04-18T11:45:22.999Z</time></trkpt><trkpt lat="42.55537636239235" lon="13.523244469158394"><ele>529.0</ele><time>2026-04-18T11:45:23.999Z</time></trkpt><trkpt lat="42.55549669270485" lon="13.523273294482722"><ele>528.5</ele><time>2026-04-18T11:45:24.999Z</time></trkpt><trkpt lat="42.55560883195269" lon="13.523357579743545"><ele>528.0</ele><time>2026-04-18T11:45:25.999Z</time></trkpt><trkpt lat="42.55573253383898" lon="13.523411264545556"><ele>528.0</ele><time>2026-04-18T11:45:26.999Z</time></trkpt><trkpt lat="42.55584350542557" lon="13.523480180419579"><ele>528.0</ele><time>2026-04-18T11:45:27.999Z</time></trkpt><trkpt lat="42.555945593243344" lon="13.523562788350546"><ele>528.0</ele><time>2026-04-18T11:45:28.999Z</time></trkpt><trkpt lat="42.55605523388416" lon="13.523616530300915"><ele>528.0</ele><time>2026-04-18T11:45:29.999Z</time></trkpt><trkpt lat="42.556129073183854" lon="13.523727707384273"><ele>530.0</ele><time>2026-04-18T11:45:30.999Z</time></trkpt><trkpt lat="42.55617109949534" lon="13.52386001675161"><ele>532.0</ele><time>2026-04-18T11:45:31.999Z</time></trkpt><trkpt lat="42.55618412114078" lon="13.524017131399223"><ele>534.0</ele><time>2026-04-18T11:45:32.999Z</time></trkpt><trkpt lat="42.55617190473609" lon="13.524200697650794"><ele>536.0</ele><time>2026-04-18T11:45:33.999Z</time></trkpt><trkpt lat="42.55620137572772" lon="13.524398051046967"><ele>531.6666666666666</ele><time>2026-04-18T11:45:34.999Z</time></trkpt><trkpt lat="42.55627481314587" lon="13.52459339145198"><ele>527.3333333333334</ele><time>2026-04-18T11:45:35.999Z</time></trkpt><trkpt lat="42.556349927582566" lon="13.524772298368351"><ele>523.0</ele><time>2026-04-18T11:45:36.999Z</time></trkpt><trkpt lat="42.556431735257256" lon="13.524930126733192"><ele>523.0</ele><time>2026-04-18T11:45:37.999Z</time></trkpt><trkpt lat="42.55653575938777" lon="13.525053238289669"><ele>523.0</ele><time>2026-04-18T11:45:38.999Z</time></trkpt><trkpt lat="42.55664133459326" lon="13.525168023254377"><ele>523.0</ele><time>2026-04-18T11:45:39.999Z</time></trkpt><trkpt lat="42.55674328364461" lon="13.525280892289832"><ele>523.0</ele><time>2026-04-18T11:45:40.999Z</time></trkpt><trkpt lat="42.55683915203104" lon="13.525390199445624"><ele>521.75</ele><time>2026-04-18T11:45:41.999Z</time></trkpt><trkpt lat="42.556935377669795" lon="13.525496514781265"><ele>520.5</ele><time>2026-04-18T11:45:42.999Z</time></trkpt><trkpt lat="42.557024003360624" lon="13.525602812405712"><ele>519.25</ele><time>2026-04-18T11:45:43.999Z</time></trkpt><trkpt lat="42.557114535697195" lon="13.525707932452503"><ele>518.0</ele><time>2026-04-18T11:45:44.999Z</time></trkpt><trkpt lat="42.55720583089154" lon="13.525810897952297"><ele>518.0</ele><time>2026-04-18T11:45:45.999Z</time></trkpt><trkpt lat="42.55729279918199" lon="13.525914997760175"><ele>518.0</ele><time>2026-04-18T11:45:46.999Z</time></trkpt><trkpt lat="42.55737794123394" lon="13.52600658987946"><ele>518.0</ele><time>2026-04-18T11:45:47.999Z</time></trkpt><trkpt lat="42.55746197207172" lon="13.52609176817219"><ele>518.0</ele><time>2026-04-18T11:45:48.999Z</time></trkpt><trkpt lat="42.55754231069372" lon="13.526169220486498"><ele>518.0</ele><time>2026-04-18T11:45:49.999Z</time></trkpt><trkpt lat="42.55762674078726" lon="13.526237237564095"><ele>519.4</ele><time>2026-04-18T11:45:50.999Z</time></trkpt><trkpt lat="42.5577220866486" lon="13.526291733294075"><ele>520.8</ele><time>2026-04-18T11:45:51.999Z</time></trkpt><trkpt lat="42.55782485315122" lon="13.526315476004122"><ele>522.2</ele><time>2026-04-18T11:45:52.999Z</time></trkpt><trkpt lat="42.55793274843449" lon="13.526308339675301"><ele>523.6</ele><time>2026-04-18T11:45:53.999Z</time></trkpt><trkpt lat="42.55804035835438" lon="13.52627981551691"><ele>525.0</ele><time>2026-04-18T11:45:54.999Z</time></trkpt><trkpt lat="42.55815149597353" lon="13.526252565767013"><ele>525.0</ele><time>2026-04-18T11:45:55.999Z</time></trkpt><trkpt lat="42.558271309190815" lon="13.526265334427562"><ele>525.0</ele><time>2026-04-18T11:45:56.999Z</time></trkpt><trkpt lat="42.558389420931334" lon="13.52631298322044"><ele>525.0</ele><time>2026-04-18T11:45:57.999Z</time></trkpt><trkpt lat="42.55849852744862" lon="13.526387358267883"><ele>525.0</ele><time>2026-04-18T11:45:58.999Z</time></trkpt><trkpt lat="42.55858969317103" lon="13.526496850917123"><ele>525.0</ele><time>2026-04-18T11:45:59.999Z</time></trkpt><trkpt lat="42.55865712443538" lon="13.52663691316776"><ele>525.0</ele><time>2026-04-18T11:46:00.999Z</time></trkpt><trkpt lat="42.55873005334835" lon="13.526781422238404"><ele>525.0</ele><time>2026-04-18T11:46:01.999Z</time></trkpt><trkpt lat="42.55883199036488" lon="13.526911091840446"><ele>525.0</ele><time>2026-04-18T11:46:02.999Z</time></trkpt><trkpt lat="42.5589381419623" lon="13.527032210212061"><ele>524.25</ele><time>2026-04-18T11:46:03.998Z</time></trkpt><trkpt lat="42.559050282035415" lon="13.527144092857045"><ele>523.5</ele><time>2026-04-18T11:46:04.998Z</time></trkpt><trkpt lat="42.55917213463677" lon="13.52725557414621"><ele>522.75</ele><time>2026-04-18T11:46:05.998Z</time></trkpt><trkpt lat="42.559298690531826" lon="13.527360075107337"><ele>522.0</ele><time>2026-04-18T11:46:06.998Z</time></trkpt><trkpt lat="42.55942872051681" lon="13.527452176655622"><ele>518.25</ele><time>2026-04-18T11:46:07.998Z</time></trkpt><trkpt lat="42.5595597649969" lon="13.527542011013523"><ele>514.5</ele><time>2026-04-18T11:46:08.998Z</time></trkpt><trkpt lat="42.55968813568974" lon="13.527640397470087"><ele>510.75</ele><time>2026-04-18T11:46:09.998Z</time></trkpt><trkpt lat="42.55981206623101" lon="13.52774657380154"><ele>507.0</ele><time>2026-04-18T11:46:10.998Z</time></trkpt><trkpt lat="42.55993184822404" lon="13.527866223820508"><ele>509.5</ele><time>2026-04-18T11:46:11.998Z</time></trkpt><trkpt lat="42.5600422619405" lon="13.528002303025735"><ele>512.0</ele><time>2026-04-18T11:46:12.998Z</time></trkpt><trkpt lat="42.56013939429984" lon="13.528156630575724"><ele>514.5</ele><time>2026-04-18T11:46:13.998Z</time></trkpt><trkpt lat="42.56022727004067" lon="13.528317170222573"><ele>517.0</ele><time>2026-04-18T11:46:14.998Z</time></trkpt><trkpt lat="42.56031571105121" lon="13.52848231961272"><ele>514.0</ele><time>2026-04-18T11:46:15.998Z</time></trkpt><trkpt lat="42.560412444088385" lon="13.52864182452778"><ele>511.0</ele><time>2026-04-18T11:46:16.998Z</time></trkpt><trkpt lat="42.560525238135504" lon="13.528782638512144"><ele>508.0</ele><time>2026-04-18T11:46:17.998Z</time></trkpt><trkpt lat="42.56065150630547" lon="13.528900080826649"><ele>508.0</ele><time>2026-04-18T11:46:18.998Z</time></trkpt><trkpt lat="42.56078508163669" lon="13.529001203052184"><ele>508.0</ele><time>2026-04-18T11:46:19.998Z</time></trkpt><trkpt lat="42.56092166502366" lon="13.529087250217886"><ele>508.0</ele><time>2026-04-18T11:46:20.998Z</time></trkpt><trkpt lat="42.56106619489436" lon="13.52916885572217"><ele>503.33333333333337</ele><time>2026-04-18T11:46:21.998Z</time></trkpt><trkpt lat="42.56121203797049" lon="13.529248542442952"><ele>498.66666666666663</ele><time>2026-04-18T11:46:22.998Z</time></trkpt><trkpt lat="42.56135855862198" lon="13.529331165336457"><ele>494.0</ele><time>2026-04-18T11:46:23.998Z</time></trkpt><trkpt lat="42.56150307655257" lon="13.529419908595514"><ele>494.0</ele><time>2026-04-18T11:46:24.998Z</time></trkpt><trkpt lat="42.56164112049832" lon="13.529513738101008"><ele>494.0</ele><time>2026-04-18T11:46:25.998Z</time></trkpt><trkpt lat="42.561775725713105" lon="13.529612986756753"><ele>494.0</ele><time>2026-04-18T11:46:26.998Z</time></trkpt><trkpt lat="42.561906672375905" lon="13.52971257115503"><ele>495.3333333333333</ele><time>2026-04-18T11:46:27.998Z</time></trkpt><trkpt lat="42.56203581956432" lon="13.529815494164529"><ele>496.66666666666663</ele><time>2026-04-18T11:46:28.998Z</time></trkpt><trkpt lat="42.56216397589538" lon="13.529929127082658"><ele>498.0</ele><time>2026-04-18T11:46:29.998Z</time></trkpt><trkpt lat="42.56228764848386" lon="13.53005659391511"><ele>498.0</ele><time>2026-04-18T11:46:30.998Z</time></trkpt><trkpt lat="42.5624002526847" lon="13.530200956033237"><ele>498.0</ele><time>2026-04-18T11:46:31.998Z</time></trkpt><trkpt lat="42.56251750960819" lon="13.530342505477964"><ele>498.0</ele><time>2026-04-18T11:46:32.998Z</time></trkpt><trkpt lat="42.56264084723482" lon="13.530459511155675"><ele>498.75</ele><time>2026-04-18T11:46:33.998Z</time></trkpt><trkpt lat="42.562752264838096" lon="13.530581387914062"><ele>499.5</ele><time>2026-04-18T11:46:34.998Z</time></trkpt><trkpt lat="42.56283413487725" lon="13.530730067422738"><ele>500.25</ele><time>2026-04-18T11:46:35.998Z</time></trkpt><trkpt lat="42.56287792649039" lon="13.530909540798007"><ele>501.0</ele><time>2026-04-18T11:46:36.998Z</time></trkpt><trkpt lat="42.562892402691936" lon="13.531098613554553"><ele>500.25</ele><time>2026-04-18T11:46:37.998Z</time></trkpt><trkpt lat="42.56287247922021" lon="13.531287825542334"><ele>499.5</ele><time>2026-04-18T11:46:38.998Z</time></trkpt><trkpt lat="42.562819069788574" lon="13.531475411197496"><ele>498.75</ele><time>2026-04-18T11:46:39.998Z</time></trkpt><trkpt lat="42.562746571642265" lon="13.531656289518047"><ele>498.0</ele><time>2026-04-18T11:46:40.998Z</time></trkpt><trkpt lat="42.562686383970515" lon="13.531843186502533"><ele>498.0</ele><time>2026-04-18T11:46:41.997Z</time></trkpt><trkpt lat="42.56264207108887" lon="13.532043269331743"><ele>498.0</ele><time>2026-04-18T11:46:42.997Z</time></trkpt><trkpt lat="42.562610476085084" lon="13.532246064770662"><ele>498.0</ele><time>2026-04-18T11:46:43.997Z</time></trkpt><trkpt lat="42.56258536548494" lon="13.532444715061407"><ele>496.25</ele><time>2026-04-18T11:46:44.997Z</time></trkpt><trkpt lat="42.56255812486465" lon="13.532643095998669"><ele>494.5</ele><time>2026-04-18T11:46:45.997Z</time></trkpt><trkpt lat="42.562529979595766" lon="13.532839659017483"><ele>492.75</ele><time>2026-04-18T11:46:46.997Z</time></trkpt><trkpt lat="42.56250165953833" lon="13.533033404785883"><ele>491.0</ele><time>2026-04-18T11:46:47.997Z</time></trkpt><trkpt lat="42.562470780793774" lon="13.533227716072425"><ele>488.66666666666663</ele><time>2026-04-18T11:46:48.997Z</time></trkpt><trkpt lat="42.56244127645974" lon="13.533426667448746"><ele>486.33333333333337</ele><time>2026-04-18T11:46:49.997Z</time></trkpt><trkpt lat="42.562411268800666" lon="13.533630793877009"><ele>484.0</ele><time>2026-04-18T11:46:50.997Z</time></trkpt><trkpt lat="42.562378999520014" lon="13.533836260596994"><ele>483.0</ele><time>2026-04-18T11:46:51.997Z</time></trkpt><trkpt lat="42.56234779468064" lon="13.534044111866327"><ele>482.0</ele><time>2026-04-18T11:46:52.997Z</time></trkpt><trkpt lat="42.562317662285416" lon="13.534253041623154"><ele>481.0</ele><time>2026-04-18T11:46:53.997Z</time></trkpt><trkpt lat="42.56228625712159" lon="13.534465806635161"><ele>479.0</ele><time>2026-04-18T11:46:54.997Z</time></trkpt><trkpt lat="42.562249634138574" lon="13.534675966942627"><ele>477.0</ele><time>2026-04-18T11:46:55.997Z</time></trkpt><trkpt lat="42.5622153589191" lon="13.534887532142614"><ele>475.0</ele><time>2026-04-18T11:46:56.997Z</time></trkpt><trkpt lat="42.56218592542067" lon="13.535100426756372"><ele>475.0</ele><time>2026-04-18T11:46:57.997Z</time></trkpt><trkpt lat="42.56216123387632" lon="13.535302441244331"><ele>475.0</ele><time>2026-04-18T11:46:58.997Z</time></trkpt><trkpt lat="42.56214233654728" lon="13.535486716647505"><ele>475.0</ele><time>2026-04-18T11:46:59.997Z</time></trkpt><trkpt lat="42.56211248499402" lon="13.535655331176462"><ele>475.0</ele><time>2026-04-18T11:47:00.997Z</time></trkpt><trkpt lat="42.56205190298622" lon="13.535817215591068"><ele>478.0</ele><time>2026-04-18T11:47:01.997Z</time></trkpt><trkpt lat="42.56194657023141" lon="13.535942504723419"><ele>481.0</ele><time>2026-04-18T11:47:02.997Z</time></trkpt><trkpt lat="42.561813942565294" lon="13.536040971966031"><ele>484.0</ele><time>2026-04-18T11:47:03.997Z</time></trkpt><trkpt lat="42.56167448040636" lon="13.536150527472278"><ele>479.0</ele><time>2026-04-18T11:47:04.997Z</time></trkpt><trkpt lat="42.56155212100727" lon="13.536305944755503"><ele>474.0</ele><time>2026-04-18T11:47:05.997Z</time></trkpt><trkpt lat="42.56146504891096" lon="13.536508408619408"><ele>469.0</ele><time>2026-04-18T11:47:06.997Z</time></trkpt><trkpt lat="42.56138345224547" lon="13.536716385584796"><ele>469.0</ele><time>2026-04-18T11:47:07.997Z</time></trkpt><trkpt lat="42.56129197898005" lon="13.536907456812122"><ele>469.0</ele><time>2026-04-18T11:47:08.997Z</time></trkpt><trkpt lat="42.56119630233071" lon="13.53708164425304"><ele>469.0</ele><time>2026-04-18T11:47:09.997Z</time></trkpt><trkpt lat="42.56109949854383" lon="13.537252173032325"><ele>472.6666666666667</ele><time>2026-04-18T11:47:10.997Z</time></trkpt><trkpt lat="42.56100500065424" lon="13.537422678793428"><ele>476.33333333333337</ele><time>2026-04-18T11:47:11.997Z</time></trkpt><trkpt lat="42.560918808949936" lon="13.537596297204464"><ele>480.0</ele><time>2026-04-18T11:47:13Z</time></trkpt><trkpt lat="42.56086059866648" lon="13.537784952792437"><ele>476.0</ele><time>2026-04-18T11:47:14Z</time></trkpt><trkpt lat="42.56081737590164" lon="13.537983851333307"><ele>472.0</ele><time>2026-04-18T11:47:15Z</time></trkpt><trkpt lat="42.56077342168504" lon="13.538174607611582"><ele>468.0</ele><time>2026-04-18T11:47:16Z</time></trkpt><trkpt lat="42.560719747296375" lon="13.538352096234524"><ele>464.0</ele><time>2026-04-18T11:47:17Z</time></trkpt><trkpt lat="42.56063771740847" lon="13.538514798587949"><ele>464.0</ele><time>2026-04-18T11:47:18Z</time></trkpt><trkpt lat="42.56053286343877" lon="13.538657247403336"><ele>464.0</ele><time>2026-04-18T11:47:19Z</time></trkpt><trkpt lat="42.560411638586885" lon="13.538780410128853"><ele>464.0</ele><time>2026-04-18T11:47:20Z</time></trkpt><trkpt lat="42.560297822610664" lon="13.538920117939204"><ele>468.0</ele><time>2026-04-18T11:47:21Z</time></trkpt><trkpt lat="42.56019244544682" lon="13.539077611744629"><ele>472.0</ele><time>2026-04-18T11:47:22Z</time></trkpt><trkpt lat="42.56008574306138" lon="13.539234075191182"><ele>476.0</ele><time>2026-04-18T11:47:23Z</time></trkpt><trkpt lat="42.55997592757455" lon="13.539381022807193"><ele>476.0</ele><time>2026-04-18T11:47:24Z</time></trkpt><trkpt lat="42.55986499699959" lon="13.539504285155754"><ele>476.0</ele><time>2026-04-18T11:47:25Z</time></trkpt><trkpt lat="42.55975321496914" lon="13.539600087751477"><ele>476.0</ele><time>2026-04-18T11:47:26Z</time></trkpt><trkpt lat="42.55963781383053" lon="13.539662081191526"><ele>476.0</ele><time>2026-04-18T11:47:27Z</time></trkpt><trkpt lat="42.55950504965025" lon="13.539642723616423"><ele>473.0</ele><time>2026-04-18T11:47:28Z</time></trkpt><trkpt lat="42.559365371595355" lon="13.539638688949678"><ele>470.0</ele><time>2026-04-18T11:47:29Z</time></trkpt><trkpt lat="42.55922529787159" lon="13.539673409218615"><ele>467.0</ele><time>2026-04-18T11:47:30Z</time></trkpt><trkpt lat="42.55908981465812" lon="13.53972586419215"><ele>464.0</ele><time>2026-04-18T11:47:31Z</time></trkpt><trkpt lat="42.55896761448395" lon="13.539798546416867"><ele>464.0</ele><time>2026-04-18T11:47:32Z</time></trkpt><trkpt lat="42.558873160888886" lon="13.539936573333911"><ele>464.0</ele><time>2026-04-18T11:47:33Z</time></trkpt><trkpt lat="42.558808000298754" lon="13.54012723876515"><ele>464.0</ele><time>2026-04-18T11:47:34Z</time></trkpt><trkpt lat="42.55874067683683" lon="13.540325875135746"><ele>469.0</ele><time>2026-04-18T11:47:35Z</time></trkpt><trkpt lat="42.558687721478556" lon="13.54053558233424"><ele>474.0</ele><time>2026-04-18T11:47:36Z</time></trkpt><trkpt lat="42.55863385617823" lon="13.540744155515654"><ele>479.0</ele><time>2026-04-18T11:47:37Z</time></trkpt><trkpt lat="42.55856567124047" lon="13.5409288099696"><ele>479.0</ele><time>2026-04-18T11:47:38Z</time></trkpt><trkpt lat="42.55854083881831" lon="13.54111517361566"><ele>479.0</ele><time>2026-04-18T11:47:38.999Z</time></trkpt><trkpt lat="42.558517099680664" lon="13.54130785304854"><ele>479.0</ele><time>2026-04-18T11:47:39.999Z</time></trkpt><trkpt lat="42.55844521923535" lon="13.541474654973472"><ele>479.0</ele><time>2026-04-18T11:47:40.999Z</time></trkpt><trkpt lat="42.5583310942608" lon="13.541607426519297"><ele>470.3333333333333</ele><time>2026-04-18T11:47:41.999Z</time></trkpt><trkpt lat="42.558204072641146" lon="13.541717046545887"><ele>461.66666666666663</ele><time>2026-04-18T11:47:42.999Z</time></trkpt><trkpt lat="42.558080694224934" lon="13.541834909453279"><ele>453.0</ele><time>2026-04-18T11:47:43.999Z</time></trkpt><trkpt lat="42.557952737284964" lon="13.541950033146366"><ele>453.33333333333337</ele><time>2026-04-18T11:47:44.999Z</time></trkpt><trkpt lat="42.557826332585385" lon="13.54206274129379"><ele>453.6666666666667</ele><time>2026-04-18T11:47:45.999Z</time></trkpt><trkpt lat="42.557706839554776" lon="13.54219826115806"><ele>454.0</ele><time>2026-04-18T11:47:46.999Z</time></trkpt><trkpt lat="42.55760040837317" lon="13.542349339742367"><ele>454.0</ele><time>2026-04-18T11:47:47.999Z</time></trkpt><trkpt lat="42.55749764468325" lon="13.542498455183871"><ele>454.0</ele><time>2026-04-18T11:47:48.999Z</time></trkpt><trkpt lat="42.55739234042903" lon="13.5426481567377"><ele>454.0</ele><time>2026-04-18T11:47:49.999Z</time></trkpt><trkpt lat="42.557279386320204" lon="13.542780186854284"><ele>455.33333333333337</ele><time>2026-04-18T11:47:50.999Z</time></trkpt><trkpt lat="42.55715490105463" lon="13.542899497903594"><ele>456.66666666666663</ele><time>2026-04-18T11:47:51.999Z</time></trkpt><trkpt lat="42.557031010676084" lon="13.543024093152242"><ele>458.0</ele><time>2026-04-18T11:47:52.999Z</time></trkpt><trkpt lat="42.55690218475582" lon="13.543151994510655"><ele>458.0</ele><time>2026-04-18T11:47:53.999Z</time></trkpt><trkpt lat="42.5567642045969" lon="13.54327075716674"><ele>458.0</ele><time>2026-04-18T11:47:54.999Z</time></trkpt><trkpt lat="42.55660993274589" lon="13.543331765536813"><ele>458.0</ele><time>2026-04-18T11:47:55.999Z</time></trkpt><trkpt lat="42.55647037326594" lon="13.543439259583463"><ele>458.0</ele><time>2026-04-18T11:47:56.999Z</time></trkpt><trkpt lat="42.55633695350106" lon="13.543562077403704"><ele>458.0</ele><time>2026-04-18T11:47:57.999Z</time></trkpt><trkpt lat="42.556211359271806" lon="13.543696110666197"><ele>458.0</ele><time>2026-04-18T11:47:58.999Z</time></trkpt><trkpt lat="42.55608214549175" lon="13.543827277612804"><ele>457.0</ele><time>2026-04-18T11:47:59.999Z</time></trkpt><trkpt lat="42.55595880091496" lon="13.543963456032897"><ele>456.0</ele><time>2026-04-18T11:48:00.999Z</time></trkpt><trkpt lat="42.55583729547297" lon="13.544100473470392"><ele>455.0</ele><time>2026-04-18T11:48:01.999Z</time></trkpt><trkpt lat="42.555715584207" lon="13.54423302749984"><ele>455.0</ele><time>2026-04-18T11:48:02.999Z</time></trkpt><trkpt lat="42.55560062585574" lon="13.54437149106448"><ele>455.0</ele><time>2026-04-18T11:48:03.999Z</time></trkpt><trkpt lat="42.5554929529941" lon="13.54452281583128"><ele>455.0</ele><time>2026-04-18T11:48:04.999Z</time></trkpt><trkpt lat="42.55539207066344" lon="13.544688017684376"><ele>465.3333333333333</ele><time>2026-04-18T11:48:05.999Z</time></trkpt><trkpt lat="42.555302885444036" lon="13.544859286331622"><ele>475.66666666666663</ele><time>2026-04-18T11:48:06.999Z</time></trkpt><trkpt lat="42.55522484386678" lon="13.545040033887235"><ele>486.0</ele><time>2026-04-18T11:48:07.999Z</time></trkpt><trkpt lat="42.55515880875005" lon="13.545227738248329"><ele>469.0</ele><time>2026-04-18T11:48:08.999Z</time></trkpt><trkpt lat="42.55509976343913" lon="13.545417746083922"><ele>452.0</ele><time>2026-04-18T11:48:09.999Z</time></trkpt><trkpt lat="42.55503991317276" lon="13.545608481971593"><ele>435.0</ele><time>2026-04-18T11:48:10.999Z</time></trkpt><trkpt lat="42.55497657104277" lon="13.545801288911429"><ele>435.0</ele><time>2026-04-18T11:48:11.999Z</time></trkpt><trkpt lat="42.55491767222428" lon="13.54599519142215"><ele>435.0</ele><time>2026-04-18T11:48:12.999Z</time></trkpt><trkpt lat="42.55485682319107" lon="13.546191125542878"><ele>435.0</ele><time>2026-04-18T11:48:13.999Z</time></trkpt><trkpt lat="42.554797641363436" lon="13.546386709686624"><ele>431.75</ele><time>2026-04-18T11:48:14.999Z</time></trkpt><trkpt lat="42.554738861249845" lon="13.546572715011083"><ele>428.5</ele><time>2026-04-18T11:48:15.999Z</time></trkpt><trkpt lat="42.554684459481344" lon="13.546750914977489"><ele>425.25</ele><time>2026-04-18T11:48:16.998Z</time></trkpt><trkpt lat="42.554632367933124" lon="13.546926167593943"><ele>422.0</ele><time>2026-04-18T11:48:17.998Z</time></trkpt><trkpt lat="42.554580034756945" lon="13.547092525484983"><ele>424.25</ele><time>2026-04-18T11:48:18.998Z</time></trkpt><trkpt lat="42.55452597773283" lon="13.547249843474098"><ele>426.5</ele><time>2026-04-18T11:48:19.998Z</time></trkpt><trkpt lat="42.55445387101267" lon="13.547380758607783"><ele>428.75</ele><time>2026-04-18T11:48:20.998Z</time></trkpt><trkpt lat="42.55435663221533" lon="13.547475042605925"><ele>431.0</ele><time>2026-04-18T11:48:21.998Z</time></trkpt><trkpt lat="42.5542561025775" lon="13.547548620732048"><ele>431.0</ele><time>2026-04-18T11:48:22.998Z</time></trkpt><trkpt lat="42.55419251987024" lon="13.547674077660355"><ele>431.0</ele><time>2026-04-18T11:48:23.998Z</time></trkpt><trkpt lat="42.55416293086919" lon="13.547810489465412"><ele>431.0</ele><time>2026-04-18T11:48:24.998Z</time></trkpt><trkpt lat="42.5541243714206" lon="13.547931635105678"><ele>431.0</ele><time>2026-04-18T11:48:25.998Z</time></trkpt><trkpt lat="42.55411242588992" lon="13.54804395768284"><ele>431.0</ele><time>2026-04-18T11:48:26.998Z</time></trkpt><trkpt lat="42.554062831951896" lon="13.548108528251266"><ele>430.25</ele><time>2026-04-18T11:48:27.998Z</time></trkpt><trkpt lat="42.55392656767584" lon="13.548087371802863"><ele>429.5</ele><time>2026-04-18T11:48:29.998Z</time></trkpt><trkpt lat="42.55383184546481" lon="13.548080526693715"><ele>428.75</ele><time>2026-04-18T11:48:30.998Z</time></trkpt><trkpt lat="42.553726704734174" lon="13.548039664432027"><ele>428.0</ele><time>2026-04-18T11:48:31.998Z</time></trkpt><trkpt lat="42.55361040399069" lon="13.5480018661301"><ele>434.25</ele><time>2026-04-18T11:48:32.998Z</time></trkpt><trkpt lat="42.55348465804929" lon="13.54796670310448"><ele>440.5</ele><time>2026-04-18T11:48:33.998Z</time></trkpt><trkpt lat="42.55334856395758" lon="13.547945156992508"><ele>446.75</ele><time>2026-04-18T11:48:34.998Z</time></trkpt><trkpt lat="42.55322610790025" lon="13.547978566532482"><ele>453.0</ele><time>2026-04-18T11:48:35.998Z</time></trkpt><trkpt lat="42.55307183888315" lon="13.548036727296278"><ele>453.0</ele><time>2026-04-18T11:48:36.998Z</time></trkpt><trkpt lat="42.55291670317872" lon="13.548127576846712"><ele>453.0</ele><time>2026-04-18T11:48:37.998Z</time></trkpt><trkpt lat="42.55276851775342" lon="13.548219511745318"><ele>453.0</ele><time>2026-04-18T11:48:38.998Z</time></trkpt><trkpt lat="42.552657792710406" lon="13.548314899670515"><ele>452.0</ele><time>2026-04-18T11:48:39.998Z</time></trkpt><trkpt lat="42.552565714300975" lon="13.548381676038614"><ele>451.0</ele><time>2026-04-18T11:48:40.998Z</time></trkpt><trkpt lat="42.5525044959043" lon="13.548444612944293"><ele>450.0</ele><time>2026-04-18T11:48:41.998Z</time></trkpt><trkpt lat="42.552541926340496" lon="13.548551447124618"><ele>449.0</ele><time>2026-04-18T11:48:42.998Z</time></trkpt><trkpt lat="42.55260596841273" lon="13.548594250245502"><ele>448.0</ele><time>2026-04-18T11:48:43.998Z</time></trkpt><trkpt lat="42.552696302391745" lon="13.548580548217672"><ele>447.0</ele><time>2026-04-18T11:48:44.998Z</time></trkpt><trkpt lat="42.55278555239786" lon="13.548494116259265"><ele>448.5</ele><time>2026-04-18T11:48:45.998Z</time></trkpt><trkpt lat="42.55287811396644" lon="13.548373649004294"><ele>450.0</ele><time>2026-04-18T11:48:46.998Z</time></trkpt><trkpt lat="42.55300158226304" lon="13.548274208324786"><ele>451.5</ele><time>2026-04-18T11:48:47.998Z</time></trkpt><trkpt lat="42.553135181977396" lon="13.548206692094189"><ele>453.0</ele><time>2026-04-18T11:48:48.998Z</time></trkpt><trkpt lat="42.55326375370692" lon="13.548167413316794"><ele>453.0</ele><time>2026-04-18T11:48:49.998Z</time></trkpt><trkpt lat="42.55339400316743" lon="13.548166905420647"><ele>453.0</ele><time>2026-04-18T11:48:50.998Z</time></trkpt><trkpt lat="42.553529378881336" lon="13.5482015302724"><ele>453.0</ele><time>2026-04-18T11:48:51.998Z</time></trkpt><trkpt lat="42.553657392972006" lon="13.548279128945362"><ele>453.0</ele><time>2026-04-18T11:48:52.998Z</time></trkpt><trkpt lat="42.553771005034335" lon="13.548393101856833"><ele>450.66666666666663</ele><time>2026-04-18T11:48:53.997Z</time></trkpt><trkpt lat="42.55387948786515" lon="13.548530458525505"><ele>448.3333333333333</ele><time>2026-04-18T11:48:54.997Z</time></trkpt><trkpt lat="42.55397583845683" lon="13.548702277210955"><ele>446.0</ele><time>2026-04-18T11:48:55.997Z</time></trkpt><trkpt lat="42.554069730204304" lon="13.54888137835497"><ele>446.0</ele><time>2026-04-18T11:48:56.997Z</time></trkpt><trkpt lat="42.55414019745865" lon="13.54905704304208"><ele>446.0</ele><time>2026-04-18T11:48:57.997Z</time></trkpt><trkpt lat="42.554175937726626" lon="13.549241634579495"><ele>446.0</ele><time>2026-04-18T11:48:58.997Z</time></trkpt><trkpt lat="42.55418706694835" lon="13.54941672018817"><ele>446.0</ele><time>2026-04-18T11:48:59.997Z</time></trkpt><trkpt lat="42.554182546968306" lon="13.549573662071007"><ele>447.75</ele><time>2026-04-18T11:49:00.997Z</time></trkpt><trkpt lat="42.554143604055284" lon="13.549716052569043"><ele>449.5</ele><time>2026-04-18T11:49:01.997Z</time></trkpt><trkpt lat="42.55406922319147" lon="13.549866027952778"><ele>451.25</ele><time>2026-04-18T11:49:02.997Z</time></trkpt><trkpt lat="42.55401892365312" lon="13.550041097075557"><ele>453.0</ele><time>2026-04-18T11:49:03.997Z</time></trkpt><trkpt lat="42.554016152279445" lon="13.550233692344037"><ele>453.4</ele><time>2026-04-18T11:49:04.997Z</time></trkpt><trkpt lat="42.55404016530537" lon="13.550407194819025"><ele>453.79999999999995</ele><time>2026-04-18T11:49:05.997Z</time></trkpt><trkpt lat="42.55404081611675" lon="13.550548194463337"><ele>454.2</ele><time>2026-04-18T11:49:06.997Z</time></trkpt><trkpt lat="42.55404428048144" lon="13.550658991701871"><ele>454.6</ele><time>2026-04-18T11:49:07.997Z</time></trkpt><trkpt lat="42.55402392861447" lon="13.550743746484393"><ele>455.0</ele><time>2026-04-18T11:49:08.997Z</time></trkpt><trkpt lat="42.553904067030864" lon="13.550689677366458"><ele>455.0</ele><time>2026-04-18T11:49:10.997Z</time></trkpt><trkpt lat="42.553886137862804" lon="13.550582608203063"><ele>455.0</ele><time>2026-04-18T11:49:11.997Z</time></trkpt><trkpt lat="42.553909000339964" lon="13.550457261257053"><ele>455.0</ele><time>2026-04-18T11:49:12.997Z</time></trkpt><trkpt lat="42.553900460462344" lon="13.550296150834798"><ele>455.0</ele><time>2026-04-18T11:49:13.997Z</time></trkpt><trkpt lat="42.5539172699863" lon="13.550117149033468"><ele>455.0</ele><time>2026-04-18T11:49:14.997Z</time></trkpt><trkpt lat="42.5539303732135" lon="13.549907446075576"><ele>454.3333333333333</ele><time>2026-04-18T11:49:15.997Z</time></trkpt><trkpt lat="42.55396853464466" lon="13.549699059079948"><ele>453.66666666666663</ele><time>2026-04-18T11:49:16.997Z</time></trkpt><trkpt lat="42.55402169032964" lon="13.5495021851298"><ele>453.0</ele><time>2026-04-18T11:49:17.997Z</time></trkpt><trkpt lat="42.55402506205604" lon="13.549315649595254"><ele>451.25</ele><time>2026-04-18T11:49:19Z</time></trkpt><trkpt lat="42.55394366015689" lon="13.549156219459315"><ele>449.5</ele><time>2026-04-18T11:49:20Z</time></trkpt><trkpt lat="42.55383666053055" lon="13.54901185391495"><ele>447.75</ele><time>2026-04-18T11:49:21Z</time></trkpt><trkpt lat="42.553724210562976" lon="13.548880936015957"><ele>446.0</ele><time>2026-04-18T11:49:22Z</time></trkpt><trkpt lat="42.553616215195696" lon="13.548777580611976"><ele>455.75</ele><time>2026-04-18T11:49:23Z</time></trkpt><trkpt lat="42.55347372805483" lon="13.548738656262175"><ele>465.5</ele><time>2026-04-18T11:49:24Z</time></trkpt><trkpt lat="42.55331477438877" lon="13.548751567685532"><ele>475.25</ele><time>2026-04-18T11:49:25Z</time></trkpt><trkpt lat="42.55318504963972" lon="13.548814032965065"><ele>485.0</ele><time>2026-04-18T11:49:26Z</time></trkpt><trkpt lat="42.553077313183444" lon="13.548952113985477"><ele>485.0</ele><time>2026-04-18T11:49:27Z</time></trkpt><trkpt lat="42.55296526766032" lon="13.549126025176495"><ele>485.0</ele><time>2026-04-18T11:49:28Z</time></trkpt><trkpt lat="42.552826880194615" lon="13.549278168607238"><ele>485.0</ele><time>2026-04-18T11:49:29Z</time></trkpt><trkpt lat="42.55268358221398" lon="13.549421708378112"><ele>496.3333333333333</ele><time>2026-04-18T11:49:30Z</time></trkpt><trkpt lat="42.55252028964687" lon="13.549546752136262"><ele>507.66666666666663</ele><time>2026-04-18T11:49:31Z</time></trkpt><trkpt lat="42.55234471344918" lon="13.54962881071766"><ele>519.0</ele><time>2026-04-18T11:49:32Z</time></trkpt><trkpt lat="42.55218072633434" lon="13.549686371123821"><ele>520.6666666666666</ele><time>2026-04-18T11:49:33Z</time></trkpt><trkpt lat="42.5520217566185" lon="13.54967880695313"><ele>522.3333333333333</ele><time>2026-04-18T11:49:34Z</time></trkpt><trkpt lat="42.55185482457746" lon="13.549638058071682"><ele>524.0</ele><time>2026-04-18T11:49:35Z</time></trkpt><trkpt lat="42.551678932382515" lon="13.549600011034189"><ele>524.0</ele><time>2026-04-18T11:49:36Z</time></trkpt><trkpt lat="42.55151341379791" lon="13.54958737843977"><ele>524.0</ele><time>2026-04-18T11:49:37Z</time></trkpt><trkpt lat="42.55137165521463" lon="13.549610889583121"><ele>524.0</ele><time>2026-04-18T11:49:38Z</time></trkpt><trkpt lat="42.55124158707608" lon="13.549578396752056"><ele>524.0</ele><time>2026-04-18T11:49:39Z</time></trkpt><trkpt lat="42.55114517432229" lon="13.549497100242407"><ele>523.25</ele><time>2026-04-18T11:49:40Z</time></trkpt><trkpt lat="42.55107074612175" lon="13.5493485202597"><ele>522.5</ele><time>2026-04-18T11:49:41Z</time></trkpt><trkpt lat="42.551051189491126" lon="13.54914574498828"><ele>521.75</ele><time>2026-04-18T11:49:42Z</time></trkpt><trkpt lat="42.55101607060316" lon="13.548959293406728"><ele>521.0</ele><time>2026-04-18T11:49:43Z</time></trkpt><trkpt lat="42.55100678892891" lon="13.548799364991433"><ele>521.0</ele><time>2026-04-18T11:49:44Z</time></trkpt><trkpt lat="42.55097026361437" lon="13.54868580112673"><ele>521.0</ele><time>2026-04-18T11:49:45Z</time></trkpt><trkpt lat="42.550907986477384" lon="13.548625924697099"><ele>521.0</ele><time>2026-04-18T11:49:46Z</time></trkpt><trkpt lat="42.55083769469554" lon="13.54862017686402"><ele>521.0</ele><time>2026-04-18T11:49:47Z</time></trkpt><trkpt lat="42.550769688717" lon="13.54871208545785"><ele>521.0</ele><time>2026-04-18T11:49:48Z</time></trkpt><trkpt lat="42.55075152616699" lon="13.548887251023592"><ele>521.0</ele><time>2026-04-18T11:49:49Z</time></trkpt><trkpt lat="42.550832246858896" lon="13.549064578244867"><ele>521.0</ele><time>2026-04-18T11:49:50Z</time></trkpt><trkpt lat="42.550877433104795" lon="13.549253529036562"><ele>521.0</ele><time>2026-04-18T11:49:51Z</time></trkpt><trkpt lat="42.55091351085307" lon="13.549445106386225"><ele>521.0</ele><time>2026-04-18T11:49:52Z</time></trkpt><trkpt lat="42.550968279835566" lon="13.549629051228282"><ele>521.75</ele><time>2026-04-18T11:49:53Z</time></trkpt><trkpt lat="42.55105852287062" lon="13.549769515933273"><ele>522.5</ele><time>2026-04-18T11:49:53.999Z</time></trkpt><trkpt lat="42.55118078997447" lon="13.549872960820329"><ele>523.25</ele><time>2026-04-18T11:49:54.999Z</time></trkpt><trkpt lat="42.55132531607636" lon="13.549915503118017"><ele>524.0</ele><time>2026-04-18T11:49:55.999Z</time></trkpt><trkpt lat="42.55146105841283" lon="13.549894743568208"><ele>524.0</ele><time>2026-04-18T11:49:56.999Z</time></trkpt><trkpt lat="42.55157102119766" lon="13.549913967088683"><ele>524.0</ele><time>2026-04-18T11:49:57.999Z</time></trkpt><trkpt lat="42.551685777116845" lon="13.549954406893065"><ele>524.0</ele><time>2026-04-18T11:49:58.999Z</time></trkpt><trkpt lat="42.55179999120711" lon="13.550066011426798"><ele>524.0</ele><time>2026-04-18T11:49:59.999Z</time></trkpt><trkpt lat="42.551936760522594" lon="13.550144271323784"><ele>522.3333333333333</ele><time>2026-04-18T11:50:00.999Z</time></trkpt><trkpt lat="42.55210254163562" lon="13.550149835551736"><ele>520.6666666666666</ele><time>2026-04-18T11:50:01.999Z</time></trkpt><trkpt lat="42.55227406006377" lon="13.550143683487118"><ele>519.0</ele><time>2026-04-18T11:50:02.999Z</time></trkpt><trkpt lat="42.55245282282072" lon="13.55012847290776"><ele>519.0</ele><time>2026-04-18T11:50:03.999Z</time></trkpt><trkpt lat="42.55261968694213" lon="13.55010917707298"><ele>519.0</ele><time>2026-04-18T11:50:04.999Z</time></trkpt><trkpt lat="42.5527620178593" lon="13.55014133374274"><ele>519.0</ele><time>2026-04-18T11:50:05.999Z</time></trkpt><trkpt lat="42.55288520038603" lon="13.55019499585526"><ele>519.0</ele><time>2026-04-18T11:50:06.999Z</time></trkpt><trkpt lat="42.552990827053236" lon="13.550254218444428"><ele>517.25</ele><time>2026-04-18T11:50:07.999Z</time></trkpt><trkpt lat="42.55308115373952" lon="13.55033985680507"><ele>515.5</ele><time>2026-04-18T11:50:08.999Z</time></trkpt><trkpt lat="42.55315036773426" lon="13.550487599235781"><ele>513.75</ele><time>2026-04-18T11:50:09.999Z</time></trkpt><trkpt lat="42.55321140990934" lon="13.550636885107746"><ele>512.0</ele><time>2026-04-18T11:50:10.999Z</time></trkpt><trkpt lat="42.55326217160971" lon="13.550757878036018"><ele>515.0</ele><time>2026-04-18T11:50:11.999Z</time></trkpt><trkpt lat="42.55328206114831" lon="13.550867780980536"><ele>518.0</ele><time>2026-04-18T11:50:12.999Z</time></trkpt><trkpt lat="42.55325029512771" lon="13.550951601470722"><ele>521.0</ele><time>2026-04-18T11:50:13.999Z</time></trkpt><trkpt lat="42.55310679732038" lon="13.55094906815365"><ele>524.0</ele><time>2026-04-18T11:50:15.999Z</time></trkpt><trkpt lat="42.55306738295065" lon="13.550810803823156"><ele>527.0</ele><time>2026-04-18T11:50:16.999Z</time></trkpt><trkpt lat="42.55298721272787" lon="13.550676763957949"><ele>536.0</ele><time>2026-04-18T11:50:17.999Z</time></trkpt><trkpt lat="42.55287238305004" lon="13.550561369009309"><ele>545.0</ele><time>2026-04-18T11:50:18.999Z</time></trkpt><trkpt lat="42.5527321092709" lon="13.55046560753947"><ele>554.0</ele><time>2026-04-18T11:50:19.999Z</time></trkpt><trkpt lat="42.55257501958944" lon="13.550407236534118"><ele>554.0</ele><time>2026-04-18T11:50:20.999Z</time></trkpt><trkpt lat="42.55241086953378" lon="13.550383609291039"><ele>554.0</ele><time>2026-04-18T11:50:21.999Z</time></trkpt><trkpt lat="42.552228254059365" lon="13.550411088066403"><ele>554.0</ele><time>2026-04-18T11:50:22.999Z</time></trkpt><trkpt lat="42.55203765053621" lon="13.550430586792539"><ele>558.6666666666666</ele><time>2026-04-18T11:50:23.999Z</time></trkpt><trkpt lat="42.55183983923557" lon="13.550413290064155"><ele>563.3333333333334</ele><time>2026-04-18T11:50:24.999Z</time></trkpt><trkpt lat="42.55165447866294" lon="13.550370331545324"><ele>568.0</ele><time>2026-04-18T11:50:25.999Z</time></trkpt><trkpt lat="42.551476753571144" lon="13.550371619047716"><ele>568.0</ele><time>2026-04-18T11:50:26.999Z</time></trkpt><trkpt lat="42.55130850628272" lon="13.550433678645494"><ele>568.0</ele><time>2026-04-18T11:50:27.999Z</time></trkpt><trkpt lat="42.55114109621061" lon="13.55045337139563"><ele>568.0</ele><time>2026-04-18T11:50:28.999Z</time></trkpt><trkpt lat="42.55098329050165" lon="13.550404414876352"><ele>562.25</ele><time>2026-04-18T11:50:29.999Z</time></trkpt><trkpt lat="42.55085415171079" lon="13.550363329152681"><ele>556.5</ele><time>2026-04-18T11:50:30.998Z</time></trkpt><trkpt lat="42.5507377572285" lon="13.550315593538462"><ele>550.75</ele><time>2026-04-18T11:50:31.998Z</time></trkpt><trkpt lat="42.55064709442515" lon="13.550230058960834"><ele>545.0</ele><time>2026-04-18T11:50:32.998Z</time></trkpt><trkpt lat="42.5505708135822" lon="13.550134447940561"><ele>545.0</ele><time>2026-04-18T11:50:33.998Z</time></trkpt><trkpt lat="42.55049606490733" lon="13.550030535563636"><ele>545.0</ele><time>2026-04-18T11:50:34.998Z</time></trkpt><trkpt lat="42.550427801123206" lon="13.549925410980508"><ele>545.0</ele><time>2026-04-18T11:50:35.998Z</time></trkpt><trkpt lat="42.55037021141439" lon="13.549814996004246"><ele>545.0</ele><time>2026-04-18T11:50:36.998Z</time></trkpt><trkpt lat="42.55032802736887" lon="13.549693909350678"><ele>545.0</ele><time>2026-04-18T11:50:37.998Z</time></trkpt><trkpt lat="42.550286581413516" lon="13.549560100139518"><ele>548.5</ele><time>2026-04-18T11:50:38.998Z</time></trkpt><trkpt lat="42.55024149545358" lon="13.549414412714226"><ele>552.0</ele><time>2026-04-18T11:50:39.998Z</time></trkpt><trkpt lat="42.55017981493593" lon="13.549265962555118"><ele>555.5</ele><time>2026-04-18T11:50:40.998Z</time></trkpt><trkpt lat="42.55009376841494" lon="13.549150210701425"><ele>559.0</ele><time>2026-04-18T11:50:41.998Z</time></trkpt><trkpt lat="42.54998396800126" lon="13.549075923484553"><ele>559.0</ele><time>2026-04-18T11:50:42.998Z</time></trkpt><trkpt lat="42.54987683990448" lon="13.548997076591942"><ele>559.0</ele><time>2026-04-18T11:50:43.998Z</time></trkpt><trkpt lat="42.54975440529263" lon="13.548912593529847"><ele>559.0</ele><time>2026-04-18T11:50:44.998Z</time></trkpt><trkpt lat="42.549611826046196" lon="13.5488345548036"><ele>559.0</ele><time>2026-04-18T11:50:45.998Z</time></trkpt><trkpt lat="42.549472807695466" lon="13.548773609145206"><ele>556.6</ele><time>2026-04-18T11:50:46.998Z</time></trkpt><trkpt lat="42.54933868687519" lon="13.548741208577095"><ele>554.2</ele><time>2026-04-18T11:50:47.998Z</time></trkpt><trkpt lat="42.54923318935028" lon="13.548685270990665"><ele>551.8000000000001</ele><time>2026-04-18T11:50:48.998Z</time></trkpt><trkpt lat="42.54914303802555" lon="13.548645874166365"><ele>549.4</ele><time>2026-04-18T11:50:49.998Z</time></trkpt><trkpt lat="42.54906551321087" lon="13.548628768885736"><ele>547.0</ele><time>2026-04-18T11:50:50.998Z</time></trkpt><trkpt lat="42.54900162615474" lon="13.548639278155543"><ele>553.0</ele><time>2026-04-18T11:50:51.998Z</time></trkpt><trkpt lat="42.548921611181555" lon="13.548764014420001"><ele>559.0</ele><time>2026-04-18T11:50:53.998Z</time></trkpt><trkpt lat="42.54891432608366" lon="13.548860807349202"><ele>565.0</ele><time>2026-04-18T11:50:54.998Z</time></trkpt><trkpt lat="42.54894702037353" lon="13.548947049822502"><ele>571.0</ele><time>2026-04-18T11:50:55.998Z</time></trkpt><trkpt lat="42.549016270036326" lon="13.549015132666272"><ele>577.0</ele><time>2026-04-18T11:50:56.998Z</time></trkpt><trkpt lat="42.54913475894987" lon="13.54907165481039"><ele>577.0</ele><time>2026-04-18T11:50:57.998Z</time></trkpt><trkpt lat="42.54928560564065" lon="13.549074154489514"><ele>577.0</ele><time>2026-04-18T11:50:58.998Z</time></trkpt><trkpt lat="42.549442058739" lon="13.549131703504116"><ele>577.0</ele><time>2026-04-18T11:50:59.998Z</time></trkpt><trkpt lat="42.54958745927389" lon="13.549216490320642"><ele>577.5</ele><time>2026-04-18T11:51:00.998Z</time></trkpt><trkpt lat="42.54971765281754" lon="13.549339866676847"><ele>578.0</ele><time>2026-04-18T11:51:01.998Z</time></trkpt><trkpt lat="42.54982457824117" lon="13.549474548928574"><ele>578.5</ele><time>2026-04-18T11:51:02.998Z</time></trkpt><trkpt lat="42.5499052113391" lon="13.549588170751157"><ele>579.0</ele><time>2026-04-18T11:51:03.998Z</time></trkpt><trkpt lat="42.54995304183825" lon="13.549699017043128"><ele>579.0</ele><time>2026-04-18T11:51:04.998Z</time></trkpt><trkpt lat="42.549948835664345" lon="13.549803409248957"><ele>579.0</ele><time>2026-04-18T11:51:05.998Z</time></trkpt><trkpt lat="42.549894628429584" lon="13.54987604441043"><ele>579.0</ele><time>2026-04-18T11:51:06.998Z</time></trkpt><trkpt lat="42.54982150247534" lon="13.549888227689884"><ele>579.0</ele><time>2026-04-18T11:51:07.998Z</time></trkpt><trkpt lat="42.549746566219866" lon="13.549835536270978"><ele>579.0</ele><time>2026-04-18T11:51:08.997Z</time></trkpt><trkpt lat="42.54969764674715" lon="13.549697415892199"><ele>579.0</ele><time>2026-04-18T11:51:09.997Z</time></trkpt><trkpt lat="42.54960887659544" lon="13.549568448370472"><ele>578.3333333333334</ele><time>2026-04-18T11:51:10.997Z</time></trkpt><trkpt lat="42.54951135613558" lon="13.549430840112882"><ele>577.6666666666667</ele><time>2026-04-18T11:51:11.997Z</time></trkpt><trkpt lat="42.54937077408422" lon="13.54934502349146"><ele>577.0</ele><time>2026-04-18T11:51:12.997Z</time></trkpt><trkpt lat="42.549214132190805" lon="13.54928534848147"><ele>577.0</ele><time>2026-04-18T11:51:13.997Z</time></trkpt><trkpt lat="42.54905185424495" lon="13.549243693949139"><ele>577.0</ele><time>2026-04-18T11:51:14.997Z</time></trkpt><trkpt lat="42.54886975979842" lon="13.54926839935589"><ele>577.0</ele><time>2026-04-18T11:51:15.997Z</time></trkpt><trkpt lat="42.548684081029435" lon="13.549305740432183"><ele>581.3333333333334</ele><time>2026-04-18T11:51:16.997Z</time></trkpt><trkpt lat="42.54850403034414" lon="13.549282236311546"><ele>585.6666666666666</ele><time>2026-04-18T11:51:17.997Z</time></trkpt><trkpt lat="42.54834445866369" lon="13.549166497788597"><ele>590.0</ele><time>2026-04-18T11:51:18.997Z</time></trkpt><trkpt lat="42.54819094926742" lon="13.549074392308137"><ele>590.0</ele><time>2026-04-18T11:51:19.997Z</time></trkpt><trkpt lat="42.54806297308844" lon="13.548975027571553"><ele>590.0</ele><time>2026-04-18T11:51:20.997Z</time></trkpt><trkpt lat="42.54794860203131" lon="13.548901312822506"><ele>590.0</ele><time>2026-04-18T11:51:21.997Z</time></trkpt><trkpt lat="42.547849960846676" lon="13.548872110052008"><ele>590.0</ele><time>2026-04-18T11:51:22.997Z</time></trkpt><trkpt lat="42.547756423476756" lon="13.548900617312341"><ele>590.0</ele><time>2026-04-18T11:51:23.997Z</time></trkpt><trkpt lat="42.5476982527959" lon="13.549001939120695"><ele>590.0</ele><time>2026-04-18T11:51:25Z</time></trkpt><trkpt lat="42.54770438010704" lon="13.549134012711548"><ele>590.0</ele><time>2026-04-18T11:51:26Z</time></trkpt><trkpt lat="42.54777310303652" lon="13.549243722385182"><ele>590.0</ele><time>2026-04-18T11:51:27Z</time></trkpt><trkpt lat="42.54788406203889" lon="13.549305937575017"><ele>590.0</ele><time>2026-04-18T11:51:28Z</time></trkpt><trkpt lat="42.54802156687224" lon="13.549326682084132"><ele>590.0</ele><time>2026-04-18T11:51:29Z</time></trkpt><trkpt lat="42.548160176632265" lon="13.549348451362619"><ele>590.0</ele><time>2026-04-18T11:51:30Z</time></trkpt><trkpt lat="42.54826409407099" lon="13.549390633538456"><ele>590.0</ele><time>2026-04-18T11:51:31Z</time></trkpt><trkpt lat="42.548334981528235" lon="13.549463297866414"><ele>590.0</ele><time>2026-04-18T11:51:32Z</time></trkpt><trkpt lat="42.548356399521026" lon="13.549562318021971"><ele>590.0</ele><time>2026-04-18T11:51:33Z</time></trkpt><trkpt lat="42.54831257794685" lon="13.549652340255463"><ele>590.0</ele><time>2026-04-18T11:51:34Z</time></trkpt><trkpt lat="42.548244302771636" lon="13.549675881291419"><ele>590.0</ele><time>2026-04-18T11:51:35Z</time></trkpt><trkpt lat="42.54815721981288" lon="13.549600787961356"><ele>590.0</ele><time>2026-04-18T11:51:36Z</time></trkpt><trkpt lat="42.548045041135296" lon="13.549542144822171"><ele>590.0</ele><time>2026-04-18T11:51:37Z</time></trkpt><trkpt lat="42.54790810455068" lon="13.54949599937261"><ele>590.0</ele><time>2026-04-18T11:51:38Z</time></trkpt><trkpt lat="42.547757535467646" lon="13.549420287208754"><ele>594.0</ele><time>2026-04-18T11:51:39Z</time></trkpt><trkpt lat="42.54759141545848" lon="13.549338772223184"><ele>598.0</ele><time>2026-04-18T11:51:40Z</time></trkpt><trkpt lat="42.54741425628296" lon="13.549250909945139"><ele>602.0</ele><time>2026-04-18T11:51:41Z</time></trkpt><trkpt lat="42.54723457991744" lon="13.549173698021963"><ele>602.0</ele><time>2026-04-18T11:51:42Z</time></trkpt><trkpt lat="42.54704990715009" lon="13.54913369603886"><ele>602.0</ele><time>2026-04-18T11:51:43Z</time></trkpt><trkpt lat="42.54687077752484" lon="13.549123146807474"><ele>602.0</ele><time>2026-04-18T11:51:44Z</time></trkpt><trkpt lat="42.54670603207818" lon="13.549140814046927"><ele>602.3333333333333</ele><time>2026-04-18T11:51:45Z</time></trkpt><trkpt lat="42.54656381193194" lon="13.549177039849903"><ele>602.6666666666666</ele><time>2026-04-18T11:51:46Z</time></trkpt><trkpt lat="42.546425342076766" lon="13.549243630757735"><ele>603.0</ele><time>2026-04-18T11:51:47Z</time></trkpt><trkpt lat="42.5462915181651" lon="13.54936902260624"><ele>600.6666666666666</ele><time>2026-04-18T11:51:48Z</time></trkpt><trkpt lat="42.54615074139716" lon="13.549497524796505"><ele>598.3333333333333</ele><time>2026-04-18T11:51:49Z</time></trkpt><trkpt lat="42.54598341614803" lon="13.549579971466686"><ele>596.0</ele><time>2026-04-18T11:51:50Z</time></trkpt><trkpt lat="42.54581740624603" lon="13.54965849959907"><ele>612.0</ele><time>2026-04-18T11:51:51Z</time></trkpt><trkpt lat="42.545659805959254" lon="13.549742925850353"><ele>628.0</ele><time>2026-04-18T11:51:52Z</time></trkpt><trkpt lat="42.545504757721176" lon="13.549807617743607"><ele>644.0</ele><time>2026-04-18T11:51:53Z</time></trkpt><trkpt lat="42.54534040028511" lon="13.549828006385011"><ele>645.0</ele><time>2026-04-18T11:51:54Z</time></trkpt><trkpt lat="42.54517147098064" lon="13.549773915835575"><ele>646.0</ele><time>2026-04-18T11:51:55Z</time></trkpt><trkpt lat="42.54499294476585" lon="13.549754971340848"><ele>647.0</ele><time>2026-04-18T11:51:56Z</time></trkpt><trkpt lat="42.54482705808009" lon="13.54972601835669"><ele>647.0</ele><time>2026-04-18T11:51:57Z</time></trkpt><trkpt lat="42.54467875178029" lon="13.54970198548514"><ele>647.0</ele><time>2026-04-18T11:51:58Z</time></trkpt><trkpt lat="42.54454143725946" lon="13.549620795174915"><ele>647.0</ele><time>2026-04-18T11:51:59Z</time></trkpt><trkpt lat="42.5444141917968" lon="13.54950378933929"><ele>641.6666666666666</ele><time>2026-04-18T11:52:00Z</time></trkpt><trkpt lat="42.54426584941174" lon="13.549383388325063"><ele>636.3333333333334</ele><time>2026-04-18T11:52:01Z</time></trkpt><trkpt lat="42.544117147842854" lon="13.54926778283798"><ele>631.0</ele><time>2026-04-18T11:52:02Z</time></trkpt><trkpt lat="42.543960709386255" lon="13.54920465210569"><ele>631.0</ele><time>2026-04-18T11:52:02.999Z</time></trkpt><trkpt lat="42.54381984388394" lon="13.549186773492538"><ele>631.0</ele><time>2026-04-18T11:52:03.999Z</time></trkpt><trkpt lat="42.543697640572724" lon="13.54922098458026"><ele>631.0</ele><time>2026-04-18T11:52:04.999Z</time></trkpt><trkpt lat="42.543574921766826" lon="13.549302462937183"><ele>631.0</ele><time>2026-04-18T11:52:05.999Z</time></trkpt><trkpt lat="42.5434459927163" lon="13.549397106709332"><ele>633.5</ele><time>2026-04-18T11:52:06.999Z</time></trkpt><trkpt lat="42.54330643461188" lon="13.5493920925423"><ele>636.0</ele><time>2026-04-18T11:52:07.999Z</time></trkpt><trkpt lat="42.543186766164126" lon="13.549286146271141"><ele>638.5</ele><time>2026-04-18T11:52:08.999Z</time></trkpt><trkpt lat="42.54305644433329" lon="13.549205356848798"><ele>641.0</ele><time>2026-04-18T11:52:09.999Z</time></trkpt><trkpt lat="42.542925560440764" lon="13.54915672935342"><ele>644.5</ele><time>2026-04-18T11:52:10.999Z</time></trkpt><trkpt lat="42.54278078734886" lon="13.549185003240892"><ele>648.0</ele><time>2026-04-18T11:52:11.999Z</time></trkpt><trkpt lat="42.54265131457612" lon="13.549240063084556"><ele>651.5</ele><time>2026-04-18T11:52:12.999Z</time></trkpt><trkpt lat="42.5425436780259" lon="13.549277587141482"><ele>655.0</ele><time>2026-04-18T11:52:13.999Z</time></trkpt><trkpt lat="42.54244708661574" lon="13.549287426362483"><ele>655.0</ele><time>2026-04-18T11:52:14.999Z</time></trkpt><trkpt lat="42.542361145158516" lon="13.549238513792917"><ele>655.0</ele><time>2026-04-18T11:52:15.999Z</time></trkpt><trkpt lat="42.542275275789144" lon="13.549134729738514"><ele>655.0</ele><time>2026-04-18T11:52:16.999Z</time></trkpt><trkpt lat="42.542251943513676" lon="13.548951556344724"><ele>655.0</ele><time>2026-04-18T11:52:17.999Z</time></trkpt><trkpt lat="42.542185491171296" lon="13.548769458489595"><ele>647.0</ele><time>2026-04-18T11:52:18.999Z</time></trkpt><trkpt lat="42.54212971491528" lon="13.548561052596936"><ele>639.0</ele><time>2026-04-18T11:52:19.999Z</time></trkpt><trkpt lat="42.54208946192929" lon="13.548346041229241"><ele>631.0</ele><time>2026-04-18T11:52:20.999Z</time></trkpt><trkpt lat="42.54202792848975" lon="13.548176284549488"><ele>643.5</ele><time>2026-04-18T11:52:21.999Z</time></trkpt><trkpt lat="42.541963581849544" lon="13.548023342988262"><ele>656.0</ele><time>2026-04-18T11:52:22.999Z</time></trkpt><trkpt lat="42.54186129121185" lon="13.547927676406315"><ele>668.5</ele><time>2026-04-18T11:52:23.999Z</time></trkpt><trkpt lat="42.5417341686211" lon="13.54790219888145"><ele>681.0</ele><time>2026-04-18T11:52:24.999Z</time></trkpt><trkpt lat="42.54159236112144" lon="13.547924997759036"><ele>681.0</ele><time>2026-04-18T11:52:25.999Z</time></trkpt><trkpt lat="42.54146103603792" lon="13.547941933905149"><ele>681.0</ele><time>2026-04-18T11:52:26.999Z</time></trkpt><trkpt lat="42.54134390188312" lon="13.547904746480915"><ele>681.0</ele><time>2026-04-18T11:52:27.999Z</time></trkpt><trkpt lat="42.54125694789263" lon="13.547758680147352"><ele>681.0</ele><time>2026-04-18T11:52:28.999Z</time></trkpt><trkpt lat="42.5411539924617" lon="13.547622905445733"><ele>681.0</ele><time>2026-04-18T11:52:29.999Z</time></trkpt><trkpt lat="42.54101705045205" lon="13.547504931340594"><ele>681.0</ele><time>2026-04-18T11:52:30.999Z</time></trkpt><trkpt lat="42.540853799688" lon="13.547413188126127"><ele>681.0</ele><time>2026-04-18T11:52:31.999Z</time></trkpt><trkpt lat="42.54069147433853" lon="13.547303744521372"><ele>681.0</ele><time>2026-04-18T11:52:32.999Z</time></trkpt><trkpt lat="42.54056118117532" lon="13.547123918545926"><ele>681.0</ele><time>2026-04-18T11:52:33.999Z</time></trkpt><trkpt lat="42.54039949141856" lon="13.54698079145772"><ele>681.0</ele><time>2026-04-18T11:52:34.999Z</time></trkpt><trkpt lat="42.54022880819611" lon="13.54685187432206"><ele>681.0</ele><time>2026-04-18T11:52:35.999Z</time></trkpt><trkpt lat="42.54006415277681" lon="13.546711954767135"><ele>681.0</ele><time>2026-04-18T11:52:36.999Z</time></trkpt><trkpt lat="42.53990147588875" lon="13.546587696515864"><ele>681.0</ele><time>2026-04-18T11:52:37.999Z</time></trkpt><trkpt lat="42.53974744276592" lon="13.546469367024187"><ele>681.0</ele><time>2026-04-18T11:52:38.999Z</time></trkpt><trkpt lat="42.539601960628104" lon="13.546354864925569"><ele>681.0</ele><time>2026-04-18T11:52:39.999Z</time></trkpt><trkpt lat="42.53947338182895" lon="13.546224169802322"><ele>681.0</ele><time>2026-04-18T11:52:40.998Z</time></trkpt><trkpt lat="42.53936207980399" lon="13.546072630635539"><ele>680.0</ele><time>2026-04-18T11:52:41.998Z</time></trkpt><trkpt lat="42.53924895458358" lon="13.545945455994657"><ele>679.0</ele><time>2026-04-18T11:52:42.998Z</time></trkpt><trkpt lat="42.53914351815261" lon="13.545816238358695"><ele>678.0</ele><time>2026-04-18T11:52:43.998Z</time></trkpt><trkpt lat="42.53902390495434" lon="13.545737339573932"><ele>677.0</ele><time>2026-04-18T11:52:44.998Z</time></trkpt><trkpt lat="42.538898457780455" lon="13.545721812281776"><ele>677.0</ele><time>2026-04-18T11:52:45.998Z</time></trkpt><trkpt lat="42.53876278037256" lon="13.545766126487948"><ele>677.0</ele><time>2026-04-18T11:52:46.998Z</time></trkpt><trkpt lat="42.538620767640346" lon="13.545859969837004"><ele>677.0</ele><time>2026-04-18T11:52:47.998Z</time></trkpt><trkpt lat="42.53847369223025" lon="13.545969580769848"><ele>677.3333333333333</ele><time>2026-04-18T11:52:48.998Z</time></trkpt><trkpt lat="42.53832025673251" lon="13.546085231037937"><ele>677.6666666666666</ele><time>2026-04-18T11:52:49.998Z</time></trkpt><trkpt lat="42.53814800554025" lon="13.546191134136487"><ele>678.0</ele><time>2026-04-18T11:52:50.998Z</time></trkpt><trkpt lat="42.53798025181287" lon="13.546306308874637"><ele>688.6666666666666</ele><time>2026-04-18T11:52:51.998Z</time></trkpt><trkpt lat="42.53780777350902" lon="13.546411022340223"><ele>699.3333333333333</ele><time>2026-04-18T11:52:52.998Z</time></trkpt><trkpt lat="42.53763045250758" lon="13.546487754403698"><ele>710.0</ele><time>2026-04-18T11:52:53.998Z</time></trkpt><trkpt lat="42.53744258998121" lon="13.546538753259943"><ele>710.0</ele><time>2026-04-18T11:52:54.998Z</time></trkpt><trkpt lat="42.537254391530304" lon="13.546614036163255"><ele>710.0</ele><time>2026-04-18T11:52:55.998Z</time></trkpt><trkpt lat="42.53707494261449" lon="13.546722990072828"><ele>710.0</ele><time>2026-04-18T11:52:56.998Z</time></trkpt><trkpt lat="42.53690712138638" lon="13.546861433997778"><ele>714.6666666666666</ele><time>2026-04-18T11:52:57.998Z</time></trkpt><trkpt lat="42.5367476924446" lon="13.547004163825896"><ele>719.3333333333334</ele><time>2026-04-18T11:52:58.998Z</time></trkpt><trkpt lat="42.53659014368319" lon="13.547140872072967"><ele>724.0</ele><time>2026-04-18T11:52:59.998Z</time></trkpt><trkpt lat="42.53642884539108" lon="13.547268950975765"><ele>724.0</ele><time>2026-04-18T11:53:00.998Z</time></trkpt><trkpt lat="42.53625479353354" lon="13.547342515051112"><ele>724.0</ele><time>2026-04-18T11:53:01.998Z</time></trkpt><trkpt lat="42.536081935622335" lon="13.547419451034724"><ele>724.0</ele><time>2026-04-18T11:53:02.998Z</time></trkpt><trkpt lat="42.53592185170558" lon="13.547532714440031"><ele>719.3333333333334</ele><time>2026-04-18T11:53:03.998Z</time></trkpt><trkpt lat="42.53577398944991" lon="13.547676502696364"><ele>714.6666666666666</ele><time>2026-04-18T11:53:04.998Z</time></trkpt><trkpt lat="42.5356294345435" lon="13.547830514338965"><ele>710.0</ele><time>2026-04-18T11:53:05.998Z</time></trkpt><trkpt lat="42.53548639948041" lon="13.547970410525554"><ele>716.0</ele><time>2026-04-18T11:53:06.998Z</time></trkpt><trkpt lat="42.53533028050441" lon="13.548066331389032"><ele>722.0</ele><time>2026-04-18T11:53:07.998Z</time></trkpt><trkpt lat="42.53516121663797" lon="13.548113198083403"><ele>728.0</ele><time>2026-04-18T11:53:08.998Z</time></trkpt><trkpt lat="42.53501337695053" lon="13.548147548286613"><ele>728.0</ele><time>2026-04-18T11:53:09.998Z</time></trkpt><trkpt lat="42.53487691188546" lon="13.548238854074958"><ele>728.0</ele><time>2026-04-18T11:53:10.998Z</time></trkpt><trkpt lat="42.534760086426665" lon="13.54839283163299"><ele>728.0</ele><time>2026-04-18T11:53:11.998Z</time></trkpt><trkpt lat="42.5346455933492" lon="13.54855368548984"><ele>721.6666666666666</ele><time>2026-04-18T11:53:12.998Z</time></trkpt><trkpt lat="42.53451849568035" lon="13.54869753903691"><ele>715.3333333333334</ele><time>2026-04-18T11:53:13.998Z</time></trkpt><trkpt lat="42.534380022888364" lon="13.548795315884348"><ele>709.0</ele><time>2026-04-18T11:53:14.998Z</time></trkpt><trkpt lat="42.53423210547186" lon="13.5488364476895"><ele>721.6666666666667</ele><time>2026-04-18T11:53:15.998Z</time></trkpt><trkpt lat="42.53409429277184" lon="13.548909090852238"><ele>734.3333333333334</ele><time>2026-04-18T11:53:16.998Z</time></trkpt><trkpt lat="42.533979091683285" lon="13.549056737860024"><ele>747.0</ele><time>2026-04-18T11:53:17.997Z</time></trkpt><trkpt lat="42.533881609524435" lon="13.549211279287118"><ele>747.0</ele><time>2026-04-18T11:53:18.997Z</time></trkpt><trkpt lat="42.533797840354275" lon="13.549333564388007"><ele>747.0</ele><time>2026-04-18T11:53:19.997Z</time></trkpt><trkpt lat="42.53373126471132" lon="13.549424272127663"><ele>747.0</ele><time>2026-04-18T11:53:20.997Z</time></trkpt><trkpt lat="42.53370018470608" lon="13.549500605893453"><ele>747.0</ele><time>2026-04-18T11:53:21.997Z</time></trkpt><trkpt lat="42.533732440700845" lon="13.549661932482723"><ele>747.0</ele><time>2026-04-18T11:53:23.997Z</time></trkpt><trkpt lat="42.5338211245796" lon="13.54966009692015"><ele>747.0</ele><time>2026-04-18T11:53:24.997Z</time></trkpt><trkpt lat="42.53389271461271" lon="13.549595583747264"><ele>747.0</ele><time>2026-04-18T11:53:25.997Z</time></trkpt><trkpt lat="42.53396937798911" lon="13.549505096104271"><ele>747.0</ele><time>2026-04-18T11:53:26.997Z</time></trkpt><trkpt lat="42.53404575830839" lon="13.549389428297157"><ele>747.0</ele><time>2026-04-18T11:53:27.997Z</time></trkpt><trkpt lat="42.534129773311044" lon="13.549264886059078"><ele>747.0</ele><time>2026-04-18T11:53:28.997Z</time></trkpt><trkpt lat="42.53421776567984" lon="13.549149639525181"><ele>747.0</ele><time>2026-04-18T11:53:29.997Z</time></trkpt><trkpt lat="42.53431944805658" lon="13.549074040231508"><ele>747.0</ele><time>2026-04-18T11:53:31Z</time></trkpt><trkpt lat="42.534445791339884" lon="13.549031486419898"><ele>747.0</ele><time>2026-04-18T11:53:32Z</time></trkpt><trkpt lat="42.53458929122639" lon="13.548995695576659"><ele>747.0</ele><time>2026-04-18T11:53:33Z</time></trkpt><trkpt lat="42.534735046549876" lon="13.54892304792117"><ele>742.25</ele><time>2026-04-18T11:53:34Z</time></trkpt><trkpt lat="42.53486024254725" lon="13.54882847628942"><ele>737.5</ele><time>2026-04-18T11:53:35Z</time></trkpt><trkpt lat="42.53495861661833" lon="13.54875094956434"><ele>732.75</ele><time>2026-04-18T11:53:36Z</time></trkpt><trkpt lat="42.53504685783907" lon="13.548680145608245"><ele>728.0</ele><time>2026-04-18T11:53:37Z</time></trkpt><trkpt lat="42.53516289496277" lon="13.548699252096302"><ele>738.75</ele><time>2026-04-18T11:53:38Z</time></trkpt><trkpt lat="42.53528973657031" lon="13.548752944657243"><ele>749.5</ele><time>2026-04-18T11:53:39Z</time></trkpt><trkpt lat="42.53542841084471" lon="13.548805971215877"><ele>760.25</ele><time>2026-04-18T11:53:40Z</time></trkpt><trkpt lat="42.53558229317172" lon="13.548831483664317"><ele>771.0</ele><time>2026-04-18T11:53:41Z</time></trkpt><trkpt lat="42.53574559576406" lon="13.548799944114942"><ele>774.6666666666667</ele><time>2026-04-18T11:53:42Z</time></trkpt><trkpt lat="42.535922821813486" lon="13.54879729991592"><ele>778.3333333333334</ele><time>2026-04-18T11:53:43Z</time></trkpt><trkpt lat="42.53610314107415" lon="13.548761219211173"><ele>782.0</ele><time>2026-04-18T11:53:44Z</time></trkpt><trkpt lat="42.53628815147423" lon="13.548758183252808"><ele>787.0</ele><time>2026-04-18T11:53:45Z</time></trkpt><trkpt lat="42.5364728777341" lon="13.548771281998665"><ele>792.0</ele><time>2026-04-18T11:53:46Z</time></trkpt><trkpt lat="42.53666212820836" lon="13.548707683001094"><ele>797.0</ele><time>2026-04-18T11:53:47Z</time></trkpt><trkpt lat="42.53683238610172" lon="13.54858159428606"><ele>789.6666666666667</ele><time>2026-04-18T11:53:48Z</time></trkpt><trkpt lat="42.53700341065935" lon="13.548490309989305"><ele>782.3333333333333</ele><time>2026-04-18T11:53:49Z</time></trkpt><trkpt lat="42.53719196706306" lon="13.54843163075266"><ele>775.0</ele><time>2026-04-18T11:53:50Z</time></trkpt><trkpt lat="42.53737851085446" lon="13.54837651379448"><ele>775.0</ele><time>2026-04-18T11:53:51Z</time></trkpt><trkpt lat="42.53756592314798" lon="13.54832104825051"><ele>775.0</ele><time>2026-04-18T11:53:52Z</time></trkpt><trkpt lat="42.53775111667565" lon="13.548260522866835"><ele>775.0</ele><time>2026-04-18T11:53:53Z</time></trkpt><trkpt lat="42.53792371810457" lon="13.548200907884608"><ele>780.0</ele><time>2026-04-18T11:53:54Z</time></trkpt><trkpt lat="42.53808284748667" lon="13.548145730093877"><ele>785.0</ele><time>2026-04-18T11:53:55Z</time></trkpt><trkpt lat="42.5382339903717" lon="13.548108179193486"><ele>790.0</ele><time>2026-04-18T11:53:56Z</time></trkpt><trkpt lat="42.538380124792205" lon="13.548110609507596"><ele>790.0</ele><time>2026-04-18T11:53:57Z</time></trkpt><trkpt lat="42.53853290430433" lon="13.548137292787876"><ele>790.0</ele><time>2026-04-18T11:53:58Z</time></trkpt><trkpt lat="42.538702243340985" lon="13.548182311968402"><ele>790.0</ele><time>2026-04-18T11:53:59Z</time></trkpt><trkpt lat="42.5388637863202" lon="13.548234791222537"><ele>788.0</ele><time>2026-04-18T11:54:00Z</time></trkpt><trkpt lat="42.53900539443319" lon="13.548282679275838"><ele>786.0</ele><time>2026-04-18T11:54:01Z</time></trkpt><trkpt lat="42.53911745500484" lon="13.548347752551"><ele>784.0</ele><time>2026-04-18T11:54:02Z</time></trkpt><trkpt lat="42.53920693992162" lon="13.548455140939003"><ele>782.0</ele><time>2026-04-18T11:54:03Z</time></trkpt><trkpt lat="42.53928790311975" lon="13.54859998138021"><ele>781.6666666666667</ele><time>2026-04-18T11:54:04Z</time></trkpt><trkpt lat="42.53938950949428" lon="13.548756000025765"><ele>781.3333333333333</ele><time>2026-04-18T11:54:05Z</time></trkpt><trkpt lat="42.53952461943619" lon="13.548891195406464"><ele>781.0</ele><time>2026-04-18T11:54:06Z</time></trkpt><trkpt lat="42.53968394811211" lon="13.54901185070941"><ele>781.0</ele><time>2026-04-18T11:54:07Z</time></trkpt><trkpt lat="42.539846523317856" lon="13.549136557666834"><ele>781.0</ele><time>2026-04-18T11:54:08Z</time></trkpt><trkpt lat="42.53999322869605" lon="13.54925092241578"><ele>781.0</ele><time>2026-04-18T11:54:09Z</time></trkpt><trkpt lat="42.54011776629101" lon="13.549347209856881"><ele>780.9999999999999</ele><time>2026-04-18T11:54:10Z</time></trkpt><trkpt lat="42.54021674952267" lon="13.54945225504861"><ele>781.0</ele><time>2026-04-18T11:54:11Z</time></trkpt><trkpt lat="42.54030357117985" lon="13.54952027109253"><ele>781.0</ele><time>2026-04-18T11:54:12Z</time></trkpt><trkpt lat="42.54033298716444" lon="13.549619152431113"><ele>781.0</ele><time>2026-04-18T11:54:13Z</time></trkpt><trkpt lat="42.540320235761" lon="13.54971061312241"><ele>780.9999999999999</ele><time>2026-04-18T11:54:13.999Z</time></trkpt><trkpt lat="42.5402582635075" lon="13.549748114099419"><ele>781.0</ele><time>2026-04-18T11:54:14.999Z</time></trkpt><trkpt lat="42.54018231227876" lon="13.549727446028804"><ele>781.0</ele><time>2026-04-18T11:54:15.999Z</time></trkpt><trkpt lat="42.540135505249495" lon="13.549603410577491"><ele>781.0</ele><time>2026-04-18T11:54:16.999Z</time></trkpt><trkpt lat="42.54006055457735" lon="13.54950671271945"><ele>781.0</ele><time>2026-04-18T11:54:17.999Z</time></trkpt><trkpt lat="42.53995716736971" lon="13.549423889973996"><ele>781.0</ele><time>2026-04-18T11:54:18.999Z</time></trkpt><trkpt lat="42.539849691661004" lon="13.54936408167165"><ele>781.0</ele><time>2026-04-18T11:54:19.999Z</time></trkpt><trkpt lat="42.539710190033546" lon="13.54930687280205"><ele>781.0</ele><time>2026-04-18T11:54:20.999Z</time></trkpt><trkpt lat="42.53955400918865" lon="13.549252260894775"><ele>781.0</ele><time>2026-04-18T11:54:21.999Z</time></trkpt><trkpt lat="42.539391862997405" lon="13.54918584177851"><ele>781.0</ele><time>2026-04-18T11:54:22.999Z</time></trkpt><trkpt lat="42.539229948426026" lon="13.549116241725502"><ele>788.3333333333333</ele><time>2026-04-18T11:54:23.999Z</time></trkpt><trkpt lat="42.539063529439794" lon="13.549043813138013"><ele>795.6666666666667</ele><time>2026-04-18T11:54:24.999Z</time></trkpt><trkpt lat="42.53889228553384" lon="13.548956336355362"><ele>803.0</ele><time>2026-04-18T11:54:25.999Z</time></trkpt><trkpt lat="42.53876009871798" lon="13.548816385012106"><ele>799.75</ele><time>2026-04-18T11:54:26.999Z</time></trkpt><trkpt lat="42.53864263853577" lon="13.548682535820166"><ele>796.5</ele><time>2026-04-18T11:54:27.999Z</time></trkpt><trkpt lat="42.538512817618866" lon="13.548595867743456"><ele>793.25</ele><time>2026-04-18T11:54:28.999Z</time></trkpt><trkpt lat="42.53837639403419" lon="13.548548194832886"><ele>790.0</ele><time>2026-04-18T11:54:29.999Z</time></trkpt><trkpt lat="42.538224005342" lon="13.548561860461232"><ele>790.0</ele><time>2026-04-18T11:54:30.999Z</time></trkpt><trkpt lat="42.53804907680975" lon="13.548606405838182"><ele>790.0</ele><time>2026-04-18T11:54:31.999Z</time></trkpt><trkpt lat="42.53786996755748" lon="13.548654703385937"><ele>790.0</ele><time>2026-04-18T11:54:32.999Z</time></trkpt><trkpt lat="42.53769253621082" lon="13.548706829358196"><ele>800.0</ele><time>2026-04-18T11:54:33.999Z</time></trkpt><trkpt lat="42.53752015292538" lon="13.548800548433858"><ele>810.0</ele><time>2026-04-18T11:54:34.999Z</time></trkpt><trkpt lat="42.53736270942102" lon="13.548942232427486"><ele>820.0</ele><time>2026-04-18T11:54:35.999Z</time></trkpt><trkpt lat="42.53720902053708" lon="13.549095275509663"><ele>820.0</ele><time>2026-04-18T11:54:36.999Z</time></trkpt><trkpt lat="42.537056596175795" lon="13.549240053606377"><ele>820.0</ele><time>2026-04-18T11:54:37.999Z</time></trkpt><trkpt lat="42.536933784495915" lon="13.549403957719704"><ele>820.0</ele><time>2026-04-18T11:54:38.999Z</time></trkpt><trkpt lat="42.53682666414163" lon="13.549568801132029"><ele>825.25</ele><time>2026-04-18T11:54:39.999Z</time></trkpt><trkpt lat="42.53671902614681" lon="13.5496984763554"><ele>830.5</ele><time>2026-04-18T11:54:40.999Z</time></trkpt><trkpt lat="42.536590867111705" lon="13.549769962279678"><ele>835.75</ele><time>2026-04-18T11:54:41.999Z</time></trkpt><trkpt lat="42.53644110183963" lon="13.549746592411639"><ele>841.0</ele><time>2026-04-18T11:54:42.999Z</time></trkpt><trkpt lat="42.53628256392303" lon="13.549770614919463"><ele>835.3333333333333</ele><time>2026-04-18T11:54:43.999Z</time></trkpt><trkpt lat="42.53611963717942" lon="13.549819640188606"><ele>829.6666666666667</ele><time>2026-04-18T11:54:44.999Z</time></trkpt><trkpt lat="42.53595697427863" lon="13.549899680585597"><ele>824.0</ele><time>2026-04-18T11:54:45.999Z</time></trkpt><trkpt lat="42.53578585721082" lon="13.549974116570713"><ele>824.0</ele><time>2026-04-18T11:54:46.999Z</time></trkpt><trkpt lat="42.535617288500205" lon="13.550060649855144"><ele>824.0</ele><time>2026-04-18T11:54:47.999Z</time></trkpt><trkpt lat="42.53546271569545" lon="13.55018157814843"><ele>824.0</ele><time>2026-04-18T11:54:48.999Z</time></trkpt><trkpt lat="42.53531563016678" lon="13.550303817913973"><ele>829.0</ele><time>2026-04-18T11:54:49.999Z</time></trkpt><trkpt lat="42.53516315741862" lon="13.550401049166423"><ele>834.0</ele><time>2026-04-18T11:54:50.999Z</time></trkpt><trkpt lat="42.53500981763942" lon="13.550461844509057"><ele>839.0</ele><time>2026-04-18T11:54:51.998Z</time></trkpt><trkpt lat="42.53486620132178" lon="13.550525709855405"><ele>839.0</ele><time>2026-04-18T11:54:52.998Z</time></trkpt><trkpt lat="42.534757420874726" lon="13.550646381691443"><ele>839.0</ele><time>2026-04-18T11:54:53.998Z</time></trkpt><trkpt lat="42.53467091616198" lon="13.550795960813323"><ele>839.0</ele><time>2026-04-18T11:54:54.998Z</time></trkpt><trkpt lat="42.534578778170236" lon="13.55094011568215"><ele>839.0</ele><time>2026-04-18T11:54:55.998Z</time></trkpt><trkpt lat="42.53447377053901" lon="13.551079433597023"><ele>839.25</ele><time>2026-04-18T11:54:56.998Z</time></trkpt><trkpt lat="42.534371556417256" lon="13.551224874753052"><ele>839.5</ele><time>2026-04-18T11:54:57.998Z</time></trkpt><trkpt lat="42.534275894402846" lon="13.551377612527178"><ele>839.75</ele><time>2026-04-18T11:54:58.998Z</time></trkpt><trkpt lat="42.53420344421943" lon="13.551543196325609"><ele>840.0</ele><time>2026-04-18T11:54:59.998Z</time></trkpt><trkpt lat="42.534158655420484" lon="13.551725210249128"><ele>840.0</ele><time>2026-04-18T11:55:00.998Z</time></trkpt><trkpt lat="42.53411268603069" lon="13.551903360773093"><ele>840.0</ele><time>2026-04-18T11:55:01.998Z</time></trkpt><trkpt lat="42.53403862058806" lon="13.552072658862949"><ele>840.0</ele><time>2026-04-18T11:55:02.998Z</time></trkpt><trkpt lat="42.533942723731215" lon="13.552227699799188"><ele>840.0</ele><time>2026-04-18T11:55:03.998Z</time></trkpt><trkpt lat="42.53383486311994" lon="13.552371299900477"><ele>839.6666666666667</ele><time>2026-04-18T11:55:04.998Z</time></trkpt><trkpt lat="42.53372602823494" lon="13.55251926947341"><ele>839.3333333333334</ele><time>2026-04-18T11:55:05.998Z</time></trkpt><trkpt lat="42.533615037109705" lon="13.552665862084961"><ele>839.0</ele><time>2026-04-18T11:55:06.998Z</time></trkpt><trkpt lat="42.533483857524836" lon="13.552773709953726"><ele>839.0</ele><time>2026-04-18T11:55:07.998Z</time></trkpt><trkpt lat="42.53333649692326" lon="13.55283815676607"><ele>839.0</ele><time>2026-04-18T11:55:08.998Z</time></trkpt><trkpt lat="42.533184446892015" lon="13.55287064521414"><ele>839.0</ele><time>2026-04-18T11:55:09.998Z</time></trkpt><trkpt lat="42.53303255104619" lon="13.552907551576613"><ele>843.75</ele><time>2026-04-18T11:55:10.998Z</time></trkpt><trkpt lat="42.53288380671006" lon="13.552964496258173"><ele>848.5</ele><time>2026-04-18T11:55:11.998Z</time></trkpt><trkpt lat="42.53274918522372" lon="13.553054505259881"><ele>853.25</ele><time>2026-04-18T11:55:12.998Z</time></trkpt><trkpt lat="42.53264117632721" lon="13.553178730131078"><ele>858.0</ele><time>2026-04-18T11:55:13.998Z</time></trkpt><trkpt lat="42.532546331015155" lon="13.553315142967488"><ele>858.0</ele><time>2026-04-18T11:55:14.998Z</time></trkpt><trkpt lat="42.5324460430009" lon="13.553434197965469"><ele>858.0</ele><time>2026-04-18T11:55:15.998Z</time></trkpt><trkpt lat="42.53233118582994" lon="13.553525362641675"><ele>858.0</ele><time>2026-04-18T11:55:16.998Z</time></trkpt><trkpt lat="42.5322099173375" lon="13.553590502136343"><ele>858.0</ele><time>2026-04-18T11:55:17.998Z</time></trkpt><trkpt lat="42.53208264544315" lon="13.553636423015655"><ele>860.0</ele><time>2026-04-18T11:55:18.998Z</time></trkpt><trkpt lat="42.531963481454746" lon="13.553682719443103"><ele>862.0</ele><time>2026-04-18T11:55:19.998Z</time></trkpt><trkpt lat="42.531867753695444" lon="13.553740683444346"><ele>864.0</ele><time>2026-04-18T11:55:20.998Z</time></trkpt><trkpt lat="42.53181414044549" lon="13.553832287547737"><ele>866.0</ele><time>2026-04-18T11:55:21.998Z</time></trkpt><trkpt lat="42.53180456055262" lon="13.553941924897762"><ele>868.0</ele><time>2026-04-18T11:55:22.998Z</time></trkpt><trkpt lat="42.53185966937357" lon="13.554032431647054"><ele>870.25</ele><time>2026-04-18T11:55:23.998Z</time></trkpt><trkpt lat="42.53195023720628" lon="13.554093869068602"><ele>872.5</ele><time>2026-04-18T11:55:24.998Z</time></trkpt><trkpt lat="42.53207425348637" lon="13.554028932951095"><ele>874.75</ele><time>2026-04-18T11:55:25.998Z</time></trkpt><trkpt lat="42.53220500914961" lon="13.55398736625112"><ele>877.0</ele><time>2026-04-18T11:55:26.998Z</time></trkpt><trkpt lat="42.5323173268543" lon="13.55394461650146"><ele>877.75</ele><time>2026-04-18T11:55:27.998Z</time></trkpt><trkpt lat="42.53245852043914" lon="13.553877757269273"><ele>878.5</ele><time>2026-04-18T11:55:28.997Z</time></trkpt><trkpt lat="42.53260112132311" lon="13.553828450607924"><ele>879.25</ele><time>2026-04-18T11:55:29.997Z</time></trkpt><trkpt lat="42.532747081291035" lon="13.553797612828427"><ele>880.0</ele><time>2026-04-18T11:55:30.997Z</time></trkpt><trkpt lat="42.532898205104374" lon="13.55380961527947"><ele>883.3333333333333</ele><time>2026-04-18T11:55:31.997Z</time></trkpt><trkpt lat="42.53305142204685" lon="13.553846161952423"><ele>886.6666666666667</ele><time>2026-04-18T11:55:32.997Z</time></trkpt><trkpt lat="42.533198849662355" lon="13.553904458284789"><ele>890.0</ele><time>2026-04-18T11:55:33.997Z</time></trkpt><trkpt lat="42.533351236277504" lon="13.55397226772024"><ele>890.0</ele><time>2026-04-18T11:55:34.997Z</time></trkpt><trkpt lat="42.53350760816871" lon="13.554021421663766"><ele>890.0</ele><time>2026-04-18T11:55:36Z</time></trkpt><trkpt lat="42.533667786797956" lon="13.554019593012836"><ele>890.0</ele><time>2026-04-18T11:55:37Z</time></trkpt><trkpt lat="42.53382352384109" lon="13.553970616452293"><ele>887.6666666666667</ele><time>2026-04-18T11:55:38Z</time></trkpt><trkpt lat="42.53396143493634" lon="13.553873303762881"><ele>885.3333333333333</ele><time>2026-04-18T11:55:39Z</time></trkpt><trkpt lat="42.53407122836175" lon="13.55372209177"><ele>883.0</ele><time>2026-04-18T11:55:40Z</time></trkpt><trkpt lat="42.53418282543062" lon="13.553574511938104"><ele>883.0</ele><time>2026-04-18T11:55:41Z</time></trkpt><trkpt lat="42.534280820399836" lon="13.553399034503418"><ele>883.0</ele><time>2026-04-18T11:55:42Z</time></trkpt><trkpt lat="42.53437306508235" lon="13.553217705807857"><ele>883.0</ele><time>2026-04-18T11:55:43Z</time></trkpt><trkpt lat="42.53446599155799" lon="13.553035138196229"><ele>892.3333333333333</ele><time>2026-04-18T11:55:44Z</time></trkpt><trkpt lat="42.53455788518319" lon="13.552855491046898"><ele>901.6666666666667</ele><time>2026-04-18T11:55:45Z</time></trkpt><trkpt lat="42.534645825150704" lon="13.552683572931345"><ele>911.0</ele><time>2026-04-18T11:55:46Z</time></trkpt><trkpt lat="42.534722401878625" lon="13.55253252991628"><ele>911.0</ele><time>2026-04-18T11:55:47Z</time></trkpt><trkpt lat="42.53478452464029" lon="13.552409410978742"><ele>910.9999999999999</ele><time>2026-04-18T11:55:48Z</time></trkpt><trkpt lat="42.53483895241717" lon="13.552320324872898"><ele>910.9999999999999</ele><time>2026-04-18T11:55:49Z</time></trkpt><trkpt lat="42.534938691231666" lon="13.552320312063534"><ele>911.0</ele><time>2026-04-18T11:55:51Z</time></trkpt><trkpt lat="42.53492525671748" lon="13.552487042358191"><ele>911.0</ele><time>2026-04-18T11:55:53Z</time></trkpt><trkpt lat="42.534855485337076" lon="13.552557434811241"><ele>911.0</ele><time>2026-04-18T11:55:54Z</time></trkpt><trkpt lat="42.53477625900837" lon="13.552637165275856"><ele>911.0</ele><time>2026-04-18T11:55:55Z</time></trkpt><trkpt lat="42.53469818259519" lon="13.552748854462363"><ele>911.0</ele><time>2026-04-18T11:55:56Z</time></trkpt><trkpt lat="42.53463480261241" lon="13.552896441147869"><ele>911.0</ele><time>2026-04-18T11:55:57Z</time></trkpt><trkpt lat="42.53458453529495" lon="13.553068277206524"><ele>911.0</ele><time>2026-04-18T11:55:58Z</time></trkpt><trkpt lat="42.534537258273744" lon="13.553252925573624"><ele>911.0</ele><time>2026-04-18T11:55:59Z</time></trkpt><trkpt lat="42.53448296776124" lon="13.553442500243209"><ele>911.0</ele><time>2026-04-18T11:56:00Z</time></trkpt><trkpt lat="42.53442676566742" lon="13.553633163848692"><ele>911.0</ele><time>2026-04-18T11:56:01Z</time></trkpt><trkpt lat="42.534376457991016" lon="13.553827438756944"><ele>911.0</ele><time>2026-04-18T11:56:02Z</time></trkpt><trkpt lat="42.53432230688353" lon="13.554029304929822"><ele>911.0</ele><time>2026-04-18T11:56:03Z</time></trkpt><trkpt lat="42.534255033470636" lon="13.554226293194803"><ele>911.0</ele><time>2026-04-18T11:56:04Z</time></trkpt><trkpt lat="42.534165567293165" lon="13.554414151329377"><ele>919.0</ele><time>2026-04-18T11:56:05Z</time></trkpt><trkpt lat="42.53404199891596" lon="13.554574048695816"><ele>927.0</ele><time>2026-04-18T11:56:06Z</time></trkpt><trkpt lat="42.533902655463415" lon="13.55471958016346"><ele>935.0</ele><time>2026-04-18T11:56:07Z</time></trkpt><trkpt lat="42.53375670969029" lon="13.554846086245222"><ele>930.6666666666667</ele><time>2026-04-18T11:56:08Z</time></trkpt><trkpt lat="42.53359401251145" lon="13.554916696284335"><ele>926.3333333333333</ele><time>2026-04-18T11:56:09Z</time></trkpt><trkpt lat="42.53342395979873" lon="13.55494677470549"><ele>922.0</ele><time>2026-04-18T11:56:10Z</time></trkpt><trkpt lat="42.53325447135224" lon="13.554996407434597"><ele>922.0</ele><time>2026-04-18T11:56:11Z</time></trkpt><trkpt lat="42.53309628469874" lon="13.555113886127428"><ele>922.0</ele><time>2026-04-18T11:56:12Z</time></trkpt><trkpt lat="42.53294263847345" lon="13.555247134331406"><ele>922.0</ele><time>2026-04-18T11:56:13Z</time></trkpt><trkpt lat="42.53278910696364" lon="13.555388404655462"><ele>926.0</ele><time>2026-04-18T11:56:14Z</time></trkpt><trkpt lat="42.53264313486936" lon="13.555535625142376"><ele>930.0</ele><time>2026-04-18T11:56:15Z</time></trkpt><trkpt lat="42.5325138897104" lon="13.555715398218847"><ele>934.0</ele><time>2026-04-18T11:56:16Z</time></trkpt><trkpt lat="42.53240041774148" lon="13.555914030451738"><ele>934.0</ele><time>2026-04-18T11:56:17Z</time></trkpt><trkpt lat="42.53228982978404" lon="13.556117636139785"><ele>934.0</ele><time>2026-04-18T11:56:18Z</time></trkpt><trkpt lat="42.53217475007342" lon="13.556319073440388"><ele>934.0</ele><time>2026-04-18T11:56:19Z</time></trkpt><trkpt lat="42.53204358884099" lon="13.556506040744715"><ele>935.0</ele><time>2026-04-18T11:56:20Z</time></trkpt><trkpt lat="42.53188623796576" lon="13.556649639026523"><ele>936.0</ele><time>2026-04-18T11:56:21Z</time></trkpt><trkpt lat="42.531715056578115" lon="13.55676383337537"><ele>937.0</ele><time>2026-04-18T11:56:22Z</time></trkpt><trkpt lat="42.531538920514684" lon="13.55686969305556"><ele>937.0</ele><time>2026-04-18T11:56:23Z</time></trkpt><trkpt lat="42.53136218049886" lon="13.55695944120994"><ele>937.0</ele><time>2026-04-18T11:56:23.999Z</time></trkpt><trkpt lat="42.53117552885034" lon="13.557018213310808"><ele>937.0</ele><time>2026-04-18T11:56:24.999Z</time></trkpt><trkpt lat="42.53098963827262" lon="13.55706818166759"><ele>944.6666666666666</ele><time>2026-04-18T11:56:25.999Z</time></trkpt><trkpt lat="42.530816840204345" lon="13.557144797207304"><ele>952.3333333333333</ele><time>2026-04-18T11:56:26.999Z</time></trkpt><trkpt lat="42.53067767089616" lon="13.557277970938271"><ele>960.0</ele><time>2026-04-18T11:56:27.999Z</time></trkpt><trkpt lat="42.53056545686289" lon="13.557453317635366"><ele>960.0</ele><time>2026-04-18T11:56:28.999Z</time></trkpt><trkpt lat="42.530480455168856" lon="13.55764309613015"><ele>960.0</ele><time>2026-04-18T11:56:29.999Z</time></trkpt><trkpt lat="42.53038651195537" lon="13.557815288913512"><ele>960.0</ele><time>2026-04-18T11:56:30.999Z</time></trkpt><trkpt lat="42.530257634927146" lon="13.557966470674398"><ele>965.3333333333333</ele><time>2026-04-18T11:56:31.999Z</time></trkpt><trkpt lat="42.53011061999318" lon="13.558040969847521"><ele>970.6666666666666</ele><time>2026-04-18T11:56:32.999Z</time></trkpt><trkpt lat="42.52995652944443" lon="13.558051854127159"><ele>976.0</ele><time>2026-04-18T11:56:33.999Z</time></trkpt><trkpt lat="42.52979659088809" lon="13.558040779162766"><ele>976.0</ele><time>2026-04-18T11:56:34.999Z</time></trkpt><trkpt lat="42.52963204096934" lon="13.558033223199173"><ele>976.0</ele><time>2026-04-18T11:56:35.999Z</time></trkpt><trkpt lat="42.52946814428654" lon="13.558031783789154"><ele>976.0</ele><time>2026-04-18T11:56:36.999Z</time></trkpt><trkpt lat="42.52931686502858" lon="13.558028422749386"><ele>975.25</ele><time>2026-04-18T11:56:37.999Z</time></trkpt><trkpt lat="42.52918512153953" lon="13.558027097169479"><ele>974.5</ele><time>2026-04-18T11:56:38.999Z</time></trkpt><trkpt lat="42.52906977864643" lon="13.55803178374584"><ele>973.75</ele><time>2026-04-18T11:56:39.999Z</time></trkpt><trkpt lat="42.528963330461295" lon="13.558039237776235"><ele>973.0</ele><time>2026-04-18T11:56:40.999Z</time></trkpt><trkpt lat="42.52885836174004" lon="13.558042860006877"><ele>972.9999999999999</ele><time>2026-04-18T11:56:41.999Z</time></trkpt><trkpt lat="42.52875605460543" lon="13.558042732639963"><ele>973.0</ele><time>2026-04-18T11:56:42.999Z</time></trkpt><trkpt lat="42.52867069011007" lon="13.558044200778616"><ele>973.0</ele><time>2026-04-18T11:56:43.999Z</time></trkpt><trkpt lat="42.52859608046672" lon="13.558043827562825"><ele>973.0</ele><time>2026-04-18T11:56:44.999Z</time></trkpt><trkpt lat="42.52849573454768" lon="13.55802200903297"><ele>972.9999999999999</ele><time>2026-04-18T11:56:46.999Z</time></trkpt><trkpt lat="42.52844248782942" lon="13.557961651941339"><ele>973.0</ele><time>2026-04-18T11:56:50.999Z</time></trkpt><trkpt lat="42.52837089907355" lon="13.558125040406082"><ele>974.4999999999999</ele><time>2026-04-18T11:56:52.999Z</time></trkpt><trkpt lat="42.52836161815296" lon="13.558212943344838"><ele>976.0</ele><time>2026-04-18T11:56:53.999Z</time></trkpt><trkpt lat="42.528340837886994" lon="13.558298355633303"><ele>977.5</ele><time>2026-04-18T11:56:54.999Z</time></trkpt><trkpt lat="42.5283072694705" lon="13.558384890742566"><ele>979.0</ele><time>2026-04-18T11:56:55.999Z</time></trkpt><trkpt lat="42.52825179510857" lon="13.558468731865387"><ele>980.4999999999999</ele><time>2026-04-18T11:56:56.999Z</time></trkpt><trkpt lat="42.52818589571426" lon="13.55855020564889"><ele>982.0</ele><time>2026-04-18T11:56:57.999Z</time></trkpt><trkpt lat="42.528115065974546" lon="13.558652582578741"><ele>982.0</ele><time>2026-04-18T11:56:58.999Z</time></trkpt><trkpt lat="42.52804117151319" lon="13.558765118021405"><ele>982.0</ele><time>2026-04-18T11:56:59.999Z</time></trkpt><trkpt lat="42.52796407235576" lon="13.558885302266047"><ele>982.0</ele><time>2026-04-18T11:57:00.999Z</time></trkpt><trkpt lat="42.527901179724466" lon="13.559016802191406"><ele>982.0</ele><time>2026-04-18T11:57:01.997Z</time></trkpt><trkpt lat="42.5278651779904" lon="13.559158304810104"><ele>985.6</ele><time>2026-04-18T11:57:02.997Z</time></trkpt><trkpt lat="42.527852733809155" lon="13.559302015187836"><ele>989.2</ele><time>2026-04-18T11:57:03.997Z</time></trkpt><trkpt lat="42.52787979649814" lon="13.559435496349769"><ele>992.8</ele><time>2026-04-18T11:57:04.997Z</time></trkpt><trkpt lat="42.52794227148254" lon="13.559546774146868"><ele>996.4</ele><time>2026-04-18T11:57:05.997Z</time></trkpt><trkpt lat="42.528029893579486" lon="13.559639218418521"><ele>1000.0</ele><time>2026-04-18T11:57:06.997Z</time></trkpt><trkpt lat="42.52814002854222" lon="13.559701362965072"><ele>1000.0</ele><time>2026-04-18T11:57:07.997Z</time></trkpt><trkpt lat="42.52826406456528" lon="13.559741153062824"><ele>1000.0</ele><time>2026-04-18T11:57:08.997Z</time></trkpt><trkpt lat="42.52839469113195" lon="13.559757875147003"><ele>1000.0</ele><time>2026-04-18T11:57:09.997Z</time></trkpt><trkpt lat="42.52853176704886" lon="13.559755298541448"><ele>1000.0</ele><time>2026-04-18T11:57:10.997Z</time></trkpt><trkpt lat="42.52867233103594" lon="13.559725866446236"><ele>1003.3333333333333</ele><time>2026-04-18T11:57:11.997Z</time></trkpt><trkpt lat="42.5288116018312" lon="13.559678305040178"><ele>1006.6666666666667</ele><time>2026-04-18T11:57:12.997Z</time></trkpt><trkpt lat="42.52895660321767" lon="13.559629631791044"><ele>1010.0</ele><time>2026-04-18T11:57:13.997Z</time></trkpt><trkpt lat="42.52910809224067" lon="13.55957277651671"><ele>1002.3333333333334</ele><time>2026-04-18T11:57:14.997Z</time></trkpt><trkpt lat="42.529255114030114" lon="13.559495584235382"><ele>994.6666666666667</ele><time>2026-04-18T11:57:15.997Z</time></trkpt><trkpt lat="42.529390676364585" lon="13.55938983635285"><ele>987.0</ele><time>2026-04-18T11:57:16.997Z</time></trkpt><trkpt lat="42.529523430382405" lon="13.559286202046872"><ele>991.0</ele><time>2026-04-18T11:57:17.997Z</time></trkpt><trkpt lat="42.52966226583482" lon="13.559198963919128"><ele>995.0</ele><time>2026-04-18T11:57:18.997Z</time></trkpt><trkpt lat="42.52980014642093" lon="13.559149444575262"><ele>999.0</ele><time>2026-04-18T11:57:19.997Z</time></trkpt><trkpt lat="42.52993317431804" lon="13.559123120780907"><ele>1003.0</ele><time>2026-04-18T11:57:20.997Z</time></trkpt><trkpt lat="42.53006520766157" lon="13.55910428051019"><ele>1003.0</ele><time>2026-04-18T11:57:21.997Z</time></trkpt><trkpt lat="42.530187043855555" lon="13.55909653823379"><ele>1003.0</ele><time>2026-04-18T11:57:22.997Z</time></trkpt><trkpt lat="42.530297811239606" lon="13.55910902051221"><ele>1003.0</ele><time>2026-04-18T11:57:23.997Z</time></trkpt><trkpt lat="42.53039388894674" lon="13.559155022647792"><ele>1003.0</ele><time>2026-04-18T11:57:24.997Z</time></trkpt><trkpt lat="42.53045069654628" lon="13.55924983863069"><ele>1003.0</ele><time>2026-04-18T11:57:25.997Z</time></trkpt><trkpt lat="42.53047033469445" lon="13.559361657122553"><ele>1005.0</ele><time>2026-04-18T11:57:26.997Z</time></trkpt><trkpt lat="42.530447100238675" lon="13.559468596616744"><ele>1007.0</ele><time>2026-04-18T11:57:27.997Z</time></trkpt><trkpt lat="42.53038474361701" lon="13.559558634332559"><ele>1009.0</ele><time>2026-04-18T11:57:28.997Z</time></trkpt><trkpt lat="42.530296363797966" lon="13.559626430052182"><ele>1011.0</ele><time>2026-04-18T11:57:29.997Z</time></trkpt><trkpt lat="42.5301874308916" lon="13.559675928682063"><ele>1013.0</ele><time>2026-04-18T11:57:30.997Z</time></trkpt><trkpt lat="42.53007371866987" lon="13.559726217005588"><ele>1015.5</ele><time>2026-04-18T11:57:31.997Z</time></trkpt><trkpt lat="42.52995928381501" lon="13.559792503899525"><ele>1018.0</ele><time>2026-04-18T11:57:32.997Z</time></trkpt><trkpt lat="42.52984566543317" lon="13.559867380007992"><ele>1020.5</ele><time>2026-04-18T11:57:33.997Z</time></trkpt><trkpt lat="42.52972442732657" lon="13.559959035693302"><ele>1023.0</ele><time>2026-04-18T11:57:34.997Z</time></trkpt><trkpt lat="42.52960642109191" lon="13.560064523320651"><ele>1025.0</ele><time>2026-04-18T11:57:35.997Z</time></trkpt><trkpt lat="42.529491520250446" lon="13.560200144393143"><ele>1027.0</ele><time>2026-04-18T11:57:36.997Z</time></trkpt><trkpt lat="42.52937540123879" lon="13.560348632651678"><ele>1029.0</ele><time>2026-04-18T11:57:37.997Z</time></trkpt><trkpt lat="42.52925924282774" lon="13.560497451917572"><ele>1029.0</ele><time>2026-04-18T11:57:38.997Z</time></trkpt><trkpt lat="42.52913993547989" lon="13.560653447958682"><ele>1029.0</ele><time>2026-04-18T11:57:39.996Z</time></trkpt><trkpt lat="42.529019603190335" lon="13.560814642743688"><ele>1029.0</ele><time>2026-04-18T11:57:40.996Z</time></trkpt><trkpt lat="42.5289035077744" lon="13.560979355655697"><ele>1029.0</ele><time>2026-04-18T11:57:41.999Z</time></trkpt><trkpt lat="42.52879111474916" lon="13.561149745331189"><ele>1029.0</ele><time>2026-04-18T11:57:42.999Z</time></trkpt><trkpt lat="42.52868444073908" lon="13.561317102283784"><ele>1029.0</ele><time>2026-04-18T11:57:43.999Z</time></trkpt><trkpt lat="42.52856188714824" lon="13.561478444315892"><ele>1031.6666666666667</ele><time>2026-04-18T11:57:44.999Z</time></trkpt><trkpt lat="42.52842396677718" lon="13.561604547104274"><ele>1034.3333333333335</ele><time>2026-04-18T11:57:45.999Z</time></trkpt><trkpt lat="42.52827028349321" lon="13.561679169576008"><ele>1037.0</ele><time>2026-04-18T11:57:46.999Z</time></trkpt><trkpt lat="42.52810444483855" lon="13.561724224682782"><ele>1037.0</ele><time>2026-04-18T11:57:47.999Z</time></trkpt><trkpt lat="42.52793954084038" lon="13.561761198810098"><ele>1037.0</ele><time>2026-04-18T11:57:48.999Z</time></trkpt><trkpt lat="42.52777473331632" lon="13.561799975069777"><ele>1037.0</ele><time>2026-04-18T11:57:49.999Z</time></trkpt><trkpt lat="42.52760693464437" lon="13.561843039773363"><ele>1037.0</ele><time>2026-04-18T11:57:50.999Z</time></trkpt><trkpt lat="42.527440989518055" lon="13.561884273589246"><ele>1037.0</ele><time>2026-04-18T11:57:51.999Z</time></trkpt><trkpt lat="42.52727157949378" lon="13.561924632748072"><ele>1037.0</ele><time>2026-04-18T11:57:52.999Z</time></trkpt><trkpt lat="42.52710288907202" lon="13.561962028765953"><ele>1037.6666666666667</ele><time>2026-04-18T11:57:53.999Z</time></trkpt><trkpt lat="42.52693419258888" lon="13.561994288845453"><ele>1038.3333333333333</ele><time>2026-04-18T11:57:55Z</time></trkpt><trkpt lat="42.526764687693564" lon="13.56202297197179"><ele>1039.0</ele><time>2026-04-18T11:57:55.999Z</time></trkpt><trkpt lat="42.526594694907246" lon="13.562036281196653"><ele>1039.0</ele><time>2026-04-18T11:57:56.999Z</time></trkpt><trkpt lat="42.52643004708632" lon="13.562026892464019"><ele>1039.0</ele><time>2026-04-18T11:57:57.999Z</time></trkpt><trkpt lat="42.5262681815295" lon="13.562011089016549"><ele>1039.0</ele><time>2026-04-18T11:57:58.999Z</time></trkpt><trkpt lat="42.526102905075334" lon="13.562002244975547"><ele>1044.6666666666665</ele><time>2026-04-18T11:57:59.999Z</time></trkpt><trkpt lat="42.52593713834134" lon="13.561996685432474"><ele>1050.3333333333333</ele><time>2026-04-18T11:58:00.999Z</time></trkpt><trkpt lat="42.52577225206927" lon="13.561988579567974"><ele>1056.0</ele><time>2026-04-18T11:58:01.999Z</time></trkpt><trkpt lat="42.52560940319332" lon="13.56197234065722"><ele>1056.0</ele><time>2026-04-18T11:58:02.999Z</time></trkpt><trkpt lat="42.52545386163663" lon="13.561929394829008"><ele>1056.0</ele><time>2026-04-18T11:58:03.999Z</time></trkpt><trkpt lat="42.525339037560286" lon="13.561802167973106"><ele>1056.0</ele><time>2026-04-18T11:58:04.999Z</time></trkpt><trkpt lat="42.52523111749362" lon="13.561659682765574"><ele>1062.0</ele><time>2026-04-18T11:58:05.999Z</time></trkpt><trkpt lat="42.52510538930944" lon="13.561532367401854"><ele>1068.0</ele><time>2026-04-18T11:58:06.999Z</time></trkpt><trkpt lat="42.5249730083392" lon="13.561418010861026"><ele>1074.0</ele><time>2026-04-18T11:58:07.999Z</time></trkpt><trkpt lat="42.52483188559252" lon="13.561319128554514"><ele>1074.0</ele><time>2026-04-18T11:58:08.999Z</time></trkpt><trkpt lat="42.52468316492818" lon="13.561250545709267"><ele>1074.0</ele><time>2026-04-18T11:58:09.999Z</time></trkpt><trkpt lat="42.52453901296826" lon="13.561234839614075"><ele>1074.0</ele><time>2026-04-18T11:58:10.999Z</time></trkpt><trkpt lat="42.524409053549455" lon="13.561252125106142"><ele>1074.0</ele><time>2026-04-18T11:58:11.999Z</time></trkpt><trkpt lat="42.52429661873431" lon="13.56127018962292"><ele>1077.4</ele><time>2026-04-18T11:58:12.999Z</time></trkpt><trkpt lat="42.52420862091603" lon="13.56127056768614"><ele>1080.8000000000002</ele><time>2026-04-18T11:58:13.999Z</time></trkpt><trkpt lat="42.52410704254473" lon="13.561274262346242"><ele>1084.1999999999998</ele><time>2026-04-18T11:58:15.999Z</time></trkpt><trkpt lat="42.52411267478806" lon="13.56143689642647"><ele>1087.6</ele><time>2026-04-18T11:58:17.999Z</time></trkpt><trkpt lat="42.52415397134296" lon="13.561513243097014"><ele>1091.0</ele><time>2026-04-18T11:58:18.999Z</time></trkpt><trkpt lat="42.52421968899391" lon="13.561584901225295"><ele>1091.0</ele><time>2026-04-18T11:58:19.999Z</time></trkpt><trkpt lat="42.524299673961956" lon="13.561661541105472"><ele>1091.0</ele><time>2026-04-18T11:58:20.999Z</time></trkpt><trkpt lat="42.52437825910805" lon="13.561766236600683"><ele>1091.0</ele><time>2026-04-18T11:58:21.999Z</time></trkpt><trkpt lat="42.524442098128" lon="13.561879568342885"><ele>1091.0</ele><time>2026-04-18T11:58:22.999Z</time></trkpt><trkpt lat="42.524485098504144" lon="13.562019274247035"><ele>1091.0</ele><time>2026-04-18T11:58:23.999Z</time></trkpt><trkpt lat="42.524501462807095" lon="13.562176319058636"><ele>1090.0</ele><time>2026-04-18T11:58:24.999Z</time></trkpt><trkpt lat="42.52450075761528" lon="13.562342028660833"><ele>1089.0</ele><time>2026-04-18T11:58:25.999Z</time></trkpt><trkpt lat="42.52450770627171" lon="13.562520166005836"><ele>1088.0</ele><time>2026-04-18T11:58:26.999Z</time></trkpt><trkpt lat="42.524539551841556" lon="13.562694337299252"><ele>1087.0</ele><time>2026-04-18T11:58:27.999Z</time></trkpt><trkpt lat="42.52460994123396" lon="13.562845981106316"><ele>1093.25</ele><time>2026-04-18T11:58:28.999Z</time></trkpt><trkpt lat="42.52471759126669" lon="13.562946130778204"><ele>1099.5</ele><time>2026-04-18T11:58:29.999Z</time></trkpt><trkpt lat="42.52484489820884" lon="13.562995971583236"><ele>1105.75</ele><time>2026-04-18T11:58:30.999Z</time></trkpt><trkpt lat="42.5249811727398" lon="13.563023131576278"><ele>1112.0</ele><time>2026-04-18T11:58:31.999Z</time></trkpt><trkpt lat="42.52512103676608" lon="13.563056343921767"><ele>1112.0</ele><time>2026-04-18T11:58:32.999Z</time></trkpt><trkpt lat="42.525264473377604" lon="13.563095971680482"><ele>1112.0</ele><time>2026-04-18T11:58:33.999Z</time></trkpt><trkpt lat="42.52540499301761" lon="13.563141160262141"><ele>1112.0</ele><time>2026-04-18T11:58:34.998Z</time></trkpt><trkpt lat="42.525546276622855" lon="13.563200186961115"><ele>1112.0</ele><time>2026-04-18T11:58:35.998Z</time></trkpt><trkpt lat="42.525684903019645" lon="13.563273010679806"><ele>1111.4</ele><time>2026-04-18T11:58:36.998Z</time></trkpt><trkpt lat="42.52581333701871" lon="13.563352631506294"><ele>1110.8000000000002</ele><time>2026-04-18T11:58:37.998Z</time></trkpt><trkpt lat="42.525917911904095" lon="13.563429539363533"><ele>1110.2</ele><time>2026-04-18T11:58:38.998Z</time></trkpt><trkpt lat="42.525984190503856" lon="13.563500312820745"><ele>1109.6000000000001</ele><time>2026-04-18T11:58:39.998Z</time></trkpt><trkpt lat="42.52601522295682" lon="13.563577338584393"><ele>1109.0</ele><time>2026-04-18T11:58:40.998Z</time></trkpt><trkpt lat="42.52596687019117" lon="13.563718713050907"><ele>1109.0</ele><time>2026-04-18T11:58:42.998Z</time></trkpt><trkpt lat="42.52589368988904" lon="13.563736999985151"><ele>1109.0</ele><time>2026-04-18T11:58:43.998Z</time></trkpt><trkpt lat="42.52581815639992" lon="13.56366925276253"><ele>1109.0</ele><time>2026-04-18T11:58:44.998Z</time></trkpt><trkpt lat="42.525721571423276" lon="13.563630397047273"><ele>1109.0</ele><time>2026-04-18T11:58:45.998Z</time></trkpt><trkpt lat="42.52562329218539" lon="13.563575085178712"><ele>1109.0</ele><time>2026-04-18T11:58:46.998Z</time></trkpt><trkpt lat="42.52550569074089" lon="13.563519276074636"><ele>1109.75</ele><time>2026-04-18T11:58:47.998Z</time></trkpt><trkpt lat="42.52537889372912" lon="13.563490891915428"><ele>1110.5</ele><time>2026-04-18T11:58:48.998Z</time></trkpt><trkpt lat="42.525249587431446" lon="13.563504573841337"><ele>1111.25</ele><time>2026-04-18T11:58:49.998Z</time></trkpt><trkpt lat="42.52511656032427" lon="13.563544322167806"><ele>1112.0</ele><time>2026-04-18T11:58:50.998Z</time></trkpt><trkpt lat="42.524979752005564" lon="13.563593162878881"><ele>1112.0</ele><time>2026-04-18T11:58:51.998Z</time></trkpt><trkpt lat="42.524841439890736" lon="13.563643338135948"><ele>1112.0</ele><time>2026-04-18T11:58:52.998Z</time></trkpt><trkpt lat="42.52469304624335" lon="13.563693595270784"><ele>1112.0</ele><time>2026-04-18T11:58:53.998Z</time></trkpt><trkpt lat="42.5245456441713" lon="13.563746918144188"><ele>1112.0</ele><time>2026-04-18T11:58:54.998Z</time></trkpt><trkpt lat="42.52439465520387" lon="13.56380065056193"><ele>1121.3333333333335</ele><time>2026-04-18T11:58:55.998Z</time></trkpt><trkpt lat="42.524242128968424" lon="13.563853655828634"><ele>1130.6666666666667</ele><time>2026-04-18T11:58:56.998Z</time></trkpt><trkpt lat="42.52408763369807" lon="13.563906038117453"><ele>1140.0</ele><time>2026-04-18T11:58:57.998Z</time></trkpt><trkpt lat="42.52393557598798" lon="13.563957306164493"><ele>1140.0</ele><time>2026-04-18T11:58:58.998Z</time></trkpt><trkpt lat="42.523788597374775" lon="13.56400383515149"><ele>1140.0</ele><time>2026-04-18T11:58:59.998Z</time></trkpt><trkpt lat="42.52365004921048" lon="13.564035967239775"><ele>1140.0</ele><time>2026-04-18T11:59:00.998Z</time></trkpt><trkpt lat="42.52351905347742" lon="13.564038503329382"><ele>1140.0</ele><time>2026-04-18T11:59:01.998Z</time></trkpt><trkpt lat="42.52339670725133" lon="13.563982700354027"><ele>1141.75</ele><time>2026-04-18T11:59:02.998Z</time></trkpt><trkpt lat="42.52329077683251" lon="13.563891185039168"><ele>1143.5</ele><time>2026-04-18T11:59:03.998Z</time></trkpt><trkpt lat="42.523183271096684" lon="13.563790564764313"><ele>1145.25</ele><time>2026-04-18T11:59:04.998Z</time></trkpt><trkpt lat="42.52307424342713" lon="13.563690825301478"><ele>1147.0</ele><time>2026-04-18T11:59:05.998Z</time></trkpt><trkpt lat="42.52296091188773" lon="13.563611733376364"><ele>1147.8</ele><time>2026-04-18T11:59:06.998Z</time></trkpt><trkpt lat="42.522878923385164" lon="13.56350724224089"><ele>1148.6</ele><time>2026-04-18T11:59:07.998Z</time></trkpt><trkpt lat="42.52280292281644" lon="13.563452955368144"><ele>1149.3999999999999</ele><time>2026-04-18T11:59:08.998Z</time></trkpt><trkpt lat="42.52272844152209" lon="13.563459744122493"><ele>1150.2</ele><time>2026-04-18T11:59:09.998Z</time></trkpt><trkpt lat="42.52264999678835" lon="13.563566930635895"><ele>1151.0</ele><time>2026-04-18T11:59:11.998Z</time></trkpt><trkpt lat="42.522646816216074" lon="13.56366533361348"><ele>1150.2</ele><time>2026-04-18T11:59:12.997Z</time></trkpt><trkpt lat="42.52267545465542" lon="13.563763777080712"><ele>1149.3999999999999</ele><time>2026-04-18T11:59:13.997Z</time></trkpt><trkpt lat="42.52273521460962" lon="13.563859288738431"><ele>1148.6</ele><time>2026-04-18T11:59:14.997Z</time></trkpt><trkpt lat="42.5228103033778" lon="13.563948502515034"><ele>1147.8</ele><time>2026-04-18T11:59:15.997Z</time></trkpt><trkpt lat="42.52290138900837" lon="13.564044799234034"><ele>1147.0</ele><time>2026-04-18T11:59:16.997Z</time></trkpt><trkpt lat="42.52299554616614" lon="13.564154154492556"><ele>1147.0</ele><time>2026-04-18T11:59:17.997Z</time></trkpt><trkpt lat="42.523094272122" lon="13.56427234408689"><ele>1147.0</ele><time>2026-04-18T11:59:18.997Z</time></trkpt><trkpt lat="42.52319758896005" lon="13.564391840421544"><ele>1147.0</ele><time>2026-04-18T11:59:19.997Z</time></trkpt><trkpt lat="42.52331036567372" lon="13.56449615713392"><ele>1147.0</ele><time>2026-04-18T11:59:20.997Z</time></trkpt><trkpt lat="42.52344124427016" lon="13.564568199981286"><ele>1149.75</ele><time>2026-04-18T11:59:21.997Z</time></trkpt><trkpt lat="42.52358365061936" lon="13.564617735067594"><ele>1152.5</ele><time>2026-04-18T11:59:22.997Z</time></trkpt><trkpt lat="42.52372871252899" lon="13.564663884468768"><ele>1155.25</ele><time>2026-04-18T11:59:23.997Z</time></trkpt><trkpt lat="42.52386958369307" lon="13.564711088655075"><ele>1158.0</ele><time>2026-04-18T11:59:24.997Z</time></trkpt><trkpt lat="42.52401220619684" lon="13.564749660700542"><ele>1158.0</ele><time>2026-04-18T11:59:25.997Z</time></trkpt><trkpt lat="42.52414974650988" lon="13.564760731795442"><ele>1158.0</ele><time>2026-04-18T11:59:26.997Z</time></trkpt><trkpt lat="42.52426645304435" lon="13.564744829140395"><ele>1158.0</ele><time>2026-04-18T11:59:27.997Z</time></trkpt><trkpt lat="42.524366068391124" lon="13.564733531049175"><ele>1158.0</ele><time>2026-04-18T11:59:28.997Z</time></trkpt><trkpt lat="42.52444494559019" lon="13.564737923325977"><ele>1158.0</ele><time>2026-04-18T11:59:29.997Z</time></trkpt><trkpt lat="42.52450673845124" lon="13.564778153134862"><ele>1158.0</ele><time>2026-04-18T11:59:30.997Z</time></trkpt><trkpt lat="42.524537250708235" lon="13.564854593147594"><ele>1158.0</ele><time>2026-04-18T11:59:31.997Z</time></trkpt><trkpt lat="42.524517877184174" lon="13.564952675768316"><ele>1158.0</ele><time>2026-04-18T11:59:32.997Z</time></trkpt><trkpt lat="42.52445404904827" lon="13.565024832464632"><ele>1158.0</ele><time>2026-04-18T11:59:33.997Z</time></trkpt><trkpt lat="42.52437050124676" lon="13.565063643574648"><ele>1158.0</ele><time>2026-04-18T11:59:34.997Z</time></trkpt><trkpt lat="42.52426382490199" lon="13.5650798431881"><ele>1158.0</ele><time>2026-04-18T11:59:35.997Z</time></trkpt><trkpt lat="42.524145406980644" lon="13.565102282450887"><ele>1158.0</ele><time>2026-04-18T11:59:36.997Z</time></trkpt><trkpt lat="42.52401521387809" lon="13.56511912836971"><ele>1158.0</ele><time>2026-04-18T11:59:37.997Z</time></trkpt><trkpt lat="42.523876281298804" lon="13.565122738655523"><ele>1158.0</ele><time>2026-04-18T11:59:38.997Z</time></trkpt><trkpt lat="42.52372938979913" lon="13.565126540859364"><ele>1158.0</ele><time>2026-04-18T11:59:39.997Z</time></trkpt><trkpt lat="42.52358088474182" lon="13.565128563642793"><ele>1161.0</ele><time>2026-04-18T11:59:40.997Z</time></trkpt><trkpt lat="42.52342838522936" lon="13.565124775966245"><ele>1164.0</ele><time>2026-04-18T11:59:41.997Z</time></trkpt><trkpt lat="42.52327249053482" lon="13.565125589071831"><ele>1167.0</ele><time>2026-04-18T11:59:42.997Z</time></trkpt><trkpt lat="42.523118447954246" lon="13.56512381858216"><ele>1167.0</ele><time>2026-04-18T11:59:43.997Z</time></trkpt><trkpt lat="42.52297008409568" lon="13.565097305889001"><ele>1167.0</ele><time>2026-04-18T11:59:44.997Z</time></trkpt><trkpt lat="42.522837604151036" lon="13.565017600494267"><ele>1167.0</ele><time>2026-04-18T11:59:45.997Z</time></trkpt><trkpt lat="42.522706931528155" lon="13.564942101980385"><ele>1167.0</ele><time>2026-04-18T11:59:46.997Z</time></trkpt><trkpt lat="42.52257573206606" lon="13.564868985027882"><ele>1171.75</ele><time>2026-04-18T11:59:48Z</time></trkpt><trkpt lat="42.522439120500806" lon="13.564818716933297"><ele>1176.5</ele><time>2026-04-18T11:59:49Z</time></trkpt><trkpt lat="42.52229883274956" lon="13.56478797679531"><ele>1181.25</ele><time>2026-04-18T11:59:50Z</time></trkpt><trkpt lat="42.52215612004548" lon="13.564759200108364"><ele>1186.0</ele><time>2026-04-18T11:59:51Z</time></trkpt><trkpt lat="42.52202041464624" lon="13.564727494175687"><ele>1186.0</ele><time>2026-04-18T11:59:52Z</time></trkpt><trkpt lat="42.52189708107045" lon="13.564698251117765"><ele>1186.0</ele><time>2026-04-18T11:59:53Z</time></trkpt><trkpt lat="42.52182344394827" lon="13.564584985774935"><ele>1186.0</ele><time>2026-04-18T11:59:54Z</time></trkpt><trkpt lat="42.52177237642297" lon="13.564473119649254"><ele>1186.0</ele><time>2026-04-18T11:59:55Z</time></trkpt><trkpt lat="42.52175380554988" lon="13.564335000939236"><ele>1186.0</ele><time>2026-04-18T11:59:56Z</time></trkpt><trkpt lat="42.52172288729623" lon="13.564195109824947"><ele>1186.0</ele><time>2026-04-18T11:59:57Z</time></trkpt><trkpt lat="42.521677732675975" lon="13.564091724454423"><ele>1186.0</ele><time>2026-04-18T11:59:58Z</time></trkpt><trkpt lat="42.52159582542228" lon="13.564038544641514"><ele>1186.0</ele><time>2026-04-18T11:59:59Z</time></trkpt><trkpt lat="42.52150750833973" lon="13.564058473843684"><ele>1186.0</ele><time>2026-04-18T12:00:00Z</time></trkpt><trkpt lat="42.52147030306529" lon="13.564181063306226"><ele>1186.0</ele><time>2026-04-18T12:00:01Z</time></trkpt><trkpt lat="42.52147454591105" lon="13.56429370981192"><ele>1186.0</ele><time>2026-04-18T12:00:02Z</time></trkpt><trkpt lat="42.52152441198206" lon="13.564421790410638"><ele>1186.0</ele><time>2026-04-18T12:00:03Z</time></trkpt><trkpt lat="42.52159462697491" lon="13.564556501435737"><ele>1186.0</ele><time>2026-04-18T12:00:04Z</time></trkpt><trkpt lat="42.52168204057128" lon="13.564703809565197"><ele>1186.0</ele><time>2026-04-18T12:00:05Z</time></trkpt><trkpt lat="42.521777617036044" lon="13.564846786002331"><ele>1186.0</ele><time>2026-04-18T12:00:06Z</time></trkpt><trkpt lat="42.52190343365266" lon="13.564957104789183"><ele>1186.0</ele><time>2026-04-18T12:00:07Z</time></trkpt><trkpt lat="42.522047592278945" lon="13.565030327590858"><ele>1186.0</ele><time>2026-04-18T12:00:07.999Z</time></trkpt><trkpt lat="42.52218315374149" lon="13.565118703074598"><ele>1186.0</ele><time>2026-04-18T12:00:08.999Z</time></trkpt><trkpt lat="42.5223124169761" lon="13.565232870211025"><ele>1186.0</ele><time>2026-04-18T12:00:09.999Z</time></trkpt><trkpt lat="42.522438310038005" lon="13.565362895201346"><ele>1186.0</ele><time>2026-04-18T12:00:10.999Z</time></trkpt><trkpt lat="42.52256430230737" lon="13.565489505565578"><ele>1190.3999999999999</ele><time>2026-04-18T12:00:11.999Z</time></trkpt><trkpt lat="42.52267501313599" lon="13.565598624446498"><ele>1194.8</ele><time>2026-04-18T12:00:12.999Z</time></trkpt><trkpt lat="42.52276175419253" lon="13.56569350343085"><ele>1199.1999999999998</ele><time>2026-04-18T12:00:13.999Z</time></trkpt><trkpt lat="42.522818244466976" lon="13.565799991908008"><ele>1203.6</ele><time>2026-04-18T12:00:14.999Z</time></trkpt><trkpt lat="42.5228395088243" lon="13.565919207155067"><ele>1208.0</ele><time>2026-04-18T12:00:15.999Z</time></trkpt><trkpt lat="42.522819625232486" lon="13.566013562591099"><ele>1208.0</ele><time>2026-04-18T12:00:16.999Z</time></trkpt><trkpt lat="42.52277272218843" lon="13.566078881121848"><ele>1208.0</ele><time>2026-04-18T12:00:17.999Z</time></trkpt><trkpt lat="42.522682868865736" lon="13.566090753429338"><ele>1208.0</ele><time>2026-04-18T12:00:18.999Z</time></trkpt><trkpt lat="42.52258163945691" lon="13.566124868588197"><ele>1208.0</ele><time>2026-04-18T12:00:19.999Z</time></trkpt><trkpt lat="42.52246549989363" lon="13.5661747549863"><ele>1208.0</ele><time>2026-04-18T12:00:20.999Z</time></trkpt><trkpt lat="42.52235117256536" lon="13.566270161771035"><ele>1209.0</ele><time>2026-04-18T12:00:21.999Z</time></trkpt><trkpt lat="42.52224151396841" lon="13.566373813953804"><ele>1210.0</ele><time>2026-04-18T12:00:22.999Z</time></trkpt><trkpt lat="42.522135180106424" lon="13.566468421952274"><ele>1211.0</ele><time>2026-04-18T12:00:23.999Z</time></trkpt><trkpt lat="42.52201354049625" lon="13.56651976930117"><ele>1212.0</ele><time>2026-04-18T12:00:24.999Z</time></trkpt><trkpt lat="42.52187508047816" lon="13.566519646799357"><ele>1212.0</ele><time>2026-04-18T12:00:25.999Z</time></trkpt><trkpt lat="42.521733881941884" lon="13.566473286714924"><ele>1212.0</ele><time>2026-04-18T12:00:26.999Z</time></trkpt><trkpt lat="42.52159976521043" lon="13.566434869027471"><ele>1212.0</ele><time>2026-04-18T12:00:27.999Z</time></trkpt><trkpt lat="42.52148303426514" lon="13.566340009959937"><ele>1212.0</ele><time>2026-04-18T12:00:28.999Z</time></trkpt><trkpt lat="42.52138431424586" lon="13.5662052817182"><ele>1214.5</ele><time>2026-04-18T12:00:29.999Z</time></trkpt><trkpt lat="42.521308195627384" lon="13.566039014296477"><ele>1217.0</ele><time>2026-04-18T12:00:30.999Z</time></trkpt><trkpt lat="42.521221555994444" lon="13.565886550444144"><ele>1219.5</ele><time>2026-04-18T12:00:31.999Z</time></trkpt><trkpt lat="42.52111970330637" lon="13.56573991560955"><ele>1222.0</ele><time>2026-04-18T12:00:32.999Z</time></trkpt><trkpt lat="42.52102953753998" lon="13.565575244664897"><ele>1222.75</ele><time>2026-04-18T12:00:33.999Z</time></trkpt><trkpt lat="42.52094460431407" lon="13.565416024497909"><ele>1223.5</ele><time>2026-04-18T12:00:34.999Z</time></trkpt><trkpt lat="42.52087892194644" lon="13.565278676911491"><ele>1224.25</ele><time>2026-04-18T12:00:35.999Z</time></trkpt><trkpt lat="42.52081461495755" lon="13.565165635751864"><ele>1225.0</ele><time>2026-04-18T12:00:36.999Z</time></trkpt><trkpt lat="42.520756869465146" lon="13.565072307414937"><ele>1225.0</ele><time>2026-04-18T12:00:37.999Z</time></trkpt><trkpt lat="42.52067839149813" lon="13.565036297851105"><ele>1225.0</ele><time>2026-04-18T12:00:38.999Z</time></trkpt><trkpt lat="42.52059718667413" lon="13.565085955507906"><ele>1225.0</ele><time>2026-04-18T12:00:39.999Z</time></trkpt><trkpt lat="42.52055926534729" lon="13.565199710125883"><ele>1225.0</ele><time>2026-04-18T12:00:40.999Z</time></trkpt><trkpt lat="42.52054258619688" lon="13.565322463718033"><ele>1225.0</ele><time>2026-04-18T12:00:41.999Z</time></trkpt><trkpt lat="42.52054252708544" lon="13.56546676366241"><ele>1225.5</ele><time>2026-04-18T12:00:42.999Z</time></trkpt><trkpt lat="42.520543344670976" lon="13.565629132745503"><ele>1226.0</ele><time>2026-04-18T12:00:43.999Z</time></trkpt><trkpt lat="42.52053860922149" lon="13.56579943780979"><ele>1226.5</ele><time>2026-04-18T12:00:44.999Z</time></trkpt><trkpt lat="42.52053348844318" lon="13.565966251887888"><ele>1227.0</ele><time>2026-04-18T12:00:45.999Z</time></trkpt><trkpt lat="42.520506897180866" lon="13.566121659590877"><ele>1226.0</ele><time>2026-04-18T12:00:46.999Z</time></trkpt><trkpt lat="42.52044429768533" lon="13.566253364778213"><ele>1225.0</ele><time>2026-04-18T12:00:47.998Z</time></trkpt><trkpt lat="42.520353062201096" lon="13.566357025428513"><ele>1224.0</ele><time>2026-04-18T12:00:48.998Z</time></trkpt><trkpt lat="42.520246414517295" lon="13.566433764402289"><ele>1223.0</ele><time>2026-04-18T12:00:49.998Z</time></trkpt><trkpt lat="42.52014248273736" lon="13.566538153428796"><ele>1227.0</ele><time>2026-04-18T12:00:50.998Z</time></trkpt><trkpt lat="42.52005239796296" lon="13.566661268884644"><ele>1231.0</ele><time>2026-04-18T12:00:51.998Z</time></trkpt><trkpt lat="42.519994848909164" lon="13.566809299125046"><ele>1235.0</ele><time>2026-04-18T12:00:52.998Z</time></trkpt><trkpt lat="42.519985585319276" lon="13.5669715328302"><ele>1239.0</ele><time>2026-04-18T12:00:53.998Z</time></trkpt><trkpt lat="42.5200076548674" lon="13.567121835836147"><ele>1239.2</ele><time>2026-04-18T12:00:54.998Z</time></trkpt><trkpt lat="42.52004786429786" lon="13.56726597179893"><ele>1239.4</ele><time>2026-04-18T12:00:55.998Z</time></trkpt><trkpt lat="42.52007937140403" lon="13.56740464171625"><ele>1239.6</ele><time>2026-04-18T12:00:56.998Z</time></trkpt><trkpt lat="42.520076710702526" lon="13.567522896309361"><ele>1239.8</ele><time>2026-04-18T12:00:57.998Z</time></trkpt><trkpt lat="42.52003870154785" lon="13.567615020279366"><ele>1240.0</ele><time>2026-04-18T12:00:58.998Z</time></trkpt><trkpt lat="42.51997252648688" lon="13.567673200278763"><ele>1240.0</ele><time>2026-04-18T12:00:59.998Z</time></trkpt><trkpt lat="42.51989324599949" lon="13.567681634961284"><ele>1240.0</ele><time>2026-04-18T12:01:00.998Z</time></trkpt><trkpt lat="42.5198258723805" lon="13.567619369705563"><ele>1240.0</ele><time>2026-04-18T12:01:01.998Z</time></trkpt><trkpt lat="42.51980813984072" lon="13.567484446025007"><ele>1240.0</ele><time>2026-04-18T12:01:02.998Z</time></trkpt><trkpt lat="42.51979670542196" lon="13.567341241363911"><ele>1240.0</ele><time>2026-04-18T12:01:03.998Z</time></trkpt><trkpt lat="42.51978344835512" lon="13.567170012517463"><ele>1239.75</ele><time>2026-04-18T12:01:04.998Z</time></trkpt><trkpt lat="42.51976888161327" lon="13.566981867886165"><ele>1239.5</ele><time>2026-04-18T12:01:05.998Z</time></trkpt><trkpt lat="42.519752892049624" lon="13.566784546395315"><ele>1239.25</ele><time>2026-04-18T12:01:06.998Z</time></trkpt><trkpt lat="42.51973014257764" lon="13.566582359084396"><ele>1239.0</ele><time>2026-04-18T12:01:07.998Z</time></trkpt><trkpt lat="42.5197188798386" lon="13.566388598011201"><ele>1239.0</ele><time>2026-04-18T12:01:08.998Z</time></trkpt><trkpt lat="42.51971096714034" lon="13.5662219666656"><ele>1239.0</ele><time>2026-04-18T12:01:09.998Z</time></trkpt><trkpt lat="42.519703257943505" lon="13.566087113210992"><ele>1239.0</ele><time>2026-04-18T12:01:10.998Z</time></trkpt><trkpt lat="42.51968343495474" lon="13.565980218708976"><ele>1239.0</ele><time>2026-04-18T12:01:11.998Z</time></trkpt><trkpt lat="42.519639587985395" lon="13.565916589885143"><ele>1239.0</ele><time>2026-04-18T12:01:12.998Z</time></trkpt><trkpt lat="42.51958338720782" lon="13.565869362965389"><ele>1239.0</ele><time>2026-04-18T12:01:13.998Z</time></trkpt><trkpt lat="42.51949225991118" lon="13.565880511479946"><ele>1243.4</ele><time>2026-04-18T12:01:14.998Z</time></trkpt><trkpt lat="42.51943430192241" lon="13.565976848647047"><ele>1247.8000000000002</ele><time>2026-04-18T12:01:15.998Z</time></trkpt><trkpt lat="42.519380389149575" lon="13.566086949950893"><ele>1252.1999999999998</ele><time>2026-04-18T12:01:16.998Z</time></trkpt><trkpt lat="42.5193379995861" lon="13.566238807246178"><ele>1256.6</ele><time>2026-04-18T12:01:17.998Z</time></trkpt><trkpt lat="42.519292126829036" lon="13.56641247725896"><ele>1261.0</ele><time>2026-04-18T12:01:18.998Z</time></trkpt><trkpt lat="42.519233624030456" lon="13.566593857456382"><ele>1261.0</ele><time>2026-04-18T12:01:19.998Z</time></trkpt><trkpt lat="42.51917286599999" lon="13.5667857016753"><ele>1261.0</ele><time>2026-04-18T12:01:20.998Z</time></trkpt><trkpt lat="42.519110377628245" lon="13.56698395885876"><ele>1261.0</ele><time>2026-04-18T12:01:21.998Z</time></trkpt><trkpt lat="42.519047528253374" lon="13.56718323190814"><ele>1261.0</ele><time>2026-04-18T12:01:22.998Z</time></trkpt><trkpt lat="42.51898244157339" lon="13.567381752534047"><ele>1261.0</ele><time>2026-04-18T12:01:23.998Z</time></trkpt><trkpt lat="42.51891076462724" lon="13.567561878572176"><ele>1261.0</ele><time>2026-04-18T12:01:24.998Z</time></trkpt><trkpt lat="42.51882250062501" lon="13.567719815780483"><ele>1263.25</ele><time>2026-04-18T12:01:25.997Z</time></trkpt><trkpt lat="42.518716006070335" lon="13.567862804395375"><ele>1265.5</ele><time>2026-04-18T12:01:26.997Z</time></trkpt><trkpt lat="42.518600797292194" lon="13.567988497070148"><ele>1267.75</ele><time>2026-04-18T12:01:27.997Z</time></trkpt><trkpt lat="42.51846535986187" lon="13.568068618263544"><ele>1270.0</ele><time>2026-04-18T12:01:28.997Z</time></trkpt><trkpt lat="42.51833502123305" lon="13.568171683712311"><ele>1270.0</ele><time>2026-04-18T12:01:29.997Z</time></trkpt><trkpt lat="42.51819754498693" lon="13.568257242018078"><ele>1270.0</ele><time>2026-04-18T12:01:30.997Z</time></trkpt><trkpt lat="42.518056029973586" lon="13.56834335225968"><ele>1270.0</ele><time>2026-04-18T12:01:31.997Z</time></trkpt><trkpt lat="42.51793929296558" lon="13.568491668346136"><ele>1274.6666666666665</ele><time>2026-04-18T12:01:32.997Z</time></trkpt><trkpt lat="42.51782706497752" lon="13.568650002758583"><ele>1279.3333333333333</ele><time>2026-04-18T12:01:33.997Z</time></trkpt><trkpt lat="42.517718078553884" lon="13.5688136008649"><ele>1284.0</ele><time>2026-04-18T12:01:34.997Z</time></trkpt><trkpt lat="42.517608882875784" lon="13.56897506520242"><ele>1284.0</ele><time>2026-04-18T12:01:35.997Z</time></trkpt><trkpt lat="42.517497431723875" lon="13.569135432992013"><ele>1284.0</ele><time>2026-04-18T12:01:36.997Z</time></trkpt><trkpt lat="42.517396208031215" lon="13.569294366788196"><ele>1284.0</ele><time>2026-04-18T12:01:37.997Z</time></trkpt><trkpt lat="42.5173179816754" lon="13.569462209398742"><ele>1283.75</ele><time>2026-04-18T12:01:38.997Z</time></trkpt><trkpt lat="42.5172655707998" lon="13.56964855777386"><ele>1283.5</ele><time>2026-04-18T12:01:39.997Z</time></trkpt><trkpt lat="42.5172419690778" lon="13.569838481292322"><ele>1283.25</ele><time>2026-04-18T12:01:40.997Z</time></trkpt><trkpt lat="42.51723145838225" lon="13.570024594954292"><ele>1283.0</ele><time>2026-04-18T12:01:41.997Z</time></trkpt><trkpt lat="42.517219422298595" lon="13.570198440001299"><ele>1283.0</ele><time>2026-04-18T12:01:42.997Z</time></trkpt><trkpt lat="42.51719390020241" lon="13.57034249452685"><ele>1283.0</ele><time>2026-04-18T12:01:43.997Z</time></trkpt><trkpt lat="42.51715553561174" lon="13.570452830941788"><ele>1283.0</ele><time>2026-04-18T12:01:44.997Z</time></trkpt><trkpt lat="42.51710274148074" lon="13.570514735957886"><ele>1283.0</ele><time>2026-04-18T12:01:45.997Z</time></trkpt><trkpt lat="42.516985399848785" lon="13.570497795635047"><ele>1283.0</ele><time>2026-04-18T12:01:47.997Z</time></trkpt><trkpt lat="42.51695904120792" lon="13.570400231601772"><ele>1287.8000000000002</ele><time>2026-04-18T12:01:48.997Z</time></trkpt><trkpt lat="42.5169463930393" lon="13.570293168502431"><ele>1292.6</ele><time>2026-04-18T12:01:49.997Z</time></trkpt><trkpt lat="42.51692860396621" lon="13.570151845316426"><ele>1297.4</ele><time>2026-04-18T12:01:50.997Z</time></trkpt><trkpt lat="42.51690433097234" lon="13.569990722036453"><ele>1302.1999999999998</ele><time>2026-04-18T12:01:51.997Z</time></trkpt><trkpt lat="42.51687758044787" lon="13.56981153101347"><ele>1307.0</ele><time>2026-04-18T12:01:53Z</time></trkpt><trkpt lat="42.51684797087997" lon="13.569613188317284"><ele>1306.0</ele><time>2026-04-18T12:01:54Z</time></trkpt><trkpt lat="42.51681983275859" lon="13.56941203247729"><ele>1305.0</ele><time>2026-04-18T12:01:55Z</time></trkpt><trkpt lat="42.516818801334914" lon="13.569204817585586"><ele>1304.0</ele><time>2026-04-18T12:01:56Z</time></trkpt><trkpt lat="42.5168598448215" lon="13.569006957762335"><ele>1304.0</ele><time>2026-04-18T12:01:57Z</time></trkpt><trkpt lat="42.51689562149697" lon="13.56879968818399"><ele>1304.0</ele><time>2026-04-18T12:01:58Z</time></trkpt><trkpt lat="42.516884378748465" lon="13.568610073099252"><ele>1304.0</ele><time>2026-04-18T12:01:59Z</time></trkpt><trkpt lat="42.51684719059744" lon="13.56843111234293"><ele>1304.0</ele><time>2026-04-18T12:02:00Z</time></trkpt><trkpt lat="42.51677993438796" lon="13.568254671903768"><ele>1304.3333333333335</ele><time>2026-04-18T12:02:01Z</time></trkpt><trkpt lat="42.51668820637223" lon="13.568083766025891"><ele>1304.6666666666667</ele><time>2026-04-18T12:02:02Z</time></trkpt><trkpt lat="42.51661909153187" lon="13.567899117560053"><ele>1305.0</ele><time>2026-04-18T12:02:03Z</time></trkpt><trkpt lat="42.51654070489765" lon="13.567719541970455"><ele>1305.3333333333333</ele><time>2026-04-18T12:02:04Z</time></trkpt><trkpt lat="42.51646009715431" lon="13.567544130569168"><ele>1305.6666666666665</ele><time>2026-04-18T12:02:05Z</time></trkpt><trkpt lat="42.516376717184144" lon="13.567366132496277"><ele>1306.0</ele><time>2026-04-18T12:02:06Z</time></trkpt><trkpt lat="42.51628065652668" lon="13.56720464612967"><ele>1309.6666666666665</ele><time>2026-04-18T12:02:07Z</time></trkpt><trkpt lat="42.51614592527981" lon="13.567089886998017"><ele>1313.3333333333333</ele><time>2026-04-18T12:02:08Z</time></trkpt><trkpt lat="42.516006803430564" lon="13.566989222016655"><ele>1317.0</ele><time>2026-04-18T12:02:09Z</time></trkpt><trkpt lat="42.515860745455164" lon="13.56689344100766"><ele>1317.0</ele><time>2026-04-18T12:02:10Z</time></trkpt><trkpt lat="42.515714939359825" lon="13.566799843221753"><ele>1317.0</ele><time>2026-04-18T12:02:11Z</time></trkpt><trkpt lat="42.51557182836136" lon="13.566683632535401"><ele>1317.0</ele><time>2026-04-18T12:02:12Z</time></trkpt><trkpt lat="42.51542220187139" lon="13.566588289677412"><ele>1319.6666666666667</ele><time>2026-04-18T12:02:13Z</time></trkpt><trkpt lat="42.51526166415143" lon="13.566518796710263"><ele>1322.3333333333335</ele><time>2026-04-18T12:02:14Z</time></trkpt><trkpt lat="42.515119964655035" lon="13.566394241519165"><ele>1325.0</ele><time>2026-04-18T12:02:15Z</time></trkpt><trkpt lat="42.514987194564114" lon="13.566270525525807"><ele>1324.0</ele><time>2026-04-18T12:02:16Z</time></trkpt><trkpt lat="42.51487415637099" lon="13.566127835277417"><ele>1323.0</ele><time>2026-04-18T12:02:17Z</time></trkpt><trkpt lat="42.51476428115365" lon="13.565978164071087"><ele>1322.0</ele><time>2026-04-18T12:02:18Z</time></trkpt><trkpt lat="42.514659465286805" lon="13.565827843506828"><ele>1327.6666666666667</ele><time>2026-04-18T12:02:18.999Z</time></trkpt><trkpt lat="42.514556538635254" lon="13.56567782426912"><ele>1333.3333333333333</ele><time>2026-04-18T12:02:19.999Z</time></trkpt><trkpt lat="42.514452370788334" lon="13.56553004498057"><ele>1339.0</ele><time>2026-04-18T12:02:20.999Z</time></trkpt><trkpt lat="42.51434141862416" lon="13.56539014273788"><ele>1335.25</ele><time>2026-04-18T12:02:21.999Z</time></trkpt><trkpt lat="42.514222530902636" lon="13.56526843963669"><ele>1331.5</ele><time>2026-04-18T12:02:22.999Z</time></trkpt><trkpt lat="42.514080078970096" lon="13.565200949571878"><ele>1327.75</ele><time>2026-04-18T12:02:23.999Z</time></trkpt><trkpt lat="42.5139440471977" lon="13.565141489490768"><ele>1324.0</ele><time>2026-04-18T12:02:24.999Z</time></trkpt><trkpt lat="42.51380399141741" lon="13.565099676749952"><ele>1327.0</ele><time>2026-04-18T12:02:25.999Z</time></trkpt><trkpt lat="42.51366416980723" lon="13.565063576075985"><ele>1330.0</ele><time>2026-04-18T12:02:26.999Z</time></trkpt><trkpt lat="42.51352092833404" lon="13.565034653255902"><ele>1333.0</ele><time>2026-04-18T12:02:27.999Z</time></trkpt><trkpt lat="42.51337200675695" lon="13.565031542861892"><ele>1336.0</ele><time>2026-04-18T12:02:28.999Z</time></trkpt><trkpt lat="42.51322172817913" lon="13.5650639527763"><ele>1336.0</ele><time>2026-04-18T12:02:29.999Z</time></trkpt><trkpt lat="42.513067163899485" lon="13.565105824060648"><ele>1336.0</ele><time>2026-04-18T12:02:30.999Z</time></trkpt><trkpt lat="42.51291156590235" lon="13.565148170552954"><ele>1336.0</ele><time>2026-04-18T12:02:31.999Z</time></trkpt><trkpt lat="42.512752035944644" lon="13.565186723907516"><ele>1337.3333333333333</ele><time>2026-04-18T12:02:32.999Z</time></trkpt><trkpt lat="42.512588721244605" lon="13.56522104224635"><ele>1338.6666666666667</ele><time>2026-04-18T12:02:33.999Z</time></trkpt><trkpt lat="42.51242338096492" lon="13.565201203698644"><ele>1340.0</ele><time>2026-04-18T12:02:34.999Z</time></trkpt><trkpt lat="42.512258842468285" lon="13.56517895333622"><ele>1340.0</ele><time>2026-04-18T12:02:35.999Z</time></trkpt><trkpt lat="42.51209723060653" lon="13.565147062043323"><ele>1340.0</ele><time>2026-04-18T12:02:36.999Z</time></trkpt><trkpt lat="42.511941215678384" lon="13.565101663468367"><ele>1340.0</ele><time>2026-04-18T12:02:37.999Z</time></trkpt><trkpt lat="42.51179070783617" lon="13.565047465393686"><ele>1346.0</ele><time>2026-04-18T12:02:38.999Z</time></trkpt><trkpt lat="42.51166581595143" lon="13.56491489046073"><ele>1352.0</ele><time>2026-04-18T12:02:39.999Z</time></trkpt><trkpt lat="42.51158371833762" lon="13.564740885201694"><ele>1358.0</ele><time>2026-04-18T12:02:40.999Z</time></trkpt><trkpt lat="42.51151608141192" lon="13.56456308959859"><ele>1359.5</ele><time>2026-04-18T12:02:41.999Z</time></trkpt><trkpt lat="42.511434631080355" lon="13.564392881814708"><ele>1361.0</ele><time>2026-04-18T12:02:42.999Z</time></trkpt><trkpt lat="42.51137420507727" lon="13.56421196608861"><ele>1362.5</ele><time>2026-04-18T12:02:43.999Z</time></trkpt><trkpt lat="42.51126710434463" lon="13.564065312451534"><ele>1364.0</ele><time>2026-04-18T12:02:44.999Z</time></trkpt><trkpt lat="42.511136313817246" lon="13.563973948652745"><ele>1364.0</ele><time>2026-04-18T12:02:45.999Z</time></trkpt><trkpt lat="42.51101261157883" lon="13.563862670833231"><ele>1364.0</ele><time>2026-04-18T12:02:46.999Z</time></trkpt><trkpt lat="42.51089200643386" lon="13.563751183978281"><ele>1364.0</ele><time>2026-04-18T12:02:47.999Z</time></trkpt><trkpt lat="42.51076934860843" lon="13.563655212102207"><ele>1364.0</ele><time>2026-04-18T12:02:48.999Z</time></trkpt><trkpt lat="42.510638331713835" lon="13.563572528662016"><ele>1362.0</ele><time>2026-04-18T12:02:49.999Z</time></trkpt><trkpt lat="42.51048677783186" lon="13.563574657197332"><ele>1360.0</ele><time>2026-04-18T12:02:50.999Z</time></trkpt><trkpt lat="42.51033668047867" lon="13.563588626896774"><ele>1358.0</ele><time>2026-04-18T12:02:51.999Z</time></trkpt><trkpt lat="42.51018362094393" lon="13.56361565088503"><ele>1358.0</ele><time>2026-04-18T12:02:52.999Z</time></trkpt><trkpt lat="42.51003382578531" lon="13.563639506140365"><ele>1358.0</ele><time>2026-04-18T12:02:53.999Z</time></trkpt><trkpt lat="42.50988218520822" lon="13.563656742377542"><ele>1358.0</ele><time>2026-04-18T12:02:54.999Z</time></trkpt><trkpt lat="42.5097312873206" lon="13.563699024961645"><ele>1364.0</ele><time>2026-04-18T12:02:55.999Z</time></trkpt><trkpt lat="42.50958666692137" lon="13.563778849956616"><ele>1370.0</ele><time>2026-04-18T12:02:56.998Z</time></trkpt><trkpt lat="42.50944878379904" lon="13.563875048509294"><ele>1376.0</ele><time>2026-04-18T12:02:57.998Z</time></trkpt><trkpt lat="42.509305808258354" lon="13.563957438229032"><ele>1377.3333333333335</ele><time>2026-04-18T12:02:58.998Z</time></trkpt><trkpt lat="42.50915253017502" lon="13.564007304450469"><ele>1378.6666666666667</ele><time>2026-04-18T12:02:59.998Z</time></trkpt><trkpt lat="42.50900092582814" lon="13.564036836679161"><ele>1380.0</ele><time>2026-04-18T12:03:00.998Z</time></trkpt><trkpt lat="42.508850607260534" lon="13.564052047731657"><ele>1383.25</ele><time>2026-04-18T12:03:01.998Z</time></trkpt><trkpt lat="42.50870222509679" lon="13.564056214230984"><ele>1386.5</ele><time>2026-04-18T12:03:02.998Z</time></trkpt><trkpt lat="42.50856351059518" lon="13.56400844125609"><ele>1389.75</ele><time>2026-04-18T12:03:03.998Z</time></trkpt><trkpt lat="42.50843504356804" lon="13.563946682452986"><ele>1393.0</ele><time>2026-04-18T12:03:04.998Z</time></trkpt><trkpt lat="42.50831257768347" lon="13.56386242463084"><ele>1393.0</ele><time>2026-04-18T12:03:05.998Z</time></trkpt><trkpt lat="42.50819444779787" lon="13.563770637637148"><ele>1393.0</ele><time>2026-04-18T12:03:06.998Z</time></trkpt><trkpt lat="42.508076419899126" lon="13.563678431050542"><ele>1393.0</ele><time>2026-04-18T12:03:07.998Z</time></trkpt><trkpt lat="42.50796245306038" lon="13.563580965806631"><ele>1393.0</ele><time>2026-04-18T12:03:08.998Z</time></trkpt><trkpt lat="42.5078497167314" lon="13.563475052006847"><ele>1394.0</ele><time>2026-04-18T12:03:09.998Z</time></trkpt><trkpt lat="42.507734101728985" lon="13.56336989335805"><ele>1395.0</ele><time>2026-04-18T12:03:10.998Z</time></trkpt><trkpt lat="42.50760901143306" lon="13.563283722965856"><ele>1396.0</ele><time>2026-04-18T12:03:11.998Z</time></trkpt><trkpt lat="42.50749721570639" lon="13.563164524939287"><ele>1397.0</ele><time>2026-04-18T12:03:12.998Z</time></trkpt><trkpt lat="42.50736404687532" lon="13.56305930654812"><ele>1397.0</ele><time>2026-04-18T12:03:13.998Z</time></trkpt><trkpt lat="42.50723362864473" lon="13.562962102700661"><ele>1397.0</ele><time>2026-04-18T12:03:14.998Z</time></trkpt><trkpt lat="42.507101816319285" lon="13.56287027660513"><ele>1397.0</ele><time>2026-04-18T12:03:15.998Z</time></trkpt><trkpt lat="42.50697205607271" lon="13.562778948039977"><ele>1397.0</ele><time>2026-04-18T12:03:16.998Z</time></trkpt><trkpt lat="42.506844534735954" lon="13.562685660521412"><ele>1399.0</ele><time>2026-04-18T12:03:17.998Z</time></trkpt><trkpt lat="42.50671597317172" lon="13.562594497571954"><ele>1401.0</ele><time>2026-04-18T12:03:18.998Z</time></trkpt><trkpt lat="42.50658225891841" lon="13.562510340660634"><ele>1403.0</ele><time>2026-04-18T12:03:19.998Z</time></trkpt><trkpt lat="42.50644801481656" lon="13.56242657227179"><ele>1405.0</ele><time>2026-04-18T12:03:20.998Z</time></trkpt><trkpt lat="42.50631346809534" lon="13.562346504200029"><ele>1404.0</ele><time>2026-04-18T12:03:21.998Z</time></trkpt><trkpt lat="42.5061782471575" lon="13.562263218419243"><ele>1403.0</ele><time>2026-04-18T12:03:22.998Z</time></trkpt><trkpt lat="42.506042352183904" lon="13.562182707475285"><ele>1402.0</ele><time>2026-04-18T12:03:23.998Z</time></trkpt><trkpt lat="42.50590414834637" lon="13.56209758824174"><ele>1401.0</ele><time>2026-04-18T12:03:24.998Z</time></trkpt><trkpt lat="42.505765379920966" lon="13.56201179906873"><ele>1401.0</ele><time>2026-04-18T12:03:25.998Z</time></trkpt><trkpt lat="42.50562789700174" lon="13.561927225018396"><ele>1401.0</ele><time>2026-04-18T12:03:26.998Z</time></trkpt><trkpt lat="42.5054889736648" lon="13.561842560714991"><ele>1401.0</ele><time>2026-04-18T12:03:27.998Z</time></trkpt><trkpt lat="42.50535331300348" lon="13.56175181288806"><ele>1405.0</ele><time>2026-04-18T12:03:28.998Z</time></trkpt><trkpt lat="42.505221572378034" lon="13.56164885696482"><ele>1409.0</ele><time>2026-04-18T12:03:29.998Z</time></trkpt><trkpt lat="42.50510123107964" lon="13.5615300217496"><ele>1413.0</ele><time>2026-04-18T12:03:30.998Z</time></trkpt><trkpt lat="42.50498851325337" lon="13.561408526936825"><ele>1417.0</ele><time>2026-04-18T12:03:31.998Z</time></trkpt><trkpt lat="42.50487249577419" lon="13.56130473454129"><ele>1417.0</ele><time>2026-04-18T12:03:32.998Z</time></trkpt><trkpt lat="42.50475010537704" lon="13.561230300366752"><ele>1417.0</ele><time>2026-04-18T12:03:33.998Z</time></trkpt><trkpt lat="42.50462094609626" lon="13.561194213349639"><ele>1417.0</ele><time>2026-04-18T12:03:34.998Z</time></trkpt><trkpt lat="42.504486488904945" lon="13.56118763191771"><ele>1417.0</ele><time>2026-04-18T12:03:35.997Z</time></trkpt><trkpt lat="42.50434968789405" lon="13.56120838466627"><ele>1421.0</ele><time>2026-04-18T12:03:36.997Z</time></trkpt><trkpt lat="42.504218295418376" lon="13.561237277608086"><ele>1425.0</ele><time>2026-04-18T12:03:37.997Z</time></trkpt><trkpt lat="42.50408757224782" lon="13.56127231245264"><ele>1429.0</ele><time>2026-04-18T12:03:38.997Z</time></trkpt><trkpt lat="42.50395222081587" lon="13.561308038036469"><ele>1433.0</ele><time>2026-04-18T12:03:39.997Z</time></trkpt><trkpt lat="42.50381379416156" lon="13.561333698735426"><ele>1434.5</ele><time>2026-04-18T12:03:40.997Z</time></trkpt><trkpt lat="42.50367268423955" lon="13.561346888860202"><ele>1436.0</ele><time>2026-04-18T12:03:41.997Z</time></trkpt><trkpt lat="42.503529790766564" lon="13.56134402007594"><ele>1437.5</ele><time>2026-04-18T12:03:42.997Z</time></trkpt><trkpt lat="42.50338829726826" lon="13.56132858836317"><ele>1439.0</ele><time>2026-04-18T12:03:43.997Z</time></trkpt><trkpt lat="42.50325024894406" lon="13.561312745386346"><ele>1439.0</ele><time>2026-04-18T12:03:44.997Z</time></trkpt><trkpt lat="42.50311163288973" lon="13.56129649413173"><ele>1439.0</ele><time>2026-04-18T12:03:45.997Z</time></trkpt><trkpt lat="42.502968164794595" lon="13.56128467709162"><ele>1439.0</ele><time>2026-04-18T12:03:46.997Z</time></trkpt><trkpt lat="42.502825963740314" lon="13.561274696763205"><ele>1439.0</ele><time>2026-04-18T12:03:47.997Z</time></trkpt><trkpt lat="42.50268003172654" lon="13.561262992223748"><ele>1438.75</ele><time>2026-04-18T12:03:48.997Z</time></trkpt><trkpt lat="42.50253414841744" lon="13.561237496994222"><ele>1438.5</ele><time>2026-04-18T12:03:49.997Z</time></trkpt><trkpt lat="42.50240398565191" lon="13.561192516012794"><ele>1438.25</ele><time>2026-04-18T12:03:50.997Z</time></trkpt><trkpt lat="42.50228781152664" lon="13.561109968070642"><ele>1438.0</ele><time>2026-04-18T12:03:51.997Z</time></trkpt><trkpt lat="42.50217747802395" lon="13.561017064686979"><ele>1438.0</ele><time>2026-04-18T12:03:52.997Z</time></trkpt><trkpt lat="42.5020856797511" lon="13.560893261799611"><ele>1438.0</ele><time>2026-04-18T12:03:53.997Z</time></trkpt><trkpt lat="42.50197364594715" lon="13.560791205162715"><ele>1438.0</ele><time>2026-04-18T12:03:54.997Z</time></trkpt><trkpt lat="42.5018698072927" lon="13.560677228917285"><ele>1438.0</ele><time>2026-04-18T12:03:55.997Z</time></trkpt><trkpt lat="42.50176234390214" lon="13.560572072491897"><ele>1441.25</ele><time>2026-04-18T12:03:56.997Z</time></trkpt><trkpt lat="42.50165093889078" lon="13.560496025650759"><ele>1444.5</ele><time>2026-04-18T12:03:57.997Z</time></trkpt><trkpt lat="42.501530812589" lon="13.560440857333182"><ele>1447.75</ele><time>2026-04-18T12:03:59Z</time></trkpt><trkpt lat="42.501407304524626" lon="13.560401217297171"><ele>1451.0</ele><time>2026-04-18T12:04:00Z</time></trkpt><trkpt lat="42.50128172028483" lon="13.56036866896393"><ele>1451.0</ele><time>2026-04-18T12:04:01Z</time></trkpt><trkpt lat="42.501157460415534" lon="13.56033977786801"><ele>1451.0</ele><time>2026-04-18T12:04:02Z</time></trkpt><trkpt lat="42.50103563014988" lon="13.560302903469776"><ele>1451.0</ele><time>2026-04-18T12:04:03Z</time></trkpt><trkpt lat="42.5009214411411" lon="13.560261572646567"><ele>1451.0</ele><time>2026-04-18T12:04:04Z</time></trkpt><trkpt lat="42.50080428814922" lon="13.56022652620334"><ele>1451.0</ele><time>2026-04-18T12:04:05Z</time></trkpt><trkpt lat="42.50068886680886" lon="13.560196683448153"><ele>1451.0</ele><time>2026-04-18T12:04:06Z</time></trkpt><trkpt lat="42.50057804774453" lon="13.560171059840059"><ele>1451.0</ele><time>2026-04-18T12:04:07Z</time></trkpt><trkpt lat="42.50047556742089" lon="13.560146687361964"><ele>1451.0</ele><time>2026-04-18T12:04:08Z</time></trkpt><trkpt lat="42.50037848740037" lon="13.56012460442112"><ele>1451.0</ele><time>2026-04-18T12:04:09Z</time></trkpt><trkpt lat="42.50028554325168" lon="13.560103438462203"><ele>1451.6666666666667</ele><time>2026-04-18T12:04:10Z</time></trkpt><trkpt lat="42.50019872090313" lon="13.560074042823121"><ele>1452.3333333333335</ele><time>2026-04-18T12:04:11Z</time></trkpt><trkpt lat="42.50011508913796" lon="13.560043754559718"><ele>1453.0</ele><time>2026-04-18T12:04:12Z</time></trkpt><trkpt lat="42.50003931417808" lon="13.560030186055597"><ele>1453.6666666666667</ele><time>2026-04-18T12:04:13Z</time></trkpt><trkpt lat="42.49997329547128" lon="13.559997496005602"><ele>1454.3333333333333</ele><time>2026-04-18T12:04:14Z</time></trkpt><trkpt lat="42.499901992867706" lon="13.55998897914294"><ele>1455.0</ele><time>2026-04-18T12:04:15Z</time></trkpt><trkpt lat="42.499841909851106" lon="13.559963025934016"><ele>1455.0</ele><time>2026-04-18T12:04:16Z</time></trkpt><trkpt lat="42.499753833889" lon="13.559886472339224"><ele>1455.0</ele><time>2026-04-18T12:04:18Z</time></trkpt><trkpt lat="42.499702382992105" lon="13.55978559767239"><ele>1455.0</ele><time>2026-04-18T12:04:20Z</time></trkpt><trkpt lat="42.499750367382354" lon="13.559706826987815"><ele>1455.0</ele><time>2026-04-18T12:04:21Z</time></trkpt><trkpt lat="42.49975154675124" lon="13.559564707206833"><ele>1455.0</ele><time>2026-04-18T12:04:23Z</time></trkpt><trkpt lat="42.49974038879294" lon="13.559453472219898"><ele>1453.0</ele><time>2026-04-18T12:04:25Z</time></trkpt><trkpt lat="42.49969597559815" lon="13.559298432489763"><ele>1451.0</ele><time>2026-04-18T12:04:28Z</time></trkpt><trkpt lat="42.49968581211223" lon="13.559207636669926"><ele>1449.0</ele><time>2026-04-18T12:04:30Z</time></trkpt><trkpt lat="42.49981874956107" lon="13.558915341924328"><ele>1447.0</ele><time>2026-04-18T12:05:03.999Z</time></trkpt><trkpt lat="42.49968461869511" lon="13.558906195338983"><ele>1447.0</ele><time>2026-04-18T12:05:09.999Z</time></trkpt><trkpt lat="42.49968042949553" lon="13.559007255518615"><ele>1447.0</ele><time>2026-04-18T12:05:29.998Z</time></trkpt><trkpt lat="42.499679404391756" lon="13.559123714603164"><ele>1447.0</ele><time>2026-04-18T12:05:31.998Z</time></trkpt><trkpt lat="42.49967926109271" lon="13.559035443462191"><ele>1447.0</ele><time>2026-04-18T12:06:23Z</time></trkpt><trkpt lat="42.49975833353003" lon="13.558806145216689"><ele>1447.0</ele><time>2026-04-18T12:06:57.999Z</time></trkpt><trkpt lat="42.49974557560346" lon="13.558718221985844"><ele>1446.0</ele><time>2026-04-18T12:06:59.999Z</time></trkpt><trkpt lat="42.49974196851855" lon="13.55861560116063"><ele>1445.0</ele><time>2026-04-18T12:07:01.999Z</time></trkpt><trkpt lat="42.49974819839121" lon="13.558518748845527"><ele>1444.0</ele><time>2026-04-18T12:07:03.999Z</time></trkpt><trkpt lat="42.499770691173595" lon="13.558420226709641"><ele>1443.0</ele><time>2026-04-18T12:07:05.999Z</time></trkpt><trkpt lat="42.49975698457446" lon="13.558242974979008"><ele>1442.0</ele><time>2026-04-18T12:09:43.998Z</time></trkpt><trkpt lat="42.49972382652146" lon="13.558166396097544"><ele>1441.0</ele><time>2026-04-18T12:09:50.998Z</time></trkpt><trkpt lat="42.49974922955575" lon="13.558288088345595"><ele>1441.0</ele><time>2026-04-18T12:10:01.997Z</time></trkpt><trkpt lat="42.499754370773054" lon="13.558379539569017"><ele>1441.0</ele><time>2026-04-18T12:10:09.997Z</time></trkpt><trkpt lat="42.49981714473747" lon="13.55840397823371"><ele>1441.0</ele><time>2026-04-18T12:10:17Z</time></trkpt><trkpt lat="42.499888383635046" lon="13.558394021904567"><ele>1441.0</ele><time>2026-04-18T12:10:23Z</time></trkpt><trkpt lat="42.49995421930066" lon="13.558414612156609"><ele>1441.0</ele><time>2026-04-18T12:10:29Z</time></trkpt><trkpt lat="42.50006567943724" lon="13.558479222133629"><ele>1441.0</ele><time>2026-04-18T12:11:04Z</time></trkpt><trkpt lat="42.49999398630955" lon="13.558434385475715"><ele>1441.0</ele><time>2026-04-18T12:11:18.999Z</time></trkpt><trkpt lat="42.50005314721661" lon="13.558499206948843"><ele>1441.0</ele><time>2026-04-18T12:11:19.999Z</time></trkpt><trkpt lat="42.49996980971413" lon="13.558441825359766"><ele>1441.0</ele><time>2026-04-18T12:11:21.999Z</time></trkpt><trkpt lat="42.5000281106693" lon="13.558488903528296"><ele>1441.0</ele><time>2026-04-18T12:11:45.998Z</time></trkpt><trkpt lat="42.49995413652962" lon="13.558478952811633"><ele>1441.0</ele><time>2026-04-18T12:12:18.997Z</time></trkpt><trkpt lat="42.49988996290504" lon="13.558433118946704"><ele>1441.0</ele><time>2026-04-18T12:16:21.019Z</time></trkpt><trkpt lat="42.49982549374046" lon="13.558465065575287"><ele>1441.0</ele><time>2026-04-18T12:16:24.019Z</time></trkpt><trkpt lat="42.49993908340754" lon="13.558520612517684"><ele>1441.0</ele><time>2026-04-18T12:17:07.015Z</time></trkpt><trkpt lat="42.49991963979915" lon="13.55843594230931"><ele>1441.0</ele><time>2026-04-18T12:17:32.014Z</time></trkpt><trkpt lat="42.49985428410726" lon="13.55840211593509"><ele>1441.0</ele><time>2026-04-18T12:17:41.992Z</time></trkpt><trkpt lat="42.49978224103382" lon="13.558400162839426"><ele>1441.0</ele><time>2026-04-18T12:17:47.001Z</time></trkpt><trkpt lat="42.499731558330375" lon="13.558336989669051"><ele>1441.0</ele><time>2026-04-18T12:20:29.999Z</time></trkpt><trkpt lat="42.49969251934646" lon="13.55826458190004"><ele>1441.0</ele><time>2026-04-18T12:20:40.999Z</time></trkpt><trkpt lat="42.49972813072164" lon="13.558358782267499"><ele>1441.0</ele><time>2026-04-18T12:21:46.997Z</time></trkpt><trkpt lat="42.49978992896623" lon="13.558341523227048"><ele>1441.0</ele><time>2026-04-18T12:26:27Z</time></trkpt><trkpt lat="42.49972084915346" lon="13.558294924450232"><ele>1441.0</ele><time>2026-04-18T12:27:33.997Z</time></trkpt><trkpt lat="42.49965197302007" lon="13.55832704613949"><ele>1441.0</ele><time>2026-04-18T12:27:35.997Z</time></trkpt><trkpt lat="42.49959514195452" lon="13.55842537155696"><ele>1441.0</ele><time>2026-04-18T12:27:37.997Z</time></trkpt><trkpt lat="42.499536777963606" lon="13.558589402106728"><ele>1444.5</ele><time>2026-04-18T12:27:39.997Z</time></trkpt><trkpt lat="42.49950359857069" lon="13.558739316903834"><ele>1448.0</ele><time>2026-04-18T12:27:41.997Z</time></trkpt><trkpt lat="42.49949035234184" lon="13.558892575642854"><ele>1451.5</ele><time>2026-04-18T12:27:43.997Z</time></trkpt><trkpt lat="42.49947458219445" lon="13.559041755864124"><ele>1455.0</ele><time>2026-04-18T12:27:45.997Z</time></trkpt><trkpt lat="42.49946112205962" lon="13.559194665141103"><ele>1455.0</ele><time>2026-04-18T12:27:47.997Z</time></trkpt><trkpt lat="42.49945513861295" lon="13.559342415531"><ele>1455.0</ele><time>2026-04-18T12:27:49.997Z</time></trkpt><trkpt lat="42.49943126270455" lon="13.559489626279731"><ele>1455.0</ele><time>2026-04-18T12:27:51.997Z</time></trkpt><trkpt lat="42.49940457958001" lon="13.559636114935707"><ele>1455.0</ele><time>2026-04-18T12:27:53.997Z</time></trkpt><trkpt lat="42.499409874795155" lon="13.559789827053786"><ele>1455.0</ele><time>2026-04-18T12:27:55.997Z</time></trkpt><trkpt lat="42.49945247488375" lon="13.559979847349961"><ele>1457.0</ele><time>2026-04-18T12:27:57.997Z</time></trkpt><trkpt lat="42.49942282625092" lon="13.560124805129922"><ele>1459.0</ele><time>2026-04-18T12:27:59.996Z</time></trkpt><trkpt lat="42.4993994609444" lon="13.560275679191543"><ele>1461.0</ele><time>2026-04-18T12:28:01.996Z</time></trkpt><trkpt lat="42.499389500123854" lon="13.560431675549733"><ele>1463.0</ele><time>2026-04-18T12:28:03.996Z</time></trkpt><trkpt lat="42.49941282800362" lon="13.560580482081765"><ele>1464.0</ele><time>2026-04-18T12:28:05.996Z</time></trkpt><trkpt lat="42.49945874047448" lon="13.560714966569734"><ele>1465.0</ele><time>2026-04-18T12:28:07.996Z</time></trkpt><trkpt lat="42.49953754546682" lon="13.560842565031288"><ele>1466.0</ele><time>2026-04-18T12:28:09.996Z</time></trkpt><trkpt lat="42.49961831523234" lon="13.560959774663742"><ele>1467.0</ele><time>2026-04-18T12:28:11.998Z</time></trkpt><trkpt lat="42.499697190884575" lon="13.56108027999396"><ele>1468.1666666666667</ele><time>2026-04-18T12:28:13.998Z</time></trkpt><trkpt lat="42.49977495365407" lon="13.561199570469682"><ele>1469.3333333333333</ele><time>2026-04-18T12:28:15.998Z</time></trkpt><trkpt lat="42.49982127139795" lon="13.56126099928101"><ele>1470.5</ele><time>2026-04-18T12:28:16.998Z</time></trkpt><trkpt lat="42.499904696355685" lon="13.561387787984163"><ele>1471.6666666666665</ele><time>2026-04-18T12:28:18.998Z</time></trkpt><trkpt lat="42.499942062556826" lon="13.561458834785322"><ele>1472.8333333333333</ele><time>2026-04-18T12:28:19.998Z</time></trkpt><trkpt lat="42.499982005063615" lon="13.561525398596523"><ele>1474.0</ele><time>2026-04-18T12:28:20.998Z</time></trkpt><trkpt lat="42.50003078505345" lon="13.56159783815136"><ele>1474.0000000000002</ele><time>2026-04-18T12:28:21.998Z</time></trkpt><trkpt lat="42.500076402364755" lon="13.561666157424353"><ele>1474.0</ele><time>2026-04-18T12:28:22.998Z</time></trkpt><trkpt lat="42.50011997819972" lon="13.561732259615626"><ele>1474.0</ele><time>2026-04-18T12:28:23.999Z</time></trkpt><trkpt lat="42.50016913064654" lon="13.561786011750156"><ele>1474.0</ele><time>2026-04-18T12:28:24.999Z</time></trkpt><trkpt lat="42.50022454707942" lon="13.561843056877631"><ele>1474.0</ele><time>2026-04-18T12:28:25.999Z</time></trkpt><trkpt lat="42.50027948618613" lon="13.561884922306543"><ele>1474.0000000000002</ele><time>2026-04-18T12:28:26.999Z</time></trkpt><trkpt lat="42.500341178844025" lon="13.56192910238442"><ele>1474.0</ele><time>2026-04-18T12:28:27.999Z</time></trkpt><trkpt lat="42.50045978264178" lon="13.561987685379416"><ele>1474.857142857143</ele><time>2026-04-18T12:28:29.999Z</time></trkpt><trkpt lat="42.50052986336455" lon="13.56202088068833"><ele>1475.7142857142858</ele><time>2026-04-18T12:28:30.999Z</time></trkpt><trkpt lat="42.50060044272898" lon="13.562060460407235"><ele>1476.5714285714284</ele><time>2026-04-18T12:28:31.999Z</time></trkpt><trkpt lat="42.500662735746225" lon="13.562100401916917"><ele>1477.4285714285716</ele><time>2026-04-18T12:28:32.999Z</time></trkpt><trkpt lat="42.50072964135595" lon="13.562137531125508"><ele>1478.2857142857142</ele><time>2026-04-18T12:28:33.999Z</time></trkpt><trkpt lat="42.500776130787635" lon="13.56220150740837"><ele>1479.142857142857</ele><time>2026-04-18T12:28:34.999Z</time></trkpt><trkpt lat="42.50084009839627" lon="13.56223726848713"><ele>1480.0</ele><time>2026-04-18T12:28:35.999Z</time></trkpt><trkpt lat="42.50088614418051" lon="13.562308938236804"><ele>1479.9999999999998</ele><time>2026-04-18T12:28:36.999Z</time></trkpt><trkpt lat="42.50094535294344" lon="13.562366792289202"><ele>1480.0</ele><time>2026-04-18T12:28:37.998Z</time></trkpt><trkpt lat="42.501000628220844" lon="13.562426710326907"><ele>1480.0</ele><time>2026-04-18T12:28:38.998Z</time></trkpt><trkpt lat="42.50106260779913" lon="13.562471211813394"><ele>1480.0</ele><time>2026-04-18T12:28:39.998Z</time></trkpt><trkpt lat="42.50110731591784" lon="13.562549085606472"><ele>1480.0</ele><time>2026-04-18T12:28:40.998Z</time></trkpt><trkpt lat="42.50114395948414" lon="13.562632274950234"><ele>1479.9999999999998</ele><time>2026-04-18T12:28:41.998Z</time></trkpt><trkpt lat="42.50117645091395" lon="13.562716323772442"><ele>1480.0</ele><time>2026-04-18T12:28:42.998Z</time></trkpt><trkpt lat="42.501200806424954" lon="13.562803971541335"><ele>1479.2857142857142</ele><time>2026-04-18T12:28:43.998Z</time></trkpt><trkpt lat="42.501230485254844" lon="13.56289547048285"><ele>1478.5714285714284</ele><time>2026-04-18T12:28:44.998Z</time></trkpt><trkpt lat="42.501260244067616" lon="13.562987526523251"><ele>1477.8571428571427</ele><time>2026-04-18T12:28:45.998Z</time></trkpt><trkpt lat="42.501291103895404" lon="13.563080334060214"><ele>1477.142857142857</ele><time>2026-04-18T12:28:46.998Z</time></trkpt><trkpt lat="42.5013370197085" lon="13.563164388666545"><ele>1476.4285714285716</ele><time>2026-04-18T12:28:47.998Z</time></trkpt><trkpt lat="42.50135216229599" lon="13.563258778156417"><ele>1475.7142857142856</ele><time>2026-04-18T12:28:48.998Z</time></trkpt><trkpt lat="42.50138724046983" lon="13.56333829432746"><ele>1475.0</ele><time>2026-04-18T12:28:49.998Z</time></trkpt><trkpt lat="42.50142755556269" lon="13.563408223786478"><ele>1475.0</ele><time>2026-04-18T12:28:50.998Z</time></trkpt><trkpt lat="42.50147692472253" lon="13.563466195789438"><ele>1475.0</ele><time>2026-04-18T12:28:51.998Z</time></trkpt><trkpt lat="42.501588328865054" lon="13.563535420594716"><ele>1475.0</ele><time>2026-04-18T12:28:53.998Z</time></trkpt><trkpt lat="42.501644327724144" lon="13.563575560728566"><ele>1475.0</ele><time>2026-04-18T12:28:54.998Z</time></trkpt><trkpt lat="42.50171072346532" lon="13.563592399476557"><ele>1475.0</ele><time>2026-04-18T12:28:55.998Z</time></trkpt><trkpt lat="42.501776975069816" lon="13.563587318885183"><ele>1475.0</ele><time>2026-04-18T12:28:56.998Z</time></trkpt><trkpt lat="42.50183499296816" lon="13.56362455638544"><ele>1475.0</ele><time>2026-04-18T12:28:57.998Z</time></trkpt><trkpt lat="42.50189188134856" lon="13.563670611542843"><ele>1476.3333333333335</ele><time>2026-04-18T12:28:58.998Z</time></trkpt><trkpt lat="42.501940882589025" lon="13.563724987205426"><ele>1477.6666666666667</ele><time>2026-04-18T12:28:59.998Z</time></trkpt><trkpt lat="42.50199320339335" lon="13.563782099069288"><ele>1479.0</ele><time>2026-04-18T12:29:00.998Z</time></trkpt><trkpt lat="42.50204265035577" lon="13.563847299542413"><ele>1480.3333333333333</ele><time>2026-04-18T12:29:01.998Z</time></trkpt><trkpt lat="42.50208745944957" lon="13.563910794244887"><ele>1481.6666666666665</ele><time>2026-04-18T12:29:02.998Z</time></trkpt><trkpt lat="42.50216770011074" lon="13.564042946288412"><ele>1483.0</ele><time>2026-04-18T12:29:04.998Z</time></trkpt><trkpt lat="42.50220886449236" lon="13.564113352180758"><ele>1483.0</ele><time>2026-04-18T12:29:05.998Z</time></trkpt><trkpt lat="42.502251354385585" lon="13.564183697690769"><ele>1483.0</ele><time>2026-04-18T12:29:06.998Z</time></trkpt><trkpt lat="42.502293262922336" lon="13.56425940497088"><ele>1483.0</ele><time>2026-04-18T12:29:07.998Z</time></trkpt><trkpt lat="42.50233464415607" lon="13.564334751523427"><ele>1483.0</ele><time>2026-04-18T12:29:08.998Z</time></trkpt><trkpt lat="42.50237687478805" lon="13.564412147226353"><ele>1483.0</ele><time>2026-04-18T12:29:09.998Z</time></trkpt><trkpt lat="42.502420133642" lon="13.56448909097781"><ele>1483.0</ele><time>2026-04-18T12:29:10.998Z</time></trkpt><trkpt lat="42.50246312037143" lon="13.564563684059095"><ele>1483.0</ele><time>2026-04-18T12:29:11.998Z</time></trkpt><trkpt lat="42.50251140536582" lon="13.564638205301936"><ele>1484.8333333333333</ele><time>2026-04-18T12:29:12.998Z</time></trkpt><trkpt lat="42.50255212421652" lon="13.564712037406915"><ele>1486.6666666666665</ele><time>2026-04-18T12:29:13.998Z</time></trkpt><trkpt lat="42.50259101276116" lon="13.564788321270008"><ele>1488.5</ele><time>2026-04-18T12:29:14.998Z</time></trkpt><trkpt lat="42.502628008621265" lon="13.564865686207458"><ele>1490.3333333333333</ele><time>2026-04-18T12:29:15.998Z</time></trkpt><trkpt lat="42.502666290188586" lon="13.564936429153219"><ele>1492.1666666666667</ele><time>2026-04-18T12:29:16.998Z</time></trkpt><trkpt lat="42.502736915204736" lon="13.5650526866408"><ele>1494.0</ele><time>2026-04-18T12:29:18.998Z</time></trkpt><trkpt lat="42.50278587956316" lon="13.565134279125072"><ele>1494.0</ele><time>2026-04-18T12:29:47.997Z</time></trkpt><trkpt lat="42.502849362210526" lon="13.565229883518818"><ele>1494.0</ele><time>2026-04-18T12:29:49.997Z</time></trkpt><trkpt lat="42.50293136352382" lon="13.565357477027513"><ele>1494.0</ele><time>2026-04-18T12:29:51.997Z</time></trkpt><trkpt lat="42.502978061745296" lon="13.565428158180268"><ele>1494.0</ele><time>2026-04-18T12:29:52.997Z</time></trkpt><trkpt lat="42.50302733883195" lon="13.565504611541217"><ele>1494.0</ele><time>2026-04-18T12:29:53.997Z</time></trkpt><trkpt lat="42.50308263428616" lon="13.565583002801425"><ele>1494.0</ele><time>2026-04-18T12:29:54.997Z</time></trkpt><trkpt lat="42.50313975399825" lon="13.565660186860477"><ele>1494.3333333333333</ele><time>2026-04-18T12:29:55.997Z</time></trkpt><trkpt lat="42.5032035786974" lon="13.565741084305417"><ele>1494.6666666666667</ele><time>2026-04-18T12:29:56.997Z</time></trkpt><trkpt lat="42.50326553166538" lon="13.565827896904544"><ele>1495.0</ele><time>2026-04-18T12:29:57.997Z</time></trkpt><trkpt lat="42.50332813249606" lon="13.565912159253608"><ele>1495.3333333333335</ele><time>2026-04-18T12:29:58.997Z</time></trkpt><trkpt lat="42.50339559392601" lon="13.565983386724136"><ele>1495.6666666666667</ele><time>2026-04-18T12:29:59.997Z</time></trkpt><trkpt lat="42.50346316405092" lon="13.566038474398844"><ele>1496.0</ele><time>2026-04-18T12:30:00.997Z</time></trkpt><trkpt lat="42.503543177476104" lon="13.566090878991933"><ele>1496.0</ele><time>2026-04-18T12:30:01.997Z</time></trkpt><trkpt lat="42.50362732742607" lon="13.566139633645006"><ele>1496.0</ele><time>2026-04-18T12:30:02.997Z</time></trkpt><trkpt lat="42.503709710337986" lon="13.566193109484571"><ele>1496.0</ele><time>2026-04-18T12:30:03.996Z</time></trkpt><trkpt lat="42.503793560210994" lon="13.566234383979724"><ele>1496.0</ele><time>2026-04-18T12:30:04.996Z</time></trkpt><trkpt lat="42.503878068674055" lon="13.566274644791449"><ele>1496.0</ele><time>2026-04-18T12:30:05.996Z</time></trkpt><trkpt lat="42.50396329916004" lon="13.566312262657073"><ele>1498.1999999999998</ele><time>2026-04-18T12:30:06.996Z</time></trkpt><trkpt lat="42.50404224037642" lon="13.56636043691056"><ele>1500.3999999999999</ele><time>2026-04-18T12:30:07.996Z</time></trkpt><trkpt lat="42.50412882413793" lon="13.56641301120912"><ele>1502.6</ele><time>2026-04-18T12:30:08.996Z</time></trkpt><trkpt lat="42.504221388467094" lon="13.566459473995065"><ele>1504.8</ele><time>2026-04-18T12:30:09.996Z</time></trkpt><trkpt lat="42.50430898940377" lon="13.566491635357655"><ele>1507.0</ele><time>2026-04-18T12:30:10.996Z</time></trkpt><trkpt lat="42.50439940643831" lon="13.566528141941635"><ele>1507.0</ele><time>2026-04-18T12:30:11.996Z</time></trkpt><trkpt lat="42.5044925588749" lon="13.566563715823488"><ele>1507.0</ele><time>2026-04-18T12:30:12.996Z</time></trkpt><trkpt lat="42.5045894789468" lon="13.566589488166668"><ele>1507.0</ele><time>2026-04-18T12:30:13.996Z</time></trkpt><trkpt lat="42.50468748799076" lon="13.566595486194247"><ele>1507.0</ele><time>2026-04-18T12:30:14.996Z</time></trkpt><trkpt lat="42.50478119822713" lon="13.566624538759028"><ele>1507.0</ele><time>2026-04-18T12:30:15.996Z</time></trkpt><trkpt lat="42.504884733878114" lon="13.566622868766885"><ele>1506.0</ele><time>2026-04-18T12:30:16.996Z</time></trkpt><trkpt lat="42.50498857563461" lon="13.566615469902818"><ele>1505.0</ele><time>2026-04-18T12:30:17.999Z</time></trkpt><trkpt lat="42.50507423957908" lon="13.566608619940398"><ele>1504.0</ele><time>2026-04-18T12:30:18.999Z</time></trkpt><trkpt lat="42.505163549113554" lon="13.566601210654195"><ele>1503.0</ele><time>2026-04-18T12:30:19.999Z</time></trkpt><trkpt lat="42.505250881935915" lon="13.566590182755249"><ele>1502.0</ele><time>2026-04-18T12:30:20.999Z</time></trkpt><trkpt lat="42.50534096146131" lon="13.566577056236394"><ele>1502.6</ele><time>2026-04-18T12:30:21.999Z</time></trkpt><trkpt lat="42.50543076799167" lon="13.56656146631984"><ele>1503.1999999999998</ele><time>2026-04-18T12:30:22.999Z</time></trkpt><trkpt lat="42.5055198395774" lon="13.566543502061327"><ele>1503.8</ele><time>2026-04-18T12:30:23.999Z</time></trkpt><trkpt lat="42.505608497969455" lon="13.566521956403015"><ele>1504.4</ele><time>2026-04-18T12:30:24.999Z</time></trkpt><trkpt lat="42.50569903467001" lon="13.566496719775069"><ele>1505.0</ele><time>2026-04-18T12:30:25.999Z</time></trkpt><trkpt lat="42.505784868991626" lon="13.566470015503686"><ele>1505.0</ele><time>2026-04-18T12:30:26.999Z</time></trkpt><trkpt lat="42.505870181305575" lon="13.566437706324281"><ele>1505.0</ele><time>2026-04-18T12:30:27.999Z</time></trkpt><trkpt lat="42.505953197941004" lon="13.566406226865396"><ele>1505.0</ele><time>2026-04-18T12:30:28.999Z</time></trkpt><trkpt lat="42.5060353081504" lon="13.566357068113852"><ele>1505.0</ele><time>2026-04-18T12:30:29.999Z</time></trkpt><trkpt lat="42.50612434276218" lon="13.566348808946273"><ele>1505.0</ele><time>2026-04-18T12:30:30.999Z</time></trkpt><trkpt lat="42.506217617136045" lon="13.566357882997659"><ele>1505.0</ele><time>2026-04-18T12:30:31.999Z</time></trkpt><trkpt lat="42.506309848123664" lon="13.566382690398326"><ele>1503.6</ele><time>2026-04-18T12:30:32.999Z</time></trkpt><trkpt lat="42.506397036891" lon="13.566425540856693"><ele>1502.2</ele><time>2026-04-18T12:30:33.999Z</time></trkpt><trkpt lat="42.5064780720294" lon="13.566483504211856"><ele>1500.8000000000002</ele><time>2026-04-18T12:30:34.999Z</time></trkpt><trkpt lat="42.50655402216975" lon="13.56656130411303"><ele>1499.4</ele><time>2026-04-18T12:30:35.999Z</time></trkpt><trkpt lat="42.50662568168731" lon="13.566653184038325"><ele>1498.0</ele><time>2026-04-18T12:30:36.999Z</time></trkpt><trkpt lat="42.506697350339614" lon="13.566747820364505"><ele>1498.0</ele><time>2026-04-18T12:30:37.999Z</time></trkpt><trkpt lat="42.50676839326502" lon="13.566839070143185"><ele>1498.0</ele><time>2026-04-18T12:30:38.999Z</time></trkpt><trkpt lat="42.5068379473954" lon="13.566927481387483"><ele>1498.0</ele><time>2026-04-18T12:30:39.999Z</time></trkpt><trkpt lat="42.506906286529464" lon="13.56701563780913"><ele>1498.0</ele><time>2026-04-18T12:30:40.999Z</time></trkpt><trkpt lat="42.506963732189995" lon="13.567103350914447"><ele>1498.0</ele><time>2026-04-18T12:30:41.999Z</time></trkpt><trkpt lat="42.50701392743308" lon="13.567183804555086"><ele>1500.0</ele><time>2026-04-18T12:30:42.999Z</time></trkpt><trkpt lat="42.50703175764889" lon="13.56728827752678"><ele>1502.0</ele><time>2026-04-18T12:30:43.999Z</time></trkpt><trkpt lat="42.50699528022816" lon="13.567388621172531"><ele>1504.0</ele><time>2026-04-18T12:30:44.999Z</time></trkpt><trkpt lat="42.50697647954326" lon="13.567484732236277"><ele>1506.0</ele><time>2026-04-18T12:30:45.999Z</time></trkpt><trkpt lat="42.506944864192285" lon="13.567584354561186"><ele>1508.0</ele><time>2026-04-18T12:30:46.999Z</time></trkpt><trkpt lat="42.506916684054495" lon="13.56768834362413"><ele>1510.0</ele><time>2026-04-18T12:30:47.999Z</time></trkpt><trkpt lat="42.50688746630113" lon="13.567793979248563"><ele>1509.5</ele><time>2026-04-18T12:30:48.999Z</time></trkpt><trkpt lat="42.50686390160925" lon="13.567903393324869"><ele>1509.0</ele><time>2026-04-18T12:30:49.999Z</time></trkpt><trkpt lat="42.50683299265565" lon="13.568015330203556"><ele>1508.5</ele><time>2026-04-18T12:30:50.999Z</time></trkpt><trkpt lat="42.50678873784186" lon="13.56811318061354"><ele>1508.0</ele><time>2026-04-18T12:30:51.999Z</time></trkpt><trkpt lat="42.50673445823698" lon="13.568199914423634"><ele>1507.5</ele><time>2026-04-18T12:30:52.999Z</time></trkpt><trkpt lat="42.50666727840248" lon="13.568267251776732"><ele>1507.0</ele><time>2026-04-18T12:30:53.999Z</time></trkpt><trkpt lat="42.50658156034311" lon="13.568302495062282"><ele>1507.0</ele><time>2026-04-18T12:30:54.999Z</time></trkpt><trkpt lat="42.506506271502175" lon="13.568351150823808"><ele>1507.0</ele><time>2026-04-18T12:30:55.999Z</time></trkpt><trkpt lat="42.5064334274012" lon="13.568408679190643"><ele>1507.0</ele><time>2026-04-18T12:30:56.999Z</time></trkpt><trkpt lat="42.50635446450015" lon="13.56845412108029"><ele>1507.0</ele><time>2026-04-18T12:30:57.999Z</time></trkpt><trkpt lat="42.50627324090125" lon="13.568499846535639"><ele>1507.0</ele><time>2026-04-18T12:30:58.999Z</time></trkpt><trkpt lat="42.506193075913885" lon="13.568545269809166"><ele>1507.0</ele><time>2026-04-18T12:30:59.999Z</time></trkpt><trkpt lat="42.50611041870327" lon="13.568592114261865"><ele>1508.5</ele><time>2026-04-18T12:31:00.999Z</time></trkpt><trkpt lat="42.50602698738886" lon="13.568633678128798"><ele>1510.0</ele><time>2026-04-18T12:31:01.999Z</time></trkpt><trkpt lat="42.5059457187964" lon="13.56868231646432"><ele>1511.5</ele><time>2026-04-18T12:31:02.999Z</time></trkpt><trkpt lat="42.505863295005504" lon="13.568725493709522"><ele>1513.0</ele><time>2026-04-18T12:31:03.999Z</time></trkpt><trkpt lat="42.50578334079721" lon="13.568768097957802"><ele>1514.5</ele><time>2026-04-18T12:31:04.998Z</time></trkpt><trkpt lat="42.50570140997342" lon="13.568818057770693"><ele>1516.0</ele><time>2026-04-18T12:31:05.998Z</time></trkpt><trkpt lat="42.505625893473706" lon="13.56886230305324"><ele>1516.0000000000002</ele><time>2026-04-18T12:31:06.998Z</time></trkpt><trkpt lat="42.505553621318725" lon="13.568903414258626"><ele>1516.0</ele><time>2026-04-18T12:31:07.998Z</time></trkpt><trkpt lat="42.50549300093264" lon="13.568950835853148"><ele>1516.0</ele><time>2026-04-18T12:31:08.998Z</time></trkpt><trkpt lat="42.50544241076393" lon="13.569002071273584"><ele>1516.0</ele><time>2026-04-18T12:31:09.998Z</time></trkpt><trkpt lat="42.50535364811218" lon="13.569045005054438"><ele>1516.0</ele><time>2026-04-18T12:31:11.998Z</time></trkpt><trkpt lat="42.505297550997945" lon="13.569095568577794"><ele>1516.0000000000002</ele><time>2026-04-18T12:31:14.998Z</time></trkpt><trkpt lat="42.505355408464254" lon="13.569043646353279"><ele>1516.0</ele><time>2026-04-18T12:31:48.997Z</time></trkpt><trkpt lat="42.50542056348503" lon="13.568993357715952"><ele>1516.0</ele><time>2026-04-18T12:32:00.997Z</time></trkpt><trkpt lat="42.5054953816998" lon="13.568958187144963"><ele>1516.0</ele><time>2026-04-18T12:32:02.997Z</time></trkpt><trkpt lat="42.505584169460455" lon="13.568896427639785"><ele>1516.0</ele><time>2026-04-18T12:32:04.997Z</time></trkpt><trkpt lat="42.505686155796916" lon="13.568842598407354"><ele>1516.0</ele><time>2026-04-18T12:32:06.997Z</time></trkpt><trkpt lat="42.505768294452984" lon="13.56879715390179"><ele>1516.0</ele><time>2026-04-18T12:32:07.997Z</time></trkpt><trkpt lat="42.50570491989534" lon="13.569298008308694"><ele>1516.0</ele><time>2026-04-18T12:32:08.997Z</time></trkpt><trkpt lat="42.50580831635798" lon="13.569302936491917"><ele>1516.0</ele><time>2026-04-18T12:32:10.997Z</time></trkpt><trkpt lat="42.50607904322929" lon="13.568638603689406"><ele>1516.7142857142858</ele><time>2026-04-18T12:32:12.997Z</time></trkpt><trkpt lat="42.50614199693111" lon="13.568603456157803"><ele>1517.4285714285716</ele><time>2026-04-18T12:32:13.997Z</time></trkpt><trkpt lat="42.506206213928515" lon="13.568564100829287"><ele>1518.1428571428573</ele><time>2026-04-18T12:32:14.997Z</time></trkpt><trkpt lat="42.50627179602767" lon="13.568525405641088"><ele>1518.857142857143</ele><time>2026-04-18T12:32:15.997Z</time></trkpt><trkpt lat="42.50633904417856" lon="13.568489240868416"><ele>1519.5714285714284</ele><time>2026-04-18T12:32:16.997Z</time></trkpt><trkpt lat="42.50640638848621" lon="13.568457198472032"><ele>1520.2857142857144</ele><time>2026-04-18T12:32:17.997Z</time></trkpt><trkpt lat="42.506472854976245" lon="13.568418704232224"><ele>1521.0</ele><time>2026-04-18T12:32:18.997Z</time></trkpt><trkpt lat="42.5065381168837" lon="13.568378208063121"><ele>1519.0</ele><time>2026-04-18T12:32:19.997Z</time></trkpt><trkpt lat="42.506603929826866" lon="13.568340144717165"><ele>1517.0</ele><time>2026-04-18T12:32:20.997Z</time></trkpt><trkpt lat="42.50666698388247" lon="13.568298766101766"><ele>1515.0</ele><time>2026-04-18T12:32:21.997Z</time></trkpt><trkpt lat="42.50672155940621" lon="13.5682444214038"><ele>1513.0</ele><time>2026-04-18T12:32:22.997Z</time></trkpt><trkpt lat="42.506772553008425" lon="13.568182019520359"><ele>1511.0</ele><time>2026-04-18T12:32:24Z</time></trkpt><trkpt lat="42.506819267843206" lon="13.568107009707779"><ele>1509.0</ele><time>2026-04-18T12:32:25Z</time></trkpt><trkpt lat="42.50685264253625" lon="13.568018311054963"><ele>1507.0</ele><time>2026-04-18T12:32:26Z</time></trkpt><trkpt lat="42.506878944961066" lon="13.567923767542839"><ele>1507.5</ele><time>2026-04-18T12:32:27Z</time></trkpt><trkpt lat="42.50692413614688" lon="13.567833865501138"><ele>1508.0</ele><time>2026-04-18T12:32:28Z</time></trkpt><trkpt lat="42.50694932824541" lon="13.56773840085495"><ele>1508.5</ele><time>2026-04-18T12:32:29Z</time></trkpt><trkpt lat="42.506959795704766" lon="13.567634133751099"><ele>1509.0</ele><time>2026-04-18T12:32:30Z</time></trkpt><trkpt lat="42.50699089237753" lon="13.56754760321761"><ele>1509.5</ele><time>2026-04-18T12:32:31Z</time></trkpt><trkpt lat="42.507010796728316" lon="13.567454365786032"><ele>1510.0</ele><time>2026-04-18T12:32:32Z</time></trkpt><trkpt lat="42.507046947568924" lon="13.567361493482585"><ele>1510.0</ele><time>2026-04-18T12:32:33Z</time></trkpt><trkpt lat="42.50706737024349" lon="13.567260384194403"><ele>1510.0</ele><time>2026-04-18T12:32:34Z</time></trkpt><trkpt lat="42.50705870273197" lon="13.567144474137725"><ele>1510.0</ele><time>2026-04-18T12:32:35Z</time></trkpt><trkpt lat="42.506996374806135" lon="13.56705531195267"><ele>1510.0</ele><time>2026-04-18T12:32:36Z</time></trkpt><trkpt lat="42.50695046136275" lon="13.566991317624662"><ele>1510.0</ele><time>2026-04-18T12:32:37Z</time></trkpt><trkpt lat="42.50689905539292" lon="13.56692668325373"><ele>1510.0</ele><time>2026-04-18T12:32:38Z</time></trkpt><trkpt lat="42.506836551229696" lon="13.566880185474528"><ele>1508.2857142857142</ele><time>2026-04-18T12:32:39Z</time></trkpt><trkpt lat="42.506786215438545" lon="13.566813208332423"><ele>1506.5714285714287</ele><time>2026-04-18T12:32:40Z</time></trkpt><trkpt lat="42.506740131965294" lon="13.566745389473986"><ele>1504.857142857143</ele><time>2026-04-18T12:32:41Z</time></trkpt><trkpt lat="42.50668487792325" lon="13.566680966570987"><ele>1503.142857142857</ele><time>2026-04-18T12:32:42Z</time></trkpt><trkpt lat="42.506636518909495" lon="13.56661100321507"><ele>1501.4285714285716</ele><time>2026-04-18T12:32:43Z</time></trkpt><trkpt lat="42.50659510758375" lon="13.566533293302989"><ele>1499.7142857142858</ele><time>2026-04-18T12:32:44Z</time></trkpt><trkpt lat="42.50654164775016" lon="13.566474238700696"><ele>1498.0</ele><time>2026-04-18T12:32:45Z</time></trkpt><trkpt lat="42.50648864403205" lon="13.566425757023225"><ele>1498.0</ele><time>2026-04-18T12:32:46Z</time></trkpt><trkpt lat="42.506382662864574" lon="13.56635592275805"><ele>1498.0</ele><time>2026-04-18T12:32:48Z</time></trkpt><trkpt lat="42.506282188160526" lon="13.566321164965746"><ele>1498.0</ele><time>2026-04-18T12:32:50Z</time></trkpt><trkpt lat="42.50620928729634" lon="13.566310746829812"><ele>1498.0</ele><time>2026-04-18T12:32:59.999Z</time></trkpt><trkpt lat="42.506134508999885" lon="13.566307369533913"><ele>1498.0</ele><time>2026-04-18T12:33:02.999Z</time></trkpt><trkpt lat="42.506062735974524" lon="13.566314476382207"><ele>1498.0</ele><time>2026-04-18T12:33:04.999Z</time></trkpt><trkpt lat="42.505968660830554" lon="13.566367226506081"><ele>1499.1666666666665</ele><time>2026-04-18T12:33:06.999Z</time></trkpt><trkpt lat="42.50585829347872" lon="13.566415328799492"><ele>1500.3333333333333</ele><time>2026-04-18T12:33:08.999Z</time></trkpt><trkpt lat="42.50579525558838" lon="13.566435385244407"><ele>1501.5</ele><time>2026-04-18T12:33:09.999Z</time></trkpt><trkpt lat="42.50572440658915" lon="13.566452653231105"><ele>1502.6666666666667</ele><time>2026-04-18T12:33:10.999Z</time></trkpt><trkpt lat="42.50565511027547" lon="13.56647168976332"><ele>1503.8333333333335</ele><time>2026-04-18T12:33:11.999Z</time></trkpt><trkpt lat="42.50558758840446" lon="13.5664897077529"><ele>1505.0</ele><time>2026-04-18T12:33:12.999Z</time></trkpt><trkpt lat="42.505521675361265" lon="13.566517081373686"><ele>1505.0</ele><time>2026-04-18T12:33:13.999Z</time></trkpt><trkpt lat="42.50545425667313" lon="13.566511533586665"><ele>1505.0</ele><time>2026-04-18T12:33:14.999Z</time></trkpt><trkpt lat="42.50538498459721" lon="13.566524748759253"><ele>1505.0</ele><time>2026-04-18T12:33:15.999Z</time></trkpt><trkpt lat="42.50531059525112" lon="13.56655061117943"><ele>1505.0</ele><time>2026-04-18T12:33:16.999Z</time></trkpt><trkpt lat="42.50523863408574" lon="13.566553055532586"><ele>1505.0</ele><time>2026-04-18T12:33:17.999Z</time></trkpt><trkpt lat="42.505162269995395" lon="13.56655937423368"><ele>1505.0</ele><time>2026-04-18T12:33:18.999Z</time></trkpt><trkpt lat="42.505084112766866" lon="13.566572816171787"><ele>1505.0</ele><time>2026-04-18T12:33:19.999Z</time></trkpt><trkpt lat="42.50500469354825" lon="13.566583710429288"><ele>1505.3333333333335</ele><time>2026-04-18T12:33:20.999Z</time></trkpt><trkpt lat="42.5049248586398" lon="13.5665898616639"><ele>1505.6666666666667</ele><time>2026-04-18T12:33:21.999Z</time></trkpt><trkpt lat="42.5048485337639" lon="13.566598807439727"><ele>1506.0</ele><time>2026-04-18T12:33:22.999Z</time></trkpt><trkpt lat="42.50477267422272" lon="13.566579246080698"><ele>1506.3333333333333</ele><time>2026-04-18T12:33:23.999Z</time></trkpt><trkpt lat="42.50469485020787" lon="13.56657374075104"><ele>1506.6666666666665</ele><time>2026-04-18T12:33:24.999Z</time></trkpt><trkpt lat="42.50461976442618" lon="13.566558027599877"><ele>1507.0</ele><time>2026-04-18T12:33:25.999Z</time></trkpt><trkpt lat="42.504544319774396" lon="13.566536730679305"><ele>1507.0</ele><time>2026-04-18T12:33:26.999Z</time></trkpt><trkpt lat="42.50447299701882" lon="13.566512789975961"><ele>1507.0</ele><time>2026-04-18T12:33:27.999Z</time></trkpt><trkpt lat="42.50440207947714" lon="13.566484340766626"><ele>1507.0</ele><time>2026-04-18T12:33:28.999Z</time></trkpt><trkpt lat="42.50433081197088" lon="13.566452617161232"><ele>1507.0</ele><time>2026-04-18T12:33:29.999Z</time></trkpt><trkpt lat="42.504258330817756" lon="13.566419272576189"><ele>1507.0</ele><time>2026-04-18T12:33:30.999Z</time></trkpt><trkpt lat="42.504183110826986" lon="13.56638466799475"><ele>1507.0</ele><time>2026-04-18T12:33:31.999Z</time></trkpt><trkpt lat="42.5041011612984" lon="13.566367321413633"><ele>1507.0</ele><time>2026-04-18T12:33:32.999Z</time></trkpt><trkpt lat="42.50403484278839" lon="13.566319957219504"><ele>1507.0</ele><time>2026-04-18T12:33:33.999Z</time></trkpt><trkpt lat="42.503943424280635" lon="13.566273260723104"><ele>1507.0</ele><time>2026-04-18T12:33:34.999Z</time></trkpt><trkpt lat="42.50386644199391" lon="13.566236296192546"><ele>1507.0</ele><time>2026-04-18T12:33:35.998Z</time></trkpt><trkpt lat="42.503789863549734" lon="13.566199448991327"><ele>1507.0</ele><time>2026-04-18T12:33:36.998Z</time></trkpt><trkpt lat="42.503722261693426" lon="13.56613982455625"><ele>1507.0</ele><time>2026-04-18T12:33:37.998Z</time></trkpt><trkpt lat="42.503652544896966" lon="13.566095191166239"><ele>1505.1666666666665</ele><time>2026-04-18T12:33:38.998Z</time></trkpt><trkpt lat="42.50358079038144" lon="13.566047082881537"><ele>1503.3333333333333</ele><time>2026-04-18T12:33:39.998Z</time></trkpt><trkpt lat="42.503509728350906" lon="13.565992637671258"><ele>1501.5</ele><time>2026-04-18T12:33:40.998Z</time></trkpt><trkpt lat="42.50344440145451" lon="13.565936674940202"><ele>1499.6666666666667</ele><time>2026-04-18T12:33:41.998Z</time></trkpt><trkpt lat="42.503383751533946" lon="13.565878992833355"><ele>1497.8333333333335</ele><time>2026-04-18T12:33:42.998Z</time></trkpt><trkpt lat="42.50332245373691" lon="13.565813318539947"><ele>1496.0</ele><time>2026-04-18T12:33:43.998Z</time></trkpt><trkpt lat="42.50326189149731" lon="13.565743373711927"><ele>1496.0</ele><time>2026-04-18T12:33:44.998Z</time></trkpt><trkpt lat="42.5032012786864" lon="13.565667789944634"><ele>1496.0</ele><time>2026-04-18T12:33:45.998Z</time></trkpt><trkpt lat="42.50313618593312" lon="13.565598056170684"><ele>1496.0</ele><time>2026-04-18T12:33:46.998Z</time></trkpt><trkpt lat="42.50307631635568" lon="13.565517799995634"><ele>1496.0</ele><time>2026-04-18T12:33:47.998Z</time></trkpt><trkpt lat="42.50301650016099" lon="13.565438609520468"><ele>1496.0</ele><time>2026-04-18T12:33:48.998Z</time></trkpt><trkpt lat="42.502962734098126" lon="13.56535961570277"><ele>1496.0</ele><time>2026-04-18T12:33:49.998Z</time></trkpt><trkpt lat="42.50290596899898" lon="13.565275387053683"><ele>1495.6666666666667</ele><time>2026-04-18T12:33:50.998Z</time></trkpt><trkpt lat="42.50285510363168" lon="13.565187753312792"><ele>1495.3333333333335</ele><time>2026-04-18T12:33:51.998Z</time></trkpt><trkpt lat="42.50280330882199" lon="13.56509798949264"><ele>1495.0</ele><time>2026-04-18T12:33:52.998Z</time></trkpt><trkpt lat="42.50275340026488" lon="13.56500916203687"><ele>1494.6666666666667</ele><time>2026-04-18T12:33:53.998Z</time></trkpt><trkpt lat="42.502705228030564" lon="13.564914765958633"><ele>1494.3333333333333</ele><time>2026-04-18T12:33:54.998Z</time></trkpt><trkpt lat="42.50265508808954" lon="13.564830270491548"><ele>1494.0</ele><time>2026-04-18T12:33:55.998Z</time></trkpt><trkpt lat="42.50261592535778" lon="13.564731355434295"><ele>1494.0</ele><time>2026-04-18T12:33:56.998Z</time></trkpt><trkpt lat="42.50256625965335" lon="13.564636958425947"><ele>1494.0</ele><time>2026-04-18T12:33:57.998Z</time></trkpt><trkpt lat="42.50251692265249" lon="13.564543186245423"><ele>1494.0</ele><time>2026-04-18T12:33:58.998Z</time></trkpt><trkpt lat="42.502465450492046" lon="13.56444867577591"><ele>1494.0</ele><time>2026-04-18T12:33:59.998Z</time></trkpt><trkpt lat="42.5024155204743" lon="13.564357674606454"><ele>1494.0</ele><time>2026-04-18T12:34:00.998Z</time></trkpt><trkpt lat="42.50236173783273" lon="13.564259651811279"><ele>1494.0</ele><time>2026-04-18T12:34:01.998Z</time></trkpt><trkpt lat="42.50231258857076" lon="13.564170073683245"><ele>1493.6666666666667</ele><time>2026-04-18T12:34:02.998Z</time></trkpt><trkpt lat="42.50226129847973" lon="13.564079220583661"><ele>1493.3333333333333</ele><time>2026-04-18T12:34:03.998Z</time></trkpt><trkpt lat="42.50220736431293" lon="13.563988074758505"><ele>1493.0</ele><time>2026-04-18T12:34:04.998Z</time></trkpt><trkpt lat="42.50215156465787" lon="13.563902347658681"><ele>1492.6666666666665</ele><time>2026-04-18T12:34:05.998Z</time></trkpt><trkpt lat="42.50208729697219" lon="13.563816685509774"><ele>1492.3333333333333</ele><time>2026-04-18T12:34:06.998Z</time></trkpt><trkpt lat="42.50202098509032" lon="13.563741398196811"><ele>1492.0</ele><time>2026-04-18T12:34:07.998Z</time></trkpt><trkpt lat="42.501949729477346" lon="13.563690545437401"><ele>1489.1666666666665</ele><time>2026-04-18T12:34:08.998Z</time></trkpt><trkpt lat="42.50188548603558" lon="13.563631365584548"><ele>1486.3333333333333</ele><time>2026-04-18T12:34:09.998Z</time></trkpt><trkpt lat="42.501817608004835" lon="13.56358380217075"><ele>1483.5</ele><time>2026-04-18T12:34:10.998Z</time></trkpt><trkpt lat="42.50174195434092" lon="13.563552481065496"><ele>1480.6666666666667</ele><time>2026-04-18T12:34:11.998Z</time></trkpt><trkpt lat="42.501665079465376" lon="13.563540561720307"><ele>1477.8333333333335</ele><time>2026-04-18T12:34:12.998Z</time></trkpt><trkpt lat="42.50159200171972" lon="13.563526678941678"><ele>1475.0</ele><time>2026-04-18T12:34:13.998Z</time></trkpt><trkpt lat="42.501522547858286" lon="13.563491383960221"><ele>1475.0</ele><time>2026-04-18T12:34:14.998Z</time></trkpt><trkpt lat="42.50146399819636" lon="13.563429236407316"><ele>1475.0</ele><time>2026-04-18T12:34:15.998Z</time></trkpt><trkpt lat="42.50144332280135" lon="13.563326257543663"><ele>1475.0</ele><time>2026-04-18T12:34:16.998Z</time></trkpt><trkpt lat="42.501416834177604" lon="13.563239391845109"><ele>1475.0</ele><time>2026-04-18T12:34:17.997Z</time></trkpt><trkpt lat="42.50138752191912" lon="13.56315100429464"><ele>1475.0</ele><time>2026-04-18T12:34:18.997Z</time></trkpt><trkpt lat="42.50135628659738" lon="13.563060576496602"><ele>1475.0</ele><time>2026-04-18T12:34:19.997Z</time></trkpt><trkpt lat="42.50130372398885" lon="13.56290044053316"><ele>1475.8333333333335</ele><time>2026-04-18T12:34:21.997Z</time></trkpt><trkpt lat="42.50127424725186" lon="13.562812978465333"><ele>1476.6666666666667</ele><time>2026-04-18T12:34:22.997Z</time></trkpt><trkpt lat="42.50124547072591" lon="13.562734621417457"><ele>1477.5</ele><time>2026-04-18T12:34:23.997Z</time></trkpt><trkpt lat="42.501202375346395" lon="13.562667484500198"><ele>1478.3333333333333</ele><time>2026-04-18T12:34:24.997Z</time></trkpt><trkpt lat="42.5011727566891" lon="13.562591012381441"><ele>1479.1666666666665</ele><time>2026-04-18T12:34:25.997Z</time></trkpt><trkpt lat="42.501095217896356" lon="13.562468838213036"><ele>1480.0</ele><time>2026-04-18T12:34:27.997Z</time></trkpt><trkpt lat="42.5010048537123" lon="13.56236839531741"><ele>1480.0</ele><time>2026-04-18T12:34:30.001Z</time></trkpt><trkpt lat="42.500917540362074" lon="13.56226847931161"><ele>1480.0</ele><time>2026-04-18T12:34:32.001Z</time></trkpt><trkpt lat="42.50082503329221" lon="13.562191194524313"><ele>1480.0</ele><time>2026-04-18T12:34:34.001Z</time></trkpt><trkpt lat="42.50073166146391" lon="13.562106607535451"><ele>1480.0</ele><time>2026-04-18T12:34:36.001Z</time></trkpt><trkpt lat="42.50062902217367" lon="13.562043678361706"><ele>1480.0</ele><time>2026-04-18T12:34:38.001Z</time></trkpt><trkpt lat="42.50053594307383" lon="13.56195250126403"><ele>1478.5</ele><time>2026-04-18T12:34:40.001Z</time></trkpt><trkpt lat="42.500426856742536" lon="13.56189009646248"><ele>1477.0</ele><time>2026-04-18T12:34:42.001Z</time></trkpt><trkpt lat="42.50032142919853" lon="13.561834842114676"><ele>1475.5</ele><time>2026-04-18T12:34:44Z</time></trkpt><trkpt lat="42.50021699444275" lon="13.561778681366336"><ele>1474.0</ele><time>2026-04-18T12:34:46Z</time></trkpt><trkpt lat="42.500128478490886" lon="13.561671827684238"><ele>1474.0</ele><time>2026-04-18T12:34:48Z</time></trkpt><trkpt lat="42.50004750377175" lon="13.56154645276028"><ele>1474.0</ele><time>2026-04-18T12:34:50Z</time></trkpt><trkpt lat="42.50000354814772" lon="13.561481702193053"><ele>1474.0</ele><time>2026-04-18T12:34:51Z</time></trkpt><trkpt lat="42.49997187948649" lon="13.561406108443107"><ele>1474.0</ele><time>2026-04-18T12:34:52Z</time></trkpt><trkpt lat="42.49993213078332" lon="13.561339733115348"><ele>1474.0</ele><time>2026-04-18T12:34:53Z</time></trkpt><trkpt lat="42.49985164156825" lon="13.561208791539515"><ele>1474.0</ele><time>2026-04-18T12:34:55Z</time></trkpt><trkpt lat="42.499795130067966" lon="13.561153438362505"><ele>1474.3333333333333</ele><time>2026-04-18T12:34:56Z</time></trkpt><trkpt lat="42.499759738044276" lon="13.561076691311442"><ele>1474.6666666666665</ele><time>2026-04-18T12:34:57Z</time></trkpt><trkpt lat="42.49971308194563" lon="13.56101564397035"><ele>1475.0</ele><time>2026-04-18T12:34:58Z</time></trkpt><trkpt lat="42.49967022052164" lon="13.560951946853335"><ele>1475.3333333333333</ele><time>2026-04-18T12:34:59Z</time></trkpt><trkpt lat="42.49962453002585" lon="13.560889149232414"><ele>1475.6666666666667</ele><time>2026-04-18T12:35:00Z</time></trkpt><trkpt lat="42.49953969814774" lon="13.560763626793616"><ele>1476.0</ele><time>2026-04-18T12:35:02Z</time></trkpt><trkpt lat="42.49948458154216" lon="13.560627285276786"><ele>1476.0</ele><time>2026-04-18T12:35:04Z</time></trkpt><trkpt lat="42.49945486907485" lon="13.560476284080137"><ele>1476.0</ele><time>2026-04-18T12:35:06Z</time></trkpt><trkpt lat="42.499462221828054" lon="13.560388494991223"><ele>1476.0</ele><time>2026-04-18T12:35:07Z</time></trkpt><trkpt lat="42.499479094619566" lon="13.560301573531529"><ele>1476.0</ele><time>2026-04-18T12:35:08Z</time></trkpt><trkpt lat="42.49947546687611" lon="13.560210749287743"><ele>1476.0</ele><time>2026-04-18T12:35:09Z</time></trkpt><trkpt lat="42.49957137657257" lon="13.560075506262017"><ele>1472.5</ele><time>2026-04-18T12:35:11Z</time></trkpt><trkpt lat="42.499641605656336" lon="13.560033712430046"><ele>1469.0</ele><time>2026-04-18T12:35:12Z</time></trkpt><trkpt lat="42.49971516857529" lon="13.560009598475204"><ele>1465.5</ele><time>2026-04-18T12:35:13Z</time></trkpt><trkpt lat="42.4997901861535" lon="13.560007360829347"><ele>1462.0</ele><time>2026-04-18T12:35:14Z</time></trkpt><trkpt lat="42.499866510518196" lon="13.560008127098897"><ele>1458.5</ele><time>2026-04-18T12:35:14.999Z</time></trkpt><trkpt lat="42.49994104303942" lon="13.56002368299011"><ele>1455.0</ele><time>2026-04-18T12:35:15.999Z</time></trkpt><trkpt lat="42.50001548503114" lon="13.560044494756212"><ele>1455.0</ele><time>2026-04-18T12:35:16.999Z</time></trkpt><trkpt lat="42.500087491855524" lon="13.560064533090245"><ele>1455.0</ele><time>2026-04-18T12:35:17.999Z</time></trkpt><trkpt lat="42.50015813434709" lon="13.560088373079013"><ele>1455.0</ele><time>2026-04-18T12:35:18.999Z</time></trkpt><trkpt lat="42.500228625223365" lon="13.560110365902174"><ele>1455.0</ele><time>2026-04-18T12:35:19.999Z</time></trkpt><trkpt lat="42.50030148903999" lon="13.560129233585899"><ele>1455.0</ele><time>2026-04-18T12:35:20.999Z</time></trkpt><trkpt lat="42.500372218013375" lon="13.560151351841771"><ele>1455.0</ele><time>2026-04-18T12:35:21.999Z</time></trkpt><trkpt lat="42.50044306524223" lon="13.560172204519839"><ele>1455.0</ele><time>2026-04-18T12:35:22.999Z</time></trkpt><trkpt lat="42.500517323778645" lon="13.560196632698087"><ele>1454.3333333333333</ele><time>2026-04-18T12:35:23.999Z</time></trkpt><trkpt lat="42.50058977068663" lon="13.560217946395097"><ele>1453.6666666666667</ele><time>2026-04-18T12:35:24.999Z</time></trkpt><trkpt lat="42.500661361923655" lon="13.560239065394825"><ele>1453.0</ele><time>2026-04-18T12:35:25.999Z</time></trkpt><trkpt lat="42.50073600805532" lon="13.560258252503598"><ele>1452.3333333333335</ele><time>2026-04-18T12:35:26.999Z</time></trkpt><trkpt lat="42.5008200924615" lon="13.56027738664987"><ele>1451.6666666666667</ele><time>2026-04-18T12:35:27.999Z</time></trkpt><trkpt lat="42.50089191492611" lon="13.560301930971981"><ele>1451.0</ele><time>2026-04-18T12:35:28.999Z</time></trkpt><trkpt lat="42.50096395966655" lon="13.560326272432873"><ele>1451.0</ele><time>2026-04-18T12:35:29.999Z</time></trkpt><trkpt lat="42.50103875481736" lon="13.560345259178353"><ele>1451.0</ele><time>2026-04-18T12:35:30.999Z</time></trkpt><trkpt lat="42.50112104973885" lon="13.560362661566254"><ele>1451.0</ele><time>2026-04-18T12:35:31.999Z</time></trkpt><trkpt lat="42.50120076821109" lon="13.560377341196272"><ele>1451.0</ele><time>2026-04-18T12:35:32.999Z</time></trkpt><trkpt lat="42.50127595554574" lon="13.560401087545168"><ele>1451.0</ele><time>2026-04-18T12:35:33.999Z</time></trkpt><trkpt lat="42.50135413978133" lon="13.560432782952201"><ele>1451.0</ele><time>2026-04-18T12:35:34.999Z</time></trkpt><trkpt lat="42.5014310234034" lon="13.560463756044756"><ele>1451.0</ele><time>2026-04-18T12:35:35.999Z</time></trkpt><trkpt lat="42.50150149413451" lon="13.5604990245682"><ele>1451.0</ele><time>2026-04-18T12:35:36.999Z</time></trkpt><trkpt lat="42.50157593219956" lon="13.560537461449623"><ele>1451.0</ele><time>2026-04-18T12:35:37.999Z</time></trkpt><trkpt lat="42.5016480560114" lon="13.560582030665215"><ele>1451.0</ele><time>2026-04-18T12:35:38.999Z</time></trkpt><trkpt lat="42.50171137428858" lon="13.560629029131354"><ele>1451.0</ele><time>2026-04-18T12:35:39.999Z</time></trkpt><trkpt lat="42.50178547240042" lon="13.560681749572478"><ele>1451.0</ele><time>2026-04-18T12:35:40.999Z</time></trkpt><trkpt lat="42.50186031362581" lon="13.56073782419862"><ele>1451.0</ele><time>2026-04-18T12:35:41.999Z</time></trkpt><trkpt lat="42.5019329782246" lon="13.560795514938828"><ele>1451.0</ele><time>2026-04-18T12:35:42.999Z</time></trkpt><trkpt lat="42.501995363290526" lon="13.560868868324913"><ele>1451.0</ele><time>2026-04-18T12:35:43.999Z</time></trkpt><trkpt lat="42.502050697416884" lon="13.560936128630006"><ele>1451.0</ele><time>2026-04-18T12:35:44.999Z</time></trkpt><trkpt lat="42.50211610497167" lon="13.560999418945217"><ele>1451.0</ele><time>2026-04-18T12:35:45.999Z</time></trkpt><trkpt lat="42.50218621582041" lon="13.561063917634225"><ele>1451.0</ele><time>2026-04-18T12:35:46.999Z</time></trkpt><trkpt lat="42.50225198683007" lon="13.561130370418299"><ele>1450.0</ele><time>2026-04-18T12:35:47.999Z</time></trkpt><trkpt lat="42.5023129886202" lon="13.561184960056698"><ele>1449.0</ele><time>2026-04-18T12:35:48.999Z</time></trkpt><trkpt lat="42.502367404218326" lon="13.561229042904467"><ele>1448.0</ele><time>2026-04-18T12:35:49.999Z</time></trkpt><trkpt lat="42.50249642620375" lon="13.561273614557706"><ele>1447.0</ele><time>2026-04-18T12:35:51.999Z</time></trkpt><trkpt lat="42.50256675367328" lon="13.561284909954832"><ele>1446.0</ele><time>2026-04-18T12:35:52.999Z</time></trkpt><trkpt lat="42.502638080806335" lon="13.561289260733341"><ele>1445.0</ele><time>2026-04-18T12:35:53.999Z</time></trkpt><trkpt lat="42.50272203796247" lon="13.561294772868784"><ele>1444.9999999999998</ele><time>2026-04-18T12:35:54.998Z</time></trkpt><trkpt lat="42.50279230692772" lon="13.561297052264464"><ele>1445.0</ele><time>2026-04-18T12:35:55.998Z</time></trkpt><trkpt lat="42.50286331241935" lon="13.56130282922988"><ele>1445.0</ele><time>2026-04-18T12:35:56.998Z</time></trkpt><trkpt lat="42.50293631465605" lon="13.561326027712033"><ele>1445.0</ele><time>2026-04-18T12:35:57.998Z</time></trkpt><trkpt lat="42.50301696280729" lon="13.561319502522116"><ele>1445.0</ele><time>2026-04-18T12:35:58.998Z</time></trkpt><trkpt lat="42.5030901858897" lon="13.561320020446844"><ele>1444.9999999999998</ele><time>2026-04-18T12:35:59.998Z</time></trkpt><trkpt lat="42.503161930949396" lon="13.561346451759032"><ele>1445.0</ele><time>2026-04-18T12:36:00.998Z</time></trkpt><trkpt lat="42.50323200186906" lon="13.561352195259678"><ele>1444.142857142857</ele><time>2026-04-18T12:36:01.998Z</time></trkpt><trkpt lat="42.503306568614065" lon="13.561358032715377"><ele>1443.2857142857142</ele><time>2026-04-18T12:36:02.998Z</time></trkpt><trkpt lat="42.503380494124066" lon="13.561346645760864"><ele>1442.4285714285716</ele><time>2026-04-18T12:36:03.998Z</time></trkpt><trkpt lat="42.5034510227792" lon="13.561363990307736"><ele>1441.5714285714284</ele><time>2026-04-18T12:36:04.998Z</time></trkpt><trkpt lat="42.50352435939994" lon="13.561364796299635"><ele>1440.7142857142858</ele><time>2026-04-18T12:36:05.998Z</time></trkpt><trkpt lat="42.503596640350395" lon="13.56135635518954"><ele>1439.857142857143</ele><time>2026-04-18T12:36:06.998Z</time></trkpt><trkpt lat="42.50367685864751" lon="13.561363307355524"><ele>1439.0</ele><time>2026-04-18T12:36:07.998Z</time></trkpt><trkpt lat="42.50376212785627" lon="13.56136706734673"><ele>1437.8000000000002</ele><time>2026-04-18T12:36:08.998Z</time></trkpt><trkpt lat="42.50384816901407" lon="13.56135872097707"><ele>1436.6000000000001</ele><time>2026-04-18T12:36:09.998Z</time></trkpt><trkpt lat="42.50393534804931" lon="13.561337011612668"><ele>1435.4</ele><time>2026-04-18T12:36:10.998Z</time></trkpt><trkpt lat="42.50403092090498" lon="13.561335626058959"><ele>1434.2</ele><time>2026-04-18T12:36:11.998Z</time></trkpt><trkpt lat="42.504120913660984" lon="13.561295240378607"><ele>1433.0</ele><time>2026-04-18T12:36:12.998Z</time></trkpt><trkpt lat="42.504213052380116" lon="13.56128621441125"><ele>1433.0</ele><time>2026-04-18T12:36:13.998Z</time></trkpt><trkpt lat="42.504302507508434" lon="13.561266055490846"><ele>1433.0</ele><time>2026-04-18T12:36:14.998Z</time></trkpt><trkpt lat="42.504391570533784" lon="13.561248646281575"><ele>1433.0</ele><time>2026-04-18T12:36:15.998Z</time></trkpt><trkpt lat="42.504479878722485" lon="13.561240611616496"><ele>1433.0</ele><time>2026-04-18T12:36:16.998Z</time></trkpt><trkpt lat="42.504567502166786" lon="13.56124068542212"><ele>1433.0</ele><time>2026-04-18T12:36:17.998Z</time></trkpt><trkpt lat="42.504652654479216" lon="13.561253709161763"><ele>1433.0</ele><time>2026-04-18T12:36:18.998Z</time></trkpt><trkpt lat="42.504735232043714" lon="13.561289282599235"><ele>1429.8000000000002</ele><time>2026-04-18T12:36:19.998Z</time></trkpt><trkpt lat="42.50480732394079" lon="13.56132896155078"><ele>1426.6</ele><time>2026-04-18T12:36:20.998Z</time></trkpt><trkpt lat="42.50487225808496" lon="13.561344868955098"><ele>1423.4</ele><time>2026-04-18T12:36:21.998Z</time></trkpt><trkpt lat="42.50496503129664" lon="13.56114498203404"><ele>1420.1999999999998</ele><time>2026-04-18T12:36:25.998Z</time></trkpt><trkpt lat="42.50491118154536" lon="13.561049711875064"><ele>1417.0</ele><time>2026-04-18T12:36:26.998Z</time></trkpt><trkpt lat="42.50485969318151" lon="13.560992617481817"><ele>1417.1666666666665</ele><time>2026-04-18T12:36:27.998Z</time></trkpt><trkpt lat="42.50478673973102" lon="13.560927994669802"><ele>1417.3333333333333</ele><time>2026-04-18T12:36:28.998Z</time></trkpt><trkpt lat="42.50471260116594" lon="13.560872973756492"><ele>1417.5</ele><time>2026-04-18T12:36:29.998Z</time></trkpt><trkpt lat="42.504637178873665" lon="13.560825665567593"><ele>1417.6666666666667</ele><time>2026-04-18T12:36:30.998Z</time></trkpt><trkpt lat="42.50456021681266" lon="13.560785901463623"><ele>1417.8333333333335</ele><time>2026-04-18T12:36:31.998Z</time></trkpt><trkpt lat="42.504480652658366" lon="13.560756632812557"><ele>1418.0</ele><time>2026-04-18T12:36:32.998Z</time></trkpt><trkpt lat="42.50440552292941" lon="13.56073018157319"><ele>1418.0</ele><time>2026-04-18T12:36:33.998Z</time></trkpt><trkpt lat="42.504333271700965" lon="13.560706657904854"><ele>1418.0</ele><time>2026-04-18T12:36:35.001Z</time></trkpt><trkpt lat="42.504257346471086" lon="13.560705812634279"><ele>1418.0</ele><time>2026-04-18T12:36:36.001Z</time></trkpt><trkpt lat="42.5041815157719" lon="13.56068392816489"><ele>1418.0</ele><time>2026-04-18T12:36:37.001Z</time></trkpt><trkpt lat="42.50410278776785" lon="13.56065904490541"><ele>1418.0</ele><time>2026-04-18T12:36:38.001Z</time></trkpt><trkpt lat="42.504022301074194" lon="13.560611943878468"><ele>1418.0</ele><time>2026-04-18T12:36:39.001Z</time></trkpt><trkpt lat="42.503942144682" lon="13.560577074179532"><ele>1418.0</ele><time>2026-04-18T12:36:40.001Z</time></trkpt><trkpt lat="42.503860870909044" lon="13.560519132977522"><ele>1418.0</ele><time>2026-04-18T12:36:41.001Z</time></trkpt><trkpt lat="42.503780176347426" lon="13.560449999356441"><ele>1418.0</ele><time>2026-04-18T12:36:42.001Z</time></trkpt><trkpt lat="42.5036931380811" lon="13.560389783007718"><ele>1418.0</ele><time>2026-04-18T12:36:43.001Z</time></trkpt><trkpt lat="42.50361827124335" lon="13.560297387730863"><ele>1418.0</ele><time>2026-04-18T12:36:44.001Z</time></trkpt><trkpt lat="42.50355938312529" lon="13.560190260067799"><ele>1418.2</ele><time>2026-04-18T12:36:45.001Z</time></trkpt><trkpt lat="42.503524299867884" lon="13.560067990783809"><ele>1418.4</ele><time>2026-04-18T12:36:46.001Z</time></trkpt><trkpt lat="42.50352348898618" lon="13.559938367661328"><ele>1418.6000000000001</ele><time>2026-04-18T12:36:47.001Z</time></trkpt><trkpt lat="42.503525602205066" lon="13.559815261309838"><ele>1418.8000000000002</ele><time>2026-04-18T12:36:48.001Z</time></trkpt><trkpt lat="42.50354340595077" lon="13.559698187306731"><ele>1419.0</ele><time>2026-04-18T12:36:49.001Z</time></trkpt><trkpt lat="42.5035715709327" lon="13.559580226502984"><ele>1418.6</ele><time>2026-04-18T12:36:50.001Z</time></trkpt><trkpt lat="42.503606187889815" lon="13.559459310635493"><ele>1418.2</ele><time>2026-04-18T12:36:51.001Z</time></trkpt><trkpt lat="42.50363733621898" lon="13.559333898852909"><ele>1417.8</ele><time>2026-04-18T12:36:52.001Z</time></trkpt><trkpt lat="42.503674371263834" lon="13.559207546623341"><ele>1417.3999999999999</ele><time>2026-04-18T12:36:53.001Z</time></trkpt><trkpt lat="42.50370657806749" lon="13.55907867232132"><ele>1417.0</ele><time>2026-04-18T12:36:54.001Z</time></trkpt><trkpt lat="42.503758627364725" lon="13.558955881775901"><ele>1415.6</ele><time>2026-04-18T12:36:55.001Z</time></trkpt><trkpt lat="42.503794648637744" lon="13.558821311342324"><ele>1414.1999999999998</ele><time>2026-04-18T12:36:56.001Z</time></trkpt><trkpt lat="42.50381866166616" lon="13.558684567230483"><ele>1412.8</ele><time>2026-04-18T12:36:57.001Z</time></trkpt><trkpt lat="42.5038164092435" lon="13.558540914664228"><ele>1411.4</ele><time>2026-04-18T12:36:58Z</time></trkpt><trkpt lat="42.503797199408034" lon="13.558403887678134"><ele>1410.0</ele><time>2026-04-18T12:36:59Z</time></trkpt><trkpt lat="42.5037369931897" lon="13.55828420369858"><ele>1410.0</ele><time>2026-04-18T12:37:00Z</time></trkpt><trkpt lat="42.50369862346825" lon="13.558152756954595"><ele>1410.0</ele><time>2026-04-18T12:37:01Z</time></trkpt><trkpt lat="42.50364159423569" lon="13.55803873149451"><ele>1410.0</ele><time>2026-04-18T12:37:02Z</time></trkpt><trkpt lat="42.50358403083276" lon="13.557923145092921"><ele>1410.0</ele><time>2026-04-18T12:37:03Z</time></trkpt><trkpt lat="42.503524147582844" lon="13.557805087862834"><ele>1410.0</ele><time>2026-04-18T12:37:04Z</time></trkpt><trkpt lat="42.503461486430496" lon="13.557696174607145"><ele>1407.6</ele><time>2026-04-18T12:37:05Z</time></trkpt><trkpt lat="42.50339901686391" lon="13.557587594463254"><ele>1405.2</ele><time>2026-04-18T12:37:06Z</time></trkpt><trkpt lat="42.503337838188926" lon="13.557480106372955"><ele>1402.8000000000002</ele><time>2026-04-18T12:37:07Z</time></trkpt><trkpt lat="42.50327692178863" lon="13.557371899620781"><ele>1400.4</ele><time>2026-04-18T12:37:08Z</time></trkpt><trkpt lat="42.50321954729142" lon="13.557263303520289"><ele>1398.0</ele><time>2026-04-18T12:37:09Z</time></trkpt><trkpt lat="42.503154126053296" lon="13.557160296073507"><ele>1396.6000000000001</ele><time>2026-04-18T12:37:10Z</time></trkpt><trkpt lat="42.5031134108972" lon="13.557033975200348"><ele>1395.2</ele><time>2026-04-18T12:37:11Z</time></trkpt><trkpt lat="42.50309867082456" lon="13.556902745031573"><ele>1393.8</ele><time>2026-04-18T12:37:12Z</time></trkpt><trkpt lat="42.503076855961844" lon="13.556773951225104"><ele>1392.4</ele><time>2026-04-18T12:37:13Z</time></trkpt><trkpt lat="42.50306119722245" lon="13.556650512435896"><ele>1391.0</ele><time>2026-04-18T12:37:14Z</time></trkpt><trkpt lat="42.50304456277094" lon="13.556531400386746"><ele>1391.0</ele><time>2026-04-18T12:37:15Z</time></trkpt><trkpt lat="42.50306085555774" lon="13.556417115581308"><ele>1391.0</ele><time>2026-04-18T12:37:16Z</time></trkpt><trkpt lat="42.5030850330751" lon="13.556308106056017"><ele>1391.0</ele><time>2026-04-18T12:37:17Z</time></trkpt><trkpt lat="42.50312047240131" lon="13.55620358081484"><ele>1391.0</ele><time>2026-04-18T12:37:18Z</time></trkpt><trkpt lat="42.50316711507464" lon="13.55610441808549"><ele>1391.0</ele><time>2026-04-18T12:37:19Z</time></trkpt><trkpt lat="42.50322568722575" lon="13.556018612636276"><ele>1391.0</ele><time>2026-04-18T12:37:20Z</time></trkpt><trkpt lat="42.503291722695515" lon="13.55594643381497"><ele>1390.8333333333335</ele><time>2026-04-18T12:37:21Z</time></trkpt><trkpt lat="42.50336504725388" lon="13.555890305701997"><ele>1390.6666666666667</ele><time>2026-04-18T12:37:22Z</time></trkpt><trkpt lat="42.50343906591194" lon="13.555849499913025"><ele>1390.5</ele><time>2026-04-18T12:37:23Z</time></trkpt><trkpt lat="42.50351665664242" lon="13.555822448067923"><ele>1390.3333333333333</ele><time>2026-04-18T12:37:24Z</time></trkpt><trkpt lat="42.50359400414188" lon="13.555799549608963"><ele>1390.1666666666665</ele><time>2026-04-18T12:37:25Z</time></trkpt><trkpt lat="42.50367652573078" lon="13.555779305340817"><ele>1390.0</ele><time>2026-04-18T12:37:26Z</time></trkpt><trkpt lat="42.5037579734555" lon="13.555754131153467"><ele>1388.0</ele><time>2026-04-18T12:37:27Z</time></trkpt><trkpt lat="42.50384296788337" lon="13.555732498652956"><ele>1386.0</ele><time>2026-04-18T12:37:28Z</time></trkpt><trkpt lat="42.503928247702774" lon="13.555720981464583"><ele>1384.0</ele><time>2026-04-18T12:37:29Z</time></trkpt><trkpt lat="42.50401506545523" lon="13.555713882783268"><ele>1382.0</ele><time>2026-04-18T12:37:30Z</time></trkpt><trkpt lat="42.50410315044276" lon="13.555712954690684"><ele>1380.0</ele><time>2026-04-18T12:37:30.999Z</time></trkpt><trkpt lat="42.50419386493355" lon="13.555715200701458"><ele>1378.0</ele><time>2026-04-18T12:37:31.999Z</time></trkpt><trkpt lat="42.504287555226796" lon="13.55572320372925"><ele>1378.0</ele><time>2026-04-18T12:37:32.999Z</time></trkpt><trkpt lat="42.5043827979907" lon="13.555738552666202"><ele>1378.0</ele><time>2026-04-18T12:37:33.999Z</time></trkpt><trkpt lat="42.504479571459214" lon="13.555761886731446"><ele>1378.0</ele><time>2026-04-18T12:37:34.999Z</time></trkpt><trkpt lat="42.50457620221758" lon="13.555793086629844"><ele>1378.0</ele><time>2026-04-18T12:37:35.999Z</time></trkpt><trkpt lat="42.504670656598456" lon="13.555828995403841"><ele>1378.0</ele><time>2026-04-18T12:37:36.999Z</time></trkpt><trkpt lat="42.504764328932374" lon="13.555865309612974"><ele>1377.6000000000001</ele><time>2026-04-18T12:37:37.999Z</time></trkpt><trkpt lat="42.504859828494325" lon="13.555898201957817"><ele>1377.2</ele><time>2026-04-18T12:37:38.999Z</time></trkpt><trkpt lat="42.504955112822756" lon="13.555929613591195"><ele>1376.8</ele><time>2026-04-18T12:37:39.999Z</time></trkpt><trkpt lat="42.50504959571397" lon="13.55596421948302"><ele>1376.4</ele><time>2026-04-18T12:37:40.999Z</time></trkpt><trkpt lat="42.50514546379741" lon="13.55600049157392"><ele>1376.0</ele><time>2026-04-18T12:37:41.999Z</time></trkpt><trkpt lat="42.50524278800541" lon="13.55603494397618"><ele>1376.0</ele><time>2026-04-18T12:37:42.999Z</time></trkpt><trkpt lat="42.50533946804884" lon="13.556064507558977"><ele>1376.0</ele><time>2026-04-18T12:37:43.999Z</time></trkpt><trkpt lat="42.505437359393575" lon="13.556087961299308"><ele>1376.0</ele><time>2026-04-18T12:37:44.999Z</time></trkpt><trkpt lat="42.5055341265828" lon="13.556108298223052"><ele>1376.0</ele><time>2026-04-18T12:37:45.999Z</time></trkpt><trkpt lat="42.50562943275451" lon="13.556127197671339"><ele>1376.0</ele><time>2026-04-18T12:37:46.999Z</time></trkpt><trkpt lat="42.50572460202194" lon="13.556133512448218"><ele>1376.1666666666667</ele><time>2026-04-18T12:37:47.999Z</time></trkpt><trkpt lat="42.505815964752045" lon="13.556125935326435"><ele>1376.3333333333335</ele><time>2026-04-18T12:37:48.999Z</time></trkpt><trkpt lat="42.505903235921046" lon="13.556099231060829"><ele>1376.5</ele><time>2026-04-18T12:37:49.999Z</time></trkpt><trkpt lat="42.50598436686747" lon="13.556045558158985"><ele>1376.6666666666667</ele><time>2026-04-18T12:37:50.999Z</time></trkpt><trkpt lat="42.50606124980011" lon="13.55598493242229"><ele>1376.8333333333333</ele><time>2026-04-18T12:37:51.999Z</time></trkpt><trkpt lat="42.50612812683143" lon="13.555905003821216"><ele>1377.0</ele><time>2026-04-18T12:37:52.999Z</time></trkpt><trkpt lat="42.50619623100645" lon="13.555824078169715"><ele>1376.1999999999998</ele><time>2026-04-18T12:37:53.999Z</time></trkpt><trkpt lat="42.50626748424315" lon="13.555743637633585"><ele>1375.4</ele><time>2026-04-18T12:37:54.999Z</time></trkpt><trkpt lat="42.50634606871228" lon="13.55566470858554"><ele>1374.6</ele><time>2026-04-18T12:37:55.999Z</time></trkpt><trkpt lat="42.50642544051155" lon="13.555585474732014"><ele>1373.8000000000002</ele><time>2026-04-18T12:37:56.999Z</time></trkpt><trkpt lat="42.50649884513862" lon="13.555493107424171"><ele>1373.0</ele><time>2026-04-18T12:37:57.999Z</time></trkpt><trkpt lat="42.50657290083668" lon="13.555402579279637"><ele>1372.8000000000002</ele><time>2026-04-18T12:37:58.999Z</time></trkpt><trkpt lat="42.50665209394202" lon="13.555321263203206"><ele>1372.6</ele><time>2026-04-18T12:37:59.999Z</time></trkpt><trkpt lat="42.506731565691375" lon="13.555238946231615"><ele>1372.4</ele><time>2026-04-18T12:38:00.999Z</time></trkpt><trkpt lat="42.50680619421101" lon="13.555148630868823"><ele>1372.1999999999998</ele><time>2026-04-18T12:38:01.999Z</time></trkpt><trkpt lat="42.50688778278547" lon="13.555069005556987"><ele>1372.0</ele><time>2026-04-18T12:38:02.999Z</time></trkpt><trkpt lat="42.50694926541106" lon="13.554964584361024"><ele>1372.0</ele><time>2026-04-18T12:38:03.999Z</time></trkpt><trkpt lat="42.50699249825596" lon="13.554848963865599"><ele>1372.0</ele><time>2026-04-18T12:38:04.999Z</time></trkpt><trkpt lat="42.50701092386144" lon="13.554723848199561"><ele>1372.0</ele><time>2026-04-18T12:38:05.999Z</time></trkpt><trkpt lat="42.50705710002133" lon="13.554616372931697"><ele>1372.0</ele><time>2026-04-18T12:38:06.999Z</time></trkpt><trkpt lat="42.507090388857705" lon="13.554498879690852"><ele>1372.0</ele><time>2026-04-18T12:38:07.999Z</time></trkpt><trkpt lat="42.507123899308155" lon="13.55439130460669"><ele>1371.2857142857142</ele><time>2026-04-18T12:38:08.998Z</time></trkpt><trkpt lat="42.507160501228775" lon="13.554293488911247"><ele>1370.5714285714284</ele><time>2026-04-18T12:38:09.998Z</time></trkpt><trkpt lat="42.50719054454431" lon="13.554195262612895"><ele>1369.857142857143</ele><time>2026-04-18T12:38:10.998Z</time></trkpt><trkpt lat="42.507238556005966" lon="13.554122482412996"><ele>1369.142857142857</ele><time>2026-04-18T12:38:11.998Z</time></trkpt><trkpt lat="42.50728579184868" lon="13.55405795840741"><ele>1368.4285714285713</ele><time>2026-04-18T12:38:12.998Z</time></trkpt><trkpt lat="42.50733516618194" lon="13.553995376328821"><ele>1367.7142857142858</ele><time>2026-04-18T12:38:13.998Z</time></trkpt><trkpt lat="42.50739006822062" lon="13.553927980112961"><ele>1367.0</ele><time>2026-04-18T12:38:14.998Z</time></trkpt><trkpt lat="42.50743828967197" lon="13.553844308055517"><ele>1367.0</ele><time>2026-04-18T12:38:15.998Z</time></trkpt><trkpt lat="42.50749109553162" lon="13.553760044010675"><ele>1367.0</ele><time>2026-04-18T12:38:16.998Z</time></trkpt><trkpt lat="42.50749677705418" lon="13.553636301898461"><ele>1367.0</ele><time>2026-04-18T12:38:17.998Z</time></trkpt><trkpt lat="42.507491055919935" lon="13.553518441034395"><ele>1367.0</ele><time>2026-04-18T12:38:18.998Z</time></trkpt><trkpt lat="42.50747228197516" lon="13.553392413226645"><ele>1367.0</ele><time>2026-04-18T12:38:19.998Z</time></trkpt><trkpt lat="42.50740008983583" lon="13.553298817026853"><ele>1367.0</ele><time>2026-04-18T12:38:20.998Z</time></trkpt><trkpt lat="42.50732583540335" lon="13.55321478858005"><ele>1367.0</ele><time>2026-04-18T12:38:21.998Z</time></trkpt><trkpt lat="42.507235961629206" lon="13.553147326821009"><ele>1367.0</ele><time>2026-04-18T12:38:22.998Z</time></trkpt><trkpt lat="42.5071399425027" lon="13.553094197294097"><ele>1367.0</ele><time>2026-04-18T12:38:23.998Z</time></trkpt><trkpt lat="42.507043713948406" lon="13.553041964935964"><ele>1367.0</ele><time>2026-04-18T12:38:24.998Z</time></trkpt><trkpt lat="42.50694644405141" lon="13.552988928588437"><ele>1367.3999999999999</ele><time>2026-04-18T12:38:25.998Z</time></trkpt><trkpt lat="42.506852706488615" lon="13.552928708340755"><ele>1367.8</ele><time>2026-04-18T12:38:26.998Z</time></trkpt><trkpt lat="42.50675839207741" lon="13.552865623890263"><ele>1368.2</ele><time>2026-04-18T12:38:27.998Z</time></trkpt><trkpt lat="42.50666219644968" lon="13.552799562453144"><ele>1368.6</ele><time>2026-04-18T12:38:28.998Z</time></trkpt><trkpt lat="42.50656809480664" lon="13.55271961097864"><ele>1369.0</ele><time>2026-04-18T12:38:29.998Z</time></trkpt><trkpt lat="42.50647587649388" lon="13.55263084527423"><ele>1369.0</ele><time>2026-04-18T12:38:30.998Z</time></trkpt><trkpt lat="42.50638514142518" lon="13.552537884342694"><ele>1369.0</ele><time>2026-04-18T12:38:31.998Z</time></trkpt><trkpt lat="42.50631084745362" lon="13.552413111929894"><ele>1369.0</ele><time>2026-04-18T12:38:32.998Z</time></trkpt><trkpt lat="42.50622580791013" lon="13.552301733257307"><ele>1369.0</ele><time>2026-04-18T12:38:33.998Z</time></trkpt><trkpt lat="42.50613816583266" lon="13.552186945974725"><ele>1369.25</ele><time>2026-04-18T12:38:34.998Z</time></trkpt><trkpt lat="42.50604275190692" lon="13.552085170570564"><ele>1369.5</ele><time>2026-04-18T12:38:35.998Z</time></trkpt><trkpt lat="42.505960458944635" lon="13.551969058146204"><ele>1369.75</ele><time>2026-04-18T12:38:36.998Z</time></trkpt><trkpt lat="42.50587993068011" lon="13.551849934278396"><ele>1370.0</ele><time>2026-04-18T12:38:37.998Z</time></trkpt><trkpt lat="42.50579480047123" lon="13.551739124766717"><ele>1371.25</ele><time>2026-04-18T12:38:38.998Z</time></trkpt><trkpt lat="42.50570765126961" lon="13.55163720398231"><ele>1372.5</ele><time>2026-04-18T12:38:40.001Z</time></trkpt><trkpt lat="42.50561857030992" lon="13.551543567724972"><ele>1373.75</ele><time>2026-04-18T12:38:41.001Z</time></trkpt><trkpt lat="42.505522918773465" lon="13.551464986995166"><ele>1375.0</ele><time>2026-04-18T12:38:42.001Z</time></trkpt><trkpt lat="42.50542040629524" lon="13.551407952652871"><ele>1376.0</ele><time>2026-04-18T12:38:43.001Z</time></trkpt><trkpt lat="42.505312147074534" lon="13.551371262281354"><ele>1377.0</ele><time>2026-04-18T12:38:44.001Z</time></trkpt><trkpt lat="42.505204183894506" lon="13.551337884660908"><ele>1378.0</ele><time>2026-04-18T12:38:45.001Z</time></trkpt><trkpt lat="42.50509850012459" lon="13.551301580468364"><ele>1379.0</ele><time>2026-04-18T12:38:46.001Z</time></trkpt><trkpt lat="42.504993189705054" lon="13.551259653688383"><ele>1380.0</ele><time>2026-04-18T12:38:47.001Z</time></trkpt><trkpt lat="42.504889746623554" lon="13.551214038001683"><ele>1381.6</ele><time>2026-04-18T12:38:48.001Z</time></trkpt><trkpt lat="42.504792243057835" lon="13.551152622293888"><ele>1383.2</ele><time>2026-04-18T12:38:49.001Z</time></trkpt><trkpt lat="42.50470268645955" lon="13.551077390312042"><ele>1384.8000000000002</ele><time>2026-04-18T12:38:50.001Z</time></trkpt><trkpt lat="42.504614837127875" lon="13.550995584859482"><ele>1386.4</ele><time>2026-04-18T12:38:51.001Z</time></trkpt><trkpt lat="42.504529107777415" lon="13.550907718158195"><ele>1388.0</ele><time>2026-04-18T12:38:52.001Z</time></trkpt><trkpt lat="42.50444273260205" lon="13.550818695355083"><ele>1388.0</ele><time>2026-04-18T12:38:53.001Z</time></trkpt><trkpt lat="42.50435556655658" lon="13.550727807453896"><ele>1388.0</ele><time>2026-04-18T12:38:54.001Z</time></trkpt><trkpt lat="42.50426853978937" lon="13.550637084380519"><ele>1388.0</ele><time>2026-04-18T12:38:55.001Z</time></trkpt><trkpt lat="42.50418216120512" lon="13.550543347598694"><ele>1388.0</ele><time>2026-04-18T12:38:56.001Z</time></trkpt><trkpt lat="42.50409788663006" lon="13.550449480896631"><ele>1388.0</ele><time>2026-04-18T12:38:57.001Z</time></trkpt><trkpt lat="42.504010887056275" lon="13.550357922129901"><ele>1390.8000000000002</ele><time>2026-04-18T12:38:58.001Z</time></trkpt><trkpt lat="42.503922858911416" lon="13.550272499190532"><ele>1393.6</ele><time>2026-04-18T12:38:59.001Z</time></trkpt><trkpt lat="42.50383023890986" lon="13.550189343635228"><ele>1396.4</ele><time>2026-04-18T12:39:00.001Z</time></trkpt><trkpt lat="42.50373333036533" lon="13.550115443764518"><ele>1399.1999999999998</ele><time>2026-04-18T12:39:01.001Z</time></trkpt><trkpt lat="42.503634446620026" lon="13.55004637029923"><ele>1402.0</ele><time>2026-04-18T12:39:02.001Z</time></trkpt><trkpt lat="42.503533671553846" lon="13.54997904193148"><ele>1402.0</ele><time>2026-04-18T12:39:03.001Z</time></trkpt><trkpt lat="42.503432491549646" lon="13.549916667996866"><ele>1402.0</ele><time>2026-04-18T12:39:04.001Z</time></trkpt><trkpt lat="42.503328230014894" lon="13.549864809474798"><ele>1402.0</ele><time>2026-04-18T12:39:05.001Z</time></trkpt><trkpt lat="42.50322111474149" lon="13.54982464331495"><ele>1402.0</ele><time>2026-04-18T12:39:06.001Z</time></trkpt><trkpt lat="42.503113027500554" lon="13.549800563127851"><ele>1402.0</ele><time>2026-04-18T12:39:07Z</time></trkpt><trkpt lat="42.50300377521504" lon="13.549799550295976"><ele>1402.0</ele><time>2026-04-18T12:39:08Z</time></trkpt><trkpt lat="42.50289529050595" lon="13.549810961038103"><ele>1402.0</ele><time>2026-04-18T12:39:09Z</time></trkpt><trkpt lat="42.50279452103691" lon="13.549834088082498"><ele>1402.0</ele><time>2026-04-18T12:39:10Z</time></trkpt><trkpt lat="42.50269597749236" lon="13.549860489392204"><ele>1402.0</ele><time>2026-04-18T12:39:11Z</time></trkpt><trkpt lat="42.50260137552847" lon="13.549884033342716"><ele>1402.0</ele><time>2026-04-18T12:39:12Z</time></trkpt><trkpt lat="42.502510865480154" lon="13.549910472960342"><ele>1402.0</ele><time>2026-04-18T12:39:13Z</time></trkpt><trkpt lat="42.502424163713066" lon="13.549938481107922"><ele>1402.0</ele><time>2026-04-18T12:39:14Z</time></trkpt><trkpt lat="42.502340932935006" lon="13.549973594362056"><ele>1402.0</ele><time>2026-04-18T12:39:15Z</time></trkpt><trkpt lat="42.502259942516446" lon="13.550015512854166"><ele>1402.0</ele><time>2026-04-18T12:39:16Z</time></trkpt><trkpt lat="42.50217945131039" lon="13.550060511362755"><ele>1402.0</ele><time>2026-04-18T12:39:17Z</time></trkpt><trkpt lat="42.50209859413812" lon="13.55010664043922"><ele>1402.0</ele><time>2026-04-18T12:39:18Z</time></trkpt><trkpt lat="42.502015340434305" lon="13.550150049154832"><ele>1401.1999999999998</ele><time>2026-04-18T12:39:19Z</time></trkpt><trkpt lat="42.501930880530296" lon="13.550190881723609"><ele>1400.4</ele><time>2026-04-18T12:39:20Z</time></trkpt><trkpt lat="42.501846114358145" lon="13.550241040145123"><ele>1399.6</ele><time>2026-04-18T12:39:21Z</time></trkpt><trkpt lat="42.50176262218661" lon="13.550304034196273"><ele>1398.8000000000002</ele><time>2026-04-18T12:39:22Z</time></trkpt><trkpt lat="42.501682464829315" lon="13.55037935235612"><ele>1398.0</ele><time>2026-04-18T12:39:23Z</time></trkpt><trkpt lat="42.50160350713874" lon="13.5504625047847"><ele>1398.0</ele><time>2026-04-18T12:39:24Z</time></trkpt><trkpt lat="42.501526969702965" lon="13.550554027224237"><ele>1398.0</ele><time>2026-04-18T12:39:25Z</time></trkpt><trkpt lat="42.50144846259821" lon="13.550646540564196"><ele>1398.0</ele><time>2026-04-18T12:39:26Z</time></trkpt><trkpt lat="42.50136967482895" lon="13.550734081147846"><ele>1398.0</ele><time>2026-04-18T12:39:27Z</time></trkpt><trkpt lat="42.50129343463223" lon="13.550821226476366"><ele>1398.0</ele><time>2026-04-18T12:39:28Z</time></trkpt><trkpt lat="42.50121831511182" lon="13.550910850424122"><ele>1401.0</ele><time>2026-04-18T12:39:29Z</time></trkpt><trkpt lat="42.5011438449447" lon="13.551006692844647"><ele>1404.0</ele><time>2026-04-18T12:39:30Z</time></trkpt><trkpt lat="42.501073772134895" lon="13.55110621403134"><ele>1407.0</ele><time>2026-04-18T12:39:31Z</time></trkpt><trkpt lat="42.50100500637694" lon="13.551214986688569"><ele>1410.0</ele><time>2026-04-18T12:39:32Z</time></trkpt><trkpt lat="42.50094142367194" lon="13.551327196389089"><ele>1413.0</ele><time>2026-04-18T12:39:33Z</time></trkpt><trkpt lat="42.50088126262488" lon="13.551444371061578"><ele>1413.0</ele><time>2026-04-18T12:39:34Z</time></trkpt><trkpt lat="42.500828368416286" lon="13.551563340682087"><ele>1413.0</ele><time>2026-04-18T12:39:35Z</time></trkpt><trkpt lat="42.500776295359394" lon="13.551683061616972"><ele>1413.0</ele><time>2026-04-18T12:39:36Z</time></trkpt><trkpt lat="42.50072832929777" lon="13.551801831059162"><ele>1413.0</ele><time>2026-04-18T12:39:37Z</time></trkpt><trkpt lat="42.50068170843258" lon="13.55191827765709"><ele>1413.0</ele><time>2026-04-18T12:39:38Z</time></trkpt><trkpt lat="42.50063427134283" lon="13.552030985330804"><ele>1412.4</ele><time>2026-04-18T12:39:39Z</time></trkpt><trkpt lat="42.50058605244312" lon="13.552145405149066"><ele>1411.8000000000002</ele><time>2026-04-18T12:39:39.999Z</time></trkpt><trkpt lat="42.5005358387369" lon="13.552257035557002"><ele>1411.2</ele><time>2026-04-18T12:39:40.999Z</time></trkpt><trkpt lat="42.50048169117294" lon="13.552361355279894"><ele>1410.6</ele><time>2026-04-18T12:39:41.999Z</time></trkpt><trkpt lat="42.50042881032051" lon="13.552463918414444"><ele>1410.0</ele><time>2026-04-18T12:39:42.999Z</time></trkpt><trkpt lat="42.50037301696241" lon="13.552566055297829"><ele>1411.8</ele><time>2026-04-18T12:39:43.999Z</time></trkpt><trkpt lat="42.50030750895314" lon="13.552660869569154"><ele>1413.6</ele><time>2026-04-18T12:39:44.999Z</time></trkpt><trkpt lat="42.500243274486884" lon="13.552751349729352"><ele>1415.4</ele><time>2026-04-18T12:39:45.999Z</time></trkpt><trkpt lat="42.50017400709232" lon="13.552835948789026"><ele>1417.2</ele><time>2026-04-18T12:39:46.999Z</time></trkpt><trkpt lat="42.50010139289155" lon="13.552915288472702"><ele>1419.0</ele><time>2026-04-18T12:39:47.999Z</time></trkpt><trkpt lat="42.500028476774524" lon="13.552990062175619"><ele>1419.0</ele><time>2026-04-18T12:39:48.999Z</time></trkpt><trkpt lat="42.49995734506809" lon="13.553062904721715"><ele>1419.0</ele><time>2026-04-18T12:39:49.999Z</time></trkpt><trkpt lat="42.49988875300658" lon="13.553133804041758"><ele>1419.0</ele><time>2026-04-18T12:39:50.999Z</time></trkpt><trkpt lat="42.49982284041713" lon="13.55320737466612"><ele>1419.0</ele><time>2026-04-18T12:39:51.999Z</time></trkpt><trkpt lat="42.49976334282549" lon="13.553286112702542"><ele>1419.0</ele><time>2026-04-18T12:39:52.999Z</time></trkpt><trkpt lat="42.499711368039385" lon="13.553373727619464"><ele>1419.0</ele><time>2026-04-18T12:39:53.999Z</time></trkpt><trkpt lat="42.4996647612434" lon="13.553458450056235"><ele>1419.0</ele><time>2026-04-18T12:39:54.999Z</time></trkpt><trkpt lat="42.49963366771459" lon="13.553544258459496"><ele>1419.0</ele><time>2026-04-18T12:39:55.999Z</time></trkpt><trkpt lat="42.499596977147625" lon="13.553689592720438"><ele>1419.0</ele><time>2026-04-18T12:39:57.999Z</time></trkpt><trkpt lat="42.499589962108764" lon="13.553804900552038"><ele>1419.0</ele><time>2026-04-18T12:39:59.999Z</time></trkpt><trkpt lat="42.49958553572518" lon="13.553913051203681"><ele>1419.0</ele><time>2026-04-18T12:40:02.999Z</time></trkpt><trkpt lat="42.49957787854392" lon="13.553811321852173"><ele>1419.0</ele><time>2026-04-18T12:41:07Z</time></trkpt><trkpt lat="42.49960282771597" lon="13.553712490368953"><ele>1419.0</ele><time>2026-04-18T12:41:11Z</time></trkpt><trkpt lat="42.49962147055363" lon="13.553611923746999"><ele>1419.0</ele><time>2026-04-18T12:41:13.999Z</time></trkpt><trkpt lat="42.49964737575857" lon="13.553511447331116"><ele>1419.0</ele><time>2026-04-18T12:41:16.999Z</time></trkpt><trkpt lat="42.49970242121831" lon="13.553408163865125"><ele>1419.0</ele><time>2026-04-18T12:41:19.999Z</time></trkpt><trkpt lat="42.49973993997402" lon="13.553316849341757"><ele>1419.0</ele><time>2026-04-18T12:41:21.999Z</time></trkpt><trkpt lat="42.499799309365905" lon="13.55324279153636"><ele>1419.0</ele><time>2026-04-18T12:41:23.999Z</time></trkpt><trkpt lat="42.49985944276487" lon="13.553178203884105"><ele>1419.0</ele><time>2026-04-18T12:41:25.999Z</time></trkpt><trkpt lat="42.4999285063733" lon="13.553105315335722"><ele>1419.0</ele><time>2026-04-18T12:41:27.999Z</time></trkpt><trkpt lat="42.49999177479101" lon="13.553040264819336"><ele>1419.0</ele><time>2026-04-18T12:41:29.999Z</time></trkpt><trkpt lat="42.50006501573395" lon="13.552964960349321"><ele>1419.0</ele><time>2026-04-18T12:41:31.999Z</time></trkpt><trkpt lat="42.500135465971184" lon="13.552892524732876"><ele>1419.0</ele><time>2026-04-18T12:41:33.999Z</time></trkpt><trkpt lat="42.50019842154291" lon="13.55282570678617"><ele>1419.0</ele><time>2026-04-18T12:41:35.999Z</time></trkpt><trkpt lat="42.50025781420382" lon="13.55275457511369"><ele>1419.8333333333333</ele><time>2026-04-18T12:41:37.999Z</time></trkpt><trkpt lat="42.500319064915445" lon="13.552672841232727"><ele>1420.6666666666667</ele><time>2026-04-18T12:41:39.999Z</time></trkpt><trkpt lat="42.500373909571664" lon="13.552588429642004"><ele>1421.5</ele><time>2026-04-18T12:41:41.999Z</time></trkpt><trkpt lat="42.50041797725433" lon="13.55251384462941"><ele>1422.3333333333335</ele><time>2026-04-18T12:41:43.999Z</time></trkpt><trkpt lat="42.50046398325652" lon="13.552429866711895"><ele>1423.1666666666667</ele><time>2026-04-18T12:41:45.998Z</time></trkpt><trkpt lat="42.50050841598212" lon="13.552341691225958"><ele>1424.0</ele><time>2026-04-18T12:41:47.998Z</time></trkpt><trkpt lat="42.50057481379369" lon="13.55223490796919"><ele>1421.8000000000002</ele><time>2026-04-18T12:41:49.998Z</time></trkpt><trkpt lat="42.50062622158986" lon="13.552117234400471"><ele>1419.6000000000001</ele><time>2026-04-18T12:41:51.998Z</time></trkpt><trkpt lat="42.50066829819727" lon="13.552006881239407"><ele>1417.4</ele><time>2026-04-18T12:41:52.998Z</time></trkpt><trkpt lat="42.50070266039146" lon="13.551925837561363"><ele>1415.2</ele><time>2026-04-18T12:41:53.998Z</time></trkpt><trkpt lat="42.50076551606592" lon="13.55177591150541"><ele>1413.0</ele><time>2026-04-18T12:41:55.998Z</time></trkpt><trkpt lat="42.500820786572184" lon="13.551716113583627"><ele>1413.0</ele><time>2026-04-18T12:41:56.998Z</time></trkpt><trkpt lat="42.50085371902338" lon="13.55163797922257"><ele>1413.0</ele><time>2026-04-18T12:41:57.998Z</time></trkpt><trkpt lat="42.50088656741873" lon="13.551560044295504"><ele>1413.0</ele><time>2026-04-18T12:41:58.998Z</time></trkpt><trkpt lat="42.50092102820467" lon="13.551484458131208"><ele>1413.0</ele><time>2026-04-18T12:41:59.998Z</time></trkpt><trkpt lat="42.50095583960414" lon="13.551408601579363"><ele>1413.0</ele><time>2026-04-18T12:42:00.998Z</time></trkpt><trkpt lat="42.500992571367775" lon="13.551336849509589"><ele>1413.0</ele><time>2026-04-18T12:42:01.998Z</time></trkpt><trkpt lat="42.50102890974714" lon="13.551264590755292"><ele>1413.0</ele><time>2026-04-18T12:42:02.998Z</time></trkpt><trkpt lat="42.501066063163776" lon="13.551194061991373"><ele>1414.0</ele><time>2026-04-18T12:42:03.998Z</time></trkpt><trkpt lat="42.50109080153656" lon="13.55111261217774"><ele>1415.0</ele><time>2026-04-18T12:42:04.998Z</time></trkpt><trkpt lat="42.50113595438246" lon="13.551050301340203"><ele>1416.0</ele><time>2026-04-18T12:42:05.998Z</time></trkpt><trkpt lat="42.50119512987591" lon="13.551007968487644"><ele>1417.0</ele><time>2026-04-18T12:42:06.998Z</time></trkpt><trkpt lat="42.50123188922358" lon="13.5509330288391"><ele>1418.0</ele><time>2026-04-18T12:42:07.998Z</time></trkpt><trkpt lat="42.50128033746243" lon="13.550876401636064"><ele>1419.0</ele><time>2026-04-18T12:42:08.998Z</time></trkpt><trkpt lat="42.50132977399305" lon="13.55082023485131"><ele>1420.0</ele><time>2026-04-18T12:42:09.998Z</time></trkpt><trkpt lat="42.50137867643355" lon="13.550764991878033"><ele>1417.8333333333333</ele><time>2026-04-18T12:42:10.998Z</time></trkpt><trkpt lat="42.50142636919464" lon="13.550707445359711"><ele>1415.6666666666665</ele><time>2026-04-18T12:42:11.998Z</time></trkpt><trkpt lat="42.50152225672451" lon="13.550599722759122"><ele>1413.5</ele><time>2026-04-18T12:42:13.998Z</time></trkpt><trkpt lat="42.50161657453581" lon="13.550486039130515"><ele>1411.3333333333333</ele><time>2026-04-18T12:42:15.998Z</time></trkpt><trkpt lat="42.50166746186358" lon="13.55043272224862"><ele>1409.1666666666667</ele><time>2026-04-18T12:42:16.998Z</time></trkpt><trkpt lat="42.50172772747776" lon="13.550398801940592"><ele>1407.0</ele><time>2026-04-18T12:42:17.998Z</time></trkpt><trkpt lat="42.501783509773595" lon="13.550346417255716"><ele>1407.0</ele><time>2026-04-18T12:42:18.998Z</time></trkpt><trkpt lat="42.50183932393375" lon="13.550298269415977"><ele>1407.0</ele><time>2026-04-18T12:42:19.997Z</time></trkpt><trkpt lat="42.501897988131596" lon="13.550255458241486"><ele>1407.0</ele><time>2026-04-18T12:42:20.997Z</time></trkpt><trkpt lat="42.5019618684656" lon="13.550217628758862"><ele>1407.0</ele><time>2026-04-18T12:42:21.997Z</time></trkpt><trkpt lat="42.50202503860238" lon="13.550170434051747"><ele>1407.0</ele><time>2026-04-18T12:42:22.997Z</time></trkpt><trkpt lat="42.50209093731927" lon="13.550140774801326"><ele>1407.0</ele><time>2026-04-18T12:42:23.997Z</time></trkpt><trkpt lat="42.50215550198464" lon="13.55010755461711"><ele>1407.0</ele><time>2026-04-18T12:42:24.997Z</time></trkpt><trkpt lat="42.50221761645327" lon="13.550071412282861"><ele>1406.2857142857142</ele><time>2026-04-18T12:42:25.997Z</time></trkpt><trkpt lat="42.50228011407774" lon="13.550033163096884"><ele>1405.5714285714284</ele><time>2026-04-18T12:42:26.997Z</time></trkpt><trkpt lat="42.502347209035506" lon="13.550005106121999"><ele>1404.857142857143</ele><time>2026-04-18T12:42:27.997Z</time></trkpt><trkpt lat="42.50241437510851" lon="13.549977981977506"><ele>1404.142857142857</ele><time>2026-04-18T12:42:28.997Z</time></trkpt><trkpt lat="42.50248361147384" lon="13.549955237811913"><ele>1403.4285714285713</ele><time>2026-04-18T12:42:29.997Z</time></trkpt><trkpt lat="42.50255328065896" lon="13.54993241423713"><ele>1402.7142857142858</ele><time>2026-04-18T12:42:30.997Z</time></trkpt><trkpt lat="42.502624905654095" lon="13.54990964240466"><ele>1402.0</ele><time>2026-04-18T12:42:31.997Z</time></trkpt><trkpt lat="42.50269617047259" lon="13.549885946009047"><ele>1402.0</ele><time>2026-04-18T12:42:32.997Z</time></trkpt><trkpt lat="42.50276719841849" lon="13.549870433587092"><ele>1402.0</ele><time>2026-04-18T12:42:33.997Z</time></trkpt><trkpt lat="42.50283801797172" lon="13.549866998308897"><ele>1402.0</ele><time>2026-04-18T12:42:34.997Z</time></trkpt><trkpt lat="42.50290907432835" lon="13.549859199665416"><ele>1402.0</ele><time>2026-04-18T12:42:35.997Z</time></trkpt><trkpt lat="42.50298349042646" lon="13.549851461902204"><ele>1402.0</ele><time>2026-04-18T12:42:36.997Z</time></trkpt><trkpt lat="42.503060382920964" lon="13.549842193190234"><ele>1402.0</ele><time>2026-04-18T12:42:37.997Z</time></trkpt><trkpt lat="42.50314004272583" lon="13.549848514119024"><ele>1402.0</ele><time>2026-04-18T12:42:38.997Z</time></trkpt><trkpt lat="42.50322593468361" lon="13.549871690380746"><ele>1402.0</ele><time>2026-04-18T12:42:39.997Z</time></trkpt><trkpt lat="42.50331756096772" lon="13.549904076613606"><ele>1402.0</ele><time>2026-04-18T12:42:40.997Z</time></trkpt><trkpt lat="42.50340717126891" lon="13.54994201382833"><ele>1402.0</ele><time>2026-04-18T12:42:41.997Z</time></trkpt><trkpt lat="42.50350095575655" lon="13.550004329827821"><ele>1402.0</ele><time>2026-04-18T12:42:42.997Z</time></trkpt><trkpt lat="42.50358458602572" lon="13.550055280054371"><ele>1402.0</ele><time>2026-04-18T12:42:43.997Z</time></trkpt><trkpt lat="42.50367352176057" lon="13.550114924252995"><ele>1403.3999999999999</ele><time>2026-04-18T12:42:44.997Z</time></trkpt><trkpt lat="42.50376019016863" lon="13.550185349639108"><ele>1404.8</ele><time>2026-04-18T12:42:45.997Z</time></trkpt><trkpt lat="42.50384261170344" lon="13.550259715623431"><ele>1406.2</ele><time>2026-04-18T12:42:46.997Z</time></trkpt><trkpt lat="42.503928314804746" lon="13.550335387113957"><ele>1407.6</ele><time>2026-04-18T12:42:47.997Z</time></trkpt><trkpt lat="42.50401381793498" lon="13.55040990113172"><ele>1409.0</ele><time>2026-04-18T12:42:48.997Z</time></trkpt><trkpt lat="42.50409562753556" lon="13.550491850595526"><ele>1404.8000000000002</ele><time>2026-04-18T12:42:49.997Z</time></trkpt><trkpt lat="42.50417695806808" lon="13.550574090114617"><ele>1400.6000000000001</ele><time>2026-04-18T12:42:50.997Z</time></trkpt><trkpt lat="42.50425916559698" lon="13.550660914035154"><ele>1396.4</ele><time>2026-04-18T12:42:52Z</time></trkpt><trkpt lat="42.50434065968463" lon="13.550747447326367"><ele>1392.2</ele><time>2026-04-18T12:42:53Z</time></trkpt><trkpt lat="42.50442367529589" lon="13.550834209088231"><ele>1388.0</ele><time>2026-04-18T12:42:54Z</time></trkpt><trkpt lat="42.5045052152579" lon="13.55091907746976"><ele>1388.4</ele><time>2026-04-18T12:42:55Z</time></trkpt><trkpt lat="42.50458492607446" lon="13.551007938949242"><ele>1388.8000000000002</ele><time>2026-04-18T12:42:56Z</time></trkpt><trkpt lat="42.50467195788671" lon="13.55109114667258"><ele>1389.2</ele><time>2026-04-18T12:42:57Z</time></trkpt><trkpt lat="42.504758653951406" lon="13.551170754086069"><ele>1389.6</ele><time>2026-04-18T12:42:58Z</time></trkpt><trkpt lat="42.50485488145685" lon="13.551237592102977"><ele>1390.0</ele><time>2026-04-18T12:42:59Z</time></trkpt><trkpt lat="42.5049579063575" lon="13.55128595157396"><ele>1388.0</ele><time>2026-04-18T12:43:00Z</time></trkpt><trkpt lat="42.50506314926494" lon="13.551323139994839"><ele>1386.0</ele><time>2026-04-18T12:43:01Z</time></trkpt><trkpt lat="42.50516980432964" lon="13.551360412940394"><ele>1384.0</ele><time>2026-04-18T12:43:02Z</time></trkpt><trkpt lat="42.50527424360542" lon="13.551401994116436"><ele>1382.0</ele><time>2026-04-18T12:43:03Z</time></trkpt><trkpt lat="42.505379742553174" lon="13.551446342038384"><ele>1380.0</ele><time>2026-04-18T12:43:04Z</time></trkpt><trkpt lat="42.50548573586845" lon="13.551500582730732"><ele>1378.75</ele><time>2026-04-18T12:43:05Z</time></trkpt><trkpt lat="42.50558779494421" lon="13.551574066187518"><ele>1377.5</ele><time>2026-04-18T12:43:06Z</time></trkpt><trkpt lat="42.50567994104116" lon="13.551664845296152"><ele>1376.25</ele><time>2026-04-18T12:43:07Z</time></trkpt><trkpt lat="42.50576811297642" lon="13.551771929842541"><ele>1375.0</ele><time>2026-04-18T12:43:08Z</time></trkpt><trkpt lat="42.50585705282941" lon="13.551884792489316"><ele>1375.0</ele><time>2026-04-18T12:43:09Z</time></trkpt><trkpt lat="42.50594117163365" lon="13.55200286375374"><ele>1375.0</ele><time>2026-04-18T12:43:10Z</time></trkpt><trkpt lat="42.5060225949457" lon="13.55212063172506"><ele>1375.0</ele><time>2026-04-18T12:43:11Z</time></trkpt><trkpt lat="42.50610701290456" lon="13.552233212380607"><ele>1375.0</ele><time>2026-04-18T12:43:12Z</time></trkpt><trkpt lat="42.506190135743466" lon="13.55233937400522"><ele>1373.8</ele><time>2026-04-18T12:43:13Z</time></trkpt><trkpt lat="42.50626881418812" lon="13.552445668366149"><ele>1372.6</ele><time>2026-04-18T12:43:14Z</time></trkpt><trkpt lat="42.50634998175882" lon="13.552545982454477"><ele>1371.4</ele><time>2026-04-18T12:43:15Z</time></trkpt><trkpt lat="42.50643458888537" lon="13.552636898331253"><ele>1370.2</ele><time>2026-04-18T12:43:16Z</time></trkpt><trkpt lat="42.506524760218326" lon="13.552728687263675"><ele>1369.0</ele><time>2026-04-18T12:43:17Z</time></trkpt><trkpt lat="42.50662205601576" lon="13.55280977255972"><ele>1369.0</ele><time>2026-04-18T12:43:18Z</time></trkpt><trkpt lat="42.506722930442706" lon="13.552883994654623"><ele>1369.0</ele><time>2026-04-18T12:43:19Z</time></trkpt><trkpt lat="42.506826098134844" lon="13.55294782985085"><ele>1369.0</ele><time>2026-04-18T12:43:19.999Z</time></trkpt><trkpt lat="42.50691925383493" lon="13.552993946971958"><ele>1369.0</ele><time>2026-04-18T12:43:20.999Z</time></trkpt><trkpt lat="42.50699034601495" lon="13.55302859800971"><ele>1369.0</ele><time>2026-04-18T12:43:21.999Z</time></trkpt><trkpt lat="42.50705203579674" lon="13.55306828932934"><ele>1368.6666666666665</ele><time>2026-04-18T12:43:23.999Z</time></trkpt><trkpt lat="42.50712185639816" lon="13.5531062068963"><ele>1368.3333333333333</ele><time>2026-04-18T12:43:35.999Z</time></trkpt><trkpt lat="42.50722634923516" lon="13.553183261898088"><ele>1368.0</ele><time>2026-04-18T12:43:37.999Z</time></trkpt><trkpt lat="42.50728128289998" lon="13.55323367114493"><ele>1367.6666666666667</ele><time>2026-04-18T12:43:38.999Z</time></trkpt><trkpt lat="42.50733635324789" lon="13.55329344163489"><ele>1367.3333333333335</ele><time>2026-04-18T12:43:39.999Z</time></trkpt><trkpt lat="42.50738379876848" lon="13.553362543099603"><ele>1367.0</ele><time>2026-04-18T12:43:40.999Z</time></trkpt><trkpt lat="42.50742058261402" lon="13.5534403021952"><ele>1367.0</ele><time>2026-04-18T12:43:41.999Z</time></trkpt><trkpt lat="42.50744468465772" lon="13.55352968075983"><ele>1367.0</ele><time>2026-04-18T12:43:42.999Z</time></trkpt><trkpt lat="42.507452511539334" lon="13.553616022214607"><ele>1367.0</ele><time>2026-04-18T12:43:43.999Z</time></trkpt><trkpt lat="42.50744798654817" lon="13.553703100951104"><ele>1367.0</ele><time>2026-04-18T12:43:44.999Z</time></trkpt><trkpt lat="42.507383742460874" lon="13.553837008337304"><ele>1367.0</ele><time>2026-04-18T12:43:46.999Z</time></trkpt><trkpt lat="42.50730837657203" lon="13.553949256507545"><ele>1367.0</ele><time>2026-04-18T12:43:48.999Z</time></trkpt><trkpt lat="42.50722076807903" lon="13.554048950190376"><ele>1367.0</ele><time>2026-04-18T12:43:50.999Z</time></trkpt><trkpt lat="42.50720110422066" lon="13.554130266737983"><ele>1367.0</ele><time>2026-04-18T12:43:51.999Z</time></trkpt><trkpt lat="42.507144577113124" lon="13.55424001320882"><ele>1367.0</ele><time>2026-04-18T12:43:53.998Z</time></trkpt><trkpt lat="42.50719939162434" lon="13.554186492295454"><ele>1367.0</ele><time>2026-04-18T12:44:27.997Z</time></trkpt><trkpt lat="42.507162423560516" lon="13.554284006642398"><ele>1367.0</ele><time>2026-04-18T12:46:38.997Z</time></trkpt><trkpt lat="42.50708673963414" lon="13.554412351815774"><ele>1367.0</ele><time>2026-04-18T12:46:40.997Z</time></trkpt><trkpt lat="42.50704702796545" lon="13.554517652907494"><ele>1368.0</ele><time>2026-04-18T12:46:41.997Z</time></trkpt><trkpt lat="42.50701802832265" lon="13.554626374341227"><ele>1369.0</ele><time>2026-04-18T12:46:42.997Z</time></trkpt><trkpt lat="42.50699413284325" lon="13.55472697391618"><ele>1370.0</ele><time>2026-04-18T12:46:43.997Z</time></trkpt><trkpt lat="42.506921906643555" lon="13.55493077268481"><ele>1371.0</ele><time>2026-04-18T12:46:44.997Z</time></trkpt><trkpt lat="42.50686578745202" lon="13.555041621507565"><ele>1372.0</ele><time>2026-04-18T12:46:45.997Z</time></trkpt><trkpt lat="42.50679326139806" lon="13.555145525602152"><ele>1372.0</ele><time>2026-04-18T12:46:46.997Z</time></trkpt><trkpt lat="42.50671025731547" lon="13.555242455848253"><ele>1372.0</ele><time>2026-04-18T12:46:47.997Z</time></trkpt><trkpt lat="42.50662370973636" lon="13.555340474129592"><ele>1372.0</ele><time>2026-04-18T12:46:48.997Z</time></trkpt><trkpt lat="42.50653359396641" lon="13.555439669933648"><ele>1372.0</ele><time>2026-04-18T12:46:49.997Z</time></trkpt><trkpt lat="42.50644193302833" lon="13.555540755843342"><ele>1372.25</ele><time>2026-04-18T12:46:50.997Z</time></trkpt><trkpt lat="42.5063471723547" lon="13.555636418314196"><ele>1372.5</ele><time>2026-04-18T12:46:51.997Z</time></trkpt><trkpt lat="42.50625604887869" lon="13.55573105603316"><ele>1372.75</ele><time>2026-04-18T12:46:52.997Z</time></trkpt><trkpt lat="42.50616854574789" lon="13.555826043135848"><ele>1373.0</ele><time>2026-04-18T12:46:53.997Z</time></trkpt><trkpt lat="42.5060795211172" lon="13.55591764074994"><ele>1373.8000000000002</ele><time>2026-04-18T12:46:54.997Z</time></trkpt><trkpt lat="42.505987380674256" lon="13.556000255924816"><ele>1374.6</ele><time>2026-04-18T12:46:55.997Z</time></trkpt><trkpt lat="42.505889725572764" lon="13.556064829621356"><ele>1375.4</ele><time>2026-04-18T12:46:56.997Z</time></trkpt><trkpt lat="42.50578703098247" lon="13.556111375986593"><ele>1376.1999999999998</ele><time>2026-04-18T12:46:57.997Z</time></trkpt><trkpt lat="42.50567824090057" lon="13.556089706075262"><ele>1377.0</ele><time>2026-04-18T12:46:58.997Z</time></trkpt><trkpt lat="42.50557317043792" lon="13.556068146022433"><ele>1377.0</ele><time>2026-04-18T12:46:59.997Z</time></trkpt><trkpt lat="42.50546954397978" lon="13.556046072154164"><ele>1377.0</ele><time>2026-04-18T12:47:00.997Z</time></trkpt><trkpt lat="42.50536185919138" lon="13.556037456525287"><ele>1377.0</ele><time>2026-04-18T12:47:01.997Z</time></trkpt><trkpt lat="42.50525779204189" lon="13.556002705766904"><ele>1377.0</ele><time>2026-04-18T12:47:02.999Z</time></trkpt><trkpt lat="42.505153548083165" lon="13.555971850015611"><ele>1377.0</ele><time>2026-04-18T12:47:03.999Z</time></trkpt><trkpt lat="42.505048747803585" lon="13.555942789352999"><ele>1376.8</ele><time>2026-04-18T12:47:04.999Z</time></trkpt><trkpt lat="42.504951657803424" lon="13.555879300851366"><ele>1376.6</ele><time>2026-04-18T12:47:05.999Z</time></trkpt><trkpt lat="42.504847839400156" lon="13.55584103069171"><ele>1376.3999999999999</ele><time>2026-04-18T12:47:06.999Z</time></trkpt><trkpt lat="42.50474252722027" lon="13.5558057998131"><ele>1376.1999999999998</ele><time>2026-04-18T12:47:07.999Z</time></trkpt><trkpt lat="42.50463756147542" lon="13.555770684831508"><ele>1376.0</ele><time>2026-04-18T12:47:08.999Z</time></trkpt><trkpt lat="42.504532900069954" lon="13.55573660520341"><ele>1376.4</ele><time>2026-04-18T12:47:09.999Z</time></trkpt><trkpt lat="42.50442407879184" lon="13.55572720977127"><ele>1376.8</ele><time>2026-04-18T12:47:10.999Z</time></trkpt><trkpt lat="42.504321163603514" lon="13.555697679168466"><ele>1377.2</ele><time>2026-04-18T12:47:11.999Z</time></trkpt><trkpt lat="42.504215927191645" lon="13.555688760550844"><ele>1377.6000000000001</ele><time>2026-04-18T12:47:12.999Z</time></trkpt><trkpt lat="42.5041117530918" lon="13.555685461877204"><ele>1378.0</ele><time>2026-04-18T12:47:13.999Z</time></trkpt><trkpt lat="42.50400880964858" lon="13.555689124273766"><ele>1378.0</ele><time>2026-04-18T12:47:14.999Z</time></trkpt><trkpt lat="42.50390671533019" lon="13.55570291464311"><ele>1378.0</ele><time>2026-04-18T12:47:15.999Z</time></trkpt><trkpt lat="42.50380280696104" lon="13.555714849027009"><ele>1378.0</ele><time>2026-04-18T12:47:16.999Z</time></trkpt><trkpt lat="42.50369851223111" lon="13.555733373837816"><ele>1378.0</ele><time>2026-04-18T12:47:17.999Z</time></trkpt><trkpt lat="42.50359823128964" lon="13.555758974989288"><ele>1378.0</ele><time>2026-04-18T12:47:18.999Z</time></trkpt><trkpt lat="42.50349935028305" lon="13.555789256262438"><ele>1380.4</ele><time>2026-04-18T12:47:19.999Z</time></trkpt><trkpt lat="42.5033964801685" lon="13.555800728246147"><ele>1382.8000000000002</ele><time>2026-04-18T12:47:20.999Z</time></trkpt><trkpt lat="42.50330133353304" lon="13.555857828374618"><ele>1385.2</ele><time>2026-04-18T12:47:21.999Z</time></trkpt><trkpt lat="42.503228589847105" lon="13.555962718150369"><ele>1387.6</ele><time>2026-04-18T12:47:22.999Z</time></trkpt><trkpt lat="42.50315167132242" lon="13.556053756643607"><ele>1390.0</ele><time>2026-04-18T12:47:23.999Z</time></trkpt><trkpt lat="42.50309208285558" lon="13.556170653415846"><ele>1390.2</ele><time>2026-04-18T12:47:24.999Z</time></trkpt><trkpt lat="42.503050758333906" lon="13.55630009908382"><ele>1390.4</ele><time>2026-04-18T12:47:25.999Z</time></trkpt><trkpt lat="42.503024853026766" lon="13.55643415983886"><ele>1390.6</ele><time>2026-04-18T12:47:26.999Z</time></trkpt><trkpt lat="42.503014603075336" lon="13.556574269491746"><ele>1390.8</ele><time>2026-04-18T12:47:27.999Z</time></trkpt><trkpt lat="42.50302305810394" lon="13.55671348590507"><ele>1391.0</ele><time>2026-04-18T12:47:28.999Z</time></trkpt><trkpt lat="42.503043638986625" lon="13.556854661325191"><ele>1391.0</ele><time>2026-04-18T12:47:29.999Z</time></trkpt><trkpt lat="42.503076313535274" lon="13.5569915306588"><ele>1391.0</ele><time>2026-04-18T12:47:30.999Z</time></trkpt><trkpt lat="42.5031167554996" lon="13.55712457896768"><ele>1391.0</ele><time>2026-04-18T12:47:31.999Z</time></trkpt><trkpt lat="42.503166278397664" lon="13.55724969272462"><ele>1391.0</ele><time>2026-04-18T12:47:32.999Z</time></trkpt><trkpt lat="42.5032257480628" lon="13.557368076785313"><ele>1391.0</ele><time>2026-04-18T12:47:33.999Z</time></trkpt><trkpt lat="42.50329227659993" lon="13.557485073121557"><ele>1392.75</ele><time>2026-04-18T12:47:34.999Z</time></trkpt><trkpt lat="42.503359176556096" lon="13.557605402304045"><ele>1394.5</ele><time>2026-04-18T12:47:35.999Z</time></trkpt><trkpt lat="42.50342920085261" lon="13.557726173716185"><ele>1396.25</ele><time>2026-04-18T12:47:36.999Z</time></trkpt><trkpt lat="42.50350010736412" lon="13.557849296857459"><ele>1398.0</ele><time>2026-04-18T12:47:37.999Z</time></trkpt><trkpt lat="42.50356818613506" lon="13.557975480075749"><ele>1396.75</ele><time>2026-04-18T12:47:38.999Z</time></trkpt><trkpt lat="42.50363149637331" lon="13.55810885009701"><ele>1395.5</ele><time>2026-04-18T12:47:39.999Z</time></trkpt><trkpt lat="42.50369000474302" lon="13.5582458446119"><ele>1394.25</ele><time>2026-04-18T12:47:40.999Z</time></trkpt><trkpt lat="42.50373590375499" lon="13.558386557985358"><ele>1393.0</ele><time>2026-04-18T12:47:41.999Z</time></trkpt><trkpt lat="42.50376478231666" lon="13.558531157260365"><ele>1393.0</ele><time>2026-04-18T12:47:42.999Z</time></trkpt><trkpt lat="42.5037725192952" lon="13.55867782414644"><ele>1393.0</ele><time>2026-04-18T12:47:43.999Z</time></trkpt><trkpt lat="42.503751385052375" lon="13.558828132515252"><ele>1393.0</ele><time>2026-04-18T12:47:44.999Z</time></trkpt><trkpt lat="42.50371374186389" lon="13.558977162669127"><ele>1393.0</ele><time>2026-04-18T12:47:45.999Z</time></trkpt><trkpt lat="42.50366776793723" lon="13.559128833656894"><ele>1399.0</ele><time>2026-04-18T12:47:46.999Z</time></trkpt><trkpt lat="42.50361725636981" lon="13.55928126242188"><ele>1405.0</ele><time>2026-04-18T12:47:47.999Z</time></trkpt><trkpt lat="42.50356820282512" lon="13.559434328828221"><ele>1411.0</ele><time>2026-04-18T12:47:48.999Z</time></trkpt><trkpt lat="42.50352698669844" lon="13.55958979118321"><ele>1417.0</ele><time>2026-04-18T12:47:49.999Z</time></trkpt><trkpt lat="42.50349662518287" lon="13.559750050131003"><ele>1417.5</ele><time>2026-04-18T12:47:50.998Z</time></trkpt><trkpt lat="42.50348572407082" lon="13.559914526654998"><ele>1418.0</ele><time>2026-04-18T12:47:51.998Z</time></trkpt><trkpt lat="42.50350423588843" lon="13.560075778089518"><ele>1418.5</ele><time>2026-04-18T12:47:52.998Z</time></trkpt><trkpt lat="42.50355127622157" lon="13.560221163267023"><ele>1419.0</ele><time>2026-04-18T12:47:53.998Z</time></trkpt><trkpt lat="42.503623028035044" lon="13.56034358289097"><ele>1418.75</ele><time>2026-04-18T12:47:54.998Z</time></trkpt><trkpt lat="42.503713752991324" lon="13.560446676035404"><ele>1418.5</ele><time>2026-04-18T12:47:55.998Z</time></trkpt><trkpt lat="42.50381514151842" lon="13.560527375417175"><ele>1418.25</ele><time>2026-04-18T12:47:56.998Z</time></trkpt><trkpt lat="42.50391717236492" lon="13.560587810488572"><ele>1418.0</ele><time>2026-04-18T12:47:57.998Z</time></trkpt><trkpt lat="42.504028630984656" lon="13.560644561676412"><ele>1418.0</ele><time>2026-04-18T12:47:58.998Z</time></trkpt><trkpt lat="42.504141571151585" lon="13.560685775000238"><ele>1418.0</ele><time>2026-04-18T12:47:59.998Z</time></trkpt><trkpt lat="42.50425450671639" lon="13.560721246174385"><ele>1418.0</ele><time>2026-04-18T12:48:00.998Z</time></trkpt><trkpt lat="42.50436771153985" lon="13.560755774205854"><ele>1418.0</ele><time>2026-04-18T12:48:01.998Z</time></trkpt><trkpt lat="42.504466152659916" lon="13.560789049409545"><ele>1418.0</ele><time>2026-04-18T12:48:02.998Z</time></trkpt><trkpt lat="42.504550453193346" lon="13.560826739746439"><ele>1418.0</ele><time>2026-04-18T12:48:03.998Z</time></trkpt><trkpt lat="42.504626784456306" lon="13.560868955123075"><ele>1418.0</ele><time>2026-04-18T12:48:04.998Z</time></trkpt><trkpt lat="42.50468012936018" lon="13.560929471603378"><ele>1418.0</ele><time>2026-04-18T12:48:05.998Z</time></trkpt><trkpt lat="42.504754410356384" lon="13.560993938346968"><ele>1418.0</ele><time>2026-04-18T12:48:07.998Z</time></trkpt><trkpt lat="42.50473322383475" lon="13.561215532694396"><ele>1417.8000000000002</ele><time>2026-04-18T12:48:09.998Z</time></trkpt><trkpt lat="42.50477871047968" lon="13.561287905131858"><ele>1417.6</ele><time>2026-04-18T12:48:10.998Z</time></trkpt><trkpt lat="42.50486621935316" lon="13.561359364032729"><ele>1417.4</ele><time>2026-04-18T12:48:11.998Z</time></trkpt><trkpt lat="42.50496630216913" lon="13.561440734739358"><ele>1417.1999999999998</ele><time>2026-04-18T12:48:12.998Z</time></trkpt><trkpt lat="42.50507245499804" lon="13.561531743990399"><ele>1417.0</ele><time>2026-04-18T12:48:13.998Z</time></trkpt><trkpt lat="42.50518143201004" lon="13.561641423660264"><ele>1417.0</ele><time>2026-04-18T12:48:14.998Z</time></trkpt><trkpt lat="42.50530542780244" lon="13.561753487056759"><ele>1417.0</ele><time>2026-04-18T12:48:15.998Z</time></trkpt><trkpt lat="42.505442962392195" lon="13.561852763633077"><ele>1417.0</ele><time>2026-04-18T12:48:16.998Z</time></trkpt><trkpt lat="42.50558751458273" lon="13.561943315385824"><ele>1418.6666666666665</ele><time>2026-04-18T12:48:17.998Z</time></trkpt><trkpt lat="42.50573903016647" lon="13.562034827954342"><ele>1420.3333333333333</ele><time>2026-04-18T12:48:18.998Z</time></trkpt><trkpt lat="42.50589575393809" lon="13.56212470825911"><ele>1422.0</ele><time>2026-04-18T12:48:19.998Z</time></trkpt><trkpt lat="42.506050807475674" lon="13.562208402553141"><ele>1422.0</ele><time>2026-04-18T12:48:20.998Z</time></trkpt><trkpt lat="42.50620073590933" lon="13.562300146132545"><ele>1422.0</ele><time>2026-04-18T12:48:21.998Z</time></trkpt><trkpt lat="42.50636090855096" lon="13.562402203104417"><ele>1422.0</ele><time>2026-04-18T12:48:22.998Z</time></trkpt><trkpt lat="42.50651720169726" lon="13.562497138895372"><ele>1416.3333333333333</ele><time>2026-04-18T12:48:23.998Z</time></trkpt><trkpt lat="42.50666834994418" lon="13.56259390738727"><ele>1410.6666666666665</ele><time>2026-04-18T12:48:24.998Z</time></trkpt><trkpt lat="42.506811669447316" lon="13.562688471672056"><ele>1405.0</ele><time>2026-04-18T12:48:25.998Z</time></trkpt><trkpt lat="42.50695419486652" lon="13.562789182281596"><ele>1402.3333333333333</ele><time>2026-04-18T12:48:26.998Z</time></trkpt><trkpt lat="42.50708926782142" lon="13.562894740756558"><ele>1399.6666666666667</ele><time>2026-04-18T12:48:27.998Z</time></trkpt><trkpt lat="42.507220906463175" lon="13.56299446086854"><ele>1397.0</ele><time>2026-04-18T12:48:28.997Z</time></trkpt><trkpt lat="42.507357554793785" lon="13.56309997601415"><ele>1397.0</ele><time>2026-04-18T12:48:29.997Z</time></trkpt><trkpt lat="42.50748638584134" lon="13.563206884212393"><ele>1397.0</ele><time>2026-04-18T12:48:30.997Z</time></trkpt><trkpt lat="42.50760790940191" lon="13.563320303130142"><ele>1397.0</ele><time>2026-04-18T12:48:31.997Z</time></trkpt><trkpt lat="42.50772563500824" lon="13.563432355929976"><ele>1397.0</ele><time>2026-04-18T12:48:32.997Z</time></trkpt><trkpt lat="42.50783829018384" lon="13.563543201445224"><ele>1396.0</ele><time>2026-04-18T12:48:33.997Z</time></trkpt><trkpt lat="42.507956551714315" lon="13.56364896704236"><ele>1395.0</ele><time>2026-04-18T12:48:34.997Z</time></trkpt><trkpt lat="42.50808376703421" lon="13.563748570064151"><ele>1394.0</ele><time>2026-04-18T12:48:35.997Z</time></trkpt><trkpt lat="42.508216901322356" lon="13.563847649717882"><ele>1393.0</ele><time>2026-04-18T12:48:36.997Z</time></trkpt><trkpt lat="42.50834933007755" lon="13.563941951767417"><ele>1393.0</ele><time>2026-04-18T12:48:37.997Z</time></trkpt><trkpt lat="42.50848815129682" lon="13.564019989015588"><ele>1393.0</ele><time>2026-04-18T12:48:38.997Z</time></trkpt><trkpt lat="42.50863680155503" lon="13.56406741331607"><ele>1393.0</ele><time>2026-04-18T12:48:39.997Z</time></trkpt><trkpt lat="42.50879471253928" lon="13.564075587896705"><ele>1388.6666666666665</ele><time>2026-04-18T12:48:40.997Z</time></trkpt><trkpt lat="42.508952691667965" lon="13.564061751805236"><ele>1384.3333333333333</ele><time>2026-04-18T12:48:41.997Z</time></trkpt><trkpt lat="42.509104396438275" lon="13.56403333399559"><ele>1380.0</ele><time>2026-04-18T12:48:42.997Z</time></trkpt><trkpt lat="42.509254911355015" lon="13.564023316661023"><ele>1380.0</ele><time>2026-04-18T12:48:43.997Z</time></trkpt><trkpt lat="42.50939719832955" lon="13.563964252771761"><ele>1380.0</ele><time>2026-04-18T12:48:44.997Z</time></trkpt><trkpt lat="42.50953292358167" lon="13.563869771554236"><ele>1380.0</ele><time>2026-04-18T12:48:45.997Z</time></trkpt><trkpt lat="42.50965212255807" lon="13.563760879922127"><ele>1380.0</ele><time>2026-04-18T12:48:46.997Z</time></trkpt><trkpt lat="42.509786221115824" lon="13.563694934024033"><ele>1374.5</ele><time>2026-04-18T12:48:47.997Z</time></trkpt><trkpt lat="42.50992934697824" lon="13.563685249220729"><ele>1369.0</ele><time>2026-04-18T12:48:48.997Z</time></trkpt><trkpt lat="42.510072083434096" lon="13.56364672170049"><ele>1363.5</ele><time>2026-04-18T12:48:49.997Z</time></trkpt><trkpt lat="42.510215561172814" lon="13.563632028800596"><ele>1358.0</ele><time>2026-04-18T12:48:50.997Z</time></trkpt><trkpt lat="42.51035601727494" lon="13.563614137154522"><ele>1357.25</ele><time>2026-04-18T12:48:51.997Z</time></trkpt><trkpt lat="42.510492726216945" lon="13.563604292246024"><ele>1356.5</ele><time>2026-04-18T12:48:52.997Z</time></trkpt><trkpt lat="42.51061893385503" lon="13.563616052100317"><ele>1355.75</ele><time>2026-04-18T12:48:53.997Z</time></trkpt><trkpt lat="42.51074093084785" lon="13.56366355652657"><ele>1355.0</ele><time>2026-04-18T12:48:54.997Z</time></trkpt><trkpt lat="42.510854870850736" lon="13.563754439062034"><ele>1353.0</ele><time>2026-04-18T12:48:55.997Z</time></trkpt><trkpt lat="42.51096813254947" lon="13.563856592151405"><ele>1351.0</ele><time>2026-04-18T12:48:56.997Z</time></trkpt><trkpt lat="42.51108622967114" lon="13.56395662647384"><ele>1349.0</ele><time>2026-04-18T12:48:57.997Z</time></trkpt><trkpt lat="42.51120799984391" lon="13.564068984782635"><ele>1347.0</ele><time>2026-04-18T12:48:58.997Z</time></trkpt><trkpt lat="42.51131264971258" lon="13.564199267377658"><ele>1347.0</ele><time>2026-04-18T12:48:59.997Z</time></trkpt><trkpt lat="42.511396786949085" lon="13.56435853988701"><ele>1347.0</ele><time>2026-04-18T12:49:00.997Z</time></trkpt><trkpt lat="42.511454243100154" lon="13.564531806185581"><ele>1347.0</ele><time>2026-04-18T12:49:01.997Z</time></trkpt><trkpt lat="42.51151543887276" lon="13.564704358714172"><ele>1347.0</ele><time>2026-04-18T12:49:02.997Z</time></trkpt><trkpt lat="42.511595769835026" lon="13.564859013317767"><ele>1345.25</ele><time>2026-04-18T12:49:03.997Z</time></trkpt><trkpt lat="42.51169456546144" lon="13.564989363771096"><ele>1343.5</ele><time>2026-04-18T12:49:04.996Z</time></trkpt><trkpt lat="42.51181092489376" lon="13.565091707788264"><ele>1341.75</ele><time>2026-04-18T12:49:05.996Z</time></trkpt><trkpt lat="42.51194381708348" lon="13.56515154565688"><ele>1340.0</ele><time>2026-04-18T12:49:06.996Z</time></trkpt><trkpt lat="42.512083906056596" lon="13.565184172134098"><ele>1340.0</ele><time>2026-04-18T12:49:07.996Z</time></trkpt><trkpt lat="42.51222857135233" lon="13.56520669798412"><ele>1340.0</ele><time>2026-04-18T12:49:08.999Z</time></trkpt><trkpt lat="42.51237629291019" lon="13.565223172117683"><ele>1340.0</ele><time>2026-04-18T12:49:09.999Z</time></trkpt><trkpt lat="42.51252282696297" lon="13.565250977924475"><ele>1340.0</ele><time>2026-04-18T12:49:10.999Z</time></trkpt><trkpt lat="42.51267326911542" lon="13.565233380579672"><ele>1340.0</ele><time>2026-04-18T12:49:11.999Z</time></trkpt><trkpt lat="42.51282415662873" lon="13.56519991077043"><ele>1340.0</ele><time>2026-04-18T12:49:12.999Z</time></trkpt><trkpt lat="42.512973246129114" lon="13.565165611893638"><ele>1340.0</ele><time>2026-04-18T12:49:13.999Z</time></trkpt><trkpt lat="42.51312321558627" lon="13.565131556394947"><ele>1339.0</ele><time>2026-04-18T12:49:14.999Z</time></trkpt><trkpt lat="42.513266551051615" lon="13.5650992498522"><ele>1338.0</ele><time>2026-04-18T12:49:15.999Z</time></trkpt><trkpt lat="42.51340502835274" lon="13.565048554485994"><ele>1337.0</ele><time>2026-04-18T12:49:16.999Z</time></trkpt><trkpt lat="42.51354651805184" lon="13.56505143403514"><ele>1336.0</ele><time>2026-04-18T12:49:17.999Z</time></trkpt><trkpt lat="42.51368778265521" lon="13.56508190970272"><ele>1333.0</ele><time>2026-04-18T12:49:18.999Z</time></trkpt><trkpt lat="42.51382580784542" lon="13.56512691507287"><ele>1330.0</ele><time>2026-04-18T12:49:19.999Z</time></trkpt><trkpt lat="42.51396169421425" lon="13.56518009726749"><ele>1327.0</ele><time>2026-04-18T12:49:20.999Z</time></trkpt><trkpt lat="42.514092352645804" lon="13.565245488431497"><ele>1324.0</ele><time>2026-04-18T12:49:21.999Z</time></trkpt><trkpt lat="42.51421849488717" lon="13.565329442008775"><ele>1323.5</ele><time>2026-04-18T12:49:22.999Z</time></trkpt><trkpt lat="42.51433442587493" lon="13.565444024762169"><ele>1323.0</ele><time>2026-04-18T12:49:23.999Z</time></trkpt><trkpt lat="42.51443970216663" lon="13.56557990023618"><ele>1322.5</ele><time>2026-04-18T12:49:24.999Z</time></trkpt><trkpt lat="42.51453859846341" lon="13.565721929104845"><ele>1322.0</ele><time>2026-04-18T12:49:25.999Z</time></trkpt><trkpt lat="42.51463914642703" lon="13.565872834674257"><ele>1322.0</ele><time>2026-04-18T12:49:26.999Z</time></trkpt><trkpt lat="42.51474114895785" lon="13.566027561498654"><ele>1322.0</ele><time>2026-04-18T12:49:27.999Z</time></trkpt><trkpt lat="42.51484705837909" lon="13.56616666077612"><ele>1322.0</ele><time>2026-04-18T12:49:28.999Z</time></trkpt><trkpt lat="42.51495975970151" lon="13.566303058778766"><ele>1323.0</ele><time>2026-04-18T12:49:29.999Z</time></trkpt><trkpt lat="42.51508237136177" lon="13.566422430647616"><ele>1324.0</ele><time>2026-04-18T12:49:30.999Z</time></trkpt><trkpt lat="42.5152161057211" lon="13.566522310125242"><ele>1325.0</ele><time>2026-04-18T12:49:31.999Z</time></trkpt><trkpt lat="42.515356335594504" lon="13.566612973273894"><ele>1322.3333333333335</ele><time>2026-04-18T12:49:32.999Z</time></trkpt><trkpt lat="42.515497564386884" lon="13.566696458224069"><ele>1319.6666666666667</ele><time>2026-04-18T12:49:33.999Z</time></trkpt><trkpt lat="42.515636386994345" lon="13.566785353784152"><ele>1317.0</ele><time>2026-04-18T12:49:34.999Z</time></trkpt><trkpt lat="42.51577518867668" lon="13.566869688004617"><ele>1317.0</ele><time>2026-04-18T12:49:35.999Z</time></trkpt><trkpt lat="42.51591132341802" lon="13.566959320091513"><ele>1317.0</ele><time>2026-04-18T12:49:36.999Z</time></trkpt><trkpt lat="42.51604523717509" lon="13.567056796094947"><ele>1317.0</ele><time>2026-04-18T12:49:37.999Z</time></trkpt><trkpt lat="42.5161718084211" lon="13.567168763434289"><ele>1314.25</ele><time>2026-04-18T12:49:38.999Z</time></trkpt><trkpt lat="42.51628260819968" lon="13.567295001011733"><ele>1311.5</ele><time>2026-04-18T12:49:39.999Z</time></trkpt><trkpt lat="42.516372347489884" lon="13.567447930929827"><ele>1308.75</ele><time>2026-04-18T12:49:40.999Z</time></trkpt><trkpt lat="42.51645354010749" lon="13.567609870471621"><ele>1306.0</ele><time>2026-04-18T12:49:41.999Z</time></trkpt><trkpt lat="42.51653124698858" lon="13.56776672056536"><ele>1305.75</ele><time>2026-04-18T12:49:42.999Z</time></trkpt><trkpt lat="42.51660432720032" lon="13.567923515382752"><ele>1305.5</ele><time>2026-04-18T12:49:43.999Z</time></trkpt><trkpt lat="42.516669557929646" lon="13.568074775573454"><ele>1305.25</ele><time>2026-04-18T12:49:44.999Z</time></trkpt><trkpt lat="42.51672934498107" lon="13.568219342436713"><ele>1305.0</ele><time>2026-04-18T12:49:45.999Z</time></trkpt><trkpt lat="42.516786067672705" lon="13.568354338041509"><ele>1305.0</ele><time>2026-04-18T12:49:46.999Z</time></trkpt><trkpt lat="42.51683259750326" lon="13.568478244731967"><ele>1305.0</ele><time>2026-04-18T12:49:47.999Z</time></trkpt><trkpt lat="42.51686315027564" lon="13.568606367185096"><ele>1305.0</ele><time>2026-04-18T12:49:48.999Z</time></trkpt><trkpt lat="42.51687111190537" lon="13.56874682173205"><ele>1305.0</ele><time>2026-04-18T12:49:49.999Z</time></trkpt><trkpt lat="42.51685218902748" lon="13.568895619489483"><ele>1305.0</ele><time>2026-04-18T12:49:50.999Z</time></trkpt><trkpt lat="42.51681846054859" lon="13.569047387368977"><ele>1304.75</ele><time>2026-04-18T12:49:51.999Z</time></trkpt><trkpt lat="42.51679226572447" lon="13.56921272135397"><ele>1304.5</ele><time>2026-04-18T12:49:52.999Z</time></trkpt><trkpt lat="42.516785798611316" lon="13.56938442171394"><ele>1304.25</ele><time>2026-04-18T12:49:53.999Z</time></trkpt><trkpt lat="42.516797682505896" lon="13.569564890720127"><ele>1304.0</ele><time>2026-04-18T12:49:54.999Z</time></trkpt><trkpt lat="42.51682036529447" lon="13.569749614286497"><ele>1304.75</ele><time>2026-04-18T12:49:55.999Z</time></trkpt><trkpt lat="42.51684630757418" lon="13.569928975735674"><ele>1305.5</ele><time>2026-04-18T12:49:56.999Z</time></trkpt><trkpt lat="42.51687257172641" lon="13.570100437062804"><ele>1306.25</ele><time>2026-04-18T12:49:57.999Z</time></trkpt><trkpt lat="42.51689456506648" lon="13.570262884803252"><ele>1307.0</ele><time>2026-04-18T12:49:58.999Z</time></trkpt><trkpt lat="42.516918462660925" lon="13.570398901481171"><ele>1305.1666666666667</ele><time>2026-04-18T12:49:59.999Z</time></trkpt><trkpt lat="42.516956254781256" lon="13.57050224363785"><ele>1303.3333333333335</ele><time>2026-04-18T12:50:00.999Z</time></trkpt><trkpt lat="42.51700631165157" lon="13.570570905507484"><ele>1301.5</ele><time>2026-04-18T12:50:01.999Z</time></trkpt><trkpt lat="42.517067353493275" lon="13.570600786897542"><ele>1299.6666666666667</ele><time>2026-04-18T12:50:02.999Z</time></trkpt><trkpt lat="42.51713672376936" lon="13.570574302297645"><ele>1297.8333333333333</ele><time>2026-04-18T12:50:03.999Z</time></trkpt><trkpt lat="42.51719524099509" lon="13.570484172642574"><ele>1296.0</ele><time>2026-04-18T12:50:04.999Z</time></trkpt><trkpt lat="42.51722283362541" lon="13.570354976312238"><ele>1292.75</ele><time>2026-04-18T12:50:05.999Z</time></trkpt><trkpt lat="42.517249523053906" lon="13.570205072398858"><ele>1289.5</ele><time>2026-04-18T12:50:06.999Z</time></trkpt><trkpt lat="42.51726202069792" lon="13.570032442459404"><ele>1286.25</ele><time>2026-04-18T12:50:07.999Z</time></trkpt><trkpt lat="42.51728254832157" lon="13.569852359185926"><ele>1283.0</ele><time>2026-04-18T12:50:08.999Z</time></trkpt><trkpt lat="42.517303765570915" lon="13.569669836244357"><ele>1283.25</ele><time>2026-04-18T12:50:09.999Z</time></trkpt><trkpt lat="42.517348157524246" lon="13.569497596691164"><ele>1283.5</ele><time>2026-04-18T12:50:10.998Z</time></trkpt><trkpt lat="42.517415775463036" lon="13.569338293168043"><ele>1283.75</ele><time>2026-04-18T12:50:11.998Z</time></trkpt><trkpt lat="42.51750156685498" lon="13.56919116237755"><ele>1284.0</ele><time>2026-04-18T12:50:12.998Z</time></trkpt><trkpt lat="42.51759855276376" lon="13.569048220932629"><ele>1284.0</ele><time>2026-04-18T12:50:13.998Z</time></trkpt><trkpt lat="42.51768666915563" lon="13.56888875720537"><ele>1284.0</ele><time>2026-04-18T12:50:14.998Z</time></trkpt><trkpt lat="42.5177847565596" lon="13.568746382280432"><ele>1284.0</ele><time>2026-04-18T12:50:15.998Z</time></trkpt><trkpt lat="42.51787621738643" lon="13.568604524971533"><ele>1284.0</ele><time>2026-04-18T12:50:16.998Z</time></trkpt><trkpt lat="42.51797325957106" lon="13.568475128317557"><ele>1280.5</ele><time>2026-04-18T12:50:17.998Z</time></trkpt><trkpt lat="42.5180815664156" lon="13.568366822428429"><ele>1277.0</ele><time>2026-04-18T12:50:18.998Z</time></trkpt><trkpt lat="42.518200550294246" lon="13.568284636847897"><ele>1273.5</ele><time>2026-04-18T12:50:19.998Z</time></trkpt><trkpt lat="42.518322959567016" lon="13.568202820375209"><ele>1270.0</ele><time>2026-04-18T12:50:20.998Z</time></trkpt><trkpt lat="42.5184504427307" lon="13.568117471549632"><ele>1270.0</ele><time>2026-04-18T12:50:21.998Z</time></trkpt><trkpt lat="42.518575468139396" lon="13.568020019047397"><ele>1270.0</ele><time>2026-04-18T12:50:22.998Z</time></trkpt><trkpt lat="42.518694863805266" lon="13.56790925855484"><ele>1270.0</ele><time>2026-04-18T12:50:23.998Z</time></trkpt><trkpt lat="42.5188060849253" lon="13.567780182129855"><ele>1270.0</ele><time>2026-04-18T12:50:24.998Z</time></trkpt><trkpt lat="42.51889787627859" lon="13.567624622408404"><ele>1268.25</ele><time>2026-04-18T12:50:25.998Z</time></trkpt><trkpt lat="42.5189854191496" lon="13.567460976261119"><ele>1266.5</ele><time>2026-04-18T12:50:26.998Z</time></trkpt><trkpt lat="42.51904654276951" lon="13.567279367229172"><ele>1264.75</ele><time>2026-04-18T12:50:27.998Z</time></trkpt><trkpt lat="42.51910317555903" lon="13.567103822583936"><ele>1263.0</ele><time>2026-04-18T12:50:28.998Z</time></trkpt><trkpt lat="42.51915813871897" lon="13.566929688486997"><ele>1263.0</ele><time>2026-04-18T12:50:29.998Z</time></trkpt><trkpt lat="42.51921159928498" lon="13.566759327007677"><ele>1263.0</ele><time>2026-04-18T12:50:30.998Z</time></trkpt><trkpt lat="42.519263448944116" lon="13.566594099138305"><ele>1263.0</ele><time>2026-04-18T12:50:31.998Z</time></trkpt><trkpt lat="42.519311414297086" lon="13.566444600702031"><ele>1263.0</ele><time>2026-04-18T12:50:32.998Z</time></trkpt><trkpt lat="42.519354121620324" lon="13.566314786990977"><ele>1263.0</ele><time>2026-04-18T12:50:33.998Z</time></trkpt><trkpt lat="42.51939146390007" lon="13.566205219987065"><ele>1263.0</ele><time>2026-04-18T12:50:34.998Z</time></trkpt><trkpt lat="42.51941939925305" lon="13.566107600633115"><ele>1263.0</ele><time>2026-04-18T12:50:35.998Z</time></trkpt><trkpt lat="42.5194379663739" lon="13.566021872348054"><ele>1263.0</ele><time>2026-04-18T12:50:36.998Z</time></trkpt><trkpt lat="42.519487679732016" lon="13.565967904048916"><ele>1263.0</ele><time>2026-04-18T12:50:37.998Z</time></trkpt><trkpt lat="42.51960425155542" lon="13.56596195753713"><ele>1263.0</ele><time>2026-04-18T12:50:39.998Z</time></trkpt><trkpt lat="42.519683976935724" lon="13.566087931882516"><ele>1258.2</ele><time>2026-04-18T12:50:41.998Z</time></trkpt><trkpt lat="42.51967916505672" lon="13.56619847977011"><ele>1253.4</ele><time>2026-04-18T12:50:42.998Z</time></trkpt><trkpt lat="42.51968531469613" lon="13.566327332056687"><ele>1248.6000000000001</ele><time>2026-04-18T12:50:43.998Z</time></trkpt><trkpt lat="42.51970986426786" lon="13.566472497593612"><ele>1243.8</ele><time>2026-04-18T12:50:44.998Z</time></trkpt><trkpt lat="42.51970950530444" lon="13.566638284712047"><ele>1239.0</ele><time>2026-04-18T12:50:45.998Z</time></trkpt><trkpt lat="42.519713151825094" lon="13.566817326592341"><ele>1239.0</ele><time>2026-04-18T12:50:46.998Z</time></trkpt><trkpt lat="42.51972226820152" lon="13.566993581459991"><ele>1239.0</ele><time>2026-04-18T12:50:47.998Z</time></trkpt><trkpt lat="42.51973252668772" lon="13.567157600202611"><ele>1239.0</ele><time>2026-04-18T12:50:48.997Z</time></trkpt><trkpt lat="42.519743829300545" lon="13.567305761099327"><ele>1239.0</ele><time>2026-04-18T12:50:49.997Z</time></trkpt><trkpt lat="42.519754951718156" lon="13.56743932090678"><ele>1239.1666666666667</ele><time>2026-04-18T12:50:50.997Z</time></trkpt><trkpt lat="42.5197746678059" lon="13.567560688940132"><ele>1239.3333333333333</ele><time>2026-04-18T12:50:51.997Z</time></trkpt><trkpt lat="42.51982006157223" lon="13.56765708100841"><ele>1239.5</ele><time>2026-04-18T12:50:52.997Z</time></trkpt><trkpt lat="42.51988554162439" lon="13.567715472529693"><ele>1239.6666666666665</ele><time>2026-04-18T12:50:53.997Z</time></trkpt><trkpt lat="42.51995691546469" lon="13.567721853197643"><ele>1239.8333333333333</ele><time>2026-04-18T12:50:54.997Z</time></trkpt><trkpt lat="42.52003009912838" lon="13.567703043254532"><ele>1240.0</ele><time>2026-04-18T12:50:55.997Z</time></trkpt><trkpt lat="42.520091371506886" lon="13.567623430814598"><ele>1240.0</ele><time>2026-04-18T12:50:56.997Z</time></trkpt><trkpt lat="42.5201162672093" lon="13.567504120086076"><ele>1240.0</ele><time>2026-04-18T12:50:57.997Z</time></trkpt><trkpt lat="42.52010437123122" lon="13.567371415031342"><ele>1240.0</ele><time>2026-04-18T12:50:58.997Z</time></trkpt><trkpt lat="42.52007533225359" lon="13.567220956992783"><ele>1240.0</ele><time>2026-04-18T12:50:59.997Z</time></trkpt><trkpt lat="42.52004387365404" lon="13.567069190397012"><ele>1240.0</ele><time>2026-04-18T12:51:00.997Z</time></trkpt><trkpt lat="42.520022720270845" lon="13.566914259703072"><ele>1239.75</ele><time>2026-04-18T12:51:01.997Z</time></trkpt><trkpt lat="42.52002946331707" lon="13.566757726507053"><ele>1239.5</ele><time>2026-04-18T12:51:02.997Z</time></trkpt><trkpt lat="42.520106534015895" lon="13.566632673912533"><ele>1239.25</ele><time>2026-04-18T12:51:03.997Z</time></trkpt><trkpt lat="42.520201689296485" lon="13.566543583329986"><ele>1239.0</ele><time>2026-04-18T12:51:04.997Z</time></trkpt><trkpt lat="42.52029727256894" lon="13.566436443968412"><ele>1236.0</ele><time>2026-04-18T12:51:05.997Z</time></trkpt><trkpt lat="42.52040459755499" lon="13.566339015297805"><ele>1233.0</ele><time>2026-04-18T12:51:06.997Z</time></trkpt><trkpt lat="42.5205064563469" lon="13.566229748962378"><ele>1230.0</ele><time>2026-04-18T12:51:07.997Z</time></trkpt><trkpt lat="42.52056141224759" lon="13.56605932018305"><ele>1227.0</ele><time>2026-04-18T12:51:08.997Z</time></trkpt><trkpt lat="42.520575043719376" lon="13.565880808605334"><ele>1227.0</ele><time>2026-04-18T12:51:09.997Z</time></trkpt><trkpt lat="42.52057655600274" lon="13.565715080491136"><ele>1227.0</ele><time>2026-04-18T12:51:10.997Z</time></trkpt><trkpt lat="42.520579538672784" lon="13.565569555366352"><ele>1227.0</ele><time>2026-04-18T12:51:11.997Z</time></trkpt><trkpt lat="42.52058313263151" lon="13.565432457422398"><ele>1227.0</ele><time>2026-04-18T12:51:12.997Z</time></trkpt><trkpt lat="42.52058637655921" lon="13.565308712055627"><ele>1227.0</ele><time>2026-04-18T12:51:13.997Z</time></trkpt><trkpt lat="42.520580262601015" lon="13.565207885025929"><ele>1227.0</ele><time>2026-04-18T12:51:15Z</time></trkpt><trkpt lat="42.520616420351466" lon="13.565132269533292"><ele>1227.0</ele><time>2026-04-18T12:51:16Z</time></trkpt><trkpt lat="42.52074601001007" lon="13.565123217130209"><ele>1227.0</ele><time>2026-04-18T12:51:18Z</time></trkpt><trkpt lat="42.52081870311239" lon="13.565203362044494"><ele>1227.0</ele><time>2026-04-18T12:51:19Z</time></trkpt><trkpt lat="42.520885889013" lon="13.565319790962409"><ele>1227.0</ele><time>2026-04-18T12:51:20Z</time></trkpt><trkpt lat="42.520950260803566" lon="13.56546262281656"><ele>1227.0</ele><time>2026-04-18T12:51:21Z</time></trkpt><trkpt lat="42.52101257703841" lon="13.565592700044645"><ele>1227.0</ele><time>2026-04-18T12:51:22Z</time></trkpt><trkpt lat="42.52107885401652" lon="13.565711721767055"><ele>1227.0</ele><time>2026-04-18T12:51:23Z</time></trkpt><trkpt lat="42.521143797261686" lon="13.565829896235847"><ele>1227.0</ele><time>2026-04-18T12:51:24Z</time></trkpt><trkpt lat="42.52120932148449" lon="13.565945956073413"><ele>1227.0</ele><time>2026-04-18T12:51:25Z</time></trkpt><trkpt lat="42.52127539018761" lon="13.566055556026097"><ele>1226.0</ele><time>2026-04-18T12:51:26Z</time></trkpt><trkpt lat="42.52133786522443" lon="13.566171428953568"><ele>1225.0</ele><time>2026-04-18T12:51:27Z</time></trkpt><trkpt lat="42.52139871779836" lon="13.566288515457638"><ele>1224.0</ele><time>2026-04-18T12:51:28Z</time></trkpt><trkpt lat="42.52146814777577" lon="13.566390605758428"><ele>1223.0</ele><time>2026-04-18T12:51:29Z</time></trkpt><trkpt lat="42.52155691403667" lon="13.566466759246605"><ele>1222.0</ele><time>2026-04-18T12:51:30Z</time></trkpt><trkpt lat="42.5216704874401" lon="13.56651458864383"><ele>1219.5</ele><time>2026-04-18T12:51:31Z</time></trkpt><trkpt lat="42.52178639936451" lon="13.566540390025969"><ele>1217.0</ele><time>2026-04-18T12:51:32Z</time></trkpt><trkpt lat="42.52190013035907" lon="13.56654744458708"><ele>1214.5</ele><time>2026-04-18T12:51:33Z</time></trkpt><trkpt lat="42.52201007854786" lon="13.566548459292578"><ele>1212.0</ele><time>2026-04-18T12:51:34Z</time></trkpt><trkpt lat="42.52212393831324" lon="13.56649944579702"><ele>1211.0</ele><time>2026-04-18T12:51:35Z</time></trkpt><trkpt lat="42.522225883534375" lon="13.566416605158135"><ele>1210.0</ele><time>2026-04-18T12:51:36Z</time></trkpt><trkpt lat="42.522319216171795" lon="13.566316278928783"><ele>1209.0</ele><time>2026-04-18T12:51:37Z</time></trkpt><trkpt lat="42.522416547775066" lon="13.566231338731196"><ele>1208.0</ele><time>2026-04-18T12:51:38Z</time></trkpt><trkpt lat="42.52252646729514" lon="13.566178166937735"><ele>1208.0</ele><time>2026-04-18T12:51:39Z</time></trkpt><trkpt lat="42.52262845896408" lon="13.56614346225748"><ele>1208.0</ele><time>2026-04-18T12:51:40Z</time></trkpt><trkpt lat="42.522722767602986" lon="13.566109900320557"><ele>1208.0</ele><time>2026-04-18T12:51:41Z</time></trkpt><trkpt lat="42.52279608148887" lon="13.566072643309836"><ele>1208.0</ele><time>2026-04-18T12:51:42Z</time></trkpt><trkpt lat="42.52284857745158" lon="13.566021284689175"><ele>1208.0</ele><time>2026-04-18T12:51:43Z</time></trkpt><trkpt lat="42.52289730290414" lon="13.565956683444831"><ele>1208.0</ele><time>2026-04-18T12:51:44Z</time></trkpt><trkpt lat="42.52288480887227" lon="13.565820880354831"><ele>1208.0</ele><time>2026-04-18T12:51:45Z</time></trkpt><trkpt lat="42.52281987562389" lon="13.56569413643719"><ele>1208.0</ele><time>2026-04-18T12:51:46Z</time></trkpt><trkpt lat="42.52271655123717" lon="13.565610209061367"><ele>1208.0</ele><time>2026-04-18T12:51:47Z</time></trkpt><trkpt lat="42.522625376693895" lon="13.56549824035534"><ele>1208.0</ele><time>2026-04-18T12:51:48Z</time></trkpt><trkpt lat="42.52252578852407" lon="13.565399982356235"><ele>1202.5</ele><time>2026-04-18T12:51:49Z</time></trkpt><trkpt lat="42.52242922768605" lon="13.56530441920095"><ele>1197.0</ele><time>2026-04-18T12:51:50Z</time></trkpt><trkpt lat="42.52233114695914" lon="13.565210635692067"><ele>1191.5</ele><time>2026-04-18T12:51:51Z</time></trkpt><trkpt lat="42.52223327033299" lon="13.565119000985472"><ele>1186.0</ele><time>2026-04-18T12:51:52Z</time></trkpt><trkpt lat="42.522133012201635" lon="13.565033572750147"><ele>1190.75</ele><time>2026-04-18T12:51:53Z</time></trkpt><trkpt lat="42.52202782521519" lon="13.564964157672824"><ele>1195.5</ele><time>2026-04-18T12:51:53.999Z</time></trkpt><trkpt lat="42.52191823132578" lon="13.564900637623188"><ele>1200.25</ele><time>2026-04-18T12:51:54.999Z</time></trkpt><trkpt lat="42.52181990786582" lon="13.564824600455482"><ele>1205.0</ele><time>2026-04-18T12:51:55.999Z</time></trkpt><trkpt lat="42.521743845891116" lon="13.564719866510124"><ele>1205.0</ele><time>2026-04-18T12:51:56.999Z</time></trkpt><trkpt lat="42.52167883378774" lon="13.564606401039367"><ele>1205.0</ele><time>2026-04-18T12:51:57.999Z</time></trkpt><trkpt lat="42.52161733813021" lon="13.564487555450068"><ele>1205.0</ele><time>2026-04-18T12:51:58.999Z</time></trkpt><trkpt lat="42.52156314700866" lon="13.564383272264267"><ele>1205.0</ele><time>2026-04-18T12:51:59.999Z</time></trkpt><trkpt lat="42.52152031370273" lon="13.564296684201752"><ele>1205.0</ele><time>2026-04-18T12:52:00.999Z</time></trkpt><trkpt lat="42.5214884572122" lon="13.56415064232694"><ele>1201.2</ele><time>2026-04-18T12:52:02.999Z</time></trkpt><trkpt lat="42.52159916388161" lon="13.564100932065909"><ele>1197.4</ele><time>2026-04-18T12:52:04.999Z</time></trkpt><trkpt lat="42.52165780606202" lon="13.56416333755751"><ele>1193.6</ele><time>2026-04-18T12:52:05.999Z</time></trkpt><trkpt lat="42.521696221797754" lon="13.564273641871804"><ele>1189.8</ele><time>2026-04-18T12:52:06.999Z</time></trkpt><trkpt lat="42.52172161909087" lon="13.564397041709094"><ele>1186.0</ele><time>2026-04-18T12:52:07.999Z</time></trkpt><trkpt lat="42.52175525804691" lon="13.564523277422303"><ele>1186.0</ele><time>2026-04-18T12:52:08.999Z</time></trkpt><trkpt lat="42.521816528277355" lon="13.564630526097355"><ele>1186.0</ele><time>2026-04-18T12:52:09.999Z</time></trkpt><trkpt lat="42.52189431325161" lon="13.564709747848717"><ele>1186.0</ele><time>2026-04-18T12:52:10.999Z</time></trkpt><trkpt lat="42.52199213847439" lon="13.564771728041894"><ele>1186.0</ele><time>2026-04-18T12:52:11.999Z</time></trkpt><trkpt lat="42.52212325199486" lon="13.564792399293585"><ele>1186.0</ele><time>2026-04-18T12:52:12.999Z</time></trkpt><trkpt lat="42.52227125191436" lon="13.56482820146087"><ele>1186.0</ele><time>2026-04-18T12:52:13.999Z</time></trkpt><trkpt lat="42.5224262714678" lon="13.56486114616181"><ele>1186.0</ele><time>2026-04-18T12:52:14.999Z</time></trkpt><trkpt lat="42.522586974428364" lon="13.564917925880751"><ele>1186.0</ele><time>2026-04-18T12:52:15.999Z</time></trkpt><trkpt lat="42.52274233700582" lon="13.565013030973583"><ele>1179.6666666666665</ele><time>2026-04-18T12:52:16.999Z</time></trkpt><trkpt lat="42.522899471743045" lon="13.565114042302346"><ele>1173.3333333333333</ele><time>2026-04-18T12:52:17.999Z</time></trkpt><trkpt lat="42.523060547249536" lon="13.565175070437695"><ele>1167.0</ele><time>2026-04-18T12:52:18.999Z</time></trkpt><trkpt lat="42.523234844010645" lon="13.565189771338297"><ele>1167.0</ele><time>2026-04-18T12:52:19.999Z</time></trkpt><trkpt lat="42.52341048914141" lon="13.565161338723678"><ele>1167.0</ele><time>2026-04-18T12:52:20.999Z</time></trkpt><trkpt lat="42.52358112908916" lon="13.565150798324582"><ele>1167.0</ele><time>2026-04-18T12:52:21.999Z</time></trkpt><trkpt lat="42.52374407122087" lon="13.565151410214867"><ele>1164.75</ele><time>2026-04-18T12:52:22.999Z</time></trkpt><trkpt lat="42.52390324714154" lon="13.565145788493787"><ele>1162.5</ele><time>2026-04-18T12:52:23.999Z</time></trkpt><trkpt lat="42.52405231883344" lon="13.56514286275521"><ele>1160.25</ele><time>2026-04-18T12:52:24.999Z</time></trkpt><trkpt lat="42.52418669993147" lon="13.565130297098271"><ele>1158.0</ele><time>2026-04-18T12:52:25.999Z</time></trkpt><trkpt lat="42.524310979504136" lon="13.56510609893112"><ele>1158.0</ele><time>2026-04-18T12:52:26.999Z</time></trkpt><trkpt lat="42.52441802138978" lon="13.565061859840284"><ele>1158.0</ele><time>2026-04-18T12:52:27.999Z</time></trkpt><trkpt lat="42.52450637087991" lon="13.565004910889598"><ele>1158.0</ele><time>2026-04-18T12:52:28.999Z</time></trkpt><trkpt lat="42.524572182774435" lon="13.564949822367577"><ele>1158.0</ele><time>2026-04-18T12:52:29.999Z</time></trkpt><trkpt lat="42.524596208182224" lon="13.564838559113399"><ele>1158.0</ele><time>2026-04-18T12:52:30.999Z</time></trkpt><trkpt lat="42.52455780859757" lon="13.56473006590045"><ele>1158.0</ele><time>2026-04-18T12:52:31.999Z</time></trkpt><trkpt lat="42.52447001496277" lon="13.564669395960292"><ele>1158.0</ele><time>2026-04-18T12:52:32.998Z</time></trkpt><trkpt lat="42.52434910228443" lon="13.564699812404566"><ele>1158.0</ele><time>2026-04-18T12:52:33.998Z</time></trkpt><trkpt lat="42.52422416262748" lon="13.564728334238227"><ele>1158.0</ele><time>2026-04-18T12:52:34.998Z</time></trkpt><trkpt lat="42.52407874774017" lon="13.564715493997422"><ele>1158.0</ele><time>2026-04-18T12:52:35.998Z</time></trkpt><trkpt lat="42.52392718481514" lon="13.564685539839022"><ele>1158.0</ele><time>2026-04-18T12:52:36.998Z</time></trkpt><trkpt lat="42.52377249469933" lon="13.564635290424016"><ele>1158.0</ele><time>2026-04-18T12:52:37.998Z</time></trkpt><trkpt lat="42.52362744113925" lon="13.56458257835421"><ele>1160.25</ele><time>2026-04-18T12:52:38.998Z</time></trkpt><trkpt lat="42.52348501833835" lon="13.564531444321819"><ele>1162.5</ele><time>2026-04-18T12:52:39.998Z</time></trkpt><trkpt lat="42.523340861539225" lon="13.564487075857453"><ele>1164.75</ele><time>2026-04-18T12:52:40.998Z</time></trkpt><trkpt lat="42.52321052742683" lon="13.56437860586825"><ele>1167.0</ele><time>2026-04-18T12:52:41.998Z</time></trkpt><trkpt lat="42.523107968206496" lon="13.564222880952697"><ele>1166.75</ele><time>2026-04-18T12:52:42.998Z</time></trkpt><trkpt lat="42.52299730062868" lon="13.564092831233735"><ele>1166.5</ele><time>2026-04-18T12:52:43.998Z</time></trkpt><trkpt lat="42.52289467847209" lon="13.56397012679958"><ele>1166.25</ele><time>2026-04-18T12:52:44.998Z</time></trkpt><trkpt lat="42.52281070048032" lon="13.563868304396607"><ele>1166.0</ele><time>2026-04-18T12:52:45.998Z</time></trkpt><trkpt lat="42.522741519460965" lon="13.563778717535092"><ele>1166.0</ele><time>2026-04-18T12:52:46.998Z</time></trkpt><trkpt lat="42.522693562928495" lon="13.563700657686356"><ele>1166.0</ele><time>2026-04-18T12:52:47.998Z</time></trkpt><trkpt lat="42.52268100162038" lon="13.563578619835916"><ele>1166.0</ele><time>2026-04-18T12:52:49.998Z</time></trkpt><trkpt lat="42.522767168866594" lon="13.563496102461793"><ele>1166.0</ele><time>2026-04-18T12:52:51.998Z</time></trkpt><trkpt lat="42.52283916694711" lon="13.563515100686617"><ele>1166.0</ele><time>2026-04-18T12:52:52.998Z</time></trkpt><trkpt lat="42.52291698848869" lon="13.563576939359113"><ele>1166.0</ele><time>2026-04-18T12:52:53.998Z</time></trkpt><trkpt lat="42.523000913837116" lon="13.563673948237923"><ele>1161.25</ele><time>2026-04-18T12:52:54.998Z</time></trkpt><trkpt lat="42.523097728833854" lon="13.5637849560469"><ele>1156.5</ele><time>2026-04-18T12:52:55.998Z</time></trkpt><trkpt lat="42.52321644344619" lon="13.563894998617172"><ele>1151.75</ele><time>2026-04-18T12:52:56.998Z</time></trkpt><trkpt lat="42.523347357125395" lon="13.563994251995942"><ele>1147.0</ele><time>2026-04-18T12:52:57.998Z</time></trkpt><trkpt lat="42.52347583901516" lon="13.564054094502854"><ele>1147.0</ele><time>2026-04-18T12:52:58.998Z</time></trkpt><trkpt lat="42.523616009466075" lon="13.564074610893169"><ele>1147.0</ele><time>2026-04-18T12:52:59.998Z</time></trkpt><trkpt lat="42.523763638900796" lon="13.564055530350416"><ele>1147.0</ele><time>2026-04-18T12:53:00.998Z</time></trkpt><trkpt lat="42.52391797630022" lon="13.563992463029301"><ele>1144.6666666666665</ele><time>2026-04-18T12:53:01.998Z</time></trkpt><trkpt lat="42.524083216054706" lon="13.563921007157779"><ele>1142.3333333333333</ele><time>2026-04-18T12:53:02.998Z</time></trkpt><trkpt lat="42.52425647587763" lon="13.563860584158624"><ele>1140.0</ele><time>2026-04-18T12:53:03.998Z</time></trkpt><trkpt lat="42.524432789333225" lon="13.563801444526018"><ele>1139.6666666666667</ele><time>2026-04-18T12:53:04.998Z</time></trkpt><trkpt lat="42.52460163145027" lon="13.563745399160592"><ele>1139.3333333333335</ele><time>2026-04-18T12:53:05.998Z</time></trkpt><trkpt lat="42.52476484072864" lon="13.563689448446127"><ele>1139.0</ele><time>2026-04-18T12:53:06.998Z</time></trkpt><trkpt lat="42.524923282182606" lon="13.563637319159863"><ele>1132.25</ele><time>2026-04-18T12:53:07.998Z</time></trkpt><trkpt lat="42.525076435356965" lon="13.563584095187425"><ele>1125.5</ele><time>2026-04-18T12:53:08.998Z</time></trkpt><trkpt lat="42.52521892296109" lon="13.563534296045956"><ele>1118.75</ele><time>2026-04-18T12:53:09.998Z</time></trkpt><trkpt lat="42.52535703887345" lon="13.5635041008334"><ele>1112.0</ele><time>2026-04-18T12:53:10.997Z</time></trkpt><trkpt lat="42.52548771365701" lon="13.56352879162485"><ele>1111.25</ele><time>2026-04-18T12:53:11.997Z</time></trkpt><trkpt lat="42.52561358530863" lon="13.563594694835805"><ele>1110.5</ele><time>2026-04-18T12:53:12.997Z</time></trkpt><trkpt lat="42.52572876385829" lon="13.563675022700464"><ele>1109.75</ele><time>2026-04-18T12:53:13.997Z</time></trkpt><trkpt lat="42.52583420140088" lon="13.56373822633747"><ele>1109.0</ele><time>2026-04-18T12:53:14.997Z</time></trkpt><trkpt lat="42.525919187415724" lon="13.563762238767582"><ele>1109.0</ele><time>2026-04-18T12:53:15.997Z</time></trkpt><trkpt lat="42.52599286178116" lon="13.56373274110442"><ele>1109.0</ele><time>2026-04-18T12:53:16.997Z</time></trkpt><trkpt lat="42.52605804690836" lon="13.563665343500091"><ele>1109.0</ele><time>2026-04-18T12:53:17.997Z</time></trkpt><trkpt lat="42.52606375229762" lon="13.563527397279602"><ele>1109.0</ele><time>2026-04-18T12:53:18.997Z</time></trkpt><trkpt lat="42.52600250265047" lon="13.563402584221192"><ele>1109.0</ele><time>2026-04-18T12:53:19.997Z</time></trkpt><trkpt lat="42.52589495057991" lon="13.563353932603682"><ele>1109.75</ele><time>2026-04-18T12:53:21.001Z</time></trkpt><trkpt lat="42.52578353266831" lon="13.563296084543564"><ele>1110.5</ele><time>2026-04-18T12:53:22.001Z</time></trkpt><trkpt lat="42.52565870789981" lon="13.563220231154967"><ele>1111.25</ele><time>2026-04-18T12:53:23Z</time></trkpt><trkpt lat="42.5255137328829" lon="13.563148259439501"><ele>1112.0</ele><time>2026-04-18T12:53:24.001Z</time></trkpt><trkpt lat="42.5253606427746" lon="13.563073860393045"><ele>1112.0</ele><time>2026-04-18T12:53:25.001Z</time></trkpt><trkpt lat="42.52521257255298" lon="13.563030746496887"><ele>1112.0</ele><time>2026-04-18T12:53:26Z</time></trkpt><trkpt lat="42.52506842344269" lon="13.562990247034437"><ele>1112.0</ele><time>2026-04-18T12:53:27.001Z</time></trkpt><trkpt lat="42.52493144909784" lon="13.562956529948394"><ele>1112.0</ele><time>2026-04-18T12:53:28.001Z</time></trkpt><trkpt lat="42.524807289759536" lon="13.562936843172428"><ele>1112.0</ele><time>2026-04-18T12:53:29Z</time></trkpt><trkpt lat="42.524700501209" lon="13.562869760470518"><ele>1112.0</ele><time>2026-04-18T12:53:30.001Z</time></trkpt><trkpt lat="42.524610294099226" lon="13.562767893750758"><ele>1112.0</ele><time>2026-04-18T12:53:31.001Z</time></trkpt><trkpt lat="42.52455195211109" lon="13.5626242937651"><ele>1112.0</ele><time>2026-04-18T12:53:32Z</time></trkpt><trkpt lat="42.52455547821272" lon="13.562456399701281"><ele>1110.0</ele><time>2026-04-18T12:53:33Z</time></trkpt><trkpt lat="42.524533777608745" lon="13.562281793359725"><ele>1108.0</ele><time>2026-04-18T12:53:34.001Z</time></trkpt><trkpt lat="42.524522176946434" lon="13.56209872708033"><ele>1106.0</ele><time>2026-04-18T12:53:35Z</time></trkpt><trkpt lat="42.52449156402789" lon="13.561921666931992"><ele>1104.0</ele><time>2026-04-18T12:53:36Z</time></trkpt><trkpt lat="42.524434984783106" lon="13.56176102629689"><ele>1100.75</ele><time>2026-04-18T12:53:37Z</time></trkpt><trkpt lat="42.52435120895875" lon="13.56162756504234"><ele>1097.5</ele><time>2026-04-18T12:53:38Z</time></trkpt><trkpt lat="42.524258783506056" lon="13.561525351699892"><ele>1094.25</ele><time>2026-04-18T12:53:39Z</time></trkpt><trkpt lat="42.52417214882639" lon="13.561437846349683"><ele>1091.0</ele><time>2026-04-18T12:53:40Z</time></trkpt><trkpt lat="42.52408881920117" lon="13.561348258733538"><ele>1091.0</ele><time>2026-04-18T12:53:41Z</time></trkpt><trkpt lat="42.52398854743687" lon="13.561266024827585"><ele>1091.0</ele><time>2026-04-18T12:53:42Z</time></trkpt><trkpt lat="42.52387222635024" lon="13.56119502265711"><ele>1091.0</ele><time>2026-04-18T12:53:43Z</time></trkpt><trkpt lat="42.52376140267328" lon="13.5610882857563"><ele>1091.0</ele><time>2026-04-18T12:53:44Z</time></trkpt><trkpt lat="42.52364020303146" lon="13.56100935574652"><ele>1090.5</ele><time>2026-04-18T12:53:45Z</time></trkpt><trkpt lat="42.52352611505908" lon="13.560941310671286"><ele>1090.0</ele><time>2026-04-18T12:53:46Z</time></trkpt><trkpt lat="42.52342199516178" lon="13.560854878891735"><ele>1089.5</ele><time>2026-04-18T12:53:47Z</time></trkpt><trkpt lat="42.52335329896455" lon="13.56071637947977"><ele>1089.0</ele><time>2026-04-18T12:53:48Z</time></trkpt><trkpt lat="42.52331500299318" lon="13.560560629419136"><ele>1089.0</ele><time>2026-04-18T12:53:49Z</time></trkpt><trkpt lat="42.52335033186642" lon="13.560404503812372"><ele>1089.0</ele><time>2026-04-18T12:53:50Z</time></trkpt><trkpt lat="42.52338604232189" lon="13.560242016973985"><ele>1089.0</ele><time>2026-04-18T12:53:51Z</time></trkpt><trkpt lat="42.52341713882207" lon="13.560066825528274"><ele>1089.0</ele><time>2026-04-18T12:53:52Z</time></trkpt><trkpt lat="42.52348124256068" lon="13.559902523401897"><ele>1088.25</ele><time>2026-04-18T12:53:53Z</time></trkpt><trkpt lat="42.52353237878447" lon="13.559734790392728"><ele>1087.5</ele><time>2026-04-18T12:53:54Z</time></trkpt><trkpt lat="42.52357332241735" lon="13.559567718584322"><ele>1086.75</ele><time>2026-04-18T12:53:55Z</time></trkpt><trkpt lat="42.523587851328756" lon="13.559382000957998"><ele>1086.0</ele><time>2026-04-18T12:53:56Z</time></trkpt><trkpt lat="42.52357417572269" lon="13.559192047332786"><ele>1084.75</ele><time>2026-04-18T12:53:57Z</time></trkpt><trkpt lat="42.523555576094594" lon="13.55900259692507"><ele>1083.5</ele><time>2026-04-18T12:53:58Z</time></trkpt><trkpt lat="42.52354894753956" lon="13.558820021937183"><ele>1082.25</ele><time>2026-04-18T12:53:59Z</time></trkpt><trkpt lat="42.52357134988228" lon="13.558645002733147"><ele>1081.0</ele><time>2026-04-18T12:54:00Z</time></trkpt><trkpt lat="42.523606060639004" lon="13.558474034694811"><ele>1081.0</ele><time>2026-04-18T12:54:01Z</time></trkpt><trkpt lat="42.52364097693436" lon="13.558302181656456"><ele>1081.0</ele><time>2026-04-18T12:54:02Z</time></trkpt><trkpt lat="42.52366685325002" lon="13.558129300911467"><ele>1081.0</ele><time>2026-04-18T12:54:03Z</time></trkpt><trkpt lat="42.5236823279333" lon="13.557949611714648"><ele>1081.0</ele><time>2026-04-18T12:54:04Z</time></trkpt><trkpt lat="42.52368483769401" lon="13.557771223083355"><ele>1079.0</ele><time>2026-04-18T12:54:05Z</time></trkpt><trkpt lat="42.52366606794319" lon="13.55759448397897"><ele>1077.0</ele><time>2026-04-18T12:54:06Z</time></trkpt><trkpt lat="42.52368234352784" lon="13.557423498397663"><ele>1075.0</ele><time>2026-04-18T12:54:07Z</time></trkpt><trkpt lat="42.523665579937486" lon="13.557253786096418"><ele>1073.0</ele><time>2026-04-18T12:54:08Z</time></trkpt><trkpt lat="42.5236654530444" lon="13.557086368669555"><ele>1071.25</ele><time>2026-04-18T12:54:08.999Z</time></trkpt><trkpt lat="42.52365236800281" lon="13.556927104559405"><ele>1069.5</ele><time>2026-04-18T12:54:09.999Z</time></trkpt><trkpt lat="42.52362788558145" lon="13.556774811929394"><ele>1067.75</ele><time>2026-04-18T12:54:10.999Z</time></trkpt><trkpt lat="42.52360425440858" lon="13.556622233656023"><ele>1066.0</ele><time>2026-04-18T12:54:11.999Z</time></trkpt><trkpt lat="42.523557814000824" lon="13.556480230678703"><ele>1066.0</ele><time>2026-04-18T12:54:12.999Z</time></trkpt><trkpt lat="42.52351795180255" lon="13.55634091688384"><ele>1066.0</ele><time>2026-04-18T12:54:13.999Z</time></trkpt><trkpt lat="42.52349096149871" lon="13.55619623163786"><ele>1066.0</ele><time>2026-04-18T12:54:14.999Z</time></trkpt><trkpt lat="42.52347204279456" lon="13.556052804607434"><ele>1066.0</ele><time>2026-04-18T12:54:15.999Z</time></trkpt><trkpt lat="42.52347730682689" lon="13.555907157401139"><ele>1066.0</ele><time>2026-04-18T12:54:16.999Z</time></trkpt><trkpt lat="42.523479818278524" lon="13.555764419162882"><ele>1064.8</ele><time>2026-04-18T12:54:17.999Z</time></trkpt><trkpt lat="42.52347368842998" lon="13.55562378480399"><ele>1063.6</ele><time>2026-04-18T12:54:18.999Z</time></trkpt><trkpt lat="42.52346588396466" lon="13.55548566630284"><ele>1062.4</ele><time>2026-04-18T12:54:19.999Z</time></trkpt><trkpt lat="42.52344276484163" lon="13.555350856447129"><ele>1061.2</ele><time>2026-04-18T12:54:20.999Z</time></trkpt><trkpt lat="42.52343347868589" lon="13.555216241806438"><ele>1060.0</ele><time>2026-04-18T12:54:21.999Z</time></trkpt><trkpt lat="42.52342231522686" lon="13.555080982870436"><ele>1059.2</ele><time>2026-04-18T12:54:22.999Z</time></trkpt><trkpt lat="42.52339707427916" lon="13.554942508680012"><ele>1058.4</ele><time>2026-04-18T12:54:23.999Z</time></trkpt><trkpt lat="42.52340028242674" lon="13.554804586513008"><ele>1057.6</ele><time>2026-04-18T12:54:24.999Z</time></trkpt><trkpt lat="42.52339455245965" lon="13.554673220886526"><ele>1056.8</ele><time>2026-04-18T12:54:25.999Z</time></trkpt><trkpt lat="42.52338136931171" lon="13.55454580030329"><ele>1056.0</ele><time>2026-04-18T12:54:26.999Z</time></trkpt><trkpt lat="42.52334631078327" lon="13.554427125368534"><ele>1052.6</ele><time>2026-04-18T12:54:27.999Z</time></trkpt><trkpt lat="42.52328972474082" lon="13.55433318818641"><ele>1049.1999999999998</ele><time>2026-04-18T12:54:28.999Z</time></trkpt><trkpt lat="42.52322072458318" lon="13.554253150311416"><ele>1045.8000000000002</ele><time>2026-04-18T12:54:29.999Z</time></trkpt><trkpt lat="42.52314516463052" lon="13.55417672401218"><ele>1042.4</ele><time>2026-04-18T12:54:30.999Z</time></trkpt><trkpt lat="42.52307182175578" lon="13.554105027491872"><ele>1039.0</ele><time>2026-04-18T12:54:31.999Z</time></trkpt><trkpt lat="42.52301515439906" lon="13.55401761206517"><ele>1039.0</ele><time>2026-04-18T12:54:32.999Z</time></trkpt><trkpt lat="42.52294935915221" lon="13.553976853856437"><ele>1039.0</ele><time>2026-04-18T12:54:33.999Z</time></trkpt><trkpt lat="42.52287645446047" lon="13.553888204516063"><ele>1039.0</ele><time>2026-04-18T12:54:35.999Z</time></trkpt><trkpt lat="42.52282695937915" lon="13.553799459263034"><ele>1039.0</ele><time>2026-04-18T12:54:39.999Z</time></trkpt><trkpt lat="42.52278357126575" lon="13.553732661669383"><ele>1039.0</ele><time>2026-04-18T12:54:52.998Z</time></trkpt><trkpt lat="42.522747651328594" lon="13.553651519028602"><ele>1039.0</ele><time>2026-04-18T12:54:55.998Z</time></trkpt><trkpt lat="42.522788539778865" lon="13.553579157832779"><ele>1039.0</ele><time>2026-04-18T12:54:58.998Z</time></trkpt><trkpt lat="42.52285260740542" lon="13.553573569984387"><ele>1039.0</ele><time>2026-04-18T12:55:13.998Z</time></trkpt><trkpt lat="42.522928282387646" lon="13.55359222533817"><ele>1039.0</ele><time>2026-04-18T12:55:34.001Z</time></trkpt><trkpt lat="42.52294340175584" lon="13.553678119795974"><ele>1039.0</ele><time>2026-04-18T12:55:36.001Z</time></trkpt><trkpt lat="42.52296923095742" lon="13.553765266355876"><ele>1039.0</ele><time>2026-04-18T12:55:38Z</time></trkpt><trkpt lat="42.52306076773186" lon="13.55381028367685"><ele>1039.0</ele><time>2026-04-18T12:55:40Z</time></trkpt><trkpt lat="42.5231581971116" lon="13.553809510202525"><ele>1039.0</ele><time>2026-04-18T12:55:42Z</time></trkpt><trkpt lat="42.52326309029748" lon="13.553799391646441"><ele>1039.0</ele><time>2026-04-18T12:55:44Z</time></trkpt><trkpt lat="42.52337232519967" lon="13.553807365952036"><ele>1039.0</ele><time>2026-04-18T12:55:46Z</time></trkpt><trkpt lat="42.52349624240874" lon="13.553800838094176"><ele>1039.0</ele><time>2026-04-18T12:55:48Z</time></trkpt><trkpt lat="42.52356305386927" lon="13.553809548232536"><ele>1039.0</ele><time>2026-04-18T12:55:48.999Z</time></trkpt><trkpt lat="42.523633160974796" lon="13.553806150641039"><ele>1038.9999999999998</ele><time>2026-04-18T12:55:49.999Z</time></trkpt><trkpt lat="42.523705511019884" lon="13.553800335973325"><ele>1039.0</ele><time>2026-04-18T12:55:50.999Z</time></trkpt><trkpt lat="42.52377830618707" lon="13.553799580759716"><ele>1039.0</ele><time>2026-04-18T12:55:51.999Z</time></trkpt><trkpt lat="42.52384660035659" lon="13.553808031266238"><ele>1039.0</ele><time>2026-04-18T12:55:52.999Z</time></trkpt><trkpt lat="42.523909648964725" lon="13.553816145615302"><ele>1039.0</ele><time>2026-04-18T12:55:53.999Z</time></trkpt><trkpt lat="42.523979065706094" lon="13.553811280986283"><ele>1038.9999999999998</ele><time>2026-04-18T12:55:54.999Z</time></trkpt><trkpt lat="42.52405746220173" lon="13.553832672366948"><ele>1039.0</ele><time>2026-04-18T12:55:55.999Z</time></trkpt><trkpt lat="42.52414097552062" lon="13.553837166359688"><ele>1037.3333333333333</ele><time>2026-04-18T12:55:56.999Z</time></trkpt><trkpt lat="42.52422488782139" lon="13.553821832631169"><ele>1035.6666666666665</ele><time>2026-04-18T12:55:57.999Z</time></trkpt><trkpt lat="42.52430999711974" lon="13.553827081830123"><ele>1034.0</ele><time>2026-04-18T12:55:58.999Z</time></trkpt><trkpt lat="42.52439368606245" lon="13.55384298788"><ele>1032.3333333333333</ele><time>2026-04-18T12:55:59.999Z</time></trkpt><trkpt lat="42.524476067851026" lon="13.553878737292031"><ele>1030.6666666666667</ele><time>2026-04-18T12:56:00.999Z</time></trkpt><trkpt lat="42.5245529039088" lon="13.553934227613802"><ele>1029.0</ele><time>2026-04-18T12:56:01.999Z</time></trkpt><trkpt lat="42.52462616254043" lon="13.553998192512415"><ele>1025.0</ele><time>2026-04-18T12:56:02.999Z</time></trkpt><trkpt lat="42.52468919021602" lon="13.554093810350185"><ele>1021.0000000000001</ele><time>2026-04-18T12:56:03.999Z</time></trkpt><trkpt lat="42.52473278353554" lon="13.554198963143648"><ele>1017.0000000000001</ele><time>2026-04-18T12:56:04.999Z</time></trkpt><trkpt lat="42.52476915870975" lon="13.55431129925133"><ele>1013.0</ele><time>2026-04-18T12:56:05.999Z</time></trkpt><trkpt lat="42.52479597294545" lon="13.554435332378016"><ele>1009.0</ele><time>2026-04-18T12:56:06.999Z</time></trkpt><trkpt lat="42.52482168988338" lon="13.554569467779794"><ele>1009.0</ele><time>2026-04-18T12:56:07.999Z</time></trkpt><trkpt lat="42.52485143486505" lon="13.55471729882348"><ele>1009.0</ele><time>2026-04-18T12:56:08.999Z</time></trkpt><trkpt lat="42.52487895962924" lon="13.554878774860766"><ele>1009.0</ele><time>2026-04-18T12:56:09.999Z</time></trkpt><trkpt lat="42.524907311797236" lon="13.555047639856557"><ele>1009.0</ele><time>2026-04-18T12:56:10.999Z</time></trkpt><trkpt lat="42.52493530503987" lon="13.555226500642723"><ele>1010.25</ele><time>2026-04-18T12:56:11.999Z</time></trkpt><trkpt lat="42.52496781593661" lon="13.555394950727672"><ele>1011.5</ele><time>2026-04-18T12:56:12.999Z</time></trkpt><trkpt lat="42.525029964198396" lon="13.555576320361721"><ele>1012.75</ele><time>2026-04-18T12:56:13.999Z</time></trkpt><trkpt lat="42.52511279498512" lon="13.555728240742873"><ele>1014.0</ele><time>2026-04-18T12:56:14.999Z</time></trkpt><trkpt lat="42.525222063966865" lon="13.55586075286627"><ele>1014.0</ele><time>2026-04-18T12:56:15.999Z</time></trkpt><trkpt lat="42.52535225380913" lon="13.555958958696472"><ele>1014.0</ele><time>2026-04-18T12:56:16.999Z</time></trkpt><trkpt lat="42.525491065941004" lon="13.556027991532705"><ele>1014.0</ele><time>2026-04-18T12:56:17.999Z</time></trkpt><trkpt lat="42.52561535055716" lon="13.556098508775774"><ele>1014.0</ele><time>2026-04-18T12:56:18.999Z</time></trkpt><trkpt lat="42.52573706803201" lon="13.556210458909193"><ele>1011.5</ele><time>2026-04-18T12:56:19.999Z</time></trkpt><trkpt lat="42.52583476406365" lon="13.556355776558837"><ele>1009.0</ele><time>2026-04-18T12:56:20.999Z</time></trkpt><trkpt lat="42.52591232249949" lon="13.55651327582982"><ele>1006.5</ele><time>2026-04-18T12:56:21.999Z</time></trkpt><trkpt lat="42.525980240359296" lon="13.556667884293258"><ele>1004.0</ele><time>2026-04-18T12:56:22.999Z</time></trkpt><trkpt lat="42.52598770692099" lon="13.556852962592624"><ele>1004.0</ele><time>2026-04-18T12:56:23.999Z</time></trkpt><trkpt lat="42.52599362965503" lon="13.557034698231087"><ele>1004.0</ele><time>2026-04-18T12:56:24.998Z</time></trkpt><trkpt lat="42.52600084422809" lon="13.557227966653885"><ele>1004.0</ele><time>2026-04-18T12:56:25.998Z</time></trkpt><trkpt lat="42.5260081903577" lon="13.557429557597708"><ele>1004.0</ele><time>2026-04-18T12:56:26.998Z</time></trkpt><trkpt lat="42.52601505421942" lon="13.557627611120012"><ele>1003.75</ele><time>2026-04-18T12:56:27.998Z</time></trkpt><trkpt lat="42.526025565547386" lon="13.557811343287407"><ele>1003.5</ele><time>2026-04-18T12:56:28.998Z</time></trkpt><trkpt lat="42.52605756552668" lon="13.557977970984396"><ele>1003.25</ele><time>2026-04-18T12:56:29.998Z</time></trkpt><trkpt lat="42.52611104310774" lon="13.558119350198883"><ele>1003.0</ele><time>2026-04-18T12:56:30.998Z</time></trkpt><trkpt lat="42.52618490986637" lon="13.558227197651856"><ele>1003.5</ele><time>2026-04-18T12:56:31.998Z</time></trkpt><trkpt lat="42.526261204330915" lon="13.55831460763304"><ele>1004.0</ele><time>2026-04-18T12:56:32.998Z</time></trkpt><trkpt lat="42.52634320644769" lon="13.558385810636398"><ele>1004.5</ele><time>2026-04-18T12:56:33.998Z</time></trkpt><trkpt lat="42.52647100554486" lon="13.558294375822701"><ele>1005.0</ele><time>2026-04-18T12:56:34.998Z</time></trkpt><trkpt lat="42.526573632496934" lon="13.558222456826252"><ele>1005.0</ele><time>2026-04-18T12:56:35.998Z</time></trkpt><trkpt lat="42.52666698945614" lon="13.558082894880604"><ele>1005.0</ele><time>2026-04-18T12:56:36.998Z</time></trkpt><trkpt lat="42.526786945745506" lon="13.557973077610487"><ele>1005.0</ele><time>2026-04-18T12:56:37.998Z</time></trkpt><trkpt lat="42.52692494446821" lon="13.55788133651374"><ele>1005.0</ele><time>2026-04-18T12:56:38.998Z</time></trkpt><trkpt lat="42.52707250453669" lon="13.55778713244928"><ele>997.3333333333333</ele><time>2026-04-18T12:56:39.998Z</time></trkpt><trkpt lat="42.5272299020247" lon="13.557706191272793"><ele>989.6666666666666</ele><time>2026-04-18T12:56:40.998Z</time></trkpt><trkpt lat="42.52739148700832" lon="13.557641212799552"><ele>982.0</ele><time>2026-04-18T12:56:41.998Z</time></trkpt><trkpt lat="42.52755072850212" lon="13.557581385844063"><ele>982.0</ele><time>2026-04-18T12:56:42.998Z</time></trkpt><trkpt lat="42.527700873339136" lon="13.557524691285462"><ele>982.0</ele><time>2026-04-18T12:56:43.998Z</time></trkpt><trkpt lat="42.52784744659064" lon="13.557478346706628"><ele>982.0</ele><time>2026-04-18T12:56:44.998Z</time></trkpt><trkpt lat="42.52797980782591" lon="13.557444969309898"><ele>982.0</ele><time>2026-04-18T12:56:45.998Z</time></trkpt><trkpt lat="42.52810252516068" lon="13.55743459584295"><ele>980.6</ele><time>2026-04-18T12:56:46.998Z</time></trkpt><trkpt lat="42.52821026463499" lon="13.557446749969415"><ele>979.2</ele><time>2026-04-18T12:56:47.998Z</time></trkpt><trkpt lat="42.5282963976749" lon="13.557501108199066"><ele>977.8</ele><time>2026-04-18T12:56:48.998Z</time></trkpt><trkpt lat="42.52835134496723" lon="13.557601243122118"><ele>976.4</ele><time>2026-04-18T12:56:49.998Z</time></trkpt><trkpt lat="42.5283637848295" lon="13.557728188874355"><ele>975.0</ele><time>2026-04-18T12:56:50.998Z</time></trkpt><trkpt lat="42.528366778563075" lon="13.557855880928688"><ele>974.6</ele><time>2026-04-18T12:56:51.998Z</time></trkpt><trkpt lat="42.528401507764926" lon="13.557971331468256"><ele>974.2</ele><time>2026-04-18T12:56:52.998Z</time></trkpt><trkpt lat="42.52847243391503" lon="13.558055557817342"><ele>973.8</ele><time>2026-04-18T12:56:53.998Z</time></trkpt><trkpt lat="42.52857045224171" lon="13.558098185667541"><ele>973.4</ele><time>2026-04-18T12:56:54.998Z</time></trkpt><trkpt lat="42.528686121207166" lon="13.55809805474209"><ele>973.0</ele><time>2026-04-18T12:56:55.998Z</time></trkpt><trkpt lat="42.528818618009986" lon="13.558077623613894"><ele>973.0</ele><time>2026-04-18T12:56:56.998Z</time></trkpt><trkpt lat="42.52896614488129" lon="13.558071989558963"><ele>973.0</ele><time>2026-04-18T12:56:57.998Z</time></trkpt><trkpt lat="42.529127921436476" lon="13.558070709101067"><ele>973.0</ele><time>2026-04-18T12:56:58.998Z</time></trkpt><trkpt lat="42.52930100884842" lon="13.558067248238483"><ele>973.0</ele><time>2026-04-18T12:56:59.998Z</time></trkpt><trkpt lat="42.52947704989789" lon="13.558069605807413"><ele>973.0</ele><time>2026-04-18T12:57:00.998Z</time></trkpt><trkpt lat="42.529648180113725" lon="13.558072652244975"><ele>973.0</ele><time>2026-04-18T12:57:01.997Z</time></trkpt><trkpt lat="42.529812934092114" lon="13.558073168248539"><ele>974.0</ele><time>2026-04-18T12:57:02.997Z</time></trkpt><trkpt lat="42.5299751510249" lon="13.558079701108129"><ele>975.0</ele><time>2026-04-18T12:57:03.997Z</time></trkpt><trkpt lat="42.530134171018126" lon="13.558054569345456"><ele>976.0</ele><time>2026-04-18T12:57:04.997Z</time></trkpt><trkpt lat="42.53028804519191" lon="13.558005906988923"><ele>970.6666666666666</ele><time>2026-04-18T12:57:05.997Z</time></trkpt><trkpt lat="42.53040522042839" lon="13.55783204812865"><ele>965.3333333333333</ele><time>2026-04-18T12:57:06.997Z</time></trkpt><trkpt lat="42.53052463903977" lon="13.557661996860066"><ele>960.0</ele><time>2026-04-18T12:57:07.997Z</time></trkpt><trkpt lat="42.53062912618964" lon="13.557477272783181"><ele>960.0</ele><time>2026-04-18T12:57:08.997Z</time></trkpt><trkpt lat="42.530730056062616" lon="13.557307942060474"><ele>960.0</ele><time>2026-04-18T12:57:09.997Z</time></trkpt><trkpt lat="42.53084266304681" lon="13.557172228888826"><ele>960.0</ele><time>2026-04-18T12:57:10.997Z</time></trkpt><trkpt lat="42.53099911150959" lon="13.557095638625846"><ele>960.0</ele><time>2026-04-18T12:57:11.997Z</time></trkpt><trkpt lat="42.531175506321446" lon="13.557051214026696"><ele>960.0</ele><time>2026-04-18T12:57:12.997Z</time></trkpt><trkpt lat="42.531356412753205" lon="13.556998375836066"><ele>960.0</ele><time>2026-04-18T12:57:13.997Z</time></trkpt><trkpt lat="42.531541895424816" lon="13.556904970619085"><ele>952.3333333333333</ele><time>2026-04-18T12:57:14.997Z</time></trkpt><trkpt lat="42.531713578423464" lon="13.55679498067474"><ele>944.6666666666666</ele><time>2026-04-18T12:57:15.997Z</time></trkpt><trkpt lat="42.531879742194164" lon="13.55668680788116"><ele>937.0</ele><time>2026-04-18T12:57:16.997Z</time></trkpt><trkpt lat="42.532034479858375" lon="13.556560232824808"><ele>936.0</ele><time>2026-04-18T12:57:17.997Z</time></trkpt><trkpt lat="42.532163379848456" lon="13.556383450306022"><ele>935.0</ele><time>2026-04-18T12:57:18.997Z</time></trkpt><trkpt lat="42.53229236577727" lon="13.556192993672797"><ele>934.0</ele><time>2026-04-18T12:57:19.997Z</time></trkpt><trkpt lat="42.532404994199666" lon="13.556001482864724"><ele>934.0</ele><time>2026-04-18T12:57:20.997Z</time></trkpt><trkpt lat="42.53251741936042" lon="13.55581814065553"><ele>934.0</ele><time>2026-04-18T12:57:21.997Z</time></trkpt><trkpt lat="42.532634263078585" lon="13.555641944434434"><ele>934.0</ele><time>2026-04-18T12:57:22.997Z</time></trkpt><trkpt lat="42.53277375703561" lon="13.555491045282523"><ele>930.0</ele><time>2026-04-18T12:57:23.997Z</time></trkpt><trkpt lat="42.53292675451257" lon="13.555352448464287"><ele>926.0</ele><time>2026-04-18T12:57:24.997Z</time></trkpt><trkpt lat="42.53307545879341" lon="13.555223303939243"><ele>922.0</ele><time>2026-04-18T12:57:25.997Z</time></trkpt><trkpt lat="42.53321465776366" lon="13.555103594616842"><ele>922.0</ele><time>2026-04-18T12:57:26.997Z</time></trkpt><trkpt lat="42.533366363078684" lon="13.554992662893916"><ele>922.0</ele><time>2026-04-18T12:57:27.997Z</time></trkpt><trkpt lat="42.53353636929169" lon="13.554980395133098"><ele>922.0</ele><time>2026-04-18T12:57:28.997Z</time></trkpt><trkpt lat="42.53370138824445" lon="13.554953157265244"><ele>918.3333333333333</ele><time>2026-04-18T12:57:29.997Z</time></trkpt><trkpt lat="42.53385770704429" lon="13.554823078372717"><ele>914.6666666666667</ele><time>2026-04-18T12:57:30.997Z</time></trkpt><trkpt lat="42.534029825139505" lon="13.554680538149286"><ele>911.0</ele><time>2026-04-18T12:57:31.997Z</time></trkpt><trkpt lat="42.53417678594188" lon="13.554510835887086"><ele>911.0</ele><time>2026-04-18T12:57:33Z</time></trkpt><trkpt lat="42.53430253819993" lon="13.554277927825954"><ele>911.0</ele><time>2026-04-18T12:57:34Z</time></trkpt><trkpt lat="42.534389888492385" lon="13.553995094059477"><ele>911.0</ele><time>2026-04-18T12:57:35Z</time></trkpt><trkpt lat="42.53446514014687" lon="13.553720739087604"><ele>901.6666666666667</ele><time>2026-04-18T12:57:36Z</time></trkpt><trkpt lat="42.53453823972975" lon="13.553457714937233"><ele>892.3333333333333</ele><time>2026-04-18T12:57:37Z</time></trkpt><trkpt lat="42.53460566942531" lon="13.553216768168612"><ele>883.0</ele><time>2026-04-18T12:57:38Z</time></trkpt><trkpt lat="42.534668143397354" lon="13.552993529684256"><ele>890.0</ele><time>2026-04-18T12:57:39Z</time></trkpt><trkpt lat="42.53473304630518" lon="13.552805207512687"><ele>897.0</ele><time>2026-04-18T12:57:40Z</time></trkpt><trkpt lat="42.53481963513181" lon="13.552669757757865"><ele>904.0</ele><time>2026-04-18T12:57:41Z</time></trkpt><trkpt lat="42.5349143122244" lon="13.55256786662136"><ele>911.0</ele><time>2026-04-18T12:57:42Z</time></trkpt><trkpt lat="42.53498496023388" lon="13.552468487639969"><ele>911.0</ele><time>2026-04-18T12:57:43Z</time></trkpt><trkpt lat="42.53502550216511" lon="13.552370015959884"><ele>910.9999999999999</ele><time>2026-04-18T12:57:44Z</time></trkpt><trkpt lat="42.534976433674224" lon="13.552247736668065"><ele>910.9999999999999</ele><time>2026-04-18T12:57:45Z</time></trkpt><trkpt lat="42.53488435649342" lon="13.55220733827524"><ele>911.0</ele><time>2026-04-18T12:57:46Z</time></trkpt><trkpt lat="42.53479501073107" lon="13.552289821903173"><ele>911.0</ele><time>2026-04-18T12:57:47Z</time></trkpt><trkpt lat="42.53472280514055" lon="13.552405219919166"><ele>911.0</ele><time>2026-04-18T12:57:48Z</time></trkpt><trkpt lat="42.534665764349356" lon="13.552548017500843"><ele>911.0</ele><time>2026-04-18T12:57:49Z</time></trkpt><trkpt lat="42.53458927476604" lon="13.552718648318356"><ele>911.0</ele><time>2026-04-18T12:57:50Z</time></trkpt><trkpt lat="42.53449893529823" lon="13.552899278863809"><ele>911.0</ele><time>2026-04-18T12:57:51Z</time></trkpt><trkpt lat="42.53440100919377" lon="13.553100308304167"><ele>901.6666666666667</ele><time>2026-04-18T12:57:52Z</time></trkpt><trkpt lat="42.5343018179699" lon="13.553301885596081"><ele>892.3333333333333</ele><time>2026-04-18T12:57:53Z</time></trkpt><trkpt lat="42.5342012052862" lon="13.55349341004833"><ele>883.0</ele><time>2026-04-18T12:57:54Z</time></trkpt><trkpt lat="42.534095680067104" lon="13.55367453569406"><ele>885.3333333333333</ele><time>2026-04-18T12:57:55Z</time></trkpt><trkpt lat="42.533972030895875" lon="13.553824071017736"><ele>887.6666666666667</ele><time>2026-04-18T12:57:56Z</time></trkpt><trkpt lat="42.53382496771932" lon="13.553937298685826"><ele>890.0</ele><time>2026-04-18T12:57:56.999Z</time></trkpt><trkpt lat="42.53366646689637" lon="13.554002110627387"><ele>890.0</ele><time>2026-04-18T12:57:57.999Z</time></trkpt><trkpt lat="42.53349675272245" lon="13.553998165451748"><ele>890.0</ele><time>2026-04-18T12:57:58.999Z</time></trkpt><trkpt lat="42.53333205223132" lon="13.553919431024624"><ele>890.0</ele><time>2026-04-18T12:57:59.999Z</time></trkpt><trkpt lat="42.533158625723516" lon="13.553857027857838"><ele>890.0</ele><time>2026-04-18T12:58:00.999Z</time></trkpt><trkpt lat="42.53298017034455" lon="13.5537882361691"><ele>890.0</ele><time>2026-04-18T12:58:01.999Z</time></trkpt><trkpt lat="42.532792779854766" lon="13.553762275789206"><ele>890.0</ele><time>2026-04-18T12:58:02.999Z</time></trkpt><trkpt lat="42.53261435971878" lon="13.553788268412898"><ele>886.6666666666667</ele><time>2026-04-18T12:58:03.999Z</time></trkpt><trkpt lat="42.53244545696463" lon="13.553857986559466"><ele>883.3333333333333</ele><time>2026-04-18T12:58:04.999Z</time></trkpt><trkpt lat="42.53229232291619" lon="13.553924967717"><ele>880.0</ele><time>2026-04-18T12:58:05.999Z</time></trkpt><trkpt lat="42.532158568412825" lon="13.553980372741096"><ele>879.4999999999999</ele><time>2026-04-18T12:58:06.999Z</time></trkpt><trkpt lat="42.53204475583108" lon="13.554012196827266"><ele>879.0</ele><time>2026-04-18T12:58:07.999Z</time></trkpt><trkpt lat="42.531951673641316" lon="13.554037830392291"><ele>878.5</ele><time>2026-04-18T12:58:08.999Z</time></trkpt><trkpt lat="42.531874126049686" lon="13.55402762287479"><ele>878.0</ele><time>2026-04-18T12:58:09.999Z</time></trkpt><trkpt lat="42.531837492746675" lon="13.55393938318929"><ele>877.4999999999999</ele><time>2026-04-18T12:58:10.999Z</time></trkpt><trkpt lat="42.53185349207707" lon="13.553827621219211"><ele>877.0</ele><time>2026-04-18T12:58:11.999Z</time></trkpt><trkpt lat="42.53192380771714" lon="13.553757208179164"><ele>877.0</ele><time>2026-04-18T12:58:12.999Z</time></trkpt><trkpt lat="42.53202805634833" lon="13.55370995756699"><ele>877.0</ele><time>2026-04-18T12:58:13.999Z</time></trkpt><trkpt lat="42.532162376596666" lon="13.553676385028451"><ele>877.0</ele><time>2026-04-18T12:58:14.999Z</time></trkpt><trkpt lat="42.532302816091686" lon="13.553617361599452"><ele>877.0</ele><time>2026-04-18T12:58:15.999Z</time></trkpt><trkpt lat="42.53243849302317" lon="13.553511785269498"><ele>870.6666666666666</ele><time>2026-04-18T12:58:16.999Z</time></trkpt><trkpt lat="42.53255947252559" lon="13.553355352645259"><ele>864.3333333333333</ele><time>2026-04-18T12:58:17.999Z</time></trkpt><trkpt lat="42.53268879978233" lon="13.553211523547134"><ele>858.0</ele><time>2026-04-18T12:58:18.999Z</time></trkpt><trkpt lat="42.53280565271423" lon="13.553065384243707"><ele>860.3333333333333</ele><time>2026-04-18T12:58:19.999Z</time></trkpt><trkpt lat="42.53295527599792" lon="13.552981871399922"><ele>862.6666666666666</ele><time>2026-04-18T12:58:20.999Z</time></trkpt><trkpt lat="42.53311732031777" lon="13.552925971832007"><ele>865.0</ele><time>2026-04-18T12:58:21.999Z</time></trkpt><trkpt lat="42.53327689786321" lon="13.552892731561059"><ele>864.3333333333333</ele><time>2026-04-18T12:58:22.999Z</time></trkpt><trkpt lat="42.53343723410157" lon="13.552847909084184"><ele>863.6666666666667</ele><time>2026-04-18T12:58:23.999Z</time></trkpt><trkpt lat="42.5336057405278" lon="13.55276989267044"><ele>863.0</ele><time>2026-04-18T12:58:24.999Z</time></trkpt><trkpt lat="42.53374777365421" lon="13.55259253722398"><ele>863.0</ele><time>2026-04-18T12:58:25.999Z</time></trkpt><trkpt lat="42.5338750820672" lon="13.552416050920606"><ele>863.0</ele><time>2026-04-18T12:58:26.999Z</time></trkpt><trkpt lat="42.53399910440124" lon="13.552246465421527"><ele>863.0</ele><time>2026-04-18T12:58:27.999Z</time></trkpt><trkpt lat="42.53412273817157" lon="13.552036199147159"><ele>855.3333333333334</ele><time>2026-04-18T12:58:28.999Z</time></trkpt><trkpt lat="42.53420452831194" lon="13.551818985655917"><ele>847.6666666666667</ele><time>2026-04-18T12:58:29.999Z</time></trkpt><trkpt lat="42.53425249296523" lon="13.551584590461015"><ele>840.0</ele><time>2026-04-18T12:58:30.999Z</time></trkpt><trkpt lat="42.53433016979929" lon="13.55137595144971"><ele>839.6666666666667</ele><time>2026-04-18T12:58:31.999Z</time></trkpt><trkpt lat="42.53444909882282" lon="13.55120490125966"><ele>839.3333333333334</ele><time>2026-04-18T12:58:32.998Z</time></trkpt><trkpt lat="42.53457470029807" lon="13.551024693934474"><ele>839.0</ele><time>2026-04-18T12:58:33.998Z</time></trkpt><trkpt lat="42.53469314122781" lon="13.55085171015709"><ele>839.0</ele><time>2026-04-18T12:58:34.998Z</time></trkpt><trkpt lat="42.5348017340102" lon="13.550695872342926"><ele>839.0</ele><time>2026-04-18T12:58:35.998Z</time></trkpt><trkpt lat="42.5348975476864" lon="13.550572677025333"><ele>839.0</ele><time>2026-04-18T12:58:36.998Z</time></trkpt><trkpt lat="42.53499962000475" lon="13.550494649980505"><ele>839.0</ele><time>2026-04-18T12:58:37.998Z</time></trkpt><trkpt lat="42.53512521717733" lon="13.550471056180587"><ele>839.0</ele><time>2026-04-18T12:58:38.998Z</time></trkpt><trkpt lat="42.535279878856834" lon="13.550409693485474"><ele>839.0</ele><time>2026-04-18T12:58:39.998Z</time></trkpt><trkpt lat="42.535433557919305" lon="13.550289165491654"><ele>839.0</ele><time>2026-04-18T12:58:40.998Z</time></trkpt><trkpt lat="42.53558943249069" lon="13.550142018005209"><ele>834.0</ele><time>2026-04-18T12:58:41.998Z</time></trkpt><trkpt lat="42.535760892313895" lon="13.550037074684338"><ele>829.0</ele><time>2026-04-18T12:58:42.998Z</time></trkpt><trkpt lat="42.535945286859096" lon="13.549955375941037"><ele>824.0</ele><time>2026-04-18T12:58:43.998Z</time></trkpt><trkpt lat="42.53611611713729" lon="13.549878341549997"><ele>828.25</ele><time>2026-04-18T12:58:44.998Z</time></trkpt><trkpt lat="42.536272652271855" lon="13.54981391730398"><ele>832.5</ele><time>2026-04-18T12:58:45.998Z</time></trkpt><trkpt lat="42.53641386082735" lon="13.549791182344594"><ele>836.75</ele><time>2026-04-18T12:58:46.998Z</time></trkpt><trkpt lat="42.5365572717029" lon="13.54978992034838"><ele>841.0</ele><time>2026-04-18T12:58:47.998Z</time></trkpt><trkpt lat="42.53670554920655" lon="13.549764379537015"><ele>841.0</ele><time>2026-04-18T12:58:48.998Z</time></trkpt><trkpt lat="42.5368326798932" lon="13.549628176540402"><ele>841.0</ele><time>2026-04-18T12:58:49.998Z</time></trkpt><trkpt lat="42.53695418984969" lon="13.54945733813915"><ele>841.0</ele><time>2026-04-18T12:58:50.998Z</time></trkpt><trkpt lat="42.53708886751251" lon="13.549269561346911"><ele>834.0</ele><time>2026-04-18T12:58:51.998Z</time></trkpt><trkpt lat="42.537235871202626" lon="13.549135795910702"><ele>827.0</ele><time>2026-04-18T12:58:52.998Z</time></trkpt><trkpt lat="42.537383453521635" lon="13.549000581264037"><ele>820.0</ele><time>2026-04-18T12:58:53.998Z</time></trkpt><trkpt lat="42.53752257859462" lon="13.548875458235225"><ele>820.0</ele><time>2026-04-18T12:58:54.998Z</time></trkpt><trkpt lat="42.537663684816344" lon="13.548772458126852"><ele>820.0</ele><time>2026-04-18T12:58:55.998Z</time></trkpt><trkpt lat="42.53782096679074" lon="13.548712340492877"><ele>820.0</ele><time>2026-04-18T12:58:56.998Z</time></trkpt><trkpt lat="42.5379889739915" lon="13.548670849282308"><ele>812.5</ele><time>2026-04-18T12:58:57.998Z</time></trkpt><trkpt lat="42.5381497241455" lon="13.548631494608216"><ele>805.0</ele><time>2026-04-18T12:58:58.998Z</time></trkpt><trkpt lat="42.53828546665947" lon="13.548598855544972"><ele>797.5</ele><time>2026-04-18T12:58:59.998Z</time></trkpt><trkpt lat="42.53841255731939" lon="13.54858445030057"><ele>790.0</ele><time>2026-04-18T12:59:00.998Z</time></trkpt><trkpt lat="42.538530797266475" lon="13.548627904082291"><ele>794.3333333333333</ele><time>2026-04-18T12:59:01.998Z</time></trkpt><trkpt lat="42.538647022676976" lon="13.548748062132582"><ele>798.6666666666667</ele><time>2026-04-18T12:59:02.998Z</time></trkpt><trkpt lat="42.53878768179895" lon="13.54888626265901"><ele>803.0</ele><time>2026-04-18T12:59:03.998Z</time></trkpt><trkpt lat="42.538939363239024" lon="13.549022860234054"><ele>803.0</ele><time>2026-04-18T12:59:04.998Z</time></trkpt><trkpt lat="42.539123391177746" lon="13.549100766160912"><ele>803.0</ele><time>2026-04-18T12:59:05.998Z</time></trkpt><trkpt lat="42.539324437579175" lon="13.549166463788813"><ele>803.0</ele><time>2026-04-18T12:59:06.998Z</time></trkpt><trkpt lat="42.53951231804992" lon="13.549248965361958"><ele>795.6666666666667</ele><time>2026-04-18T12:59:07.998Z</time></trkpt><trkpt lat="42.53969127246432" lon="13.549326929282953"><ele>788.3333333333333</ele><time>2026-04-18T12:59:08.998Z</time></trkpt><trkpt lat="42.53984773931436" lon="13.549400192117643"><ele>781.0</ele><time>2026-04-18T12:59:09.997Z</time></trkpt><trkpt lat="42.539980683952464" lon="13.549482346471223"><ele>789.5999999999999</ele><time>2026-04-18T12:59:10.997Z</time></trkpt><trkpt lat="42.54009091547212" lon="13.5495839322171"><ele>798.2</ele><time>2026-04-18T12:59:11.997Z</time></trkpt><trkpt lat="42.5401682578682" lon="13.549701437895527"><ele>806.8</ele><time>2026-04-18T12:59:12.997Z</time></trkpt><trkpt lat="42.54023819050684" lon="13.549779407509764"><ele>815.4000000000001</ele><time>2026-04-18T12:59:13.997Z</time></trkpt><trkpt lat="42.54030662878962" lon="13.549811875775527"><ele>824.0</ele><time>2026-04-18T12:59:14.997Z</time></trkpt><trkpt lat="42.54038257249917" lon="13.549753124322178"><ele>813.25</ele><time>2026-04-18T12:59:15.997Z</time></trkpt><trkpt lat="42.54039860415099" lon="13.549602259087498"><ele>802.5</ele><time>2026-04-18T12:59:16.997Z</time></trkpt><trkpt lat="42.54035564930384" lon="13.549468552692888"><ele>791.75</ele><time>2026-04-18T12:59:17.997Z</time></trkpt><trkpt lat="42.54020435394294" lon="13.549393425642512"><ele>781.0</ele><time>2026-04-18T12:59:18.997Z</time></trkpt><trkpt lat="42.540076378647626" lon="13.549280763629504"><ele>781.0</ele><time>2026-04-18T12:59:19.997Z</time></trkpt><trkpt lat="42.539940630458574" lon="13.549170325150424"><ele>781.0</ele><time>2026-04-18T12:59:20.997Z</time></trkpt><trkpt lat="42.5398017699069" lon="13.549057444247543"><ele>781.0</ele><time>2026-04-18T12:59:21.997Z</time></trkpt><trkpt lat="42.53965487080685" lon="13.54894216374444"><ele>781.3333333333333</ele><time>2026-04-18T12:59:22.997Z</time></trkpt><trkpt lat="42.53951313520754" lon="13.548829232741676"><ele>781.6666666666667</ele><time>2026-04-18T12:59:23.997Z</time></trkpt><trkpt lat="42.539402819600575" lon="13.548697079289923"><ele>782.0</ele><time>2026-04-18T12:59:24.997Z</time></trkpt><trkpt lat="42.53930801902114" lon="13.548542585636259"><ele>782.0</ele><time>2026-04-18T12:59:25.997Z</time></trkpt><trkpt lat="42.5392030464264" lon="13.548401611175183"><ele>782.0</ele><time>2026-04-18T12:59:26.997Z</time></trkpt><trkpt lat="42.53909189846592" lon="13.548268582995195"><ele>782.0</ele><time>2026-04-18T12:59:27.997Z</time></trkpt><trkpt lat="42.538928421789706" lon="13.548199511670184"><ele>782.0</ele><time>2026-04-18T12:59:28.997Z</time></trkpt><trkpt lat="42.53875006389278" lon="13.548153465938068"><ele>782.0</ele><time>2026-04-18T12:59:29.997Z</time></trkpt><trkpt lat="42.53857033931619" lon="13.548099447369175"><ele>782.0</ele><time>2026-04-18T12:59:30.997Z</time></trkpt><trkpt lat="42.53838307202198" lon="13.54806147226113"><ele>779.6666666666667</ele><time>2026-04-18T12:59:31.997Z</time></trkpt><trkpt lat="42.53819533424066" lon="13.54805633693566"><ele>777.3333333333333</ele><time>2026-04-18T12:59:32.997Z</time></trkpt><trkpt lat="42.53800688810555" lon="13.548110172133942"><ele>775.0</ele><time>2026-04-18T12:59:33.997Z</time></trkpt><trkpt lat="42.53781479093086" lon="13.548194065512375"><ele>775.0</ele><time>2026-04-18T12:59:34.997Z</time></trkpt><trkpt lat="42.53762787558075" lon="13.54826442581618"><ele>775.0</ele><time>2026-04-18T12:59:35.997Z</time></trkpt><trkpt lat="42.53744456120589" lon="13.548316376108314"><ele>775.0</ele><time>2026-04-18T12:59:36.997Z</time></trkpt><trkpt lat="42.53727604871551" lon="13.548364241397126"><ele>775.0</ele><time>2026-04-18T12:59:38Z</time></trkpt><trkpt lat="42.53710914841492" lon="13.548413904108509"><ele>775.0</ele><time>2026-04-18T12:59:39Z</time></trkpt><trkpt lat="42.53694975993801" lon="13.548475156130923"><ele>775.0</ele><time>2026-04-18T12:59:40Z</time></trkpt><trkpt lat="42.53680260331922" lon="13.548556022734088"><ele>768.3333333333333</ele><time>2026-04-18T12:59:41Z</time></trkpt><trkpt lat="42.53666903477813" lon="13.5486570047538"><ele>761.6666666666666</ele><time>2026-04-18T12:59:42Z</time></trkpt><trkpt lat="42.536518652139286" lon="13.548737617788078"><ele>755.0</ele><time>2026-04-18T12:59:43Z</time></trkpt><trkpt lat="42.53634668126147" lon="13.548726821566081"><ele>764.0</ele><time>2026-04-18T12:59:44Z</time></trkpt><trkpt lat="42.53616371405137" lon="13.548756412535207"><ele>773.0</ele><time>2026-04-18T12:59:45Z</time></trkpt><trkpt lat="42.53598232903178" lon="13.548748680314516"><ele>782.0</ele><time>2026-04-18T12:59:46Z</time></trkpt><trkpt lat="42.53579979119492" lon="13.54876848909873"><ele>782.0</ele><time>2026-04-18T12:59:47Z</time></trkpt><trkpt lat="42.53562990535943" lon="13.548803077064738"><ele>782.0</ele><time>2026-04-18T12:59:48Z</time></trkpt><trkpt lat="42.53547017337872" lon="13.548808326126473"><ele>782.0</ele><time>2026-04-18T12:59:49Z</time></trkpt><trkpt lat="42.53532321184014" lon="13.548731609699452"><ele>779.25</ele><time>2026-04-18T12:59:50Z</time></trkpt><trkpt lat="42.535176392959755" lon="13.548690483384519"><ele>776.5</ele><time>2026-04-18T12:59:51Z</time></trkpt><trkpt lat="42.535050046549664" lon="13.548650639379044"><ele>773.75</ele><time>2026-04-18T12:59:52Z</time></trkpt><trkpt lat="42.53492449156105" lon="13.548685488095483"><ele>771.0</ele><time>2026-04-18T12:59:53Z</time></trkpt><trkpt lat="42.53479205006222" lon="13.548795394058637"><ele>771.0</ele><time>2026-04-18T12:59:54Z</time></trkpt><trkpt lat="42.53465431081593" lon="13.54892629538066"><ele>771.0</ele><time>2026-04-18T12:59:55Z</time></trkpt><trkpt lat="42.53448956907012" lon="13.548976169021657"><ele>771.0</ele><time>2026-04-18T12:59:56Z</time></trkpt><trkpt lat="42.53432930866115" lon="13.549036455968613"><ele>765.0</ele><time>2026-04-18T12:59:57Z</time></trkpt><trkpt lat="42.53418207769655" lon="13.549101940571301"><ele>759.0</ele><time>2026-04-18T12:59:58Z</time></trkpt><trkpt lat="42.53406798322582" lon="13.549224091436475"><ele>753.0</ele><time>2026-04-18T12:59:59Z</time></trkpt><trkpt lat="42.53398590090128" lon="13.549377204874675"><ele>747.0</ele><time>2026-04-18T13:00:00Z</time></trkpt><trkpt lat="42.53392273401692" lon="13.549505991484198"><ele>747.0</ele><time>2026-04-18T13:00:00.999Z</time></trkpt><trkpt lat="42.533857736670605" lon="13.549591795519413"><ele>747.0</ele><time>2026-04-18T13:00:01.999Z</time></trkpt><trkpt lat="42.53379501999829" lon="13.54963856231165"><ele>747.0</ele><time>2026-04-18T13:00:02.999Z</time></trkpt><trkpt lat="42.53371354039886" lon="13.549545675034318"><ele>747.0</ele><time>2026-04-18T13:00:04.999Z</time></trkpt><trkpt lat="42.533726366442274" lon="13.549457745709491"><ele>747.0</ele><time>2026-04-18T13:00:05.999Z</time></trkpt><trkpt lat="42.533799533584904" lon="13.549407242212343"><ele>747.0</ele><time>2026-04-18T13:00:06.999Z</time></trkpt><trkpt lat="42.533864584355634" lon="13.549316553966742"><ele>747.0</ele><time>2026-04-18T13:00:07.999Z</time></trkpt><trkpt lat="42.533937855976795" lon="13.549212095194397"><ele>747.0</ele><time>2026-04-18T13:00:08.999Z</time></trkpt><trkpt lat="42.5340233809726" lon="13.549093625466412"><ele>747.0</ele><time>2026-04-18T13:00:09.999Z</time></trkpt><trkpt lat="42.53411158924307" lon="13.548978586650778"><ele>747.0</ele><time>2026-04-18T13:00:10.999Z</time></trkpt><trkpt lat="42.534214537287944" lon="13.548893198399837"><ele>747.0</ele><time>2026-04-18T13:00:11.999Z</time></trkpt><trkpt lat="42.53434170618479" lon="13.548850181092469"><ele>747.0</ele><time>2026-04-18T13:00:12.999Z</time></trkpt><trkpt lat="42.53448764601266" lon="13.548784422023138"><ele>747.0</ele><time>2026-04-18T13:00:13.999Z</time></trkpt><trkpt lat="42.53461198984873" lon="13.54863698301376"><ele>742.25</ele><time>2026-04-18T13:00:14.999Z</time></trkpt><trkpt lat="42.53473232078568" lon="13.548511271478004"><ele>737.5</ele><time>2026-04-18T13:00:15.999Z</time></trkpt><trkpt lat="42.53484180400544" lon="13.54838309861096"><ele>732.75</ele><time>2026-04-18T13:00:16.999Z</time></trkpt><trkpt lat="42.5349401486224" lon="13.548272267037444"><ele>728.0</ele><time>2026-04-18T13:00:17.999Z</time></trkpt><trkpt lat="42.53504153371523" lon="13.548185945938764"><ele>728.0</ele><time>2026-04-18T13:00:18.999Z</time></trkpt><trkpt lat="42.53516185624092" lon="13.548160139216868"><ele>728.0</ele><time>2026-04-18T13:00:19.999Z</time></trkpt><trkpt lat="42.53531121417485" lon="13.548127954835413"><ele>728.0</ele><time>2026-04-18T13:00:20.999Z</time></trkpt><trkpt lat="42.5354607876181" lon="13.54803418105172"><ele>728.0</ele><time>2026-04-18T13:00:21.999Z</time></trkpt><trkpt lat="42.53561347023843" lon="13.547902394158685"><ele>722.0</ele><time>2026-04-18T13:00:22.999Z</time></trkpt><trkpt lat="42.53577503612367" lon="13.547758564895503"><ele>716.0</ele><time>2026-04-18T13:00:23.999Z</time></trkpt><trkpt lat="42.53592799700553" lon="13.547616500652964"><ele>710.0</ele><time>2026-04-18T13:00:24.999Z</time></trkpt><trkpt lat="42.53607967815529" lon="13.547492673762378"><ele>714.6666666666666</ele><time>2026-04-18T13:00:25.999Z</time></trkpt><trkpt lat="42.536237052785474" lon="13.54740416573027"><ele>719.3333333333334</ele><time>2026-04-18T13:00:26.999Z</time></trkpt><trkpt lat="42.53640600105655" lon="13.547346493765026"><ele>724.0</ele><time>2026-04-18T13:00:27.999Z</time></trkpt><trkpt lat="42.53655472013137" lon="13.547237155550793"><ele>724.0</ele><time>2026-04-18T13:00:28.999Z</time></trkpt><trkpt lat="42.536698950001785" lon="13.54710196966132"><ele>724.0</ele><time>2026-04-18T13:00:29.999Z</time></trkpt><trkpt lat="42.536851493364644" lon="13.546976485442684"><ele>724.0</ele><time>2026-04-18T13:00:30.999Z</time></trkpt><trkpt lat="42.53699261032627" lon="13.546855829059073"><ele>719.3333333333334</ele><time>2026-04-18T13:00:31.999Z</time></trkpt><trkpt lat="42.53713442122941" lon="13.546748999589825"><ele>714.6666666666666</ele><time>2026-04-18T13:00:32.999Z</time></trkpt><trkpt lat="42.537286283093344" lon="13.54665621260857"><ele>710.0</ele><time>2026-04-18T13:00:33.999Z</time></trkpt><trkpt lat="42.53745591002577" lon="13.546585210076797"><ele>710.0</ele><time>2026-04-18T13:00:34.999Z</time></trkpt><trkpt lat="42.53763666400976" lon="13.546526414980583"><ele>710.0</ele><time>2026-04-18T13:00:35.999Z</time></trkpt><trkpt lat="42.53782100121149" lon="13.546436453143594"><ele>710.0</ele><time>2026-04-18T13:00:36.999Z</time></trkpt><trkpt lat="42.53800159510811" lon="13.54634233315894"><ele>713.0</ele><time>2026-04-18T13:00:37.998Z</time></trkpt><trkpt lat="42.53817361096673" lon="13.546239078216278"><ele>716.0</ele><time>2026-04-18T13:00:38.998Z</time></trkpt><trkpt lat="42.538336973837424" lon="13.546121876099113"><ele>719.0</ele><time>2026-04-18T13:00:39.998Z</time></trkpt><trkpt lat="42.53849425862624" lon="13.54600891731356"><ele>705.3333333333333</ele><time>2026-04-18T13:00:40.998Z</time></trkpt><trkpt lat="42.53864195213146" lon="13.5459053656401"><ele>691.6666666666666</ele><time>2026-04-18T13:00:41.998Z</time></trkpt><trkpt lat="42.53878331249011" lon="13.545816229792152"><ele>678.0</ele><time>2026-04-18T13:00:42.998Z</time></trkpt><trkpt lat="42.53890705401772" lon="13.545767812653851"><ele>677.75</ele><time>2026-04-18T13:00:43.998Z</time></trkpt><trkpt lat="42.5390289670814" lon="13.545775257238052"><ele>677.5</ele><time>2026-04-18T13:00:44.998Z</time></trkpt><trkpt lat="42.53914701791199" lon="13.545852983067979"><ele>677.25</ele><time>2026-04-18T13:00:45.998Z</time></trkpt><trkpt lat="42.53924459222079" lon="13.54597570512597"><ele>677.0</ele><time>2026-04-18T13:00:46.998Z</time></trkpt><trkpt lat="42.53935335074707" lon="13.546124454132434"><ele>678.3333333333333</ele><time>2026-04-18T13:00:47.998Z</time></trkpt><trkpt lat="42.53947003115876" lon="13.546257576992069"><ele>679.6666666666666</ele><time>2026-04-18T13:00:48.998Z</time></trkpt><trkpt lat="42.539592364266475" lon="13.546378201235663"><ele>681.0</ele><time>2026-04-18T13:00:49.998Z</time></trkpt><trkpt lat="42.5397359031625" lon="13.546512371907543"><ele>681.0</ele><time>2026-04-18T13:00:50.998Z</time></trkpt><trkpt lat="42.539909198876046" lon="13.546645320461861"><ele>681.0</ele><time>2026-04-18T13:00:51.998Z</time></trkpt><trkpt lat="42.54008992227768" lon="13.546783363377378"><ele>681.0</ele><time>2026-04-18T13:00:52.998Z</time></trkpt><trkpt lat="42.54028092482851" lon="13.546915436760283"><ele>681.0</ele><time>2026-04-18T13:00:53.998Z</time></trkpt><trkpt lat="42.540460007158366" lon="13.547060603630065"><ele>681.0</ele><time>2026-04-18T13:00:54.998Z</time></trkpt><trkpt lat="42.54060288418941" lon="13.54723135086755"><ele>681.0</ele><time>2026-04-18T13:00:55.998Z</time></trkpt><trkpt lat="42.54075691054284" lon="13.547361887092894"><ele>681.0</ele><time>2026-04-18T13:00:56.998Z</time></trkpt><trkpt lat="42.54091156411333" lon="13.547468149947523"><ele>681.0</ele><time>2026-04-18T13:00:57.998Z</time></trkpt><trkpt lat="42.54105401827622" lon="13.547575396536503"><ele>681.0</ele><time>2026-04-18T13:00:58.998Z</time></trkpt><trkpt lat="42.541174786717434" lon="13.5477116246283"><ele>681.0</ele><time>2026-04-18T13:00:59.998Z</time></trkpt><trkpt lat="42.54129109602927" lon="13.547838839628676"><ele>681.0</ele><time>2026-04-18T13:01:00.998Z</time></trkpt><trkpt lat="42.541393203207825" lon="13.547954140399794"><ele>681.0</ele><time>2026-04-18T13:01:01.998Z</time></trkpt><trkpt lat="42.541540968100904" lon="13.547954217292963"><ele>681.0</ele><time>2026-04-18T13:01:02.998Z</time></trkpt><trkpt lat="42.541687666086546" lon="13.547958181345777"><ele>681.0</ele><time>2026-04-18T13:01:03.998Z</time></trkpt><trkpt lat="42.54181377374269" lon="13.5479454150367"><ele>681.0</ele><time>2026-04-18T13:01:04.998Z</time></trkpt><trkpt lat="42.54192569072839" lon="13.548024765694143"><ele>681.0</ele><time>2026-04-18T13:01:05.998Z</time></trkpt><trkpt lat="42.542008038428314" lon="13.54815946922363"><ele>681.0</ele><time>2026-04-18T13:01:06.998Z</time></trkpt><trkpt lat="42.54204690021431" lon="13.548325140395477"><ele>672.3333333333334</ele><time>2026-04-18T13:01:07.998Z</time></trkpt><trkpt lat="42.54209529098283" lon="13.548524220971679"><ele>663.6666666666667</ele><time>2026-04-18T13:01:08.998Z</time></trkpt><trkpt lat="42.542151448429664" lon="13.548728753674556"><ele>655.0</ele><time>2026-04-18T13:01:09.998Z</time></trkpt><trkpt lat="42.54219905350226" lon="13.548916334990643"><ele>655.0</ele><time>2026-04-18T13:01:10.998Z</time></trkpt><trkpt lat="42.54224990391487" lon="13.549086863912631"><ele>655.0</ele><time>2026-04-18T13:01:11.998Z</time></trkpt><trkpt lat="42.54232365420049" lon="13.549222818084084"><ele>655.0</ele><time>2026-04-18T13:01:12.998Z</time></trkpt><trkpt lat="42.54242583926275" lon="13.54930377817524"><ele>655.0</ele><time>2026-04-18T13:01:13.998Z</time></trkpt><trkpt lat="42.54254335557747" lon="13.549311445231014"><ele>655.0</ele><time>2026-04-18T13:01:14.997Z</time></trkpt><trkpt lat="42.542673004424024" lon="13.549253781153817"><ele>655.0</ele><time>2026-04-18T13:01:15.997Z</time></trkpt><trkpt lat="42.54281937705765" lon="13.549231690854924"><ele>655.0</ele><time>2026-04-18T13:01:16.997Z</time></trkpt><trkpt lat="42.5429481499328" lon="13.549208614204145"><ele>655.0</ele><time>2026-04-18T13:01:17.997Z</time></trkpt><trkpt lat="42.543070865795016" lon="13.54925874927161"><ele>651.5</ele><time>2026-04-18T13:01:18.997Z</time></trkpt><trkpt lat="42.54319488977798" lon="13.549330974571575"><ele>648.0</ele><time>2026-04-18T13:01:19.997Z</time></trkpt><trkpt lat="42.54331887826988" lon="13.549399240177063"><ele>644.5</ele><time>2026-04-18T13:01:20.997Z</time></trkpt><trkpt lat="42.54345140596441" lon="13.54943124458751"><ele>641.0</ele><time>2026-04-18T13:01:21.997Z</time></trkpt><trkpt lat="42.54357945911483" lon="13.549335382358274"><ele>641.0</ele><time>2026-04-18T13:01:22.997Z</time></trkpt><trkpt lat="42.543695709255935" lon="13.54923583183197"><ele>641.0</ele><time>2026-04-18T13:01:23.997Z</time></trkpt><trkpt lat="42.54382586541164" lon="13.549213537695948"><ele>641.0</ele><time>2026-04-18T13:01:24.997Z</time></trkpt><trkpt lat="42.54395747878065" lon="13.549241932850546"><ele>641.0</ele><time>2026-04-18T13:01:25.997Z</time></trkpt><trkpt lat="42.54410480607245" lon="13.549280056359759"><ele>637.6666666666666</ele><time>2026-04-18T13:01:26.997Z</time></trkpt><trkpt lat="42.54424610155462" lon="13.549380473098337"><ele>634.3333333333334</ele><time>2026-04-18T13:01:27.997Z</time></trkpt><trkpt lat="42.54437638980375" lon="13.549509950237471"><ele>631.0</ele><time>2026-04-18T13:01:28.997Z</time></trkpt><trkpt lat="42.54450343186848" lon="13.549628502393896"><ele>636.3333333333334</ele><time>2026-04-18T13:01:29.997Z</time></trkpt><trkpt lat="42.54465241247764" lon="13.549709464448094"><ele>641.6666666666666</ele><time>2026-04-18T13:01:30.997Z</time></trkpt><trkpt lat="42.54483565103577" lon="13.549740697055359"><ele>647.0</ele><time>2026-04-18T13:01:31.997Z</time></trkpt><trkpt lat="42.54502053609838" lon="13.549788408628713"><ele>647.0</ele><time>2026-04-18T13:01:32.997Z</time></trkpt><trkpt lat="42.54520133347919" lon="13.54980658428549"><ele>647.0</ele><time>2026-04-18T13:01:33.997Z</time></trkpt><trkpt lat="42.54537522149014" lon="13.549833975943207"><ele>647.0</ele><time>2026-04-18T13:01:34.997Z</time></trkpt><trkpt lat="42.54554959532895" lon="13.549809850490096"><ele>646.0</ele><time>2026-04-18T13:01:35.997Z</time></trkpt><trkpt lat="42.545730254552005" lon="13.549751610939712"><ele>645.0</ele><time>2026-04-18T13:01:36.997Z</time></trkpt><trkpt lat="42.54589828963957" lon="13.549664701057115"><ele>644.0</ele><time>2026-04-18T13:01:37.997Z</time></trkpt><trkpt lat="42.546067312820405" lon="13.549583818284592"><ele>630.3333333333333</ele><time>2026-04-18T13:01:38.997Z</time></trkpt><trkpt lat="42.54623145814506" lon="13.54948556451215"><ele>616.6666666666666</ele><time>2026-04-18T13:01:39.997Z</time></trkpt><trkpt lat="42.54637353267134" lon="13.549362979112372"><ele>603.0</ele><time>2026-04-18T13:01:40.997Z</time></trkpt><trkpt lat="42.54650248797921" lon="13.549255749494307"><ele>603.0</ele><time>2026-04-18T13:01:41.997Z</time></trkpt><trkpt lat="42.54665405879613" lon="13.54920235746977"><ele>603.0</ele><time>2026-04-18T13:01:42.997Z</time></trkpt><trkpt lat="42.54681759249585" lon="13.549175893263476"><ele>603.0</ele><time>2026-04-18T13:01:44Z</time></trkpt><trkpt lat="42.54698364567056" lon="13.549175248733063"><ele>602.6666666666666</ele><time>2026-04-18T13:01:45Z</time></trkpt><trkpt lat="42.54715176694681" lon="13.549182840291133"><ele>602.3333333333333</ele><time>2026-04-18T13:01:46Z</time></trkpt><trkpt lat="42.54732428457511" lon="13.54923469213846"><ele>602.0</ele><time>2026-04-18T13:01:47Z</time></trkpt><trkpt lat="42.54750374204979" lon="13.549320638692125"><ele>602.0</ele><time>2026-04-18T13:01:48Z</time></trkpt><trkpt lat="42.54767815046176" lon="13.549405988131905"><ele>602.0</ele><time>2026-04-18T13:01:49Z</time></trkpt><trkpt lat="42.54784341453629" lon="13.549483152603125"><ele>602.0</ele><time>2026-04-18T13:01:50Z</time></trkpt><trkpt lat="42.54798597631624" lon="13.549552273226874"><ele>606.2</ele><time>2026-04-18T13:01:51Z</time></trkpt><trkpt lat="42.5481096485635" lon="13.549616501234654"><ele>610.4000000000001</ele><time>2026-04-18T13:01:52Z</time></trkpt><trkpt lat="42.548215402728594" lon="13.549665077676126"><ele>614.5999999999999</ele><time>2026-04-18T13:01:53Z</time></trkpt><trkpt lat="42.548302949320394" lon="13.54968525596151"><ele>618.8</ele><time>2026-04-18T13:01:54Z</time></trkpt><trkpt lat="42.548377594316676" lon="13.549672378400857"><ele>623.0</ele><time>2026-04-18T13:01:55Z</time></trkpt><trkpt lat="42.54842835755552" lon="13.549576820431632"><ele>614.75</ele><time>2026-04-18T13:01:56Z</time></trkpt><trkpt lat="42.548404035967586" lon="13.549435744614337"><ele>606.5</ele><time>2026-04-18T13:01:57Z</time></trkpt><trkpt lat="42.54830545444529" lon="13.549334306434059"><ele>598.25</ele><time>2026-04-18T13:01:58Z</time></trkpt><trkpt lat="42.54817999422818" lon="13.54931382321873"><ele>590.0</ele><time>2026-04-18T13:01:59Z</time></trkpt><trkpt lat="42.54805468024503" lon="13.549295890434658"><ele>590.0</ele><time>2026-04-18T13:02:00Z</time></trkpt><trkpt lat="42.547942961523916" lon="13.549268729327624"><ele>590.0</ele><time>2026-04-18T13:02:01Z</time></trkpt><trkpt lat="42.54785410348134" lon="13.549227396187934"><ele>590.0</ele><time>2026-04-18T13:02:02Z</time></trkpt><trkpt lat="42.54778217633625" lon="13.549159189632537"><ele>590.0</ele><time>2026-04-18T13:02:03Z</time></trkpt><trkpt lat="42.54774716167054" lon="13.54906299566271"><ele>590.0</ele><time>2026-04-18T13:02:04Z</time></trkpt><trkpt lat="42.54776726628728" lon="13.548968877380002"><ele>590.0</ele><time>2026-04-18T13:02:05Z</time></trkpt><trkpt lat="42.54783889474863" lon="13.548902880179497"><ele>590.0</ele><time>2026-04-18T13:02:06Z</time></trkpt><trkpt lat="42.54794132009868" lon="13.548904847768306"><ele>590.0</ele><time>2026-04-18T13:02:07Z</time></trkpt><trkpt lat="42.54804401656012" lon="13.548994998587396"><ele>590.0</ele><time>2026-04-18T13:02:08Z</time></trkpt><trkpt lat="42.548170976574646" lon="13.54907162118968"><ele>590.0</ele><time>2026-04-18T13:02:08.999Z</time></trkpt><trkpt lat="42.54829966531244" lon="13.549183365902657"><ele>590.0</ele><time>2026-04-18T13:02:09.999Z</time></trkpt><trkpt lat="42.548456313019635" lon="13.549268417538507"><ele>590.0</ele><time>2026-04-18T13:02:10.999Z</time></trkpt><trkpt lat="42.54862582717724" lon="13.549316803398648"><ele>590.0</ele><time>2026-04-18T13:02:11.999Z</time></trkpt><trkpt lat="42.54879647324644" lon="13.549312182341476"><ele>585.6666666666666</ele><time>2026-04-18T13:02:12.999Z</time></trkpt><trkpt lat="42.54895288279668" lon="13.549306237411493"><ele>581.3333333333334</ele><time>2026-04-18T13:02:13.999Z</time></trkpt><trkpt lat="42.54910066173868" lon="13.549299998265013"><ele>577.0</ele><time>2026-04-18T13:02:14.999Z</time></trkpt><trkpt lat="42.54924600423002" lon="13.549331565275951"><ele>577.0</ele><time>2026-04-18T13:02:15.999Z</time></trkpt><trkpt lat="42.549389116143296" lon="13.549378035583734"><ele>577.0</ele><time>2026-04-18T13:02:16.999Z</time></trkpt><trkpt lat="42.54950940911985" lon="13.549453136532842"><ele>577.0</ele><time>2026-04-18T13:02:17.999Z</time></trkpt><trkpt lat="42.54960523273838" lon="13.549567280719474"><ele>577.0</ele><time>2026-04-18T13:02:18.999Z</time></trkpt><trkpt lat="42.54966838742221" lon="13.549724004679643"><ele>577.4</ele><time>2026-04-18T13:02:19.999Z</time></trkpt><trkpt lat="42.549743194076164" lon="13.549849628208111"><ele>577.8000000000001</ele><time>2026-04-18T13:02:20.999Z</time></trkpt><trkpt lat="42.54982385540476" lon="13.549914492836802"><ele>578.2</ele><time>2026-04-18T13:02:21.999Z</time></trkpt><trkpt lat="42.549898547059016" lon="13.549943959759261"><ele>578.6</ele><time>2026-04-18T13:02:22.999Z</time></trkpt><trkpt lat="42.54998236310535" lon="13.549871887762324"><ele>579.0</ele><time>2026-04-18T13:02:23.999Z</time></trkpt><trkpt lat="42.55001595374917" lon="13.549699921979375"><ele>579.0</ele><time>2026-04-18T13:02:24.999Z</time></trkpt><trkpt lat="42.54991340301573" lon="13.549547031441977"><ele>579.0</ele><time>2026-04-18T13:02:25.999Z</time></trkpt><trkpt lat="42.54981879391004" lon="13.549418925219188"><ele>579.0</ele><time>2026-04-18T13:02:26.999Z</time></trkpt><trkpt lat="42.5497057334397" lon="13.549295772064825"><ele>579.0</ele><time>2026-04-18T13:02:27.999Z</time></trkpt><trkpt lat="42.549593257222575" lon="13.549173246980347"><ele>578.5</ele><time>2026-04-18T13:02:28.999Z</time></trkpt><trkpt lat="42.549472929673534" lon="13.549076737327244"><ele>578.0</ele><time>2026-04-18T13:02:29.999Z</time></trkpt><trkpt lat="42.54931798992364" lon="13.549004034546407"><ele>577.5</ele><time>2026-04-18T13:02:30.999Z</time></trkpt><trkpt lat="42.549224469768916" lon="13.549022150876997"><ele>577.0</ele><time>2026-04-18T13:02:31.999Z</time></trkpt><trkpt lat="42.549115645857135" lon="13.549022385392679"><ele>577.0</ele><time>2026-04-18T13:02:32.999Z</time></trkpt><trkpt lat="42.5490255077626" lon="13.548982913404785"><ele>577.0</ele><time>2026-04-18T13:02:33.999Z</time></trkpt><trkpt lat="42.548961582303605" lon="13.548896599041393"><ele>577.0</ele><time>2026-04-18T13:02:34.999Z</time></trkpt><trkpt lat="42.548972159389116" lon="13.548788646337876"><ele>577.0</ele><time>2026-04-18T13:02:35.999Z</time></trkpt><trkpt lat="42.54900125422202" lon="13.548699073712662"><ele>577.0</ele><time>2026-04-18T13:02:36.999Z</time></trkpt><trkpt lat="42.549083689558145" lon="13.548664817728277"><ele>577.0</ele><time>2026-04-18T13:02:37.999Z</time></trkpt><trkpt lat="42.549200838438104" lon="13.548713250540155"><ele>577.0</ele><time>2026-04-18T13:02:38.999Z</time></trkpt><trkpt lat="42.54934579070646" lon="13.548754289843782"><ele>577.0</ele><time>2026-04-18T13:02:39.999Z</time></trkpt><trkpt lat="42.549502099294095" lon="13.548822074790293"><ele>577.0</ele><time>2026-04-18T13:02:40.999Z</time></trkpt><trkpt lat="42.54966740198472" lon="13.548893312311831"><ele>571.0</ele><time>2026-04-18T13:02:41.999Z</time></trkpt><trkpt lat="42.54982049479249" lon="13.548982706290627"><ele>565.0</ele><time>2026-04-18T13:02:42.999Z</time></trkpt><trkpt lat="42.549955401400794" lon="13.54908086033781"><ele>559.0</ele><time>2026-04-18T13:02:43.999Z</time></trkpt><trkpt lat="42.55007921721621" lon="13.549199037488306"><ele>559.0</ele><time>2026-04-18T13:02:44.999Z</time></trkpt><trkpt lat="42.55017559378587" lon="13.549347344142191"><ele>559.0</ele><time>2026-04-18T13:02:45.999Z</time></trkpt><trkpt lat="42.55025180424691" lon="13.5495357648196"><ele>559.0</ele><time>2026-04-18T13:02:46.999Z</time></trkpt><trkpt lat="42.550314009164744" lon="13.54974886784553"><ele>554.3333333333334</ele><time>2026-04-18T13:02:47.998Z</time></trkpt><trkpt lat="42.550404556389545" lon="13.549938669961788"><ele>549.6666666666666</ele><time>2026-04-18T13:02:48.998Z</time></trkpt><trkpt lat="42.550509638702465" lon="13.550103132365262"><ele>545.0</ele><time>2026-04-18T13:02:49.998Z</time></trkpt><trkpt lat="42.55063112437726" lon="13.550248710451603"><ele>545.0</ele><time>2026-04-18T13:02:50.998Z</time></trkpt><trkpt lat="42.55078808671321" lon="13.550365849573964"><ele>545.0</ele><time>2026-04-18T13:02:51.998Z</time></trkpt><trkpt lat="42.55096286853408" lon="13.550433368998613"><ele>545.0</ele><time>2026-04-18T13:02:52.998Z</time></trkpt><trkpt lat="42.551141557932894" lon="13.550463796678901"><ele>552.6666666666666</ele><time>2026-04-18T13:02:53.998Z</time></trkpt><trkpt lat="42.55131849235935" lon="13.550499272597422"><ele>560.3333333333334</ele><time>2026-04-18T13:02:54.998Z</time></trkpt><trkpt lat="42.55150433077876" lon="13.550411877860125"><ele>568.0</ele><time>2026-04-18T13:02:55.998Z</time></trkpt><trkpt lat="42.55169102149003" lon="13.550411253079453"><ele>568.0</ele><time>2026-04-18T13:02:56.998Z</time></trkpt><trkpt lat="42.55187548900836" lon="13.550453598998589"><ele>568.0</ele><time>2026-04-18T13:02:57.998Z</time></trkpt><trkpt lat="42.5520551203614" lon="13.550459245742168"><ele>568.0</ele><time>2026-04-18T13:02:58.998Z</time></trkpt><trkpt lat="42.55222697467561" lon="13.550434866863561"><ele>563.3333333333334</ele><time>2026-04-18T13:02:59.998Z</time></trkpt><trkpt lat="42.55238499691104" lon="13.550419560351797"><ele>558.6666666666666</ele><time>2026-04-18T13:03:00.998Z</time></trkpt><trkpt lat="42.552539602631754" lon="13.550426012257548"><ele>554.0</ele><time>2026-04-18T13:03:01.998Z</time></trkpt><trkpt lat="42.55269180904312" lon="13.550464675581038"><ele>554.0</ele><time>2026-04-18T13:03:02.998Z</time></trkpt><trkpt lat="42.55282946647746" lon="13.550550578043955"><ele>554.0</ele><time>2026-04-18T13:03:03.998Z</time></trkpt><trkpt lat="42.552939382961284" lon="13.550681167725445"><ele>554.0</ele><time>2026-04-18T13:03:04.998Z</time></trkpt><trkpt lat="42.55302486589804" lon="13.550821715691031"><ele>554.0</ele><time>2026-04-18T13:03:05.998Z</time></trkpt><trkpt lat="42.553079982181565" lon="13.550941544709566"><ele>548.6</ele><time>2026-04-18T13:03:06.998Z</time></trkpt><trkpt lat="42.55315595264678" lon="13.551006936930102"><ele>543.2</ele><time>2026-04-18T13:03:07.998Z</time></trkpt><trkpt lat="42.55323573045087" lon="13.551017823342015"><ele>537.8000000000001</ele><time>2026-04-18T13:03:08.998Z</time></trkpt><trkpt lat="42.553312730584864" lon="13.550953996596546"><ele>532.4</ele><time>2026-04-18T13:03:09.998Z</time></trkpt><trkpt lat="42.55333529323941" lon="13.55079209382953"><ele>527.0</ele><time>2026-04-18T13:03:10.998Z</time></trkpt><trkpt lat="42.5532402779468" lon="13.550637682115264"><ele>527.0</ele><time>2026-04-18T13:03:11.998Z</time></trkpt><trkpt lat="42.553178898318706" lon="13.550500074830577"><ele>527.0</ele><time>2026-04-18T13:03:12.998Z</time></trkpt><trkpt lat="42.55309828536174" lon="13.550340067503424"><ele>527.0</ele><time>2026-04-18T13:03:13.998Z</time></trkpt><trkpt lat="42.55296888741392" lon="13.5502173103545"><ele>527.0</ele><time>2026-04-18T13:03:14.998Z</time></trkpt><trkpt lat="42.552806929371805" lon="13.550149276378185"><ele>524.3333333333333</ele><time>2026-04-18T13:03:15.998Z</time></trkpt><trkpt lat="42.55263555041892" lon="13.550079302594654"><ele>521.6666666666666</ele><time>2026-04-18T13:03:16.998Z</time></trkpt><trkpt lat="42.55244915341593" lon="13.550083615145942"><ele>519.0</ele><time>2026-04-18T13:03:17.998Z</time></trkpt><trkpt lat="42.552269771530256" lon="13.55009894508344"><ele>519.0</ele><time>2026-04-18T13:03:18.998Z</time></trkpt><trkpt lat="42.552110954150805" lon="13.550113033440606"><ele>519.0</ele><time>2026-04-18T13:03:19.998Z</time></trkpt><trkpt lat="42.55195559447459" lon="13.55011553950495"><ele>519.0</ele><time>2026-04-18T13:03:20.998Z</time></trkpt><trkpt lat="42.55182855724928" lon="13.550059534736082"><ele>519.0</ele><time>2026-04-18T13:03:21.998Z</time></trkpt><trkpt lat="42.55172934514064" lon="13.549963989630925"><ele>520.6666666666666</ele><time>2026-04-18T13:03:22.998Z</time></trkpt><trkpt lat="42.55157671448447" lon="13.549863794157549"><ele>522.3333333333333</ele><time>2026-04-18T13:03:23.998Z</time></trkpt><trkpt lat="42.55141207046739" lon="13.549859893240008"><ele>524.0</ele><time>2026-04-18T13:03:24.997Z</time></trkpt><trkpt lat="42.551280727554996" lon="13.549858016535486"><ele>523.25</ele><time>2026-04-18T13:03:25.997Z</time></trkpt><trkpt lat="42.55116000121749" lon="13.549814656081358"><ele>522.5</ele><time>2026-04-18T13:03:26.997Z</time></trkpt><trkpt lat="42.551054281417244" lon="13.549722361072234"><ele>521.75</ele><time>2026-04-18T13:03:27.997Z</time></trkpt><trkpt lat="42.55097728492435" lon="13.549583582713147"><ele>521.0</ele><time>2026-04-18T13:03:28.997Z</time></trkpt><trkpt lat="42.55092681807131" lon="13.549400903939548"><ele>521.0</ele><time>2026-04-18T13:03:29.997Z</time></trkpt><trkpt lat="42.55089321256228" lon="13.54921248691375"><ele>521.0</ele><time>2026-04-18T13:03:30.997Z</time></trkpt><trkpt lat="42.55085526439428" lon="13.549041265664844"><ele>521.0</ele><time>2026-04-18T13:03:31.997Z</time></trkpt><trkpt lat="42.55082251753342" lon="13.5488965547278"><ele>521.0</ele><time>2026-04-18T13:03:32.997Z</time></trkpt><trkpt lat="42.55080376620398" lon="13.548789234627822"><ele>521.0</ele><time>2026-04-18T13:03:33.997Z</time></trkpt><trkpt lat="42.5508591661604" lon="13.548685196929346"><ele>521.0</ele><time>2026-04-18T13:03:35.997Z</time></trkpt><trkpt lat="42.55092208350759" lon="13.548722940364684"><ele>521.0</ele><time>2026-04-18T13:03:36.997Z</time></trkpt><trkpt lat="42.55097386407376" lon="13.548833920558152"><ele>521.0</ele><time>2026-04-18T13:03:37.997Z</time></trkpt><trkpt lat="42.55099155624684" lon="13.548994029428153"><ele>521.0</ele><time>2026-04-18T13:03:38.997Z</time></trkpt><trkpt lat="42.55101108752104" lon="13.549160123165581"><ele>521.0</ele><time>2026-04-18T13:03:39.997Z</time></trkpt><trkpt lat="42.551037084139004" lon="13.549331238216721"><ele>521.0</ele><time>2026-04-18T13:03:40.997Z</time></trkpt><trkpt lat="42.55108877725799" lon="13.549474918155083"><ele>521.0</ele><time>2026-04-18T13:03:41.997Z</time></trkpt><trkpt lat="42.55117944845455" lon="13.549585022977748"><ele>521.0</ele><time>2026-04-18T13:03:42.997Z</time></trkpt><trkpt lat="42.551301269715104" lon="13.549643275413246"><ele>522.0</ele><time>2026-04-18T13:03:43.997Z</time></trkpt><trkpt lat="42.551454283201046" lon="13.549639340038922"><ele>523.0</ele><time>2026-04-18T13:03:44.997Z</time></trkpt><trkpt lat="42.551622903092294" lon="13.549625767247722"><ele>524.0</ele><time>2026-04-18T13:03:45.997Z</time></trkpt><trkpt lat="42.551796452790356" lon="13.549649371874695"><ele>524.0</ele><time>2026-04-18T13:03:46.997Z</time></trkpt><trkpt lat="42.55196103277613" lon="13.549713117005215"><ele>524.0</ele><time>2026-04-18T13:03:47.997Z</time></trkpt><trkpt lat="42.552134467666185" lon="13.549727849205388"><ele>524.0</ele><time>2026-04-18T13:03:49Z</time></trkpt><trkpt lat="42.552319943983726" lon="13.549670931646519"><ele>522.3333333333333</ele><time>2026-04-18T13:03:50Z</time></trkpt><trkpt lat="42.55249125474919" lon="13.54958704372649"><ele>520.6666666666666</ele><time>2026-04-18T13:03:51Z</time></trkpt><trkpt lat="42.55265748941602" lon="13.549474608323907"><ele>519.0</ele><time>2026-04-18T13:03:52Z</time></trkpt><trkpt lat="42.552809628130525" lon="13.549320447966199"><ele>507.66666666666663</ele><time>2026-04-18T13:03:53Z</time></trkpt><trkpt lat="42.55295252157119" lon="13.54918342341345"><ele>496.3333333333333</ele><time>2026-04-18T13:03:54Z</time></trkpt><trkpt lat="42.55307202824845" lon="13.549039001421196"><ele>485.0</ele><time>2026-04-18T13:03:55Z</time></trkpt><trkpt lat="42.55317407997334" lon="13.548911805490935"><ele>485.0</ele><time>2026-04-18T13:03:56Z</time></trkpt><trkpt lat="42.553268539366286" lon="13.548802173529502"><ele>485.0</ele><time>2026-04-18T13:03:57Z</time></trkpt><trkpt lat="42.55337891843045" lon="13.548760474158726"><ele>485.0</ele><time>2026-04-18T13:03:58Z</time></trkpt><trkpt lat="42.55350189281127" lon="13.548780820409194"><ele>485.0</ele><time>2026-04-18T13:03:59Z</time></trkpt><trkpt lat="42.553620550085746" lon="13.548831378934656"><ele>475.25</ele><time>2026-04-18T13:04:00Z</time></trkpt><trkpt lat="42.553727000913064" lon="13.548929508401665"><ele>465.5</ele><time>2026-04-18T13:04:01Z</time></trkpt><trkpt lat="42.553823567423166" lon="13.549064183032106"><ele>455.75</ele><time>2026-04-18T13:04:02Z</time></trkpt><trkpt lat="42.55391279345956" lon="13.549192831691343"><ele>446.0</ele><time>2026-04-18T13:04:03Z</time></trkpt><trkpt lat="42.55397004806044" lon="13.549349163506257"><ele>446.0</ele><time>2026-04-18T13:04:04Z</time></trkpt><trkpt lat="42.55398542668138" lon="13.549524682427277"><ele>446.0</ele><time>2026-04-18T13:04:05Z</time></trkpt><trkpt lat="42.55395508979913" lon="13.549702646290537"><ele>446.0</ele><time>2026-04-18T13:04:06Z</time></trkpt><trkpt lat="42.553895084379675" lon="13.549897595872498"><ele>446.0</ele><time>2026-04-18T13:04:07Z</time></trkpt><trkpt lat="42.55386608280424" lon="13.55011427294644"><ele>447.75</ele><time>2026-04-18T13:04:08Z</time></trkpt><trkpt lat="42.5538669890128" lon="13.55031628967752"><ele>449.5</ele><time>2026-04-18T13:04:09Z</time></trkpt><trkpt lat="42.55386415189921" lon="13.550492227249421"><ele>451.25</ele><time>2026-04-18T13:04:10Z</time></trkpt><trkpt lat="42.55387241490615" lon="13.550632615653004"><ele>453.0</ele><time>2026-04-18T13:04:11Z</time></trkpt><trkpt lat="42.553899586891376" lon="13.550737212493306"><ele>453.0</ele><time>2026-04-18T13:04:12Z</time></trkpt><trkpt lat="42.553953527054844" lon="13.550795055237105"><ele>453.0</ele><time>2026-04-18T13:04:13Z</time></trkpt><trkpt lat="42.5540237643177" lon="13.550797781640393"><ele>453.0</ele><time>2026-04-18T13:04:14Z</time></trkpt><trkpt lat="42.554080630617634" lon="13.550736501895626"><ele>453.0</ele><time>2026-04-18T13:04:14.999Z</time></trkpt><trkpt lat="42.55409637523521" lon="13.55062112435657"><ele>453.0</ele><time>2026-04-18T13:04:15.999Z</time></trkpt><trkpt lat="42.554064999983304" lon="13.550465666709407"><ele>453.0</ele><time>2026-04-18T13:04:16.999Z</time></trkpt><trkpt lat="42.55405389615133" lon="13.550285776903783"><ele>453.0</ele><time>2026-04-18T13:04:17.999Z</time></trkpt><trkpt lat="42.554051944241984" lon="13.550101650555291"><ele>453.0</ele><time>2026-04-18T13:04:18.999Z</time></trkpt><trkpt lat="42.55407217096812" lon="13.549930266536272"><ele>453.0</ele><time>2026-04-18T13:04:19.999Z</time></trkpt><trkpt lat="42.55413908128114" lon="13.549783276631528"><ele>453.0</ele><time>2026-04-18T13:04:20.999Z</time></trkpt><trkpt lat="42.554196077722324" lon="13.549630775929723"><ele>451.25</ele><time>2026-04-18T13:04:21.999Z</time></trkpt><trkpt lat="42.554213793403264" lon="13.54944483087605"><ele>449.5</ele><time>2026-04-18T13:04:22.999Z</time></trkpt><trkpt lat="42.5541932755384" lon="13.549238414112779"><ele>447.75</ele><time>2026-04-18T13:04:23.999Z</time></trkpt><trkpt lat="42.55415628184515" lon="13.549033435660135"><ele>446.0</ele><time>2026-04-18T13:04:24.999Z</time></trkpt><trkpt lat="42.554082866588665" lon="13.548831174741364"><ele>440.0</ele><time>2026-04-18T13:04:25.999Z</time></trkpt><trkpt lat="42.553971739724375" lon="13.548641061056344"><ele>434.0</ele><time>2026-04-18T13:04:26.999Z</time></trkpt><trkpt lat="42.553860970459176" lon="13.548472391040495"><ele>428.0</ele><time>2026-04-18T13:04:27.999Z</time></trkpt><trkpt lat="42.55374488328502" lon="13.54832157217832"><ele>436.3333333333333</ele><time>2026-04-18T13:04:28.999Z</time></trkpt><trkpt lat="42.553604995670135" lon="13.54822106072465"><ele>444.66666666666663</ele><time>2026-04-18T13:04:29.999Z</time></trkpt><trkpt lat="42.553458459885896" lon="13.548150194402773"><ele>453.0</ele><time>2026-04-18T13:04:30.999Z</time></trkpt><trkpt lat="42.553304677076355" lon="13.548129062329323"><ele>453.0</ele><time>2026-04-18T13:04:31.999Z</time></trkpt><trkpt lat="42.55314176129594" lon="13.54816544344237"><ele>453.0</ele><time>2026-04-18T13:04:32.999Z</time></trkpt><trkpt lat="42.553003373925236" lon="13.548249600456566"><ele>453.0</ele><time>2026-04-18T13:04:33.999Z</time></trkpt><trkpt lat="42.55288312245652" lon="13.548345118860137"><ele>451.79999999999995</ele><time>2026-04-18T13:04:34.999Z</time></trkpt><trkpt lat="42.552791102042136" lon="13.548436572037938"><ele>450.59999999999997</ele><time>2026-04-18T13:04:35.999Z</time></trkpt><trkpt lat="42.5527102502393" lon="13.548505851214957"><ele>449.40000000000003</ele><time>2026-04-18T13:04:36.999Z</time></trkpt><trkpt lat="42.55262759740537" lon="13.548533447674131"><ele>448.20000000000005</ele><time>2026-04-18T13:04:37.999Z</time></trkpt><trkpt lat="42.552545479985845" lon="13.548451421645304"><ele>447.0</ele><time>2026-04-18T13:04:39.999Z</time></trkpt><trkpt lat="42.55256926768185" lon="13.548371413944201"><ele>447.0</ele><time>2026-04-18T13:04:40.999Z</time></trkpt><trkpt lat="42.55265752559933" lon="13.548340776357971"><ele>447.0</ele><time>2026-04-18T13:04:41.999Z</time></trkpt><trkpt lat="42.55274795415639" lon="13.548262314519123"><ele>447.0</ele><time>2026-04-18T13:04:42.999Z</time></trkpt><trkpt lat="42.552860059204505" lon="13.548189469115906"><ele>447.0</ele><time>2026-04-18T13:04:43.999Z</time></trkpt><trkpt lat="42.55299252858059" lon="13.54811087766564"><ele>448.5</ele><time>2026-04-18T13:04:44.999Z</time></trkpt><trkpt lat="42.55312896879995" lon="13.54803399782476"><ele>450.0</ele><time>2026-04-18T13:04:45.999Z</time></trkpt><trkpt lat="42.553264775162994" lon="13.547993750772608"><ele>451.5</ele><time>2026-04-18T13:04:46.999Z</time></trkpt><trkpt lat="42.55340326524602" lon="13.5479819494103"><ele>453.0</ele><time>2026-04-18T13:04:47.999Z</time></trkpt><trkpt lat="42.553551632932056" lon="13.548012209750716"><ele>453.0</ele><time>2026-04-18T13:04:48.999Z</time></trkpt><trkpt lat="42.55368906172603" lon="13.548059525445339"><ele>453.0</ele><time>2026-04-18T13:04:49.999Z</time></trkpt><trkpt lat="42.55381343710229" lon="13.548093664670743"><ele>453.0</ele><time>2026-04-18T13:04:50.999Z</time></trkpt><trkpt lat="42.55392243629518" lon="13.548121107665427"><ele>453.0</ele><time>2026-04-18T13:04:51.999Z</time></trkpt><trkpt lat="42.554010219059585" lon="13.548151971289581"><ele>446.75</ele><time>2026-04-18T13:04:52.999Z</time></trkpt><trkpt lat="42.554074957922474" lon="13.548194770758633"><ele>440.5</ele><time>2026-04-18T13:04:53.999Z</time></trkpt><trkpt lat="42.55417683936328" lon="13.548341705505194"><ele>434.25</ele><time>2026-04-18T13:04:55.998Z</time></trkpt><trkpt lat="42.55424660178751" lon="13.548457167952439"><ele>428.0</ele><time>2026-04-18T13:04:56.998Z</time></trkpt><trkpt lat="42.554311575089315" lon="13.548608783542887"><ele>432.5</ele><time>2026-04-18T13:04:57.998Z</time></trkpt><trkpt lat="42.55435584954557" lon="13.54880714756003"><ele>437.0</ele><time>2026-04-18T13:04:58.998Z</time></trkpt><trkpt lat="42.5544054912911" lon="13.549003473302244"><ele>441.5</ele><time>2026-04-18T13:04:59.998Z</time></trkpt><trkpt lat="42.554465247585156" lon="13.549173839753115"><ele>446.0</ele><time>2026-04-18T13:05:00.998Z</time></trkpt><trkpt lat="42.554510383869875" lon="13.549339742016848"><ele>446.0</ele><time>2026-04-18T13:05:01.998Z</time></trkpt><trkpt lat="42.55450885356369" lon="13.549526411648683"><ele>446.0</ele><time>2026-04-18T13:05:02.998Z</time></trkpt><trkpt lat="42.55446509288695" lon="13.549728258831344"><ele>446.0</ele><time>2026-04-18T13:05:03.998Z</time></trkpt><trkpt lat="42.554426952077094" lon="13.549944293175106"><ele>448.3333333333333</ele><time>2026-04-18T13:05:04.998Z</time></trkpt><trkpt lat="42.554413083842114" lon="13.550180769470645"><ele>450.66666666666663</ele><time>2026-04-18T13:05:05.998Z</time></trkpt><trkpt lat="42.554401926012964" lon="13.55042671456556"><ele>453.0</ele><time>2026-04-18T13:05:06.998Z</time></trkpt><trkpt lat="42.55438529364985" lon="13.55065717647439"><ele>453.0</ele><time>2026-04-18T13:05:07.998Z</time></trkpt><trkpt lat="42.554368630841935" lon="13.550877303754696"><ele>453.0</ele><time>2026-04-18T13:05:08.998Z</time></trkpt><trkpt lat="42.55435568571686" lon="13.55109777176785"><ele>453.0</ele><time>2026-04-18T13:05:09.998Z</time></trkpt><trkpt lat="42.55435522969441" lon="13.551327874915808"><ele>453.0</ele><time>2026-04-18T13:05:10.998Z</time></trkpt><trkpt lat="42.554390064514074" lon="13.551551192371731"><ele>453.0</ele><time>2026-04-18T13:05:11.998Z</time></trkpt><trkpt lat="42.55445682912221" lon="13.551756039947232"><ele>453.0</ele><time>2026-04-18T13:05:12.998Z</time></trkpt><trkpt lat="42.554544742121195" lon="13.551923090948753"><ele>442.25</ele><time>2026-04-18T13:05:13.998Z</time></trkpt><trkpt lat="42.554635980392916" lon="13.552045772671965"><ele>431.5</ele><time>2026-04-18T13:05:14.998Z</time></trkpt><trkpt lat="42.554711726983136" lon="13.552180627426537"><ele>420.75</ele><time>2026-04-18T13:05:15.998Z</time></trkpt><trkpt lat="42.554741194297904" lon="13.552351512524647"><ele>410.0</ele><time>2026-04-18T13:05:16.998Z</time></trkpt><trkpt lat="42.554722860635444" lon="13.55252840135837"><ele>410.0</ele><time>2026-04-18T13:05:17.998Z</time></trkpt><trkpt lat="42.55469640825735" lon="13.55270520456245"><ele>410.0</ele><time>2026-04-18T13:05:18.998Z</time></trkpt><trkpt lat="42.55466157077869" lon="13.552888241817307"><ele>410.0</ele><time>2026-04-18T13:05:19.998Z</time></trkpt><trkpt lat="42.554604951719355" lon="13.553073973666507"><ele>410.0</ele><time>2026-04-18T13:05:20.998Z</time></trkpt><trkpt lat="42.554520642082075" lon="13.55325186988381"><ele>414.0</ele><time>2026-04-18T13:05:21.998Z</time></trkpt><trkpt lat="42.55441150695323" lon="13.553410682626662"><ele>418.0</ele><time>2026-04-18T13:05:22.998Z</time></trkpt><trkpt lat="42.554294294769186" lon="13.553565773929744"><ele>422.0</ele><time>2026-04-18T13:05:23.998Z</time></trkpt><trkpt lat="42.55420095401493" lon="13.553748758173857"><ele>422.0</ele><time>2026-04-18T13:05:24.998Z</time></trkpt><trkpt lat="42.55413800899495" lon="13.553931819511721"><ele>422.0</ele><time>2026-04-18T13:05:25.998Z</time></trkpt><trkpt lat="42.55407969297515" lon="13.554102064763455"><ele>422.0</ele><time>2026-04-18T13:05:26.998Z</time></trkpt><trkpt lat="42.55401227411649" lon="13.55426232610745"><ele>422.0</ele><time>2026-04-18T13:05:27.998Z</time></trkpt><trkpt lat="42.553904062046115" lon="13.55438755224058"><ele>422.0</ele><time>2026-04-18T13:05:28.998Z</time></trkpt><trkpt lat="42.553786084715064" lon="13.554505370481472"><ele>422.0</ele><time>2026-04-18T13:05:29.998Z</time></trkpt><trkpt lat="42.55366872632276" lon="13.554635527245162"><ele>422.0</ele><time>2026-04-18T13:05:30.998Z</time></trkpt><trkpt lat="42.55356415916505" lon="13.554778726962386"><ele>422.0</ele><time>2026-04-18T13:05:31.998Z</time></trkpt><trkpt lat="42.55346598874803" lon="13.554921376618992"><ele>424.5</ele><time>2026-04-18T13:05:32.997Z</time></trkpt><trkpt lat="42.553370237673796" lon="13.555063800885584"><ele>427.0</ele><time>2026-04-18T13:05:33.997Z</time></trkpt><trkpt lat="42.55328340288244" lon="13.555208262822958"><ele>429.5</ele><time>2026-04-18T13:05:34.997Z</time></trkpt><trkpt lat="42.553207997075006" lon="13.555365823658077"><ele>432.0</ele><time>2026-04-18T13:05:35.997Z</time></trkpt><trkpt lat="42.55315171647131" lon="13.555531332994928"><ele>426.75</ele><time>2026-04-18T13:05:36.997Z</time></trkpt><trkpt lat="42.55310703724707" lon="13.55569884968708"><ele>421.5</ele><time>2026-04-18T13:05:37.997Z</time></trkpt><trkpt lat="42.55307267425657" lon="13.555870926029122"><ele>416.25</ele><time>2026-04-18T13:05:38.997Z</time></trkpt><trkpt lat="42.55304503615371" lon="13.556045663087334"><ele>411.0</ele><time>2026-04-18T13:05:39.997Z</time></trkpt><trkpt lat="42.55301636806737" lon="13.556215036808075"><ele>409.20000000000005</ele><time>2026-04-18T13:05:40.997Z</time></trkpt><trkpt lat="42.552989354763966" lon="13.556379986697477"><ele>407.40000000000003</ele><time>2026-04-18T13:05:41.997Z</time></trkpt><trkpt lat="42.55296527476875" lon="13.556536869335599"><ele>405.6</ele><time>2026-04-18T13:05:42.997Z</time></trkpt><trkpt lat="42.552945931692065" lon="13.556679730127254"><ele>403.8</ele><time>2026-04-18T13:05:43.997Z</time></trkpt><trkpt lat="42.55293892250325" lon="13.556810487100662"><ele>402.0</ele><time>2026-04-18T13:05:44.997Z</time></trkpt><trkpt lat="42.552947495101975" lon="13.556925552183523"><ele>402.0</ele><time>2026-04-18T13:05:45.997Z</time></trkpt><trkpt lat="42.552985062632125" lon="13.557025006969356"><ele>402.0</ele><time>2026-04-18T13:05:46.997Z</time></trkpt><trkpt lat="42.55305975570455" lon="13.55710345861189"><ele>402.0</ele><time>2026-04-18T13:05:47.997Z</time></trkpt><trkpt lat="42.553154147954906" lon="13.557136069461325"><ele>402.0</ele><time>2026-04-18T13:05:48.997Z</time></trkpt><trkpt lat="42.55325258720136" lon="13.557146933409774"><ele>402.0</ele><time>2026-04-18T13:05:49.997Z</time></trkpt><trkpt lat="42.55336468485406" lon="13.557190938249128"><ele>407.25</ele><time>2026-04-18T13:05:50.997Z</time></trkpt><trkpt lat="42.55346263916422" lon="13.557282977405244"><ele>412.5</ele><time>2026-04-18T13:05:51.997Z</time></trkpt><trkpt lat="42.55353020847007" lon="13.557401390905097"><ele>417.75</ele><time>2026-04-18T13:05:52.997Z</time></trkpt><trkpt lat="42.55359679122385" lon="13.55753930579889"><ele>423.0</ele><time>2026-04-18T13:05:53.997Z</time></trkpt><trkpt lat="42.55368281473938" lon="13.557676744637956"><ele>423.25</ele><time>2026-04-18T13:05:55Z</time></trkpt><trkpt lat="42.55377899044569" lon="13.557812628188058"><ele>423.5</ele><time>2026-04-18T13:05:56Z</time></trkpt><trkpt lat="42.55388151641708" lon="13.557943938127696"><ele>423.75</ele><time>2026-04-18T13:05:57Z</time></trkpt><trkpt lat="42.554000334344316" lon="13.55807918319086"><ele>424.0</ele><time>2026-04-18T13:05:58Z</time></trkpt><trkpt lat="42.55413215108878" lon="13.558206551262824"><ele>424.0</ele><time>2026-04-18T13:05:59Z</time></trkpt><trkpt lat="42.5542601557898" lon="13.55831145490535"><ele>424.0</ele><time>2026-04-18T13:06:00Z</time></trkpt><trkpt lat="42.554384769547205" lon="13.558393767118961"><ele>424.0</ele><time>2026-04-18T13:06:01Z</time></trkpt><trkpt lat="42.55450431638406" lon="13.55846910840438"><ele>424.0</ele><time>2026-04-18T13:06:02Z</time></trkpt><trkpt lat="42.554619081784494" lon="13.558533364888133"><ele>420.0</ele><time>2026-04-18T13:06:03Z</time></trkpt><trkpt lat="42.554736088895176" lon="13.55858470724725"><ele>416.0</ele><time>2026-04-18T13:06:04Z</time></trkpt><trkpt lat="42.55486349522796" lon="13.558610728352765"><ele>412.0</ele><time>2026-04-18T13:06:05Z</time></trkpt><trkpt lat="42.554996828305946" lon="13.558608502011706"><ele>408.0</ele><time>2026-04-18T13:06:06Z</time></trkpt><trkpt lat="42.555121909843514" lon="13.558636396216666"><ele>408.0</ele><time>2026-04-18T13:06:07Z</time></trkpt><trkpt lat="42.5552457566408" lon="13.558675410927647"><ele>408.0</ele><time>2026-04-18T13:06:08Z</time></trkpt><trkpt lat="42.555366757051004" lon="13.558717706315411"><ele>408.0</ele><time>2026-04-18T13:06:09Z</time></trkpt><trkpt lat="42.55548452814498" lon="13.558764222786772"><ele>408.0</ele><time>2026-04-18T13:06:10Z</time></trkpt><trkpt lat="42.555602050183495" lon="13.558797847610034"><ele>410.4</ele><time>2026-04-18T13:06:11Z</time></trkpt><trkpt lat="42.555707934600946" lon="13.55884854780773"><ele>412.79999999999995</ele><time>2026-04-18T13:06:12Z</time></trkpt><trkpt lat="42.55580629319788" lon="13.558898547607692"><ele>415.2</ele><time>2026-04-18T13:06:13Z</time></trkpt><trkpt lat="42.5558992772504" lon="13.558969510618653"><ele>417.6</ele><time>2026-04-18T13:06:14Z</time></trkpt><trkpt lat="42.55597966296415" lon="13.559077287168524"><ele>420.0</ele><time>2026-04-18T13:06:15Z</time></trkpt><trkpt lat="42.55604939102278" lon="13.559216938381416"><ele>420.0</ele><time>2026-04-18T13:06:16Z</time></trkpt><trkpt lat="42.55612907431017" lon="13.559375836776326"><ele>420.0</ele><time>2026-04-18T13:06:17Z</time></trkpt><trkpt lat="42.55622898207373" lon="13.559561811393152"><ele>420.0</ele><time>2026-04-18T13:06:18Z</time></trkpt><trkpt lat="42.5563669134782" lon="13.559715609735246"><ele>419.66666666666663</ele><time>2026-04-18T13:06:19Z</time></trkpt><trkpt lat="42.55648985634624" lon="13.559866543459757"><ele>419.3333333333333</ele><time>2026-04-18T13:06:20Z</time></trkpt><trkpt lat="42.55660990052345" lon="13.55999590440922"><ele>419.0</ele><time>2026-04-18T13:06:21Z</time></trkpt><trkpt lat="42.55672717107175" lon="13.56010215036529"><ele>419.0</ele><time>2026-04-18T13:06:22Z</time></trkpt><trkpt lat="42.55684160021678" lon="13.560200230984593"><ele>419.0</ele><time>2026-04-18T13:06:23Z</time></trkpt><trkpt lat="42.55695199839085" lon="13.560293738859114"><ele>419.0</ele><time>2026-04-18T13:06:24Z</time></trkpt><trkpt lat="42.55706888423628" lon="13.560383500484654"><ele>419.0</ele><time>2026-04-18T13:06:25Z</time></trkpt><trkpt lat="42.55719640525098" lon="13.560475113258965"><ele>425.3333333333333</ele><time>2026-04-18T13:06:26Z</time></trkpt><trkpt lat="42.55736224140477" lon="13.56053012385328"><ele>431.66666666666663</ele><time>2026-04-18T13:06:27Z</time></trkpt><trkpt lat="42.55755225588619" lon="13.560506451385997"><ele>438.0</ele><time>2026-04-18T13:06:27.999Z</time></trkpt><trkpt lat="42.55773165658709" lon="13.56042221806818"><ele>433.33333333333337</ele><time>2026-04-18T13:06:28.999Z</time></trkpt><trkpt lat="42.557887337658855" lon="13.560376382543053"><ele>428.6666666666667</ele><time>2026-04-18T13:06:29.999Z</time></trkpt><trkpt lat="42.55804281777203" lon="13.560369597922138"><ele>424.0</ele><time>2026-04-18T13:06:30.999Z</time></trkpt><trkpt lat="42.558180982188695" lon="13.560398163806841"><ele>424.0</ele><time>2026-04-18T13:06:31.999Z</time></trkpt><trkpt lat="42.55829979938761" lon="13.56045099804003"><ele>424.0</ele><time>2026-04-18T13:06:32.999Z</time></trkpt><trkpt lat="42.55840664119623" lon="13.56052438738997"><ele>424.0</ele><time>2026-04-18T13:06:33.999Z</time></trkpt><trkpt lat="42.558513247690236" lon="13.560623243631587"><ele>424.0</ele><time>2026-04-18T13:06:34.999Z</time></trkpt><trkpt lat="42.55861533431545" lon="13.56074168315526"><ele>425.25</ele><time>2026-04-18T13:06:35.999Z</time></trkpt><trkpt lat="42.55871174124093" lon="13.560875376987513"><ele>426.5</ele><time>2026-04-18T13:06:36.999Z</time></trkpt><trkpt lat="42.558801180806036" lon="13.561023303526014"><ele>427.75</ele><time>2026-04-18T13:06:37.999Z</time></trkpt><trkpt lat="42.558893934595105" lon="13.561180456836135"><ele>429.0</ele><time>2026-04-18T13:06:38.999Z</time></trkpt><trkpt lat="42.55898539750511" lon="13.561333829365442"><ele>429.0</ele><time>2026-04-18T13:06:39.999Z</time></trkpt><trkpt lat="42.55908034290776" lon="13.561482643847508"><ele>429.0</ele><time>2026-04-18T13:06:40.999Z</time></trkpt><trkpt lat="42.559170718556956" lon="13.561633955482849"><ele>429.0</ele><time>2026-04-18T13:06:41.999Z</time></trkpt><trkpt lat="42.55926017245745" lon="13.56178502628239"><ele>429.0</ele><time>2026-04-18T13:06:42.999Z</time></trkpt><trkpt lat="42.55934835341599" lon="13.561941101370108"><ele>426.75</ele><time>2026-04-18T13:06:43.999Z</time></trkpt><trkpt lat="42.5594375000012" lon="13.562096526067004"><ele>424.5</ele><time>2026-04-18T13:06:44.999Z</time></trkpt><trkpt lat="42.55953381397649" lon="13.562251218366434"><ele>422.25</ele><time>2026-04-18T13:06:45.999Z</time></trkpt><trkpt lat="42.5596317016913" lon="13.562411659284226"><ele>420.0</ele><time>2026-04-18T13:06:46.999Z</time></trkpt><trkpt lat="42.55972869259086" lon="13.562577714122535"><ele>420.0</ele><time>2026-04-18T13:06:47.999Z</time></trkpt><trkpt lat="42.55982572095146" lon="13.562744934387364"><ele>420.0</ele><time>2026-04-18T13:06:48.999Z</time></trkpt><trkpt lat="42.55992932201071" lon="13.5629257163484"><ele>420.0</ele><time>2026-04-18T13:06:50.061Z</time></trkpt><trkpt lat="42.560025830573096" lon="13.563095041435533"><ele>412.0</ele><time>2026-04-18T13:06:51.042Z</time></trkpt><trkpt lat="42.56138319620796" lon="13.56475636675019"><ele>387.0</ele><time>2026-04-18T13:06:55.165Z</time></trkpt><trkpt lat="42.56239621310579" lon="13.565098722689937"><ele>387.0</ele><time>2026-04-18T13:07:08.998Z</time></trkpt><trkpt lat="42.56253835028304" lon="13.565171333968788"><ele>387.0</ele><time>2026-04-18T13:07:09.998Z</time></trkpt><trkpt lat="42.56267696907307" lon="13.565262771502892"><ele>387.0</ele><time>2026-04-18T13:07:10.998Z</time></trkpt><trkpt lat="42.562813230563435" lon="13.565373868760767"><ele>387.0</ele><time>2026-04-18T13:07:11.998Z</time></trkpt><trkpt lat="42.5629457854289" lon="13.565506436719792"><ele>387.0</ele><time>2026-04-18T13:07:12.998Z</time></trkpt><trkpt lat="42.56307175731826" lon="13.565650949134826"><ele>387.0</ele><time>2026-04-18T13:07:13.998Z</time></trkpt><trkpt lat="42.56318916604615" lon="13.565812001818221"><ele>387.0</ele><time>2026-04-18T13:07:14.998Z</time></trkpt><trkpt lat="42.56328338834624" lon="13.565980453328272"><ele>387.0</ele><time>2026-04-18T13:07:15.998Z</time></trkpt><trkpt lat="42.56335248560777" lon="13.566148307239406"><ele>387.0</ele><time>2026-04-18T13:07:16.998Z</time></trkpt><trkpt lat="42.56339917123622" lon="13.566317668577295"><ele>387.0</ele><time>2026-04-18T13:07:17.998Z</time></trkpt><trkpt lat="42.56340991638778" lon="13.566491572670468"><ele>387.75</ele><time>2026-04-18T13:07:18.998Z</time></trkpt><trkpt lat="42.563407804970154" lon="13.5666704380898"><ele>388.5</ele><time>2026-04-18T13:07:19.998Z</time></trkpt><trkpt lat="42.5634010177494" lon="13.566852190655517"><ele>389.25</ele><time>2026-04-18T13:07:20.998Z</time></trkpt><trkpt lat="42.56339676415965" lon="13.56704013292155"><ele>390.0</ele><time>2026-04-18T13:07:21.998Z</time></trkpt><trkpt lat="42.56339273879563" lon="13.567233208309638"><ele>390.0</ele><time>2026-04-18T13:07:22.998Z</time></trkpt><trkpt lat="42.563388326909475" lon="13.56742735861357"><ele>390.0</ele><time>2026-04-18T13:07:23.998Z</time></trkpt><trkpt lat="42.563386456868365" lon="13.567627274229684"><ele>390.0</ele><time>2026-04-18T13:07:24.998Z</time></trkpt><trkpt lat="42.563384086530746" lon="13.567838365471792"><ele>390.0</ele><time>2026-04-18T13:07:25.998Z</time></trkpt><trkpt lat="42.56337956246285" lon="13.568049911421722"><ele>391.66666666666663</ele><time>2026-04-18T13:07:26.998Z</time></trkpt><trkpt lat="42.56338846288066" lon="13.568257740225254"><ele>393.3333333333333</ele><time>2026-04-18T13:07:27.998Z</time></trkpt><trkpt lat="42.56340883654553" lon="13.568502607566337"><ele>395.0</ele><time>2026-04-18T13:07:28.998Z</time></trkpt><trkpt lat="42.56347546068405" lon="13.568775408624306"><ele>397.3333333333333</ele><time>2026-04-18T13:07:29.998Z</time></trkpt><trkpt lat="42.56356054027335" lon="13.569015288038235"><ele>399.66666666666663</ele><time>2026-04-18T13:07:30.998Z</time></trkpt><trkpt lat="42.56361285819372" lon="13.569252339412698"><ele>402.0</ele><time>2026-04-18T13:07:31.998Z</time></trkpt><trkpt lat="42.56362825609354" lon="13.569497634606048"><ele>403.33333333333337</ele><time>2026-04-18T13:07:32.998Z</time></trkpt><trkpt lat="42.56360605690406" lon="13.569744428586853"><ele>404.6666666666667</ele><time>2026-04-18T13:07:33.998Z</time></trkpt><trkpt lat="42.563613722804405" lon="13.57000476876979"><ele>406.0</ele><time>2026-04-18T13:07:34.998Z</time></trkpt><trkpt lat="42.5636834713178" lon="13.570270141066597"><ele>399.0</ele><time>2026-04-18T13:07:35.998Z</time></trkpt><trkpt lat="42.563797512592906" lon="13.570522083048516"><ele>392.0</ele><time>2026-04-18T13:07:36.998Z</time></trkpt><trkpt lat="42.563933648435736" lon="13.57076662044659"><ele>385.0</ele><time>2026-04-18T13:07:37.998Z</time></trkpt><trkpt lat="42.56409072045865" lon="13.570983455816124"><ele>385.0</ele><time>2026-04-18T13:07:38.998Z</time></trkpt><trkpt lat="42.56426066815207" lon="13.571145850914668"><ele>385.0</ele><time>2026-04-18T13:07:39.998Z</time></trkpt><trkpt lat="42.564411385944226" lon="13.571299776913316"><ele>385.0</ele><time>2026-04-18T13:07:40.998Z</time></trkpt><trkpt lat="42.56455030560832" lon="13.57142482810078"><ele>382.5</ele><time>2026-04-18T13:07:41.998Z</time></trkpt><trkpt lat="42.56467245514086" lon="13.57152252320629"><ele>380.0</ele><time>2026-04-18T13:07:42.998Z</time></trkpt><trkpt lat="42.564735565094566" lon="13.571679433507407"><ele>377.5</ele><time>2026-04-18T13:07:43.998Z</time></trkpt><trkpt lat="42.564746836684805" lon="13.57187479217363"><ele>375.0</ele><time>2026-04-18T13:07:44.998Z</time></trkpt><trkpt lat="42.56472174622675" lon="13.572100833745939"><ele>375.0</ele><time>2026-04-18T13:07:45.998Z</time></trkpt><trkpt lat="42.56469738882063" lon="13.572340617381968"><ele>375.0</ele><time>2026-04-18T13:07:46.998Z</time></trkpt><trkpt lat="42.564707871513846" lon="13.572603678193346"><ele>375.0</ele><time>2026-04-18T13:07:47.997Z</time></trkpt><trkpt lat="42.56473536470493" lon="13.572867974571686"><ele>381.0</ele><time>2026-04-18T13:07:48.997Z</time></trkpt><trkpt lat="42.56480651945859" lon="13.573128945587976"><ele>387.0</ele><time>2026-04-18T13:07:49.997Z</time></trkpt><trkpt lat="42.564930026665145" lon="13.573378069922319"><ele>393.0</ele><time>2026-04-18T13:07:50.997Z</time></trkpt><trkpt lat="42.565074902927606" lon="13.573621165294561"><ele>385.0</ele><time>2026-04-18T13:07:51.997Z</time></trkpt><trkpt lat="42.56523987129799" lon="13.573859663389529"><ele>377.0</ele><time>2026-04-18T13:07:52.997Z</time></trkpt><trkpt lat="42.5654105191659" lon="13.574070828249965"><ele>377.0</ele><time>2026-04-18T13:07:53.997Z</time></trkpt><trkpt lat="42.5655658116528" lon="13.574267796459623"><ele>377.0</ele><time>2026-04-18T13:07:54.997Z</time></trkpt><trkpt lat="42.56572294125438" lon="13.574432217510731"><ele>377.0</ele><time>2026-04-18T13:07:55.997Z</time></trkpt><trkpt lat="42.56588723191134" lon="13.574567414899052"><ele>388.6666666666667</ele><time>2026-04-18T13:07:56.997Z</time></trkpt><trkpt lat="42.56608499046657" lon="13.574627660508241"><ele>400.33333333333337</ele><time>2026-04-18T13:07:57.997Z</time></trkpt><trkpt lat="42.56629627529614" lon="13.574657433559057"><ele>412.0</ele><time>2026-04-18T13:07:58.997Z</time></trkpt><trkpt lat="42.56650704232798" lon="13.574670446000638"><ele>412.0</ele><time>2026-04-18T13:07:59.997Z</time></trkpt><trkpt lat="42.56671295136417" lon="13.574721246608227"><ele>412.0</ele><time>2026-04-18T13:08:01Z</time></trkpt><trkpt lat="42.5669045133786" lon="13.574790489892866"><ele>412.0</ele><time>2026-04-18T13:08:02Z</time></trkpt><trkpt lat="42.567096747413224" lon="13.574864572321086"><ele>404.0</ele><time>2026-04-18T13:08:03Z</time></trkpt><trkpt lat="42.567291769995485" lon="13.574910650692185"><ele>396.0</ele><time>2026-04-18T13:08:04Z</time></trkpt><trkpt lat="42.5674890819518" lon="13.574916262001555"><ele>388.0</ele><time>2026-04-18T13:08:05Z</time></trkpt><trkpt lat="42.56769620514937" lon="13.574886555159608"><ele>388.0</ele><time>2026-04-18T13:08:06Z</time></trkpt><trkpt lat="42.56789842626564" lon="13.574816235266193"><ele>388.0</ele><time>2026-04-18T13:08:07Z</time></trkpt><trkpt lat="42.56809208451007" lon="13.574714727376016"><ele>388.0</ele><time>2026-04-18T13:08:08Z</time></trkpt><trkpt lat="42.568282756237735" lon="13.574609928866437"><ele>388.0</ele><time>2026-04-18T13:08:09Z</time></trkpt><trkpt lat="42.56848323283158" lon="13.574566260703268"><ele>388.0</ele><time>2026-04-18T13:08:10Z</time></trkpt><trkpt lat="42.56867334321134" lon="13.574518950088466"><ele>388.0</ele><time>2026-04-18T13:08:11Z</time></trkpt><trkpt lat="42.568856705918364" lon="13.574492166113181"><ele>378.6666666666667</ele><time>2026-04-18T13:08:12Z</time></trkpt><trkpt lat="42.56903897376196" lon="13.574461587580261"><ele>369.33333333333337</ele><time>2026-04-18T13:08:13Z</time></trkpt><trkpt lat="42.56921970647592" lon="13.574443142670225"><ele>360.0</ele><time>2026-04-18T13:08:14Z</time></trkpt><trkpt lat="42.56940151936419" lon="13.574452242604508"><ele>358.6666666666667</ele><time>2026-04-18T13:08:15Z</time></trkpt><trkpt lat="42.56958064595595" lon="13.57448345031772"><ele>357.33333333333337</ele><time>2026-04-18T13:08:16Z</time></trkpt><trkpt lat="42.56975650106204" lon="13.574528614570188"><ele>356.0</ele><time>2026-04-18T13:08:17Z</time></trkpt><trkpt lat="42.569918729420095" lon="13.574580532830423"><ele>359.6666666666667</ele><time>2026-04-18T13:08:18Z</time></trkpt><trkpt lat="42.57006829821071" lon="13.574654815081885"><ele>363.3333333333333</ele><time>2026-04-18T13:08:19Z</time></trkpt><trkpt lat="42.570202977446826" lon="13.574749685790657"><ele>367.0</ele><time>2026-04-18T13:08:20Z</time></trkpt><trkpt lat="42.57033022449688" lon="13.574844295353232"><ele>366.25</ele><time>2026-04-18T13:08:21Z</time></trkpt><trkpt lat="42.570444625533334" lon="13.574939903784594"><ele>365.5</ele><time>2026-04-18T13:08:22Z</time></trkpt><trkpt lat="42.57054049626577" lon="13.575064209471877"><ele>364.75</ele><time>2026-04-18T13:08:23Z</time></trkpt><trkpt lat="42.570610758428515" lon="13.575224335118806"><ele>364.0</ele><time>2026-04-18T13:08:24Z</time></trkpt><trkpt lat="42.57065788474671" lon="13.575397346706334"><ele>364.0</ele><time>2026-04-18T13:08:25Z</time></trkpt><trkpt lat="42.570688588494015" lon="13.575565633264679"><ele>364.0</ele><time>2026-04-18T13:08:26Z</time></trkpt><trkpt lat="42.57072004787876" lon="13.57572219866658"><ele>364.0</ele><time>2026-04-18T13:08:27Z</time></trkpt><trkpt lat="42.57075872129758" lon="13.57586481917215"><ele>364.0</ele><time>2026-04-18T13:08:28Z</time></trkpt><trkpt lat="42.570801624308984" lon="13.575993131169136"><ele>364.0</ele><time>2026-04-18T13:08:29Z</time></trkpt><trkpt lat="42.57087576898346" lon="13.576093656799262"><ele>364.0</ele><time>2026-04-18T13:08:30Z</time></trkpt><trkpt lat="42.57098406899998" lon="13.576166732123728"><ele>364.0</ele><time>2026-04-18T13:08:31Z</time></trkpt><trkpt lat="42.57110160171146" lon="13.576226895426043"><ele>364.0</ele><time>2026-04-18T13:08:32Z</time></trkpt><trkpt lat="42.57121985441286" lon="13.576282946165556"><ele>366.0</ele><time>2026-04-18T13:08:33Z</time></trkpt><trkpt lat="42.57133811372625" lon="13.576343805776592"><ele>368.0</ele><time>2026-04-18T13:08:34Z</time></trkpt><trkpt lat="42.57145321005799" lon="13.576404455506413"><ele>370.0</ele><time>2026-04-18T13:08:35Z</time></trkpt><trkpt lat="42.571565498819375" lon="13.576472723976341"><ele>372.0</ele><time>2026-04-18T13:08:36Z</time></trkpt><trkpt lat="42.57166605340009" lon="13.576569648742812"><ele>372.0</ele><time>2026-04-18T13:08:37Z</time></trkpt><trkpt lat="42.571757726797756" lon="13.576689485624762"><ele>372.0</ele><time>2026-04-18T13:08:38Z</time></trkpt><trkpt lat="42.57183967546327" lon="13.576819877697652"><ele>372.0</ele><time>2026-04-18T13:08:39Z</time></trkpt><trkpt lat="42.57191657187226" lon="13.576951180641817"><ele>372.0</ele><time>2026-04-18T13:08:40Z</time></trkpt><trkpt lat="42.57199148763066" lon="13.577086959557331"><ele>365.75</ele><time>2026-04-18T13:08:41Z</time></trkpt><trkpt lat="42.57206413485413" lon="13.57722348058845"><ele>359.5</ele><time>2026-04-18T13:08:41.999Z</time></trkpt><trkpt lat="42.572132809113256" lon="13.577371371715733"><ele>353.25</ele><time>2026-04-18T13:08:42.999Z</time></trkpt><trkpt lat="42.57218498961705" lon="13.577540631432859"><ele>347.0</ele><time>2026-04-18T13:08:43.999Z</time></trkpt><trkpt lat="42.572216499040564" lon="13.5777394194882"><ele>349.6666666666667</ele><time>2026-04-18T13:08:44.999Z</time></trkpt><trkpt lat="42.57225125780412" lon="13.577958159836601"><ele>352.3333333333333</ele><time>2026-04-18T13:08:45.999Z</time></trkpt><trkpt lat="42.57229408889829" lon="13.578218674347083"><ele>355.0</ele><time>2026-04-18T13:08:46.999Z</time></trkpt><trkpt lat="42.57233877246331" lon="13.57848676776196"><ele>360.0</ele><time>2026-04-18T13:08:47.999Z</time></trkpt><trkpt lat="42.572374232350334" lon="13.578729287442206"><ele>365.0</ele><time>2026-04-18T13:08:48.999Z</time></trkpt><trkpt lat="42.57240414093067" lon="13.579014111046943"><ele>370.0</ele><time>2026-04-18T13:08:49.999Z</time></trkpt><trkpt lat="42.57246848580542" lon="13.579281671182976"><ele>378.3333333333333</ele><time>2026-04-18T13:08:50.999Z</time></trkpt><trkpt lat="42.5725415947417" lon="13.579522157535383"><ele>386.66666666666663</ele><time>2026-04-18T13:08:51.999Z</time></trkpt><trkpt lat="42.57263156934083" lon="13.579733111608526"><ele>395.0</ele><time>2026-04-18T13:08:52.999Z</time></trkpt><trkpt lat="42.572747056290275" lon="13.579898160370638"><ele>380.66666666666663</ele><time>2026-04-18T13:08:53.999Z</time></trkpt><trkpt lat="42.572892116000936" lon="13.580014827501692"><ele>366.3333333333333</ele><time>2026-04-18T13:08:54.999Z</time></trkpt><trkpt lat="42.57306633512856" lon="13.580087870605"><ele>352.0</ele><time>2026-04-18T13:08:55.999Z</time></trkpt><trkpt lat="42.573240117019004" lon="13.580174716567008"><ele>352.0</ele><time>2026-04-18T13:08:56.999Z</time></trkpt><trkpt lat="42.57340102508941" lon="13.580279344878022"><ele>352.0</ele><time>2026-04-18T13:08:57.999Z</time></trkpt><trkpt lat="42.57356003983438" lon="13.580371466324078"><ele>352.0</ele><time>2026-04-18T13:08:58.999Z</time></trkpt><trkpt lat="42.5737302543996" lon="13.580410668697786"><ele>348.3333333333333</ele><time>2026-04-18T13:08:59.999Z</time></trkpt><trkpt lat="42.57391099963449" lon="13.580370879629294"><ele>344.6666666666667</ele><time>2026-04-18T13:09:00.999Z</time></trkpt><trkpt lat="42.57408616544837" lon="13.58032197513698"><ele>341.0</ele><time>2026-04-18T13:09:01.999Z</time></trkpt><trkpt lat="42.57424609828607" lon="13.580272847320046"><ele>341.0</ele><time>2026-04-18T13:09:02.999Z</time></trkpt><trkpt lat="42.574399208002376" lon="13.580248186166273"><ele>341.0</ele><time>2026-04-18T13:09:03.999Z</time></trkpt><trkpt lat="42.57454920111002" lon="13.580281687946215"><ele>341.0</ele><time>2026-04-18T13:09:04.999Z</time></trkpt><trkpt lat="42.57469612445617" lon="13.580372793850634"><ele>343.5</ele><time>2026-04-18T13:09:05.999Z</time></trkpt><trkpt lat="42.57482471642668" lon="13.580468054477157"><ele>346.0</ele><time>2026-04-18T13:09:06.999Z</time></trkpt><trkpt lat="42.574946167504336" lon="13.580554799424842"><ele>348.5</ele><time>2026-04-18T13:09:07.999Z</time></trkpt><trkpt lat="42.57504135356364" lon="13.580653490500518"><ele>351.0</ele><time>2026-04-18T13:09:08.999Z</time></trkpt><trkpt lat="42.575094445645185" lon="13.580782832075396"><ele>351.0</ele><time>2026-04-18T13:09:09.999Z</time></trkpt><trkpt lat="42.575089217704274" lon="13.580928602330639"><ele>351.0</ele><time>2026-04-18T13:09:10.999Z</time></trkpt><trkpt lat="42.57502991495089" lon="13.581065215483594"><ele>351.0</ele><time>2026-04-18T13:09:11.999Z</time></trkpt><trkpt lat="42.574935473279936" lon="13.581159839325785"><ele>351.0</ele><time>2026-04-18T13:09:12.999Z</time></trkpt><trkpt lat="42.57481142956365" lon="13.581206722115791"><ele>348.75</ele><time>2026-04-18T13:09:13.999Z</time></trkpt><trkpt lat="42.5746789069037" lon="13.58123984948956"><ele>346.5</ele><time>2026-04-18T13:09:14.999Z</time></trkpt><trkpt lat="42.574570602511066" lon="13.58131213711766"><ele>344.25</ele><time>2026-04-18T13:09:15.999Z</time></trkpt><trkpt lat="42.57449269952718" lon="13.5814196309961"><ele>342.0</ele><time>2026-04-18T13:09:16.999Z</time></trkpt><trkpt lat="42.574453763436026" lon="13.581550855311834"><ele>342.0</ele><time>2026-04-18T13:09:17.999Z</time></trkpt><trkpt lat="42.574471695602284" lon="13.581678513939986"><ele>342.0</ele><time>2026-04-18T13:09:18.999Z</time></trkpt><trkpt lat="42.57453223083938" lon="13.581816341066279"><ele>342.0</ele><time>2026-04-18T13:09:19.999Z</time></trkpt><trkpt lat="42.57459286225359" lon="13.581970327346792"><ele>342.0</ele><time>2026-04-18T13:09:20.999Z</time></trkpt><trkpt lat="42.57466923433209" lon="13.58214343477058"><ele>341.6666666666667</ele><time>2026-04-18T13:09:21.999Z</time></trkpt><trkpt lat="42.57473819593282" lon="13.582327840340414"><ele>341.33333333333337</ele><time>2026-04-18T13:09:22.998Z</time></trkpt><trkpt lat="42.574774892501324" lon="13.582535607163765"><ele>341.0</ele><time>2026-04-18T13:09:23.998Z</time></trkpt><trkpt lat="42.574780644422056" lon="13.58275606391836"><ele>344.0</ele><time>2026-04-18T13:09:24.998Z</time></trkpt><trkpt lat="42.57479430727785" lon="13.582979831687283"><ele>347.0</ele><time>2026-04-18T13:09:25.998Z</time></trkpt><trkpt lat="42.57483623480926" lon="13.583194210189632"><ele>350.0</ele><time>2026-04-18T13:09:26.998Z</time></trkpt><trkpt lat="42.57491112825358" lon="13.583393446467047"><ele>350.0</ele><time>2026-04-18T13:09:27.998Z</time></trkpt><trkpt lat="42.5750147419653" lon="13.58356144071015"><ele>350.0</ele><time>2026-04-18T13:09:28.998Z</time></trkpt><trkpt lat="42.57512837911735" lon="13.583712914724398"><ele>350.0</ele><time>2026-04-18T13:09:29.998Z</time></trkpt><trkpt lat="42.57522897711308" lon="13.583865777402675"><ele>355.25</ele><time>2026-04-18T13:09:30.998Z</time></trkpt><trkpt lat="42.575320195907516" lon="13.583997094716594"><ele>360.5</ele><time>2026-04-18T13:09:31.998Z</time></trkpt><trkpt lat="42.57539849534316" lon="13.584108269878397"><ele>365.75</ele><time>2026-04-18T13:09:32.998Z</time></trkpt><trkpt lat="42.57542204761268" lon="13.584257547433879"><ele>371.0</ele><time>2026-04-18T13:09:33.998Z</time></trkpt><trkpt lat="42.575396742931424" lon="13.584419045469323"><ele>372.75</ele><time>2026-04-18T13:09:34.998Z</time></trkpt><trkpt lat="42.57535146764531" lon="13.584589593992325"><ele>374.5</ele><time>2026-04-18T13:09:35.998Z</time></trkpt><trkpt lat="42.57533671152823" lon="13.584783218878998"><ele>376.25</ele><time>2026-04-18T13:09:36.998Z</time></trkpt><trkpt lat="42.57537399443961" lon="13.584990836285662"><ele>378.0</ele><time>2026-04-18T13:09:37.998Z</time></trkpt><trkpt lat="42.57543546787088" lon="13.585204570920329"><ele>361.0</ele><time>2026-04-18T13:09:38.998Z</time></trkpt><trkpt lat="42.57548815553195" lon="13.585432890094804"><ele>344.0</ele><time>2026-04-18T13:09:39.998Z</time></trkpt><trkpt lat="42.57551219846195" lon="13.585669971645707"><ele>327.0</ele><time>2026-04-18T13:09:40.998Z</time></trkpt><trkpt lat="42.57552089456828" lon="13.585912813438311"><ele>327.0</ele><time>2026-04-18T13:09:41.998Z</time></trkpt><trkpt lat="42.57553817461084" lon="13.5861513037153"><ele>327.0</ele><time>2026-04-18T13:09:42.998Z</time></trkpt><trkpt lat="42.575560183631374" lon="13.586379773327227"><ele>327.0</ele><time>2026-04-18T13:09:43.998Z</time></trkpt><trkpt lat="42.57558382799903" lon="13.586600996127318"><ele>327.6666666666667</ele><time>2026-04-18T13:09:44.998Z</time></trkpt><trkpt lat="42.57558499781877" lon="13.586824745420971"><ele>328.33333333333337</ele><time>2026-04-18T13:09:45.998Z</time></trkpt><trkpt lat="42.575618058478305" lon="13.58709350663079"><ele>329.0</ele><time>2026-04-18T13:09:46.998Z</time></trkpt><trkpt lat="42.5756485474045" lon="13.587329786512319"><ele>331.6666666666667</ele><time>2026-04-18T13:09:47.998Z</time></trkpt><trkpt lat="42.57568603176709" lon="13.587557600331529"><ele>334.3333333333333</ele><time>2026-04-18T13:09:48.998Z</time></trkpt><trkpt lat="42.57574540820176" lon="13.587773454580248"><ele>337.0</ele><time>2026-04-18T13:09:49.998Z</time></trkpt><trkpt lat="42.57583603718264" lon="13.5879599262229"><ele>343.0</ele><time>2026-04-18T13:09:50.998Z</time></trkpt><trkpt lat="42.575944407675536" lon="13.588128158688027"><ele>349.0</ele><time>2026-04-18T13:09:51.998Z</time></trkpt><trkpt lat="42.57605533161501" lon="13.588300275850257"><ele>355.0</ele><time>2026-04-18T13:09:52.998Z</time></trkpt><trkpt lat="42.576153153606704" lon="13.588494062186182"><ele>346.0</ele><time>2026-04-18T13:09:53.998Z</time></trkpt><trkpt lat="42.576239442258874" lon="13.58869601913382"><ele>337.0</ele><time>2026-04-18T13:09:54.998Z</time></trkpt><trkpt lat="42.576320809537805" lon="13.588903565944202"><ele>328.0</ele><time>2026-04-18T13:09:55.998Z</time></trkpt><trkpt lat="42.57640167230272" lon="13.58910770747178"><ele>328.0</ele><time>2026-04-18T13:09:56.998Z</time></trkpt><trkpt lat="42.576479183869914" lon="13.589312639514128"><ele>328.0</ele><time>2026-04-18T13:09:57.998Z</time></trkpt><trkpt lat="42.57655139706531" lon="13.589503392563014"><ele>328.0</ele><time>2026-04-18T13:09:58.998Z</time></trkpt><trkpt lat="42.57659435648794" lon="13.589697411345501"><ele>330.66666666666663</ele><time>2026-04-18T13:09:59.998Z</time></trkpt><trkpt lat="42.57663557728277" lon="13.589890897840492"><ele>333.3333333333333</ele><time>2026-04-18T13:10:00.998Z</time></trkpt><trkpt lat="42.57666785677837" lon="13.590092226936475"><ele>336.0</ele><time>2026-04-18T13:10:01.998Z</time></trkpt><trkpt lat="42.576702596355524" lon="13.590297443877555"><ele>338.6666666666667</ele><time>2026-04-18T13:10:02.997Z</time></trkpt><trkpt lat="42.57671785039014" lon="13.590508317276777"><ele>341.33333333333337</ele><time>2026-04-18T13:10:03.997Z</time></trkpt><trkpt lat="42.576710798854435" lon="13.590723035599716"><ele>344.0</ele><time>2026-04-18T13:10:04.997Z</time></trkpt><trkpt lat="42.57673461558077" lon="13.590939192664024"><ele>344.0</ele><time>2026-04-18T13:10:05.997Z</time></trkpt><trkpt lat="42.57674367353686" lon="13.59115704932236"><ele>344.0</ele><time>2026-04-18T13:10:07Z</time></trkpt><trkpt lat="42.57677434821301" lon="13.591368884340666"><ele>344.0</ele><time>2026-04-18T13:10:08Z</time></trkpt><trkpt lat="42.57684480934119" lon="13.591565382087492"><ele>344.0</ele><time>2026-04-18T13:10:09Z</time></trkpt><trkpt lat="42.57694237913242" lon="13.591742672084727"><ele>344.0</ele><time>2026-04-18T13:10:10Z</time></trkpt><trkpt lat="42.57704509839134" lon="13.591914392597404"><ele>344.0</ele><time>2026-04-18T13:10:11Z</time></trkpt><trkpt lat="42.57714000731647" lon="13.592088556759704"><ele>337.0</ele><time>2026-04-18T13:10:12Z</time></trkpt><trkpt lat="42.57722281427772" lon="13.592274980199678"><ele>330.0</ele><time>2026-04-18T13:10:13Z</time></trkpt><trkpt lat="42.57726770323727" lon="13.592481817741525"><ele>323.0</ele><time>2026-04-18T13:10:14Z</time></trkpt><trkpt lat="42.57728728910552" lon="13.592697370550923"><ele>322.6666666666667</ele><time>2026-04-18T13:10:15Z</time></trkpt><trkpt lat="42.57728212352479" lon="13.592917273053091"><ele>322.3333333333333</ele><time>2026-04-18T13:10:16Z</time></trkpt><trkpt lat="42.577276443104395" lon="13.593143286715087"><ele>322.0</ele><time>2026-04-18T13:10:17Z</time></trkpt><trkpt lat="42.57728115704004" lon="13.593370042700677"><ele>322.0</ele><time>2026-04-18T13:10:18Z</time></trkpt><trkpt lat="42.57726794600087" lon="13.593598921348597"><ele>322.0</ele><time>2026-04-18T13:10:19Z</time></trkpt><trkpt lat="42.577260821120895" lon="13.593830854479256"><ele>322.0</ele><time>2026-04-18T13:10:20Z</time></trkpt><trkpt lat="42.57726031305023" lon="13.594070603464566"><ele>322.0</ele><time>2026-04-18T13:10:21Z</time></trkpt><trkpt lat="42.57726302210321" lon="13.594312745449178"><ele>322.0</ele><time>2026-04-18T13:10:22Z</time></trkpt><trkpt lat="42.57726563047723" lon="13.59455595164462"><ele>322.0</ele><time>2026-04-18T13:10:23Z</time></trkpt><trkpt lat="42.577264680265394" lon="13.594792918582444"><ele>322.0</ele><time>2026-04-18T13:10:24Z</time></trkpt><trkpt lat="42.57726460035841" lon="13.595016086808599"><ele>322.0</ele><time>2026-04-18T13:10:25Z</time></trkpt><trkpt lat="42.577269615565" lon="13.595236319022485"><ele>322.0</ele><time>2026-04-18T13:10:26Z</time></trkpt><trkpt lat="42.57729942318963" lon="13.595448854290893"><ele>327.0</ele><time>2026-04-18T13:10:27Z</time></trkpt><trkpt lat="42.57736260212712" lon="13.59564987198364"><ele>332.0</ele><time>2026-04-18T13:10:28Z</time></trkpt><trkpt lat="42.57744121724135" lon="13.595844332557748"><ele>337.0</ele><time>2026-04-18T13:10:29Z</time></trkpt><trkpt lat="42.57752231923907" lon="13.596032441946726"><ele>345.3333333333333</ele><time>2026-04-18T13:10:30Z</time></trkpt><trkpt lat="42.577620596635704" lon="13.596207001264771"><ele>353.6666666666667</ele><time>2026-04-18T13:10:31Z</time></trkpt><trkpt lat="42.57773893228291" lon="13.596365815076219"><ele>362.0</ele><time>2026-04-18T13:10:32Z</time></trkpt><trkpt lat="42.57786031434111" lon="13.596523518962107"><ele>345.33333333333337</ele><time>2026-04-18T13:10:33Z</time></trkpt><trkpt lat="42.57797816053706" lon="13.596664892015454"><ele>328.6666666666667</ele><time>2026-04-18T13:10:34Z</time></trkpt><trkpt lat="42.57810066780552" lon="13.596777037164612"><ele>312.0</ele><time>2026-04-18T13:10:35Z</time></trkpt><trkpt lat="42.578241401470756" lon="13.596846786182198"><ele>312.0</ele><time>2026-04-18T13:10:36Z</time></trkpt><trkpt lat="42.578334616111206" lon="13.596962454766008"><ele>312.0</ele><time>2026-04-18T13:10:37Z</time></trkpt><trkpt lat="42.57837222985849" lon="13.597129770799075"><ele>312.0</ele><time>2026-04-18T13:10:38Z</time></trkpt><trkpt lat="42.578362513562475" lon="13.597310379404218"><ele>312.0</ele><time>2026-04-18T13:10:39Z</time></trkpt><trkpt lat="42.578349382155245" lon="13.597509376287851"><ele>312.3333333333333</ele><time>2026-04-18T13:10:40Z</time></trkpt><trkpt lat="42.57829388118503" lon="13.597704925205958"><ele>312.66666666666663</ele><time>2026-04-18T13:10:41Z</time></trkpt><trkpt lat="42.57824608549632" lon="13.59791398763278"><ele>313.0</ele><time>2026-04-18T13:10:42Z</time></trkpt><trkpt lat="42.578204257592354" lon="13.598137662687503"><ele>313.0</ele><time>2026-04-18T13:10:43Z</time></trkpt><trkpt lat="42.57816139021431" lon="13.598370750923351"><ele>313.0</ele><time>2026-04-18T13:10:44Z</time></trkpt><trkpt lat="42.57810954691581" lon="13.598614687551587"><ele>313.0</ele><time>2026-04-18T13:10:45Z</time></trkpt><trkpt lat="42.57807519982522" lon="13.59886187273137"><ele>313.3333333333333</ele><time>2026-04-18T13:10:46Z</time></trkpt><trkpt lat="42.57806414265506" lon="13.599115855459225"><ele>313.6666666666667</ele><time>2026-04-18T13:10:47Z</time></trkpt><trkpt lat="42.57807312159175" lon="13.599364192061293"><ele>314.0</ele><time>2026-04-18T13:10:48Z</time></trkpt><trkpt lat="42.578097837945826" lon="13.599610637023671"><ele>314.0</ele><time>2026-04-18T13:10:49Z</time></trkpt><trkpt lat="42.57813968724577" lon="13.599849148458445"><ele>314.0</ele><time>2026-04-18T13:10:50Z</time></trkpt><trkpt lat="42.578202250698624" lon="13.600080940637794"><ele>314.0</ele><time>2026-04-18T13:10:51Z</time></trkpt><trkpt lat="42.5782883034545" lon="13.60029454774369"><ele>319.6666666666667</ele><time>2026-04-18T13:10:52Z</time></trkpt><trkpt lat="42.57839193303987" lon="13.600489403134091"><ele>325.3333333333333</ele><time>2026-04-18T13:10:53Z</time></trkpt><trkpt lat="42.57850461275" lon="13.6006753214324"><ele>331.0</ele><time>2026-04-18T13:10:54Z</time></trkpt><trkpt lat="42.57861862164655" lon="13.600859981441273"><ele>325.3333333333333</ele><time>2026-04-18T13:10:55Z</time></trkpt><trkpt lat="42.5787324070064" lon="13.601048801692288"><ele>319.6666666666667</ele><time>2026-04-18T13:10:55.999Z</time></trkpt><trkpt lat="42.57884545911204" lon="13.601229449994612"><ele>314.0</ele><time>2026-04-18T13:10:56.998Z</time></trkpt><trkpt lat="42.57895193484712" lon="13.601408699475146"><ele>314.0</ele><time>2026-04-18T13:10:57.998Z</time></trkpt><trkpt lat="42.579057435274926" lon="13.601585907171826"><ele>314.0</ele><time>2026-04-18T13:10:58.998Z</time></trkpt><trkpt lat="42.57915050241475" lon="13.601789939749219"><ele>314.0</ele><time>2026-04-18T13:10:59.998Z</time></trkpt><trkpt lat="42.57925505457018" lon="13.601992723626699"><ele>320.33333333333337</ele><time>2026-04-18T13:11:00.998Z</time></trkpt><trkpt lat="42.57934421823801" lon="13.602202440336232"><ele>326.6666666666667</ele><time>2026-04-18T13:11:01.998Z</time></trkpt><trkpt lat="42.57941172858419" lon="13.602438094632145"><ele>333.0</ele><time>2026-04-18T13:11:02.998Z</time></trkpt><trkpt lat="42.57946167121073" lon="13.602671115342424"><ele>338.6666666666667</ele><time>2026-04-18T13:11:03.998Z</time></trkpt><trkpt lat="42.57951678078718" lon="13.602911545332832"><ele>344.33333333333337</ele><time>2026-04-18T13:11:04.998Z</time></trkpt><trkpt lat="42.579549706820224" lon="13.603159654432192"><ele>350.0</ele><time>2026-04-18T13:11:05.998Z</time></trkpt><trkpt lat="42.57957788943912" lon="13.603406547384788"><ele>334.0</ele><time>2026-04-18T13:11:06.998Z</time></trkpt><trkpt lat="42.57957399213396" lon="13.603658541446423"><ele>318.0</ele><time>2026-04-18T13:11:07.998Z</time></trkpt><trkpt lat="42.57958475760769" lon="13.603903867211226"><ele>302.0</ele><time>2026-04-18T13:11:08.998Z</time></trkpt><trkpt lat="42.57957379074778" lon="13.604139661873692"><ele>302.0</ele><time>2026-04-18T13:11:09.998Z</time></trkpt><trkpt lat="42.5795778358022" lon="13.604377059464122"><ele>302.0</ele><time>2026-04-18T13:11:10.998Z</time></trkpt><trkpt lat="42.57959125211326" lon="13.604620487802086"><ele>302.0</ele><time>2026-04-18T13:11:11.998Z</time></trkpt><trkpt lat="42.57961576711021" lon="13.604857553640418"><ele>302.0</ele><time>2026-04-18T13:11:12.998Z</time></trkpt><trkpt lat="42.57964460254409" lon="13.605098160282786"><ele>302.0</ele><time>2026-04-18T13:11:13.998Z</time></trkpt><trkpt lat="42.5796819377042" lon="13.605326667333541"><ele>302.0</ele><time>2026-04-18T13:11:14.998Z</time></trkpt><trkpt lat="42.57973057647082" lon="13.605548745385835"><ele>302.0</ele><time>2026-04-18T13:11:15.998Z</time></trkpt><trkpt lat="42.579792997685246" lon="13.605755457011417"><ele>302.0</ele><time>2026-04-18T13:11:16.998Z</time></trkpt><trkpt lat="42.57986494213801" lon="13.605961182621268"><ele>302.0</ele><time>2026-04-18T13:11:17.998Z</time></trkpt><trkpt lat="42.57993114860559" lon="13.606161554884405"><ele>303.5</ele><time>2026-04-18T13:11:18.998Z</time></trkpt><trkpt lat="42.579987610463974" lon="13.606368427120604"><ele>305.0</ele><time>2026-04-18T13:11:19.998Z</time></trkpt><trkpt lat="42.580007501743474" lon="13.606565887206074"><ele>306.5</ele><time>2026-04-18T13:11:20.998Z</time></trkpt><trkpt lat="42.580011746814044" lon="13.60675448594046"><ele>308.0</ele><time>2026-04-18T13:11:21.998Z</time></trkpt><trkpt lat="42.57999631039566" lon="13.606950889020546"><ele>306.6666666666667</ele><time>2026-04-18T13:11:22.998Z</time></trkpt><trkpt lat="42.5799379413468" lon="13.607145814039722"><ele>305.3333333333333</ele><time>2026-04-18T13:11:23.998Z</time></trkpt><trkpt lat="42.57986965325376" lon="13.607339183319867"><ele>304.0</ele><time>2026-04-18T13:11:24.998Z</time></trkpt><trkpt lat="42.57982034302403" lon="13.607543692463517"><ele>304.0</ele><time>2026-04-18T13:11:25.998Z</time></trkpt><trkpt lat="42.57980257865392" lon="13.607766716869312"><ele>304.0</ele><time>2026-04-18T13:11:26.998Z</time></trkpt><trkpt lat="42.57981384854485" lon="13.607995227574616"><ele>304.0</ele><time>2026-04-18T13:11:27.998Z</time></trkpt><trkpt lat="42.57982800542015" lon="13.608222155936446"><ele>302.0</ele><time>2026-04-18T13:11:28.998Z</time></trkpt><trkpt lat="42.579823045466874" lon="13.608446808583928"><ele>300.0</ele><time>2026-04-18T13:11:29.998Z</time></trkpt><trkpt lat="42.57978392723241" lon="13.608664911554175"><ele>298.0</ele><time>2026-04-18T13:11:30.998Z</time></trkpt><trkpt lat="42.57970893684917" lon="13.608870646268457"><ele>294.66666666666663</ele><time>2026-04-18T13:11:31.998Z</time></trkpt><trkpt lat="42.57961185704919" lon="13.609050495707981"><ele>291.3333333333333</ele><time>2026-04-18T13:11:32.998Z</time></trkpt><trkpt lat="42.579496881784706" lon="13.609216739369664"><ele>288.0</ele><time>2026-04-18T13:11:33.998Z</time></trkpt><trkpt lat="42.57936556501234" lon="13.609365276984802"><ele>292.6666666666667</ele><time>2026-04-18T13:11:34.998Z</time></trkpt><trkpt lat="42.57922898254129" lon="13.60950277146703"><ele>297.33333333333337</ele><time>2026-04-18T13:11:35.998Z</time></trkpt><trkpt lat="42.57909967351658" lon="13.609662561731867"><ele>302.0</ele><time>2026-04-18T13:11:36.997Z</time></trkpt><trkpt lat="42.57898349305585" lon="13.609842063314485"><ele>302.0</ele><time>2026-04-18T13:11:37.997Z</time></trkpt><trkpt lat="42.578875717981695" lon="13.610037494954922"><ele>302.0</ele><time>2026-04-18T13:11:38.997Z</time></trkpt><trkpt lat="42.5787747856679" lon="13.61024317120987"><ele>302.0</ele><time>2026-04-18T13:11:39.997Z</time></trkpt><trkpt lat="42.578668823404996" lon="13.610446562908209"><ele>305.33333333333337</ele><time>2026-04-18T13:11:40.997Z</time></trkpt><trkpt lat="42.57856556620832" lon="13.610645465616791"><ele>308.6666666666667</ele><time>2026-04-18T13:11:41.997Z</time></trkpt><trkpt lat="42.57846631490592" lon="13.610847965507997"><ele>312.0</ele><time>2026-04-18T13:11:42.997Z</time></trkpt><trkpt lat="42.57837095708605" lon="13.611046544762972"><ele>307.6666666666667</ele><time>2026-04-18T13:11:43.997Z</time></trkpt><trkpt lat="42.578297882366726" lon="13.61125403753441"><ele>303.33333333333337</ele><time>2026-04-18T13:11:44.997Z</time></trkpt><trkpt lat="42.57823559114447" lon="13.61145447984696"><ele>299.0</ele><time>2026-04-18T13:11:45.997Z</time></trkpt><trkpt lat="42.5782027890201" lon="13.611666547677478"><ele>299.0</ele><time>2026-04-18T13:11:46.997Z</time></trkpt><trkpt lat="42.57820179442648" lon="13.611882932008376"><ele>299.0</ele><time>2026-04-18T13:11:47.997Z</time></trkpt><trkpt lat="42.57823987332913" lon="13.612101409849137"><ele>299.0</ele><time>2026-04-18T13:11:48.997Z</time></trkpt><trkpt lat="42.57829744879646" lon="13.612316340908903"><ele>298.6666666666667</ele><time>2026-04-18T13:11:49.997Z</time></trkpt><trkpt lat="42.578352049541294" lon="13.612547538787181"><ele>298.3333333333333</ele><time>2026-04-18T13:11:50.997Z</time></trkpt><trkpt lat="42.57840785051165" lon="13.612770612413579"><ele>298.0</ele><time>2026-04-18T13:11:51.997Z</time></trkpt><trkpt lat="42.57847913869735" lon="13.612973551515436"><ele>299.0</ele><time>2026-04-18T13:11:52.997Z</time></trkpt><trkpt lat="42.578565924616576" lon="13.613151609309435"><ele>300.0</ele><time>2026-04-18T13:11:53.997Z</time></trkpt><trkpt lat="42.57867110712538" lon="13.61330865672827"><ele>301.0</ele><time>2026-04-18T13:11:54.997Z</time></trkpt><trkpt lat="42.57877646862073" lon="13.61344897758172"><ele>297.25</ele><time>2026-04-18T13:11:55.997Z</time></trkpt><trkpt lat="42.57887937693738" lon="13.613585881803917"><ele>293.5</ele><time>2026-04-18T13:11:56.997Z</time></trkpt><trkpt lat="42.578973362100186" lon="13.613728603815161"><ele>289.75</ele><time>2026-04-18T13:11:57.997Z</time></trkpt><trkpt lat="42.579050228410225" lon="13.613886872215271"><ele>286.0</ele><time>2026-04-18T13:11:58.997Z</time></trkpt><trkpt lat="42.57911229671853" lon="13.614059098308722"><ele>286.0</ele><time>2026-04-18T13:11:59.997Z</time></trkpt><trkpt lat="42.579144975398556" lon="13.614233505756816"><ele>286.0</ele><time>2026-04-18T13:12:00.997Z</time></trkpt><trkpt lat="42.579140958003286" lon="13.614407552750734"><ele>286.0</ele><time>2026-04-18T13:12:01.997Z</time></trkpt><trkpt lat="42.579095988625575" lon="13.614570430557176"><ele>286.0</ele><time>2026-04-18T13:12:02.997Z</time></trkpt><trkpt lat="42.57901786643118" lon="13.614720243765518"><ele>285.25</ele><time>2026-04-18T13:12:03.997Z</time></trkpt><trkpt lat="42.57892821795905" lon="13.614860132677034"><ele>284.5</ele><time>2026-04-18T13:12:04.997Z</time></trkpt><trkpt lat="42.57884234025167" lon="13.614996656145774"><ele>283.75</ele><time>2026-04-18T13:12:05.997Z</time></trkpt><trkpt lat="42.5787674148082" lon="13.61513617862716"><ele>283.0</ele><time>2026-04-18T13:12:06.997Z</time></trkpt><trkpt lat="42.57870130428081" lon="13.615284008022554"><ele>285.75</ele><time>2026-04-18T13:12:07.997Z</time></trkpt><trkpt lat="42.57863464172507" lon="13.615441542931537"><ele>288.5</ele><time>2026-04-18T13:12:08.997Z</time></trkpt><trkpt lat="42.57857227486636" lon="13.615607264908604"><ele>291.25</ele><time>2026-04-18T13:12:09.997Z</time></trkpt><trkpt lat="42.57851659067229" lon="13.615785966748088"><ele>294.0</ele><time>2026-04-18T13:12:10.997Z</time></trkpt><trkpt lat="42.57847225367297" lon="13.615986283044215"><ele>294.3333333333333</ele><time>2026-04-18T13:12:12Z</time></trkpt><trkpt lat="42.578435052765016" lon="13.616212861902047"><ele>294.66666666666663</ele><time>2026-04-18T13:12:13Z</time></trkpt><trkpt lat="42.578390698503256" lon="13.616445425565306"><ele>295.0</ele><time>2026-04-18T13:12:14Z</time></trkpt><trkpt lat="42.578384999709115" lon="13.616694449164532"><ele>295.0</ele><time>2026-04-18T13:12:15Z</time></trkpt><trkpt lat="42.57837144262741" lon="13.616944726317293"><ele>295.0</ele><time>2026-04-18T13:12:16Z</time></trkpt><trkpt lat="42.57835134728926" lon="13.617189587995114"><ele>295.0</ele><time>2026-04-18T13:12:17Z</time></trkpt><trkpt lat="42.57830399770667" lon="13.617426756255144"><ele>293.66666666666663</ele><time>2026-04-18T13:12:18Z</time></trkpt><trkpt lat="42.57823503587348" lon="13.617639947560582"><ele>292.3333333333333</ele><time>2026-04-18T13:12:19Z</time></trkpt><trkpt lat="42.578172525636695" lon="13.617863411483262"><ele>291.0</ele><time>2026-04-18T13:12:20Z</time></trkpt><trkpt lat="42.57813466673564" lon="13.618095832464167"><ele>289.3333333333333</ele><time>2026-04-18T13:12:21Z</time></trkpt><trkpt lat="42.57810745143067" lon="13.618342956218276"><ele>287.66666666666663</ele><time>2026-04-18T13:12:22Z</time></trkpt><trkpt lat="42.57809422805828" lon="13.618589395091009"><ele>286.0</ele><time>2026-04-18T13:12:23Z</time></trkpt><trkpt lat="42.57809387021896" lon="13.618837380409916"><ele>282.66666666666663</ele><time>2026-04-18T13:12:24Z</time></trkpt><trkpt lat="42.57810378300243" lon="13.619069705430178"><ele>279.3333333333333</ele><time>2026-04-18T13:12:25Z</time></trkpt><trkpt lat="42.578103032175775" lon="13.619303852158371"><ele>276.0</ele><time>2026-04-18T13:12:26Z</time></trkpt><trkpt lat="42.57806624960011" lon="13.619524105564215"><ele>274.6666666666667</ele><time>2026-04-18T13:12:27Z</time></trkpt><trkpt lat="42.57801810635783" lon="13.619728163837644"><ele>273.33333333333337</ele><time>2026-04-18T13:12:28Z</time></trkpt><trkpt lat="42.577970122634895" lon="13.619936114300746"><ele>272.0</ele><time>2026-04-18T13:12:29Z</time></trkpt><trkpt lat="42.57790760737218" lon="13.620131975194633"><ele>271.0</ele><time>2026-04-18T13:12:29.999Z</time></trkpt><trkpt lat="42.577852237872385" lon="13.620337079133558"><ele>270.0</ele><time>2026-04-18T13:12:30.999Z</time></trkpt><trkpt lat="42.57780559998885" lon="13.620534654899396"><ele>269.0</ele><time>2026-04-18T13:12:31.999Z</time></trkpt><trkpt lat="42.57776049890638" lon="13.620736541862723"><ele>273.33333333333337</ele><time>2026-04-18T13:12:32.999Z</time></trkpt><trkpt lat="42.57771951000386" lon="13.620938597880617"><ele>277.6666666666667</ele><time>2026-04-18T13:12:33.999Z</time></trkpt><trkpt lat="42.57769249249625" lon="13.621136539678453"><ele>282.0</ele><time>2026-04-18T13:12:34.999Z</time></trkpt><trkpt lat="42.57768292815466" lon="13.621348606309034"><ele>282.0</ele><time>2026-04-18T13:12:35.999Z</time></trkpt><trkpt lat="42.57769170713709" lon="13.621563136821342"><ele>282.0</ele><time>2026-04-18T13:12:36.999Z</time></trkpt><trkpt lat="42.5777143223019" lon="13.621779912713938"><ele>282.0</ele><time>2026-04-18T13:12:37.999Z</time></trkpt><trkpt lat="42.57774652663203" lon="13.621996216960804"><ele>282.0</ele><time>2026-04-18T13:12:38.999Z</time></trkpt><trkpt lat="42.57778355066791" lon="13.62221408767033"><ele>282.0</ele><time>2026-04-18T13:12:39.999Z</time></trkpt><trkpt lat="42.57782186986427" lon="13.62243172721673"><ele>282.0</ele><time>2026-04-18T13:12:40.999Z</time></trkpt><trkpt lat="42.577856770846104" lon="13.622644327890004"><ele>276.6666666666667</ele><time>2026-04-18T13:12:41.999Z</time></trkpt><trkpt lat="42.577893760123764" lon="13.622858383215144"><ele>271.33333333333337</ele><time>2026-04-18T13:12:42.999Z</time></trkpt><trkpt lat="42.577931796429155" lon="13.62306787268368"><ele>266.0</ele><time>2026-04-18T13:12:43.999Z</time></trkpt><trkpt lat="42.577967982105655" lon="13.623275344340664"><ele>266.0</ele><time>2026-04-18T13:12:44.999Z</time></trkpt><trkpt lat="42.57799769611539" lon="13.623484306452884"><ele>266.0</ele><time>2026-04-18T13:12:45.999Z</time></trkpt><trkpt lat="42.57801306680557" lon="13.623687956756998"><ele>266.0</ele><time>2026-04-18T13:12:46.999Z</time></trkpt><trkpt lat="42.57800889339584" lon="13.623895649677143"><ele>264.33333333333337</ele><time>2026-04-18T13:12:47.999Z</time></trkpt><trkpt lat="42.57798691396778" lon="13.62409758465358"><ele>262.6666666666667</ele><time>2026-04-18T13:12:48.999Z</time></trkpt><trkpt lat="42.57795106063362" lon="13.624299817069685"><ele>261.0</ele><time>2026-04-18T13:12:49.999Z</time></trkpt><trkpt lat="42.57790472680518" lon="13.624493594053707"><ele>261.0</ele><time>2026-04-18T13:12:50.999Z</time></trkpt><trkpt lat="42.57785856835544" lon="13.624675847115597"><ele>261.0</ele><time>2026-04-18T13:12:51.999Z</time></trkpt><trkpt lat="42.577830651329805" lon="13.624843021155192"><ele>261.0</ele><time>2026-04-18T13:12:52.999Z</time></trkpt><trkpt lat="42.577847700509366" lon="13.6249966247697"><ele>261.0</ele><time>2026-04-18T13:12:53.999Z</time></trkpt><trkpt lat="42.57791564202519" lon="13.625123860532705"><ele>261.0</ele><time>2026-04-18T13:12:54.999Z</time></trkpt><trkpt lat="42.57802078518673" lon="13.625214033943022"><ele>261.0</ele><time>2026-04-18T13:12:55.999Z</time></trkpt><trkpt lat="42.57814607740038" lon="13.625278635018145"><ele>261.0</ele><time>2026-04-18T13:12:56.999Z</time></trkpt><trkpt lat="42.57826977865003" lon="13.625363506165224"><ele>261.0</ele><time>2026-04-18T13:12:57.999Z</time></trkpt><trkpt lat="42.578386423653086" lon="13.625486832266434"><ele>260.0</ele><time>2026-04-18T13:12:58.999Z</time></trkpt><trkpt lat="42.57849230647942" lon="13.625633821567902"><ele>259.0</ele><time>2026-04-18T13:12:59.999Z</time></trkpt><trkpt lat="42.578589479240684" lon="13.625802105344789"><ele>258.0</ele><time>2026-04-18T13:13:00.999Z</time></trkpt><trkpt lat="42.57868533467383" lon="13.625971942991534"><ele>258.0</ele><time>2026-04-18T13:13:01.999Z</time></trkpt><trkpt lat="42.57878577619864" lon="13.626140424508078"><ele>258.0</ele><time>2026-04-18T13:13:02.999Z</time></trkpt><trkpt lat="42.578891636197255" lon="13.626308468895951"><ele>258.0</ele><time>2026-04-18T13:13:03.999Z</time></trkpt><trkpt lat="42.57899451056511" lon="13.626483903438526"><ele>261.0</ele><time>2026-04-18T13:13:04.999Z</time></trkpt><trkpt lat="42.57909861178175" lon="13.626660577006549"><ele>264.0</ele><time>2026-04-18T13:13:05.999Z</time></trkpt><trkpt lat="42.57919630230285" lon="13.626841568797335"><ele>267.0</ele><time>2026-04-18T13:13:06.999Z</time></trkpt><trkpt lat="42.579282638707355" lon="13.627033692250448"><ele>268.0</ele><time>2026-04-18T13:13:07.999Z</time></trkpt><trkpt lat="42.57935980168354" lon="13.627231424069262"><ele>269.0</ele><time>2026-04-18T13:13:08.999Z</time></trkpt><trkpt lat="42.57943061488337" lon="13.62743089413242"><ele>270.0</ele><time>2026-04-18T13:13:09.999Z</time></trkpt><trkpt lat="42.57949777874039" lon="13.627637417839008"><ele>268.0</ele><time>2026-04-18T13:13:10.999Z</time></trkpt><trkpt lat="42.579563372485595" lon="13.627842491271723"><ele>266.0</ele><time>2026-04-18T13:13:11.998Z</time></trkpt><trkpt lat="42.579629247200366" lon="13.628044787477858"><ele>264.0</ele><time>2026-04-18T13:13:12.998Z</time></trkpt><trkpt lat="42.579696976420934" lon="13.628237744814431"><ele>264.0</ele><time>2026-04-18T13:13:13.998Z</time></trkpt><trkpt lat="42.57976171222611" lon="13.628422710004907"><ele>264.0</ele><time>2026-04-18T13:13:14.998Z</time></trkpt><trkpt lat="42.579821600422676" lon="13.628603298354575"><ele>264.0</ele><time>2026-04-18T13:13:15.998Z</time></trkpt><trkpt lat="42.579881377140325" lon="13.628784119612787"><ele>264.0</ele><time>2026-04-18T13:13:16.998Z</time></trkpt><trkpt lat="42.579939904378776" lon="13.628964534590251"><ele>263.25</ele><time>2026-04-18T13:13:17.998Z</time></trkpt><trkpt lat="42.579990152040516" lon="13.629136420713127"><ele>262.5</ele><time>2026-04-18T13:13:18.998Z</time></trkpt><trkpt lat="42.580037368052146" lon="13.629297325761968"><ele>261.75</ele><time>2026-04-18T13:13:19.998Z</time></trkpt><trkpt lat="42.58008217698818" lon="13.629451755249542"><ele>261.0</ele><time>2026-04-18T13:13:20.998Z</time></trkpt><trkpt lat="42.58012659425973" lon="13.62960047709468"><ele>260.8</ele><time>2026-04-18T13:13:21.998Z</time></trkpt><trkpt lat="42.58016681409869" lon="13.62974414641042"><ele>260.6</ele><time>2026-04-18T13:13:22.998Z</time></trkpt><trkpt lat="42.58020215522957" lon="13.629887589995752"><ele>260.4</ele><time>2026-04-18T13:13:23.998Z</time></trkpt><trkpt lat="42.58022787822615" lon="13.630020650075997"><ele>260.2</ele><time>2026-04-18T13:13:24.998Z</time></trkpt><trkpt lat="42.58024057504194" lon="13.630136395204024"><ele>260.0</ele><time>2026-04-18T13:13:25.998Z</time></trkpt><trkpt lat="42.58023213210278" lon="13.63024626491989"><ele>259.5</ele><time>2026-04-18T13:13:26.998Z</time></trkpt><trkpt lat="42.58020511882048" lon="13.630353316688279"><ele>259.0</ele><time>2026-04-18T13:13:27.998Z</time></trkpt><trkpt lat="42.58019609513663" lon="13.630450168035207"><ele>258.5</ele><time>2026-04-18T13:13:28.998Z</time></trkpt><trkpt lat="42.58022731481745" lon="13.630528820193646"><ele>258.0</ele><time>2026-04-18T13:13:29.998Z</time></trkpt><trkpt lat="42.58029372240275" lon="13.630581746991332"><ele>257.5</ele><time>2026-04-18T13:13:30.998Z</time></trkpt><trkpt lat="42.58037943522944" lon="13.630642244983584"><ele>257.0</ele><time>2026-04-18T13:13:31.998Z</time></trkpt><trkpt lat="42.58046158553216" lon="13.630752438305354"><ele>255.0</ele><time>2026-04-18T13:13:32.998Z</time></trkpt><trkpt lat="42.58053079137279" lon="13.630906264258185"><ele>253.0</ele><time>2026-04-18T13:13:33.998Z</time></trkpt><trkpt lat="42.58060034433463" lon="13.631100800820114"><ele>251.0</ele><time>2026-04-18T13:13:34.998Z</time></trkpt><trkpt lat="42.580672738321844" lon="13.631323813324933"><ele>250.33333333333334</ele><time>2026-04-18T13:13:35.998Z</time></trkpt><trkpt lat="42.58075093540455" lon="13.631571311815954"><ele>249.66666666666669</ele><time>2026-04-18T13:13:36.998Z</time></trkpt><trkpt lat="42.58083278578836" lon="13.631832752911572"><ele>249.0</ele><time>2026-04-18T13:13:37.998Z</time></trkpt><trkpt lat="42.58091244744254" lon="13.632082526222886"><ele>248.0</ele><time>2026-04-18T13:13:38.998Z</time></trkpt><trkpt lat="42.580984825101844" lon="13.632304340814297"><ele>247.0</ele><time>2026-04-18T13:13:39.998Z</time></trkpt><trkpt lat="42.58104741823889" lon="13.6324995427863"><ele>246.0</ele><time>2026-04-18T13:13:40.998Z</time></trkpt><trkpt lat="42.581100648129286" lon="13.632666226858177"><ele>246.0</ele><time>2026-04-18T13:13:41.998Z</time></trkpt><trkpt lat="42.58114192107996" lon="13.632805418410834"><ele>246.00000000000003</ele><time>2026-04-18T13:13:42.998Z</time></trkpt><trkpt lat="42.581176046543085" lon="13.632938852704623"><ele>246.00000000000003</ele><time>2026-04-18T13:13:43.998Z</time></trkpt><trkpt lat="42.581210072221886" lon="13.633073865414653"><ele>246.0</ele><time>2026-04-18T13:13:44.998Z</time></trkpt><trkpt lat="42.58125672213537" lon="13.633212943606686"><ele>246.0</ele><time>2026-04-18T13:13:45.998Z</time></trkpt><trkpt lat="42.58130925817217" lon="13.63335352050621"><ele>247.5</ele><time>2026-04-18T13:13:46.998Z</time></trkpt><trkpt lat="42.5813606805486" lon="13.633497359586734"><ele>249.0</ele><time>2026-04-18T13:13:47.998Z</time></trkpt><trkpt lat="42.58140794358387" lon="13.633644532180645"><ele>250.5</ele><time>2026-04-18T13:13:48.998Z</time></trkpt><trkpt lat="42.581452961628244" lon="13.633794094299477"><ele>252.0</ele><time>2026-04-18T13:13:49.998Z</time></trkpt><trkpt lat="42.581499615978814" lon="13.633947357514803"><ele>252.0</ele><time>2026-04-18T13:13:50.998Z</time></trkpt><trkpt lat="42.58155065807187" lon="13.634102788141274"><ele>252.0</ele><time>2026-04-18T13:13:51.997Z</time></trkpt><trkpt lat="42.58160141443335" lon="13.634260557040626"><ele>252.0</ele><time>2026-04-18T13:13:52.997Z</time></trkpt><trkpt lat="42.58165366708408" lon="13.634420094886941"><ele>252.0</ele><time>2026-04-18T13:13:53.997Z</time></trkpt><trkpt lat="42.581705706244726" lon="13.634583570471662"><ele>252.25</ele><time>2026-04-18T13:13:54.997Z</time></trkpt><trkpt lat="42.581756225350375" lon="13.63474896535332"><ele>252.5</ele><time>2026-04-18T13:13:55.997Z</time></trkpt><trkpt lat="42.58180983690896" lon="13.634913991121763"><ele>252.75</ele><time>2026-04-18T13:13:56.997Z</time></trkpt><trkpt lat="42.58186385801826" lon="13.635078918489398"><ele>253.0</ele><time>2026-04-18T13:13:57.997Z</time></trkpt><trkpt lat="42.5819175861827" lon="13.63524094708721"><ele>252.0</ele><time>2026-04-18T13:13:58.997Z</time></trkpt><trkpt lat="42.58197051379475" lon="13.635398255845539"><ele>251.0</ele><time>2026-04-18T13:13:59.997Z</time></trkpt><trkpt lat="42.5820199801652" lon="13.635555113187669"><ele>250.0</ele><time>2026-04-18T13:14:00.997Z</time></trkpt><trkpt lat="42.58206736155686" lon="13.635701214267126"><ele>249.0</ele><time>2026-04-18T13:14:01.997Z</time></trkpt><trkpt lat="42.58211483064093" lon="13.635840646370822"><ele>250.39999999999998</ele><time>2026-04-18T13:14:02.997Z</time></trkpt><trkpt lat="42.58215740868366" lon="13.635969535670073"><ele>251.79999999999998</ele><time>2026-04-18T13:14:03.997Z</time></trkpt><trkpt lat="42.582196747008354" lon="13.636089373890009"><ele>253.20000000000002</ele><time>2026-04-18T13:14:04.997Z</time></trkpt><trkpt lat="42.58223587217746" lon="13.636204691682714"><ele>254.60000000000002</ele><time>2026-04-18T13:14:05.997Z</time></trkpt><trkpt lat="42.58227351246626" lon="13.636308811795711"><ele>256.0</ele><time>2026-04-18T13:14:06.997Z</time></trkpt><trkpt lat="42.58231083350143" lon="13.636407820780303"><ele>256.0</ele><time>2026-04-18T13:14:07.997Z</time></trkpt><trkpt lat="42.582342091800136" lon="13.636505975094362"><ele>256.0</ele><time>2026-04-18T13:14:08.997Z</time></trkpt><trkpt lat="42.58236743088001" lon="13.636600326034277"><ele>256.0</ele><time>2026-04-18T13:14:09.997Z</time></trkpt><trkpt lat="42.582406450990575" lon="13.636747521986807"><ele>256.0</ele><time>2026-04-18T13:14:11.997Z</time></trkpt><trkpt lat="42.58244701498802" lon="13.636887307599661"><ele>256.0</ele><time>2026-04-18T13:14:13.997Z</time></trkpt><trkpt lat="42.582492105352806" lon="13.637016727335226"><ele>255.20000000000002</ele><time>2026-04-18T13:14:15.997Z</time></trkpt><trkpt lat="42.58253687569744" lon="13.637186413419036"><ele>254.40000000000003</ele><time>2026-04-18T13:14:18Z</time></trkpt><trkpt lat="42.58256040145796" lon="13.63729219658281"><ele>253.6</ele><time>2026-04-18T13:14:19Z</time></trkpt><trkpt lat="42.582570571909855" lon="13.637408517547746"><ele>252.8</ele><time>2026-04-18T13:14:20Z</time></trkpt><trkpt lat="42.58256926152834" lon="13.6375253794481"><ele>252.0</ele><time>2026-04-18T13:14:21Z</time></trkpt><trkpt lat="42.58256365166267" lon="13.637640579052036"><ele>252.0</ele><time>2026-04-18T13:14:22Z</time></trkpt><trkpt lat="42.582580932334196" lon="13.637732955401441"><ele>252.0</ele><time>2026-04-18T13:14:23Z</time></trkpt><trkpt lat="42.5826267842154" lon="13.637813865207978"><ele>252.0</ele><time>2026-04-18T13:14:24Z</time></trkpt><trkpt lat="42.58270142501598" lon="13.637891833916491"><ele>252.0</ele><time>2026-04-18T13:14:25Z</time></trkpt><trkpt lat="42.58277289500309" lon="13.63800056935093"><ele>252.0</ele><time>2026-04-18T13:14:26Z</time></trkpt><trkpt lat="42.58282651028512" lon="13.638132502960124"><ele>252.0</ele><time>2026-04-18T13:14:27Z</time></trkpt><trkpt lat="42.58287544802677" lon="13.638279591165928"><ele>252.0</ele><time>2026-04-18T13:14:28Z</time></trkpt><trkpt lat="42.58292339307917" lon="13.638416205493131"><ele>252.0</ele><time>2026-04-18T13:14:29Z</time></trkpt><trkpt lat="42.58297045394127" lon="13.638548554960614"><ele>252.0</ele><time>2026-04-18T13:14:30Z</time></trkpt><trkpt lat="42.58301433687563" lon="13.638688064705091"><ele>252.0</ele><time>2026-04-18T13:14:31Z</time></trkpt><trkpt lat="42.58306108641368" lon="13.638836366729123"><ele>252.0</ele><time>2026-04-18T13:14:32Z</time></trkpt><trkpt lat="42.58310891154784" lon="13.638989883063482"><ele>252.0</ele><time>2026-04-18T13:14:33Z</time></trkpt><trkpt lat="42.583157623475124" lon="13.639143841275112"><ele>252.0</ele><time>2026-04-18T13:14:34Z</time></trkpt><trkpt lat="42.5832072328958" lon="13.639297600207616"><ele>252.0</ele><time>2026-04-18T13:14:35Z</time></trkpt><trkpt lat="42.58325514490716" lon="13.63945219834075"><ele>252.0</ele><time>2026-04-18T13:14:36Z</time></trkpt><trkpt lat="42.583305092026144" lon="13.639604805342662"><ele>252.0</ele><time>2026-04-18T13:14:37Z</time></trkpt><trkpt lat="42.583354595460634" lon="13.639752247342887"><ele>252.0</ele><time>2026-04-18T13:14:38Z</time></trkpt><trkpt lat="42.583402427458346" lon="13.639895409259555"><ele>251.8</ele><time>2026-04-18T13:14:39Z</time></trkpt><trkpt lat="42.583449126870306" lon="13.640036963580421"><ele>251.6</ele><time>2026-04-18T13:14:40Z</time></trkpt><trkpt lat="42.58349435996924" lon="13.640180590492726"><ele>251.40000000000003</ele><time>2026-04-18T13:14:41Z</time></trkpt><trkpt lat="42.58353684037336" lon="13.640320621614965"><ele>251.20000000000002</ele><time>2026-04-18T13:14:42Z</time></trkpt><trkpt lat="42.58357813296125" lon="13.640454871341332"><ele>251.0</ele><time>2026-04-18T13:14:43Z</time></trkpt><trkpt lat="42.583621841955754" lon="13.640592345119803"><ele>250.20000000000002</ele><time>2026-04-18T13:14:43.999Z</time></trkpt><trkpt lat="42.58366644542463" lon="13.640735648852662"><ele>249.40000000000003</ele><time>2026-04-18T13:14:44.999Z</time></trkpt><trkpt lat="42.583711872091186" lon="13.640880029910472"><ele>248.6</ele><time>2026-04-18T13:14:45.999Z</time></trkpt><trkpt lat="42.583756857480246" lon="13.64101757674037"><ele>247.8</ele><time>2026-04-18T13:14:46.999Z</time></trkpt><trkpt lat="42.583796725126504" lon="13.641147332578738"><ele>247.0</ele><time>2026-04-18T13:14:47.999Z</time></trkpt><trkpt lat="42.58382996476052" lon="13.641265211531467"><ele>250.99999999999997</ele><time>2026-04-18T13:14:48.999Z</time></trkpt><trkpt lat="42.583858399118355" lon="13.641365534179796"><ele>255.0</ele><time>2026-04-18T13:14:49.999Z</time></trkpt><trkpt lat="42.58388798309748" lon="13.641458030641793"><ele>259.0</ele><time>2026-04-18T13:14:50.999Z</time></trkpt><trkpt lat="42.583910586521824" lon="13.641549414325544"><ele>263.0</ele><time>2026-04-18T13:14:51.999Z</time></trkpt><trkpt lat="42.58393813614802" lon="13.641668428300157"><ele>267.0</ele><time>2026-04-18T13:14:52.999Z</time></trkpt><trkpt lat="42.583972678762805" lon="13.641806234595826"><ele>271.0</ele><time>2026-04-18T13:14:53.999Z</time></trkpt><trkpt lat="42.58401692519897" lon="13.641949558411527"><ele>270.25</ele><time>2026-04-18T13:14:54.999Z</time></trkpt><trkpt lat="42.58402194071067" lon="13.642117759590441"><ele>269.5</ele><time>2026-04-18T13:14:55.999Z</time></trkpt><trkpt lat="42.58404732745376" lon="13.642275934930904"><ele>268.75</ele><time>2026-04-18T13:14:56.999Z</time></trkpt><trkpt lat="42.5840755487339" lon="13.642436272098632"><ele>268.0</ele><time>2026-04-18T13:14:57.999Z</time></trkpt><trkpt lat="42.58410718259662" lon="13.642599840947678"><ele>268.0</ele><time>2026-04-18T13:14:58.999Z</time></trkpt><trkpt lat="42.58414358865682" lon="13.642764609193211"><ele>268.0</ele><time>2026-04-18T13:14:59.999Z</time></trkpt><trkpt lat="42.584181153174356" lon="13.642931688480893"><ele>268.0</ele><time>2026-04-18T13:15:00.999Z</time></trkpt><trkpt lat="42.584219881369094" lon="13.643095022830575"><ele>268.0</ele><time>2026-04-18T13:15:01.999Z</time></trkpt><trkpt lat="42.584260547979845" lon="13.643252865595459"><ele>265.75</ele><time>2026-04-18T13:15:02.999Z</time></trkpt><trkpt lat="42.58430461705974" lon="13.643406378360483"><ele>263.5</ele><time>2026-04-18T13:15:03.999Z</time></trkpt><trkpt lat="42.58434996799094" lon="13.643560314492866"><ele>261.25</ele><time>2026-04-18T13:15:04.999Z</time></trkpt><trkpt lat="42.58439714635191" lon="13.643720220733961"><ele>259.0</ele><time>2026-04-18T13:15:05.999Z</time></trkpt><trkpt lat="42.5844447032342" lon="13.643884272165009"><ele>257.25</ele><time>2026-04-18T13:15:06.999Z</time></trkpt><trkpt lat="42.584492387025385" lon="13.644052703284535"><ele>255.5</ele><time>2026-04-18T13:15:07.999Z</time></trkpt><trkpt lat="42.584540076411784" lon="13.644223974236043"><ele>253.75</ele><time>2026-04-18T13:15:08.999Z</time></trkpt><trkpt lat="42.58458670619806" lon="13.644399870020303"><ele>252.0</ele><time>2026-04-18T13:15:09.999Z</time></trkpt><trkpt lat="42.5846327077773" lon="13.644579328966113"><ele>257.5</ele><time>2026-04-18T13:15:10.999Z</time></trkpt><trkpt lat="42.58467762324308" lon="13.644756376487047"><ele>263.0</ele><time>2026-04-18T13:15:11.999Z</time></trkpt><trkpt lat="42.58471999079884" lon="13.644934834223937"><ele>268.5</ele><time>2026-04-18T13:15:12.999Z</time></trkpt><trkpt lat="42.584758876265006" lon="13.645111715472366"><ele>274.0</ele><time>2026-04-18T13:15:13.999Z</time></trkpt><trkpt lat="42.584794687227415" lon="13.64528536352373"><ele>272.5</ele><time>2026-04-18T13:15:14.999Z</time></trkpt><trkpt lat="42.584826929281846" lon="13.645458680162495"><ele>271.0</ele><time>2026-04-18T13:15:15.999Z</time></trkpt><trkpt lat="42.58485715979972" lon="13.645630850901362"><ele>269.5</ele><time>2026-04-18T13:15:16.999Z</time></trkpt><trkpt lat="42.584886781412536" lon="13.64580235270201"><ele>268.0</ele><time>2026-04-18T13:15:17.999Z</time></trkpt><trkpt lat="42.584915680042975" lon="13.645968578042194"><ele>266.75</ele><time>2026-04-18T13:15:18.999Z</time></trkpt><trkpt lat="42.58494457834773" lon="13.646135934262558"><ele>265.5</ele><time>2026-04-18T13:15:19.999Z</time></trkpt><trkpt lat="42.58497333039454" lon="13.646302665494574"><ele>264.25</ele><time>2026-04-18T13:15:20.999Z</time></trkpt><trkpt lat="42.585002609026965" lon="13.646466411773824"><ele>263.0</ele><time>2026-04-18T13:15:21.999Z</time></trkpt><trkpt lat="42.585031206635335" lon="13.646630912971506"><ele>263.0</ele><time>2026-04-18T13:15:22.999Z</time></trkpt><trkpt lat="42.58505905953719" lon="13.646795386542099"><ele>263.0</ele><time>2026-04-18T13:15:23.998Z</time></trkpt><trkpt lat="42.58508632051194" lon="13.646961273265205"><ele>263.0</ele><time>2026-04-18T13:15:24.998Z</time></trkpt><trkpt lat="42.585115273920806" lon="13.647126559553094"><ele>263.0</ele><time>2026-04-18T13:15:25.998Z</time></trkpt><trkpt lat="42.58514615386015" lon="13.647292603122668"><ele>263.0</ele><time>2026-04-18T13:15:26.998Z</time></trkpt><trkpt lat="42.58517823399916" lon="13.64745718032196"><ele>263.0</ele><time>2026-04-18T13:15:27.998Z</time></trkpt><trkpt lat="42.58520751173949" lon="13.647627998835862"><ele>263.0</ele><time>2026-04-18T13:15:28.998Z</time></trkpt><trkpt lat="42.585238429564285" lon="13.647791694631106"><ele>263.0</ele><time>2026-04-18T13:15:29.998Z</time></trkpt><trkpt lat="42.585267985949265" lon="13.64795840159017"><ele>263.0</ele><time>2026-04-18T13:15:30.998Z</time></trkpt><trkpt lat="42.58529765456313" lon="13.648125987757851"><ele>263.0</ele><time>2026-04-18T13:15:31.998Z</time></trkpt><trkpt lat="42.585326208822515" lon="13.648292480212021"><ele>263.0</ele><time>2026-04-18T13:15:32.998Z</time></trkpt><trkpt lat="42.58535501088895" lon="13.648454457373413"><ele>263.0</ele><time>2026-04-18T13:15:33.998Z</time></trkpt><trkpt lat="42.58538272107784" lon="13.64861608647841"><ele>268.25</ele><time>2026-04-18T13:15:34.998Z</time></trkpt><trkpt lat="42.58541069513798" lon="13.648776642306839"><ele>273.5</ele><time>2026-04-18T13:15:35.998Z</time></trkpt><trkpt lat="42.58543885150349" lon="13.648935822974806"><ele>278.75</ele><time>2026-04-18T13:15:36.998Z</time></trkpt><trkpt lat="42.585463397044755" lon="13.649095748933856"><ele>284.0</ele><time>2026-04-18T13:15:37.998Z</time></trkpt><trkpt lat="42.58548908876366" lon="13.649254502463434"><ele>284.0</ele><time>2026-04-18T13:15:38.998Z</time></trkpt><trkpt lat="42.58551951260582" lon="13.64941230679143"><ele>284.0</ele><time>2026-04-18T13:15:39.998Z</time></trkpt><trkpt lat="42.58555322008319" lon="13.64956997581488"><ele>284.0</ele><time>2026-04-18T13:15:40.998Z</time></trkpt><trkpt lat="42.58558813196217" lon="13.649728000410363"><ele>284.0</ele><time>2026-04-18T13:15:41.998Z</time></trkpt><trkpt lat="42.585624887004116" lon="13.64988084670642"><ele>283.5</ele><time>2026-04-18T13:15:42.998Z</time></trkpt><trkpt lat="42.585671528305426" lon="13.650030699139926"><ele>283.0</ele><time>2026-04-18T13:15:43.998Z</time></trkpt><trkpt lat="42.58573305039925" lon="13.650189287319487"><ele>282.5</ele><time>2026-04-18T13:15:44.998Z</time></trkpt><trkpt lat="42.585810557658945" lon="13.65033816838395"><ele>282.0</ele><time>2026-04-18T13:15:45.998Z</time></trkpt><trkpt lat="42.58590157272118" lon="13.650487784642628"><ele>282.25</ele><time>2026-04-18T13:15:46.998Z</time></trkpt><trkpt lat="42.586001548394734" lon="13.650629515635536"><ele>282.5</ele><time>2026-04-18T13:15:47.998Z</time></trkpt><trkpt lat="42.5861127373165" lon="13.650765725622888"><ele>282.75</ele><time>2026-04-18T13:15:48.998Z</time></trkpt><trkpt lat="42.58623451335972" lon="13.650891543112433"><ele>283.0</ele><time>2026-04-18T13:15:49.998Z</time></trkpt><trkpt lat="42.58636163884857" lon="13.651003197487675"><ele>283.0</ele><time>2026-04-18T13:15:50.998Z</time></trkpt><trkpt lat="42.5864938835622" lon="13.651098031575387"><ele>283.0</ele><time>2026-04-18T13:15:51.998Z</time></trkpt><trkpt lat="42.5866326931199" lon="13.65118181534023"><ele>283.0</ele><time>2026-04-18T13:15:52.998Z</time></trkpt><trkpt lat="42.58677455294445" lon="13.651240452814122"><ele>281.25</ele><time>2026-04-18T13:15:53.998Z</time></trkpt><trkpt lat="42.586920417139844" lon="13.651287863900679"><ele>279.5</ele><time>2026-04-18T13:15:54.998Z</time></trkpt><trkpt lat="42.587067241459316" lon="13.651321388153784"><ele>277.75</ele><time>2026-04-18T13:15:55.998Z</time></trkpt><trkpt lat="42.58721619650191" lon="13.65134137469704"><ele>276.0</ele><time>2026-04-18T13:15:56.998Z</time></trkpt><trkpt lat="42.58736503332216" lon="13.651340120442041"><ele>274.75</ele><time>2026-04-18T13:15:57.998Z</time></trkpt><trkpt lat="42.587512218931955" lon="13.65132013249659"><ele>273.5</ele><time>2026-04-18T13:15:58.998Z</time></trkpt><trkpt lat="42.58765913533243" lon="13.651284775883658"><ele>272.25</ele><time>2026-04-18T13:15:59.998Z</time></trkpt><trkpt lat="42.58780081941369" lon="13.651236436001332"><ele>271.0</ele><time>2026-04-18T13:16:00.998Z</time></trkpt><trkpt lat="42.58794309844191" lon="13.65117387540667"><ele>273.0</ele><time>2026-04-18T13:16:01.998Z</time></trkpt><trkpt lat="42.588080827548666" lon="13.651090667628159"><ele>275.0</ele><time>2026-04-18T13:16:02.998Z</time></trkpt><trkpt lat="42.588215315982715" lon="13.650996400005639"><ele>277.0</ele><time>2026-04-18T13:16:03.997Z</time></trkpt><trkpt lat="42.58834487089665" lon="13.650893731183954"><ele>277.0</ele><time>2026-04-18T13:16:04.997Z</time></trkpt><trkpt lat="42.588474606089946" lon="13.650786711219347"><ele>277.0</ele><time>2026-04-18T13:16:05.997Z</time></trkpt><trkpt lat="42.58860254067702" lon="13.650673797629395"><ele>277.0</ele><time>2026-04-18T13:16:06.997Z</time></trkpt><trkpt lat="42.58872964190249" lon="13.650559289105885"><ele>277.3333333333333</ele><time>2026-04-18T13:16:07.997Z</time></trkpt><trkpt lat="42.58885382449891" lon="13.65044295029823"><ele>277.6666666666667</ele><time>2026-04-18T13:16:08.997Z</time></trkpt><trkpt lat="42.58897965724622" lon="13.650327025294095"><ele>278.0</ele><time>2026-04-18T13:16:09.997Z</time></trkpt><trkpt lat="42.58910442905869" lon="13.6502171716004"><ele>278.0</ele><time>2026-04-18T13:16:10.997Z</time></trkpt><trkpt lat="42.589228979429734" lon="13.650105854501104"><ele>278.0</ele><time>2026-04-18T13:16:11.997Z</time></trkpt><trkpt lat="42.5893545917369" lon="13.649997295803836"><ele>278.0</ele><time>2026-04-18T13:16:12.997Z</time></trkpt><trkpt lat="42.58947932433982" lon="13.64989064042817"><ele>278.0</ele><time>2026-04-18T13:16:13.997Z</time></trkpt><trkpt lat="42.58960497344984" lon="13.649780805369058"><ele>279.25</ele><time>2026-04-18T13:16:14.997Z</time></trkpt><trkpt lat="42.589727208544254" lon="13.649676345624759"><ele>280.5</ele><time>2026-04-18T13:16:15.997Z</time></trkpt><trkpt lat="42.589855149916815" lon="13.6495781014797"><ele>281.75</ele><time>2026-04-18T13:16:16.997Z</time></trkpt><trkpt lat="42.589987692979115" lon="13.649494904181367"><ele>283.0</ele><time>2026-04-18T13:16:17.997Z</time></trkpt><trkpt lat="42.590121872323195" lon="13.649427598785156"><ele>283.75</ele><time>2026-04-18T13:16:18.997Z</time></trkpt><trkpt lat="42.59025701740721" lon="13.64936890969983"><ele>284.5</ele><time>2026-04-18T13:16:19.997Z</time></trkpt><trkpt lat="42.590394664767864" lon="13.649322039806579"><ele>285.25</ele><time>2026-04-18T13:16:20.997Z</time></trkpt><trkpt lat="42.59053298536454" lon="13.649291266006436"><ele>286.0</ele><time>2026-04-18T13:16:21.997Z</time></trkpt><trkpt lat="42.59067158520473" lon="13.649272072460995"><ele>286.5</ele><time>2026-04-18T13:16:23Z</time></trkpt><trkpt lat="42.590808317614375" lon="13.649254918733211"><ele>287.0</ele><time>2026-04-18T13:16:24Z</time></trkpt><trkpt lat="42.59094682582056" lon="13.64924872732203"><ele>287.5</ele><time>2026-04-18T13:16:25Z</time></trkpt><trkpt lat="42.591082360533434" lon="13.649262660044167"><ele>288.0</ele><time>2026-04-18T13:16:26Z</time></trkpt><trkpt lat="42.59121833401162" lon="13.64928974379071"><ele>289.25</ele><time>2026-04-18T13:16:27Z</time></trkpt><trkpt lat="42.59135298970169" lon="13.649328276047413"><ele>290.5</ele><time>2026-04-18T13:16:28Z</time></trkpt><trkpt lat="42.59148471309769" lon="13.649375883122053"><ele>291.75</ele><time>2026-04-18T13:16:29Z</time></trkpt><trkpt lat="42.591612864380004" lon="13.649430343633147"><ele>293.0</ele><time>2026-04-18T13:16:30Z</time></trkpt><trkpt lat="42.59174134150255" lon="13.649491550552835"><ele>294.5</ele><time>2026-04-18T13:16:31Z</time></trkpt><trkpt lat="42.591864715911576" lon="13.649562197182828"><ele>296.0</ele><time>2026-04-18T13:16:32Z</time></trkpt><trkpt lat="42.59198181214213" lon="13.649647335835864"><ele>297.5</ele><time>2026-04-18T13:16:33Z</time></trkpt><trkpt lat="42.59208821402594" lon="13.649750079039455"><ele>299.0</ele><time>2026-04-18T13:16:34Z</time></trkpt><trkpt lat="42.59218502494706" lon="13.649860524088963"><ele>299.59999999999997</ele><time>2026-04-18T13:16:35Z</time></trkpt><trkpt lat="42.59227141002036" lon="13.649978435080035"><ele>300.2</ele><time>2026-04-18T13:16:36Z</time></trkpt><trkpt lat="42.592333825849025" lon="13.650109614845821"><ele>300.79999999999995</ele><time>2026-04-18T13:16:37Z</time></trkpt><trkpt lat="42.59237489818521" lon="13.650243545800336"><ele>301.4</ele><time>2026-04-18T13:16:38Z</time></trkpt><trkpt lat="42.59241758669548" lon="13.650355339559077"><ele>302.0</ele><time>2026-04-18T13:16:39Z</time></trkpt><trkpt lat="42.59248750002295" lon="13.650438394446972"><ele>302.25</ele><time>2026-04-18T13:16:40Z</time></trkpt><trkpt lat="42.59259034012802" lon="13.650492704382206"><ele>302.5</ele><time>2026-04-18T13:16:41Z</time></trkpt><trkpt lat="42.59270679246625" lon="13.650538900114881"><ele>302.75</ele><time>2026-04-18T13:16:42Z</time></trkpt><trkpt lat="42.59282212474657" lon="13.650619871443263"><ele>303.0</ele><time>2026-04-18T13:16:43Z</time></trkpt><trkpt lat="42.59293747482155" lon="13.650736614500666"><ele>305.0</ele><time>2026-04-18T13:16:44Z</time></trkpt><trkpt lat="42.593050769313116" lon="13.650874693749092"><ele>307.0</ele><time>2026-04-18T13:16:45Z</time></trkpt><trkpt lat="42.593163695812315" lon="13.651028444492953"><ele>309.0</ele><time>2026-04-18T13:16:46Z</time></trkpt><trkpt lat="42.5932823885532" lon="13.651190014734887"><ele>309.0</ele><time>2026-04-18T13:16:47Z</time></trkpt><trkpt lat="42.59341003166219" lon="13.65134670656868"><ele>309.0</ele><time>2026-04-18T13:16:48Z</time></trkpt><trkpt lat="42.593542161609356" lon="13.651504115714921"><ele>309.0</ele><time>2026-04-18T13:16:49Z</time></trkpt><trkpt lat="42.59367016439219" lon="13.651660153877508"><ele>312.0</ele><time>2026-04-18T13:16:50Z</time></trkpt><trkpt lat="42.59379264335172" lon="13.651811655494704"><ele>315.0</ele><time>2026-04-18T13:16:51Z</time></trkpt><trkpt lat="42.59391717484174" lon="13.651965385198558"><ele>318.0</ele><time>2026-04-18T13:16:52Z</time></trkpt><trkpt lat="42.594045662766355" lon="13.652115867811517"><ele>318.0</ele><time>2026-04-18T13:16:52.999Z</time></trkpt><trkpt lat="42.594177772814696" lon="13.652262287406696"><ele>318.0</ele><time>2026-04-18T13:16:53.999Z</time></trkpt><trkpt lat="42.59431673149298" lon="13.652408737149388"><ele>318.0</ele><time>2026-04-18T13:16:54.999Z</time></trkpt><trkpt lat="42.594462850591626" lon="13.652548091794042"><ele>319.6666666666667</ele><time>2026-04-18T13:16:55.999Z</time></trkpt><trkpt lat="42.594615794194134" lon="13.652673397397798"><ele>321.33333333333337</ele><time>2026-04-18T13:16:56.999Z</time></trkpt><trkpt lat="42.59477147677297" lon="13.652787889366344"><ele>323.0</ele><time>2026-04-18T13:16:57.999Z</time></trkpt><trkpt lat="42.594929477025666" lon="13.65289752614521"><ele>323.0</ele><time>2026-04-18T13:16:58.999Z</time></trkpt><trkpt lat="42.595089595989634" lon="13.65299806974814"><ele>323.0</ele><time>2026-04-18T13:16:59.999Z</time></trkpt><trkpt lat="42.59525210340183" lon="13.65309425017136"><ele>323.0</ele><time>2026-04-18T13:17:00.999Z</time></trkpt><trkpt lat="42.59541248480468" lon="13.653190956171882"><ele>325.6666666666667</ele><time>2026-04-18T13:17:01.999Z</time></trkpt><trkpt lat="42.59557036863986" lon="13.653287012356303"><ele>328.3333333333333</ele><time>2026-04-18T13:17:02.999Z</time></trkpt><trkpt lat="42.59572699310756" lon="13.653380312580447"><ele>331.0</ele><time>2026-04-18T13:17:03.999Z</time></trkpt><trkpt lat="42.595880953001995" lon="13.653468303945104"><ele>331.0</ele><time>2026-04-18T13:17:04.999Z</time></trkpt><trkpt lat="42.5960369611979" lon="13.653560507452015"><ele>331.0</ele><time>2026-04-18T13:17:05.999Z</time></trkpt><trkpt lat="42.59619453718907" lon="13.653652826980485"><ele>331.0</ele><time>2026-04-18T13:17:06.999Z</time></trkpt><trkpt lat="42.59635156343747" lon="13.653740624802412"><ele>332.3333333333333</ele><time>2026-04-18T13:17:07.999Z</time></trkpt><trkpt lat="42.59651080417389" lon="13.653824126867427"><ele>333.6666666666667</ele><time>2026-04-18T13:17:08.999Z</time></trkpt><trkpt lat="42.59667619963514" lon="13.653898255910084"><ele>335.0</ele><time>2026-04-18T13:17:09.999Z</time></trkpt><trkpt lat="42.59684370595812" lon="13.653957524433002"><ele>336.33333333333337</ele><time>2026-04-18T13:17:10.999Z</time></trkpt><trkpt lat="42.59701185593209" lon="13.654001040570805"><ele>337.6666666666667</ele><time>2026-04-18T13:17:11.999Z</time></trkpt><trkpt lat="42.59718105756272" lon="13.654040769147747"><ele>339.0</ele><time>2026-04-18T13:17:12.999Z</time></trkpt><trkpt lat="42.597352814984085" lon="13.65407890598781"><ele>339.0</ele><time>2026-04-18T13:17:13.999Z</time></trkpt><trkpt lat="42.59752629405361" lon="13.6541139835493"><ele>339.0</ele><time>2026-04-18T13:17:14.999Z</time></trkpt><trkpt lat="42.59769605209273" lon="13.654148136115653"><ele>339.0</ele><time>2026-04-18T13:17:15.999Z</time></trkpt><trkpt lat="42.59786278721194" lon="13.654182972823628"><ele>341.5</ele><time>2026-04-18T13:17:16.999Z</time></trkpt><trkpt lat="42.59802519473656" lon="13.654220048160754"><ele>344.0</ele><time>2026-04-18T13:17:17.999Z</time></trkpt><trkpt lat="42.59817032389699" lon="13.654252799003876"><ele>346.5</ele><time>2026-04-18T13:17:18.999Z</time></trkpt><trkpt lat="42.598303947234236" lon="13.654291863029828"><ele>349.0</ele><time>2026-04-18T13:17:19.999Z</time></trkpt><trkpt lat="42.598425910722554" lon="13.654346215102038"><ele>349.0</ele><time>2026-04-18T13:17:20.999Z</time></trkpt><trkpt lat="42.59852632349613" lon="13.654428669279516"><ele>349.0</ele><time>2026-04-18T13:17:21.999Z</time></trkpt><trkpt lat="42.59863078943637" lon="13.65446656572041"><ele>349.0</ele><time>2026-04-18T13:17:22.999Z</time></trkpt><trkpt lat="42.59872857616235" lon="13.654435118323548"><ele>349.0</ele><time>2026-04-18T13:17:23.999Z</time></trkpt><trkpt lat="42.598847101888" lon="13.654381512387179"><ele>352.3333333333333</ele><time>2026-04-18T13:17:24.999Z</time></trkpt><trkpt lat="42.59898593111643" lon="13.654370999590721"><ele>355.6666666666667</ele><time>2026-04-18T13:17:25.999Z</time></trkpt><trkpt lat="42.59913533539071" lon="13.65437431505571"><ele>359.0</ele><time>2026-04-18T13:17:26.999Z</time></trkpt><trkpt lat="42.59929828405092" lon="13.654358260612593"><ele>359.0</ele><time>2026-04-18T13:17:27.999Z</time></trkpt><trkpt lat="42.59946320690906" lon="13.65433074941763"><ele>359.0</ele><time>2026-04-18T13:17:28.999Z</time></trkpt><trkpt lat="42.599627978142685" lon="13.654321302490722"><ele>359.0</ele><time>2026-04-18T13:17:29.999Z</time></trkpt><trkpt lat="42.599794352969965" lon="13.654280498234932"><ele>360.0</ele><time>2026-04-18T13:17:30.999Z</time></trkpt><trkpt lat="42.599960510105355" lon="13.654228365597179"><ele>361.0</ele><time>2026-04-18T13:17:31.999Z</time></trkpt><trkpt lat="42.60012089440124" lon="13.654172787515915"><ele>362.0</ele><time>2026-04-18T13:17:32.998Z</time></trkpt><trkpt lat="42.600268227426476" lon="13.65412074419906"><ele>361.75</ele><time>2026-04-18T13:17:33.998Z</time></trkpt><trkpt lat="42.60041114635864" lon="13.654073479700301"><ele>361.5</ele><time>2026-04-18T13:17:34.998Z</time></trkpt><trkpt lat="42.60055521173687" lon="13.654027041957159"><ele>361.25</ele><time>2026-04-18T13:17:35.998Z</time></trkpt><trkpt lat="42.600698472510246" lon="13.653982646249721"><ele>361.0</ele><time>2026-04-18T13:17:36.998Z</time></trkpt><trkpt lat="42.60084610738638" lon="13.653941499497996"><ele>361.0</ele><time>2026-04-18T13:17:37.998Z</time></trkpt><trkpt lat="42.60099962066118" lon="13.65390753489706"><ele>361.0</ele><time>2026-04-18T13:17:38.998Z</time></trkpt><trkpt lat="42.60115556592457" lon="13.653861804840044"><ele>361.0</ele><time>2026-04-18T13:17:39.998Z</time></trkpt><trkpt lat="42.601312885864154" lon="13.653843192780256"><ele>362.0</ele><time>2026-04-18T13:17:40.998Z</time></trkpt><trkpt lat="42.60147128465546" lon="13.653828738182524"><ele>363.0</ele><time>2026-04-18T13:17:41.998Z</time></trkpt><trkpt lat="42.60162590159709" lon="13.653821702227622"><ele>364.0</ele><time>2026-04-18T13:17:42.998Z</time></trkpt><trkpt lat="42.6017796409958" lon="13.653823633778803"><ele>364.0</ele><time>2026-04-18T13:17:43.998Z</time></trkpt><trkpt lat="42.60193681350503" lon="13.65383611149781"><ele>364.0</ele><time>2026-04-18T13:17:44.998Z</time></trkpt><trkpt lat="42.60209452849802" lon="13.653858977061574"><ele>364.0</ele><time>2026-04-18T13:17:45.998Z</time></trkpt><trkpt lat="42.602255142401106" lon="13.653888599637993"><ele>365.3333333333333</ele><time>2026-04-18T13:17:46.998Z</time></trkpt><trkpt lat="42.602418040661505" lon="13.653923659652976"><ele>366.6666666666667</ele><time>2026-04-18T13:17:47.998Z</time></trkpt><trkpt lat="42.60258570445894" lon="13.653962578336044"><ele>368.0</ele><time>2026-04-18T13:17:48.998Z</time></trkpt><trkpt lat="42.60275653560868" lon="13.654036179312135"><ele>369.33333333333337</ele><time>2026-04-18T13:17:49.998Z</time></trkpt><trkpt lat="42.60293700781742" lon="13.65410284333984"><ele>370.6666666666667</ele><time>2026-04-18T13:17:50.998Z</time></trkpt><trkpt lat="42.6031239272675" lon="13.654162308579789"><ele>372.0</ele><time>2026-04-18T13:17:51.998Z</time></trkpt><trkpt lat="42.60330958202239" lon="13.65425794322909"><ele>372.0</ele><time>2026-04-18T13:17:52.998Z</time></trkpt><trkpt lat="42.60349901460176" lon="13.654357673622563"><ele>372.0</ele><time>2026-04-18T13:17:53.998Z</time></trkpt><trkpt lat="42.60368303726273" lon="13.654444573214509"><ele>372.0</ele><time>2026-04-18T13:17:54.998Z</time></trkpt><trkpt lat="42.60385283976044" lon="13.65452184735629"><ele>370.0</ele><time>2026-04-18T13:17:55.998Z</time></trkpt><trkpt lat="42.60401074542048" lon="13.654592003963744"><ele>368.0</ele><time>2026-04-18T13:17:56.998Z</time></trkpt><trkpt lat="42.60416274394293" lon="13.654664570232045"><ele>366.0</ele><time>2026-04-18T13:17:57.998Z</time></trkpt><trkpt lat="42.604313934407934" lon="13.654734990982133"><ele>366.0</ele><time>2026-04-18T13:17:58.998Z</time></trkpt><trkpt lat="42.60446511702723" lon="13.654803215019212"><ele>366.0</ele><time>2026-04-18T13:17:59.998Z</time></trkpt><trkpt lat="42.604619424773915" lon="13.654877613557419"><ele>366.0</ele><time>2026-04-18T13:18:00.998Z</time></trkpt><trkpt lat="42.60477487120243" lon="13.654958027013876"><ele>367.3333333333333</ele><time>2026-04-18T13:18:01.998Z</time></trkpt><trkpt lat="42.60493072419154" lon="13.6550331706263"><ele>368.66666666666663</ele><time>2026-04-18T13:18:02.998Z</time></trkpt><trkpt lat="42.6050834724452" lon="13.6551032245551"><ele>370.0</ele><time>2026-04-18T13:18:03.998Z</time></trkpt><trkpt lat="42.60523656561418" lon="13.655173730729606"><ele>373.66666666666663</ele><time>2026-04-18T13:18:04.998Z</time></trkpt><trkpt lat="42.60539086019526" lon="13.655237315445095"><ele>377.3333333333333</ele><time>2026-04-18T13:18:05.998Z</time></trkpt><trkpt lat="42.60554869349064" lon="13.65528730781519"><ele>381.0</ele><time>2026-04-18T13:18:06.998Z</time></trkpt><trkpt lat="42.60571004528286" lon="13.655316576763434"><ele>374.6666666666667</ele><time>2026-04-18T13:18:07.998Z</time></trkpt><trkpt lat="42.605870115780704" lon="13.655323802803403"><ele>368.33333333333337</ele><time>2026-04-18T13:18:08.998Z</time></trkpt><trkpt lat="42.60603400889223" lon="13.655310886830886"><ele>362.0</ele><time>2026-04-18T13:18:09.998Z</time></trkpt><trkpt lat="42.60620301008194" lon="13.655279004323694"><ele>362.0</ele><time>2026-04-18T13:18:10.998Z</time></trkpt><trkpt lat="42.6063652551881" lon="13.655221597281766"><ele>362.0</ele><time>2026-04-18T13:18:11.998Z</time></trkpt><trkpt lat="42.6065269428971" lon="13.655145437216454"><ele>362.0</ele><time>2026-04-18T13:18:12.997Z</time></trkpt><trkpt lat="42.60668269776813" lon="13.655050697074861"><ele>362.0</ele><time>2026-04-18T13:18:13.997Z</time></trkpt><trkpt lat="42.60683533261647" lon="13.654935986874959"><ele>362.0</ele><time>2026-04-18T13:18:14.997Z</time></trkpt><trkpt lat="42.60698521673399" lon="13.654803062597724"><ele>362.0</ele><time>2026-04-18T13:18:15.997Z</time></trkpt><trkpt lat="42.60712370289208" lon="13.654651833697413"><ele>358.6666666666667</ele><time>2026-04-18T13:18:16.997Z</time></trkpt><trkpt lat="42.607252980553874" lon="13.654474112851817"><ele>355.3333333333333</ele><time>2026-04-18T13:18:17.997Z</time></trkpt><trkpt lat="42.60738105342789" lon="13.654289952000166"><ele>352.0</ele><time>2026-04-18T13:18:18.997Z</time></trkpt><trkpt lat="42.6075110459336" lon="13.654110653845626"><ele>352.0</ele><time>2026-04-18T13:18:19.997Z</time></trkpt><trkpt lat="42.60764337287158" lon="13.653935233781135"><ele>352.0</ele><time>2026-04-18T13:18:20.997Z</time></trkpt><trkpt lat="42.607776957954755" lon="13.653755144570557"><ele>352.0</ele><time>2026-04-18T13:18:21.997Z</time></trkpt><trkpt lat="42.60791032041179" lon="13.653572815498906"><ele>351.3333333333333</ele><time>2026-04-18T13:18:22.997Z</time></trkpt><trkpt lat="42.60804389397993" lon="13.65338951533937"><ele>350.6666666666667</ele><time>2026-04-18T13:18:23.997Z</time></trkpt><trkpt lat="42.60817149490967" lon="13.653211821022632"><ele>350.0</ele><time>2026-04-18T13:18:24.997Z</time></trkpt><trkpt lat="42.60830407340436" lon="13.653033144675051"><ele>350.0</ele><time>2026-04-18T13:18:25.997Z</time></trkpt><trkpt lat="42.60844054943618" lon="13.65284766876111"><ele>350.0</ele><time>2026-04-18T13:18:26.997Z</time></trkpt><trkpt lat="42.608575856264835" lon="13.652663598490237"><ele>350.0</ele><time>2026-04-18T13:18:28Z</time></trkpt><trkpt lat="42.60871125235274" lon="13.652477434169809"><ele>349.33333333333337</ele><time>2026-04-18T13:18:29Z</time></trkpt><trkpt lat="42.60884615337075" lon="13.652292989432615"><ele>348.6666666666667</ele><time>2026-04-18T13:18:30Z</time></trkpt><trkpt lat="42.60897683313646" lon="13.652113405345943"><ele>348.0</ele><time>2026-04-18T13:18:31Z</time></trkpt><trkpt lat="42.609107779253556" lon="13.651936385657677"><ele>350.3333333333333</ele><time>2026-04-18T13:18:32Z</time></trkpt><trkpt lat="42.60923910858373" lon="13.651756176140246"><ele>352.66666666666663</ele><time>2026-04-18T13:18:33Z</time></trkpt><trkpt lat="42.60936776409533" lon="13.651578236705168"><ele>355.0</ele><time>2026-04-18T13:18:34Z</time></trkpt><trkpt lat="42.6094948282506" lon="13.651405152137439"><ele>355.0</ele><time>2026-04-18T13:18:35Z</time></trkpt><trkpt lat="42.6096248305755" lon="13.651231435859668"><ele>355.0</ele><time>2026-04-18T13:18:36Z</time></trkpt><trkpt lat="42.60974984313439" lon="13.651057498833119"><ele>355.0</ele><time>2026-04-18T13:18:37Z</time></trkpt><trkpt lat="42.609876291868936" lon="13.650884776908585"><ele>359.66666666666663</ele><time>2026-04-18T13:18:38Z</time></trkpt><trkpt lat="42.610005202711044" lon="13.650712810884604"><ele>364.3333333333333</ele><time>2026-04-18T13:18:39Z</time></trkpt><trkpt lat="42.61013198828827" lon="13.650540246008141"><ele>369.0</ele><time>2026-04-18T13:18:40Z</time></trkpt><trkpt lat="42.610258200700464" lon="13.650368843332298"><ele>368.3333333333333</ele><time>2026-04-18T13:18:41Z</time></trkpt><trkpt lat="42.61038444367306" lon="13.650200333924616"><ele>367.66666666666663</ele><time>2026-04-18T13:18:42Z</time></trkpt><trkpt lat="42.61050982387813" lon="13.650025388180829"><ele>367.0</ele><time>2026-04-18T13:18:43Z</time></trkpt><trkpt lat="42.610639002377326" lon="13.649850295618634"><ele>367.0</ele><time>2026-04-18T13:18:44Z</time></trkpt><trkpt lat="42.61076509609655" lon="13.649680217810182"><ele>367.0</ele><time>2026-04-18T13:18:45Z</time></trkpt><trkpt lat="42.61088944041991" lon="13.649513094265314"><ele>367.0</ele><time>2026-04-18T13:18:46Z</time></trkpt><trkpt lat="42.611014234963264" lon="13.649341991661652"><ele>365.3333333333333</ele><time>2026-04-18T13:18:47Z</time></trkpt><trkpt lat="42.61113875923845" lon="13.649173527932348"><ele>363.6666666666667</ele><time>2026-04-18T13:18:48Z</time></trkpt><trkpt lat="42.611263027520174" lon="13.649004480045052"><ele>362.0</ele><time>2026-04-18T13:18:49Z</time></trkpt><trkpt lat="42.61139176252108" lon="13.64883653569639"><ele>358.33333333333337</ele><time>2026-04-18T13:18:50Z</time></trkpt><trkpt lat="42.61151726508056" lon="13.648668849476243"><ele>354.6666666666667</ele><time>2026-04-18T13:18:51Z</time></trkpt><trkpt lat="42.61164461559647" lon="13.648498966177595"><ele>351.0</ele><time>2026-04-18T13:18:52Z</time></trkpt><trkpt lat="42.61176927087539" lon="13.648332274799166"><ele>350.3333333333333</ele><time>2026-04-18T13:18:53Z</time></trkpt><trkpt lat="42.61189638537163" lon="13.648167834014453"><ele>349.66666666666663</ele><time>2026-04-18T13:18:54Z</time></trkpt><trkpt lat="42.6120247679364" lon="13.648003109376496"><ele>349.0</ele><time>2026-04-18T13:18:55Z</time></trkpt><trkpt lat="42.61215411068095" lon="13.647839217982842"><ele>350.25</ele><time>2026-04-18T13:18:56Z</time></trkpt><trkpt lat="42.61220604621773" lon="13.64772958594664"><ele>351.5</ele><time>2026-04-18T13:18:57Z</time></trkpt><trkpt lat="42.612311601198485" lon="13.647590708448105"><ele>352.75</ele><time>2026-04-18T13:18:58Z</time></trkpt><trkpt lat="42.612409855512006" lon="13.647458305750135"><ele>354.0</ele><time>2026-04-18T13:18:59Z</time></trkpt><trkpt lat="42.61250142213892" lon="13.6473324228366"><ele>354.0</ele><time>2026-04-18T13:19:00Z</time></trkpt><trkpt lat="42.61259001404686" lon="13.647211092015779"><ele>354.0</ele><time>2026-04-18T13:19:00.999Z</time></trkpt><trkpt lat="42.61267353813031" lon="13.647095540452128"><ele>354.0</ele><time>2026-04-18T13:19:01.999Z</time></trkpt><trkpt lat="42.61274543711942" lon="13.646977650511165"><ele>354.0</ele><time>2026-04-18T13:19:02.999Z</time></trkpt><trkpt lat="42.61282120314933" lon="13.646869707460196"><ele>354.75</ele><time>2026-04-18T13:19:03.999Z</time></trkpt><trkpt lat="42.612892749249994" lon="13.646754212326812"><ele>355.5</ele><time>2026-04-18T13:19:04.999Z</time></trkpt><trkpt lat="42.612978988387866" lon="13.646624888488072"><ele>356.25</ele><time>2026-04-18T13:19:05.999Z</time></trkpt><trkpt lat="42.61309418453103" lon="13.646509455684996"><ele>357.0</ele><time>2026-04-18T13:19:06.999Z</time></trkpt><trkpt lat="42.613223562684254" lon="13.646387111435885"><ele>357.0</ele><time>2026-04-18T13:19:07.999Z</time></trkpt><trkpt lat="42.613377625048905" lon="13.646295387263354"><ele>357.0</ele><time>2026-04-18T13:19:08.999Z</time></trkpt><trkpt lat="42.613548776025844" lon="13.646223888180005"><ele>357.0</ele><time>2026-04-18T13:19:09.999Z</time></trkpt><trkpt lat="42.613717781208976" lon="13.646147074944654"><ele>358.3333333333333</ele><time>2026-04-18T13:19:10.999Z</time></trkpt><trkpt lat="42.61387919352496" lon="13.646076702889356"><ele>359.66666666666663</ele><time>2026-04-18T13:19:11.999Z</time></trkpt><trkpt lat="42.61403788845409" lon="13.646030430733553"><ele>361.0</ele><time>2026-04-18T13:19:12.999Z</time></trkpt><trkpt lat="42.614194901102515" lon="13.645999999144479"><ele>361.0</ele><time>2026-04-18T13:19:13.999Z</time></trkpt><trkpt lat="42.61434468686873" lon="13.645972648441859"><ele>361.0</ele><time>2026-04-18T13:19:14.999Z</time></trkpt><trkpt lat="42.614492840175345" lon="13.645940274498226"><ele>361.0</ele><time>2026-04-18T13:19:15.999Z</time></trkpt><trkpt lat="42.61463706551738" lon="13.645905570481547"><ele>361.0</ele><time>2026-04-18T13:19:16.999Z</time></trkpt><trkpt lat="42.61477798887243" lon="13.64587246552139"><ele>360.66666666666663</ele><time>2026-04-18T13:19:17.999Z</time></trkpt><trkpt lat="42.614926961556975" lon="13.645838038918928"><ele>360.3333333333333</ele><time>2026-04-18T13:19:18.999Z</time></trkpt><trkpt lat="42.61507459005432" lon="13.645803133603396"><ele>360.0</ele><time>2026-04-18T13:19:19.999Z</time></trkpt><trkpt lat="42.61522232827736" lon="13.645767514857353"><ele>364.0</ele><time>2026-04-18T13:19:20.999Z</time></trkpt><trkpt lat="42.61537406872817" lon="13.645735882499768"><ele>368.0</ele><time>2026-04-18T13:19:21.999Z</time></trkpt><trkpt lat="42.615525530544296" lon="13.64570861394965"><ele>372.0</ele><time>2026-04-18T13:19:22.999Z</time></trkpt><trkpt lat="42.61568089953316" lon="13.645689139329498"><ele>372.0</ele><time>2026-04-18T13:19:23.999Z</time></trkpt><trkpt lat="42.61583760838421" lon="13.645683777262755"><ele>372.0</ele><time>2026-04-18T13:19:24.999Z</time></trkpt><trkpt lat="42.61599675531724" lon="13.645691062018829"><ele>372.0</ele><time>2026-04-18T13:19:25.999Z</time></trkpt><trkpt lat="42.61615760348552" lon="13.645712232479072"><ele>374.6666666666667</ele><time>2026-04-18T13:19:26.999Z</time></trkpt><trkpt lat="42.61631768360144" lon="13.645745727749096"><ele>377.33333333333337</ele><time>2026-04-18T13:19:27.999Z</time></trkpt><trkpt lat="42.61648192446999" lon="13.64578853095386"><ele>380.0</ele><time>2026-04-18T13:19:28.999Z</time></trkpt><trkpt lat="42.61664772909584" lon="13.645839308281817"><ele>380.0</ele><time>2026-04-18T13:19:29.999Z</time></trkpt><trkpt lat="42.616815644154514" lon="13.645888730296623"><ele>380.0</ele><time>2026-04-18T13:19:30.999Z</time></trkpt><trkpt lat="42.616984788713225" lon="13.645932560373893"><ele>380.0</ele><time>2026-04-18T13:19:31.999Z</time></trkpt><trkpt lat="42.61715647996258" lon="13.645975934054503"><ele>384.33333333333337</ele><time>2026-04-18T13:19:32.999Z</time></trkpt><trkpt lat="42.61732761875383" lon="13.646012046860978"><ele>388.6666666666667</ele><time>2026-04-18T13:19:33.999Z</time></trkpt><trkpt lat="42.617497461257045" lon="13.646046241388252"><ele>393.0</ele><time>2026-04-18T13:19:34.999Z</time></trkpt><trkpt lat="42.61766523468634" lon="13.64608311060069"><ele>392.0</ele><time>2026-04-18T13:19:35.999Z</time></trkpt><trkpt lat="42.61783478912307" lon="13.646122781037922"><ele>391.0</ele><time>2026-04-18T13:19:36.999Z</time></trkpt><trkpt lat="42.61800069998468" lon="13.646160451512063"><ele>390.0</ele><time>2026-04-18T13:19:37.999Z</time></trkpt><trkpt lat="42.61816810176125" lon="13.646195316450966"><ele>390.0</ele><time>2026-04-18T13:19:38.999Z</time></trkpt><trkpt lat="42.6183346325642" lon="13.64622441617654"><ele>390.0</ele><time>2026-04-18T13:19:39.999Z</time></trkpt><trkpt lat="42.61850418979538" lon="13.646260361118468"><ele>390.0</ele><time>2026-04-18T13:19:40.999Z</time></trkpt><trkpt lat="42.618673182676886" lon="13.64629510977475"><ele>392.0</ele><time>2026-04-18T13:19:41.998Z</time></trkpt><trkpt lat="42.61884119220754" lon="13.646333662707814"><ele>394.0</ele><time>2026-04-18T13:19:42.998Z</time></trkpt><trkpt lat="42.619013489954206" lon="13.646372469174953"><ele>396.0</ele><time>2026-04-18T13:19:43.998Z</time></trkpt><trkpt lat="42.61918125671768" lon="13.646409622623548"><ele>396.0</ele><time>2026-04-18T13:19:44.998Z</time></trkpt><trkpt lat="42.61935301686035" lon="13.6464469476891"><ele>396.0</ele><time>2026-04-18T13:19:45.998Z</time></trkpt><trkpt lat="42.619526471417494" lon="13.646486390932136"><ele>396.0</ele><time>2026-04-18T13:19:46.998Z</time></trkpt><trkpt lat="42.61969502708546" lon="13.646525907338006"><ele>399.66666666666663</ele><time>2026-04-18T13:19:47.998Z</time></trkpt><trkpt lat="42.6198609726959" lon="13.6465711788299"><ele>403.3333333333333</ele><time>2026-04-18T13:19:48.998Z</time></trkpt><trkpt lat="42.62001828883625" lon="13.646649087014222"><ele>407.0</ele><time>2026-04-18T13:19:49.998Z</time></trkpt><trkpt lat="42.62017091146006" lon="13.646730775830608"><ele>407.0</ele><time>2026-04-18T13:19:50.998Z</time></trkpt><trkpt lat="42.62031520583875" lon="13.646820576328864"><ele>407.0</ele><time>2026-04-18T13:19:51.998Z</time></trkpt><trkpt lat="42.620454878547804" lon="13.646912334949327"><ele>407.0</ele><time>2026-04-18T13:19:52.998Z</time></trkpt><trkpt lat="42.620603110201365" lon="13.647012244913554"><ele>416.0</ele><time>2026-04-18T13:19:54.05Z</time></trkpt><trkpt lat="42.6207445315963" lon="13.647107528630936"><ele>425.0</ele><time>2026-04-18T13:19:55.048Z</time></trkpt><trkpt lat="42.62176219857975" lon="13.647739970620691"><ele>418.0</ele><time>2026-04-18T13:19:58.148Z</time></trkpt><trkpt lat="42.62208014449527" lon="13.647969916725707"><ele>411.0</ele><time>2026-04-18T13:19:59.148Z</time></trkpt><trkpt lat="42.62241258329086" lon="13.648158654950732"><ele>411.0</ele><time>2026-04-18T13:20:00.148Z</time></trkpt><trkpt lat="42.6227372926415" lon="13.648369344356642"><ele>411.0</ele><time>2026-04-18T13:20:01.148Z</time></trkpt><trkpt lat="42.62366444005101" lon="13.648964184094435"><ele>400.0</ele><time>2026-04-18T13:20:11.998Z</time></trkpt><trkpt lat="42.62382260070991" lon="13.649066505700558"><ele>389.0</ele><time>2026-04-18T13:20:12.998Z</time></trkpt><trkpt lat="42.62399369383399" lon="13.649185044684236"><ele>378.0</ele><time>2026-04-18T13:20:13.998Z</time></trkpt><trkpt lat="42.62413434141727" lon="13.649279368418528"><ele>378.0</ele><time>2026-04-18T13:20:14.998Z</time></trkpt><trkpt lat="42.62426510884774" lon="13.649378116631043"><ele>378.0</ele><time>2026-04-18T13:20:15.998Z</time></trkpt><trkpt lat="42.62439230743013" lon="13.64947295776511"><ele>378.0</ele><time>2026-04-18T13:20:16.998Z</time></trkpt><trkpt lat="42.62453388671415" lon="13.649558796475391"><ele>376.0</ele><time>2026-04-18T13:20:17.998Z</time></trkpt><trkpt lat="42.624685424695244" lon="13.649646818402395"><ele>374.0</ele><time>2026-04-18T13:20:18.998Z</time></trkpt><trkpt lat="42.62483764418736" lon="13.649740441560754"><ele>372.0</ele><time>2026-04-18T13:20:19.998Z</time></trkpt><trkpt lat="42.62498804701517" lon="13.649835235893807"><ele>372.0</ele><time>2026-04-18T13:20:20.998Z</time></trkpt><trkpt lat="42.62513511396666" lon="13.649927206001474"><ele>372.0</ele><time>2026-04-18T13:20:21.998Z</time></trkpt><trkpt lat="42.625279990881886" lon="13.650024706212855"><ele>372.0</ele><time>2026-04-18T13:20:22.997Z</time></trkpt><trkpt lat="42.62541264878433" lon="13.650115220200556"><ele>371.0</ele><time>2026-04-18T13:20:23.997Z</time></trkpt><trkpt lat="42.625538165031195" lon="13.650212165459111"><ele>370.0</ele><time>2026-04-18T13:20:24.997Z</time></trkpt><trkpt lat="42.62564522066236" lon="13.650317957984763"><ele>369.0</ele><time>2026-04-18T13:20:25.997Z</time></trkpt><trkpt lat="42.62573336684647" lon="13.65041958292041"><ele>368.0</ele><time>2026-04-18T13:20:26.997Z</time></trkpt><trkpt lat="42.62580926475154" lon="13.650524041122036"><ele>368.0</ele><time>2026-04-18T13:20:27.997Z</time></trkpt><trkpt lat="42.62586874913569" lon="13.650627856165546"><ele>368.0</ele><time>2026-04-18T13:20:28.997Z</time></trkpt><trkpt lat="42.62591157803762" lon="13.650737022044215"><ele>368.0</ele><time>2026-04-18T13:20:29.997Z</time></trkpt><trkpt lat="42.625931562624245" lon="13.650847466677096"><ele>368.0</ele><time>2026-04-18T13:20:30.997Z</time></trkpt><trkpt lat="42.62591915754776" lon="13.650962193999721"><ele>368.0</ele><time>2026-04-18T13:20:31.997Z</time></trkpt><trkpt lat="42.62587770631456" lon="13.651072893971508"><ele>368.0</ele><time>2026-04-18T13:20:33Z</time></trkpt><trkpt lat="42.62584983628996" lon="13.651181838316942"><ele>368.4</ele><time>2026-04-18T13:20:34Z</time></trkpt><trkpt lat="42.62587218995642" lon="13.65129827918536"><ele>368.79999999999995</ele><time>2026-04-18T13:20:35Z</time></trkpt><trkpt lat="42.6259450224918" lon="13.651383597443035"><ele>369.2</ele><time>2026-04-18T13:20:36Z</time></trkpt><trkpt lat="42.626047908796764" lon="13.651427717624555"><ele>369.6</ele><time>2026-04-18T13:20:37Z</time></trkpt><trkpt lat="42.626149136118464" lon="13.651477690477595"><ele>370.0</ele><time>2026-04-18T13:20:38Z</time></trkpt><trkpt lat="42.626231745667745" lon="13.651586325814412"><ele>366.5</ele><time>2026-04-18T13:20:39Z</time></trkpt><trkpt lat="42.62629138107711" lon="13.651737742372141"><ele>363.0</ele><time>2026-04-18T13:20:40Z</time></trkpt><trkpt lat="42.62629463510757" lon="13.651934329285607"><ele>359.5</ele><time>2026-04-18T13:20:41Z</time></trkpt><trkpt lat="42.62633283357565" lon="13.65214105276695"><ele>356.0</ele><time>2026-04-18T13:20:42Z</time></trkpt><trkpt lat="42.62637258683317" lon="13.652341580271123"><ele>356.0</ele><time>2026-04-18T13:20:43Z</time></trkpt><trkpt lat="42.626414695326424" lon="13.652548529384305"><ele>356.0</ele><time>2026-04-18T13:20:44Z</time></trkpt><trkpt lat="42.62646505026637" lon="13.652763554183958"><ele>356.0</ele><time>2026-04-18T13:20:45Z</time></trkpt><trkpt lat="42.62652793406174" lon="13.65298604917004"><ele>356.0</ele><time>2026-04-18T13:20:46Z</time></trkpt><trkpt lat="42.62659615824165" lon="13.653202637435811"><ele>356.0</ele><time>2026-04-18T13:20:47Z</time></trkpt><trkpt lat="42.62664777316572" lon="13.65342689433845"><ele>356.0</ele><time>2026-04-18T13:20:48Z</time></trkpt><trkpt lat="42.62671176353288" lon="13.653653756750852"><ele>355.6666666666667</ele><time>2026-04-18T13:20:49Z</time></trkpt><trkpt lat="42.626787432658084" lon="13.653878429562342"><ele>355.3333333333333</ele><time>2026-04-18T13:20:50Z</time></trkpt><trkpt lat="42.62686588220527" lon="13.65410713153223"><ele>355.0</ele><time>2026-04-18T13:20:51Z</time></trkpt><trkpt lat="42.62694710964415" lon="13.654336387798534"><ele>350.3333333333333</ele><time>2026-04-18T13:20:52Z</time></trkpt><trkpt lat="42.62702866964633" lon="13.654561624745263"><ele>345.6666666666667</ele><time>2026-04-18T13:20:53Z</time></trkpt><trkpt lat="42.62711451307408" lon="13.654789987742273"><ele>341.0</ele><time>2026-04-18T13:20:54Z</time></trkpt><trkpt lat="42.62719349029771" lon="13.655022383113803"><ele>341.0</ele><time>2026-04-18T13:20:55Z</time></trkpt><trkpt lat="42.62726511504469" lon="13.655254502847079"><ele>341.0</ele><time>2026-04-18T13:20:56Z</time></trkpt><trkpt lat="42.62733832068727" lon="13.655476633591888"><ele>341.0</ele><time>2026-04-18T13:20:57Z</time></trkpt><trkpt lat="42.62742210441437" lon="13.655699308505051"><ele>341.0</ele><time>2026-04-18T13:20:58Z</time></trkpt><trkpt lat="42.62751306365908" lon="13.655911124277111"><ele>341.0</ele><time>2026-04-18T13:20:59Z</time></trkpt><trkpt lat="42.627612742275545" lon="13.656114010940488"><ele>341.0</ele><time>2026-04-18T13:21:00Z</time></trkpt><trkpt lat="42.62771722500062" lon="13.65631085628107"><ele>339.6666666666667</ele><time>2026-04-18T13:21:01Z</time></trkpt><trkpt lat="42.62782440961984" lon="13.65649632687111"><ele>338.3333333333333</ele><time>2026-04-18T13:21:02Z</time></trkpt><trkpt lat="42.6279363173137" lon="13.656678081409733"><ele>337.0</ele><time>2026-04-18T13:21:03Z</time></trkpt><trkpt lat="42.62804852897563" lon="13.656855548572574"><ele>337.0</ele><time>2026-04-18T13:21:04Z</time></trkpt><trkpt lat="42.628156932549665" lon="13.65703332912633"><ele>337.0</ele><time>2026-04-18T13:21:05Z</time></trkpt><trkpt lat="42.62826511164577" lon="13.657216372817633"><ele>337.0</ele><time>2026-04-18T13:21:06Z</time></trkpt><trkpt lat="42.62836756037665" lon="13.657382058115758"><ele>337.0</ele><time>2026-04-18T13:21:07Z</time></trkpt><trkpt lat="42.6284652179822" lon="13.657541866979308"><ele>337.0</ele><time>2026-04-18T13:21:07.999Z</time></trkpt><trkpt lat="42.62856141629215" lon="13.657694260972557"><ele>337.0</ele><time>2026-04-18T13:21:08.999Z</time></trkpt><trkpt lat="42.62865457011344" lon="13.657842886238582"><ele>337.0</ele><time>2026-04-18T13:21:09.999Z</time></trkpt><trkpt lat="42.628748061295255" lon="13.657988862400284"><ele>334.25</ele><time>2026-04-18T13:21:10.999Z</time></trkpt><trkpt lat="42.628843017706814" lon="13.658119803286343"><ele>331.5</ele><time>2026-04-18T13:21:11.999Z</time></trkpt><trkpt lat="42.628948656074485" lon="13.65824961872811"><ele>328.75</ele><time>2026-04-18T13:21:12.999Z</time></trkpt><trkpt lat="42.62907220927658" lon="13.658346880245976"><ele>326.0</ele><time>2026-04-18T13:21:13.999Z</time></trkpt><trkpt lat="42.62919929923058" lon="13.658421335708304"><ele>326.0</ele><time>2026-04-18T13:21:14.999Z</time></trkpt><trkpt lat="42.62934246007195" lon="13.658463618883655"><ele>326.0</ele><time>2026-04-18T13:21:15.999Z</time></trkpt><trkpt lat="42.62951878712188" lon="13.658500618870837"><ele>326.0</ele><time>2026-04-18T13:21:16.999Z</time></trkpt><trkpt lat="42.62971240143302" lon="13.658519874321165"><ele>320.6666666666667</ele><time>2026-04-18T13:21:17.999Z</time></trkpt><trkpt lat="42.629903974651846" lon="13.658508977550296"><ele>315.3333333333333</ele><time>2026-04-18T13:21:18.999Z</time></trkpt><trkpt lat="42.63008499301882" lon="13.658480258627142"><ele>310.0</ele><time>2026-04-18T13:21:19.999Z</time></trkpt><trkpt lat="42.63025915489988" lon="13.658468003308275"><ele>314.66666666666663</ele><time>2026-04-18T13:21:20.999Z</time></trkpt><trkpt lat="42.63042244757747" lon="13.658469414334352"><ele>319.3333333333333</ele><time>2026-04-18T13:21:21.999Z</time></trkpt><trkpt lat="42.63056879189503" lon="13.658538606829122"><ele>324.0</ele><time>2026-04-18T13:21:22.999Z</time></trkpt><trkpt lat="42.630707931593" lon="13.658626647149806"><ele>324.0</ele><time>2026-04-18T13:21:23.999Z</time></trkpt><trkpt lat="42.630851573200914" lon="13.658705330708822"><ele>324.0</ele><time>2026-04-18T13:21:24.999Z</time></trkpt><trkpt lat="42.630982064187734" lon="13.658807778891868"><ele>324.0</ele><time>2026-04-18T13:21:25.999Z</time></trkpt><trkpt lat="42.63111240492284" lon="13.658900735980618"><ele>325.0</ele><time>2026-04-18T13:21:26.999Z</time></trkpt><trkpt lat="42.63124335515286" lon="13.658992636679322"><ele>326.0</ele><time>2026-04-18T13:21:27.999Z</time></trkpt><trkpt lat="42.63137405153507" lon="13.659073615965838"><ele>327.0</ele><time>2026-04-18T13:21:28.999Z</time></trkpt><trkpt lat="42.631502010086365" lon="13.659164856544287"><ele>328.0</ele><time>2026-04-18T13:21:29.999Z</time></trkpt><trkpt lat="42.63163014175223" lon="13.65924701228583"><ele>328.0</ele><time>2026-04-18T13:21:30.999Z</time></trkpt><trkpt lat="42.631766359497774" lon="13.659345121505096"><ele>328.0</ele><time>2026-04-18T13:21:31.999Z</time></trkpt><trkpt lat="42.63190112077844" lon="13.659438269645266"><ele>328.0</ele><time>2026-04-18T13:21:32.999Z</time></trkpt><trkpt lat="42.63204007423386" lon="13.659531717760018"><ele>327.0</ele><time>2026-04-18T13:21:33.999Z</time></trkpt><trkpt lat="42.63217949100921" lon="13.659625440122538"><ele>326.0</ele><time>2026-04-18T13:21:34.999Z</time></trkpt><trkpt lat="42.632323457591255" lon="13.659718946182302"><ele>325.0</ele><time>2026-04-18T13:21:35.999Z</time></trkpt><trkpt lat="42.63246767175412" lon="13.659816137453202"><ele>325.0</ele><time>2026-04-18T13:21:36.999Z</time></trkpt><trkpt lat="42.63261239238193" lon="13.6599143773474"><ele>325.0</ele><time>2026-04-18T13:21:37.999Z</time></trkpt><trkpt lat="42.63275592295344" lon="13.660011193943994"><ele>325.0</ele><time>2026-04-18T13:21:38.999Z</time></trkpt><trkpt lat="42.63289207528069" lon="13.6601087310969"><ele>325.5</ele><time>2026-04-18T13:21:39.999Z</time></trkpt><trkpt lat="42.633017896063386" lon="13.660205677543066"><ele>326.0</ele><time>2026-04-18T13:21:40.999Z</time></trkpt><trkpt lat="42.633127310377844" lon="13.66030995497663"><ele>326.5</ele><time>2026-04-18T13:21:41.999Z</time></trkpt><trkpt lat="42.633218900512624" lon="13.66043696911475"><ele>327.0</ele><time>2026-04-18T13:21:42.999Z</time></trkpt><trkpt lat="42.63329472406432" lon="13.660575400265879"><ele>325.75</ele><time>2026-04-18T13:21:43.999Z</time></trkpt><trkpt lat="42.633356225050434" lon="13.660715794852608"><ele>324.5</ele><time>2026-04-18T13:21:44.999Z</time></trkpt><trkpt lat="42.63340854331208" lon="13.660857331281706"><ele>323.25</ele><time>2026-04-18T13:21:45.999Z</time></trkpt><trkpt lat="42.6334569910706" lon="13.660995042497118"><ele>322.0</ele><time>2026-04-18T13:21:46.999Z</time></trkpt><trkpt lat="42.63350403839241" lon="13.661128628873096"><ele>321.6</ele><time>2026-04-18T13:21:47.999Z</time></trkpt><trkpt lat="42.633554281331115" lon="13.66125825275229"><ele>321.20000000000005</ele><time>2026-04-18T13:21:48.999Z</time></trkpt><trkpt lat="42.63360354005765" lon="13.66138062224023"><ele>320.8</ele><time>2026-04-18T13:21:49.998Z</time></trkpt><trkpt lat="42.63366007812939" lon="13.661501986608735"><ele>320.4</ele><time>2026-04-18T13:21:50.998Z</time></trkpt><trkpt lat="42.63372922468417" lon="13.661613802051026"><ele>320.0</ele><time>2026-04-18T13:21:51.998Z</time></trkpt><trkpt lat="42.63380660815954" lon="13.661712739359237"><ele>319.4</ele><time>2026-04-18T13:21:52.998Z</time></trkpt><trkpt lat="42.63389300006767" lon="13.661799280654014"><ele>318.8</ele><time>2026-04-18T13:21:53.998Z</time></trkpt><trkpt lat="42.633984597155845" lon="13.661867553290676"><ele>318.2</ele><time>2026-04-18T13:21:54.998Z</time></trkpt><trkpt lat="42.6340867086431" lon="13.66193502475044"><ele>317.6</ele><time>2026-04-18T13:21:55.998Z</time></trkpt><trkpt lat="42.634189840402556" lon="13.6620095233466"><ele>317.0</ele><time>2026-04-18T13:21:56.998Z</time></trkpt><trkpt lat="42.63429025300357" lon="13.662084179360646"><ele>317.6</ele><time>2026-04-18T13:21:57.998Z</time></trkpt><trkpt lat="42.63438440145607" lon="13.662148258345832"><ele>318.2</ele><time>2026-04-18T13:21:58.998Z</time></trkpt><trkpt lat="42.63447228170306" lon="13.662211095309571"><ele>318.8</ele><time>2026-04-18T13:21:59.998Z</time></trkpt><trkpt lat="42.63455877087109" lon="13.66227735545118"><ele>319.4</ele><time>2026-04-18T13:22:00.998Z</time></trkpt><trkpt lat="42.63464934861013" lon="13.662343614037551"><ele>320.0</ele><time>2026-04-18T13:22:01.998Z</time></trkpt><trkpt lat="42.634746001281385" lon="13.662410323300126"><ele>320.0</ele><time>2026-04-18T13:22:02.998Z</time></trkpt><trkpt lat="42.63485498055763" lon="13.662480624395657"><ele>320.0</ele><time>2026-04-18T13:22:03.998Z</time></trkpt><trkpt lat="42.634960965719124" lon="13.6625832793085"><ele>320.0</ele><time>2026-04-18T13:22:04.998Z</time></trkpt><trkpt lat="42.63508299757666" lon="13.662673542187397"><ele>320.0</ele><time>2026-04-18T13:22:05.998Z</time></trkpt><trkpt lat="42.63521465035157" lon="13.662757279894539"><ele>321.33333333333337</ele><time>2026-04-18T13:22:06.998Z</time></trkpt><trkpt lat="42.635340972808585" lon="13.662867446066516"><ele>322.6666666666667</ele><time>2026-04-18T13:22:07.998Z</time></trkpt><trkpt lat="42.635473594817185" lon="13.662972301472832"><ele>324.0</ele><time>2026-04-18T13:22:08.998Z</time></trkpt><trkpt lat="42.63560399203616" lon="13.66307153618225"><ele>324.0</ele><time>2026-04-18T13:22:09.998Z</time></trkpt><trkpt lat="42.63573659974942" lon="13.663165631486423"><ele>324.0</ele><time>2026-04-18T13:22:10.998Z</time></trkpt><trkpt lat="42.6358669842688" lon="13.663255996710665"><ele>324.0</ele><time>2026-04-18T13:22:11.998Z</time></trkpt><trkpt lat="42.63598706392325" lon="13.663344503752391"><ele>324.0</ele><time>2026-04-18T13:22:12.998Z</time></trkpt><trkpt lat="42.63610081859292" lon="13.663422401832788"><ele>323.5</ele><time>2026-04-18T13:22:13.998Z</time></trkpt><trkpt lat="42.63620924141858" lon="13.663501285846358"><ele>323.0</ele><time>2026-04-18T13:22:14.998Z</time></trkpt><trkpt lat="42.63631802776428" lon="13.66359372041927"><ele>322.5</ele><time>2026-04-18T13:22:15.998Z</time></trkpt><trkpt lat="42.636432481484064" lon="13.66368880925914"><ele>322.0</ele><time>2026-04-18T13:22:16.998Z</time></trkpt><trkpt lat="42.6365563747033" lon="13.663783457132157"><ele>322.0</ele><time>2026-04-18T13:22:17.998Z</time></trkpt><trkpt lat="42.63668578751763" lon="13.663877605055596"><ele>322.0</ele><time>2026-04-18T13:22:18.998Z</time></trkpt><trkpt lat="42.63681824085025" lon="13.663974642488462"><ele>322.0</ele><time>2026-04-18T13:22:19.998Z</time></trkpt><trkpt lat="42.63694634784408" lon="13.664078775574303"><ele>322.0</ele><time>2026-04-18T13:22:20.998Z</time></trkpt><trkpt lat="42.63706956407234" lon="13.664195749941804"><ele>326.66666666666663</ele><time>2026-04-18T13:22:21.998Z</time></trkpt><trkpt lat="42.63717511815713" lon="13.664342010048605"><ele>331.3333333333333</ele><time>2026-04-18T13:22:22.998Z</time></trkpt><trkpt lat="42.637260981329476" lon="13.66451335776533"><ele>336.0</ele><time>2026-04-18T13:22:23.998Z</time></trkpt><trkpt lat="42.63732375297697" lon="13.664700897169215"><ele>336.0</ele><time>2026-04-18T13:22:24.998Z</time></trkpt><trkpt lat="42.63736220760796" lon="13.664900078189637"><ele>336.0</ele><time>2026-04-18T13:22:25.998Z</time></trkpt><trkpt lat="42.63739328324565" lon="13.665097411682837"><ele>336.0</ele><time>2026-04-18T13:22:26.998Z</time></trkpt><trkpt lat="42.63743991670326" lon="13.665285018942873"><ele>336.0</ele><time>2026-04-18T13:22:27.998Z</time></trkpt><trkpt lat="42.63750960147795" lon="13.665460503596144"><ele>332.3333333333333</ele><time>2026-04-18T13:22:28.998Z</time></trkpt><trkpt lat="42.63758158121322" lon="13.66563678743659"><ele>328.66666666666663</ele><time>2026-04-18T13:22:29.998Z</time></trkpt><trkpt lat="42.63765385153035" lon="13.665817251484132"><ele>325.0</ele><time>2026-04-18T13:22:30.997Z</time></trkpt><trkpt lat="42.63773804544161" lon="13.665987475545775"><ele>324.66666666666663</ele><time>2026-04-18T13:22:31.997Z</time></trkpt><trkpt lat="42.637856095388614" lon="13.666130364604594"><ele>324.3333333333333</ele><time>2026-04-18T13:22:32.997Z</time></trkpt><trkpt lat="42.6379918824617" lon="13.666256447015735"><ele>324.0</ele><time>2026-04-18T13:22:33.997Z</time></trkpt><trkpt lat="42.63813615613253" lon="13.666383365611233"><ele>324.0</ele><time>2026-04-18T13:22:34.997Z</time></trkpt><trkpt lat="42.6382893497211" lon="13.666506792497126"><ele>324.0</ele><time>2026-04-18T13:22:35.997Z</time></trkpt><trkpt lat="42.63845131862063" lon="13.666626577133421"><ele>324.0</ele><time>2026-04-18T13:22:36.997Z</time></trkpt><trkpt lat="42.6386180016249" lon="13.666738710896416"><ele>327.3333333333333</ele><time>2026-04-18T13:22:37.997Z</time></trkpt><trkpt lat="42.63878777755237" lon="13.666851853335013"><ele>330.66666666666663</ele><time>2026-04-18T13:22:39Z</time></trkpt><trkpt lat="42.63895690002739" lon="13.66696114928646"><ele>334.0</ele><time>2026-04-18T13:22:40Z</time></trkpt><trkpt lat="42.639120925403176" lon="13.667067530690478"><ele>328.0</ele><time>2026-04-18T13:22:41Z</time></trkpt><trkpt lat="42.639275499196415" lon="13.66717047276261"><ele>322.0</ele><time>2026-04-18T13:22:42Z</time></trkpt><trkpt lat="42.63942925068363" lon="13.667272035400877"><ele>316.0</ele><time>2026-04-18T13:22:43Z</time></trkpt><trkpt lat="42.63958821820593" lon="13.667366728622776"><ele>316.0</ele><time>2026-04-18T13:22:44Z</time></trkpt><trkpt lat="42.63975603019043" lon="13.667436716958077"><ele>316.0</ele><time>2026-04-18T13:22:45Z</time></trkpt><trkpt lat="42.63993155035832" lon="13.667470576195093"><ele>316.0</ele><time>2026-04-18T13:22:46Z</time></trkpt><trkpt lat="42.64010250236742" lon="13.667508719555112"><ele>316.0</ele><time>2026-04-18T13:22:47Z</time></trkpt><trkpt lat="42.64027495662824" lon="13.667590944290058"><ele>316.0</ele><time>2026-04-18T13:22:48Z</time></trkpt><trkpt lat="42.64043967140577" lon="13.667697725500105"><ele>316.0</ele><time>2026-04-18T13:22:49Z</time></trkpt><trkpt lat="42.640606662564906" lon="13.667819172050153"><ele>311.0</ele><time>2026-04-18T13:22:50Z</time></trkpt><trkpt lat="42.64076911680598" lon="13.66794038865766"><ele>306.0</ele><time>2026-04-18T13:22:51Z</time></trkpt><trkpt lat="42.640928886309005" lon="13.668071694779481"><ele>301.0</ele><time>2026-04-18T13:22:52Z</time></trkpt><trkpt lat="42.641086005637455" lon="13.668213649526756"><ele>297.66666666666663</ele><time>2026-04-18T13:22:53Z</time></trkpt><trkpt lat="42.64123984733744" lon="13.668362931577498"><ele>294.3333333333333</ele><time>2026-04-18T13:22:54Z</time></trkpt><trkpt lat="42.64138947666637" lon="13.668512619159984"><ele>291.0</ele><time>2026-04-18T13:22:55Z</time></trkpt><trkpt lat="42.64153133846497" lon="13.668651166197709"><ele>291.0</ele><time>2026-04-18T13:22:56Z</time></trkpt><trkpt lat="42.6416738631209" lon="13.6687777902806"><ele>291.0</ele><time>2026-04-18T13:22:57Z</time></trkpt><trkpt lat="42.64182095983738" lon="13.66888900921092"><ele>291.0</ele><time>2026-04-18T13:22:58Z</time></trkpt><trkpt lat="42.64197867209418" lon="13.668982438056158"><ele>295.0</ele><time>2026-04-18T13:22:59Z</time></trkpt><trkpt lat="42.64214363451611" lon="13.669052409567183"><ele>299.0</ele><time>2026-04-18T13:23:00Z</time></trkpt><trkpt lat="42.6423094322988" lon="13.669125386355756"><ele>303.0</ele><time>2026-04-18T13:23:01Z</time></trkpt><trkpt lat="42.64247351243882" lon="13.669211560797878"><ele>303.0</ele><time>2026-04-18T13:23:02Z</time></trkpt><trkpt lat="42.642635471772614" lon="13.669321277802434"><ele>303.0</ele><time>2026-04-18T13:23:03Z</time></trkpt><trkpt lat="42.642791263834496" lon="13.669449280191788"><ele>303.0</ele><time>2026-04-18T13:23:04Z</time></trkpt><trkpt lat="42.64293579870446" lon="13.669581793241026"><ele>300.3333333333333</ele><time>2026-04-18T13:23:05Z</time></trkpt><trkpt lat="42.64307749576309" lon="13.669733043463971"><ele>297.66666666666663</ele><time>2026-04-18T13:23:06Z</time></trkpt><trkpt lat="42.64321048337307" lon="13.669892853362459"><ele>295.0</ele><time>2026-04-18T13:23:07Z</time></trkpt><trkpt lat="42.643341862047386" lon="13.67005072610515"><ele>295.0</ele><time>2026-04-18T13:23:08Z</time></trkpt><trkpt lat="42.64347536697579" lon="13.670211450852785"><ele>295.0</ele><time>2026-04-18T13:23:09Z</time></trkpt><trkpt lat="42.64360537375708" lon="13.670371350200526"><ele>295.0</ele><time>2026-04-18T13:23:10Z</time></trkpt><trkpt lat="42.64373114364714" lon="13.670525014720337"><ele>293.3333333333333</ele><time>2026-04-18T13:23:11Z</time></trkpt><trkpt lat="42.64385126220902" lon="13.670667579309853"><ele>291.6666666666667</ele><time>2026-04-18T13:23:12Z</time></trkpt><trkpt lat="42.643964212699984" lon="13.670800062555584"><ele>290.0</ele><time>2026-04-18T13:23:13Z</time></trkpt><trkpt lat="42.644075072041716" lon="13.670921307461992"><ele>290.0</ele><time>2026-04-18T13:23:14Z</time></trkpt><trkpt lat="42.64417995273175" lon="13.671042243858238"><ele>290.0</ele><time>2026-04-18T13:23:15Z</time></trkpt><trkpt lat="42.64426286091974" lon="13.671171619375583"><ele>290.0</ele><time>2026-04-18T13:23:16Z</time></trkpt><trkpt lat="42.64432232359568" lon="13.671335529961413"><ele>290.0</ele><time>2026-04-18T13:23:17Z</time></trkpt><trkpt lat="42.644342297744195" lon="13.671480657046983"><ele>290.33333333333337</ele><time>2026-04-18T13:23:18Z</time></trkpt><trkpt lat="42.64433990604184" lon="13.67161184799888"><ele>290.6666666666667</ele><time>2026-04-18T13:23:19Z</time></trkpt><trkpt lat="42.644327152221386" lon="13.671731260418486"><ele>291.0</ele><time>2026-04-18T13:23:20Z</time></trkpt><trkpt lat="42.64433101993938" lon="13.671844814277064"><ele>291.3333333333333</ele><time>2026-04-18T13:23:21Z</time></trkpt><trkpt lat="42.64436105780423" lon="13.671952623371453"><ele>291.66666666666663</ele><time>2026-04-18T13:23:22Z</time></trkpt><trkpt lat="42.64442305211271" lon="13.672035944370474"><ele>292.0</ele><time>2026-04-18T13:23:23Z</time></trkpt><trkpt lat="42.64450511801" lon="13.672076867455752"><ele>293.2</ele><time>2026-04-18T13:23:24Z</time></trkpt><trkpt lat="42.644602410310135" lon="13.672068031599888"><ele>294.4</ele><time>2026-04-18T13:23:24.999Z</time></trkpt><trkpt lat="42.64469994946823" lon="13.672022400663076"><ele>295.6</ele><time>2026-04-18T13:23:25.999Z</time></trkpt><trkpt lat="42.64480618263813" lon="13.671965972621903"><ele>296.8</ele><time>2026-04-18T13:23:26.999Z</time></trkpt><trkpt lat="42.64492513386032" lon="13.671982024950028"><ele>298.0</ele><time>2026-04-18T13:23:27.999Z</time></trkpt><trkpt lat="42.6450457110426" lon="13.672057286728883"><ele>298.0</ele><time>2026-04-18T13:23:28.999Z</time></trkpt><trkpt lat="42.645147520157884" lon="13.672200700964643"><ele>298.0</ele><time>2026-04-18T13:23:29.999Z</time></trkpt><trkpt lat="42.645266726773116" lon="13.672333509354656"><ele>298.0</ele><time>2026-04-18T13:23:30.999Z</time></trkpt><trkpt lat="42.645391789778024" lon="13.672492270941309"><ele>296.3333333333333</ele><time>2026-04-18T13:23:31.999Z</time></trkpt><trkpt lat="42.64552937185854" lon="13.672655262074175"><ele>294.6666666666667</ele><time>2026-04-18T13:23:32.999Z</time></trkpt><trkpt lat="42.64567100739193" lon="13.672824597783444"><ele>293.0</ele><time>2026-04-18T13:23:33.999Z</time></trkpt><trkpt lat="42.645819245356975" lon="13.673005536480854"><ele>293.0</ele><time>2026-04-18T13:23:34.999Z</time></trkpt><trkpt lat="42.64596514577773" lon="13.673178304600098"><ele>293.0</ele><time>2026-04-18T13:23:35.999Z</time></trkpt><trkpt lat="42.64611330688043" lon="13.673355028780106"><ele>293.0</ele><time>2026-04-18T13:23:36.999Z</time></trkpt><trkpt lat="42.646264627410865" lon="13.673535295718215"><ele>292.33333333333337</ele><time>2026-04-18T13:23:37.999Z</time></trkpt><trkpt lat="42.64641872794557" lon="13.673715298434166"><ele>291.6666666666667</ele><time>2026-04-18T13:23:38.999Z</time></trkpt><trkpt lat="42.64657175072515" lon="13.67389682786346"><ele>291.0</ele><time>2026-04-18T13:23:39.999Z</time></trkpt><trkpt lat="42.64672321892201" lon="13.674075601123173"><ele>291.0</ele><time>2026-04-18T13:23:40.999Z</time></trkpt><trkpt lat="42.64687837042573" lon="13.674258561203157"><ele>291.0</ele><time>2026-04-18T13:23:41.999Z</time></trkpt><trkpt lat="42.64703219729956" lon="13.6744422583637"><ele>291.0</ele><time>2026-04-18T13:23:42.999Z</time></trkpt><trkpt lat="42.64718362670484" lon="13.67462337345929"><ele>290.6666666666667</ele><time>2026-04-18T13:23:43.999Z</time></trkpt><trkpt lat="42.64733114267734" lon="13.674803974115637"><ele>290.33333333333337</ele><time>2026-04-18T13:23:44.999Z</time></trkpt><trkpt lat="42.647476963254945" lon="13.67499436101301"><ele>290.0</ele><time>2026-04-18T13:23:45.999Z</time></trkpt><trkpt lat="42.64761873475105" lon="13.675193670666141"><ele>290.33333333333337</ele><time>2026-04-18T13:23:46.999Z</time></trkpt><trkpt lat="42.64775513705474" lon="13.675396882455386"><ele>290.6666666666667</ele><time>2026-04-18T13:23:47.999Z</time></trkpt><trkpt lat="42.64788848801157" lon="13.675600276997859"><ele>291.0</ele><time>2026-04-18T13:23:48.999Z</time></trkpt><trkpt lat="42.648016878889685" lon="13.675763751860734"><ele>291.0</ele><time>2026-04-18T13:23:49.999Z</time></trkpt><trkpt lat="42.64812747642662" lon="13.67595218240145"><ele>291.0</ele><time>2026-04-18T13:23:50.999Z</time></trkpt><trkpt lat="42.648227538940205" lon="13.676135764912534"><ele>291.0</ele><time>2026-04-18T13:23:51.999Z</time></trkpt><trkpt lat="42.64831529258689" lon="13.676304334499273"><ele>291.0</ele><time>2026-04-18T13:23:52.999Z</time></trkpt><trkpt lat="42.648398256576876" lon="13.67646568900004"><ele>291.0</ele><time>2026-04-18T13:23:53.999Z</time></trkpt><trkpt lat="42.64847948687325" lon="13.676622073795222"><ele>291.0</ele><time>2026-04-18T13:23:54.999Z</time></trkpt><trkpt lat="42.64855781181864" lon="13.67677246908225"><ele>291.0</ele><time>2026-04-18T13:23:55.999Z</time></trkpt><trkpt lat="42.648632664057345" lon="13.676917281692168"><ele>289.0</ele><time>2026-04-18T13:23:56.999Z</time></trkpt><trkpt lat="42.648713809525844" lon="13.677070315471886"><ele>287.0</ele><time>2026-04-18T13:23:57.999Z</time></trkpt><trkpt lat="42.64880769046691" lon="13.677228563411377"><ele>285.0</ele><time>2026-04-18T13:23:58.999Z</time></trkpt><trkpt lat="42.64889440567762" lon="13.677410216974412"><ele>283.0</ele><time>2026-04-18T13:23:59.999Z</time></trkpt><trkpt lat="42.64899248984499" lon="13.677596691137996"><ele>283.0</ele><time>2026-04-18T13:24:00.999Z</time></trkpt><trkpt lat="42.64910004621938" lon="13.677801173526364"><ele>283.0</ele><time>2026-04-18T13:24:01.999Z</time></trkpt><trkpt lat="42.64921551243729" lon="13.67798696373717"><ele>283.0</ele><time>2026-04-18T13:24:02.999Z</time></trkpt><trkpt lat="42.64930691123126" lon="13.678179270571848"><ele>283.0</ele><time>2026-04-18T13:24:03.999Z</time></trkpt><trkpt lat="42.649394491467454" lon="13.678356953407613"><ele>283.0</ele><time>2026-04-18T13:24:04.999Z</time></trkpt><trkpt lat="42.64947813759641" lon="13.678513137426327"><ele>283.0</ele><time>2026-04-18T13:24:05.999Z</time></trkpt><trkpt lat="42.64955214577885" lon="13.678658079765523"><ele>283.0</ele><time>2026-04-18T13:24:06.998Z</time></trkpt><trkpt lat="42.6496186100026" lon="13.678792528678251"><ele>284.2</ele><time>2026-04-18T13:24:07.998Z</time></trkpt><trkpt lat="42.649673342665665" lon="13.678935412148105"><ele>285.4</ele><time>2026-04-18T13:24:08.998Z</time></trkpt><trkpt lat="42.649691118632994" lon="13.679056171725065"><ele>286.59999999999997</ele><time>2026-04-18T13:24:09.998Z</time></trkpt><trkpt lat="42.64969546129778" lon="13.679183696031956"><ele>287.8</ele><time>2026-04-18T13:24:10.998Z</time></trkpt><trkpt lat="42.64973279651395" lon="13.679298855395965"><ele>289.0</ele><time>2026-04-18T13:24:11.998Z</time></trkpt><trkpt lat="42.64981234534525" lon="13.6793910329826"><ele>287.75</ele><time>2026-04-18T13:24:12.998Z</time></trkpt><trkpt lat="42.649914719765896" lon="13.679486560600566"><ele>286.5</ele><time>2026-04-18T13:24:13.998Z</time></trkpt><trkpt lat="42.650017956850405" lon="13.67960540239522"><ele>285.25</ele><time>2026-04-18T13:24:14.998Z</time></trkpt><trkpt lat="42.650121630915535" lon="13.679736487771153"><ele>284.0</ele><time>2026-04-18T13:24:15.998Z</time></trkpt><trkpt lat="42.65023144580845" lon="13.679865949389114"><ele>283.75</ele><time>2026-04-18T13:24:16.998Z</time></trkpt><trkpt lat="42.65033665968309" lon="13.67998585841423"><ele>283.5</ele><time>2026-04-18T13:24:17.998Z</time></trkpt><trkpt lat="42.6504386603761" lon="13.680101572689871"><ele>283.25</ele><time>2026-04-18T13:24:18.998Z</time></trkpt><trkpt lat="42.65053872597689" lon="13.680220044557753"><ele>283.0</ele><time>2026-04-18T13:24:19.998Z</time></trkpt><trkpt lat="42.65063671451865" lon="13.680339679569089"><ele>283.0</ele><time>2026-04-18T13:24:20.998Z</time></trkpt><trkpt lat="42.650733088772476" lon="13.680451643875818"><ele>283.0</ele><time>2026-04-18T13:24:21.998Z</time></trkpt><trkpt lat="42.65083702406357" lon="13.680553847303544"><ele>283.0</ele><time>2026-04-18T13:24:22.998Z</time></trkpt><trkpt lat="42.65093873738214" lon="13.680652998573835"><ele>283.0</ele><time>2026-04-18T13:24:23.998Z</time></trkpt><trkpt lat="42.65103411760692" lon="13.680763098745246"><ele>283.25</ele><time>2026-04-18T13:24:24.998Z</time></trkpt><trkpt lat="42.65113509206828" lon="13.680874353887758"><ele>283.5</ele><time>2026-04-18T13:24:25.998Z</time></trkpt><trkpt lat="42.651238308029995" lon="13.680987494076795"><ele>283.75</ele><time>2026-04-18T13:24:26.998Z</time></trkpt><trkpt lat="42.65134038537805" lon="13.681094838779705"><ele>284.0</ele><time>2026-04-18T13:24:27.998Z</time></trkpt><trkpt lat="42.65143904799619" lon="13.681197580219777"><ele>283.0</ele><time>2026-04-18T13:24:28.998Z</time></trkpt><trkpt lat="42.65153635067048" lon="13.681302838512236"><ele>282.0</ele><time>2026-04-18T13:24:29.998Z</time></trkpt><trkpt lat="42.651635661961286" lon="13.681409865032398"><ele>281.0</ele><time>2026-04-18T13:24:30.998Z</time></trkpt><trkpt lat="42.651731504788685" lon="13.681517228693467"><ele>280.0</ele><time>2026-04-18T13:24:31.998Z</time></trkpt><trkpt lat="42.6518252913039" lon="13.681625168394149"><ele>280.0</ele><time>2026-04-18T13:24:32.998Z</time></trkpt><trkpt lat="42.6519171343584" lon="13.681722833756746"><ele>280.0</ele><time>2026-04-18T13:24:33.998Z</time></trkpt><trkpt lat="42.652012062534745" lon="13.681820563434998"><ele>280.0</ele><time>2026-04-18T13:24:34.998Z</time></trkpt><trkpt lat="42.65210232641381" lon="13.681931110448645"><ele>280.0</ele><time>2026-04-18T13:24:35.998Z</time></trkpt><trkpt lat="42.652193776716885" lon="13.682044700325102"><ele>280.5</ele><time>2026-04-18T13:24:36.998Z</time></trkpt><trkpt lat="42.6522940424523" lon="13.682155686224538"><ele>281.0</ele><time>2026-04-18T13:24:37.998Z</time></trkpt><trkpt lat="42.65239721271452" lon="13.682272819722792"><ele>281.5</ele><time>2026-04-18T13:24:38.998Z</time></trkpt><trkpt lat="42.65250114698299" lon="13.682394300279212"><ele>282.0</ele><time>2026-04-18T13:24:39.998Z</time></trkpt><trkpt lat="42.65260796791428" lon="13.682516750831269"><ele>282.0</ele><time>2026-04-18T13:24:40.998Z</time></trkpt><trkpt lat="42.65271378426862" lon="13.682641381750479"><ele>282.0</ele><time>2026-04-18T13:24:41.998Z</time></trkpt><trkpt lat="42.65281748579159" lon="13.682768559318696"><ele>282.0</ele><time>2026-04-18T13:24:42.998Z</time></trkpt><trkpt lat="42.652912676446824" lon="13.682892503804869"><ele>282.0</ele><time>2026-04-18T13:24:43.998Z</time></trkpt><trkpt lat="42.65300505721047" lon="13.683015634661588"><ele>281.5</ele><time>2026-04-18T13:24:45Z</time></trkpt><trkpt lat="42.65310160172799" lon="13.683121788414908"><ele>281.0</ele><time>2026-04-18T13:24:46Z</time></trkpt><trkpt lat="42.65319923488808" lon="13.683212956420329"><ele>280.5</ele><time>2026-04-18T13:24:47Z</time></trkpt><trkpt lat="42.65328923252793" lon="13.683308053281491"><ele>280.0</ele><time>2026-04-18T13:24:48Z</time></trkpt><trkpt lat="42.653371854133766" lon="13.68340517071385"><ele>280.0</ele><time>2026-04-18T13:24:49.001Z</time></trkpt><trkpt lat="42.653483513545446" lon="13.683470079444119"><ele>280.0</ele><time>2026-04-18T13:24:50Z</time></trkpt><trkpt lat="42.6536191909487" lon="13.683512793217707"><ele>280.0</ele><time>2026-04-18T13:24:51Z</time></trkpt><trkpt lat="42.65375229107292" lon="13.68362006294132"><ele>280.0</ele><time>2026-04-18T13:24:52Z</time></trkpt><trkpt lat="42.65388513103086" lon="13.683722245057972"><ele>277.66666666666663</ele><time>2026-04-18T13:24:53Z</time></trkpt><trkpt lat="42.654029006916566" lon="13.683809422324348"><ele>275.3333333333333</ele><time>2026-04-18T13:24:54Z</time></trkpt><trkpt lat="42.654165025468295" lon="13.683918158728655"><ele>273.0</ele><time>2026-04-18T13:24:55Z</time></trkpt><trkpt lat="42.65430565573601" lon="13.684027377345048"><ele>273.0</ele><time>2026-04-18T13:24:56Z</time></trkpt><trkpt lat="42.654446673612206" lon="13.684134536382382"><ele>273.0</ele><time>2026-04-18T13:24:57Z</time></trkpt><trkpt lat="42.6545832815071" lon="13.684238392363039"><ele>273.0</ele><time>2026-04-18T13:24:58Z</time></trkpt><trkpt lat="42.65472157173167" lon="13.684345245857344"><ele>274.3333333333333</ele><time>2026-04-18T13:24:59Z</time></trkpt><trkpt lat="42.654857193426736" lon="13.684449606043286"><ele>275.66666666666663</ele><time>2026-04-18T13:25:00Z</time></trkpt><trkpt lat="42.65499425798792" lon="13.684554335554294"><ele>277.0</ele><time>2026-04-18T13:25:01Z</time></trkpt><trkpt lat="42.65513474296535" lon="13.684660653247981"><ele>277.0</ele><time>2026-04-18T13:25:02Z</time></trkpt><trkpt lat="42.65527322097812" lon="13.684763585255967"><ele>277.0</ele><time>2026-04-18T13:25:03Z</time></trkpt><trkpt lat="42.655411123334886" lon="13.68486373518528"><ele>277.0</ele><time>2026-04-18T13:25:04Z</time></trkpt><trkpt lat="42.65555101230648" lon="13.684952768225706"><ele>283.0</ele><time>2026-04-18T13:25:05Z</time></trkpt><trkpt lat="42.655692311229124" lon="13.685031545065597"><ele>289.0</ele><time>2026-04-18T13:25:06Z</time></trkpt><trkpt lat="42.65583084503535" lon="13.685105813949608"><ele>295.0</ele><time>2026-04-18T13:25:07Z</time></trkpt><trkpt lat="42.655969497218855" lon="13.685179653552009"><ele>295.0</ele><time>2026-04-18T13:25:08Z</time></trkpt><trkpt lat="42.65610820869856" lon="13.685251846401352"><ele>295.0</ele><time>2026-04-18T13:25:09Z</time></trkpt><trkpt lat="42.656246298250146" lon="13.685322330992287"><ele>295.0</ele><time>2026-04-18T13:25:10Z</time></trkpt><trkpt lat="42.65637815060537" lon="13.68538886692951"><ele>295.0</ele><time>2026-04-18T13:25:11Z</time></trkpt><trkpt lat="42.656505649228535" lon="13.685451277981148"><ele>295.0</ele><time>2026-04-18T13:25:12Z</time></trkpt><trkpt lat="42.65662226453085" lon="13.685513271452484"><ele>295.0</ele><time>2026-04-18T13:25:13Z</time></trkpt><trkpt lat="42.656724027786204" lon="13.685585641142982"><ele>295.0</ele><time>2026-04-18T13:25:14Z</time></trkpt><trkpt lat="42.656817865475205" lon="13.685677324724447"><ele>295.0</ele><time>2026-04-18T13:25:15Z</time></trkpt><trkpt lat="42.65689962067063" lon="13.685799285350582"><ele>296.75</ele><time>2026-04-18T13:25:16Z</time></trkpt><trkpt lat="42.656966248170576" lon="13.68593788604561"><ele>298.5</ele><time>2026-04-18T13:25:17Z</time></trkpt><trkpt lat="42.657021214276035" lon="13.686078773534183"><ele>300.25</ele><time>2026-04-18T13:25:18Z</time></trkpt><trkpt lat="42.65707184915633" lon="13.686223622953984"><ele>302.0</ele><time>2026-04-18T13:25:19Z</time></trkpt><trkpt lat="42.657118507383046" lon="13.686369308198383"><ele>302.0</ele><time>2026-04-18T13:25:20Z</time></trkpt><trkpt lat="42.65715745192245" lon="13.686519745659226"><ele>302.0</ele><time>2026-04-18T13:25:21Z</time></trkpt><trkpt lat="42.6571653957483" lon="13.686677635785857"><ele>302.0</ele><time>2026-04-18T13:25:22Z</time></trkpt><trkpt lat="42.65718256875543" lon="13.686836370336097"><ele>302.0</ele><time>2026-04-18T13:25:23Z</time></trkpt><trkpt lat="42.65719665569628" lon="13.686993500609415"><ele>301.0</ele><time>2026-04-18T13:25:24Z</time></trkpt><trkpt lat="42.65722529402328" lon="13.687139087313179"><ele>300.0</ele><time>2026-04-18T13:25:25Z</time></trkpt><trkpt lat="42.65723644821881" lon="13.687284367497309"><ele>299.0</ele><time>2026-04-18T13:25:26Z</time></trkpt><trkpt lat="42.65724618795506" lon="13.687426543787472"><ele>298.0</ele><time>2026-04-18T13:25:27Z</time></trkpt><trkpt lat="42.6572563701911" lon="13.68756965460473"><ele>297.0</ele><time>2026-04-18T13:25:28Z</time></trkpt><trkpt lat="42.6572682347253" lon="13.68771519099872"><ele>297.0</ele><time>2026-04-18T13:25:29Z</time></trkpt><trkpt lat="42.65728168751363" lon="13.687862012327162"><ele>297.0</ele><time>2026-04-18T13:25:30Z</time></trkpt><trkpt lat="42.6572966461723" lon="13.688012990083612"><ele>297.0</ele><time>2026-04-18T13:25:31Z</time></trkpt><trkpt lat="42.65729706834726" lon="13.688166987187914"><ele>297.0</ele><time>2026-04-18T13:25:32Z</time></trkpt><trkpt lat="42.65731833748873" lon="13.688321126126448"><ele>297.0</ele><time>2026-04-18T13:25:33Z</time></trkpt><trkpt lat="42.65734821565929" lon="13.688475055959627"><ele>297.0</ele><time>2026-04-18T13:25:34Z</time></trkpt><trkpt lat="42.65738861059192" lon="13.688616697106665"><ele>297.0</ele><time>2026-04-18T13:25:35Z</time></trkpt><trkpt lat="42.65743926063989" lon="13.688751613849712"><ele>297.0</ele><time>2026-04-18T13:25:36Z</time></trkpt><trkpt lat="42.65750580180507" lon="13.68886678500665"><ele>297.0</ele><time>2026-04-18T13:25:37Z</time></trkpt><trkpt lat="42.657559470342186" lon="13.68898440028374"><ele>297.0</ele><time>2026-04-18T13:25:37.999Z</time></trkpt><trkpt lat="42.657611883028785" lon="13.689093006056595"><ele>297.0</ele><time>2026-04-18T13:25:38.999Z</time></trkpt><trkpt lat="42.65766237839024" lon="13.68919110729651"><ele>297.0</ele><time>2026-04-18T13:25:39.999Z</time></trkpt><trkpt lat="42.657715666639554" lon="13.689281385458443"><ele>297.0</ele><time>2026-04-18T13:25:40.999Z</time></trkpt><trkpt lat="42.65777316883028" lon="13.689371106044717"><ele>297.0</ele><time>2026-04-18T13:25:41.999Z</time></trkpt><trkpt lat="42.657835914409056" lon="13.689456816226452"><ele>297.0</ele><time>2026-04-18T13:25:42.999Z</time></trkpt><trkpt lat="42.65789705040774" lon="13.689539071567314"><ele>297.0</ele><time>2026-04-18T13:25:43.999Z</time></trkpt><trkpt lat="42.657959512483586" lon="13.689620731758847"><ele>296.6666666666667</ele><time>2026-04-18T13:25:44.999Z</time></trkpt><trkpt lat="42.65802429208754" lon="13.689695125665201"><ele>296.3333333333333</ele><time>2026-04-18T13:25:45.999Z</time></trkpt><trkpt lat="42.65808138513409" lon="13.689761462853651"><ele>296.0</ele><time>2026-04-18T13:25:46.999Z</time></trkpt><trkpt lat="42.65813447285518" lon="13.68982452221546"><ele>295.66666666666663</ele><time>2026-04-18T13:25:47.999Z</time></trkpt><trkpt lat="42.658192265383875" lon="13.689891433918726"><ele>295.3333333333333</ele><time>2026-04-18T13:25:48.999Z</time></trkpt><trkpt lat="42.65823966974367" lon="13.68996802393275"><ele>295.0</ele><time>2026-04-18T13:25:49.999Z</time></trkpt><trkpt lat="42.65827839191219" lon="13.690049682848292"><ele>295.0</ele><time>2026-04-18T13:25:50.999Z</time></trkpt><trkpt lat="42.658313823821935" lon="13.690140347580634"><ele>295.0</ele><time>2026-04-18T13:25:51.999Z</time></trkpt><trkpt lat="42.65834356426273" lon="13.69024418012684"><ele>295.0</ele><time>2026-04-18T13:25:52.999Z</time></trkpt><trkpt lat="42.658363152291486" lon="13.690348473920736"><ele>295.0</ele><time>2026-04-18T13:25:53.999Z</time></trkpt><trkpt lat="42.65837261812439" lon="13.690459112682241"><ele>295.0</ele><time>2026-04-18T13:25:54.999Z</time></trkpt><trkpt lat="42.658370903182366" lon="13.69058835463865"><ele>295.0</ele><time>2026-04-18T13:25:55.999Z</time></trkpt><trkpt lat="42.65836180584006" lon="13.690708213299112"><ele>294.2</ele><time>2026-04-18T13:25:56.999Z</time></trkpt><trkpt lat="42.658337110229255" lon="13.690826880244721"><ele>293.4</ele><time>2026-04-18T13:25:57.999Z</time></trkpt><trkpt lat="42.65830776244133" lon="13.690943528652154"><ele>292.6</ele><time>2026-04-18T13:25:58.999Z</time></trkpt><trkpt lat="42.658277557582174" lon="13.691057549762826"><ele>291.8</ele><time>2026-04-18T13:25:59.999Z</time></trkpt><trkpt lat="42.658244939204145" lon="13.691176661907347"><ele>291.0</ele><time>2026-04-18T13:26:00.999Z</time></trkpt><trkpt lat="42.65822051836454" lon="13.691298973763573"><ele>290.1666666666667</ele><time>2026-04-18T13:26:01.999Z</time></trkpt><trkpt lat="42.65820496440776" lon="13.691424135759481"><ele>289.3333333333333</ele><time>2026-04-18T13:26:02.999Z</time></trkpt><trkpt lat="42.65819027548387" lon="13.691549055552366"><ele>288.5</ele><time>2026-04-18T13:26:03.999Z</time></trkpt><trkpt lat="42.65817902835653" lon="13.691662711707368"><ele>287.66666666666663</ele><time>2026-04-18T13:26:04.999Z</time></trkpt><trkpt lat="42.658173028096385" lon="13.691774780662263"><ele>286.8333333333333</ele><time>2026-04-18T13:26:05.999Z</time></trkpt><trkpt lat="42.65817075949997" lon="13.691877887420663"><ele>286.0</ele><time>2026-04-18T13:26:06.999Z</time></trkpt><trkpt lat="42.65816824565737" lon="13.691972732009715"><ele>285.5</ele><time>2026-04-18T13:26:07.999Z</time></trkpt><trkpt lat="42.65819027368598" lon="13.692136056270293"><ele>285.0</ele><time>2026-04-18T13:26:09.999Z</time></trkpt><trkpt lat="42.65820489251549" lon="13.692229624319529"><ele>284.5</ele><time>2026-04-18T13:26:10.999Z</time></trkpt><trkpt lat="42.65823686618052" lon="13.692326761332263"><ele>284.0</ele><time>2026-04-18T13:26:11.999Z</time></trkpt><trkpt lat="42.65827663292359" lon="13.692429309554997"><ele>283.5</ele><time>2026-04-18T13:26:12.999Z</time></trkpt><trkpt lat="42.658322942103176" lon="13.692533297010153"><ele>283.0</ele><time>2026-04-18T13:26:13.999Z</time></trkpt><trkpt lat="42.65837498553455" lon="13.692649424911586"><ele>283.0</ele><time>2026-04-18T13:26:14.999Z</time></trkpt><trkpt lat="42.65842927793825" lon="13.692769675138141"><ele>283.0</ele><time>2026-04-18T13:26:15.999Z</time></trkpt><trkpt lat="42.65848476391758" lon="13.692893676858073"><ele>283.0</ele><time>2026-04-18T13:26:16.999Z</time></trkpt><trkpt lat="42.658539247823256" lon="13.693020250228578"><ele>283.0</ele><time>2026-04-18T13:26:17.999Z</time></trkpt><trkpt lat="42.658594505168146" lon="13.69314666280115"><ele>283.0</ele><time>2026-04-18T13:26:18.998Z</time></trkpt><trkpt lat="42.65865103726605" lon="13.693274230571152"><ele>283.2</ele><time>2026-04-18T13:26:19.998Z</time></trkpt><trkpt lat="42.65870847394235" lon="13.693399270037471"><ele>283.4</ele><time>2026-04-18T13:26:20.998Z</time></trkpt><trkpt lat="42.658763360302295" lon="13.693526114996763"><ele>283.59999999999997</ele><time>2026-04-18T13:26:21.998Z</time></trkpt><trkpt lat="42.65881881350411" lon="13.693652174903312"><ele>283.8</ele><time>2026-04-18T13:26:22.998Z</time></trkpt><trkpt lat="42.65887625866534" lon="13.693777051794148"><ele>284.0</ele><time>2026-04-18T13:26:23.998Z</time></trkpt><trkpt lat="42.65893600030068" lon="13.693900906316856"><ele>284.0</ele><time>2026-04-18T13:26:24.998Z</time></trkpt><trkpt lat="42.65899534424985" lon="13.694023422898821"><ele>284.0</ele><time>2026-04-18T13:26:25.998Z</time></trkpt><trkpt lat="42.65905049370985" lon="13.694146025741004"><ele>284.0</ele><time>2026-04-18T13:26:26.997Z</time></trkpt><trkpt lat="42.65910729933786" lon="13.694276086776995"><ele>284.0</ele><time>2026-04-18T13:26:27.997Z</time></trkpt><trkpt lat="42.659163553144424" lon="13.694398989320977"><ele>284.0</ele><time>2026-04-18T13:26:28.997Z</time></trkpt><trkpt lat="42.65920569144316" lon="13.694531862130427"><ele>283.8</ele><time>2026-04-18T13:26:29.997Z</time></trkpt><trkpt lat="42.65927760306848" lon="13.69464122444266"><ele>283.59999999999997</ele><time>2026-04-18T13:26:30.997Z</time></trkpt><trkpt lat="42.65933390913694" lon="13.69476643547256"><ele>283.4</ele><time>2026-04-18T13:26:31.997Z</time></trkpt><trkpt lat="42.65939158671887" lon="13.694888522101747"><ele>283.2</ele><time>2026-04-18T13:26:32.997Z</time></trkpt><trkpt lat="42.65944594211877" lon="13.69501259753697"><ele>283.0</ele><time>2026-04-18T13:26:33.997Z</time></trkpt><trkpt lat="42.65949928787518" lon="13.695139589373861"><ele>283.4</ele><time>2026-04-18T13:26:34.997Z</time></trkpt><trkpt lat="42.65955714909795" lon="13.695264907063505"><ele>283.8</ele><time>2026-04-18T13:26:35.997Z</time></trkpt><trkpt lat="42.65961719857801" lon="13.695387786605021"><ele>284.2</ele><time>2026-04-18T13:26:36.997Z</time></trkpt><trkpt lat="42.6596754385" lon="13.695509250691055"><ele>284.6</ele><time>2026-04-18T13:26:37.997Z</time></trkpt><trkpt lat="42.65973942464645" lon="13.695633997230328"><ele>285.0</ele><time>2026-04-18T13:26:38.997Z</time></trkpt><trkpt lat="42.65977072973466" lon="13.6957800667753"><ele>285.0</ele><time>2026-04-18T13:26:39.997Z</time></trkpt><trkpt lat="42.65983008216317" lon="13.695909310372032"><ele>285.0</ele><time>2026-04-18T13:26:40.997Z</time></trkpt><trkpt lat="42.659886691205145" lon="13.696031435705587"><ele>285.0</ele><time>2026-04-18T13:26:41.997Z</time></trkpt><trkpt lat="42.659951191514665" lon="13.696163249556585"><ele>285.0</ele><time>2026-04-18T13:26:42.997Z</time></trkpt><trkpt lat="42.66003210093201" lon="13.69629174427624"><ele>285.2</ele><time>2026-04-18T13:26:43.997Z</time></trkpt><trkpt lat="42.66009016000222" lon="13.696432981670148"><ele>285.4</ele><time>2026-04-18T13:26:44.997Z</time></trkpt><trkpt lat="42.66014816008794" lon="13.696560405946213"><ele>285.6</ele><time>2026-04-18T13:26:45.997Z</time></trkpt><trkpt lat="42.66019703921798" lon="13.696640518785168"><ele>285.8</ele><time>2026-04-18T13:26:46.997Z</time></trkpt><trkpt lat="42.66026540721828" lon="13.696785069363578"><ele>286.0</ele><time>2026-04-18T13:26:48.997Z</time></trkpt><trkpt lat="42.660299142980904" lon="13.69687579091981"><ele>285.5</ele><time>2026-04-18T13:26:49.997Z</time></trkpt><trkpt lat="42.66035676071549" lon="13.696992384641614"><ele>285.0</ele><time>2026-04-18T13:26:51Z</time></trkpt><trkpt lat="42.66039467226829" lon="13.697069101474892"><ele>284.5</ele><time>2026-04-18T13:26:52Z</time></trkpt><trkpt lat="42.66043241353311" lon="13.697145473689801"><ele>284.0</ele><time>2026-04-18T13:26:53Z</time></trkpt><trkpt lat="42.66047105578637" lon="13.697223669368107"><ele>283.5</ele><time>2026-04-18T13:26:54Z</time></trkpt><trkpt lat="42.66051370768757" lon="13.697307866390213"><ele>283.0</ele><time>2026-04-18T13:26:55Z</time></trkpt><trkpt lat="42.660556034344516" lon="13.69739338592785"><ele>283.0</ele><time>2026-04-18T13:26:56Z</time></trkpt><trkpt lat="42.66060150417" lon="13.697485256198386"><ele>283.0</ele><time>2026-04-18T13:26:57Z</time></trkpt><trkpt lat="42.66065081782165" lon="13.697558384851675"><ele>283.0</ele><time>2026-04-18T13:26:58Z</time></trkpt><trkpt lat="42.6606812944759" lon="13.697645025424755"><ele>283.0</ele><time>2026-04-18T13:26:59Z</time></trkpt><trkpt lat="42.66073176385065" lon="13.69770906750304"><ele>283.0</ele><time>2026-04-18T13:27:00Z</time></trkpt><trkpt lat="42.66076489844399" lon="13.697787375730954"><ele>283.0</ele><time>2026-04-18T13:27:01Z</time></trkpt><trkpt lat="42.66082009380848" lon="13.697899850484715"><ele>282.4</ele><time>2026-04-18T13:27:03Z</time></trkpt><trkpt lat="42.66088065335058" lon="13.698013407486918"><ele>281.8</ele><time>2026-04-18T13:27:05Z</time></trkpt><trkpt lat="42.6609367463102" lon="13.698145329180416"><ele>281.2</ele><time>2026-04-18T13:27:07Z</time></trkpt><trkpt lat="42.660990050652956" lon="13.69825979398668"><ele>280.6</ele><time>2026-04-18T13:27:09Z</time></trkpt><trkpt lat="42.661059566307614" lon="13.698353471560406"><ele>280.0</ele><time>2026-04-18T13:27:10.999Z</time></trkpt><trkpt lat="42.66106982728848" lon="13.698460164837593"><ele>279.8</ele><time>2026-04-18T13:27:11.999Z</time></trkpt><trkpt lat="42.66114428809939" lon="13.698593769575613"><ele>279.6</ele><time>2026-04-18T13:27:13.999Z</time></trkpt><trkpt lat="42.661192768699365" lon="13.698651136732005"><ele>279.4</ele><time>2026-04-18T13:27:14.999Z</time></trkpt><trkpt lat="42.661254776932054" lon="13.698682219860602"><ele>279.2</ele><time>2026-04-18T13:27:15.999Z</time></trkpt><trkpt lat="42.66131986025992" lon="13.69868072929337"><ele>279.0</ele><time>2026-04-18T13:27:16.999Z</time></trkpt><trkpt lat="42.661443387401285" lon="13.698583589896014"><ele>279.0</ele><time>2026-04-18T13:27:18.999Z</time></trkpt><trkpt lat="42.66150838792422" lon="13.698435280191113"><ele>279.0</ele><time>2026-04-18T13:27:20.999Z</time></trkpt><trkpt lat="42.661511996119465" lon="13.698281738013446"><ele>279.0</ele><time>2026-04-18T13:27:22.999Z</time></trkpt><trkpt lat="42.6614959591934" lon="13.698168562719328"><ele>279.0</ele><time>2026-04-18T13:27:24.999Z</time></trkpt><trkpt lat="42.66148088029004" lon="13.698075234414455"><ele>279.0</ele><time>2026-04-18T13:27:26.999Z</time></trkpt><trkpt lat="42.66151073426918" lon="13.69796529948788"><ele>279.0</ele><time>2026-04-18T13:27:29.999Z</time></trkpt><trkpt lat="42.66155632535912" lon="13.697866097192549"><ele>279.0</ele><time>2026-04-18T13:27:31.999Z</time></trkpt><trkpt lat="42.661597927145486" lon="13.697778039040294"><ele>279.0</ele><time>2026-04-18T13:27:33.999Z</time></trkpt><trkpt lat="42.66163417149944" lon="13.697707434343597"><ele>279.0</ele><time>2026-04-18T13:27:35.999Z</time></trkpt><trkpt lat="42.661667154934975" lon="13.697633767075606"><ele>279.0</ele><time>2026-04-18T13:27:37.999Z</time></trkpt><trkpt lat="42.661740520232826" lon="13.69754031832384"><ele>279.0</ele><time>2026-04-18T13:27:41.999Z</time></trkpt><trkpt lat="42.66177181857655" lon="13.697459309862635"><ele>279.4</ele><time>2026-04-18T13:27:42.999Z</time></trkpt><trkpt lat="42.66181298806985" lon="13.697365122597603"><ele>279.79999999999995</ele><time>2026-04-18T13:27:43.999Z</time></trkpt><trkpt lat="42.6618568827149" lon="13.697264768448528"><ele>280.20000000000005</ele><time>2026-04-18T13:27:44.999Z</time></trkpt><trkpt lat="42.66191405786293" lon="13.697151917592855"><ele>280.6</ele><time>2026-04-18T13:27:45.999Z</time></trkpt><trkpt lat="42.66196960290734" lon="13.697035535312796"><ele>281.0</ele><time>2026-04-18T13:27:46.999Z</time></trkpt><trkpt lat="42.66202489771518" lon="13.696922540114933"><ele>281.40000000000003</ele><time>2026-04-18T13:27:47.999Z</time></trkpt><trkpt lat="42.66208045500953" lon="13.696809617696971"><ele>281.8</ele><time>2026-04-18T13:27:48.999Z</time></trkpt><trkpt lat="42.662134197826035" lon="13.696691986727437"><ele>282.20000000000005</ele><time>2026-04-18T13:27:49.999Z</time></trkpt><trkpt lat="42.66218682844866" lon="13.696574969938144"><ele>282.6</ele><time>2026-04-18T13:27:50.998Z</time></trkpt><trkpt lat="42.6622409033136" lon="13.696455656620508"><ele>283.0</ele><time>2026-04-18T13:27:51.998Z</time></trkpt><trkpt lat="42.66229661713467" lon="13.696337650093636"><ele>283.0</ele><time>2026-04-18T13:27:52.998Z</time></trkpt><trkpt lat="42.66235254644829" lon="13.696219549172843"><ele>283.0</ele><time>2026-04-18T13:27:53.998Z</time></trkpt><trkpt lat="42.66240793895068" lon="13.696099232186999"><ele>283.0</ele><time>2026-04-18T13:27:54.998Z</time></trkpt><trkpt lat="42.66246344791492" lon="13.695983161317326"><ele>283.0</ele><time>2026-04-18T13:27:55.998Z</time></trkpt><trkpt lat="42.66251809760567" lon="13.695875270711497"><ele>283.0</ele><time>2026-04-18T13:27:56.998Z</time></trkpt><trkpt lat="42.662572466536936" lon="13.69577006082392"><ele>283.8</ele><time>2026-04-18T13:27:57.998Z</time></trkpt><trkpt lat="42.662627180954495" lon="13.69566353731269"><ele>284.6</ele><time>2026-04-18T13:27:58.998Z</time></trkpt><trkpt lat="42.66268164162478" lon="13.695556191121995"><ele>285.4</ele><time>2026-04-18T13:27:59.998Z</time></trkpt><trkpt lat="42.66273349313366" lon="13.69544688826111"><ele>286.2</ele><time>2026-04-18T13:28:00.998Z</time></trkpt><trkpt lat="42.66278511644994" lon="13.695337677002287"><ele>287.0</ele><time>2026-04-18T13:28:01.998Z</time></trkpt><trkpt lat="42.66283494410389" lon="13.695231423240976"><ele>287.83333333333337</ele><time>2026-04-18T13:28:02.998Z</time></trkpt><trkpt lat="42.66288582468961" lon="13.695130389915754"><ele>288.6666666666667</ele><time>2026-04-18T13:28:03.998Z</time></trkpt><trkpt lat="42.66293344220915" lon="13.695035609379707"><ele>289.5</ele><time>2026-04-18T13:28:04.998Z</time></trkpt><trkpt lat="42.66297812282009" lon="13.694938825810004"><ele>290.3333333333333</ele><time>2026-04-18T13:28:05.998Z</time></trkpt><trkpt lat="42.663021473417544" lon="13.694845989848032"><ele>291.16666666666663</ele><time>2026-04-18T13:28:06.998Z</time></trkpt><trkpt lat="42.663062673438326" lon="13.69475730341672"><ele>292.0</ele><time>2026-04-18T13:28:07.998Z</time></trkpt><trkpt lat="42.66310235034627" lon="13.69466978528724"><ele>292.0</ele><time>2026-04-18T13:28:08.998Z</time></trkpt><trkpt lat="42.66314440851986" lon="13.694581315117649"><ele>292.0</ele><time>2026-04-18T13:28:09.998Z</time></trkpt><trkpt lat="42.66318795269371" lon="13.694492236257835"><ele>292.0</ele><time>2026-04-18T13:28:10.998Z</time></trkpt><trkpt lat="42.66323422298694" lon="13.69440243075053"><ele>292.0</ele><time>2026-04-18T13:28:11.998Z</time></trkpt><trkpt lat="42.66328442022325" lon="13.6943135525719"><ele>292.0</ele><time>2026-04-18T13:28:12.998Z</time></trkpt><trkpt lat="42.663335328631206" lon="13.694219885526977"><ele>292.0</ele><time>2026-04-18T13:28:13.998Z</time></trkpt><trkpt lat="42.66338236004985" lon="13.694119959210129"><ele>290.6</ele><time>2026-04-18T13:28:14.998Z</time></trkpt><trkpt lat="42.66342733588894" lon="13.694014308842776"><ele>289.2</ele><time>2026-04-18T13:28:15.998Z</time></trkpt><trkpt lat="42.66347509490873" lon="13.693908257670765"><ele>287.8</ele><time>2026-04-18T13:28:16.998Z</time></trkpt><trkpt lat="42.663523170870086" lon="13.693803394354578"><ele>286.4</ele><time>2026-04-18T13:28:17.998Z</time></trkpt><trkpt lat="42.66357079573841" lon="13.69369996540271"><ele>285.0</ele><time>2026-04-18T13:28:18.998Z</time></trkpt><trkpt lat="42.66361943260791" lon="13.693596741675659"><ele>286.1666666666667</ele><time>2026-04-18T13:28:19.998Z</time></trkpt><trkpt lat="42.66366708708679" lon="13.69349481316558"><ele>287.3333333333333</ele><time>2026-04-18T13:28:20.998Z</time></trkpt><trkpt lat="42.663713486336235" lon="13.693395575496194"><ele>288.5</ele><time>2026-04-18T13:28:21.998Z</time></trkpt><trkpt lat="42.66375964060192" lon="13.693299152982076"><ele>289.66666666666663</ele><time>2026-04-18T13:28:22.998Z</time></trkpt><trkpt lat="42.66380460558319" lon="13.693202533634327"><ele>290.8333333333333</ele><time>2026-04-18T13:28:23.998Z</time></trkpt><trkpt lat="42.6638491438115" lon="13.693111992757053"><ele>292.0</ele><time>2026-04-18T13:28:24.998Z</time></trkpt><trkpt lat="42.6638929470076" lon="13.693022297970082"><ele>292.0</ele><time>2026-04-18T13:28:25.998Z</time></trkpt><trkpt lat="42.66393313568368" lon="13.692932821716537"><ele>292.0</ele><time>2026-04-18T13:28:26.998Z</time></trkpt><trkpt lat="42.66396428059636" lon="13.692853194376768"><ele>292.0</ele><time>2026-04-18T13:28:27.998Z</time></trkpt><trkpt lat="42.664025591984306" lon="13.69273809137648"><ele>292.0</ele><time>2026-04-18T13:28:29.998Z</time></trkpt><trkpt lat="42.66409441183263" lon="13.692623679351806"><ele>292.0</ele><time>2026-04-18T13:28:31.997Z</time></trkpt><trkpt lat="42.66415377083744" lon="13.692520986384478"><ele>293.4</ele><time>2026-04-18T13:28:33.997Z</time></trkpt><trkpt lat="42.664221736394666" lon="13.692364867694426"><ele>294.79999999999995</ele><time>2026-04-18T13:28:35.997Z</time></trkpt><trkpt lat="42.66426181523128" lon="13.692258038968117"><ele>296.2</ele><time>2026-04-18T13:28:36.997Z</time></trkpt><trkpt lat="42.66431600993268" lon="13.692142505260119"><ele>297.59999999999997</ele><time>2026-04-18T13:28:37.997Z</time></trkpt><trkpt lat="42.66438042019639" lon="13.692019867428996"><ele>299.0</ele><time>2026-04-18T13:28:38.997Z</time></trkpt><trkpt lat="42.66444735230676" lon="13.691886503954459"><ele>299.0</ele><time>2026-04-18T13:28:39.997Z</time></trkpt><trkpt lat="42.664520771997836" lon="13.691745097949358"><ele>299.0</ele><time>2026-04-18T13:28:40.997Z</time></trkpt><trkpt lat="42.66459364211517" lon="13.69159949499523"><ele>299.0</ele><time>2026-04-18T13:28:41.997Z</time></trkpt><trkpt lat="42.66467114578134" lon="13.691440189943178"><ele>299.0</ele><time>2026-04-18T13:28:42.997Z</time></trkpt><trkpt lat="42.66475566633751" lon="13.691273183055202"><ele>299.0</ele><time>2026-04-18T13:28:43.997Z</time></trkpt><trkpt lat="42.664839227199806" lon="13.691105565405238"><ele>299.0</ele><time>2026-04-18T13:28:44.997Z</time></trkpt><trkpt lat="42.664923852070935" lon="13.690936013127171"><ele>299.0</ele><time>2026-04-18T13:28:45.997Z</time></trkpt><trkpt lat="42.66500850834673" lon="13.690764077996489"><ele>302.6666666666667</ele><time>2026-04-18T13:28:46.997Z</time></trkpt><trkpt lat="42.665092455940616" lon="13.690591225801573"><ele>306.3333333333333</ele><time>2026-04-18T13:28:47.997Z</time></trkpt><trkpt lat="42.66518010871855" lon="13.690416946719047"><ele>310.0</ele><time>2026-04-18T13:28:48.997Z</time></trkpt><trkpt lat="42.66526529121883" lon="13.6902450158358"><ele>308.66666666666663</ele><time>2026-04-18T13:28:49.997Z</time></trkpt><trkpt lat="42.66534926359815" lon="13.69007485235775"><ele>307.3333333333333</ele><time>2026-04-18T13:28:50.997Z</time></trkpt><trkpt lat="42.66543080545043" lon="13.689901012504311"><ele>306.0</ele><time>2026-04-18T13:28:51.997Z</time></trkpt><trkpt lat="42.66551183218905" lon="13.689729349483027"><ele>306.0</ele><time>2026-04-18T13:28:52.997Z</time></trkpt><trkpt lat="42.66559442983382" lon="13.689555447571193"><ele>306.0</ele><time>2026-04-18T13:28:53.997Z</time></trkpt><trkpt lat="42.66568019521433" lon="13.689377668479468"><ele>306.0</ele><time>2026-04-18T13:28:54.997Z</time></trkpt><trkpt lat="42.665766013935546" lon="13.689201779214324"><ele>310.0</ele><time>2026-04-18T13:28:56Z</time></trkpt><trkpt lat="42.665851396148774" lon="13.689028701471589"><ele>314.0</ele><time>2026-04-18T13:28:57Z</time></trkpt><trkpt lat="42.66593728090819" lon="13.688855701708434"><ele>318.0</ele><time>2026-04-18T13:28:58Z</time></trkpt><trkpt lat="42.66602132922519" lon="13.688685108009189"><ele>316.5</ele><time>2026-04-18T13:28:59Z</time></trkpt><trkpt lat="42.66609888753194" lon="13.688520171681477"><ele>315.0</ele><time>2026-04-18T13:29:00Z</time></trkpt><trkpt lat="42.66617322126561" lon="13.68836111918328"><ele>313.5</ele><time>2026-04-18T13:29:01Z</time></trkpt><trkpt lat="42.66624169800423" lon="13.688208913777446"><ele>312.0</ele><time>2026-04-18T13:29:02Z</time></trkpt><trkpt lat="42.66630508520139" lon="13.68807116095668"><ele>312.0</ele><time>2026-04-18T13:29:03Z</time></trkpt><trkpt lat="42.66637718942215" lon="13.687929722046633"><ele>312.0</ele><time>2026-04-18T13:29:04Z</time></trkpt><trkpt lat="42.666447642364965" lon="13.687791175744492"><ele>312.0</ele><time>2026-04-18T13:29:05Z</time></trkpt><trkpt lat="42.66650880432886" lon="13.687651771343118"><ele>312.0</ele><time>2026-04-18T13:29:06Z</time></trkpt><trkpt lat="42.66656545089884" lon="13.687502988362128"><ele>313.5</ele><time>2026-04-18T13:29:07Z</time></trkpt><trkpt lat="42.66661953677808" lon="13.687347688214508"><ele>315.0</ele><time>2026-04-18T13:29:08Z</time></trkpt><trkpt lat="42.66667072863543" lon="13.687185861980549"><ele>316.5</ele><time>2026-04-18T13:29:09Z</time></trkpt><trkpt lat="42.666725730097234" lon="13.687023986747786"><ele>318.0</ele><time>2026-04-18T13:29:10Z</time></trkpt><trkpt lat="42.66677068175916" lon="13.686861474004825"><ele>318.5</ele><time>2026-04-18T13:29:11Z</time></trkpt><trkpt lat="42.666812469135934" lon="13.686693766375807"><ele>319.0</ele><time>2026-04-18T13:29:12Z</time></trkpt><trkpt lat="42.666855410086065" lon="13.686524812668583"><ele>319.5</ele><time>2026-04-18T13:29:13Z</time></trkpt><trkpt lat="42.66689638531305" lon="13.686353572225068"><ele>320.0</ele><time>2026-04-18T13:29:14Z</time></trkpt><trkpt lat="42.666945811347354" lon="13.686192397468792"><ele>314.5</ele><time>2026-04-18T13:29:15Z</time></trkpt><trkpt lat="42.666998957683816" lon="13.686031086951205"><ele>309.0</ele><time>2026-04-18T13:29:16Z</time></trkpt><trkpt lat="42.6670520207441" lon="13.685867756547184"><ele>303.5</ele><time>2026-04-18T13:29:17Z</time></trkpt><trkpt lat="42.667098120632744" lon="13.68570179254797"><ele>298.0</ele><time>2026-04-18T13:29:18Z</time></trkpt><trkpt lat="42.66713575497287" lon="13.685533448033024"><ele>298.0</ele><time>2026-04-18T13:29:19Z</time></trkpt><trkpt lat="42.66716635434607" lon="13.685355676473968"><ele>298.0</ele><time>2026-04-18T13:29:20Z</time></trkpt><trkpt lat="42.66720109785141" lon="13.685174790955827"><ele>298.0</ele><time>2026-04-18T13:29:21Z</time></trkpt><trkpt lat="42.66725542525763" lon="13.685003379793052"><ele>298.0</ele><time>2026-04-18T13:29:21.999Z</time></trkpt><trkpt lat="42.66732769361102" lon="13.684844146186997"><ele>299.0</ele><time>2026-04-18T13:29:22.999Z</time></trkpt><trkpt lat="42.667404668636145" lon="13.684693583846002"><ele>300.0</ele><time>2026-04-18T13:29:23.999Z</time></trkpt><trkpt lat="42.667487332579014" lon="13.684540913545796"><ele>301.0</ele><time>2026-04-18T13:29:24.999Z</time></trkpt><trkpt lat="42.667578025303385" lon="13.684389569180722"><ele>302.0</ele><time>2026-04-18T13:29:25.999Z</time></trkpt><trkpt lat="42.667675864961325" lon="13.684240329842824"><ele>298.6666666666667</ele><time>2026-04-18T13:29:26.999Z</time></trkpt><trkpt lat="42.66778102871882" lon="13.684094772987237"><ele>295.3333333333333</ele><time>2026-04-18T13:29:27.999Z</time></trkpt><trkpt lat="42.66789285517086" lon="13.68395334171996"><ele>292.0</ele><time>2026-04-18T13:29:28.999Z</time></trkpt><trkpt lat="42.66800345127247" lon="13.683814263169818"><ele>292.0</ele><time>2026-04-18T13:29:29.999Z</time></trkpt><trkpt lat="42.668110443254704" lon="13.683672275845435"><ele>292.0</ele><time>2026-04-18T13:29:30.999Z</time></trkpt><trkpt lat="42.66821195640359" lon="13.683524268263616"><ele>292.0</ele><time>2026-04-18T13:29:31.999Z</time></trkpt><trkpt lat="42.668315444170304" lon="13.68337190714061"><ele>291.25</ele><time>2026-04-18T13:29:32.999Z</time></trkpt><trkpt lat="42.66842274480807" lon="13.683225203785634"><ele>290.5</ele><time>2026-04-18T13:29:33.999Z</time></trkpt><trkpt lat="42.668532259200774" lon="13.683087880887767"><ele>289.75</ele><time>2026-04-18T13:29:34.999Z</time></trkpt><trkpt lat="42.6686468900423" lon="13.682963565720197"><ele>289.0</ele><time>2026-04-18T13:29:35.999Z</time></trkpt><trkpt lat="42.66876315626491" lon="13.6828570352546"><ele>291.5</ele><time>2026-04-18T13:29:36.999Z</time></trkpt><trkpt lat="42.66888236145045" lon="13.682762447943995"><ele>294.0</ele><time>2026-04-18T13:29:37.999Z</time></trkpt><trkpt lat="42.66900368423593" lon="13.682680722581063"><ele>296.5</ele><time>2026-04-18T13:29:38.999Z</time></trkpt><trkpt lat="42.66912526250684" lon="13.682600456866393"><ele>299.0</ele><time>2026-04-18T13:29:39.999Z</time></trkpt><trkpt lat="42.669247449881134" lon="13.68251520249736"><ele>299.0</ele><time>2026-04-18T13:29:40.999Z</time></trkpt><trkpt lat="42.66937140071135" lon="13.682430371405081"><ele>299.0</ele><time>2026-04-18T13:29:41.999Z</time></trkpt><trkpt lat="42.66949442054474" lon="13.682345409251633"><ele>299.0</ele><time>2026-04-18T13:29:42.999Z</time></trkpt><trkpt lat="42.669613514836655" lon="13.682262626701906"><ele>299.0</ele><time>2026-04-18T13:29:43.999Z</time></trkpt><trkpt lat="42.66972839033861" lon="13.682185875141206"><ele>298.0</ele><time>2026-04-18T13:29:44.999Z</time></trkpt><trkpt lat="42.669839051640544" lon="13.682112888924625"><ele>297.0</ele><time>2026-04-18T13:29:45.999Z</time></trkpt><trkpt lat="42.66994326395248" lon="13.68204266476725"><ele>296.0</ele><time>2026-04-18T13:29:46.999Z</time></trkpt><trkpt lat="42.670036731740275" lon="13.681982998309506"><ele>295.0</ele><time>2026-04-18T13:29:47.999Z</time></trkpt><trkpt lat="42.67012675030963" lon="13.681939155272714"><ele>294.0</ele><time>2026-04-18T13:29:48.999Z</time></trkpt><trkpt lat="42.67021525488575" lon="13.681923364319863"><ele>294.3333333333333</ele><time>2026-04-18T13:29:49.999Z</time></trkpt><trkpt lat="42.67029378646147" lon="13.681930338055192"><ele>294.6666666666667</ele><time>2026-04-18T13:29:50.999Z</time></trkpt><trkpt lat="42.67036547254315" lon="13.681961980514718"><ele>295.0</ele><time>2026-04-18T13:29:51.999Z</time></trkpt><trkpt lat="42.6704259387081" lon="13.682007197474757"><ele>295.33333333333337</ele><time>2026-04-18T13:29:52.999Z</time></trkpt><trkpt lat="42.67047564665687" lon="13.68206691564288"><ele>295.6666666666667</ele><time>2026-04-18T13:29:53.999Z</time></trkpt><trkpt lat="42.67052475792751" lon="13.682226310694118"><ele>296.0</ele><time>2026-04-18T13:29:55.999Z</time></trkpt><trkpt lat="42.67053489332216" lon="13.682326814152832"><ele>296.0</ele><time>2026-04-18T13:29:56.999Z</time></trkpt><trkpt lat="42.67055931377546" lon="13.682419589052628"><ele>296.0</ele><time>2026-04-18T13:29:57.999Z</time></trkpt><trkpt lat="42.67061353930359" lon="13.682488523688294"><ele>296.0</ele><time>2026-04-18T13:29:58.999Z</time></trkpt><trkpt lat="42.67068282946496" lon="13.68252104725836"><ele>296.0</ele><time>2026-04-18T13:29:59.999Z</time></trkpt><trkpt lat="42.670757533759655" lon="13.68251537642874"><ele>296.0</ele><time>2026-04-18T13:30:00.998Z</time></trkpt><trkpt lat="42.67083044156155" lon="13.682473410698138"><ele>296.0</ele><time>2026-04-18T13:30:01.998Z</time></trkpt><trkpt lat="42.67089476284359" lon="13.682393622296718"><ele>296.0</ele><time>2026-04-18T13:30:02.998Z</time></trkpt><trkpt lat="42.670961563382214" lon="13.682296537893201"><ele>296.0</ele><time>2026-04-18T13:30:03.998Z</time></trkpt><trkpt lat="42.671045915972556" lon="13.682212978561136"><ele>296.0</ele><time>2026-04-18T13:30:04.998Z</time></trkpt><trkpt lat="42.67114957177273" lon="13.682142153922607"><ele>296.0</ele><time>2026-04-18T13:30:05.998Z</time></trkpt><trkpt lat="42.67125479699024" lon="13.682054752231686"><ele>296.0</ele><time>2026-04-18T13:30:06.998Z</time></trkpt><trkpt lat="42.67134666522919" lon="13.681933208654863"><ele>299.25</ele><time>2026-04-18T13:30:07.998Z</time></trkpt><trkpt lat="42.671432439372545" lon="13.681795397208443"><ele>302.5</ele><time>2026-04-18T13:30:08.998Z</time></trkpt><trkpt lat="42.671526964160854" lon="13.681657960787328"><ele>305.75</ele><time>2026-04-18T13:30:09.998Z</time></trkpt><trkpt lat="42.67162763840374" lon="13.681532068683381"><ele>309.0</ele><time>2026-04-18T13:30:10.998Z</time></trkpt><trkpt lat="42.67173176287002" lon="13.681407559478975"><ele>309.0</ele><time>2026-04-18T13:30:11.998Z</time></trkpt><trkpt lat="42.67183659505702" lon="13.681284312009865"><ele>309.0</ele><time>2026-04-18T13:30:12.998Z</time></trkpt><trkpt lat="42.671945378223846" lon="13.681170768111162"><ele>309.0</ele><time>2026-04-18T13:30:13.998Z</time></trkpt><trkpt lat="42.67206763298011" lon="13.681083021623472"><ele>309.0</ele><time>2026-04-18T13:30:14.998Z</time></trkpt><trkpt lat="42.6721979328403" lon="13.681024082495984"><ele>310.25</ele><time>2026-04-18T13:30:15.998Z</time></trkpt><trkpt lat="42.67231862579927" lon="13.680962917634236"><ele>311.5</ele><time>2026-04-18T13:30:16.998Z</time></trkpt><trkpt lat="42.67241263027194" lon="13.680856108632806"><ele>312.75</ele><time>2026-04-18T13:30:17.998Z</time></trkpt><trkpt lat="42.672463373313015" lon="13.6807173830754"><ele>314.0</ele><time>2026-04-18T13:30:18.998Z</time></trkpt><trkpt lat="42.67245788007838" lon="13.680582628629422"><ele>314.0</ele><time>2026-04-18T13:30:19.998Z</time></trkpt><trkpt lat="42.67240670508858" lon="13.680464006448878"><ele>314.0</ele><time>2026-04-18T13:30:20.998Z</time></trkpt><trkpt lat="42.67233241834265" lon="13.680419441393047"><ele>314.0</ele><time>2026-04-18T13:30:21.998Z</time></trkpt><trkpt lat="42.672235076621526" lon="13.680418199645477"><ele>314.0</ele><time>2026-04-18T13:30:22.998Z</time></trkpt><trkpt lat="42.67212936427988" lon="13.680455224297488"><ele>314.0</ele><time>2026-04-18T13:30:23.998Z</time></trkpt><trkpt lat="42.672025571154656" lon="13.680520098098867"><ele>316.25</ele><time>2026-04-18T13:30:24.998Z</time></trkpt><trkpt lat="42.671930287152236" lon="13.680612254499135"><ele>318.5</ele><time>2026-04-18T13:30:25.998Z</time></trkpt><trkpt lat="42.67182960844562" lon="13.680788644635918"><ele>320.75</ele><time>2026-04-18T13:30:26.998Z</time></trkpt><trkpt lat="42.67175228146868" lon="13.680959589846664"><ele>323.0</ele><time>2026-04-18T13:30:27.998Z</time></trkpt><trkpt lat="42.67167465195778" lon="13.681065645109257"><ele>323.0</ele><time>2026-04-18T13:30:28.998Z</time></trkpt><trkpt lat="42.67158260764095" lon="13.68106313280041"><ele>323.0</ele><time>2026-04-18T13:30:29.998Z</time></trkpt><trkpt lat="42.671515957116725" lon="13.681005209809706"><ele>323.0</ele><time>2026-04-18T13:30:30.998Z</time></trkpt><trkpt lat="42.67146333226831" lon="13.680900171649748"><ele>323.0</ele><time>2026-04-18T13:30:31.998Z</time></trkpt><trkpt lat="42.67143838166658" lon="13.680764800603217"><ele>323.0</ele><time>2026-04-18T13:30:32.998Z</time></trkpt><trkpt lat="42.671428480074375" lon="13.680600787907157"><ele>323.0</ele><time>2026-04-18T13:30:33.998Z</time></trkpt><trkpt lat="42.671417532747434" lon="13.680433161718486"><ele>323.0</ele><time>2026-04-18T13:30:34.998Z</time></trkpt><trkpt lat="42.671357647004086" lon="13.680257635512435"><ele>323.0</ele><time>2026-04-18T13:30:35.998Z</time></trkpt><trkpt lat="42.67126017554557" lon="13.68008902109641"><ele>323.0</ele><time>2026-04-18T13:30:36.998Z</time></trkpt><trkpt lat="42.67113901148859" lon="13.679928393501344"><ele>322.75</ele><time>2026-04-18T13:30:37.998Z</time></trkpt><trkpt lat="42.67100631737664" lon="13.679797746346859"><ele>322.5</ele><time>2026-04-18T13:30:38.998Z</time></trkpt><trkpt lat="42.670873772012506" lon="13.679694994485562"><ele>322.25</ele><time>2026-04-18T13:30:39.998Z</time></trkpt><trkpt lat="42.67077461905244" lon="13.679591365747426"><ele>322.0</ele><time>2026-04-18T13:30:40.998Z</time></trkpt><trkpt lat="42.670707817287095" lon="13.679453379098646"><ele>325.0</ele><time>2026-04-18T13:30:41.997Z</time></trkpt><trkpt lat="42.670670206092325" lon="13.679274084761198"><ele>328.0</ele><time>2026-04-18T13:30:42.997Z</time></trkpt><trkpt lat="42.67066375820878" lon="13.679075360283202"><ele>331.0</ele><time>2026-04-18T13:30:43.997Z</time></trkpt><trkpt lat="42.6706886285942" lon="13.678862359741823"><ele>334.0</ele><time>2026-04-18T13:30:44.997Z</time></trkpt><trkpt lat="42.67072763618549" lon="13.678657324674306"><ele>333.5</ele><time>2026-04-18T13:30:45.997Z</time></trkpt><trkpt lat="42.67079268815216" lon="13.6784775343972"><ele>333.0</ele><time>2026-04-18T13:30:46.997Z</time></trkpt><trkpt lat="42.67089859804852" lon="13.678343898197683"><ele>332.5</ele><time>2026-04-18T13:30:47.997Z</time></trkpt><trkpt lat="42.67101936867522" lon="13.678221433443914"><ele>332.0</ele><time>2026-04-18T13:30:48.997Z</time></trkpt><trkpt lat="42.671125959741644" lon="13.678087905275301"><ele>335.5</ele><time>2026-04-18T13:30:49.997Z</time></trkpt><trkpt lat="42.67121199359602" lon="13.677930557663968"><ele>339.0</ele><time>2026-04-18T13:30:50.997Z</time></trkpt><trkpt lat="42.67128372598738" lon="13.677762104466918"><ele>342.5</ele><time>2026-04-18T13:30:51.997Z</time></trkpt><trkpt lat="42.67135009373115" lon="13.677597867513503"><ele>346.0</ele><time>2026-04-18T13:30:52.997Z</time></trkpt><trkpt lat="42.67142370546154" lon="13.677446305340744"><ele>346.0</ele><time>2026-04-18T13:30:53.997Z</time></trkpt><trkpt lat="42.671511615215074" lon="13.677310273821437"><ele>346.0</ele><time>2026-04-18T13:30:54.997Z</time></trkpt><trkpt lat="42.67162096294067" lon="13.67721435976938"><ele>346.0</ele><time>2026-04-18T13:30:55.997Z</time></trkpt><trkpt lat="42.671742803816095" lon="13.67715595320739"><ele>346.0</ele><time>2026-04-18T13:30:56.997Z</time></trkpt><trkpt lat="42.67186728451074" lon="13.677111522281402"><ele>347.5</ele><time>2026-04-18T13:30:57.997Z</time></trkpt><trkpt lat="42.67199536749792" lon="13.677068983157225"><ele>349.0</ele><time>2026-04-18T13:30:58.997Z</time></trkpt><trkpt lat="42.67212820589115" lon="13.677026084506446"><ele>350.5</ele><time>2026-04-18T13:30:59.997Z</time></trkpt><trkpt lat="42.672266849541735" lon="13.676984669331038"><ele>352.0</ele><time>2026-04-18T13:31:00.997Z</time></trkpt><trkpt lat="42.672408004792366" lon="13.67694549668535"><ele>351.25</ele><time>2026-04-18T13:31:02Z</time></trkpt><trkpt lat="42.672548806447246" lon="13.676906698035138"><ele>350.5</ele><time>2026-04-18T13:31:03Z</time></trkpt><trkpt lat="42.67268978153911" lon="13.676867716590683"><ele>349.75</ele><time>2026-04-18T13:31:04Z</time></trkpt><trkpt lat="42.67282991019587" lon="13.676831016236163"><ele>349.0</ele><time>2026-04-18T13:31:05Z</time></trkpt><trkpt lat="42.67296865991661" lon="13.676792747466417"><ele>349.0</ele><time>2026-04-18T13:31:06Z</time></trkpt><trkpt lat="42.67310581443887" lon="13.676757052511126"><ele>349.0</ele><time>2026-04-18T13:31:07Z</time></trkpt><trkpt lat="42.673244648743946" lon="13.676722639190485"><ele>349.0</ele><time>2026-04-18T13:31:08Z</time></trkpt><trkpt lat="42.673383203969614" lon="13.676687684481532"><ele>349.0</ele><time>2026-04-18T13:31:09Z</time></trkpt><trkpt lat="42.67352148784638" lon="13.67665112027609"><ele>350.0</ele><time>2026-04-18T13:31:10Z</time></trkpt><trkpt lat="42.67365736526774" lon="13.676613406347549"><ele>351.0</ele><time>2026-04-18T13:31:11Z</time></trkpt><trkpt lat="42.67379100070285" lon="13.676573500562027"><ele>352.0</ele><time>2026-04-18T13:31:12Z</time></trkpt><trkpt lat="42.67392266331966" lon="13.676530190201674"><ele>353.0</ele><time>2026-04-18T13:31:13Z</time></trkpt><trkpt lat="42.674055572693575" lon="13.676479679085435"><ele>353.0</ele><time>2026-04-18T13:31:14Z</time></trkpt><trkpt lat="42.67418663789001" lon="13.676420816396053"><ele>353.0</ele><time>2026-04-18T13:31:15Z</time></trkpt><trkpt lat="42.67431419508895" lon="13.676360412177804"><ele>353.0</ele><time>2026-04-18T13:31:16Z</time></trkpt><trkpt lat="42.67444088534175" lon="13.676296953226599"><ele>353.0</ele><time>2026-04-18T13:31:17Z</time></trkpt><trkpt lat="42.67456822461891" lon="13.67623063099972"><ele>354.5</ele><time>2026-04-18T13:31:18Z</time></trkpt><trkpt lat="42.67469440692481" lon="13.676159597045807"><ele>356.0</ele><time>2026-04-18T13:31:19Z</time></trkpt><trkpt lat="42.67481945545702" lon="13.676086567237418"><ele>357.5</ele><time>2026-04-18T13:31:20Z</time></trkpt><trkpt lat="42.674947168974995" lon="13.676016263648487"><ele>359.0</ele><time>2026-04-18T13:31:21Z</time></trkpt><trkpt lat="42.67507514427787" lon="13.675945648241086"><ele>360.0</ele><time>2026-04-18T13:31:22Z</time></trkpt><trkpt lat="42.6752041657294" lon="13.675875035178445"><ele>361.0</ele><time>2026-04-18T13:31:23Z</time></trkpt><trkpt lat="42.67533063128224" lon="13.675803990566935"><ele>362.0</ele><time>2026-04-18T13:31:24Z</time></trkpt><trkpt lat="42.67545964042156" lon="13.67573304818655"><ele>363.0</ele><time>2026-04-18T13:31:25Z</time></trkpt><trkpt lat="42.67558813852508" lon="13.675660973657072"><ele>363.0</ele><time>2026-04-18T13:31:26Z</time></trkpt><trkpt lat="42.67571774712276" lon="13.675588860516882"><ele>363.0</ele><time>2026-04-18T13:31:27Z</time></trkpt><trkpt lat="42.67584768573788" lon="13.675515831404045"><ele>363.0</ele><time>2026-04-18T13:31:28Z</time></trkpt><trkpt lat="42.67597885483173" lon="13.675446354095852"><ele>363.0</ele><time>2026-04-18T13:31:29Z</time></trkpt><trkpt lat="42.676110489307604" lon="13.675377512452465"><ele>363.0</ele><time>2026-04-18T13:31:30Z</time></trkpt><trkpt lat="42.676242163224984" lon="13.675308506331907"><ele>363.0</ele><time>2026-04-18T13:31:31Z</time></trkpt><trkpt lat="42.67636986017418" lon="13.675232829721354"><ele>363.0</ele><time>2026-04-18T13:31:32Z</time></trkpt><trkpt lat="42.676497422244914" lon="13.675149279877417"><ele>363.0</ele><time>2026-04-18T13:31:33Z</time></trkpt><trkpt lat="42.6766226251719" lon="13.675055634019618"><ele>362.5</ele><time>2026-04-18T13:31:34Z</time></trkpt><trkpt lat="42.67674011974273" lon="13.674952429262085"><ele>362.0</ele><time>2026-04-18T13:31:34.999Z</time></trkpt><trkpt lat="42.67685483983622" lon="13.674846185902704"><ele>361.5</ele><time>2026-04-18T13:31:35.999Z</time></trkpt><trkpt lat="42.67696942276772" lon="13.674739354960865"><ele>361.0</ele><time>2026-04-18T13:31:36.999Z</time></trkpt><trkpt lat="42.67708487972826" lon="13.674631532995312"><ele>361.0</ele><time>2026-04-18T13:31:37.999Z</time></trkpt><trkpt lat="42.67719841274466" lon="13.674523661862839"><ele>361.0</ele><time>2026-04-18T13:31:38.999Z</time></trkpt><trkpt lat="42.67731384824641" lon="13.674411586379872"><ele>361.0</ele><time>2026-04-18T13:31:39.999Z</time></trkpt><trkpt lat="42.67742401162388" lon="13.674300180525039"><ele>361.0</ele><time>2026-04-18T13:31:40.999Z</time></trkpt><trkpt lat="42.67753669672829" lon="13.674185324762556"><ele>361.0</ele><time>2026-04-18T13:31:41.999Z</time></trkpt><trkpt lat="42.67765075377557" lon="13.674070522707778"><ele>361.0</ele><time>2026-04-18T13:31:42.999Z</time></trkpt><trkpt lat="42.67776187175374" lon="13.673957728175319"><ele>361.0</ele><time>2026-04-18T13:31:43.999Z</time></trkpt><trkpt lat="42.67787450269768" lon="13.673845933411407"><ele>361.0</ele><time>2026-04-18T13:31:44.999Z</time></trkpt><trkpt lat="42.677987299406475" lon="13.673738236911047"><ele>361.0</ele><time>2026-04-18T13:31:45.999Z</time></trkpt><trkpt lat="42.67809947294343" lon="13.67362971908725"><ele>361.0</ele><time>2026-04-18T13:31:46.999Z</time></trkpt><trkpt lat="42.67821519315737" lon="13.673517930962932"><ele>361.0</ele><time>2026-04-18T13:31:47.999Z</time></trkpt><trkpt lat="42.678329409369226" lon="13.673407971830937"><ele>361.0</ele><time>2026-04-18T13:31:48.999Z</time></trkpt><trkpt lat="42.67843674959854" lon="13.673301385980094"><ele>365.0</ele><time>2026-04-18T13:31:49.999Z</time></trkpt><trkpt lat="42.678546719925535" lon="13.67318999594471"><ele>369.0</ele><time>2026-04-18T13:31:50.999Z</time></trkpt><trkpt lat="42.67865513138654" lon="13.673082631874744"><ele>373.0</ele><time>2026-04-18T13:31:51.999Z</time></trkpt><trkpt lat="42.67876277345833" lon="13.672973952487574"><ele>377.0</ele><time>2026-04-18T13:31:52.999Z</time></trkpt><trkpt lat="42.67887072460296" lon="13.672868188319763"><ele>377.75</ele><time>2026-04-18T13:31:53.999Z</time></trkpt><trkpt lat="42.67898075097265" lon="13.672760523016501"><ele>378.5</ele><time>2026-04-18T13:31:54.999Z</time></trkpt><trkpt lat="42.67909575022838" lon="13.672653419772905"><ele>379.25</ele><time>2026-04-18T13:31:55.999Z</time></trkpt><trkpt lat="42.67920421097158" lon="13.672547554251647"><ele>380.0</ele><time>2026-04-18T13:31:56.999Z</time></trkpt><trkpt lat="42.67930719717862" lon="13.672439332673175"><ele>380.0</ele><time>2026-04-18T13:31:57.999Z</time></trkpt><trkpt lat="42.679402009680814" lon="13.672334009549068"><ele>380.0</ele><time>2026-04-18T13:31:58.999Z</time></trkpt><trkpt lat="42.679483260285544" lon="13.672234405622554"><ele>380.0</ele><time>2026-04-18T13:31:59.999Z</time></trkpt><trkpt lat="42.67955170217449" lon="13.672137226734044"><ele>380.0</ele><time>2026-04-18T13:32:00.999Z</time></trkpt><trkpt lat="42.67963169775821" lon="13.672053899990672"><ele>380.0</ele><time>2026-04-18T13:32:01.999Z</time></trkpt><trkpt lat="42.67969971456052" lon="13.67195160504929"><ele>381.0</ele><time>2026-04-18T13:32:02.999Z</time></trkpt><trkpt lat="42.679763280466304" lon="13.671840478885196"><ele>382.0</ele><time>2026-04-18T13:32:03.999Z</time></trkpt><trkpt lat="42.6798249867143" lon="13.671732799236592"><ele>383.0</ele><time>2026-04-18T13:32:04.999Z</time></trkpt><trkpt lat="42.67988526499857" lon="13.671612115615197"><ele>384.0</ele><time>2026-04-18T13:32:05.999Z</time></trkpt><trkpt lat="42.67994875149958" lon="13.671488688231845"><ele>385.0</ele><time>2026-04-18T13:32:06.999Z</time></trkpt><trkpt lat="42.68001312076763" lon="13.671365182396151"><ele>385.0</ele><time>2026-04-18T13:32:07.999Z</time></trkpt><trkpt lat="42.68007726040352" lon="13.671240023740596"><ele>385.0</ele><time>2026-04-18T13:32:08.999Z</time></trkpt><trkpt lat="42.68013899156468" lon="13.671109277788048"><ele>385.0</ele><time>2026-04-18T13:32:09.999Z</time></trkpt><trkpt lat="42.6802006400043" lon="13.67097835998518"><ele>385.0</ele><time>2026-04-18T13:32:10.999Z</time></trkpt><trkpt lat="42.68026230308011" lon="13.670844068410243"><ele>381.5</ele><time>2026-04-18T13:32:11.999Z</time></trkpt><trkpt lat="42.68032295447381" lon="13.670711451257922"><ele>378.0</ele><time>2026-04-18T13:32:12.999Z</time></trkpt><trkpt lat="42.680383781173404" lon="13.67058004516501"><ele>374.5</ele><time>2026-04-18T13:32:13.998Z</time></trkpt><trkpt lat="42.68044366563441" lon="13.670448199101083"><ele>371.0</ele><time>2026-04-18T13:32:14.998Z</time></trkpt><trkpt lat="42.680504389654345" lon="13.670314797980573"><ele>374.25</ele><time>2026-04-18T13:32:15.998Z</time></trkpt><trkpt lat="42.68056500370591" lon="13.670179735152347"><ele>377.5</ele><time>2026-04-18T13:32:16.998Z</time></trkpt><trkpt lat="42.6806272231784" lon="13.670042176468236"><ele>380.75</ele><time>2026-04-18T13:32:17.998Z</time></trkpt><trkpt lat="42.6806930769318" lon="13.669903740443397"><ele>384.0</ele><time>2026-04-18T13:32:18.998Z</time></trkpt><trkpt lat="42.68076217437535" lon="13.669765132824983"><ele>384.0</ele><time>2026-04-18T13:32:19.998Z</time></trkpt><trkpt lat="42.68083080361224" lon="13.669621956792769"><ele>384.0</ele><time>2026-04-18T13:32:20.998Z</time></trkpt><trkpt lat="42.68089945390936" lon="13.669476526059631"><ele>384.0</ele><time>2026-04-18T13:32:21.998Z</time></trkpt><trkpt lat="42.68096741949986" lon="13.669328844707666"><ele>384.0</ele><time>2026-04-18T13:32:22.998Z</time></trkpt><trkpt lat="42.681034855627715" lon="13.669175545767322"><ele>385.25</ele><time>2026-04-18T13:32:23.998Z</time></trkpt><trkpt lat="42.681101743001065" lon="13.669020655252142"><ele>386.5</ele><time>2026-04-18T13:32:24.998Z</time></trkpt><trkpt lat="42.6811711415564" lon="13.668865843988833"><ele>387.75</ele><time>2026-04-18T13:32:25.998Z</time></trkpt><trkpt lat="42.68124318282851" lon="13.66871080455347"><ele>389.0</ele><time>2026-04-18T13:32:26.998Z</time></trkpt><trkpt lat="42.68131654625781" lon="13.668553493663909"><ele>389.0</ele><time>2026-04-18T13:32:27.998Z</time></trkpt><trkpt lat="42.68139340879902" lon="13.668400665803807"><ele>389.0</ele><time>2026-04-18T13:32:28.998Z</time></trkpt><trkpt lat="42.681489708552355" lon="13.66825608832801"><ele>389.0</ele><time>2026-04-18T13:32:29.998Z</time></trkpt><trkpt lat="42.681599073802275" lon="13.668137514863947"><ele>389.0</ele><time>2026-04-18T13:32:30.998Z</time></trkpt><trkpt lat="42.68172919007156" lon="13.66805177374154"><ele>389.0</ele><time>2026-04-18T13:32:31.998Z</time></trkpt><trkpt lat="42.681875695757164" lon="13.668006044906106"><ele>389.0</ele><time>2026-04-18T13:32:32.998Z</time></trkpt><trkpt lat="42.68202522071012" lon="13.667962054430625"><ele>389.0</ele><time>2026-04-18T13:32:33.998Z</time></trkpt><trkpt lat="42.68218278336584" lon="13.667898105665671"><ele>390.3333333333333</ele><time>2026-04-18T13:32:34.998Z</time></trkpt><trkpt lat="42.68233562027098" lon="13.667805137476352"><ele>391.66666666666663</ele><time>2026-04-18T13:32:35.998Z</time></trkpt><trkpt lat="42.68248345013444" lon="13.667685869609318"><ele>393.0</ele><time>2026-04-18T13:32:36.998Z</time></trkpt><trkpt lat="42.68262760952894" lon="13.66754132806642"><ele>385.0</ele><time>2026-04-18T13:32:37.998Z</time></trkpt><trkpt lat="42.68276837462986" lon="13.667392597831666"><ele>377.0</ele><time>2026-04-18T13:32:38.998Z</time></trkpt><trkpt lat="42.68291729309082" lon="13.667248434137777"><ele>369.0</ele><time>2026-04-18T13:32:39.998Z</time></trkpt><trkpt lat="42.683071637807444" lon="13.667115789422159"><ele>369.0</ele><time>2026-04-18T13:32:40.998Z</time></trkpt><trkpt lat="42.6832274860005" lon="13.667015688926714"><ele>369.0</ele><time>2026-04-18T13:32:41.998Z</time></trkpt><trkpt lat="42.683383951513655" lon="13.666951665080278"><ele>369.0</ele><time>2026-04-18T13:32:42.998Z</time></trkpt><trkpt lat="42.68353273557404" lon="13.666890177025206"><ele>370.0</ele><time>2026-04-18T13:32:43.998Z</time></trkpt><trkpt lat="42.683672426853065" lon="13.66677678901554"><ele>371.0</ele><time>2026-04-18T13:32:44.998Z</time></trkpt><trkpt lat="42.6837891336531" lon="13.66661312049649"><ele>372.0</ele><time>2026-04-18T13:32:45.998Z</time></trkpt><trkpt lat="42.683890214711795" lon="13.666425837933138"><ele>372.0</ele><time>2026-04-18T13:32:46.998Z</time></trkpt><trkpt lat="42.68399940893029" lon="13.66624155942434"><ele>372.0</ele><time>2026-04-18T13:32:47.998Z</time></trkpt><trkpt lat="42.68411104947398" lon="13.666069687857144"><ele>372.0</ele><time>2026-04-18T13:32:48.998Z</time></trkpt><trkpt lat="42.68422387734226" lon="13.665912244307517"><ele>373.6666666666667</ele><time>2026-04-18T13:32:49.998Z</time></trkpt><trkpt lat="42.6843532713107" lon="13.665798731799569"><ele>375.33333333333337</ele><time>2026-04-18T13:32:50.998Z</time></trkpt><trkpt lat="42.684496495737314" lon="13.665735682973613"><ele>377.0</ele><time>2026-04-18T13:32:51.998Z</time></trkpt><trkpt lat="42.68464636971203" lon="13.665710098144826"><ele>377.0</ele><time>2026-04-18T13:32:52.998Z</time></trkpt><trkpt lat="42.68480720560432" lon="13.665722844589267"><ele>377.0</ele><time>2026-04-18T13:32:53.997Z</time></trkpt><trkpt lat="42.68497299820651" lon="13.665759360040106"><ele>377.0</ele><time>2026-04-18T13:32:54.997Z</time></trkpt><trkpt lat="42.685135754763465" lon="13.665804594933407"><ele>381.0</ele><time>2026-04-18T13:32:55.997Z</time></trkpt><trkpt lat="42.68530703125508" lon="13.665864441386912"><ele>385.0</ele><time>2026-04-18T13:32:56.997Z</time></trkpt><trkpt lat="42.68547139631615" lon="13.665947985328987"><ele>389.0</ele><time>2026-04-18T13:32:57.997Z</time></trkpt><trkpt lat="42.68561266048731" lon="13.666080461587764"><ele>387.0</ele><time>2026-04-18T13:32:58.997Z</time></trkpt><trkpt lat="42.68573684995351" lon="13.666229854682985"><ele>385.0</ele><time>2026-04-18T13:32:59.997Z</time></trkpt><trkpt lat="42.685873643641855" lon="13.666364002194339"><ele>383.0</ele><time>2026-04-18T13:33:00.997Z</time></trkpt><trkpt lat="42.686030316644946" lon="13.666452217746665"><ele>381.33333333333337</ele><time>2026-04-18T13:33:01.997Z</time></trkpt><trkpt lat="42.6862010579623" lon="13.666478957797066"><ele>379.6666666666667</ele><time>2026-04-18T13:33:02.997Z</time></trkpt><trkpt lat="42.68637333822579" lon="13.666444194787232"><ele>378.0</ele><time>2026-04-18T13:33:03.997Z</time></trkpt><trkpt lat="42.68653155216507" lon="13.66633702923571"><ele>378.0</ele><time>2026-04-18T13:33:04.997Z</time></trkpt><trkpt lat="42.68667685323473" lon="13.666185217224879"><ele>378.0</ele><time>2026-04-18T13:33:05.997Z</time></trkpt><trkpt lat="42.68685077939403" lon="13.666068503876811"><ele>378.0</ele><time>2026-04-18T13:33:06.997Z</time></trkpt><trkpt lat="42.687035187879395" lon="13.665974464862982"><ele>387.33333333333337</ele><time>2026-04-18T13:33:08Z</time></trkpt><trkpt lat="42.687224894879115" lon="13.665912160620705"><ele>396.6666666666667</ele><time>2026-04-18T13:33:09Z</time></trkpt><trkpt lat="42.68742346619494" lon="13.665881031203007"><ele>406.0</ele><time>2026-04-18T13:33:10Z</time></trkpt><trkpt lat="42.68761853902839" lon="13.665857010863927"><ele>406.0</ele><time>2026-04-18T13:33:11Z</time></trkpt><trkpt lat="42.68781668210985" lon="13.665834376636495"><ele>406.0</ele><time>2026-04-18T13:33:12Z</time></trkpt><trkpt lat="42.68801924983333" lon="13.665808063636524"><ele>406.0</ele><time>2026-04-18T13:33:13Z</time></trkpt><trkpt lat="42.68822276262363" lon="13.665784329792764"><ele>406.0</ele><time>2026-04-18T13:33:14Z</time></trkpt><trkpt lat="42.6884252422324" lon="13.665761909475036"><ele>406.0</ele><time>2026-04-18T13:33:15Z</time></trkpt><trkpt lat="42.6886257280736" lon="13.665737475271195"><ele>406.0</ele><time>2026-04-18T13:33:16Z</time></trkpt><trkpt lat="42.688826170920336" lon="13.665694457880738"><ele>403.33333333333337</ele><time>2026-04-18T13:33:17Z</time></trkpt><trkpt lat="42.68901706177365" lon="13.665612310381652"><ele>400.66666666666663</ele><time>2026-04-18T13:33:18Z</time></trkpt><trkpt lat="42.68919644709778" lon="13.665504447950878"><ele>398.0</ele><time>2026-04-18T13:33:19Z</time></trkpt><trkpt lat="42.6893775506909" lon="13.665390868836486"><ele>400.0</ele><time>2026-04-18T13:33:20Z</time></trkpt><trkpt lat="42.68956019856553" lon="13.665295143299025"><ele>402.0</ele><time>2026-04-18T13:33:21Z</time></trkpt><trkpt lat="42.68975697510287" lon="13.6652496281818"><ele>404.0</ele><time>2026-04-18T13:33:22Z</time></trkpt><trkpt lat="42.68995335914855" lon="13.665234554825807"><ele>411.3333333333333</ele><time>2026-04-18T13:33:23Z</time></trkpt><trkpt lat="42.690151661632314" lon="13.66522136670065"><ele>418.66666666666663</ele><time>2026-04-18T13:33:24Z</time></trkpt><trkpt lat="42.69035328357431" lon="13.66518285521657"><ele>426.0</ele><time>2026-04-18T13:33:25Z</time></trkpt><trkpt lat="42.69052903129563" lon="13.66511546513472"><ele>426.0</ele><time>2026-04-18T13:33:26Z</time></trkpt><trkpt lat="42.69072835733131" lon="13.665081041944982"><ele>426.0</ele><time>2026-04-18T13:33:27Z</time></trkpt><trkpt lat="42.69092918447156" lon="13.66504646236955"><ele>426.0</ele><time>2026-04-18T13:33:28Z</time></trkpt><trkpt lat="42.69113302895594" lon="13.665012765908171"><ele>425.33333333333337</ele><time>2026-04-18T13:33:29Z</time></trkpt><trkpt lat="42.69133629168283" lon="13.664974201435987"><ele>424.6666666666667</ele><time>2026-04-18T13:33:30Z</time></trkpt><trkpt lat="42.691535702298694" lon="13.66490818989086"><ele>424.0</ele><time>2026-04-18T13:33:31Z</time></trkpt><trkpt lat="42.69173755004656" lon="13.664855664441124"><ele>423.6666666666667</ele><time>2026-04-18T13:33:32Z</time></trkpt><trkpt lat="42.6919366102029" lon="13.664799419316676"><ele>423.33333333333337</ele><time>2026-04-18T13:33:33Z</time></trkpt><trkpt lat="42.69213650513906" lon="13.664743186372764"><ele>423.0</ele><time>2026-04-18T13:33:34Z</time></trkpt><trkpt lat="42.6923378192668" lon="13.664690930780923"><ele>423.0</ele><time>2026-04-18T13:33:35Z</time></trkpt><trkpt lat="42.692535534657466" lon="13.664628455010781"><ele>423.0</ele><time>2026-04-18T13:33:36Z</time></trkpt><trkpt lat="42.69273076250189" lon="13.664542972943778"><ele>423.0</ele><time>2026-04-18T13:33:37Z</time></trkpt><trkpt lat="42.692924591379736" lon="13.664440341658313"><ele>430.33333333333337</ele><time>2026-04-18T13:33:38Z</time></trkpt><trkpt lat="42.693117459864" lon="13.664331285676143"><ele>437.6666666666667</ele><time>2026-04-18T13:33:39Z</time></trkpt><trkpt lat="42.69331173830319" lon="13.664228479783468"><ele>445.0</ele><time>2026-04-18T13:33:40Z</time></trkpt><trkpt lat="42.693517595681456" lon="13.6641475642304"><ele>445.6666666666667</ele><time>2026-04-18T13:33:41Z</time></trkpt><trkpt lat="42.69372179607042" lon="13.664095237185881"><ele>446.33333333333337</ele><time>2026-04-18T13:33:42Z</time></trkpt><trkpt lat="42.693921294739575" lon="13.664061113281644"><ele>447.0</ele><time>2026-04-18T13:33:42.999Z</time></trkpt><trkpt lat="42.694115136612204" lon="13.664041004546082"><ele>447.0</ele><time>2026-04-18T13:33:43.999Z</time></trkpt><trkpt lat="42.69431108775929" lon="13.664026410905656"><ele>447.0</ele><time>2026-04-18T13:33:44.999Z</time></trkpt><trkpt lat="42.69450525492644" lon="13.664019289503617"><ele>447.0</ele><time>2026-04-18T13:33:45.999Z</time></trkpt><trkpt lat="42.69469953143957" lon="13.664019457564347"><ele>446.66666666666663</ele><time>2026-04-18T13:33:46.999Z</time></trkpt><trkpt lat="42.69489803025859" lon="13.664024742853272"><ele>446.3333333333333</ele><time>2026-04-18T13:33:47.999Z</time></trkpt><trkpt lat="42.69509590530679" lon="13.664023524391649"><ele>446.0</ele><time>2026-04-18T13:33:48.999Z</time></trkpt><trkpt lat="42.69529453238344" lon="13.664022315616318"><ele>448.0</ele><time>2026-04-18T13:33:49.999Z</time></trkpt><trkpt lat="42.69549218853921" lon="13.664018769788001"><ele>450.0</ele><time>2026-04-18T13:33:50.999Z</time></trkpt><trkpt lat="42.69568600665864" lon="13.664011686776247"><ele>452.0</ele><time>2026-04-18T13:33:51.999Z</time></trkpt><trkpt lat="42.69588106969777" lon="13.663999946473412"><ele>452.0</ele><time>2026-04-18T13:33:52.999Z</time></trkpt><trkpt lat="42.69607568099736" lon="13.66398757014066"><ele>452.0</ele><time>2026-04-18T13:33:53.999Z</time></trkpt><trkpt lat="42.6962691985428" lon="13.663967981335295"><ele>452.0</ele><time>2026-04-18T13:33:54.999Z</time></trkpt><trkpt lat="42.696463814669634" lon="13.663947610673963"><ele>453.0</ele><time>2026-04-18T13:33:55.999Z</time></trkpt><trkpt lat="42.696654812507305" lon="13.66391955623276"><ele>454.0</ele><time>2026-04-18T13:33:56.999Z</time></trkpt><trkpt lat="42.696850686322534" lon="13.663885301025063"><ele>455.0</ele><time>2026-04-18T13:33:57.999Z</time></trkpt><trkpt lat="42.69704673194801" lon="13.663850208699348"><ele>455.66666666666663</ele><time>2026-04-18T13:33:58.999Z</time></trkpt><trkpt lat="42.697241746769485" lon="13.663810899229336"><ele>456.33333333333337</ele><time>2026-04-18T13:33:59.999Z</time></trkpt><trkpt lat="42.69743927734991" lon="13.66376666226914"><ele>457.0</ele><time>2026-04-18T13:34:00.999Z</time></trkpt><trkpt lat="42.69763626682272" lon="13.663716366562701"><ele>459.33333333333337</ele><time>2026-04-18T13:34:01.999Z</time></trkpt><trkpt lat="42.69783467388011" lon="13.663665074687993"><ele>461.66666666666663</ele><time>2026-04-18T13:34:02.999Z</time></trkpt><trkpt lat="42.69803553362895" lon="13.663612891903744"><ele>464.0</ele><time>2026-04-18T13:34:03.999Z</time></trkpt><trkpt lat="42.69823356069108" lon="13.663560652445957"><ele>466.3333333333333</ele><time>2026-04-18T13:34:04.999Z</time></trkpt><trkpt lat="42.69843135596028" lon="13.663509685919458"><ele>468.66666666666663</ele><time>2026-04-18T13:34:05.999Z</time></trkpt><trkpt lat="42.69863009222826" lon="13.663459644150187"><ele>471.0</ele><time>2026-04-18T13:34:06.999Z</time></trkpt><trkpt lat="42.69883088074558" lon="13.663411173054742"><ele>472.0</ele><time>2026-04-18T13:34:07.999Z</time></trkpt><trkpt lat="42.69903119358898" lon="13.663368003822654"><ele>473.0</ele><time>2026-04-18T13:34:08.999Z</time></trkpt><trkpt lat="42.69923228527701" lon="13.66332952631066"><ele>474.0</ele><time>2026-04-18T13:34:09.999Z</time></trkpt><trkpt lat="42.69943451763938" lon="13.663294488491347"><ele>474.66666666666663</ele><time>2026-04-18T13:34:10.999Z</time></trkpt><trkpt lat="42.699640504733566" lon="13.663261332452764"><ele>475.3333333333333</ele><time>2026-04-18T13:34:11.999Z</time></trkpt><trkpt lat="42.69984982143823" lon="13.663230302994343"><ele>476.0</ele><time>2026-04-18T13:34:12.999Z</time></trkpt><trkpt lat="42.70006223687116" lon="13.663204963017062"><ele>475.66666666666663</ele><time>2026-04-18T13:34:13.999Z</time></trkpt><trkpt lat="42.7002743559297" lon="13.663181419674425"><ele>475.33333333333337</ele><time>2026-04-18T13:34:14.999Z</time></trkpt><trkpt lat="42.70048805099374" lon="13.663159443976065"><ele>475.0</ele><time>2026-04-18T13:34:15.999Z</time></trkpt><trkpt lat="42.70070304449778" lon="13.663141955455671"><ele>475.0</ele><time>2026-04-18T13:34:16.999Z</time></trkpt><trkpt lat="42.70092210191148" lon="13.663125001736546"><ele>475.0</ele><time>2026-04-18T13:34:17.999Z</time></trkpt><trkpt lat="42.70114008418748" lon="13.663106928142708"><ele>475.0</ele><time>2026-04-18T13:34:18.999Z</time></trkpt><trkpt lat="42.7013592467944" lon="13.663091203358293"><ele>476.0</ele><time>2026-04-18T13:34:19.999Z</time></trkpt><trkpt lat="42.70157989180175" lon="13.663077313178649"><ele>477.0</ele><time>2026-04-18T13:34:20.999Z</time></trkpt><trkpt lat="42.701796667021696" lon="13.663061460534703"><ele>478.0</ele><time>2026-04-18T13:34:21.998Z</time></trkpt><trkpt lat="42.70201515563481" lon="13.663048092426946"><ele>480.6666666666667</ele><time>2026-04-18T13:34:22.998Z</time></trkpt><trkpt lat="42.702231688981676" lon="13.663033988175012"><ele>483.33333333333337</ele><time>2026-04-18T13:34:23.998Z</time></trkpt><trkpt lat="42.70244528437567" lon="13.663018442421787"><ele>486.0</ele><time>2026-04-18T13:34:24.998Z</time></trkpt><trkpt lat="42.702655272401735" lon="13.663001810641743"><ele>488.66666666666663</ele><time>2026-04-18T13:34:25.998Z</time></trkpt><trkpt lat="42.70286429971334" lon="13.662986742262774"><ele>491.3333333333333</ele><time>2026-04-18T13:34:26.998Z</time></trkpt><trkpt lat="42.70307019749109" lon="13.662975580432002"><ele>494.0</ele><time>2026-04-18T13:34:27.998Z</time></trkpt><trkpt lat="42.70327651679111" lon="13.6629696185589"><ele>494.0</ele><time>2026-04-18T13:34:28.998Z</time></trkpt><trkpt lat="42.70348303259727" lon="13.662967849739568"><ele>494.0</ele><time>2026-04-18T13:34:29.998Z</time></trkpt><trkpt lat="42.70368883625376" lon="13.66297349684882"><ele>494.0</ele><time>2026-04-18T13:34:30.998Z</time></trkpt><trkpt lat="42.70389241430125" lon="13.662983994640127"><ele>495.3333333333333</ele><time>2026-04-18T13:34:31.998Z</time></trkpt><trkpt lat="42.70409834191497" lon="13.66300110067757"><ele>496.66666666666663</ele><time>2026-04-18T13:34:32.998Z</time></trkpt><trkpt lat="42.70430491106536" lon="13.663025974394184"><ele>498.0</ele><time>2026-04-18T13:34:33.998Z</time></trkpt><trkpt lat="42.70450712814861" lon="13.663057090435302"><ele>501.33333333333337</ele><time>2026-04-18T13:34:34.998Z</time></trkpt><trkpt lat="42.704708117177226" lon="13.663091546198933"><ele>504.6666666666667</ele><time>2026-04-18T13:34:35.998Z</time></trkpt><trkpt lat="42.70490005069898" lon="13.663125035181922"><ele>508.0</ele><time>2026-04-18T13:34:36.998Z</time></trkpt><trkpt lat="42.705079526947316" lon="13.663153574495656"><ele>508.0</ele><time>2026-04-18T13:34:37.998Z</time></trkpt><trkpt lat="42.7052423544342" lon="13.663175559916288"><ele>508.0</ele><time>2026-04-18T13:34:38.998Z</time></trkpt><trkpt lat="42.705394226740175" lon="13.663199358662125"><ele>508.0</ele><time>2026-04-18T13:34:39.998Z</time></trkpt><trkpt lat="42.705537863179885" lon="13.663224817697888"><ele>508.75</ele><time>2026-04-18T13:34:40.998Z</time></trkpt><trkpt lat="42.70566957831649" lon="13.663245953361901"><ele>509.5</ele><time>2026-04-18T13:34:41.998Z</time></trkpt><trkpt lat="42.70580546647112" lon="13.663266160434937"><ele>510.25</ele><time>2026-04-18T13:34:42.998Z</time></trkpt><trkpt lat="42.705941442552174" lon="13.663288457407667"><ele>511.0</ele><time>2026-04-18T13:34:43.998Z</time></trkpt><trkpt lat="42.706083488844875" lon="13.663313732913918"><ele>511.6666666666667</ele><time>2026-04-18T13:34:44.998Z</time></trkpt><trkpt lat="42.70622887652382" lon="13.663340783366307"><ele>512.3333333333334</ele><time>2026-04-18T13:34:45.998Z</time></trkpt><trkpt lat="42.70637881655567" lon="13.663369437431033"><ele>513.0</ele><time>2026-04-18T13:34:46.998Z</time></trkpt><trkpt lat="42.70653634300464" lon="13.663399621204826"><ele>513.0</ele><time>2026-04-18T13:34:47.998Z</time></trkpt><trkpt lat="42.706701415388096" lon="13.663425361567802"><ele>513.0</ele><time>2026-04-18T13:34:48.998Z</time></trkpt><trkpt lat="42.706868778220276" lon="13.663433168708883"><ele>513.0</ele><time>2026-04-18T13:34:49.998Z</time></trkpt><trkpt lat="42.70703524307059" lon="13.663424073737026"><ele>511.66666666666663</ele><time>2026-04-18T13:34:50.998Z</time></trkpt><trkpt lat="42.707201648712434" lon="13.663407298791496"><ele>510.3333333333333</ele><time>2026-04-18T13:34:51.998Z</time></trkpt><trkpt lat="42.70737427113829" lon="13.663384316649099"><ele>509.0</ele><time>2026-04-18T13:34:52.998Z</time></trkpt><trkpt lat="42.70754427918313" lon="13.663346244020161"><ele>509.0</ele><time>2026-04-18T13:34:53.998Z</time></trkpt><trkpt lat="42.70771650029955" lon="13.663292056577115"><ele>509.0</ele><time>2026-04-18T13:34:54.998Z</time></trkpt><trkpt lat="42.707887506814274" lon="13.663219955013224"><ele>509.0</ele><time>2026-04-18T13:34:55.998Z</time></trkpt><trkpt lat="42.70805010417149" lon="13.663125129920767"><ele>507.66666666666663</ele><time>2026-04-18T13:34:56.998Z</time></trkpt><trkpt lat="42.70821273419918" lon="13.663025429881836"><ele>506.33333333333337</ele><time>2026-04-18T13:34:57.998Z</time></trkpt><trkpt lat="42.70836554096353" lon="13.662917220950105"><ele>505.0</ele><time>2026-04-18T13:34:58.998Z</time></trkpt><trkpt lat="42.70851541236164" lon="13.662794607637318"><ele>504.6666666666667</ele><time>2026-04-18T13:34:59.998Z</time></trkpt><trkpt lat="42.70866263936392" lon="13.662657449018262"><ele>504.33333333333337</ele><time>2026-04-18T13:35:00.997Z</time></trkpt><trkpt lat="42.70880351155291" lon="13.66251279236318"><ele>504.0</ele><time>2026-04-18T13:35:01.997Z</time></trkpt><trkpt lat="42.70893468775234" lon="13.662358588335314"><ele>504.0</ele><time>2026-04-18T13:35:02.997Z</time></trkpt><trkpt lat="42.70906809230314" lon="13.662195482397452"><ele>504.0</ele><time>2026-04-18T13:35:03.997Z</time></trkpt><trkpt lat="42.70919847849571" lon="13.662024813681453"><ele>504.0</ele><time>2026-04-18T13:35:04.997Z</time></trkpt><trkpt lat="42.70932935789012" lon="13.661852743043037"><ele>503.0</ele><time>2026-04-18T13:35:05.997Z</time></trkpt><trkpt lat="42.7094589939558" lon="13.661678722985025"><ele>502.0</ele><time>2026-04-18T13:35:06.997Z</time></trkpt><trkpt lat="42.70959565412321" lon="13.661521606505369"><ele>501.0</ele><time>2026-04-18T13:35:07.997Z</time></trkpt><trkpt lat="42.70972213978074" lon="13.661361765472547"><ele>501.0</ele><time>2026-04-18T13:35:08.997Z</time></trkpt><trkpt lat="42.70984850423955" lon="13.661205587372057"><ele>501.0</ele><time>2026-04-18T13:35:09.997Z</time></trkpt><trkpt lat="42.70997230129053" lon="13.661045427694656"><ele>501.0</ele><time>2026-04-18T13:35:10.997Z</time></trkpt><trkpt lat="42.71009461863213" lon="13.660892183828375"><ele>500.66666666666663</ele><time>2026-04-18T13:35:11.997Z</time></trkpt><trkpt lat="42.71021799205264" lon="13.660747241603136"><ele>500.3333333333333</ele><time>2026-04-18T13:35:13Z</time></trkpt><trkpt lat="42.71034345849399" lon="13.660622563945061"><ele>500.0</ele><time>2026-04-18T13:35:14Z</time></trkpt><trkpt lat="42.71046732511643" lon="13.66051670826729"><ele>500.0</ele><time>2026-04-18T13:35:15Z</time></trkpt><trkpt lat="42.71058770039115" lon="13.66042636093032"><ele>500.0</ele><time>2026-04-18T13:35:16Z</time></trkpt><trkpt lat="42.71070902853936" lon="13.660354197143846"><ele>500.0</ele><time>2026-04-18T13:35:17Z</time></trkpt><trkpt lat="42.71082995850784" lon="13.660299410547324"><ele>500.0</ele><time>2026-04-18T13:35:18Z</time></trkpt><trkpt lat="42.710949855455056" lon="13.66026499110126"><ele>501.0</ele><time>2026-04-18T13:35:19Z</time></trkpt><trkpt lat="42.71107026954538" lon="13.660261957897232"><ele>502.0</ele><time>2026-04-18T13:35:20Z</time></trkpt><trkpt lat="42.711189982760835" lon="13.660275927736494"><ele>503.0</ele><time>2026-04-18T13:35:21Z</time></trkpt><trkpt lat="42.7113044666449" lon="13.660289253073891"><ele>504.0</ele><time>2026-04-18T13:35:22Z</time></trkpt><trkpt lat="42.71141911968117" lon="13.66030047490264"><ele>502.0</ele><time>2026-04-18T13:35:23Z</time></trkpt><trkpt lat="42.71152603215422" lon="13.660309791070526"><ele>500.0</ele><time>2026-04-18T13:35:24Z</time></trkpt><trkpt lat="42.71163447261104" lon="13.66032613315207"><ele>498.0</ele><time>2026-04-18T13:35:25Z</time></trkpt><trkpt lat="42.711752971898896" lon="13.660343500288175"><ele>496.0</ele><time>2026-04-18T13:35:26Z</time></trkpt><trkpt lat="42.711879585285544" lon="13.660352194358335"><ele>496.25</ele><time>2026-04-18T13:35:27Z</time></trkpt><trkpt lat="42.712010933309244" lon="13.660332872331113"><ele>496.5</ele><time>2026-04-18T13:35:28Z</time></trkpt><trkpt lat="42.71214041741492" lon="13.66026368318422"><ele>496.75</ele><time>2026-04-18T13:35:29Z</time></trkpt><trkpt lat="42.712239964888404" lon="13.660127844448875"><ele>497.0</ele><time>2026-04-18T13:35:30Z</time></trkpt><trkpt lat="42.71230135493744" lon="13.65997189145699"><ele>498.20000000000005</ele><time>2026-04-18T13:35:31Z</time></trkpt><trkpt lat="42.712319645513226" lon="13.659809764146209"><ele>499.40000000000003</ele><time>2026-04-18T13:35:32Z</time></trkpt><trkpt lat="42.712281237210306" lon="13.659673554485169"><ele>500.59999999999997</ele><time>2026-04-18T13:35:33Z</time></trkpt><trkpt lat="42.71231960207224" lon="13.659536348299557"><ele>501.79999999999995</ele><time>2026-04-18T13:35:34Z</time></trkpt><trkpt lat="42.71236454418017" lon="13.65942224283087"><ele>503.0</ele><time>2026-04-18T13:35:35Z</time></trkpt><trkpt lat="42.71244344758053" lon="13.659328598340828"><ele>503.59999999999997</ele><time>2026-04-18T13:35:36Z</time></trkpt><trkpt lat="42.712542270638664" lon="13.65927863398389"><ele>504.19999999999993</ele><time>2026-04-18T13:35:37Z</time></trkpt><trkpt lat="42.71264340001837" lon="13.659307785653203"><ele>504.8</ele><time>2026-04-18T13:35:38Z</time></trkpt><trkpt lat="42.712745794882586" lon="13.659295146072509"><ele>505.4</ele><time>2026-04-18T13:35:39Z</time></trkpt><trkpt lat="42.71286317041959" lon="13.659310419569346"><ele>506.0</ele><time>2026-04-18T13:35:40Z</time></trkpt><trkpt lat="42.71299167871413" lon="13.65932783059728"><ele>506.0</ele><time>2026-04-18T13:35:41Z</time></trkpt><trkpt lat="42.713134200427" lon="13.659346413414454"><ele>506.0</ele><time>2026-04-18T13:35:42Z</time></trkpt><trkpt lat="42.713282973062235" lon="13.659374297227208"><ele>506.0</ele><time>2026-04-18T13:35:43Z</time></trkpt><trkpt lat="42.713441689492164" lon="13.65940184423162"><ele>505.66666666666663</ele><time>2026-04-18T13:35:44Z</time></trkpt><trkpt lat="42.71360792304224" lon="13.65942932855259"><ele>505.33333333333337</ele><time>2026-04-18T13:35:45Z</time></trkpt><trkpt lat="42.7137822972231" lon="13.659458532654718"><ele>505.0</ele><time>2026-04-18T13:35:46Z</time></trkpt><trkpt lat="42.713959594396854" lon="13.659487432181777"><ele>503.6666666666667</ele><time>2026-04-18T13:35:47Z</time></trkpt><trkpt lat="42.71414275717776" lon="13.659519009021762"><ele>502.33333333333337</ele><time>2026-04-18T13:35:48Z</time></trkpt><trkpt lat="42.71432831340108" lon="13.659548608517795"><ele>501.0</ele><time>2026-04-18T13:35:49Z</time></trkpt><trkpt lat="42.71451846930252" lon="13.659579391182485"><ele>500.0</ele><time>2026-04-18T13:35:50Z</time></trkpt><trkpt lat="42.71470187298102" lon="13.659607207156704"><ele>499.0</ele><time>2026-04-18T13:35:51Z</time></trkpt><trkpt lat="42.714887624645556" lon="13.659636559941955"><ele>498.0</ele><time>2026-04-18T13:35:52Z</time></trkpt><trkpt lat="42.71507724630586" lon="13.659663649295355"><ele>496.0</ele><time>2026-04-18T13:35:52.999Z</time></trkpt><trkpt lat="42.71526695217812" lon="13.659694584373943"><ele>494.0</ele><time>2026-04-18T13:35:53.999Z</time></trkpt><trkpt lat="42.71545651813493" lon="13.659723154557613"><ele>492.0</ele><time>2026-04-18T13:35:54.999Z</time></trkpt><trkpt lat="42.715649731948524" lon="13.659752518890619"><ele>492.0</ele><time>2026-04-18T13:35:55.999Z</time></trkpt><trkpt lat="42.715846037758425" lon="13.659778978618425"><ele>492.0</ele><time>2026-04-18T13:35:56.999Z</time></trkpt><trkpt lat="42.71604805049564" lon="13.659807035764882"><ele>492.0</ele><time>2026-04-18T13:35:57.999Z</time></trkpt><trkpt lat="42.716254075822015" lon="13.659840977203707"><ele>486.33333333333337</ele><time>2026-04-18T13:35:58.999Z</time></trkpt><trkpt lat="42.71646044008041" lon="13.659872744896793"><ele>480.6666666666667</ele><time>2026-04-18T13:35:59.999Z</time></trkpt><trkpt lat="42.7166685795392" lon="13.659909847735886"><ele>475.0</ele><time>2026-04-18T13:36:00.999Z</time></trkpt><trkpt lat="42.71687080070797" lon="13.659948671042226"><ele>479.0</ele><time>2026-04-18T13:36:01.999Z</time></trkpt><trkpt lat="42.717073038743465" lon="13.659984596256765"><ele>483.0</ele><time>2026-04-18T13:36:02.999Z</time></trkpt><trkpt lat="42.71727920617935" lon="13.660022589466868"><ele>487.0</ele><time>2026-04-18T13:36:03.999Z</time></trkpt><trkpt lat="42.717485117031906" lon="13.660060623291256"><ele>487.0</ele><time>2026-04-18T13:36:04.999Z</time></trkpt><trkpt lat="42.71769394414763" lon="13.66009589023247"><ele>487.0</ele><time>2026-04-18T13:36:05.999Z</time></trkpt><trkpt lat="42.71790449690455" lon="13.66013177324911"><ele>487.0</ele><time>2026-04-18T13:36:06.999Z</time></trkpt><trkpt lat="42.71811436759151" lon="13.66016766829134"><ele>486.6666666666667</ele><time>2026-04-18T13:36:07.999Z</time></trkpt><trkpt lat="42.7183239284559" lon="13.660199074721168"><ele>486.33333333333337</ele><time>2026-04-18T13:36:08.999Z</time></trkpt><trkpt lat="42.71853031674527" lon="13.660232240378255"><ele>486.0</ele><time>2026-04-18T13:36:09.999Z</time></trkpt><trkpt lat="42.7187335660989" lon="13.660260898536382"><ele>483.66666666666663</ele><time>2026-04-18T13:36:10.999Z</time></trkpt><trkpt lat="42.718934000812595" lon="13.660294858812442"><ele>481.3333333333333</ele><time>2026-04-18T13:36:11.999Z</time></trkpt><trkpt lat="42.71913080247701" lon="13.660325436997448"><ele>479.0</ele><time>2026-04-18T13:36:12.999Z</time></trkpt><trkpt lat="42.71932039098109" lon="13.660362653798419"><ele>481.0</ele><time>2026-04-18T13:36:13.999Z</time></trkpt><trkpt lat="42.71951340751572" lon="13.660406690164868"><ele>483.0</ele><time>2026-04-18T13:36:14.999Z</time></trkpt><trkpt lat="42.7197017766048" lon="13.660461436518125"><ele>485.0</ele><time>2026-04-18T13:36:15.999Z</time></trkpt><trkpt lat="42.71988863513545" lon="13.660521849981716"><ele>485.0</ele><time>2026-04-18T13:36:16.999Z</time></trkpt><trkpt lat="42.72007775280515" lon="13.660586982945821"><ele>485.0</ele><time>2026-04-18T13:36:17.999Z</time></trkpt><trkpt lat="42.720264446118" lon="13.660652280832519"><ele>485.0</ele><time>2026-04-18T13:36:18.999Z</time></trkpt><trkpt lat="42.72045337429143" lon="13.660713925559513"><ele>485.0</ele><time>2026-04-18T13:36:19.999Z</time></trkpt><trkpt lat="42.72064522438767" lon="13.660774854870212"><ele>485.0</ele><time>2026-04-18T13:36:20.999Z</time></trkpt><trkpt lat="42.7208433315906" lon="13.66084314430235"><ele>485.0</ele><time>2026-04-18T13:36:21.999Z</time></trkpt><trkpt lat="42.72103184274557" lon="13.660908222902936"><ele>485.3333333333333</ele><time>2026-04-18T13:36:22.999Z</time></trkpt><trkpt lat="42.72122412290198" lon="13.660982504215754"><ele>485.66666666666663</ele><time>2026-04-18T13:36:23.999Z</time></trkpt><trkpt lat="42.72141648061098" lon="13.661066765463561"><ele>486.0</ele><time>2026-04-18T13:36:24.999Z</time></trkpt><trkpt lat="42.72159207123698" lon="13.661156001479245"><ele>485.33333333333337</ele><time>2026-04-18T13:36:25.999Z</time></trkpt><trkpt lat="42.72175853877023" lon="13.661273508248788"><ele>484.6666666666667</ele><time>2026-04-18T13:36:26.999Z</time></trkpt><trkpt lat="42.721905486031055" lon="13.661405018880213"><ele>484.0</ele><time>2026-04-18T13:36:27.999Z</time></trkpt><trkpt lat="42.72204551638583" lon="13.661544820200074"><ele>484.0</ele><time>2026-04-18T13:36:28.999Z</time></trkpt><trkpt lat="42.72218065358325" lon="13.66169006011303"><ele>484.0</ele><time>2026-04-18T13:36:29.999Z</time></trkpt><trkpt lat="42.72232063763484" lon="13.661829845301723"><ele>484.0</ele><time>2026-04-18T13:36:30.999Z</time></trkpt><trkpt lat="42.72246574883193" lon="13.66195347714226"><ele>482.0</ele><time>2026-04-18T13:36:31.998Z</time></trkpt><trkpt lat="42.722617973689076" lon="13.662070268759802"><ele>480.0</ele><time>2026-04-18T13:36:32.998Z</time></trkpt><trkpt lat="42.722781997891026" lon="13.66215970082799"><ele>478.0</ele><time>2026-04-18T13:36:33.998Z</time></trkpt><trkpt lat="42.72296060428113" lon="13.662211101482352"><ele>477.33333333333337</ele><time>2026-04-18T13:36:34.998Z</time></trkpt><trkpt lat="42.72314328330949" lon="13.662235892563967"><ele>476.66666666666663</ele><time>2026-04-18T13:36:35.998Z</time></trkpt><trkpt lat="42.723329705853565" lon="13.662255913798232"><ele>476.0</ele><time>2026-04-18T13:36:36.998Z</time></trkpt><trkpt lat="42.7235152033973" lon="13.662283531010397"><ele>475.3333333333333</ele><time>2026-04-18T13:36:37.998Z</time></trkpt><trkpt lat="42.72370114536069" lon="13.662314431326092"><ele>474.66666666666663</ele><time>2026-04-18T13:36:38.998Z</time></trkpt><trkpt lat="42.723888580292694" lon="13.662343725122586"><ele>474.0</ele><time>2026-04-18T13:36:39.998Z</time></trkpt><trkpt lat="42.724074524958375" lon="13.66237526494037"><ele>474.0</ele><time>2026-04-18T13:36:40.998Z</time></trkpt><trkpt lat="42.72425343457386" lon="13.662404874057879"><ele>474.0</ele><time>2026-04-18T13:36:41.998Z</time></trkpt><trkpt lat="42.72442528006661" lon="13.662432422241688"><ele>474.0</ele><time>2026-04-18T13:36:42.998Z</time></trkpt><trkpt lat="42.724589824401065" lon="13.662456256696185"><ele>473.33333333333337</ele><time>2026-04-18T13:36:43.998Z</time></trkpt><trkpt lat="42.72475340596559" lon="13.662483084611441"><ele>472.6666666666667</ele><time>2026-04-18T13:36:44.998Z</time></trkpt><trkpt lat="42.72491168706975" lon="13.662508370988226"><ele>472.0</ele><time>2026-04-18T13:36:45.998Z</time></trkpt><trkpt lat="42.725067943993196" lon="13.662534742490953"><ele>472.0</ele><time>2026-04-18T13:36:46.998Z</time></trkpt><trkpt lat="42.72522040240524" lon="13.66255999607622"><ele>472.0</ele><time>2026-04-18T13:36:47.998Z</time></trkpt><trkpt lat="42.72537308766215" lon="13.662582912588217"><ele>472.0</ele><time>2026-04-18T13:36:48.998Z</time></trkpt><trkpt lat="42.72552673233804" lon="13.662606286613986"><ele>471.6666666666667</ele><time>2026-04-18T13:36:49.998Z</time></trkpt><trkpt lat="42.7256802809002" lon="13.66263156582966"><ele>471.33333333333337</ele><time>2026-04-18T13:36:50.998Z</time></trkpt><trkpt lat="42.72583669433634" lon="13.662659761469781"><ele>471.0</ele><time>2026-04-18T13:36:51.998Z</time></trkpt><trkpt lat="42.725994252821195" lon="13.662685762697196"><ele>470.66666666666663</ele><time>2026-04-18T13:36:52.998Z</time></trkpt><trkpt lat="42.72615626263802" lon="13.66271559048656"><ele>470.3333333333333</ele><time>2026-04-18T13:36:53.998Z</time></trkpt><trkpt lat="42.72631771920001" lon="13.662743830958366"><ele>470.0</ele><time>2026-04-18T13:36:54.998Z</time></trkpt><trkpt lat="42.726482246951726" lon="13.662773256635957"><ele>468.0</ele><time>2026-04-18T13:36:55.998Z</time></trkpt><trkpt lat="42.72664751678358" lon="13.66280030718377"><ele>466.0</ele><time>2026-04-18T13:36:56.998Z</time></trkpt><trkpt lat="42.72681504852202" lon="13.66282700677004"><ele>464.0</ele><time>2026-04-18T13:36:57.998Z</time></trkpt><trkpt lat="42.72698242257947" lon="13.662854057152348"><ele>464.0</ele><time>2026-04-18T13:36:58.998Z</time></trkpt><trkpt lat="42.72714403687858" lon="13.662884447144378"><ele>464.0</ele><time>2026-04-18T13:36:59.998Z</time></trkpt><trkpt lat="42.72730379217852" lon="13.6629157109779"><ele>464.0</ele><time>2026-04-18T13:37:00.998Z</time></trkpt><trkpt lat="42.72745829917767" lon="13.662941244597093"><ele>464.0</ele><time>2026-04-18T13:37:01.998Z</time></trkpt><trkpt lat="42.72761165420336" lon="13.662966661568094"><ele>464.0</ele><time>2026-04-18T13:37:02.998Z</time></trkpt><trkpt lat="42.72776094935002" lon="13.66297983877491"><ele>464.0</ele><time>2026-04-18T13:37:03.998Z</time></trkpt><trkpt lat="42.727910916097784" lon="13.662988376214876"><ele>462.66666666666663</ele><time>2026-04-18T13:37:04.998Z</time></trkpt><trkpt lat="42.72806086871345" lon="13.662976458349847"><ele>461.33333333333337</ele><time>2026-04-18T13:37:05.998Z</time></trkpt><trkpt lat="42.72821559700784" lon="13.662971314518591"><ele>460.0</ele><time>2026-04-18T13:37:06.998Z</time></trkpt><trkpt lat="42.72836864627185" lon="13.662970298474718"><ele>460.0</ele><time>2026-04-18T13:37:07.998Z</time></trkpt><trkpt lat="42.72852234109497" lon="13.662965057901859"><ele>460.0</ele><time>2026-04-18T13:37:08.998Z</time></trkpt><trkpt lat="42.728678268833555" lon="13.662960981198813"><ele>460.0</ele><time>2026-04-18T13:37:09.998Z</time></trkpt><trkpt lat="42.728833739366934" lon="13.662954016397366"><ele>458.33333333333337</ele><time>2026-04-18T13:37:10.997Z</time></trkpt><trkpt lat="42.7289894236353" lon="13.662948483443987"><ele>456.66666666666663</ele><time>2026-04-18T13:37:11.997Z</time></trkpt><trkpt lat="42.729141204972244" lon="13.662939925358957"><ele>455.0</ele><time>2026-04-18T13:37:12.997Z</time></trkpt><trkpt lat="42.72929565603187" lon="13.662925656849799"><ele>454.0</ele><time>2026-04-18T13:37:13.997Z</time></trkpt><trkpt lat="42.729454164457294" lon="13.662912536399187"><ele>453.0</ele><time>2026-04-18T13:37:14.997Z</time></trkpt><trkpt lat="42.72961092560947" lon="13.662875603067466"><ele>452.0</ele><time>2026-04-18T13:37:15.997Z</time></trkpt><trkpt lat="42.72976049657921" lon="13.662823605509624"><ele>453.3333333333333</ele><time>2026-04-18T13:37:16.997Z</time></trkpt><trkpt lat="42.72991479677381" lon="13.66276792477757"><ele>454.66666666666663</ele><time>2026-04-18T13:37:17.997Z</time></trkpt><trkpt lat="42.730070142594904" lon="13.662714007454984"><ele>456.0</ele><time>2026-04-18T13:37:19Z</time></trkpt><trkpt lat="42.730226782747145" lon="13.662665801560061"><ele>456.0</ele><time>2026-04-18T13:37:20Z</time></trkpt><trkpt lat="42.730380441721536" lon="13.662617178940266"><ele>456.0</ele><time>2026-04-18T13:37:21Z</time></trkpt><trkpt lat="42.730540396129754" lon="13.6625729461863"><ele>456.0</ele><time>2026-04-18T13:37:22Z</time></trkpt><trkpt lat="42.73069718925717" lon="13.66252671046996"><ele>456.0</ele><time>2026-04-18T13:37:23Z</time></trkpt><trkpt lat="42.7308615332812" lon="13.662476537650068"><ele>456.0</ele><time>2026-04-18T13:37:24Z</time></trkpt><trkpt lat="42.73101233028625" lon="13.662420559164458"><ele>456.0</ele><time>2026-04-18T13:37:25Z</time></trkpt><trkpt lat="42.73118012619157" lon="13.662367237073024"><ele>455.33333333333337</ele><time>2026-04-18T13:37:26Z</time></trkpt><trkpt lat="42.731337594947746" lon="13.662308396403263"><ele>454.6666666666667</ele><time>2026-04-18T13:37:27Z</time></trkpt><trkpt lat="42.73150582479074" lon="13.662253117675277"><ele>454.0</ele><time>2026-04-18T13:37:28Z</time></trkpt><trkpt lat="42.731667602233216" lon="13.662197341905733"><ele>454.0</ele><time>2026-04-18T13:37:29Z</time></trkpt><trkpt lat="42.73183529282418" lon="13.662137315100946"><ele>454.0</ele><time>2026-04-18T13:37:30Z</time></trkpt><trkpt lat="42.73200133993761" lon="13.662075868616416"><ele>454.0</ele><time>2026-04-18T13:37:31Z</time></trkpt><trkpt lat="42.732166131151246" lon="13.662019417258575"><ele>454.33333333333337</ele><time>2026-04-18T13:37:32Z</time></trkpt><trkpt lat="42.732330467516384" lon="13.661961251031173"><ele>454.66666666666663</ele><time>2026-04-18T13:37:33Z</time></trkpt><trkpt lat="42.73249283841163" lon="13.661905438385022"><ele>455.0</ele><time>2026-04-18T13:37:34Z</time></trkpt><trkpt lat="42.73266203655873" lon="13.66185133243906"><ele>450.66666666666663</ele><time>2026-04-18T13:37:35Z</time></trkpt><trkpt lat="42.73282983577109" lon="13.66179471410658"><ele>446.33333333333337</ele><time>2026-04-18T13:37:36Z</time></trkpt><trkpt lat="42.73300254619983" lon="13.66174076932308"><ele>442.0</ele><time>2026-04-18T13:37:37Z</time></trkpt><trkpt lat="42.73317459328296" lon="13.661694445148116"><ele>442.0</ele><time>2026-04-18T13:37:38Z</time></trkpt><trkpt lat="42.73334344480257" lon="13.661653657257387"><ele>442.0</ele><time>2026-04-18T13:37:39Z</time></trkpt><trkpt lat="42.733512612922965" lon="13.661615293546632"><ele>442.0</ele><time>2026-04-18T13:37:40Z</time></trkpt><trkpt lat="42.73367931387357" lon="13.661575643568902"><ele>445.0</ele><time>2026-04-18T13:37:41Z</time></trkpt><trkpt lat="42.7338385723293" lon="13.661534755027702"><ele>448.0</ele><time>2026-04-18T13:37:42Z</time></trkpt><trkpt lat="42.73398803072911" lon="13.661482848949777"><ele>451.0</ele><time>2026-04-18T13:37:43Z</time></trkpt><trkpt lat="42.7341186910017" lon="13.661417289682321"><ele>451.0</ele><time>2026-04-18T13:37:44Z</time></trkpt><trkpt lat="42.734249296984956" lon="13.661349680742058"><ele>451.0</ele><time>2026-04-18T13:37:45Z</time></trkpt><trkpt lat="42.73436919262793" lon="13.66130939715595"><ele>451.0</ele><time>2026-04-18T13:37:46Z</time></trkpt><trkpt lat="42.73449772511781" lon="13.661312940136254"><ele>451.0</ele><time>2026-04-18T13:37:47Z</time></trkpt><trkpt lat="42.73463104091204" lon="13.661336729965651"><ele>453.0</ele><time>2026-04-18T13:37:48Z</time></trkpt><trkpt lat="42.734773913585904" lon="13.661351398037993"><ele>455.0</ele><time>2026-04-18T13:37:49Z</time></trkpt><trkpt lat="42.73492364412835" lon="13.661346448562469"><ele>457.0</ele><time>2026-04-18T13:37:50Z</time></trkpt><trkpt lat="42.735079893108264" lon="13.661331648113986"><ele>456.6666666666667</ele><time>2026-04-18T13:37:51Z</time></trkpt><trkpt lat="42.73524150183274" lon="13.661305964132819"><ele>456.33333333333337</ele><time>2026-04-18T13:37:52Z</time></trkpt><trkpt lat="42.73540868934653" lon="13.661280747844929"><ele>456.0</ele><time>2026-04-18T13:37:53Z</time></trkpt><trkpt lat="42.73557779849048" lon="13.661249852131997"><ele>456.0</ele><time>2026-04-18T13:37:54Z</time></trkpt><trkpt lat="42.735752637964886" lon="13.66120614712226"><ele>456.0</ele><time>2026-04-18T13:37:55Z</time></trkpt><trkpt lat="42.73592587126181" lon="13.661132488635815"><ele>456.0</ele><time>2026-04-18T13:37:56Z</time></trkpt><trkpt lat="42.736085797909034" lon="13.661021584260377"><ele>455.66666666666663</ele><time>2026-04-18T13:37:57Z</time></trkpt><trkpt lat="42.7362282682677" lon="13.660878039319373"><ele>455.3333333333333</ele><time>2026-04-18T13:37:58Z</time></trkpt><trkpt lat="42.736354028301264" lon="13.660706443353115"><ele>455.0</ele><time>2026-04-18T13:37:59Z</time></trkpt><trkpt lat="42.73646647130552" lon="13.66050793596463"><ele>455.0</ele><time>2026-04-18T13:38:00Z</time></trkpt><trkpt lat="42.73657582914848" lon="13.660299855258037"><ele>455.0</ele><time>2026-04-18T13:38:01Z</time></trkpt><trkpt lat="42.736672971676406" lon="13.660084797440744"><ele>455.0</ele><time>2026-04-18T13:38:02Z</time></trkpt><trkpt lat="42.736769255695066" lon="13.659860250826235"><ele>455.3333333333333</ele><time>2026-04-18T13:38:02.999Z</time></trkpt><trkpt lat="42.73686499851864" lon="13.6596362922645"><ele>455.66666666666663</ele><time>2026-04-18T13:38:03.999Z</time></trkpt><trkpt lat="42.73696389195888" lon="13.65940705317565"><ele>456.0</ele><time>2026-04-18T13:38:04.999Z</time></trkpt><trkpt lat="42.73706049862419" lon="13.659177345267112"><ele>456.0</ele><time>2026-04-18T13:38:05.999Z</time></trkpt><trkpt lat="42.737156407283976" lon="13.658943315432738"><ele>456.0</ele><time>2026-04-18T13:38:06.999Z</time></trkpt><trkpt lat="42.73725445969761" lon="13.658717079120791"><ele>456.0</ele><time>2026-04-18T13:38:07.999Z</time></trkpt><trkpt lat="42.737356462517496" lon="13.658502234230333"><ele>455.66666666666663</ele><time>2026-04-18T13:38:08.999Z</time></trkpt><trkpt lat="42.73746959941332" lon="13.658293522667268"><ele>455.3333333333333</ele><time>2026-04-18T13:38:09.999Z</time></trkpt><trkpt lat="42.73759142112564" lon="13.658094334371327"><ele>455.0</ele><time>2026-04-18T13:38:10.999Z</time></trkpt><trkpt lat="42.737724077926046" lon="13.657903459906391"><ele>456.66666666666663</ele><time>2026-04-18T13:38:11.999Z</time></trkpt><trkpt lat="42.73786752159348" lon="13.657720487424259"><ele>458.33333333333337</ele><time>2026-04-18T13:38:12.999Z</time></trkpt><trkpt lat="42.73801470294638" lon="13.657545091177063"><ele>460.0</ele><time>2026-04-18T13:38:13.999Z</time></trkpt><trkpt lat="42.73816550854327" lon="13.657368603550903"><ele>460.0</ele><time>2026-04-18T13:38:14.999Z</time></trkpt><trkpt lat="42.738320586374414" lon="13.657191271905639"><ele>460.0</ele><time>2026-04-18T13:38:15.999Z</time></trkpt><trkpt lat="42.73847922247141" lon="13.657010769922538"><ele>460.0</ele><time>2026-04-18T13:38:16.999Z</time></trkpt><trkpt lat="42.73863602743632" lon="13.656825484857247"><ele>461.0</ele><time>2026-04-18T13:38:17.999Z</time></trkpt><trkpt lat="42.73879034918514" lon="13.656639451931971"><ele>462.0</ele><time>2026-04-18T13:38:18.999Z</time></trkpt><trkpt lat="42.73895306535467" lon="13.656449366006274"><ele>463.0</ele><time>2026-04-18T13:38:19.999Z</time></trkpt><trkpt lat="42.73911983320873" lon="13.656261905551089"><ele>462.0</ele><time>2026-04-18T13:38:20.999Z</time></trkpt><trkpt lat="42.73928330394048" lon="13.656082425535313"><ele>461.0</ele><time>2026-04-18T13:38:21.999Z</time></trkpt><trkpt lat="42.73945614117253" lon="13.655942078354567"><ele>460.0</ele><time>2026-04-18T13:38:22.999Z</time></trkpt><trkpt lat="42.739631643739195" lon="13.655917246446819"><ele>460.0</ele><time>2026-04-18T13:38:23.999Z</time></trkpt><trkpt lat="42.73981201479968" lon="13.655925150801945"><ele>460.0</ele><time>2026-04-18T13:38:24.999Z</time></trkpt><trkpt lat="42.73991394802376" lon="13.65592894080441"><ele>460.0</ele><time>2026-04-18T13:38:25.999Z</time></trkpt><trkpt lat="42.740081497307486" lon="13.655935052420194"><ele>462.0</ele><time>2026-04-18T13:38:26.999Z</time></trkpt><trkpt lat="42.740224006776714" lon="13.655929303405571"><ele>464.0</ele><time>2026-04-18T13:38:27.999Z</time></trkpt><trkpt lat="42.74033624265548" lon="13.656002069123817"><ele>466.0</ele><time>2026-04-18T13:38:28.999Z</time></trkpt><trkpt lat="42.74041594136465" lon="13.656100579902128"><ele>468.0</ele><time>2026-04-18T13:38:29.999Z</time></trkpt><trkpt lat="42.74045055914086" lon="13.656243335934159"><ele>470.0</ele><time>2026-04-18T13:38:30.999Z</time></trkpt><trkpt lat="42.740478297685875" lon="13.656415448026735"><ele>472.0</ele><time>2026-04-18T13:38:31.999Z</time></trkpt><trkpt lat="42.740472553954284" lon="13.65660322435572"><ele>474.0</ele><time>2026-04-18T13:38:32.999Z</time></trkpt><trkpt lat="42.74040936669082" lon="13.65675534564975"><ele>476.0</ele><time>2026-04-18T13:38:33.999Z</time></trkpt><trkpt lat="42.74029137807645" lon="13.656881333861909"><ele>471.66666666666663</ele><time>2026-04-18T13:38:34.999Z</time></trkpt><trkpt lat="42.740165138085096" lon="13.657030838059121"><ele>467.33333333333337</ele><time>2026-04-18T13:38:35.999Z</time></trkpt><trkpt lat="42.7400485654413" lon="13.657200953580116"><ele>463.0</ele><time>2026-04-18T13:38:36.999Z</time></trkpt><trkpt lat="42.73998109946234" lon="13.657399372157972"><ele>463.0</ele><time>2026-04-18T13:38:37.999Z</time></trkpt><trkpt lat="42.73996011189388" lon="13.657590025754804"><ele>463.0</ele><time>2026-04-18T13:38:38.999Z</time></trkpt><trkpt lat="42.740006875178615" lon="13.657774783914968"><ele>463.0</ele><time>2026-04-18T13:38:39.999Z</time></trkpt><trkpt lat="42.74010042768179" lon="13.657927680284145"><ele>463.0</ele><time>2026-04-18T13:38:40.999Z</time></trkpt><trkpt lat="42.740243132376136" lon="13.658041440891145"><ele>464.33333333333337</ele><time>2026-04-18T13:38:41.998Z</time></trkpt><trkpt lat="42.740410633818335" lon="13.658117747175734"><ele>465.66666666666663</ele><time>2026-04-18T13:38:42.998Z</time></trkpt><trkpt lat="42.740601945267684" lon="13.658169186264091"><ele>467.0</ele><time>2026-04-18T13:38:43.998Z</time></trkpt><trkpt lat="42.74080508040961" lon="13.65818740067194"><ele>467.0</ele><time>2026-04-18T13:38:44.998Z</time></trkpt><trkpt lat="42.741012051174295" lon="13.658161660060058"><ele>467.0</ele><time>2026-04-18T13:38:45.998Z</time></trkpt><trkpt lat="42.74121613765444" lon="13.658082452142391"><ele>467.0</ele><time>2026-04-18T13:38:46.998Z</time></trkpt><trkpt lat="42.74141773689669" lon="13.657982628502278"><ele>468.0</ele><time>2026-04-18T13:38:47.998Z</time></trkpt><trkpt lat="42.74156760663947" lon="13.658033880128917"><ele>469.0</ele><time>2026-04-18T13:38:48.998Z</time></trkpt><trkpt lat="42.74169408372195" lon="13.65814084133152"><ele>470.0</ele><time>2026-04-18T13:38:49.998Z</time></trkpt><trkpt lat="42.741837805216925" lon="13.658281350643712"><ele>471.0</ele><time>2026-04-18T13:38:50.998Z</time></trkpt><trkpt lat="42.741986631077175" lon="13.658418973994454"><ele>472.0</ele><time>2026-04-18T13:38:51.998Z</time></trkpt><trkpt lat="42.74213215651874" lon="13.658564212991898"><ele>473.0</ele><time>2026-04-18T13:38:52.998Z</time></trkpt><trkpt lat="42.742270858186586" lon="13.658701768891127"><ele>473.0</ele><time>2026-04-18T13:38:53.998Z</time></trkpt><trkpt lat="42.74239721594099" lon="13.65882450011487"><ele>473.0</ele><time>2026-04-18T13:38:54.998Z</time></trkpt><trkpt lat="42.74251249093496" lon="13.658922903972707"><ele>473.0</ele><time>2026-04-18T13:38:55.998Z</time></trkpt><trkpt lat="42.74262744466424" lon="13.658964942563067"><ele>473.0</ele><time>2026-04-18T13:38:56.998Z</time></trkpt><trkpt lat="42.74273579931389" lon="13.658903105939098"><ele>472.5</ele><time>2026-04-18T13:38:57.998Z</time></trkpt><trkpt lat="42.74281133676976" lon="13.658775644577869"><ele>472.0</ele><time>2026-04-18T13:38:58.998Z</time></trkpt><trkpt lat="42.74282262085593" lon="13.65860712265954"><ele>471.5</ele><time>2026-04-18T13:38:59.998Z</time></trkpt><trkpt lat="42.74280027811807" lon="13.658420689701654"><ele>471.0</ele><time>2026-04-18T13:39:00.998Z</time></trkpt><trkpt lat="42.74277662855829" lon="13.658227690714282"><ele>471.0</ele><time>2026-04-18T13:39:01.998Z</time></trkpt><trkpt lat="42.74276316331638" lon="13.658016923308482"><ele>471.0</ele><time>2026-04-18T13:39:02.998Z</time></trkpt><trkpt lat="42.74275694319795" lon="13.657793431757067"><ele>471.0</ele><time>2026-04-18T13:39:03.998Z</time></trkpt><trkpt lat="42.74276623704733" lon="13.657555280363486"><ele>472.66666666666663</ele><time>2026-04-18T13:39:04.998Z</time></trkpt><trkpt lat="42.742776151690634" lon="13.657314640940397"><ele>474.3333333333333</ele><time>2026-04-18T13:39:05.998Z</time></trkpt><trkpt lat="42.74279111909572" lon="13.657067214784488"><ele>476.0</ele><time>2026-04-18T13:39:06.998Z</time></trkpt><trkpt lat="42.74281030833399" lon="13.65681332222953"><ele>478.0</ele><time>2026-04-18T13:39:07.998Z</time></trkpt><trkpt lat="42.74283469515165" lon="13.656556623507742"><ele>480.0</ele><time>2026-04-18T13:39:08.998Z</time></trkpt><trkpt lat="42.74287091759858" lon="13.656306781721664"><ele>482.0</ele><time>2026-04-18T13:39:09.998Z</time></trkpt><trkpt lat="42.742924012837015" lon="13.65608013105221"><ele>483.66666666666663</ele><time>2026-04-18T13:39:10.998Z</time></trkpt><trkpt lat="42.74299720458916" lon="13.655885174942277"><ele>485.33333333333337</ele><time>2026-04-18T13:39:11.998Z</time></trkpt><trkpt lat="42.74310195835133" lon="13.655723178239977"><ele>487.0</ele><time>2026-04-18T13:39:12.998Z</time></trkpt><trkpt lat="42.743225098354706" lon="13.655602873078115"><ele>487.0</ele><time>2026-04-18T13:39:13.998Z</time></trkpt><trkpt lat="42.74337204478374" lon="13.655520818304758"><ele>487.0</ele><time>2026-04-18T13:39:14.998Z</time></trkpt><trkpt lat="42.743545691819115" lon="13.655506396651667"><ele>487.0</ele><time>2026-04-18T13:39:15.998Z</time></trkpt><trkpt lat="42.74371702532871" lon="13.655529112721913"><ele>488.6666666666667</ele><time>2026-04-18T13:39:16.998Z</time></trkpt><trkpt lat="42.74390021371328" lon="13.655559155776345"><ele>490.33333333333337</ele><time>2026-04-18T13:39:17.998Z</time></trkpt><trkpt lat="42.74408055018867" lon="13.65564500939323"><ele>492.0</ele><time>2026-04-18T13:39:18.998Z</time></trkpt><trkpt lat="42.74425074122879" lon="13.655772344707373"><ele>492.66666666666663</ele><time>2026-04-18T13:39:19.998Z</time></trkpt><trkpt lat="42.74440737026123" lon="13.655920223533933"><ele>493.3333333333333</ele><time>2026-04-18T13:39:20.997Z</time></trkpt><trkpt lat="42.74455779488932" lon="13.656089335887602"><ele>494.0</ele><time>2026-04-18T13:39:21.997Z</time></trkpt><trkpt lat="42.744705159799636" lon="13.656240697581442"><ele>494.0</ele><time>2026-04-18T13:39:22.997Z</time></trkpt><trkpt lat="42.74480235618224" lon="13.656420180031551"><ele>494.0</ele><time>2026-04-18T13:39:23.997Z</time></trkpt><trkpt lat="42.744882506882405" lon="13.656599629746646"><ele>494.0</ele><time>2026-04-18T13:39:25Z</time></trkpt><trkpt lat="42.74492513599915" lon="13.656804765169664"><ele>494.0</ele><time>2026-04-18T13:39:26Z</time></trkpt><trkpt lat="42.744908365350504" lon="13.657001782704429"><ele>494.0</ele><time>2026-04-18T13:39:27Z</time></trkpt><trkpt lat="42.74488262526006" lon="13.657211438174897"><ele>494.0</ele><time>2026-04-18T13:39:28Z</time></trkpt><trkpt lat="42.74488289670715" lon="13.657405043628792"><ele>494.0</ele><time>2026-04-18T13:39:29Z</time></trkpt><trkpt lat="42.744911424100835" lon="13.657586717468252"><ele>494.0</ele><time>2026-04-18T13:39:30Z</time></trkpt><trkpt lat="42.744999270973835" lon="13.65773935763655"><ele>494.0</ele><time>2026-04-18T13:39:31Z</time></trkpt><trkpt lat="42.745137877157234" lon="13.657848173399536"><ele>494.0</ele><time>2026-04-18T13:39:32Z</time></trkpt><trkpt lat="42.745301034550124" lon="13.657914487748055"><ele>494.0</ele><time>2026-04-18T13:39:33Z</time></trkpt><trkpt lat="42.74547032222039" lon="13.657951880054066"><ele>494.0</ele><time>2026-04-18T13:39:34Z</time></trkpt><trkpt lat="42.74564578752668" lon="13.65799551573668"><ele>494.0</ele><time>2026-04-18T13:39:35Z</time></trkpt><trkpt lat="42.74582723510456" lon="13.65803792892194"><ele>494.0</ele><time>2026-04-18T13:39:36Z</time></trkpt><trkpt lat="42.74600525274605" lon="13.65808062891539"><ele>494.0</ele><time>2026-04-18T13:39:37Z</time></trkpt><trkpt lat="42.746175024900715" lon="13.658098179266643"><ele>494.0</ele><time>2026-04-18T13:39:38Z</time></trkpt><trkpt lat="42.74633733001569" lon="13.65804657932221"><ele>492.66666666666663</ele><time>2026-04-18T13:39:39Z</time></trkpt><trkpt lat="42.74648293200491" lon="13.657933420257196"><ele>491.33333333333337</ele><time>2026-04-18T13:39:40Z</time></trkpt><trkpt lat="42.746611266147184" lon="13.657787358290667"><ele>490.0</ele><time>2026-04-18T13:39:41Z</time></trkpt><trkpt lat="42.74673614602277" lon="13.65767003696034"><ele>495.33333333333337</ele><time>2026-04-18T13:39:42Z</time></trkpt><trkpt lat="42.746889933341805" lon="13.657653633652227"><ele>500.66666666666663</ele><time>2026-04-18T13:39:43Z</time></trkpt><trkpt lat="42.747048284458025" lon="13.657696446194757"><ele>506.0</ele><time>2026-04-18T13:39:44Z</time></trkpt><trkpt lat="42.747221526311584" lon="13.657728922961846"><ele>506.0</ele><time>2026-04-18T13:39:45Z</time></trkpt><trkpt lat="42.74738868126788" lon="13.657751932447539"><ele>506.0</ele><time>2026-04-18T13:39:46Z</time></trkpt><trkpt lat="42.747553703185474" lon="13.657730342994595"><ele>506.0</ele><time>2026-04-18T13:39:47Z</time></trkpt><trkpt lat="42.74770041068296" lon="13.657687237108023"><ele>506.25</ele><time>2026-04-18T13:39:48Z</time></trkpt><trkpt lat="42.74783458147623" lon="13.65766991339081"><ele>506.5</ele><time>2026-04-18T13:39:49Z</time></trkpt><trkpt lat="42.74794133905803" lon="13.65776772209671"><ele>506.75</ele><time>2026-04-18T13:39:50Z</time></trkpt><trkpt lat="42.74802048000998" lon="13.657905993852799"><ele>507.0</ele><time>2026-04-18T13:39:51Z</time></trkpt><trkpt lat="42.748103098020906" lon="13.658072419604817"><ele>504.75</ele><time>2026-04-18T13:39:52Z</time></trkpt><trkpt lat="42.74819756534315" lon="13.658209677679423"><ele>502.5</ele><time>2026-04-18T13:39:53Z</time></trkpt><trkpt lat="42.74831292491345" lon="13.658272560052882"><ele>500.25</ele><time>2026-04-18T13:39:54Z</time></trkpt><trkpt lat="42.74844327922331" lon="13.658265821552327"><ele>498.0</ele><time>2026-04-18T13:39:55Z</time></trkpt><trkpt lat="42.748564433113984" lon="13.658181987337754"><ele>496.33333333333337</ele><time>2026-04-18T13:39:56Z</time></trkpt><trkpt lat="42.7486614034722" lon="13.658035902054117"><ele>494.6666666666667</ele><time>2026-04-18T13:39:57Z</time></trkpt><trkpt lat="42.74872121079136" lon="13.65783239774012"><ele>493.0</ele><time>2026-04-18T13:39:58Z</time></trkpt><trkpt lat="42.748758625659434" lon="13.657607049444668"><ele>493.0</ele><time>2026-04-18T13:39:59Z</time></trkpt><trkpt lat="42.74880255003603" lon="13.657393156144796"><ele>493.0</ele><time>2026-04-18T13:40:00Z</time></trkpt><trkpt lat="42.748875799553396" lon="13.657207379876263"><ele>493.0</ele><time>2026-04-18T13:40:01Z</time></trkpt><trkpt lat="42.74898885746102" lon="13.657090073215755"><ele>493.0</ele><time>2026-04-18T13:40:02Z</time></trkpt><trkpt lat="42.74910996697949" lon="13.656995723505759"><ele>493.0</ele><time>2026-04-18T13:40:03Z</time></trkpt><trkpt lat="42.74925388310353" lon="13.656927434848354"><ele>493.0</ele><time>2026-04-18T13:40:04Z</time></trkpt><trkpt lat="42.74939139049184" lon="13.65682950349472"><ele>493.0</ele><time>2026-04-18T13:40:05Z</time></trkpt><trkpt lat="42.74952635302246" lon="13.656729341615957"><ele>495.25</ele><time>2026-04-18T13:40:06Z</time></trkpt><trkpt lat="42.74966412035675" lon="13.656639711018679"><ele>497.5</ele><time>2026-04-18T13:40:07Z</time></trkpt><trkpt lat="42.74980233562332" lon="13.656572044274219"><ele>499.75</ele><time>2026-04-18T13:40:08Z</time></trkpt><trkpt lat="42.74993885192588" lon="13.656516055250227"><ele>502.0</ele><time>2026-04-18T13:40:09Z</time></trkpt><trkpt lat="42.75007395370574" lon="13.656471856916735"><ele>502.0</ele><time>2026-04-18T13:40:10Z</time></trkpt><trkpt lat="42.750207492908544" lon="13.656444119276433"><ele>502.0</ele><time>2026-04-18T13:40:10.999Z</time></trkpt><trkpt lat="42.75033506393375" lon="13.656462097618439"><ele>502.0</ele><time>2026-04-18T13:40:11.999Z</time></trkpt><trkpt lat="42.75043996914709" lon="13.656560758788308"><ele>502.0</ele><time>2026-04-18T13:40:12.999Z</time></trkpt><trkpt lat="42.750508209705906" lon="13.656698150094611"><ele>502.75</ele><time>2026-04-18T13:40:13.999Z</time></trkpt><trkpt lat="42.75055860072508" lon="13.656860616651043"><ele>503.5</ele><time>2026-04-18T13:40:14.999Z</time></trkpt><trkpt lat="42.75056963086367" lon="13.657044687065795"><ele>504.25</ele><time>2026-04-18T13:40:15.999Z</time></trkpt><trkpt lat="42.75054874105475" lon="13.65724299063079"><ele>505.0</ele><time>2026-04-18T13:40:16.999Z</time></trkpt><trkpt lat="42.750510721305666" lon="13.657448077028175"><ele>505.6666666666667</ele><time>2026-04-18T13:40:17.999Z</time></trkpt><trkpt lat="42.75046822628843" lon="13.657659700192703"><ele>506.33333333333337</ele><time>2026-04-18T13:40:18.999Z</time></trkpt><trkpt lat="42.75043421259387" lon="13.657880798754833"><ele>507.0</ele><time>2026-04-18T13:40:19.999Z</time></trkpt><trkpt lat="42.750388257290396" lon="13.658100862873297"><ele>508.33333333333337</ele><time>2026-04-18T13:40:20.999Z</time></trkpt><trkpt lat="42.75035372722479" lon="13.65832178735442"><ele>509.6666666666667</ele><time>2026-04-18T13:40:21.999Z</time></trkpt><trkpt lat="42.75033183194241" lon="13.658549464169596"><ele>511.0</ele><time>2026-04-18T13:40:22.999Z</time></trkpt><trkpt lat="42.75032488871461" lon="13.658776683209833"><ele>511.33333333333337</ele><time>2026-04-18T13:40:23.999Z</time></trkpt><trkpt lat="42.750325917418444" lon="13.658998400300693"><ele>511.66666666666663</ele><time>2026-04-18T13:40:24.999Z</time></trkpt><trkpt lat="42.75033156665007" lon="13.659211092204103"><ele>512.0</ele><time>2026-04-18T13:40:25.999Z</time></trkpt><trkpt lat="42.75034285310989" lon="13.659418371026177"><ele>509.3333333333333</ele><time>2026-04-18T13:40:26.999Z</time></trkpt><trkpt lat="42.750372208254774" lon="13.659624061120176"><ele>506.66666666666663</ele><time>2026-04-18T13:40:27.999Z</time></trkpt><trkpt lat="42.75042898048078" lon="13.659819149968802"><ele>504.0</ele><time>2026-04-18T13:40:28.999Z</time></trkpt><trkpt lat="42.75050528815874" lon="13.659996185399942"><ele>504.0</ele><time>2026-04-18T13:40:29.999Z</time></trkpt><trkpt lat="42.75061225490368" lon="13.660153993861623"><ele>504.0</ele><time>2026-04-18T13:40:30.999Z</time></trkpt><trkpt lat="42.75073837148199" lon="13.660277091925323"><ele>504.0</ele><time>2026-04-18T13:40:31.999Z</time></trkpt><trkpt lat="42.750879181726944" lon="13.66037306716758"><ele>503.66666666666663</ele><time>2026-04-18T13:40:32.999Z</time></trkpt><trkpt lat="42.75102318294771" lon="13.66045085110864"><ele>503.3333333333333</ele><time>2026-04-18T13:40:33.999Z</time></trkpt><trkpt lat="42.75117123887916" lon="13.660521645726936"><ele>503.0</ele><time>2026-04-18T13:40:34.999Z</time></trkpt><trkpt lat="42.751317846974416" lon="13.660594626274241"><ele>503.0</ele><time>2026-04-18T13:40:35.999Z</time></trkpt><trkpt lat="42.751464992930174" lon="13.66067922905502"><ele>503.0</ele><time>2026-04-18T13:40:36.999Z</time></trkpt><trkpt lat="42.75160768771307" lon="13.660765600588512"><ele>503.0</ele><time>2026-04-18T13:40:37.999Z</time></trkpt><trkpt lat="42.751751353469736" lon="13.66085378806972"><ele>501.66666666666663</ele><time>2026-04-18T13:40:38.999Z</time></trkpt><trkpt lat="42.7518887487977" lon="13.660936143522365"><ele>500.33333333333337</ele><time>2026-04-18T13:40:39.999Z</time></trkpt><trkpt lat="42.752023634231826" lon="13.661031462400702"><ele>499.0</ele><time>2026-04-18T13:40:40.999Z</time></trkpt><trkpt lat="42.75215323856889" lon="13.661142992827513"><ele>499.0</ele><time>2026-04-18T13:40:41.999Z</time></trkpt><trkpt lat="42.75227500952517" lon="13.661266669809356"><ele>499.0</ele><time>2026-04-18T13:40:42.999Z</time></trkpt><trkpt lat="42.75238544826878" lon="13.661409620669865"><ele>499.0</ele><time>2026-04-18T13:40:43.999Z</time></trkpt><trkpt lat="42.75247793909816" lon="13.661571680895776"><ele>499.0</ele><time>2026-04-18T13:40:44.999Z</time></trkpt><trkpt lat="42.75254907049138" lon="13.661756427584047"><ele>499.0</ele><time>2026-04-18T13:40:45.999Z</time></trkpt><trkpt lat="42.75259744078627" lon="13.661953471762143"><ele>499.0</ele><time>2026-04-18T13:40:46.999Z</time></trkpt><trkpt lat="42.752631432513525" lon="13.66215372788283"><ele>498.0</ele><time>2026-04-18T13:40:47.999Z</time></trkpt><trkpt lat="42.75266148323654" lon="13.662359688008417"><ele>497.0</ele><time>2026-04-18T13:40:48.999Z</time></trkpt><trkpt lat="42.75268472597652" lon="13.66256570235586"><ele>496.0</ele><time>2026-04-18T13:40:49.998Z</time></trkpt><trkpt lat="42.752695454143215" lon="13.662771059375006"><ele>496.33333333333337</ele><time>2026-04-18T13:40:50.998Z</time></trkpt><trkpt lat="42.75270057527917" lon="13.662979813483702"><ele>496.66666666666663</ele><time>2026-04-18T13:40:51.998Z</time></trkpt><trkpt lat="42.75270671670653" lon="13.663182437167505"><ele>497.0</ele><time>2026-04-18T13:40:52.998Z</time></trkpt><trkpt lat="42.75272048690228" lon="13.663384220763955"><ele>497.75</ele><time>2026-04-18T13:40:53.998Z</time></trkpt><trkpt lat="42.7527414425096" lon="13.663573155995579"><ele>498.5</ele><time>2026-04-18T13:40:54.998Z</time></trkpt><trkpt lat="42.752754862736914" lon="13.663756064903625"><ele>499.25</ele><time>2026-04-18T13:40:55.998Z</time></trkpt><trkpt lat="42.75278415304966" lon="13.663925608617564"><ele>500.0</ele><time>2026-04-18T13:40:56.998Z</time></trkpt><trkpt lat="42.75281918535368" lon="13.664091076299524"><ele>500.0</ele><time>2026-04-18T13:40:57.998Z</time></trkpt><trkpt lat="42.752860243895206" lon="13.664253697505353"><ele>500.0</ele><time>2026-04-18T13:40:58.998Z</time></trkpt><trkpt lat="42.75290296565623" lon="13.664428134716172"><ele>500.0</ele><time>2026-04-18T13:40:59.998Z</time></trkpt><trkpt lat="42.75295453641917" lon="13.664601988743119"><ele>500.0</ele><time>2026-04-18T13:41:00.998Z</time></trkpt><trkpt lat="42.753009630991095" lon="13.664772076484201"><ele>498.75</ele><time>2026-04-18T13:41:01.998Z</time></trkpt><trkpt lat="42.7530731559019" lon="13.664950406362378"><ele>497.5</ele><time>2026-04-18T13:41:02.998Z</time></trkpt><trkpt lat="42.753150759196664" lon="13.665113093754371"><ele>496.25</ele><time>2026-04-18T13:41:03.998Z</time></trkpt><trkpt lat="42.753255797637934" lon="13.665261057955593"><ele>495.0</ele><time>2026-04-18T13:41:04.998Z</time></trkpt><trkpt lat="42.7533778877181" lon="13.665387403786298"><ele>495.0</ele><time>2026-04-18T13:41:05.998Z</time></trkpt><trkpt lat="42.753508036560696" lon="13.66551070706547"><ele>495.0</ele><time>2026-04-18T13:41:06.998Z</time></trkpt><trkpt lat="42.75362886861191" lon="13.665645348485356"><ele>495.0</ele><time>2026-04-18T13:41:07.998Z</time></trkpt><trkpt lat="42.7537400247205" lon="13.665802205841093"><ele>495.0</ele><time>2026-04-18T13:41:08.998Z</time></trkpt><trkpt lat="42.753838918976044" lon="13.665977487376487"><ele>495.0</ele><time>2026-04-18T13:41:09.998Z</time></trkpt><trkpt lat="42.75391982736569" lon="13.66616635400113"><ele>495.0</ele><time>2026-04-18T13:41:10.998Z</time></trkpt><trkpt lat="42.75399117395938" lon="13.666356470430445"><ele>494.33333333333337</ele><time>2026-04-18T13:41:11.998Z</time></trkpt><trkpt lat="42.75405947537302" lon="13.666555506122052"><ele>493.6666666666667</ele><time>2026-04-18T13:41:12.998Z</time></trkpt><trkpt lat="42.754133386482" lon="13.666750558496114"><ele>493.0</ele><time>2026-04-18T13:41:13.998Z</time></trkpt><trkpt lat="42.75420621129624" lon="13.666943419442166"><ele>493.33333333333337</ele><time>2026-04-18T13:41:14.998Z</time></trkpt><trkpt lat="42.75428864485763" lon="13.667134853420425"><ele>493.66666666666663</ele><time>2026-04-18T13:41:15.998Z</time></trkpt><trkpt lat="42.754385400150305" lon="13.667319611259263"><ele>494.0</ele><time>2026-04-18T13:41:16.998Z</time></trkpt><trkpt lat="42.75448760513644" lon="13.667496103435328"><ele>494.0</ele><time>2026-04-18T13:41:17.998Z</time></trkpt><trkpt lat="42.754589821637346" lon="13.66766947110616"><ele>494.0</ele><time>2026-04-18T13:41:18.998Z</time></trkpt><trkpt lat="42.75469124240332" lon="13.667848306230566"><ele>494.0</ele><time>2026-04-18T13:41:19.998Z</time></trkpt><trkpt lat="42.754786249150015" lon="13.668015849620708"><ele>492.75</ele><time>2026-04-18T13:41:20.998Z</time></trkpt><trkpt lat="42.754879515258395" lon="13.668180332107307"><ele>491.5</ele><time>2026-04-18T13:41:21.998Z</time></trkpt><trkpt lat="42.75496689496191" lon="13.66833767551215"><ele>490.25</ele><time>2026-04-18T13:41:22.998Z</time></trkpt><trkpt lat="42.75505257947288" lon="13.668481883103885"><ele>489.0</ele><time>2026-04-18T13:41:23.998Z</time></trkpt><trkpt lat="42.75514821938015" lon="13.66860336703877"><ele>487.0</ele><time>2026-04-18T13:41:24.998Z</time></trkpt><trkpt lat="42.75525800049476" lon="13.668691380288205"><ele>485.0</ele><time>2026-04-18T13:41:25.998Z</time></trkpt><trkpt lat="42.75538566747666" lon="13.668733583262657"><ele>483.0</ele><time>2026-04-18T13:41:26.998Z</time></trkpt><trkpt lat="42.75551913446081" lon="13.66876743790005"><ele>481.0</ele><time>2026-04-18T13:41:27.997Z</time></trkpt><trkpt lat="42.755648704508424" lon="13.668781653550832"><ele>481.0</ele><time>2026-04-18T13:41:28.997Z</time></trkpt><trkpt lat="42.75577309797233" lon="13.668762395333111"><ele>481.0</ele><time>2026-04-18T13:41:29.997Z</time></trkpt><trkpt lat="42.75589690606787" lon="13.668695114607711"><ele>481.0</ele><time>2026-04-18T13:41:31Z</time></trkpt><trkpt lat="42.756013226163084" lon="13.668593774942043"><ele>481.0</ele><time>2026-04-18T13:41:32Z</time></trkpt><trkpt lat="42.75611850654905" lon="13.668461825310706"><ele>479.33333333333337</ele><time>2026-04-18T13:41:33Z</time></trkpt><trkpt lat="42.756216918312674" lon="13.668310696241937"><ele>477.66666666666663</ele><time>2026-04-18T13:41:34Z</time></trkpt><trkpt lat="42.75630450540194" lon="13.668144078802273"><ele>476.0</ele><time>2026-04-18T13:41:35Z</time></trkpt><trkpt lat="42.75638443112567" lon="13.667963490377906"><ele>476.0</ele><time>2026-04-18T13:41:36Z</time></trkpt><trkpt lat="42.75646002551194" lon="13.667782733385083"><ele>476.0</ele><time>2026-04-18T13:41:37Z</time></trkpt><trkpt lat="42.756535884118485" lon="13.667608280162632"><ele>476.0</ele><time>2026-04-18T13:41:38Z</time></trkpt><trkpt lat="42.75662183909777" lon="13.667467322782528"><ele>476.0</ele><time>2026-04-18T13:41:39Z</time></trkpt><trkpt lat="42.756740304270984" lon="13.667371132991212"><ele>476.3333333333333</ele><time>2026-04-18T13:41:40Z</time></trkpt><trkpt lat="42.7568881276854" lon="13.667313197630639"><ele>476.66666666666663</ele><time>2026-04-18T13:41:41.001Z</time></trkpt><trkpt lat="42.75704905010697" lon="13.667266457852493"><ele>477.0</ele><time>2026-04-18T13:41:41.999Z</time></trkpt><trkpt lat="42.75720951251376" lon="13.667212112742384"><ele>477.0</ele><time>2026-04-18T13:41:42.999Z</time></trkpt><trkpt lat="42.757374739174224" lon="13.667154864923777"><ele>477.0</ele><time>2026-04-18T13:41:44Z</time></trkpt><trkpt lat="42.75753445049946" lon="13.667104424618644"><ele>477.0</ele><time>2026-04-18T13:41:44.999Z</time></trkpt><trkpt lat="42.7576899579682" lon="13.667055483859517"><ele>474.66666666666663</ele><time>2026-04-18T13:41:45.999Z</time></trkpt><trkpt lat="42.75784171040417" lon="13.667006655009653"><ele>472.3333333333333</ele><time>2026-04-18T13:41:46.999Z</time></trkpt><trkpt lat="42.75799461738047" lon="13.666962096829712"><ele>470.0</ele><time>2026-04-18T13:41:47.999Z</time></trkpt><trkpt lat="42.758145988716365" lon="13.666922959613816"><ele>472.3333333333333</ele><time>2026-04-18T13:41:48.999Z</time></trkpt><trkpt lat="42.75829744983804" lon="13.666886097952462"><ele>474.66666666666663</ele><time>2026-04-18T13:41:49.999Z</time></trkpt><trkpt lat="42.75845049293768" lon="13.666849367679653"><ele>477.0</ele><time>2026-04-18T13:41:50.999Z</time></trkpt><trkpt lat="42.75860391696507" lon="13.666813909366224"><ele>477.0</ele><time>2026-04-18T13:41:51.999Z</time></trkpt><trkpt lat="42.758762069923755" lon="13.666781005423157"><ele>477.0</ele><time>2026-04-18T13:41:52.999Z</time></trkpt><trkpt lat="42.758920126594305" lon="13.666746905397638"><ele>477.0</ele><time>2026-04-18T13:41:53.999Z</time></trkpt><trkpt lat="42.75907800832345" lon="13.666712660721304"><ele>477.0</ele><time>2026-04-18T13:41:54.999Z</time></trkpt><trkpt lat="42.75923818047538" lon="13.666678975173733"><ele>477.0</ele><time>2026-04-18T13:41:55.999Z</time></trkpt><trkpt lat="42.759398721204235" lon="13.6666427145225"><ele>477.0</ele><time>2026-04-18T13:41:56.999Z</time></trkpt><trkpt lat="42.75956240264235" lon="13.666611021876916"><ele>473.33333333333337</ele><time>2026-04-18T13:41:57.999Z</time></trkpt><trkpt lat="42.75972327425724" lon="13.666576138392008"><ele>469.6666666666667</ele><time>2026-04-18T13:41:58.999Z</time></trkpt><trkpt lat="42.7598844974378" lon="13.666535195167203"><ele>466.0</ele><time>2026-04-18T13:41:59.999Z</time></trkpt><trkpt lat="42.76004453361954" lon="13.666484070861998"><ele>463.0</ele><time>2026-04-18T13:42:00.999Z</time></trkpt><trkpt lat="42.76020382493475" lon="13.666422051367444"><ele>460.0</ele><time>2026-04-18T13:42:01.999Z</time></trkpt><trkpt lat="42.76035895065639" lon="13.6663462164565"><ele>457.0</ele><time>2026-04-18T13:42:02.999Z</time></trkpt><trkpt lat="42.76051506350772" lon="13.666270606427311"><ele>457.0</ele><time>2026-04-18T13:42:03.999Z</time></trkpt><trkpt lat="42.76066944075963" lon="13.666195243214121"><ele>457.0</ele><time>2026-04-18T13:42:04.999Z</time></trkpt><trkpt lat="42.76082525804806" lon="13.666119240924576"><ele>457.0</ele><time>2026-04-18T13:42:05.999Z</time></trkpt><trkpt lat="42.76097661227116" lon="13.66603801436351"><ele>458.0</ele><time>2026-04-18T13:42:06.999Z</time></trkpt><trkpt lat="42.761128288202215" lon="13.665948546454695"><ele>459.0</ele><time>2026-04-18T13:42:07.999Z</time></trkpt><trkpt lat="42.76127236962441" lon="13.665835409092022"><ele>460.0</ele><time>2026-04-18T13:42:08.999Z</time></trkpt><trkpt lat="42.761400750777256" lon="13.665689128027772"><ele>460.0</ele><time>2026-04-18T13:42:09.999Z</time></trkpt><trkpt lat="42.76151068393997" lon="13.66551907257367"><ele>460.0</ele><time>2026-04-18T13:42:10.999Z</time></trkpt><trkpt lat="42.761618442385505" lon="13.665336955519734"><ele>460.0</ele><time>2026-04-18T13:42:11.999Z</time></trkpt><trkpt lat="42.76172811074437" lon="13.665152192149504"><ele>464.33333333333337</ele><time>2026-04-18T13:42:12.999Z</time></trkpt><trkpt lat="42.76184484887885" lon="13.664975422007068"><ele>468.66666666666663</ele><time>2026-04-18T13:42:13.999Z</time></trkpt><trkpt lat="42.76196858586276" lon="13.66480720060042"><ele>473.0</ele><time>2026-04-18T13:42:14.999Z</time></trkpt><trkpt lat="42.76210195741944" lon="13.664646456850685"><ele>467.0</ele><time>2026-04-18T13:42:15.999Z</time></trkpt><trkpt lat="42.762242128886015" lon="13.664493871834596"><ele>461.0</ele><time>2026-04-18T13:42:16.999Z</time></trkpt><trkpt lat="42.76238984469557" lon="13.66434525492635"><ele>455.0</ele><time>2026-04-18T13:42:17.999Z</time></trkpt><trkpt lat="42.76250728935294" lon="13.66421900073124"><ele>455.0</ele><time>2026-04-18T13:42:18.999Z</time></trkpt><trkpt lat="42.76263423461422" lon="13.664063347025358"><ele>455.0</ele><time>2026-04-18T13:42:19.999Z</time></trkpt><trkpt lat="42.76272553292208" lon="13.663874132930014"><ele>455.0</ele><time>2026-04-18T13:42:20.999Z</time></trkpt><trkpt lat="42.7627869011621" lon="13.663656022007553"><ele>450.66666666666663</ele><time>2026-04-18T13:42:21.999Z</time></trkpt><trkpt lat="42.762834460662944" lon="13.663431981679604"><ele>446.33333333333337</ele><time>2026-04-18T13:42:22.999Z</time></trkpt><trkpt lat="42.76288718136439" lon="13.663208009283544"><ele>442.0</ele><time>2026-04-18T13:42:23.999Z</time></trkpt><trkpt lat="42.76295050178612" lon="13.662990603819734"><ele>442.0</ele><time>2026-04-18T13:42:24.999Z</time></trkpt><trkpt lat="42.76302185303967" lon="13.662794341956392"><ele>442.0</ele><time>2026-04-18T13:42:25.998Z</time></trkpt><trkpt lat="42.76309427030321" lon="13.662608429728612"><ele>442.0</ele><time>2026-04-18T13:42:26.998Z</time></trkpt><trkpt lat="42.76316325615602" lon="13.662429093438732"><ele>443.25</ele><time>2026-04-18T13:42:27.998Z</time></trkpt><trkpt lat="42.76323165106618" lon="13.662257015988567"><ele>444.5</ele><time>2026-04-18T13:42:28.998Z</time></trkpt><trkpt lat="42.76330647086657" lon="13.662087388382437"><ele>445.75</ele><time>2026-04-18T13:42:29.998Z</time></trkpt><trkpt lat="42.76338620523406" lon="13.661915949201909"><ele>447.0</ele><time>2026-04-18T13:42:30.998Z</time></trkpt><trkpt lat="42.7634768274041" lon="13.661755288701283"><ele>445.75</ele><time>2026-04-18T13:42:31.998Z</time></trkpt><trkpt lat="42.76360959796419" lon="13.661660529819601"><ele>444.5</ele><time>2026-04-18T13:42:32.998Z</time></trkpt><trkpt lat="42.76374610444698" lon="13.66164764764415"><ele>443.25</ele><time>2026-04-18T13:42:33.998Z</time></trkpt><trkpt lat="42.763891969139486" lon="13.661670745456883"><ele>442.0</ele><time>2026-04-18T13:42:34.998Z</time></trkpt><trkpt lat="42.76405205834366" lon="13.66171025615348"><ele>442.0</ele><time>2026-04-18T13:42:35.998Z</time></trkpt><trkpt lat="42.7642097623849" lon="13.66178228002916"><ele>442.0</ele><time>2026-04-18T13:42:36.998Z</time></trkpt><trkpt lat="42.76437484268132" lon="13.661863549764321"><ele>442.0</ele><time>2026-04-18T13:42:37.998Z</time></trkpt><trkpt lat="42.76454205266243" lon="13.661928010976684"><ele>437.0</ele><time>2026-04-18T13:42:38.998Z</time></trkpt><trkpt lat="42.76469796017609" lon="13.66199534504324"><ele>432.0</ele><time>2026-04-18T13:42:39.998Z</time></trkpt><trkpt lat="42.764856479858786" lon="13.662016870224337"><ele>427.0</ele><time>2026-04-18T13:42:40.998Z</time></trkpt><trkpt lat="42.76502158808016" lon="13.661983739289091"><ele>425.33333333333337</ele><time>2026-04-18T13:42:41.998Z</time></trkpt><trkpt lat="42.76518399764973" lon="13.661916762629637"><ele>423.66666666666663</ele><time>2026-04-18T13:42:42.998Z</time></trkpt><trkpt lat="42.76534111286384" lon="13.661828985231377"><ele>422.0</ele><time>2026-04-18T13:42:43.998Z</time></trkpt><trkpt lat="42.76548703256223" lon="13.661731488845053"><ele>422.0</ele><time>2026-04-18T13:42:44.998Z</time></trkpt><trkpt lat="42.765618141200136" lon="13.661617563537938"><ele>422.0</ele><time>2026-04-18T13:42:45.998Z</time></trkpt><trkpt lat="42.76572940822158" lon="13.661466225634989"><ele>422.0</ele><time>2026-04-18T13:42:46.998Z</time></trkpt><trkpt lat="42.76582199231565" lon="13.661270482399306"><ele>420.3333333333333</ele><time>2026-04-18T13:42:47.998Z</time></trkpt><trkpt lat="42.765902688052286" lon="13.661053936125526"><ele>418.66666666666663</ele><time>2026-04-18T13:42:48.998Z</time></trkpt><trkpt lat="42.76601654062659" lon="13.660876668920354"><ele>417.0</ele><time>2026-04-18T13:42:49.998Z</time></trkpt><trkpt lat="42.766179102936704" lon="13.660817795509116"><ele>417.0</ele><time>2026-04-18T13:42:50.998Z</time></trkpt><trkpt lat="42.766347128553925" lon="13.660740532106791"><ele>417.0</ele><time>2026-04-18T13:42:51.998Z</time></trkpt><trkpt lat="42.76651234806517" lon="13.66066782558272"><ele>417.0</ele><time>2026-04-18T13:42:52.998Z</time></trkpt><trkpt lat="42.76667510676247" lon="13.660613069580435"><ele>417.0</ele><time>2026-04-18T13:42:53.998Z</time></trkpt><trkpt lat="42.766837110921415" lon="13.660579205585641"><ele>417.0</ele><time>2026-04-18T13:42:54.998Z</time></trkpt><trkpt lat="42.76699173970699" lon="13.66059899332966"><ele>417.0</ele><time>2026-04-18T13:42:55.998Z</time></trkpt><trkpt lat="42.76715371553755" lon="13.660635360133023"><ele>413.66666666666663</ele><time>2026-04-18T13:42:56.998Z</time></trkpt><trkpt lat="42.76731677472212" lon="13.660676912275767"><ele>410.3333333333333</ele><time>2026-04-18T13:42:57.998Z</time></trkpt><trkpt lat="42.767482125792654" lon="13.660703464251835"><ele>407.0</ele><time>2026-04-18T13:42:58.998Z</time></trkpt><trkpt lat="42.76764300577293" lon="13.660751366385671"><ele>407.0</ele><time>2026-04-18T13:42:59.998Z</time></trkpt><trkpt lat="42.76780123395617" lon="13.66079551005401"><ele>407.0</ele><time>2026-04-18T13:43:00.998Z</time></trkpt><trkpt lat="42.767952424585445" lon="13.660834447346847"><ele>407.0</ele><time>2026-04-18T13:43:01.998Z</time></trkpt><trkpt lat="42.76809228967882" lon="13.660866289875576"><ele>407.0</ele><time>2026-04-18T13:43:02.998Z</time></trkpt><trkpt lat="42.768199888758986" lon="13.660874330347312"><ele>407.0</ele><time>2026-04-18T13:43:03.998Z</time></trkpt><trkpt lat="42.76827599318733" lon="13.6608212385646"><ele>407.0</ele><time>2026-04-18T13:43:04.997Z</time></trkpt><trkpt lat="42.76831822808871" lon="13.660710076395606"><ele>407.0</ele><time>2026-04-18T13:43:05.997Z</time></trkpt><trkpt lat="42.768304597223995" lon="13.660568088706324"><ele>407.0</ele><time>2026-04-18T13:43:06.997Z</time></trkpt><trkpt lat="42.76822412786998" lon="13.660439461642229"><ele>407.0</ele><time>2026-04-18T13:43:07.997Z</time></trkpt><trkpt lat="42.76809996961849" lon="13.660364744889051"><ele>407.0</ele><time>2026-04-18T13:43:08.997Z</time></trkpt><trkpt lat="42.767948181388476" lon="13.660367267131456"><ele>407.0</ele><time>2026-04-18T13:43:09.997Z</time></trkpt><trkpt lat="42.76778794957285" lon="13.66041114902551"><ele>407.0</ele><time>2026-04-18T13:43:10.997Z</time></trkpt><trkpt lat="42.767622863400945" lon="13.660436551929578"><ele>407.0</ele><time>2026-04-18T13:43:11.997Z</time></trkpt><trkpt lat="42.767467385709885" lon="13.66045563094854"><ele>407.0</ele><time>2026-04-18T13:43:12.997Z</time></trkpt><trkpt lat="42.76732118784012" lon="13.660462171342658"><ele>407.0</ele><time>2026-04-18T13:43:13.997Z</time></trkpt><trkpt lat="42.76718569784881" lon="13.660427039669315"><ele>407.0</ele><time>2026-04-18T13:43:14.997Z</time></trkpt><trkpt lat="42.76706000595316" lon="13.660384045149314"><ele>407.0</ele><time>2026-04-18T13:43:15.997Z</time></trkpt><trkpt lat="42.76694785049306" lon="13.660305971642288"><ele>407.0</ele><time>2026-04-18T13:43:16.997Z</time></trkpt><trkpt lat="42.76684898437031" lon="13.660189114407036"><ele>410.3333333333333</ele><time>2026-04-18T13:43:17.997Z</time></trkpt><trkpt lat="42.76675441849295" lon="13.660040152044742"><ele>413.66666666666663</ele><time>2026-04-18T13:43:18.997Z</time></trkpt><trkpt lat="42.766666962832296" lon="13.659866903160022"><ele>417.0</ele><time>2026-04-18T13:43:19.997Z</time></trkpt><trkpt lat="42.76656799998494" lon="13.659699005450827"><ele>417.0</ele><time>2026-04-18T13:43:20.997Z</time></trkpt><trkpt lat="42.76647810164213" lon="13.659521171295422"><ele>417.0</ele><time>2026-04-18T13:43:21.997Z</time></trkpt><trkpt lat="42.766390918774164" lon="13.659344377974678"><ele>417.0</ele><time>2026-04-18T13:43:22.997Z</time></trkpt><trkpt lat="42.7663071230573" lon="13.659176047590602"><ele>411.75</ele><time>2026-04-18T13:43:23.997Z</time></trkpt><trkpt lat="42.76622790210808" lon="13.659017319182855"><ele>406.5</ele><time>2026-04-18T13:43:24.997Z</time></trkpt><trkpt lat="42.76615423192696" lon="13.65887484596542"><ele>401.25</ele><time>2026-04-18T13:43:25.997Z</time></trkpt><trkpt lat="42.76608349492791" lon="13.65874192875593"><ele>396.0</ele><time>2026-04-18T13:43:26.997Z</time></trkpt><trkpt lat="42.766043671018" lon="13.658601015446573"><ele>395.0</ele><time>2026-04-18T13:43:27.997Z</time></trkpt><trkpt lat="42.76600082912812" lon="13.658472413701583"><ele>394.0</ele><time>2026-04-18T13:43:28.997Z</time></trkpt><trkpt lat="42.766038368345654" lon="13.658339344607096"><ele>393.0</ele><time>2026-04-18T13:43:29.997Z</time></trkpt><trkpt lat="42.76608696200235" lon="13.65823192329414"><ele>392.0</ele><time>2026-04-18T13:43:30.997Z</time></trkpt><trkpt lat="42.76617428939335" lon="13.658185897652896"><ele>391.0</ele><time>2026-04-18T13:43:31.997Z</time></trkpt><trkpt lat="42.76627784480181" lon="13.658136828766768"><ele>391.0</ele><time>2026-04-18T13:43:32.997Z</time></trkpt><trkpt lat="42.76640073509076" lon="13.658067351882979"><ele>391.0</ele><time>2026-04-18T13:43:33.997Z</time></trkpt><trkpt lat="42.76652120837551" lon="13.657975770840709"><ele>391.0</ele><time>2026-04-18T13:43:34.997Z</time></trkpt><trkpt lat="42.76665806521383" lon="13.657909218382656"><ele>391.0</ele><time>2026-04-18T13:43:36Z</time></trkpt><trkpt lat="42.766795204244275" lon="13.65783129309314"><ele>398.6666666666667</ele><time>2026-04-18T13:43:37Z</time></trkpt><trkpt lat="42.76693420502731" lon="13.657754144313564"><ele>406.33333333333337</ele><time>2026-04-18T13:43:38Z</time></trkpt><trkpt lat="42.76708519659977" lon="13.657709575720782"><ele>414.0</ele><time>2026-04-18T13:43:39Z</time></trkpt><trkpt lat="42.76723061333456" lon="13.657702721668104"><ele>414.0</ele><time>2026-04-18T13:43:40Z</time></trkpt><trkpt lat="42.76736716368157" lon="13.657776136887971"><ele>414.0</ele><time>2026-04-18T13:43:41Z</time></trkpt><trkpt lat="42.76751359254999" lon="13.6578239716242"><ele>414.0</ele><time>2026-04-18T13:43:42Z</time></trkpt><trkpt lat="42.76765477536247" lon="13.657884468354846"><ele>414.0</ele><time>2026-04-18T13:43:43Z</time></trkpt><trkpt lat="42.76779462382294" lon="13.65793231676762"><ele>411.25</ele><time>2026-04-18T13:43:44Z</time></trkpt><trkpt lat="42.767932349614995" lon="13.65798615462908"><ele>408.5</ele><time>2026-04-18T13:43:45Z</time></trkpt><trkpt lat="42.76806034338795" lon="13.658039899559693"><ele>405.75</ele><time>2026-04-18T13:43:46Z</time></trkpt><trkpt lat="42.768183261507325" lon="13.658094231439797"><ele>403.0</ele><time>2026-04-18T13:43:47Z</time></trkpt><trkpt lat="42.76830276912271" lon="13.658129309486444"><ele>403.0</ele><time>2026-04-18T13:43:48Z</time></trkpt><trkpt lat="42.76843801335815" lon="13.658120902503061"><ele>403.0</ele><time>2026-04-18T13:43:49Z</time></trkpt><trkpt lat="42.76857775918172" lon="13.658050655046207"><ele>403.0</ele><time>2026-04-18T13:43:50Z</time></trkpt><trkpt lat="42.768722960621005" lon="13.657949940420743"><ele>403.0</ele><time>2026-04-18T13:43:51Z</time></trkpt><trkpt lat="42.76887246978144" lon="13.657851396394502"><ele>404.25</ele><time>2026-04-18T13:43:52Z</time></trkpt><trkpt lat="42.769013150985565" lon="13.657770522036737"><ele>405.5</ele><time>2026-04-18T13:43:53Z</time></trkpt><trkpt lat="42.7691285535624" lon="13.657693505999957"><ele>406.75</ele><time>2026-04-18T13:43:54Z</time></trkpt><trkpt lat="42.76919520694331" lon="13.657576835565415"><ele>408.0</ele><time>2026-04-18T13:43:55Z</time></trkpt><trkpt lat="42.76920731368729" lon="13.65741568149617"><ele>408.0</ele><time>2026-04-18T13:43:56Z</time></trkpt><trkpt lat="42.76916758220594" lon="13.657233391517604"><ele>408.0</ele><time>2026-04-18T13:43:57Z</time></trkpt><trkpt lat="42.769066719171825" lon="13.657049872212912"><ele>408.0</ele><time>2026-04-18T13:43:58Z</time></trkpt><trkpt lat="42.768942541538316" lon="13.656860905240698"><ele>410.66666666666663</ele><time>2026-04-18T13:43:58.999Z</time></trkpt><trkpt lat="42.76882515082882" lon="13.656641562596269"><ele>413.3333333333333</ele><time>2026-04-18T13:43:59.999Z</time></trkpt><trkpt lat="42.768708939870876" lon="13.656407572961207"><ele>416.0</ele><time>2026-04-18T13:44:00.999Z</time></trkpt><trkpt lat="42.768593164654256" lon="13.656176963090793"><ele>418.66666666666663</ele><time>2026-04-18T13:44:01.999Z</time></trkpt><trkpt lat="42.768473890053585" lon="13.655959820949048"><ele>421.33333333333337</ele><time>2026-04-18T13:44:02.999Z</time></trkpt><trkpt lat="42.76830603304987" lon="13.655771907483585"><ele>424.0</ele><time>2026-04-18T13:44:03.999Z</time></trkpt><trkpt lat="42.7680992169426" lon="13.655612919610382"><ele>424.0</ele><time>2026-04-18T13:44:04.999Z</time></trkpt><trkpt lat="42.76793393429085" lon="13.655402311311"><ele>424.0</ele><time>2026-04-18T13:44:05.999Z</time></trkpt><trkpt lat="42.76781277094156" lon="13.655169583924895"><ele>424.0</ele><time>2026-04-18T13:44:06.999Z</time></trkpt><trkpt lat="42.76769673967462" lon="13.654978152204812"><ele>426.6666666666667</ele><time>2026-04-18T13:44:07.999Z</time></trkpt><trkpt lat="42.76757078464728" lon="13.654829881620715"><ele>429.33333333333337</ele><time>2026-04-18T13:44:08.999Z</time></trkpt><trkpt lat="42.76741864455389" lon="13.654762640916246"><ele>432.0</ele><time>2026-04-18T13:44:09.999Z</time></trkpt><trkpt lat="42.76724588191246" lon="13.654752606416464"><ele>432.0</ele><time>2026-04-18T13:44:10.999Z</time></trkpt><trkpt lat="42.76708522067377" lon="13.654740550346979"><ele>432.0</ele><time>2026-04-18T13:44:11.999Z</time></trkpt><trkpt lat="42.7669400294738" lon="13.65469726007584"><ele>432.0</ele><time>2026-04-18T13:44:12.999Z</time></trkpt><trkpt lat="42.7668058410658" lon="13.654626097862693"><ele>433.0</ele><time>2026-04-18T13:44:13.999Z</time></trkpt><trkpt lat="42.76668269085236" lon="13.654526918112623"><ele>434.0</ele><time>2026-04-18T13:44:14.999Z</time></trkpt><trkpt lat="42.766574612545774" lon="13.654402848977803"><ele>435.0</ele><time>2026-04-18T13:44:15.999Z</time></trkpt><trkpt lat="42.76647163234106" lon="13.654284701740952"><ele>436.0</ele><time>2026-04-18T13:44:16.999Z</time></trkpt><trkpt lat="42.76639090613062" lon="13.654169012824827"><ele>436.8</ele><time>2026-04-18T13:44:17.999Z</time></trkpt><trkpt lat="42.76633619272023" lon="13.654048563783691"><ele>437.6</ele><time>2026-04-18T13:44:18.999Z</time></trkpt><trkpt lat="42.76633006257692" lon="13.6539131521287"><ele>438.4</ele><time>2026-04-18T13:44:19.999Z</time></trkpt><trkpt lat="42.76635666415437" lon="13.653775743657553"><ele>439.2</ele><time>2026-04-18T13:44:20.999Z</time></trkpt><trkpt lat="42.76643139131775" lon="13.65365261037247"><ele>440.0</ele><time>2026-04-18T13:44:21.999Z</time></trkpt><trkpt lat="42.766531047670775" lon="13.65355790711732"><ele>440.25</ele><time>2026-04-18T13:44:22.999Z</time></trkpt><trkpt lat="42.76665279432784" lon="13.653495045229986"><ele>440.5</ele><time>2026-04-18T13:44:23.999Z</time></trkpt><trkpt lat="42.76678664475913" lon="13.653453495827588"><ele>440.75</ele><time>2026-04-18T13:44:24.999Z</time></trkpt><trkpt lat="42.76692984167691" lon="13.653417198346483"><ele>441.0</ele><time>2026-04-18T13:44:25.999Z</time></trkpt><trkpt lat="42.76708090781837" lon="13.653387313615337"><ele>441.0</ele><time>2026-04-18T13:44:26.999Z</time></trkpt><trkpt lat="42.76724704558658" lon="13.653366227477468"><ele>441.0</ele><time>2026-04-18T13:44:27.999Z</time></trkpt><trkpt lat="42.767417806725696" lon="13.653348010381348"><ele>441.0</ele><time>2026-04-18T13:44:28.999Z</time></trkpt><trkpt lat="42.767595266840715" lon="13.65332663883662"><ele>439.66666666666663</ele><time>2026-04-18T13:44:29.999Z</time></trkpt><trkpt lat="42.76777776258436" lon="13.653299507130054"><ele>438.3333333333333</ele><time>2026-04-18T13:44:30.999Z</time></trkpt><trkpt lat="42.7679571528691" lon="13.653262076504046"><ele>437.0</ele><time>2026-04-18T13:44:31.999Z</time></trkpt><trkpt lat="42.76812894685298" lon="13.653210678103914"><ele>437.0</ele><time>2026-04-18T13:44:32.999Z</time></trkpt><trkpt lat="42.76829507018354" lon="13.653145577317575"><ele>437.0</ele><time>2026-04-18T13:44:33.999Z</time></trkpt><trkpt lat="42.76846587980305" lon="13.653079900397668"><ele>437.0</ele><time>2026-04-18T13:44:34.999Z</time></trkpt><trkpt lat="42.76863744887237" lon="13.653015163356889"><ele>436.66666666666663</ele><time>2026-04-18T13:44:35.998Z</time></trkpt><trkpt lat="42.76881208056332" lon="13.652954730280232"><ele>436.33333333333337</ele><time>2026-04-18T13:44:36.998Z</time></trkpt><trkpt lat="42.76899192778975" lon="13.652897211600617"><ele>436.0</ele><time>2026-04-18T13:44:37.998Z</time></trkpt><trkpt lat="42.76916742804987" lon="13.652831565412171"><ele>436.33333333333337</ele><time>2026-04-18T13:44:38.998Z</time></trkpt><trkpt lat="42.769346001875704" lon="13.652759535614639"><ele>436.66666666666663</ele><time>2026-04-18T13:44:39.998Z</time></trkpt><trkpt lat="42.76951981836911" lon="13.65266674715019"><ele>437.0</ele><time>2026-04-18T13:44:40.998Z</time></trkpt><trkpt lat="42.76968957550002" lon="13.652547967490623"><ele>437.0</ele><time>2026-04-18T13:44:41.998Z</time></trkpt><trkpt lat="42.769857120053324" lon="13.652418574090579"><ele>437.0</ele><time>2026-04-18T13:44:42.998Z</time></trkpt><trkpt lat="42.77002363028234" lon="13.652286376248403"><ele>437.0</ele><time>2026-04-18T13:44:43.998Z</time></trkpt><trkpt lat="42.770192507397944" lon="13.652151669568662"><ele>435.3333333333333</ele><time>2026-04-18T13:44:44.998Z</time></trkpt><trkpt lat="42.77035543380974" lon="13.652016717239736"><ele>433.66666666666663</ele><time>2026-04-18T13:44:45.998Z</time></trkpt><trkpt lat="42.77051011695621" lon="13.651885223983001"><ele>432.0</ele><time>2026-04-18T13:44:46.998Z</time></trkpt><trkpt lat="42.77065728372757" lon="13.651761310779566"><ele>432.0</ele><time>2026-04-18T13:44:47.998Z</time></trkpt><trkpt lat="42.77080456976631" lon="13.651646383024591"><ele>432.0</ele><time>2026-04-18T13:44:48.998Z</time></trkpt><trkpt lat="42.77094286948916" lon="13.651550882740338"><ele>432.0</ele><time>2026-04-18T13:44:49.998Z</time></trkpt><trkpt lat="42.771085876879596" lon="13.651511569290593"><ele>432.0</ele><time>2026-04-18T13:44:50.998Z</time></trkpt><trkpt lat="42.77122911561877" lon="13.651553137979674"><ele>432.0</ele><time>2026-04-18T13:44:51.998Z</time></trkpt><trkpt lat="42.77139234297825" lon="13.651583558200741"><ele>432.0</ele><time>2026-04-18T13:44:52.998Z</time></trkpt><trkpt lat="42.77156307880375" lon="13.65160263465003"><ele>432.0</ele><time>2026-04-18T13:44:53.998Z</time></trkpt><trkpt lat="42.7717354525457" lon="13.651598139912187"><ele>432.0</ele><time>2026-04-18T13:44:54.998Z</time></trkpt><trkpt lat="42.77191519409651" lon="13.651579742838209"><ele>432.0</ele><time>2026-04-18T13:44:55.998Z</time></trkpt><trkpt lat="42.77208680850425" lon="13.651587854703239"><ele>433.66666666666663</ele><time>2026-04-18T13:44:56.998Z</time></trkpt><trkpt lat="42.77224252423632" lon="13.65165695635222"><ele>435.3333333333333</ele><time>2026-04-18T13:44:57.998Z</time></trkpt><trkpt lat="42.772390068994966" lon="13.651770282499573"><ele>437.0</ele><time>2026-04-18T13:44:58.998Z</time></trkpt><trkpt lat="42.772523182527344" lon="13.651914507006648"><ele>435.0</ele><time>2026-04-18T13:44:59.998Z</time></trkpt><trkpt lat="42.77265018425109" lon="13.652058644616833"><ele>433.0</ele><time>2026-04-18T13:45:00.998Z</time></trkpt><trkpt lat="42.7727939564043" lon="13.652158423742666"><ele>431.0</ele><time>2026-04-18T13:45:01.998Z</time></trkpt><trkpt lat="42.77295272692025" lon="13.652212378616468"><ele>431.0</ele><time>2026-04-18T13:45:02.998Z</time></trkpt><trkpt lat="42.77312406803362" lon="13.652231637927434"><ele>431.0</ele><time>2026-04-18T13:45:03.998Z</time></trkpt><trkpt lat="42.77329627122659" lon="13.652204754315857"><ele>431.0</ele><time>2026-04-18T13:45:04.998Z</time></trkpt><trkpt lat="42.77346775587526" lon="13.652168507050993"><ele>431.0</ele><time>2026-04-18T13:45:05.998Z</time></trkpt><trkpt lat="42.77363899915424" lon="13.65216098911382"><ele>431.0</ele><time>2026-04-18T13:45:06.998Z</time></trkpt><trkpt lat="42.77381519568736" lon="13.652174068064863"><ele>431.0</ele><time>2026-04-18T13:45:07.998Z</time></trkpt><trkpt lat="42.77398132631269" lon="13.652171855738604"><ele>431.0</ele><time>2026-04-18T13:45:08.998Z</time></trkpt><trkpt lat="42.774151544262246" lon="13.652120124308386"><ele>431.0</ele><time>2026-04-18T13:45:09.998Z</time></trkpt><trkpt lat="42.774314762887464" lon="13.652024660662985"><ele>431.0</ele><time>2026-04-18T13:45:10.998Z</time></trkpt><trkpt lat="42.77447094439546" lon="13.651910817863907"><ele>432.66666666666663</ele><time>2026-04-18T13:45:11.998Z</time></trkpt><trkpt lat="42.77463324733662" lon="13.651806138466128"><ele>434.33333333333337</ele><time>2026-04-18T13:45:12.998Z</time></trkpt><trkpt lat="42.77479333038531" lon="13.651713124919192"><ele>436.0</ele><time>2026-04-18T13:45:13.998Z</time></trkpt><trkpt lat="42.77496194741902" lon="13.651629687982616"><ele>436.0</ele><time>2026-04-18T13:45:14.997Z</time></trkpt><trkpt lat="42.77513340658581" lon="13.65156515601729"><ele>436.0</ele><time>2026-04-18T13:45:15.997Z</time></trkpt><trkpt lat="42.775317714791385" lon="13.65152169704192"><ele>436.0</ele><time>2026-04-18T13:45:16.997Z</time></trkpt><trkpt lat="42.7755017143997" lon="13.651491430284814"><ele>430.6666666666667</ele><time>2026-04-18T13:45:17.997Z</time></trkpt><trkpt lat="42.77568674062335" lon="13.651458062979268"><ele>425.33333333333337</ele><time>2026-04-18T13:45:18.997Z</time></trkpt><trkpt lat="42.77587375543273" lon="13.6514224768013"><ele>420.0</ele><time>2026-04-18T13:45:19.997Z</time></trkpt><trkpt lat="42.77605266819716" lon="13.651386926699551"><ele>420.0</ele><time>2026-04-18T13:45:20.997Z</time></trkpt><trkpt lat="42.776231591521935" lon="13.651349637905724"><ele>420.0</ele><time>2026-04-18T13:45:21.997Z</time></trkpt><trkpt lat="42.77640944592157" lon="13.651307706060976"><ele>420.0</ele><time>2026-04-18T13:45:22.997Z</time></trkpt><trkpt lat="42.776596422715706" lon="13.651253925379411"><ele>420.0</ele><time>2026-04-18T13:45:23.997Z</time></trkpt><trkpt lat="42.776791371994" lon="13.651188131290217"><ele>420.0</ele><time>2026-04-18T13:45:24.997Z</time></trkpt><trkpt lat="42.77699009590309" lon="13.651108977493006"><ele>420.0</ele><time>2026-04-18T13:45:25.997Z</time></trkpt><trkpt lat="42.777193160809226" lon="13.651014997136103"><ele>421.0</ele><time>2026-04-18T13:45:26.997Z</time></trkpt><trkpt lat="42.777399628461005" lon="13.650903658967222"><ele>422.0</ele><time>2026-04-18T13:45:27.997Z</time></trkpt><trkpt lat="42.7776064081773" lon="13.650781119182298"><ele>423.0</ele><time>2026-04-18T13:45:28.997Z</time></trkpt><trkpt lat="42.77780808010658" lon="13.650652952294895"><ele>423.0</ele><time>2026-04-18T13:45:29.997Z</time></trkpt><trkpt lat="42.77800942499483" lon="13.650523583973548"><ele>423.0</ele><time>2026-04-18T13:45:30.997Z</time></trkpt><trkpt lat="42.77821939299458" lon="13.650397502864282"><ele>421.0</ele><time>2026-04-18T13:45:31.997Z</time></trkpt><trkpt lat="42.77842627291642" lon="13.650275142688457"><ele>419.0</ele><time>2026-04-18T13:45:32.997Z</time></trkpt><trkpt lat="42.7786316071148" lon="13.650150808513521"><ele>419.0</ele><time>2026-04-18T13:45:33.997Z</time></trkpt><trkpt lat="42.77883556791717" lon="13.650025839618097"><ele>419.0</ele><time>2026-04-18T13:45:34.997Z</time></trkpt><trkpt lat="42.7790367772109" lon="13.649899260753347"><ele>419.0</ele><time>2026-04-18T13:45:35.997Z</time></trkpt><trkpt lat="42.77923932919517" lon="13.649772704208868"><ele>418.0</ele><time>2026-04-18T13:45:36.997Z</time></trkpt><trkpt lat="42.779441247725124" lon="13.649647484144618"><ele>417.0</ele><time>2026-04-18T13:45:37.997Z</time></trkpt><trkpt lat="42.77964105048335" lon="13.649530382153598"><ele>416.0</ele><time>2026-04-18T13:45:38.997Z</time></trkpt><trkpt lat="42.779850484019654" lon="13.64941981952816"><ele>416.0</ele><time>2026-04-18T13:45:39.997Z</time></trkpt><trkpt lat="42.780066033916476" lon="13.649339064817406"><ele>416.0</ele><time>2026-04-18T13:45:40.997Z</time></trkpt><trkpt lat="42.7802875518266" lon="13.649288303936146"><ele>416.0</ele><time>2026-04-18T13:45:42Z</time></trkpt><trkpt lat="42.78051328843944" lon="13.649257569722792"><ele>416.0</ele><time>2026-04-18T13:45:43Z</time></trkpt><trkpt lat="42.780740987211374" lon="13.649262365710644"><ele>416.0</ele><time>2026-04-18T13:45:44Z</time></trkpt><trkpt lat="42.78096803240004" lon="13.6492869848635"><ele>412.0</ele><time>2026-04-18T13:45:45Z</time></trkpt><trkpt lat="42.78119775017606" lon="13.649324303920107"><ele>408.0</ele><time>2026-04-18T13:45:46Z</time></trkpt><trkpt lat="42.781428746725396" lon="13.649357648341512"><ele>408.0</ele><time>2026-04-18T13:45:47Z</time></trkpt><trkpt lat="42.781664792810474" lon="13.649387166217709"><ele>408.0</ele><time>2026-04-18T13:45:48Z</time></trkpt><trkpt lat="42.78189574780782" lon="13.649406095121865"><ele>406.5</ele><time>2026-04-18T13:45:49Z</time></trkpt><trkpt lat="42.78213322305103" lon="13.649419613331446"><ele>405.0</ele><time>2026-04-18T13:45:50Z</time></trkpt><trkpt lat="42.782370311120275" lon="13.64941666694444"><ele>405.0</ele><time>2026-04-18T13:45:51Z</time></trkpt><trkpt lat="42.78260598842741" lon="13.649391279274154"><ele>405.0</ele><time>2026-04-18T13:45:52Z</time></trkpt><trkpt lat="42.78284332207307" lon="13.649353921423119"><ele>401.0</ele><time>2026-04-18T13:45:53Z</time></trkpt><trkpt lat="42.78307868908469" lon="13.649315626999543"><ele>397.0</ele><time>2026-04-18T13:45:54Z</time></trkpt><trkpt lat="42.78331744363037" lon="13.64927851577399"><ele>399.0</ele><time>2026-04-18T13:45:55Z</time></trkpt><trkpt lat="42.783554248576564" lon="13.6492439561402"><ele>401.0</ele><time>2026-04-18T13:45:56Z</time></trkpt><trkpt lat="42.783788580304766" lon="13.649207357205885"><ele>401.0</ele><time>2026-04-18T13:45:57Z</time></trkpt><trkpt lat="42.78401674007567" lon="13.649170253917458"><ele>401.0</ele><time>2026-04-18T13:45:58Z</time></trkpt><trkpt lat="42.784241601773665" lon="13.649126397785022"><ele>406.0</ele><time>2026-04-18T13:45:59Z</time></trkpt><trkpt lat="42.78446193667907" lon="13.64907004068341"><ele>411.0</ele><time>2026-04-18T13:46:00Z</time></trkpt><trkpt lat="42.78467768911193" lon="13.648997798289084"><ele>416.0</ele><time>2026-04-18T13:46:01Z</time></trkpt><trkpt lat="42.784888383839096" lon="13.648910344301578"><ele>416.0</ele><time>2026-04-18T13:46:02Z</time></trkpt><trkpt lat="42.785085913455475" lon="13.648825974545542"><ele>416.0</ele><time>2026-04-18T13:46:03Z</time></trkpt><trkpt lat="42.785280529263154" lon="13.648728447486235"><ele>416.0</ele><time>2026-04-18T13:46:04Z</time></trkpt><trkpt lat="42.78546616313136" lon="13.648623238324491"><ele>415.3333333333333</ele><time>2026-04-18T13:46:05Z</time></trkpt><trkpt lat="42.78558879917823" lon="13.648445602746614"><ele>414.66666666666663</ele><time>2026-04-18T13:46:06Z</time></trkpt><trkpt lat="42.78571938179586" lon="13.648283157721881"><ele>414.0</ele><time>2026-04-18T13:46:07Z</time></trkpt><trkpt lat="42.7858390267921" lon="13.648134319118356"><ele>416.0</ele><time>2026-04-18T13:46:08Z</time></trkpt><trkpt lat="42.786143746677475" lon="13.648261040292638"><ele>418.0</ele><time>2026-04-18T13:46:08.999Z</time></trkpt><trkpt lat="42.78632434070169" lon="13.648220284281964"><ele>418.0</ele><time>2026-04-18T13:46:09.999Z</time></trkpt><trkpt lat="42.78651617174152" lon="13.648193358804674"><ele>418.0</ele><time>2026-04-18T13:46:10.999Z</time></trkpt><trkpt lat="42.7867119904" lon="13.648158926591943"><ele>418.0</ele><time>2026-04-18T13:46:11.999Z</time></trkpt><trkpt lat="42.78690814634607" lon="13.648113373478232"><ele>418.33333333333337</ele><time>2026-04-18T13:46:12.999Z</time></trkpt><trkpt lat="42.787098154573435" lon="13.648064555157807"><ele>418.66666666666663</ele><time>2026-04-18T13:46:13.999Z</time></trkpt><trkpt lat="42.78728702635052" lon="13.64801802104571"><ele>419.0</ele><time>2026-04-18T13:46:14.999Z</time></trkpt><trkpt lat="42.78747770925816" lon="13.647966429642496"><ele>419.0</ele><time>2026-04-18T13:46:15.999Z</time></trkpt><trkpt lat="42.7876591221897" lon="13.647898283790294"><ele>419.0</ele><time>2026-04-18T13:46:16.999Z</time></trkpt><trkpt lat="42.787840098670266" lon="13.647817430745826"><ele>419.0</ele><time>2026-04-18T13:46:17.999Z</time></trkpt><trkpt lat="42.78800643717345" lon="13.64772437222601"><ele>419.0</ele><time>2026-04-18T13:46:18.999Z</time></trkpt><trkpt lat="42.78817054823206" lon="13.647632397729538"><ele>419.0</ele><time>2026-04-18T13:46:19.999Z</time></trkpt><trkpt lat="42.78832669965644" lon="13.647547817890251"><ele>419.0</ele><time>2026-04-18T13:46:20.999Z</time></trkpt><trkpt lat="42.78848059412716" lon="13.647471640618141"><ele>418.0</ele><time>2026-04-18T13:46:21.999Z</time></trkpt><trkpt lat="42.788632934584726" lon="13.647392696646426"><ele>417.0</ele><time>2026-04-18T13:46:22.999Z</time></trkpt><trkpt lat="42.78878063164527" lon="13.647314176428353"><ele>416.0</ele><time>2026-04-18T13:46:23.999Z</time></trkpt><trkpt lat="42.78893272449456" lon="13.647237145570275"><ele>416.0</ele><time>2026-04-18T13:46:24.999Z</time></trkpt><trkpt lat="42.78907643798162" lon="13.647161438093617"><ele>416.0</ele><time>2026-04-18T13:46:25.999Z</time></trkpt><trkpt lat="42.7892244908625" lon="13.647087459755788"><ele>416.0</ele><time>2026-04-18T13:46:26.999Z</time></trkpt><trkpt lat="42.789362320996794" lon="13.647018335437146"><ele>417.0</ele><time>2026-04-18T13:46:27.999Z</time></trkpt><trkpt lat="42.78949644739807" lon="13.646944894441832"><ele>418.0</ele><time>2026-04-18T13:46:28.999Z</time></trkpt><trkpt lat="42.78962804106944" lon="13.646875445814937"><ele>419.0</ele><time>2026-04-18T13:46:29.999Z</time></trkpt><trkpt lat="42.78976188203715" lon="13.64680636657112"><ele>420.0</ele><time>2026-04-18T13:46:30.999Z</time></trkpt><trkpt lat="42.78989452855058" lon="13.646741353167679"><ele>420.0</ele><time>2026-04-18T13:46:31.999Z</time></trkpt><trkpt lat="42.79003155893529" lon="13.646673551591997"><ele>420.0</ele><time>2026-04-18T13:46:32.999Z</time></trkpt><trkpt lat="42.790158868197246" lon="13.646607739385793"><ele>420.0</ele><time>2026-04-18T13:46:33.999Z</time></trkpt><trkpt lat="42.790280731369215" lon="13.646545375423733"><ele>420.0</ele><time>2026-04-18T13:46:34.999Z</time></trkpt><trkpt lat="42.79040355381118" lon="13.64648367386777"><ele>420.0</ele><time>2026-04-18T13:46:35.999Z</time></trkpt><trkpt lat="42.79052957699855" lon="13.646418524806624"><ele>420.0</ele><time>2026-04-18T13:46:36.999Z</time></trkpt><trkpt lat="42.79065302455443" lon="13.64634867954681"><ele>420.0</ele><time>2026-04-18T13:46:37.999Z</time></trkpt><trkpt lat="42.79077564614008" lon="13.646279358527547"><ele>420.0</ele><time>2026-04-18T13:46:38.999Z</time></trkpt><trkpt lat="42.790897175535044" lon="13.646207581849719"><ele>420.0</ele><time>2026-04-18T13:46:39.999Z</time></trkpt><trkpt lat="42.79100722498618" lon="13.646132754995683"><ele>420.0</ele><time>2026-04-18T13:46:40.999Z</time></trkpt><trkpt lat="42.79111436024051" lon="13.646061294891332"><ele>420.0</ele><time>2026-04-18T13:46:41.999Z</time></trkpt><trkpt lat="42.79121753162797" lon="13.645993037548548"><ele>420.0</ele><time>2026-04-18T13:46:42.999Z</time></trkpt><trkpt lat="42.79131458718909" lon="13.645927124889724"><ele>420.2</ele><time>2026-04-18T13:46:43.999Z</time></trkpt><trkpt lat="42.791410058283944" lon="13.645864240942997"><ele>420.4</ele><time>2026-04-18T13:46:44.999Z</time></trkpt><trkpt lat="42.791499509277884" lon="13.645806330737106"><ele>420.6</ele><time>2026-04-18T13:46:45.998Z</time></trkpt><trkpt lat="42.79158277881096" lon="13.64575359405152"><ele>420.8</ele><time>2026-04-18T13:46:46.998Z</time></trkpt><trkpt lat="42.79166659164582" lon="13.645709036813185"><ele>421.0</ele><time>2026-04-18T13:46:47.998Z</time></trkpt><trkpt lat="42.79175118372762" lon="13.645663788183782"><ele>421.0</ele><time>2026-04-18T13:46:48.998Z</time></trkpt><trkpt lat="42.791837783088845" lon="13.645611840531002"><ele>421.0</ele><time>2026-04-18T13:46:49.998Z</time></trkpt><trkpt lat="42.79193510310054" lon="13.645561140061664"><ele>421.0</ele><time>2026-04-18T13:46:50.998Z</time></trkpt><trkpt lat="42.79203696379491" lon="13.64550832182818"><ele>421.0</ele><time>2026-04-18T13:46:51.998Z</time></trkpt><trkpt lat="42.79214375411252" lon="13.645452539406717"><ele>421.0</ele><time>2026-04-18T13:46:52.998Z</time></trkpt><trkpt lat="42.792255256215874" lon="13.645395368968213"><ele>421.0</ele><time>2026-04-18T13:46:53.998Z</time></trkpt><trkpt lat="42.792372410674766" lon="13.645340440872543"><ele>421.0</ele><time>2026-04-18T13:46:54.998Z</time></trkpt><trkpt lat="42.79249377043239" lon="13.64528514450251"><ele>421.0</ele><time>2026-04-18T13:46:55.998Z</time></trkpt><trkpt lat="42.792617575650034" lon="13.645227117761689"><ele>421.0</ele><time>2026-04-18T13:46:56.998Z</time></trkpt><trkpt lat="42.79274394726219" lon="13.645169909639312"><ele>421.0</ele><time>2026-04-18T13:46:57.998Z</time></trkpt><trkpt lat="42.79287087431549" lon="13.64511749536053"><ele>421.0</ele><time>2026-04-18T13:46:58.998Z</time></trkpt><trkpt lat="42.79299666988188" lon="13.645063946231435"><ele>421.0</ele><time>2026-04-18T13:46:59.998Z</time></trkpt><trkpt lat="42.79311998228887" lon="13.645010040803683"><ele>421.0</ele><time>2026-04-18T13:47:00.998Z</time></trkpt><trkpt lat="42.79324177358127" lon="13.644953161367948"><ele>421.0</ele><time>2026-04-18T13:47:01.998Z</time></trkpt><trkpt lat="42.79336709327472" lon="13.644894953728558"><ele>421.0</ele><time>2026-04-18T13:47:02.998Z</time></trkpt><trkpt lat="42.79349183959842" lon="13.644833405051468"><ele>421.0</ele><time>2026-04-18T13:47:03.998Z</time></trkpt><trkpt lat="42.793614196756266" lon="13.64477182548986"><ele>421.0</ele><time>2026-04-18T13:47:04.998Z</time></trkpt><trkpt lat="42.79373852813821" lon="13.644710477843187"><ele>420.75</ele><time>2026-04-18T13:47:05.998Z</time></trkpt><trkpt lat="42.79386319859713" lon="13.644654238031457"><ele>420.5</ele><time>2026-04-18T13:47:06.998Z</time></trkpt><trkpt lat="42.79398166404851" lon="13.644589126210466"><ele>420.25</ele><time>2026-04-18T13:47:07.998Z</time></trkpt><trkpt lat="42.794095972391865" lon="13.644516726398523"><ele>420.0</ele><time>2026-04-18T13:47:08.998Z</time></trkpt><trkpt lat="42.794204910475635" lon="13.644424265228805"><ele>420.0</ele><time>2026-04-18T13:47:09.998Z</time></trkpt><trkpt lat="42.79429835807026" lon="13.644307482245807"><ele>420.0</ele><time>2026-04-18T13:47:10.998Z</time></trkpt><trkpt lat="42.79438422872461" lon="13.644187617015014"><ele>420.0</ele><time>2026-04-18T13:47:11.998Z</time></trkpt><trkpt lat="42.79446714221692" lon="13.64407409103984"><ele>420.0</ele><time>2026-04-18T13:47:12.998Z</time></trkpt><trkpt lat="42.79454699509567" lon="13.64396363406874"><ele>419.6</ele><time>2026-04-18T13:47:13.998Z</time></trkpt><trkpt lat="42.79462636543868" lon="13.643857619771499"><ele>419.2</ele><time>2026-04-18T13:47:14.998Z</time></trkpt><trkpt lat="42.79470207741731" lon="13.643752081642148"><ele>418.79999999999995</ele><time>2026-04-18T13:47:15.998Z</time></trkpt><trkpt lat="42.79477589117454" lon="13.64364879421616"><ele>418.4</ele><time>2026-04-18T13:47:16.998Z</time></trkpt><trkpt lat="42.794855345294735" lon="13.643543002715651"><ele>418.0</ele><time>2026-04-18T13:47:17.998Z</time></trkpt><trkpt lat="42.794935693955686" lon="13.643435878067555"><ele>418.0</ele><time>2026-04-18T13:47:18.998Z</time></trkpt><trkpt lat="42.795019366060174" lon="13.64332306016639"><ele>418.0</ele><time>2026-04-18T13:47:19.998Z</time></trkpt><trkpt lat="42.795105080864346" lon="13.643208754927782"><ele>418.0</ele><time>2026-04-18T13:47:20.998Z</time></trkpt><trkpt lat="42.79519372918785" lon="13.643089658841232"><ele>418.0</ele><time>2026-04-18T13:47:21.998Z</time></trkpt><trkpt lat="42.795286400250276" lon="13.642969528486496"><ele>417.25</ele><time>2026-04-18T13:47:22.998Z</time></trkpt><trkpt lat="42.79538136025761" lon="13.642847420097748"><ele>416.5</ele><time>2026-04-18T13:47:23.998Z</time></trkpt><trkpt lat="42.79547412691232" lon="13.642720743349019"><ele>415.75</ele><time>2026-04-18T13:47:24.997Z</time></trkpt><trkpt lat="42.795564472539375" lon="13.642590800304744"><ele>415.0</ele><time>2026-04-18T13:47:25.997Z</time></trkpt><trkpt lat="42.795654576339665" lon="13.642470369156936"><ele>415.0</ele><time>2026-04-18T13:47:26.997Z</time></trkpt><trkpt lat="42.79573945782045" lon="13.642354467192764"><ele>415.0</ele><time>2026-04-18T13:47:27.997Z</time></trkpt><trkpt lat="42.79581275065872" lon="13.642228305195802"><ele>415.0</ele><time>2026-04-18T13:47:28.997Z</time></trkpt><trkpt lat="42.79588241130359" lon="13.642094136609387"><ele>415.0</ele><time>2026-04-18T13:47:29.997Z</time></trkpt><trkpt lat="42.795901923188126" lon="13.641924068072013"><ele>415.75</ele><time>2026-04-18T13:47:30.997Z</time></trkpt><trkpt lat="42.795908005552526" lon="13.641753526018976"><ele>416.5</ele><time>2026-04-18T13:47:31.997Z</time></trkpt><trkpt lat="42.795890312975885" lon="13.641583087133151"><ele>417.25</ele><time>2026-04-18T13:47:32.997Z</time></trkpt><trkpt lat="42.79586108294845" lon="13.641418434300146"><ele>418.0</ele><time>2026-04-18T13:47:33.997Z</time></trkpt><trkpt lat="42.79582882650702" lon="13.641256027561885"><ele>417.75</ele><time>2026-04-18T13:47:34.997Z</time></trkpt><trkpt lat="42.79579681471368" lon="13.64109215138287"><ele>417.5</ele><time>2026-04-18T13:47:35.997Z</time></trkpt><trkpt lat="42.79576816408056" lon="13.640924474018414"><ele>417.25</ele><time>2026-04-18T13:47:36.997Z</time></trkpt><trkpt lat="42.795739481693104" lon="13.640752638330422"><ele>417.0</ele><time>2026-04-18T13:47:37.997Z</time></trkpt><trkpt lat="42.79570913261104" lon="13.640590398977503"><ele>417.0</ele><time>2026-04-18T13:47:38.997Z</time></trkpt><trkpt lat="42.79568014434095" lon="13.640440912251016"><ele>417.0</ele><time>2026-04-18T13:47:39.997Z</time></trkpt><trkpt lat="42.795652366378626" lon="13.640301833143702"><ele>417.0</ele><time>2026-04-18T13:47:40.997Z</time></trkpt><trkpt lat="42.79563120377383" lon="13.640167908944553"><ele>417.0</ele><time>2026-04-18T13:47:41.997Z</time></trkpt><trkpt lat="42.79562434299906" lon="13.640035600936892"><ele>417.0</ele><time>2026-04-18T13:47:42.997Z</time></trkpt><trkpt lat="42.79563143394167" lon="13.639899803580741"><ele>416.6</ele><time>2026-04-18T13:47:43.997Z</time></trkpt><trkpt lat="42.79566647531571" lon="13.639769094984564"><ele>416.20000000000005</ele><time>2026-04-18T13:47:44.997Z</time></trkpt><trkpt lat="42.795724760493115" lon="13.639649472176446"><ele>415.8</ele><time>2026-04-18T13:47:45.997Z</time></trkpt><trkpt lat="42.79580812527037" lon="13.639551663337105"><ele>415.4</ele><time>2026-04-18T13:47:46.997Z</time></trkpt><trkpt lat="42.79590704303252" lon="13.639477243333957"><ele>415.0</ele><time>2026-04-18T13:47:48Z</time></trkpt><trkpt lat="42.79600016092964" lon="13.639417495475124"><ele>415.83333333333337</ele><time>2026-04-18T13:47:49Z</time></trkpt><trkpt lat="42.79607889058264" lon="13.639376354588151"><ele>416.6666666666667</ele><time>2026-04-18T13:47:50Z</time></trkpt><trkpt lat="42.79615651054814" lon="13.639352041616144"><ele>417.5</ele><time>2026-04-18T13:47:51Z</time></trkpt><trkpt lat="42.79623262105285" lon="13.639362934440022"><ele>418.33333333333337</ele><time>2026-04-18T13:47:52Z</time></trkpt><trkpt lat="42.796306134172035" lon="13.639417617676362"><ele>419.1666666666667</ele><time>2026-04-18T13:47:53Z</time></trkpt><trkpt lat="42.79635713188212" lon="13.639533768589304"><ele>420.0</ele><time>2026-04-18T13:47:54Z</time></trkpt><trkpt lat="42.79642221773499" lon="13.639644995426188"><ele>420.0</ele><time>2026-04-18T13:47:55Z</time></trkpt><trkpt lat="42.79647562098351" lon="13.63977900293147"><ele>420.0</ele><time>2026-04-18T13:47:56Z</time></trkpt><trkpt lat="42.79653492378472" lon="13.639910308870299"><ele>420.0</ele><time>2026-04-18T13:47:57Z</time></trkpt><trkpt lat="42.79660160148865" lon="13.640046109062059"><ele>420.0</ele><time>2026-04-18T13:47:58Z</time></trkpt><trkpt lat="42.796684168439974" lon="13.64018646140987"><ele>420.33333333333337</ele><time>2026-04-18T13:47:59Z</time></trkpt><trkpt lat="42.796800101016565" lon="13.640312173785535"><ele>420.6666666666667</ele><time>2026-04-18T13:48:00Z</time></trkpt><trkpt lat="42.79693329094161" lon="13.64045145774227"><ele>421.0</ele><time>2026-04-18T13:48:01Z</time></trkpt><trkpt lat="42.79709432069621" lon="13.640606013923405"><ele>421.0</ele><time>2026-04-18T13:48:02Z</time></trkpt><trkpt lat="42.79725668432435" lon="13.640760215728978"><ele>421.0</ele><time>2026-04-18T13:48:03Z</time></trkpt><trkpt lat="42.79740219382949" lon="13.64091657349034"><ele>421.0</ele><time>2026-04-18T13:48:04Z</time></trkpt><trkpt lat="42.79753686101094" lon="13.641061961719979"><ele>419.33333333333337</ele><time>2026-04-18T13:48:05Z</time></trkpt><trkpt lat="42.79765068772805" lon="13.641224776964867"><ele>417.66666666666663</ele><time>2026-04-18T13:48:06Z</time></trkpt><trkpt lat="42.797730311991295" lon="13.641411173472623"><ele>416.0</ele><time>2026-04-18T13:48:07Z</time></trkpt><trkpt lat="42.79779253165379" lon="13.641601553788544"><ele>416.0</ele><time>2026-04-18T13:48:08Z</time></trkpt><trkpt lat="42.79785652252478" lon="13.64177373719516"><ele>416.0</ele><time>2026-04-18T13:48:09Z</time></trkpt><trkpt lat="42.79795975882867" lon="13.641909468943343"><ele>416.0</ele><time>2026-04-18T13:48:10Z</time></trkpt><trkpt lat="42.79809964173926" lon="13.642013753942868"><ele>416.0</ele><time>2026-04-18T13:48:11Z</time></trkpt><trkpt lat="42.79826573849575" lon="13.642072517150437"><ele>414.0</ele><time>2026-04-18T13:48:12Z</time></trkpt><trkpt lat="42.798450000747636" lon="13.642107921255722"><ele>412.0</ele><time>2026-04-18T13:48:13Z</time></trkpt><trkpt lat="42.79863561556734" lon="13.642160088834217"><ele>410.0</ele><time>2026-04-18T13:48:14Z</time></trkpt><trkpt lat="42.79881684344003" lon="13.642211283881577"><ele>410.0</ele><time>2026-04-18T13:48:15Z</time></trkpt><trkpt lat="42.79899501590142" lon="13.642265679393404"><ele>410.0</ele><time>2026-04-18T13:48:16Z</time></trkpt><trkpt lat="42.79917218216115" lon="13.642332367968407"><ele>410.0</ele><time>2026-04-18T13:48:17Z</time></trkpt><trkpt lat="42.7993449865723" lon="13.642420172331812"><ele>409.66666666666663</ele><time>2026-04-18T13:48:18Z</time></trkpt><trkpt lat="42.799517007708566" lon="13.642541286725098"><ele>409.33333333333337</ele><time>2026-04-18T13:48:19Z</time></trkpt><trkpt lat="42.79968564874814" lon="13.642682760111038"><ele>409.0</ele><time>2026-04-18T13:48:19.999Z</time></trkpt><trkpt lat="42.79985289023374" lon="13.642830420404147"><ele>408.0</ele><time>2026-04-18T13:48:20.999Z</time></trkpt><trkpt lat="42.8000223990907" lon="13.642988961851826"><ele>407.0</ele><time>2026-04-18T13:48:21.999Z</time></trkpt><trkpt lat="42.8001792026382" lon="13.643174025504944"><ele>406.0</ele><time>2026-04-18T13:48:22.999Z</time></trkpt><trkpt lat="42.800326209965846" lon="13.643377167376231"><ele>405.33333333333337</ele><time>2026-04-18T13:48:23.999Z</time></trkpt><trkpt lat="42.80046963332892" lon="13.643585298811637"><ele>404.66666666666663</ele><time>2026-04-18T13:48:24.999Z</time></trkpt><trkpt lat="42.80061706432104" lon="13.643791690392696"><ele>404.0</ele><time>2026-04-18T13:48:25.999Z</time></trkpt><trkpt lat="42.80076785971565" lon="13.643993261400633"><ele>403.3333333333333</ele><time>2026-04-18T13:48:26.999Z</time></trkpt><trkpt lat="42.8009182395991" lon="13.644198049933998"><ele>402.66666666666663</ele><time>2026-04-18T13:48:27.999Z</time></trkpt><trkpt lat="42.80107350064065" lon="13.644407413972752"><ele>402.0</ele><time>2026-04-18T13:48:28.999Z</time></trkpt><trkpt lat="42.801229126365214" lon="13.644620676470526"><ele>401.0</ele><time>2026-04-18T13:48:29.999Z</time></trkpt><trkpt lat="42.80138169636638" lon="13.644826970990152"><ele>400.0</ele><time>2026-04-18T13:48:30.999Z</time></trkpt><trkpt lat="42.801532736607136" lon="13.645032243043103"><ele>399.0</ele><time>2026-04-18T13:48:31.999Z</time></trkpt><trkpt lat="42.80168378451832" lon="13.645238257213762"><ele>398.0</ele><time>2026-04-18T13:48:32.999Z</time></trkpt><trkpt lat="42.80183269936557" lon="13.645441538163368"><ele>397.0</ele><time>2026-04-18T13:48:33.999Z</time></trkpt><trkpt lat="42.80198072750449" lon="13.645642592611795"><ele>396.0</ele><time>2026-04-18T13:48:34.999Z</time></trkpt><trkpt lat="42.80212554753521" lon="13.645838512301834"><ele>396.0</ele><time>2026-04-18T13:48:35.999Z</time></trkpt><trkpt lat="42.802268569490444" lon="13.646031681147651"><ele>396.0</ele><time>2026-04-18T13:48:36.999Z</time></trkpt><trkpt lat="42.80241006786225" lon="13.6462203679019"><ele>396.0</ele><time>2026-04-18T13:48:37.999Z</time></trkpt><trkpt lat="42.80255046039151" lon="13.646411462734026"><ele>397.33333333333337</ele><time>2026-04-18T13:48:38.999Z</time></trkpt><trkpt lat="42.80268693399118" lon="13.646597427046828"><ele>398.6666666666667</ele><time>2026-04-18T13:48:39.999Z</time></trkpt><trkpt lat="42.80281938915128" lon="13.646774872004025"><ele>400.0</ele><time>2026-04-18T13:48:40.999Z</time></trkpt><trkpt lat="42.802954942881016" lon="13.646958124318667"><ele>399.33333333333337</ele><time>2026-04-18T13:48:41.999Z</time></trkpt><trkpt lat="42.8030864496795" lon="13.647138455187125"><ele>398.66666666666663</ele><time>2026-04-18T13:48:42.999Z</time></trkpt><trkpt lat="42.803217890583696" lon="13.647321760868017"><ele>398.0</ele><time>2026-04-18T13:48:43.999Z</time></trkpt><trkpt lat="42.803348578657406" lon="13.647505853746559"><ele>398.0</ele><time>2026-04-18T13:48:44.999Z</time></trkpt><trkpt lat="42.80347777455237" lon="13.647682362861053"><ele>398.0</ele><time>2026-04-18T13:48:45.999Z</time></trkpt><trkpt lat="42.80362336896228" lon="13.647876896039138"><ele>398.0</ele><time>2026-04-18T13:48:46.999Z</time></trkpt><trkpt lat="42.803757960211804" lon="13.648065395322641"><ele>398.66666666666663</ele><time>2026-04-18T13:48:47.999Z</time></trkpt><trkpt lat="42.80385562751748" lon="13.648292849153357"><ele>399.33333333333337</ele><time>2026-04-18T13:48:48.999Z</time></trkpt><trkpt lat="42.803962183989306" lon="13.648514666258066"><ele>400.0</ele><time>2026-04-18T13:48:49.999Z</time></trkpt><trkpt lat="42.80408032213933" lon="13.648722748236377"><ele>398.33333333333337</ele><time>2026-04-18T13:48:50.999Z</time></trkpt><trkpt lat="42.804181171193115" lon="13.64894713673198"><ele>396.66666666666663</ele><time>2026-04-18T13:48:51.999Z</time></trkpt><trkpt lat="42.80428711751163" lon="13.649165131002919"><ele>395.0</ele><time>2026-04-18T13:48:52.999Z</time></trkpt><trkpt lat="42.80440196202068" lon="13.649365159487681"><ele>393.0</ele><time>2026-04-18T13:48:53.999Z</time></trkpt><trkpt lat="42.80453771365678" lon="13.64953861253045"><ele>391.0</ele><time>2026-04-18T13:48:54.999Z</time></trkpt><trkpt lat="42.804691637215875" lon="13.649683132808612"><ele>389.0</ele><time>2026-04-18T13:48:55.999Z</time></trkpt><trkpt lat="42.8048581158382" lon="13.649809008024167"><ele>389.0</ele><time>2026-04-18T13:48:56.998Z</time></trkpt><trkpt lat="42.8050179778695" lon="13.649937323003511"><ele>389.0</ele><time>2026-04-18T13:48:57.998Z</time></trkpt><trkpt lat="42.80515389135938" lon="13.650102106936334"><ele>389.0</ele><time>2026-04-18T13:48:58.998Z</time></trkpt><trkpt lat="42.80525887179445" lon="13.650295469051756"><ele>388.66666666666663</ele><time>2026-04-18T13:48:59.998Z</time></trkpt><trkpt lat="42.805339713808955" lon="13.650520726123558"><ele>388.33333333333337</ele><time>2026-04-18T13:49:00.998Z</time></trkpt><trkpt lat="42.8053912527258" lon="13.650765508943296"><ele>388.0</ele><time>2026-04-18T13:49:01.998Z</time></trkpt><trkpt lat="42.80542464471146" lon="13.6510195430369"><ele>387.6666666666667</ele><time>2026-04-18T13:49:02.998Z</time></trkpt><trkpt lat="42.805445162927974" lon="13.651291473324017"><ele>387.33333333333337</ele><time>2026-04-18T13:49:03.998Z</time></trkpt><trkpt lat="42.80545460891552" lon="13.651559733301067"><ele>387.0</ele><time>2026-04-18T13:49:04.998Z</time></trkpt><trkpt lat="42.80544030518674" lon="13.651824389591647"><ele>386.66666666666663</ele><time>2026-04-18T13:49:05.998Z</time></trkpt><trkpt lat="42.80540886001633" lon="13.6520905680484"><ele>386.3333333333333</ele><time>2026-04-18T13:49:06.998Z</time></trkpt><trkpt lat="42.80537436644904" lon="13.65235411443533"><ele>386.0</ele><time>2026-04-18T13:49:07.998Z</time></trkpt><trkpt lat="42.80533942533067" lon="13.652594591754141"><ele>384.66666666666663</ele><time>2026-04-18T13:49:08.998Z</time></trkpt><trkpt lat="42.805308425524274" lon="13.652824236855404"><ele>383.3333333333333</ele><time>2026-04-18T13:49:09.998Z</time></trkpt><trkpt lat="42.805280438737256" lon="13.653031561641564"><ele>382.0</ele><time>2026-04-18T13:49:10.998Z</time></trkpt><trkpt lat="42.80526889166623" lon="13.653226615698703"><ele>382.0</ele><time>2026-04-18T13:49:11.998Z</time></trkpt><trkpt lat="42.80526319599727" lon="13.653390195179075"><ele>382.0</ele><time>2026-04-18T13:49:12.998Z</time></trkpt><trkpt lat="42.8052972791129" lon="13.653533319026042"><ele>382.0</ele><time>2026-04-18T13:49:13.998Z</time></trkpt><trkpt lat="42.80538249305043" lon="13.65363325438861"><ele>382.0</ele><time>2026-04-18T13:49:14.998Z</time></trkpt><trkpt lat="42.80550005492146" lon="13.653658814825715"><ele>382.0</ele><time>2026-04-18T13:49:15.998Z</time></trkpt><trkpt lat="42.80563282003455" lon="13.65361353090877"><ele>382.0</ele><time>2026-04-18T13:49:16.998Z</time></trkpt><trkpt lat="42.80577037430149" lon="13.653521870359947"><ele>382.0</ele><time>2026-04-18T13:49:17.998Z</time></trkpt><trkpt lat="42.80592964412213" lon="13.653417395645409"><ele>378.3333333333333</ele><time>2026-04-18T13:49:18.998Z</time></trkpt><trkpt lat="42.80610040469101" lon="13.653330227632074"><ele>374.6666666666667</ele><time>2026-04-18T13:49:19.998Z</time></trkpt><trkpt lat="42.806279188751375" lon="13.653226306629557"><ele>371.0</ele><time>2026-04-18T13:49:20.998Z</time></trkpt><trkpt lat="42.80644066768002" lon="13.653089982297628"><ele>371.0</ele><time>2026-04-18T13:49:21.998Z</time></trkpt><trkpt lat="42.80659218356624" lon="13.652948333774892"><ele>371.0</ele><time>2026-04-18T13:49:22.998Z</time></trkpt><trkpt lat="42.80675324184026" lon="13.652885893603068"><ele>371.0</ele><time>2026-04-18T13:49:23.998Z</time></trkpt><trkpt lat="42.80691677755961" lon="13.652881815042251"><ele>369.25</ele><time>2026-04-18T13:49:24.998Z</time></trkpt><trkpt lat="42.80706832374506" lon="13.652875730521934"><ele>367.5</ele><time>2026-04-18T13:49:25.998Z</time></trkpt><trkpt lat="42.807196137870235" lon="13.652851209828091"><ele>365.75</ele><time>2026-04-18T13:49:26.998Z</time></trkpt><trkpt lat="42.807290675224614" lon="13.652769559661035"><ele>364.0</ele><time>2026-04-18T13:49:27.998Z</time></trkpt><trkpt lat="42.80732899859013" lon="13.652623497915744"><ele>364.0</ele><time>2026-04-18T13:49:28.998Z</time></trkpt><trkpt lat="42.807325493796974" lon="13.652455776159263"><ele>364.0</ele><time>2026-04-18T13:49:29.998Z</time></trkpt><trkpt lat="42.80727704928088" lon="13.65224816013621"><ele>364.0</ele><time>2026-04-18T13:49:30.998Z</time></trkpt><trkpt lat="42.807219110119505" lon="13.652016423067037"><ele>363.0</ele><time>2026-04-18T13:49:31.998Z</time></trkpt><trkpt lat="42.80716315308566" lon="13.651746378640304"><ele>362.0</ele><time>2026-04-18T13:49:32.998Z</time></trkpt><trkpt lat="42.80711174729801" lon="13.651465262275511"><ele>361.0</ele><time>2026-04-18T13:49:33.998Z</time></trkpt><trkpt lat="42.807057634113214" lon="13.65118759628172"><ele>359.3333333333333</ele><time>2026-04-18T13:49:34.998Z</time></trkpt><trkpt lat="42.80700746900422" lon="13.65094566543995"><ele>357.6666666666667</ele><time>2026-04-18T13:49:35.997Z</time></trkpt><trkpt lat="42.80696064247485" lon="13.650730688242865"><ele>356.0</ele><time>2026-04-18T13:49:36.997Z</time></trkpt><trkpt lat="42.80689428657478" lon="13.650547933186669"><ele>359.75</ele><time>2026-04-18T13:49:37.997Z</time></trkpt><trkpt lat="42.80679074300589" lon="13.650404294650373"><ele>363.5</ele><time>2026-04-18T13:49:38.997Z</time></trkpt><trkpt lat="42.8066701662672" lon="13.650299840091042"><ele>367.25</ele><time>2026-04-18T13:49:39.997Z</time></trkpt><trkpt lat="42.80657584067248" lon="13.650210026332546"><ele>371.0</ele><time>2026-04-18T13:49:40.997Z</time></trkpt><trkpt lat="42.80652110288714" lon="13.650090896909907"><ele>371.0</ele><time>2026-04-18T13:49:41.997Z</time></trkpt><trkpt lat="42.806515706516" lon="13.649950698382153"><ele>371.0</ele><time>2026-04-18T13:49:42.997Z</time></trkpt><trkpt lat="42.80656969467134" lon="13.64982551307339"><ele>371.0</ele><time>2026-04-18T13:49:43.997Z</time></trkpt><trkpt lat="42.806682484084234" lon="13.649759738332708"><ele>371.0</ele><time>2026-04-18T13:49:44.997Z</time></trkpt><trkpt lat="42.806811688946986" lon="13.64969346400303"><ele>365.6666666666667</ele><time>2026-04-18T13:49:45.997Z</time></trkpt><trkpt lat="42.806927196306056" lon="13.649587997946025"><ele>360.3333333333333</ele><time>2026-04-18T13:49:46.997Z</time></trkpt><trkpt lat="42.80699097154138" lon="13.649398034022125"><ele>355.0</ele><time>2026-04-18T13:49:47.997Z</time></trkpt><trkpt lat="42.80699585332592" lon="13.649146063109871"><ele>354.3333333333333</ele><time>2026-04-18T13:49:48.997Z</time></trkpt><trkpt lat="42.806973877282985" lon="13.648891034256962"><ele>353.6666666666667</ele><time>2026-04-18T13:49:49.997Z</time></trkpt><trkpt lat="42.80695983612146" lon="13.648666986346804"><ele>353.0</ele><time>2026-04-18T13:49:50.997Z</time></trkpt><trkpt lat="42.80697056812978" lon="13.648483160415688"><ele>355.0</ele><time>2026-04-18T13:49:51.997Z</time></trkpt><trkpt lat="42.806997016379086" lon="13.648335804470786"><ele>357.0</ele><time>2026-04-18T13:49:52.997Z</time></trkpt><trkpt lat="42.80705330034137" lon="13.648234014102291"><ele>359.0</ele><time>2026-04-18T13:49:54Z</time></trkpt><trkpt lat="42.80714295533002" lon="13.648182697748542"><ele>361.0</ele><time>2026-04-18T13:49:55Z</time></trkpt><trkpt lat="42.80725082358237" lon="13.648193278279217"><ele>363.0</ele><time>2026-04-18T13:49:56Z</time></trkpt><trkpt lat="42.807369485132654" lon="13.648302899022813"><ele>363.0</ele><time>2026-04-18T13:49:57Z</time></trkpt><trkpt lat="42.80748592129767" lon="13.648464928884177"><ele>363.0</ele><time>2026-04-18T13:49:58Z</time></trkpt><trkpt lat="42.80761899022896" lon="13.648642385251208"><ele>363.0</ele><time>2026-04-18T13:49:59Z</time></trkpt><trkpt lat="42.807769582049666" lon="13.648825927636498"><ele>361.6666666666667</ele><time>2026-04-18T13:50:00Z</time></trkpt><trkpt lat="42.80793280308205" lon="13.649018488721987"><ele>360.33333333333337</ele><time>2026-04-18T13:50:01Z</time></trkpt><trkpt lat="42.80810490281347" lon="13.649218067578774"><ele>359.0</ele><time>2026-04-18T13:50:02Z</time></trkpt><trkpt lat="42.808288006301964" lon="13.649430444689088"><ele>354.33333333333337</ele><time>2026-04-18T13:50:03Z</time></trkpt><trkpt lat="42.80845766396112" lon="13.649628164208126"><ele>349.6666666666667</ele><time>2026-04-18T13:50:04Z</time></trkpt><trkpt lat="42.80860903899069" lon="13.649806137333854"><ele>345.0</ele><time>2026-04-18T13:50:05Z</time></trkpt><trkpt lat="42.808735944780395" lon="13.649966979711088"><ele>344.6666666666667</ele><time>2026-04-18T13:50:06Z</time></trkpt><trkpt lat="42.80886308998403" lon="13.650058354623422"><ele>344.33333333333337</ele><time>2026-04-18T13:50:07Z</time></trkpt><trkpt lat="42.809016664648325" lon="13.650102518091515"><ele>344.0</ele><time>2026-04-18T13:50:08Z</time></trkpt><trkpt lat="42.809184988038105" lon="13.650101525027347"><ele>340.6666666666667</ele><time>2026-04-18T13:50:09Z</time></trkpt><trkpt lat="42.80936097582969" lon="13.65004938210747"><ele>337.3333333333333</ele><time>2026-04-18T13:50:10Z</time></trkpt><trkpt lat="42.80951905257327" lon="13.649965011509158"><ele>334.0</ele><time>2026-04-18T13:50:11Z</time></trkpt><trkpt lat="42.809642954656816" lon="13.64985993424705"><ele>334.0</ele><time>2026-04-18T13:50:12Z</time></trkpt><trkpt lat="42.80973307674639" lon="13.649716206868899"><ele>334.0</ele><time>2026-04-18T13:50:13Z</time></trkpt><trkpt lat="42.8097511877574" lon="13.649556440897868"><ele>334.0</ele><time>2026-04-18T13:50:14Z</time></trkpt><trkpt lat="42.8097176372693" lon="13.64939596807156"><ele>334.0</ele><time>2026-04-18T13:50:15Z</time></trkpt><trkpt lat="42.80964205504188" lon="13.649238305848776"><ele>336.0</ele><time>2026-04-18T13:50:16Z</time></trkpt><trkpt lat="42.80952663399968" lon="13.649068966100748"><ele>338.0</ele><time>2026-04-18T13:50:17Z</time></trkpt><trkpt lat="42.809420743296535" lon="13.648914529475151"><ele>340.0</ele><time>2026-04-18T13:50:18Z</time></trkpt><trkpt lat="42.8093536218846" lon="13.648759577045453"><ele>339.25</ele><time>2026-04-18T13:50:19Z</time></trkpt><trkpt lat="42.80932472297884" lon="13.64859472768068"><ele>338.5</ele><time>2026-04-18T13:50:20Z</time></trkpt><trkpt lat="42.80933704670904" lon="13.648425707182414"><ele>337.75</ele><time>2026-04-18T13:50:21Z</time></trkpt><trkpt lat="42.809394978576584" lon="13.648267092461115"><ele>337.0</ele><time>2026-04-18T13:50:22Z</time></trkpt><trkpt lat="42.809491035962054" lon="13.648145097748513"><ele>337.0</ele><time>2026-04-18T13:50:23Z</time></trkpt><trkpt lat="42.80960477597466" lon="13.648057552883015"><ele>337.0</ele><time>2026-04-18T13:50:24Z</time></trkpt><trkpt lat="42.8097388911028" lon="13.648046481611107"><ele>337.0</ele><time>2026-04-18T13:50:25Z</time></trkpt><trkpt lat="42.809855887897996" lon="13.64813610145012"><ele>337.0</ele><time>2026-04-18T13:50:26Z</time></trkpt><trkpt lat="42.80995500978049" lon="13.648256647245168"><ele>337.0</ele><time>2026-04-18T13:50:27Z</time></trkpt><trkpt lat="42.8100782510426" lon="13.648388540256253"><ele>337.0</ele><time>2026-04-18T13:50:28Z</time></trkpt><trkpt lat="42.81015648069441" lon="13.648506176445807"><ele>337.0</ele><time>2026-04-18T13:50:29Z</time></trkpt><trkpt lat="42.81027531979371" lon="13.648589336405735"><ele>337.0</ele><time>2026-04-18T13:50:30Z</time></trkpt><trkpt lat="42.81041306823561" lon="13.648638487092816"><ele>336.0</ele><time>2026-04-18T13:50:31Z</time></trkpt><trkpt lat="42.81053570824756" lon="13.648653184001635"><ele>335.0</ele><time>2026-04-18T13:50:31.999Z</time></trkpt><trkpt lat="42.81064874553198" lon="13.648612364888033"><ele>334.0</ele><time>2026-04-18T13:50:32.999Z</time></trkpt><trkpt lat="42.810760344989866" lon="13.648520310690774"><ele>333.0</ele><time>2026-04-18T13:50:33.999Z</time></trkpt><trkpt lat="42.810884605794854" lon="13.648445960485391"><ele>332.6666666666667</ele><time>2026-04-18T13:50:34.999Z</time></trkpt><trkpt lat="42.811022238383636" lon="13.648456183367324"><ele>332.33333333333337</ele><time>2026-04-18T13:50:35.999Z</time></trkpt><trkpt lat="42.811147215903766" lon="13.648595190652268"><ele>332.0</ele><time>2026-04-18T13:50:36.999Z</time></trkpt><trkpt lat="42.811294538433636" lon="13.648715192487701"><ele>332.0</ele><time>2026-04-18T13:50:37.999Z</time></trkpt><trkpt lat="42.81142803289956" lon="13.648873169814385"><ele>332.0</ele><time>2026-04-18T13:50:38.999Z</time></trkpt><trkpt lat="42.811573925678445" lon="13.649008515649664"><ele>332.0</ele><time>2026-04-18T13:50:39.999Z</time></trkpt><trkpt lat="42.81174616615234" lon="13.649118378972066"><ele>332.33333333333337</ele><time>2026-04-18T13:50:40.999Z</time></trkpt><trkpt lat="42.81193299167296" lon="13.649177284150984"><ele>332.6666666666667</ele><time>2026-04-18T13:50:41.999Z</time></trkpt><trkpt lat="42.81214128330535" lon="13.649193678698555"><ele>333.0</ele><time>2026-04-18T13:50:42.999Z</time></trkpt><trkpt lat="42.812343756857274" lon="13.64921526489917"><ele>333.0</ele><time>2026-04-18T13:50:43.999Z</time></trkpt><trkpt lat="42.812529082459676" lon="13.649247377511921"><ele>333.0</ele><time>2026-04-18T13:50:44.999Z</time></trkpt><trkpt lat="42.81269738668789" lon="13.649281463068172"><ele>333.0</ele><time>2026-04-18T13:50:45.999Z</time></trkpt><trkpt lat="42.81286004042732" lon="13.649311307962243"><ele>332.25</ele><time>2026-04-18T13:50:46.999Z</time></trkpt><trkpt lat="42.813006815313074" lon="13.649332126334247"><ele>331.5</ele><time>2026-04-18T13:50:47.999Z</time></trkpt><trkpt lat="42.81315352321564" lon="13.649335824131343"><ele>330.75</ele><time>2026-04-18T13:50:48.999Z</time></trkpt><trkpt lat="42.813283854030026" lon="13.649273194705993"><ele>330.0</ele><time>2026-04-18T13:50:49.999Z</time></trkpt><trkpt lat="42.813391463720485" lon="13.649155722546526"><ele>330.0</ele><time>2026-04-18T13:50:50.999Z</time></trkpt><trkpt lat="42.81346678340449" lon="13.649006025740645"><ele>330.0</ele><time>2026-04-18T13:50:51.999Z</time></trkpt><trkpt lat="42.81350208159342" lon="13.648793625397802"><ele>330.0</ele><time>2026-04-18T13:50:52.999Z</time></trkpt><trkpt lat="42.81352644971288" lon="13.648552538587529"><ele>330.6666666666667</ele><time>2026-04-18T13:50:53.999Z</time></trkpt><trkpt lat="42.81356242066417" lon="13.648275354851487"><ele>331.33333333333337</ele><time>2026-04-18T13:50:54.999Z</time></trkpt><trkpt lat="42.81360853078204" lon="13.64800172986718"><ele>332.0</ele><time>2026-04-18T13:50:55.999Z</time></trkpt><trkpt lat="42.81365175431638" lon="13.647742119875154"><ele>332.6666666666667</ele><time>2026-04-18T13:50:56.999Z</time></trkpt><trkpt lat="42.813683283871995" lon="13.647504460200139"><ele>333.3333333333333</ele><time>2026-04-18T13:50:57.999Z</time></trkpt><trkpt lat="42.8137108298028" lon="13.647295924549788"><ele>334.0</ele><time>2026-04-18T13:50:58.999Z</time></trkpt><trkpt lat="42.81373561002454" lon="13.647126535705391"><ele>334.0</ele><time>2026-04-18T13:50:59.999Z</time></trkpt><trkpt lat="42.813766869412014" lon="13.646986626307745"><ele>334.0</ele><time>2026-04-18T13:51:00.999Z</time></trkpt><trkpt lat="42.81382765582942" lon="13.646868909978348"><ele>334.0</ele><time>2026-04-18T13:51:01.999Z</time></trkpt><trkpt lat="42.81392809854537" lon="13.646797582750784"><ele>334.0</ele><time>2026-04-18T13:51:02.999Z</time></trkpt><trkpt lat="42.814062739124964" lon="13.64679382887766"><ele>330.3333333333333</ele><time>2026-04-18T13:51:03.999Z</time></trkpt><trkpt lat="42.81421768006879" lon="13.64680517342514"><ele>326.6666666666667</ele><time>2026-04-18T13:51:04.999Z</time></trkpt><trkpt lat="42.814391812511765" lon="13.646799385770251"><ele>323.0</ele><time>2026-04-18T13:51:05.999Z</time></trkpt><trkpt lat="42.814574219744785" lon="13.646784597581663"><ele>322.6666666666667</ele><time>2026-04-18T13:51:06.999Z</time></trkpt><trkpt lat="42.81477096486939" lon="13.646767125619327"><ele>322.3333333333333</ele><time>2026-04-18T13:51:07.999Z</time></trkpt><trkpt lat="42.81497837149979" lon="13.646752885895154"><ele>322.0</ele><time>2026-04-18T13:51:08.999Z</time></trkpt><trkpt lat="42.81517336758772" lon="13.646736192446756"><ele>320.0</ele><time>2026-04-18T13:51:09.998Z</time></trkpt><trkpt lat="42.81535202683286" lon="13.646720502867527"><ele>318.0</ele><time>2026-04-18T13:51:10.998Z</time></trkpt><trkpt lat="42.815514020333936" lon="13.6467092416859"><ele>316.0</ele><time>2026-04-18T13:51:11.998Z</time></trkpt><trkpt lat="42.81564922159486" lon="13.646691747228497"><ele>316.0</ele><time>2026-04-18T13:51:12.998Z</time></trkpt><trkpt lat="42.81577448430839" lon="13.646690416248644"><ele>316.0</ele><time>2026-04-18T13:51:13.998Z</time></trkpt><trkpt lat="42.815883438914305" lon="13.646725305574684"><ele>316.0</ele><time>2026-04-18T13:51:14.998Z</time></trkpt><trkpt lat="42.8159648661821" lon="13.64681359556693"><ele>316.0</ele><time>2026-04-18T13:51:15.998Z</time></trkpt><trkpt lat="42.81600323053741" lon="13.646948061304599"><ele>316.0</ele><time>2026-04-18T13:51:16.998Z</time></trkpt><trkpt lat="42.815933235915544" lon="13.647094920261267"><ele>318.66666666666663</ele><time>2026-04-18T13:51:17.998Z</time></trkpt><trkpt lat="42.81591044556556" lon="13.647286647461002"><ele>321.3333333333333</ele><time>2026-04-18T13:51:18.998Z</time></trkpt><trkpt lat="42.815894726164494" lon="13.64749978513969"><ele>324.0</ele><time>2026-04-18T13:51:19.998Z</time></trkpt><trkpt lat="42.81592347328073" lon="13.647729403811804"><ele>324.3333333333333</ele><time>2026-04-18T13:51:20.998Z</time></trkpt><trkpt lat="42.81595244002424" lon="13.64797796742924"><ele>324.66666666666663</ele><time>2026-04-18T13:51:21.998Z</time></trkpt><trkpt lat="42.81598708064514" lon="13.648208126596836"><ele>325.0</ele><time>2026-04-18T13:51:22.998Z</time></trkpt><trkpt lat="42.816011163961576" lon="13.648420544749678"><ele>323.0</ele><time>2026-04-18T13:51:23.998Z</time></trkpt><trkpt lat="42.816032259398376" lon="13.648600504595422"><ele>321.0</ele><time>2026-04-18T13:51:24.998Z</time></trkpt><trkpt lat="42.816068155089184" lon="13.648743982143223"><ele>319.0</ele><time>2026-04-18T13:51:25.998Z</time></trkpt><trkpt lat="42.816142757996566" lon="13.648827372097404"><ele>317.0</ele><time>2026-04-18T13:51:26.998Z</time></trkpt><trkpt lat="42.81623876415456" lon="13.648844282195457"><ele>315.0</ele><time>2026-04-18T13:51:27.998Z</time></trkpt><trkpt lat="42.81634149149063" lon="13.648779744335041"><ele>315.0</ele><time>2026-04-18T13:51:28.998Z</time></trkpt><trkpt lat="42.81643712220072" lon="13.648647595459263"><ele>315.0</ele><time>2026-04-18T13:51:29.998Z</time></trkpt><trkpt lat="42.816504414949456" lon="13.648490828629525"><ele>315.0</ele><time>2026-04-18T13:51:30.998Z</time></trkpt><trkpt lat="42.8165746137986" lon="13.648372853384185"><ele>315.0</ele><time>2026-04-18T13:51:31.998Z</time></trkpt><trkpt lat="42.81667633272161" lon="13.64830896199402"><ele>314.75</ele><time>2026-04-18T13:51:32.998Z</time></trkpt><trkpt lat="42.816781411214826" lon="13.648322482559037"><ele>314.5</ele><time>2026-04-18T13:51:33.998Z</time></trkpt><trkpt lat="42.816864670774784" lon="13.64842953462464"><ele>314.25</ele><time>2026-04-18T13:51:34.998Z</time></trkpt><trkpt lat="42.81696936183472" lon="13.648545365310538"><ele>314.0</ele><time>2026-04-18T13:51:35.998Z</time></trkpt><trkpt lat="42.81706033589449" lon="13.648662757825466"><ele>314.0</ele><time>2026-04-18T13:51:36.998Z</time></trkpt><trkpt lat="42.81716225500225" lon="13.64872411009302"><ele>314.0</ele><time>2026-04-18T13:51:37.998Z</time></trkpt><trkpt lat="42.81725867367805" lon="13.648703013516007"><ele>314.0</ele><time>2026-04-18T13:51:38.998Z</time></trkpt><trkpt lat="42.817334580244086" lon="13.64860933293457"><ele>314.0</ele><time>2026-04-18T13:51:39.998Z</time></trkpt><trkpt lat="42.81737131618788" lon="13.64844805288816"><ele>314.0</ele><time>2026-04-18T13:51:40.998Z</time></trkpt><trkpt lat="42.81734636885217" lon="13.64824605260983"><ele>313.0</ele><time>2026-04-18T13:51:41.998Z</time></trkpt><trkpt lat="42.81730181108082" lon="13.648062186107985"><ele>312.0</ele><time>2026-04-18T13:51:42.998Z</time></trkpt><trkpt lat="42.8173124640711" lon="13.647889146585218"><ele>311.0</ele><time>2026-04-18T13:51:43.998Z</time></trkpt><trkpt lat="42.8173698618029" lon="13.647728311775639"><ele>310.0</ele><time>2026-04-18T13:51:44.998Z</time></trkpt><trkpt lat="42.81744276967744" lon="13.647590527517545"><ele>308.5</ele><time>2026-04-18T13:51:45.998Z</time></trkpt><trkpt lat="42.81754646881842" lon="13.647478465879722"><ele>307.0</ele><time>2026-04-18T13:51:46.998Z</time></trkpt><trkpt lat="42.81767831735971" lon="13.647424977244881"><ele>305.5</ele><time>2026-04-18T13:51:47.998Z</time></trkpt><trkpt lat="42.81783151894304" lon="13.647418894994946"><ele>304.0</ele><time>2026-04-18T13:51:48.997Z</time></trkpt><trkpt lat="42.817988021159046" lon="13.647401067940628"><ele>304.0</ele><time>2026-04-18T13:51:49.997Z</time></trkpt><trkpt lat="42.81811773045736" lon="13.647291774838731"><ele>304.0</ele><time>2026-04-18T13:51:50.997Z</time></trkpt><trkpt lat="42.81821919754661" lon="13.647149534512943"><ele>304.0</ele><time>2026-04-18T13:51:51.997Z</time></trkpt><trkpt lat="42.81833126567498" lon="13.647045539729561"><ele>304.0</ele><time>2026-04-18T13:51:52.997Z</time></trkpt><trkpt lat="42.81845891213204" lon="13.646992483233005"><ele>304.5</ele><time>2026-04-18T13:51:53.997Z</time></trkpt><trkpt lat="42.81858957107888" lon="13.64704460583501"><ele>305.0</ele><time>2026-04-18T13:51:54.997Z</time></trkpt><trkpt lat="42.81870485494068" lon="13.647043056915265"><ele>305.5</ele><time>2026-04-18T13:51:55.997Z</time></trkpt><trkpt lat="42.81879573291339" lon="13.646963552226941"><ele>306.0</ele><time>2026-04-18T13:51:56.997Z</time></trkpt><trkpt lat="42.81883865191653" lon="13.64680738012195"><ele>304.0</ele><time>2026-04-18T13:51:57.997Z</time></trkpt><trkpt lat="42.81885394044903" lon="13.646646923709168"><ele>302.0</ele><time>2026-04-18T13:51:58.997Z</time></trkpt><trkpt lat="42.81887692553122" lon="13.64648195933385"><ele>300.0</ele><time>2026-04-18T13:52:00Z</time></trkpt><trkpt lat="42.81890437501356" lon="13.646342748009916"><ele>298.0</ele><time>2026-04-18T13:52:01Z</time></trkpt><trkpt lat="42.81897813201875" lon="13.646245457104733"><ele>298.0</ele><time>2026-04-18T13:52:02Z</time></trkpt><trkpt lat="42.819095677229754" lon="13.646199867024"><ele>298.0</ele><time>2026-04-18T13:52:03Z</time></trkpt><trkpt lat="42.819220629496165" lon="13.64612362075642"><ele>298.0</ele><time>2026-04-18T13:52:04Z</time></trkpt><trkpt lat="42.819347264908124" lon="13.646118277373137"><ele>298.0</ele><time>2026-04-18T13:52:05Z</time></trkpt><trkpt lat="42.81947237319604" lon="13.646128623387028"><ele>295.0</ele><time>2026-04-18T13:52:06Z</time></trkpt><trkpt lat="42.81960114554853" lon="13.64622725090866"><ele>292.0</ele><time>2026-04-18T13:52:07Z</time></trkpt><trkpt lat="42.81971990075115" lon="13.646385937076747"><ele>289.0</ele><time>2026-04-18T13:52:08Z</time></trkpt><trkpt lat="42.81982086100059" lon="13.646551119874474"><ele>289.0</ele><time>2026-04-18T13:52:09Z</time></trkpt><trkpt lat="42.81993928529988" lon="13.646707457609816"><ele>289.0</ele><time>2026-04-18T13:52:10Z</time></trkpt><trkpt lat="42.82007220518982" lon="13.646827360665297"><ele>289.0</ele><time>2026-04-18T13:52:11Z</time></trkpt><trkpt lat="42.820213059317204" lon="13.646915509071146"><ele>289.25</ele><time>2026-04-18T13:52:12Z</time></trkpt><trkpt lat="42.820360682680885" lon="13.646968860547188"><ele>289.5</ele><time>2026-04-18T13:52:13Z</time></trkpt><trkpt lat="42.82050332646024" lon="13.647016365884928"><ele>289.75</ele><time>2026-04-18T13:52:14Z</time></trkpt><trkpt lat="42.82063481872513" lon="13.647074362912763"><ele>290.0</ele><time>2026-04-18T13:52:15Z</time></trkpt><trkpt lat="42.82075340210935" lon="13.64714972027908"><ele>290.0</ele><time>2026-04-18T13:52:16Z</time></trkpt><trkpt lat="42.82085681131809" lon="13.647264478318954"><ele>290.0</ele><time>2026-04-18T13:52:17Z</time></trkpt><trkpt lat="42.82094281319077" lon="13.647417124831353"><ele>290.0</ele><time>2026-04-18T13:52:18Z</time></trkpt><trkpt lat="42.82101718715697" lon="13.647587804253117"><ele>290.0</ele><time>2026-04-18T13:52:19Z</time></trkpt><trkpt lat="42.821097759594245" lon="13.647754757507304"><ele>286.5</ele><time>2026-04-18T13:52:20Z</time></trkpt><trkpt lat="42.82119402551026" lon="13.647900479331863"><ele>283.0</ele><time>2026-04-18T13:52:21Z</time></trkpt><trkpt lat="42.82130452623875" lon="13.648033332239962"><ele>279.5</ele><time>2026-04-18T13:52:22Z</time></trkpt><trkpt lat="42.821410548387" lon="13.648159811849657"><ele>276.0</ele><time>2026-04-18T13:52:23Z</time></trkpt><trkpt lat="42.82150097753048" lon="13.648310781617727"><ele>276.0</ele><time>2026-04-18T13:52:24Z</time></trkpt><trkpt lat="42.821568788297824" lon="13.648488110592842"><ele>276.0</ele><time>2026-04-18T13:52:25Z</time></trkpt><trkpt lat="42.82162866271883" lon="13.648672387199197"><ele>276.0</ele><time>2026-04-18T13:52:26Z</time></trkpt><trkpt lat="42.82169336173901" lon="13.648844970440205"><ele>276.0</ele><time>2026-04-18T13:52:27Z</time></trkpt><trkpt lat="42.82175846724603" lon="13.64900737793715"><ele>275.75</ele><time>2026-04-18T13:52:28Z</time></trkpt><trkpt lat="42.8218247123359" lon="13.649156956300445"><ele>275.5</ele><time>2026-04-18T13:52:29Z</time></trkpt><trkpt lat="42.82190421416005" lon="13.649274668138888"><ele>275.25</ele><time>2026-04-18T13:52:30Z</time></trkpt><trkpt lat="42.82200682305361" lon="13.649351022239351"><ele>275.0</ele><time>2026-04-18T13:52:31Z</time></trkpt><trkpt lat="42.82212123917308" lon="13.649367482452915"><ele>275.0</ele><time>2026-04-18T13:52:32Z</time></trkpt><trkpt lat="42.82222708977664" lon="13.649318448147937"><ele>275.0</ele><time>2026-04-18T13:52:33Z</time></trkpt><trkpt lat="42.822320148242504" lon="13.649224568905366"><ele>275.0</ele><time>2026-04-18T13:52:34Z</time></trkpt><trkpt lat="42.822405878307606" lon="13.649104191598726"><ele>275.0</ele><time>2026-04-18T13:52:35Z</time></trkpt><trkpt lat="42.82246669179915" lon="13.648964554166161"><ele>275.0</ele><time>2026-04-18T13:52:36Z</time></trkpt><trkpt lat="42.82248121561112" lon="13.648803289730447"><ele>275.0</ele><time>2026-04-18T13:52:37Z</time></trkpt><trkpt lat="42.82245947909674" lon="13.648643734920894"><ele>275.0</ele><time>2026-04-18T13:52:38Z</time></trkpt><trkpt lat="42.82244084156531" lon="13.648477151488047"><ele>275.0</ele><time>2026-04-18T13:52:39Z</time></trkpt><trkpt lat="42.82244445921036" lon="13.648301694876873"><ele>273.25</ele><time>2026-04-18T13:52:40Z</time></trkpt><trkpt lat="42.82248824299453" lon="13.64812264929798"><ele>271.5</ele><time>2026-04-18T13:52:41Z</time></trkpt><trkpt lat="42.822545332599475" lon="13.647941430622211"><ele>269.75</ele><time>2026-04-18T13:52:41.999Z</time></trkpt><trkpt lat="42.8226009944318" lon="13.647754308339136"><ele>268.0</ele><time>2026-04-18T13:52:42.999Z</time></trkpt><trkpt lat="42.82263906391541" lon="13.647563106761584"><ele>265.25</ele><time>2026-04-18T13:52:43.999Z</time></trkpt><trkpt lat="42.82265944356644" lon="13.647377302247119"><ele>262.5</ele><time>2026-04-18T13:52:44.999Z</time></trkpt><trkpt lat="42.82266092839998" lon="13.647194440782181"><ele>259.75</ele><time>2026-04-18T13:52:45.999Z</time></trkpt><trkpt lat="42.822655255946124" lon="13.647018198787071"><ele>257.0</ele><time>2026-04-18T13:52:46.999Z</time></trkpt><trkpt lat="42.82265926520354" lon="13.646863705170473"><ele>254.0</ele><time>2026-04-18T13:52:47.999Z</time></trkpt><trkpt lat="42.822691068792416" lon="13.646736042243337"><ele>251.0</ele><time>2026-04-18T13:52:48.999Z</time></trkpt><trkpt lat="42.822757939164006" lon="13.646654275892665"><ele>248.0</ele><time>2026-04-18T13:52:49.999Z</time></trkpt><trkpt lat="42.82284253910895" lon="13.646644379553559"><ele>245.0</ele><time>2026-04-18T13:52:50.999Z</time></trkpt><trkpt lat="42.82292971958098" lon="13.646703755938116"><ele>242.0</ele><time>2026-04-18T13:52:51.999Z</time></trkpt><trkpt lat="42.82301251617106" lon="13.646820953110614"><ele>245.75</ele><time>2026-04-18T13:52:52.999Z</time></trkpt><trkpt lat="42.82309087899305" lon="13.646972083582682"><ele>249.5</ele><time>2026-04-18T13:52:53.999Z</time></trkpt><trkpt lat="42.82315976052628" lon="13.647148341691704"><ele>253.25</ele><time>2026-04-18T13:52:54.999Z</time></trkpt><trkpt lat="42.82321576228345" lon="13.647348641276011"><ele>257.0</ele><time>2026-04-18T13:52:55.999Z</time></trkpt><trkpt lat="42.82326478632377" lon="13.647545404892753"><ele>257.0</ele><time>2026-04-18T13:52:56.999Z</time></trkpt><trkpt lat="42.82331010843697" lon="13.647729605589893"><ele>257.0</ele><time>2026-04-18T13:52:57.999Z</time></trkpt><trkpt lat="42.823356392616404" lon="13.647894589080536"><ele>257.0</ele><time>2026-04-18T13:52:58.999Z</time></trkpt><trkpt lat="42.823407947397996" lon="13.64802588161303"><ele>257.0</ele><time>2026-04-18T13:52:59.999Z</time></trkpt><trkpt lat="42.823518909099555" lon="13.648060347154027"><ele>258.25</ele><time>2026-04-18T13:53:00.999Z</time></trkpt><trkpt lat="42.823621521855436" lon="13.648032598550984"><ele>259.5</ele><time>2026-04-18T13:53:01.999Z</time></trkpt><trkpt lat="42.82372779478988" lon="13.647929572197857"><ele>260.75</ele><time>2026-04-18T13:53:02.999Z</time></trkpt><trkpt lat="42.82382698070064" lon="13.647770078035936"><ele>262.0</ele><time>2026-04-18T13:53:03.999Z</time></trkpt><trkpt lat="42.823925537035656" lon="13.647588023515873"><ele>258.25</ele><time>2026-04-18T13:53:04.999Z</time></trkpt><trkpt lat="42.82400606146613" lon="13.647420441185833"><ele>254.5</ele><time>2026-04-18T13:53:05.999Z</time></trkpt><trkpt lat="42.8240739088935" lon="13.64726769199003"><ele>250.75</ele><time>2026-04-18T13:53:06.999Z</time></trkpt><trkpt lat="42.82414595729404" lon="13.647167679369154"><ele>247.0</ele><time>2026-04-18T13:53:07.999Z</time></trkpt><trkpt lat="42.824224773748135" lon="13.647130683908946"><ele>247.0</ele><time>2026-04-18T13:53:08.999Z</time></trkpt><trkpt lat="42.824293497314834" lon="13.647161929544447"><ele>247.0</ele><time>2026-04-18T13:53:09.999Z</time></trkpt><trkpt lat="42.824333871892904" lon="13.6472856923286"><ele>247.0</ele><time>2026-04-18T13:53:10.999Z</time></trkpt><trkpt lat="42.82440691542899" lon="13.64742329478865"><ele>247.0</ele><time>2026-04-18T13:53:11.999Z</time></trkpt><trkpt lat="42.8244798287108" lon="13.647602301825406"><ele>247.0</ele><time>2026-04-18T13:53:12.999Z</time></trkpt><trkpt lat="42.82459740459089" lon="13.6477618756043"><ele>249.66666666666666</ele><time>2026-04-18T13:53:13.999Z</time></trkpt><trkpt lat="42.82474589566615" lon="13.647885707971618"><ele>252.33333333333331</ele><time>2026-04-18T13:53:14.999Z</time></trkpt><trkpt lat="42.824908270214635" lon="13.64794971530437"><ele>255.0</ele><time>2026-04-18T13:53:15.999Z</time></trkpt><trkpt lat="42.82506448829752" lon="13.647974760967127"><ele>254.0</ele><time>2026-04-18T13:53:16.999Z</time></trkpt><trkpt lat="42.82521882337668" lon="13.647944162194245"><ele>253.0</ele><time>2026-04-18T13:53:17.999Z</time></trkpt><trkpt lat="42.825359246094614" lon="13.647862272046702"><ele>252.0</ele><time>2026-04-18T13:53:18.999Z</time></trkpt><trkpt lat="42.82548619688101" lon="13.647723926451649"><ele>252.0</ele><time>2026-04-18T13:53:19.998Z</time></trkpt><trkpt lat="42.82558834298893" lon="13.647544526917143"><ele>252.0</ele><time>2026-04-18T13:53:20.998Z</time></trkpt><trkpt lat="42.82564895345434" lon="13.64733808964952"><ele>252.0</ele><time>2026-04-18T13:53:21.998Z</time></trkpt><trkpt lat="42.82567421869294" lon="13.6471309467045"><ele>249.33333333333331</ele><time>2026-04-18T13:53:22.998Z</time></trkpt><trkpt lat="42.82565198178967" lon="13.646902208911582"><ele>246.66666666666666</ele><time>2026-04-18T13:53:23.998Z</time></trkpt><trkpt lat="42.825583578184926" lon="13.646666231977942"><ele>244.0</ele><time>2026-04-18T13:53:24.998Z</time></trkpt><trkpt lat="42.82548270566193" lon="13.646425643407534"><ele>244.0</ele><time>2026-04-18T13:53:25.998Z</time></trkpt><trkpt lat="42.82536707280312" lon="13.646179294731901"><ele>244.0</ele><time>2026-04-18T13:53:26.998Z</time></trkpt><trkpt lat="42.825285527852685" lon="13.645938789266687"><ele>244.0</ele><time>2026-04-18T13:53:27.998Z</time></trkpt><trkpt lat="42.82520034665214" lon="13.64573164770548"><ele>237.66666666666666</ele><time>2026-04-18T13:53:28.998Z</time></trkpt><trkpt lat="42.82510585185709" lon="13.645537706650533"><ele>231.33333333333331</ele><time>2026-04-18T13:53:29.998Z</time></trkpt><trkpt lat="42.82504952400166" lon="13.645346543130138"><ele>225.0</ele><time>2026-04-18T13:53:30.998Z</time></trkpt><trkpt lat="42.82501408570552" lon="13.645162106439024"><ele>225.0</ele><time>2026-04-18T13:53:31.998Z</time></trkpt><trkpt lat="42.82499846870975" lon="13.644982013805462"><ele>225.0</ele><time>2026-04-18T13:53:32.998Z</time></trkpt><trkpt lat="42.82500266933517" lon="13.644809332596507"><ele>225.0</ele><time>2026-04-18T13:53:33.998Z</time></trkpt><trkpt lat="42.82503764008124" lon="13.644644942558113"><ele>225.0</ele><time>2026-04-18T13:53:34.998Z</time></trkpt><trkpt lat="42.8251110763102" lon="13.644482955429453"><ele>223.25</ele><time>2026-04-18T13:53:35.998Z</time></trkpt><trkpt lat="42.82520513764279" lon="13.64432242804815"><ele>221.5</ele><time>2026-04-18T13:53:36.998Z</time></trkpt><trkpt lat="42.82529327713027" lon="13.64418184108908"><ele>219.75</ele><time>2026-04-18T13:53:37.998Z</time></trkpt><trkpt lat="42.82539278934151" lon="13.64407214090081"><ele>218.0</ele><time>2026-04-18T13:53:38.998Z</time></trkpt><trkpt lat="42.82550915078501" lon="13.644021446006068"><ele>218.0</ele><time>2026-04-18T13:53:39.998Z</time></trkpt><trkpt lat="42.8256202023939" lon="13.644041105545584"><ele>218.0</ele><time>2026-04-18T13:53:40.998Z</time></trkpt><trkpt lat="42.82573337701182" lon="13.644135144927766"><ele>218.0</ele><time>2026-04-18T13:53:41.998Z</time></trkpt><trkpt lat="42.825851106002936" lon="13.644268283181923"><ele>218.0</ele><time>2026-04-18T13:53:42.998Z</time></trkpt><trkpt lat="42.82597970342967" lon="13.6444124096077"><ele>220.0</ele><time>2026-04-18T13:53:43.998Z</time></trkpt><trkpt lat="42.826117594870205" lon="13.644554280767323"><ele>222.0</ele><time>2026-04-18T13:53:44.998Z</time></trkpt><trkpt lat="42.8262454494384" lon="13.644686842470769"><ele>224.0</ele><time>2026-04-18T13:53:45.998Z</time></trkpt><trkpt lat="42.826355781951136" lon="13.644797201338685"><ele>224.0</ele><time>2026-04-18T13:53:46.998Z</time></trkpt><trkpt lat="42.82646400295186" lon="13.644841319149359"><ele>223.99999999999997</ele><time>2026-04-18T13:53:47.998Z</time></trkpt><trkpt lat="42.82656189562047" lon="13.644821057508103"><ele>223.99999999999997</ele><time>2026-04-18T13:53:48.998Z</time></trkpt><trkpt lat="42.82663831920709" lon="13.644717831186448"><ele>224.0</ele><time>2026-04-18T13:53:49.998Z</time></trkpt><trkpt lat="42.82668062501018" lon="13.644565025499057"><ele>224.0</ele><time>2026-04-18T13:53:50.998Z</time></trkpt><trkpt lat="42.82669726406699" lon="13.644370491836522"><ele>220.33333333333334</ele><time>2026-04-18T13:53:51.998Z</time></trkpt><trkpt lat="42.82673515980279" lon="13.644178364710378"><ele>216.66666666666669</ele><time>2026-04-18T13:53:52.998Z</time></trkpt><trkpt lat="42.82682583346327" lon="13.643996573177027"><ele>213.0</ele><time>2026-04-18T13:53:53.998Z</time></trkpt><trkpt lat="42.826942446883265" lon="13.643818654949282"><ele>212.25</ele><time>2026-04-18T13:53:54.998Z</time></trkpt><trkpt lat="42.82703983218919" lon="13.643647109580245"><ele>211.5</ele><time>2026-04-18T13:53:55.998Z</time></trkpt><trkpt lat="42.827124228298814" lon="13.643492169796142"><ele>210.75</ele><time>2026-04-18T13:53:56.998Z</time></trkpt><trkpt lat="42.827213624059816" lon="13.643367723197663"><ele>210.0</ele><time>2026-04-18T13:53:57.997Z</time></trkpt><trkpt lat="42.82732138583828" lon="13.643313780916232"><ele>206.75</ele><time>2026-04-18T13:53:58.997Z</time></trkpt><trkpt lat="42.827425391669664" lon="13.643320104103354"><ele>203.5</ele><time>2026-04-18T13:53:59.997Z</time></trkpt><trkpt lat="42.827532257477735" lon="13.643398646264936"><ele>200.25</ele><time>2026-04-18T13:54:00.997Z</time></trkpt><trkpt lat="42.8276470213216" lon="13.643531333329806"><ele>197.0</ele><time>2026-04-18T13:54:01.997Z</time></trkpt><trkpt lat="42.827774010105266" lon="13.643661284201599"><ele>197.0</ele><time>2026-04-18T13:54:02.997Z</time></trkpt><trkpt lat="42.8279134471766" lon="13.643794259701517"><ele>197.0</ele><time>2026-04-18T13:54:03.997Z</time></trkpt><trkpt lat="42.828043262313045" lon="13.643925788098972"><ele>197.0</ele><time>2026-04-18T13:54:04.997Z</time></trkpt><trkpt lat="42.82816063913294" lon="13.644082816654524"><ele>197.0</ele><time>2026-04-18T13:54:06Z</time></trkpt><trkpt lat="42.82825279481724" lon="13.644253232286"><ele>197.0</ele><time>2026-04-18T13:54:07Z</time></trkpt><trkpt lat="42.82834261546307" lon="13.644424003453683"><ele>197.0</ele><time>2026-04-18T13:54:08Z</time></trkpt><trkpt lat="42.828430318156265" lon="13.644583603079072"><ele>194.5</ele><time>2026-04-18T13:54:09Z</time></trkpt><trkpt lat="42.82851887027382" lon="13.644741299542206"><ele>192.0</ele><time>2026-04-18T13:54:10Z</time></trkpt><trkpt lat="42.828604927299956" lon="13.644896304691835"><ele>189.5</ele><time>2026-04-18T13:54:11Z</time></trkpt><trkpt lat="42.8286887727071" lon="13.645047675187808"><ele>187.0</ele><time>2026-04-18T13:54:12Z</time></trkpt><trkpt lat="42.82877024020503" lon="13.645193084591295"><ele>188.25</ele><time>2026-04-18T13:54:13Z</time></trkpt><trkpt lat="42.828849539906265" lon="13.64533301999023"><ele>189.5</ele><time>2026-04-18T13:54:14Z</time></trkpt><trkpt lat="42.82892425450671" lon="13.645467504435299"><ele>190.75</ele><time>2026-04-18T13:54:15Z</time></trkpt><trkpt lat="42.82899464078063" lon="13.645596134274124"><ele>192.0</ele><time>2026-04-18T13:54:16Z</time></trkpt><trkpt lat="42.82905933061909" lon="13.645721757241738"><ele>192.0</ele><time>2026-04-18T13:54:17Z</time></trkpt><trkpt lat="42.82911444837603" lon="13.645852347092372"><ele>192.0</ele><time>2026-04-18T13:54:18Z</time></trkpt><trkpt lat="42.829148591755754" lon="13.645986041305898"><ele>192.0</ele><time>2026-04-18T13:54:19Z</time></trkpt><trkpt lat="42.82916648905231" lon="13.646124343259135"><ele>192.0</ele><time>2026-04-18T13:54:20Z</time></trkpt><trkpt lat="42.82917294769982" lon="13.64627034907745"><ele>192.0</ele><time>2026-04-18T13:54:21Z</time></trkpt><trkpt lat="42.829165593999946" lon="13.646426350664537"><ele>191.6</ele><time>2026-04-18T13:54:22Z</time></trkpt><trkpt lat="42.829148661077475" lon="13.646585969686907"><ele>191.2</ele><time>2026-04-18T13:54:23Z</time></trkpt><trkpt lat="42.82913215624861" lon="13.646740226104217"><ele>190.8</ele><time>2026-04-18T13:54:24Z</time></trkpt><trkpt lat="42.829126985809935" lon="13.64688699344131"><ele>190.4</ele><time>2026-04-18T13:54:25Z</time></trkpt><trkpt lat="42.82913537133648" lon="13.647022664731393"><ele>190.0</ele><time>2026-04-18T13:54:26Z</time></trkpt><trkpt lat="42.82917935990147" lon="13.647143547219589"><ele>190.0</ele><time>2026-04-18T13:54:27Z</time></trkpt><trkpt lat="42.82925569127898" lon="13.647225309888855"><ele>190.0</ele><time>2026-04-18T13:54:28Z</time></trkpt><trkpt lat="42.82934141678142" lon="13.647281882302055"><ele>190.0</ele><time>2026-04-18T13:54:29Z</time></trkpt><trkpt lat="42.8294417886015" lon="13.647320412922058"><ele>190.0</ele><time>2026-04-18T13:54:30Z</time></trkpt><trkpt lat="42.829555511732245" lon="13.647356483906098"><ele>190.0</ele><time>2026-04-18T13:54:31Z</time></trkpt><trkpt lat="42.82967304578114" lon="13.647394182778827"><ele>188.0</ele><time>2026-04-18T13:54:32Z</time></trkpt><trkpt lat="42.829794413848724" lon="13.647431630346958"><ele>186.0</ele><time>2026-04-18T13:54:33Z</time></trkpt><trkpt lat="42.829915895352336" lon="13.647470676019369"><ele>184.0</ele><time>2026-04-18T13:54:34Z</time></trkpt><trkpt lat="42.830029230962396" lon="13.647509032652252"><ele>182.0</ele><time>2026-04-18T13:54:35Z</time></trkpt><trkpt lat="42.83014062735457" lon="13.647546552350638"><ele>184.0</ele><time>2026-04-18T13:54:36Z</time></trkpt><trkpt lat="42.83024447537986" lon="13.64758624156122"><ele>186.0</ele><time>2026-04-18T13:54:37Z</time></trkpt><trkpt lat="42.83034639230403" lon="13.647594938770915"><ele>188.0</ele><time>2026-04-18T13:54:38Z</time></trkpt><trkpt lat="42.83043771603686" lon="13.647532426580097"><ele>190.0</ele><time>2026-04-18T13:54:39Z</time></trkpt><trkpt lat="42.830494823349945" lon="13.647400680309225"><ele>192.0</ele><time>2026-04-18T13:54:40Z</time></trkpt><trkpt lat="42.83054205919617" lon="13.64724861615797"><ele>192.0</ele><time>2026-04-18T13:54:41Z</time></trkpt><trkpt lat="42.83059099531076" lon="13.647087885864675"><ele>192.0</ele><time>2026-04-18T13:54:42Z</time></trkpt><trkpt lat="42.83064429776828" lon="13.646921771854316"><ele>192.0</ele><time>2026-04-18T13:54:43Z</time></trkpt><trkpt lat="42.83071358427802" lon="13.6467640460264"><ele>192.0</ele><time>2026-04-18T13:54:44Z</time></trkpt><trkpt lat="42.83075612278009" lon="13.646602046601467"><ele>189.75</ele><time>2026-04-18T13:54:45Z</time></trkpt><trkpt lat="42.83081167972933" lon="13.646454032384868"><ele>187.5</ele><time>2026-04-18T13:54:46Z</time></trkpt><trkpt lat="42.830875027940564" lon="13.646322038471505"><ele>185.25</ele><time>2026-04-18T13:54:47Z</time></trkpt><trkpt lat="42.830968904496984" lon="13.64622454503374"><ele>183.0</ele><time>2026-04-18T13:54:48Z</time></trkpt><trkpt lat="42.83109359141184" lon="13.646158642264407"><ele>182.5</ele><time>2026-04-18T13:54:49Z</time></trkpt><trkpt lat="42.83122984956769" lon="13.64610199825461"><ele>182.0</ele><time>2026-04-18T13:54:50Z</time></trkpt><trkpt lat="42.831354489957064" lon="13.646034973995"><ele>181.5</ele><time>2026-04-18T13:54:51Z</time></trkpt><trkpt lat="42.83147101312805" lon="13.645978141956366"><ele>181.0</ele><time>2026-04-18T13:54:51.999Z</time></trkpt><trkpt lat="42.8315231332849" lon="13.645756290826538"><ele>181.0</ele><time>2026-04-18T13:54:52.999Z</time></trkpt><trkpt lat="42.83155080032979" lon="13.645526987636755"><ele>181.0</ele><time>2026-04-18T13:54:53.999Z</time></trkpt><trkpt lat="42.83154586606277" lon="13.645263690597316"><ele>181.0</ele><time>2026-04-18T13:54:54.999Z</time></trkpt><trkpt lat="42.83153799835155" lon="13.644991601101673"><ele>180.0</ele><time>2026-04-18T13:54:55.999Z</time></trkpt><trkpt lat="42.83153973671013" lon="13.644740990152275"><ele>179.0</ele><time>2026-04-18T13:54:56.999Z</time></trkpt><trkpt lat="42.83154178197401" lon="13.644506779018329"><ele>178.0</ele><time>2026-04-18T13:54:57.999Z</time></trkpt><trkpt lat="42.83154292220979" lon="13.644282247578035"><ele>175.75</ele><time>2026-04-18T13:54:58.999Z</time></trkpt><trkpt lat="42.83154844146255" lon="13.644073010222826"><ele>173.5</ele><time>2026-04-18T13:54:59.999Z</time></trkpt><trkpt lat="42.831572078399674" lon="13.643882360832258"><ele>171.25</ele><time>2026-04-18T13:55:00.999Z</time></trkpt><trkpt lat="42.831629685290636" lon="13.643699888684656"><ele>169.0</ele><time>2026-04-18T13:55:01.999Z</time></trkpt><trkpt lat="42.83171679770903" lon="13.643513675699202"><ele>169.33333333333334</ele><time>2026-04-18T13:55:02.999Z</time></trkpt><trkpt lat="42.83182997318689" lon="13.6433242609891"><ele>169.66666666666666</ele><time>2026-04-18T13:55:03.999Z</time></trkpt><trkpt lat="42.83195053951863" lon="13.643144532261685"><ele>170.0</ele><time>2026-04-18T13:55:04.999Z</time></trkpt><trkpt lat="42.83206626016883" lon="13.64298837557894"><ele>170.0</ele><time>2026-04-18T13:55:05.999Z</time></trkpt><trkpt lat="42.83220241962145" lon="13.642882127917721"><ele>170.0</ele><time>2026-04-18T13:55:06.999Z</time></trkpt><trkpt lat="42.83235306512245" lon="13.642796723848999"><ele>170.0</ele><time>2026-04-18T13:55:07.999Z</time></trkpt><trkpt lat="42.8324935642869" lon="13.642706986341846"><ele>166.25</ele><time>2026-04-18T13:55:08.999Z</time></trkpt><trkpt lat="42.83262350585357" lon="13.642620906466478"><ele>162.5</ele><time>2026-04-18T13:55:09.999Z</time></trkpt><trkpt lat="42.83275677876632" lon="13.64257456413519"><ele>158.75</ele><time>2026-04-18T13:55:10.999Z</time></trkpt><trkpt lat="42.83290036640639" lon="13.642580675441879"><ele>155.0</ele><time>2026-04-18T13:55:11.999Z</time></trkpt><trkpt lat="42.83303780153356" lon="13.642631461229088"><ele>154.66666666666666</ele><time>2026-04-18T13:55:12.999Z</time></trkpt><trkpt lat="42.83315961208859" lon="13.642717387727087"><ele>154.33333333333334</ele><time>2026-04-18T13:55:13.999Z</time></trkpt><trkpt lat="42.83327741697238" lon="13.64285554222109"><ele>154.0</ele><time>2026-04-18T13:55:14.999Z</time></trkpt><trkpt lat="42.83338874378171" lon="13.643028088780788"><ele>153.66666666666669</ele><time>2026-04-18T13:55:15.999Z</time></trkpt><trkpt lat="42.83349310630737" lon="13.643220821229152"><ele>153.33333333333334</ele><time>2026-04-18T13:55:16.999Z</time></trkpt><trkpt lat="42.833592950250335" lon="13.64339744470496"><ele>153.0</ele><time>2026-04-18T13:55:17.999Z</time></trkpt><trkpt lat="42.83368851396723" lon="13.643551717410425"><ele>153.0</ele><time>2026-04-18T13:55:18.999Z</time></trkpt><trkpt lat="42.83378519345428" lon="13.643665860078432"><ele>153.0</ele><time>2026-04-18T13:55:19.999Z</time></trkpt><trkpt lat="42.833894549571866" lon="13.643721755889857"><ele>153.0</ele><time>2026-04-18T13:55:20.999Z</time></trkpt><trkpt lat="42.83401322868628" lon="13.643694861633769"><ele>153.0</ele><time>2026-04-18T13:55:21.999Z</time></trkpt><trkpt lat="42.834130658244696" lon="13.643621629640766"><ele>153.0</ele><time>2026-04-18T13:55:22.999Z</time></trkpt><trkpt lat="42.83420671867038" lon="13.643438507708566"><ele>153.0</ele><time>2026-04-18T13:55:23.999Z</time></trkpt><trkpt lat="42.83425806102882" lon="13.643223371474445"><ele>153.0</ele><time>2026-04-18T13:55:24.999Z</time></trkpt><trkpt lat="42.834313140681196" lon="13.643000553989792"><ele>153.0</ele><time>2026-04-18T13:55:25.999Z</time></trkpt><trkpt lat="42.83437421359686" lon="13.642791003546543"><ele>153.0</ele><time>2026-04-18T13:55:26.999Z</time></trkpt><trkpt lat="42.83440144160164" lon="13.64258000349483"><ele>153.0</ele><time>2026-04-18T13:55:27.999Z</time></trkpt><trkpt lat="42.834378011152616" lon="13.642370835529231"><ele>153.0</ele><time>2026-04-18T13:55:28.999Z</time></trkpt><trkpt lat="42.834308801814544" lon="13.642147384999646"><ele>153.0</ele><time>2026-04-18T13:55:29.998Z</time></trkpt><trkpt lat="42.834231898142356" lon="13.641914544974904"><ele>153.0</ele><time>2026-04-18T13:55:30.998Z</time></trkpt><trkpt lat="42.83416728596269" lon="13.641695457100539"><ele>150.33333333333334</ele><time>2026-04-18T13:55:31.998Z</time></trkpt><trkpt lat="42.8341106479723" lon="13.641488950735965"><ele>147.66666666666669</ele><time>2026-04-18T13:55:32.998Z</time></trkpt><trkpt lat="42.83406888258374" lon="13.641284381309521"><ele>145.0</ele><time>2026-04-18T13:55:33.998Z</time></trkpt><trkpt lat="42.83406316736602" lon="13.641071547711892"><ele>144.33333333333334</ele><time>2026-04-18T13:55:34.998Z</time></trkpt><trkpt lat="42.834093375098455" lon="13.640855338428777"><ele>143.66666666666666</ele><time>2026-04-18T13:55:35.998Z</time></trkpt><trkpt lat="42.83412710444809" lon="13.640640793887549"><ele>143.0</ele><time>2026-04-18T13:55:36.998Z</time></trkpt><trkpt lat="42.83415892693319" lon="13.640416713762761"><ele>141.0</ele><time>2026-04-18T13:55:37.998Z</time></trkpt><trkpt lat="42.83419188869723" lon="13.64019095658337"><ele>139.0</ele><time>2026-04-18T13:55:38.998Z</time></trkpt><trkpt lat="42.83422676228128" lon="13.63997114935463"><ele>137.0</ele><time>2026-04-18T13:55:39.998Z</time></trkpt><trkpt lat="42.83426335627491" lon="13.639751968185466"><ele>137.0</ele><time>2026-04-18T13:55:40.998Z</time></trkpt><trkpt lat="42.834300980429575" lon="13.63953694094274"><ele>137.0</ele><time>2026-04-18T13:55:41.998Z</time></trkpt><trkpt lat="42.83433498224607" lon="13.63932960394955"><ele>137.0</ele><time>2026-04-18T13:55:42.998Z</time></trkpt><trkpt lat="42.834369929185385" lon="13.639122502439912"><ele>136.75</ele><time>2026-04-18T13:55:43.998Z</time></trkpt><trkpt lat="42.83440706666678" lon="13.638921652206644"><ele>136.5</ele><time>2026-04-18T13:55:44.998Z</time></trkpt><trkpt lat="42.83444857430599" lon="13.638727269675003"><ele>136.25</ele><time>2026-04-18T13:55:45.998Z</time></trkpt><trkpt lat="42.83450303589028" lon="13.638538294647587"><ele>136.0</ele><time>2026-04-18T13:55:46.998Z</time></trkpt><trkpt lat="42.834582364330046" lon="13.638370916523494"><ele>136.0</ele><time>2026-04-18T13:55:47.998Z</time></trkpt><trkpt lat="42.83468450158009" lon="13.638234776671528"><ele>136.0</ele><time>2026-04-18T13:55:48.998Z</time></trkpt><trkpt lat="42.83479693307472" lon="13.638114668775641"><ele>136.0</ele><time>2026-04-18T13:55:49.998Z</time></trkpt><trkpt lat="42.83490918620579" lon="13.637984805822649"><ele>136.0</ele><time>2026-04-18T13:55:50.998Z</time></trkpt><trkpt lat="42.83501655770725" lon="13.63784511359838"><ele>137.0</ele><time>2026-04-18T13:55:51.998Z</time></trkpt><trkpt lat="42.83512643601072" lon="13.637711054132447"><ele>138.0</ele><time>2026-04-18T13:55:52.998Z</time></trkpt><trkpt lat="42.83523105959483" lon="13.637586585483037"><ele>139.0</ele><time>2026-04-18T13:55:53.998Z</time></trkpt><trkpt lat="42.83532864611119" lon="13.637474197112889"><ele>140.0</ele><time>2026-04-18T13:55:54.998Z</time></trkpt><trkpt lat="42.83542536984124" lon="13.637374615229486"><ele>140.0</ele><time>2026-04-18T13:55:55.998Z</time></trkpt><trkpt lat="42.83553263373502" lon="13.637294259248877"><ele>140.0</ele><time>2026-04-18T13:55:56.998Z</time></trkpt><trkpt lat="42.83566224074394" lon="13.637240686980823"><ele>140.0</ele><time>2026-04-18T13:55:57.998Z</time></trkpt><trkpt lat="42.83580569280006" lon="13.637224554077783"><ele>140.0</ele><time>2026-04-18T13:55:58.998Z</time></trkpt><trkpt lat="42.835945695819895" lon="13.637219597528583"><ele>139.5</ele><time>2026-04-18T13:55:59.998Z</time></trkpt><trkpt lat="42.836072522800485" lon="13.637219598165151"><ele>139.0</ele><time>2026-04-18T13:56:00.998Z</time></trkpt><trkpt lat="42.83620638677617" lon="13.637215740632126"><ele>138.5</ele><time>2026-04-18T13:56:01.998Z</time></trkpt><trkpt lat="42.83634085406208" lon="13.637208428686941"><ele>138.0</ele><time>2026-04-18T13:56:02.998Z</time></trkpt><trkpt lat="42.836475969091396" lon="13.63720151784041"><ele>138.0</ele><time>2026-04-18T13:56:03.998Z</time></trkpt><trkpt lat="42.836610754594325" lon="13.637196440095979"><ele>138.0</ele><time>2026-04-18T13:56:04.998Z</time></trkpt><trkpt lat="42.83674591701119" lon="13.637185152260354"><ele>138.0</ele><time>2026-04-18T13:56:05.998Z</time></trkpt><trkpt lat="42.83686988947487" lon="13.637151293291051"><ele>138.0</ele><time>2026-04-18T13:56:06.998Z</time></trkpt><trkpt lat="42.83697513571349" lon="13.637109291844032"><ele>137.4</ele><time>2026-04-18T13:56:07.997Z</time></trkpt><trkpt lat="42.837063506843535" lon="13.637064720477582"><ele>136.8</ele><time>2026-04-18T13:56:08.997Z</time></trkpt><trkpt lat="42.83715487171409" lon="13.6370344771589"><ele>136.2</ele><time>2026-04-18T13:56:09.997Z</time></trkpt><trkpt lat="42.837245297867156" lon="13.63699289872264"><ele>135.6</ele><time>2026-04-18T13:56:10.997Z</time></trkpt><trkpt lat="42.83734377825972" lon="13.636934389558672"><ele>135.0</ele><time>2026-04-18T13:56:12Z</time></trkpt><trkpt lat="42.837450533136824" lon="13.636877213457774"><ele>135.0</ele><time>2026-04-18T13:56:13Z</time></trkpt><trkpt lat="42.83756454572445" lon="13.636812336274417"><ele>135.0</ele><time>2026-04-18T13:56:14Z</time></trkpt><trkpt lat="42.83767964976226" lon="13.636741655845581"><ele>135.0</ele><time>2026-04-18T13:56:15Z</time></trkpt><trkpt lat="42.8378123525229" lon="13.636657183544077"><ele>135.0</ele><time>2026-04-18T13:56:16Z</time></trkpt><trkpt lat="42.83796854338566" lon="13.636562610802821"><ele>134.33333333333334</ele><time>2026-04-18T13:56:17Z</time></trkpt><trkpt lat="42.838135940324264" lon="13.63646953287529"><ele>133.66666666666669</ele><time>2026-04-18T13:56:18Z</time></trkpt><trkpt lat="42.838309754209625" lon="13.636371466909695"><ele>133.0</ele><time>2026-04-18T13:56:19Z</time></trkpt><trkpt lat="42.8384883407114" lon="13.636265324006795"><ele>131.66666666666669</ele><time>2026-04-18T13:56:20Z</time></trkpt><trkpt lat="42.83866737190982" lon="13.636161442030298"><ele>130.33333333333334</ele><time>2026-04-18T13:56:21Z</time></trkpt><trkpt lat="42.83884368881213" lon="13.63606188782948"><ele>129.0</ele><time>2026-04-18T13:56:22Z</time></trkpt><trkpt lat="42.83901210566685" lon="13.635964962433405"><ele>129.0</ele><time>2026-04-18T13:56:23Z</time></trkpt><trkpt lat="42.839175103861145" lon="13.635871137748465"><ele>129.0</ele><time>2026-04-18T13:56:24Z</time></trkpt><trkpt lat="42.83933347432077" lon="13.63578254666047"><ele>129.0</ele><time>2026-04-18T13:56:25Z</time></trkpt><trkpt lat="42.83949277563154" lon="13.635695179069835"><ele>127.33333333333334</ele><time>2026-04-18T13:56:26Z</time></trkpt><trkpt lat="42.83965154473798" lon="13.635607819099853"><ele>125.66666666666667</ele><time>2026-04-18T13:56:27Z</time></trkpt><trkpt lat="42.83981083934334" lon="13.635515791223947"><ele>124.0</ele><time>2026-04-18T13:56:28Z</time></trkpt><trkpt lat="42.83997821016951" lon="13.63540845273566"><ele>122.66666666666667</ele><time>2026-04-18T13:56:29Z</time></trkpt><trkpt lat="42.840144943794" lon="13.63528898796563"><ele>121.33333333333334</ele><time>2026-04-18T13:56:30Z</time></trkpt><trkpt lat="42.84030410415" lon="13.635158034161917"><ele>120.0</ele><time>2026-04-18T13:56:31Z</time></trkpt><trkpt lat="42.84045886085132" lon="13.635016389832451"><ele>120.0</ele><time>2026-04-18T13:56:32Z</time></trkpt><trkpt lat="42.8406041008925" lon="13.63486274085187"><ele>120.0</ele><time>2026-04-18T13:56:33Z</time></trkpt><trkpt lat="42.84073924906777" lon="13.63469754868177"><ele>120.0</ele><time>2026-04-18T13:56:34Z</time></trkpt><trkpt lat="42.8408666700567" lon="13.634518369883047"><ele>118.33333333333334</ele><time>2026-04-18T13:56:35Z</time></trkpt><trkpt lat="42.840980620457714" lon="13.634323786357577"><ele>116.66666666666667</ele><time>2026-04-18T13:56:36Z</time></trkpt><trkpt lat="42.841129859670566" lon="13.634120480448553"><ele>115.0</ele><time>2026-04-18T13:56:37Z</time></trkpt><trkpt lat="42.84124038958423" lon="13.633890898984113"><ele>115.0</ele><time>2026-04-18T13:56:38Z</time></trkpt><trkpt lat="42.84134555730501" lon="13.633653211477924"><ele>115.0</ele><time>2026-04-18T13:56:39Z</time></trkpt><trkpt lat="42.8414442662912" lon="13.633406932368343"><ele>115.0</ele><time>2026-04-18T13:56:40Z</time></trkpt><trkpt lat="42.841526924140766" lon="13.63314978637925"><ele>115.0</ele><time>2026-04-18T13:56:41Z</time></trkpt><trkpt lat="42.841593152005444" lon="13.63288930550379"><ele>115.0</ele><time>2026-04-18T13:56:42Z</time></trkpt><trkpt lat="42.84164768615294" lon="13.632632331158721"><ele>115.0</ele><time>2026-04-18T13:56:43Z</time></trkpt><trkpt lat="42.8417027317048" lon="13.632380929638057"><ele>115.0</ele><time>2026-04-18T13:56:44Z</time></trkpt><trkpt lat="42.841759745767504" lon="13.63212659329063"><ele>115.0</ele><time>2026-04-18T13:56:45Z</time></trkpt><trkpt lat="42.84181720875959" lon="13.631869583597293"><ele>115.0</ele><time>2026-04-18T13:56:46Z</time></trkpt><trkpt lat="42.84187511532632" lon="13.63161228004414"><ele>114.33333333333334</ele><time>2026-04-18T13:56:47Z</time></trkpt><trkpt lat="42.84193413250451" lon="13.631356663075401"><ele>113.66666666666666</ele><time>2026-04-18T13:56:48Z</time></trkpt><trkpt lat="42.841992117249596" lon="13.631104301607285"><ele>113.0</ele><time>2026-04-18T13:56:49Z</time></trkpt><trkpt lat="42.84205039542519" lon="13.630856052033263"><ele>113.0</ele><time>2026-04-18T13:56:50Z</time></trkpt><trkpt lat="42.84211123877388" lon="13.63060986013558"><ele>113.0</ele><time>2026-04-18T13:56:51Z</time></trkpt><trkpt lat="42.84217319953062" lon="13.630367598015773"><ele>113.0</ele><time>2026-04-18T13:56:52Z</time></trkpt><trkpt lat="42.84223168120955" lon="13.630126964032822"><ele>113.0</ele><time>2026-04-18T13:56:53Z</time></trkpt><trkpt lat="42.84228585280285" lon="13.629891879815732"><ele>113.0</ele><time>2026-04-18T13:56:54Z</time></trkpt><trkpt lat="42.84233848564413" lon="13.629660842664189"><ele>113.0</ele><time>2026-04-18T13:56:55Z</time></trkpt><trkpt lat="42.84239224217973" lon="13.629431816177545"><ele>113.33333333333333</ele><time>2026-04-18T13:56:55.999Z</time></trkpt><trkpt lat="42.84244934123911" lon="13.629202735670706"><ele>113.66666666666666</ele><time>2026-04-18T13:56:56.998Z</time></trkpt><trkpt lat="42.84250673883712" lon="13.628979794440601"><ele>114.0</ele><time>2026-04-18T13:56:57.998Z</time></trkpt><trkpt lat="42.84256058562636" lon="13.628758868059052"><ele>114.0</ele><time>2026-04-18T13:56:58.998Z</time></trkpt><trkpt lat="42.84260749610546" lon="13.628534609814492"><ele>114.0</ele><time>2026-04-18T13:56:59.998Z</time></trkpt><trkpt lat="42.842638946631666" lon="13.628290645410653"><ele>114.0</ele><time>2026-04-18T13:57:00.998Z</time></trkpt><trkpt lat="42.84267321503167" lon="13.62804031768218"><ele>113.66666666666666</ele><time>2026-04-18T13:57:01.998Z</time></trkpt><trkpt lat="42.842698203078314" lon="13.62778373900546"><ele>113.33333333333333</ele><time>2026-04-18T13:57:02.998Z</time></trkpt><trkpt lat="42.842716870285145" lon="13.627544024157844"><ele>113.0</ele><time>2026-04-18T13:57:03.998Z</time></trkpt><trkpt lat="42.84272652110108" lon="13.627327165250769"><ele>113.0</ele><time>2026-04-18T13:57:04.998Z</time></trkpt><trkpt lat="42.84273431766214" lon="13.627113665619927"><ele>113.0</ele><time>2026-04-18T13:57:05.998Z</time></trkpt><trkpt lat="42.84273608831628" lon="13.626910567670384"><ele>113.0</ele><time>2026-04-18T13:57:06.998Z</time></trkpt><trkpt lat="42.84273610914375" lon="13.626714623383902"><ele>113.0</ele><time>2026-04-18T13:57:07.998Z</time></trkpt><trkpt lat="42.84273578145907" lon="13.626516284251725"><ele>113.33333333333333</ele><time>2026-04-18T13:57:08.998Z</time></trkpt><trkpt lat="42.84273449511298" lon="13.626319451577832"><ele>113.66666666666666</ele><time>2026-04-18T13:57:09.998Z</time></trkpt><trkpt lat="42.84273149973124" lon="13.626115479399266"><ele>114.0</ele><time>2026-04-18T13:57:10.998Z</time></trkpt><trkpt lat="42.84272835098846" lon="13.625890486778566"><ele>113.33333333333334</ele><time>2026-04-18T13:57:11.998Z</time></trkpt><trkpt lat="42.84273220439888" lon="13.62566857949379"><ele>112.66666666666667</ele><time>2026-04-18T13:57:12.998Z</time></trkpt><trkpt lat="42.842742097922" lon="13.625450408081365"><ele>112.0</ele><time>2026-04-18T13:57:13.998Z</time></trkpt><trkpt lat="42.84275155804576" lon="13.625237073605014"><ele>111.33333333333334</ele><time>2026-04-18T13:57:14.998Z</time></trkpt><trkpt lat="42.84276397885727" lon="13.625028649665396"><ele>110.66666666666666</ele><time>2026-04-18T13:57:15.998Z</time></trkpt><trkpt lat="42.842784674742134" lon="13.624820757622723"><ele>110.0</ele><time>2026-04-18T13:57:16.998Z</time></trkpt><trkpt lat="42.84281897580232" lon="13.624621985987211"><ele>111.33333333333333</ele><time>2026-04-18T13:57:17.998Z</time></trkpt><trkpt lat="42.84286607829329" lon="13.624422642979468"><ele>112.66666666666666</ele><time>2026-04-18T13:57:18.998Z</time></trkpt><trkpt lat="42.842920980475164" lon="13.624231288795919"><ele>114.0</ele><time>2026-04-18T13:57:19.998Z</time></trkpt><trkpt lat="42.84297914303111" lon="13.62404586962442"><ele>114.0</ele><time>2026-04-18T13:57:20.998Z</time></trkpt><trkpt lat="42.84303242702616" lon="13.623876770609288"><ele>114.0</ele><time>2026-04-18T13:57:21.998Z</time></trkpt><trkpt lat="42.84308092609683" lon="13.623714324841256"><ele>114.0</ele><time>2026-04-18T13:57:22.998Z</time></trkpt><trkpt lat="42.84312484038015" lon="13.623558402860512"><ele>114.0</ele><time>2026-04-18T13:57:23.998Z</time></trkpt><trkpt lat="42.84316474840088" lon="13.623422679825422"><ele>114.4</ele><time>2026-04-18T13:57:24.998Z</time></trkpt><trkpt lat="42.843202626858584" lon="13.623320793290736"><ele>114.80000000000001</ele><time>2026-04-18T13:57:25.998Z</time></trkpt><trkpt lat="42.8432771324014" lon="13.623205909393729"><ele>115.19999999999999</ele><time>2026-04-18T13:57:27.998Z</time></trkpt><trkpt lat="42.843351450001514" lon="13.623132558406216"><ele>115.6</ele><time>2026-04-18T13:57:35.997Z</time></trkpt><trkpt lat="42.84345353820926" lon="13.623102362963053"><ele>116.0</ele><time>2026-04-18T13:57:37.997Z</time></trkpt><trkpt lat="42.8435635670576" lon="13.62303524083169"><ele>115.99999999999999</ele><time>2026-04-18T13:57:39.997Z</time></trkpt><trkpt lat="42.84361779020936" lon="13.622976185679082"><ele>116.0</ele><time>2026-04-18T13:57:40.997Z</time></trkpt><trkpt lat="42.84368131132317" lon="13.622931312328369"><ele>116.0</ele><time>2026-04-18T13:57:41.997Z</time></trkpt><trkpt lat="42.84376235487629" lon="13.622920078847702"><ele>116.0</ele><time>2026-04-18T13:57:42.997Z</time></trkpt><trkpt lat="42.843843939318916" lon="13.622943533483253"><ele>115.99999999999999</ele><time>2026-04-18T13:57:43.997Z</time></trkpt><trkpt lat="42.84390687066603" lon="13.62297073176323"><ele>116.0</ele><time>2026-04-18T13:57:44.997Z</time></trkpt><trkpt lat="42.84400538356578" lon="13.623027080162375"><ele>115.99999999999999</ele><time>2026-04-18T13:57:46.997Z</time></trkpt><trkpt lat="42.844065017171246" lon="13.623130772268166"><ele>116.0</ele><time>2026-04-18T13:57:49.997Z</time></trkpt><trkpt lat="42.84407473010128" lon="13.62322251836706"><ele>116.0</ele><time>2026-04-18T13:57:50.997Z</time></trkpt><trkpt lat="42.84405726532053" lon="13.623328411295084"><ele>116.0</ele><time>2026-04-18T13:57:51.997Z</time></trkpt><trkpt lat="42.844037791459726" lon="13.62343031363413"><ele>115.99999999999999</ele><time>2026-04-18T13:57:52.997Z</time></trkpt><trkpt lat="42.84402621084123" lon="13.623524947825342"><ele>116.0</ele><time>2026-04-18T13:57:53.997Z</time></trkpt><trkpt lat="42.84401582584888" lon="13.623624457740663"><ele>115.66666666666666</ele><time>2026-04-18T13:57:54.997Z</time></trkpt><trkpt lat="42.84400195170891" lon="13.623733790496223"><ele>115.33333333333333</ele><time>2026-04-18T13:57:55.997Z</time></trkpt><trkpt lat="42.843989895408875" lon="13.62384855538915"><ele>115.0</ele><time>2026-04-18T13:57:56.997Z</time></trkpt><trkpt lat="42.843983240304595" lon="13.62395683056429"><ele>114.66666666666666</ele><time>2026-04-18T13:57:57.997Z</time></trkpt><trkpt lat="42.84397862871692" lon="13.624061988525472"><ele>114.33333333333333</ele><time>2026-04-18T13:57:58.997Z</time></trkpt><trkpt lat="42.84397381732141" lon="13.624164107831094"><ele>114.0</ele><time>2026-04-18T13:57:59.997Z</time></trkpt><trkpt lat="42.84397180530295" lon="13.62426872141701"><ele>114.0</ele><time>2026-04-18T13:58:00.997Z</time></trkpt><trkpt lat="42.84397778313552" lon="13.624376242019448"><ele>113.99999999999999</ele><time>2026-04-18T13:58:01.997Z</time></trkpt><trkpt lat="42.84399544325342" lon="13.624493857291805"><ele>114.0</ele><time>2026-04-18T13:58:02.997Z</time></trkpt><trkpt lat="42.844033685890246" lon="13.62458699413187"><ele>114.0</ele><time>2026-04-18T13:58:03.997Z</time></trkpt><trkpt lat="42.84408471934926" lon="13.624650345541708"><ele>113.99999999999999</ele><time>2026-04-18T13:58:04.997Z</time></trkpt><trkpt lat="42.84414833729092" lon="13.624676286787949"><ele>114.0</ele><time>2026-04-18T13:58:05.997Z</time></trkpt><trkpt lat="42.84421573466161" lon="13.624666417777577"><ele>114.0</ele><time>2026-04-18T13:58:06.997Z</time></trkpt><trkpt lat="42.844285036972934" lon="13.624637178401603"><ele>114.0</ele><time>2026-04-18T13:58:07.997Z</time></trkpt><trkpt lat="42.84434568944557" lon="13.624588146443589"><ele>114.0</ele><time>2026-04-18T13:58:08.997Z</time></trkpt><trkpt lat="42.844385173373134" lon="13.62451663966536"><ele>114.0</ele><time>2026-04-18T13:58:09.997Z</time></trkpt><trkpt lat="42.8444330405067" lon="13.624458862069899"><ele>114.0</ele><time>2026-04-18T13:58:10.997Z</time></trkpt><trkpt lat="42.84454763564113" lon="13.624518918060181"><ele>114.0</ele><time>2026-04-18T13:58:11.997Z</time></trkpt><trkpt lat="42.844643702589735" lon="13.624544395331402"><ele>114.0</ele><time>2026-04-18T13:58:13.997Z</time></trkpt><trkpt lat="42.84471856247668" lon="13.6245799707574"><ele>114.0</ele><time>2026-04-18T13:58:15.996Z</time></trkpt><trkpt lat="42.84474819587762" lon="13.62445381414588"><ele>114.0</ele><time>2026-04-18T13:58:16.999Z</time></trkpt><trkpt lat="42.84475672976351" lon="13.624303993028496"><ele>114.0</ele><time>2026-04-18T13:58:18.999Z</time></trkpt><trkpt lat="42.84477532012649" lon="13.624179927876316"><ele>114.0</ele><time>2026-04-18T13:58:20.999Z</time></trkpt><trkpt lat="42.8449178592663" lon="13.624198736576117"><ele>114.0</ele><time>2026-04-18T13:58:22.999Z</time></trkpt><trkpt lat="42.84499080327465" lon="13.624210731775577"><ele>114.0</ele><time>2026-04-18T13:58:23.999Z</time></trkpt><trkpt lat="42.845058513053765" lon="13.624235540707812"><ele>114.0</ele><time>2026-04-18T13:58:24.999Z</time></trkpt><trkpt lat="42.84512777886078" lon="13.624096952759139"><ele>114.0</ele><time>2026-04-18T13:58:26.999Z</time></trkpt><trkpt lat="42.8451423664744" lon="13.62398849432057"><ele>114.0</ele><time>2026-04-18T13:58:27.999Z</time></trkpt><trkpt lat="42.845167746890276" lon="13.623890776418225"><ele>114.0</ele><time>2026-04-18T13:58:28.999Z</time></trkpt><trkpt lat="42.84517067516271" lon="13.623800809301356"><ele>114.0</ele><time>2026-04-18T13:58:29.999Z</time></trkpt><trkpt lat="42.84517138937312" lon="13.623652441243049"><ele>113.66666666666667</ele><time>2026-04-18T13:58:31.999Z</time></trkpt><trkpt lat="42.845177844898934" lon="13.62352487886938"><ele>113.33333333333334</ele><time>2026-04-18T13:58:33.999Z</time></trkpt><trkpt lat="42.845185875707365" lon="13.623425601372338"><ele>113.0</ele><time>2026-04-18T13:58:35.999Z</time></trkpt><trkpt lat="42.845201460977194" lon="13.623338086675737"><ele>112.66666666666667</ele><time>2026-04-18T14:03:58.998Z</time></trkpt><trkpt lat="42.84525373132826" lon="13.623277208806913"><ele>112.33333333333334</ele><time>2026-04-18T14:04:07.998Z</time></trkpt><trkpt lat="42.84534830294399" lon="13.623271267781965"><ele>112.0</ele><time>2026-04-18T14:04:21.997Z</time></trkpt><trkpt lat="42.84542291059003" lon="13.623353840816302"><ele>112.0</ele><time>2026-04-18T14:04:35Z</time></trkpt><trkpt lat="42.8454625678804" lon="13.623426523345932"><ele>112.0</ele><time>2026-04-18T14:04:41Z</time></trkpt><trkpt lat="42.84546602440902" lon="13.623515550121201"><ele>112.0</ele><time>2026-04-18T14:04:51Z</time></trkpt><trkpt lat="42.84545855244763" lon="13.62360130630046"><ele>112.0</ele><time>2026-04-18T14:05:00Z</time></trkpt><trkpt lat="42.84543682684252" lon="13.62368814845182"><ele>112.0</ele><time>2026-04-18T14:05:08.999Z</time></trkpt><trkpt lat="42.84543693131381" lon="13.623791826166869"><ele>112.0</ele><time>2026-04-18T14:05:27.999Z</time></trkpt><trkpt lat="42.845438855536884" lon="13.62387860869978"><ele>112.0</ele><time>2026-04-18T14:05:33.999Z</time></trkpt><trkpt lat="42.845486995296675" lon="13.62395776375921"><ele>111.6</ele><time>2026-04-18T14:05:46.999Z</time></trkpt><trkpt lat="42.845495303469235" lon="13.624043218216876"><ele>111.19999999999999</ele><time>2026-04-18T14:05:54.998Z</time></trkpt><trkpt lat="42.845538227197224" lon="13.62420944352389"><ele>110.8</ele><time>2026-04-18T14:11:09.001Z</time></trkpt><trkpt lat="42.845529032304334" lon="13.624297083702539"><ele>110.4</ele><time>2026-04-18T14:11:55.999Z</time></trkpt><trkpt lat="42.845482305863364" lon="13.624236187739681"><ele>110.0</ele><time>2026-04-18T14:16:33.998Z</time></trkpt><trkpt lat="42.84561002608571" lon="13.624167796030477"><ele>109.99999999999999</ele><time>2026-04-18T14:19:21Z</time></trkpt><trkpt lat="42.84571292988819" lon="13.624168608260177"><ele>110.0</ele><time>2026-04-18T14:19:29Z</time></trkpt><trkpt lat="42.845782430337366" lon="13.62412755987572"><ele>110.0</ele><time>2026-04-18T14:19:36Z</time></trkpt><trkpt lat="42.84585273621311" lon="13.624099662143545"><ele>110.0</ele><time>2026-04-18T14:19:39Z</time></trkpt><trkpt lat="42.84587427885965" lon="13.623997470469316"><ele>109.99999999999999</ele><time>2026-04-18T14:19:46Z</time></trkpt><trkpt lat="42.845903816935675" lon="13.623919954253024"><ele>110.0</ele><time>2026-04-18T14:19:51.999Z</time></trkpt><trkpt lat="42.84588722784189" lon="13.623827909941076"><ele>109.99999999999999</ele><time>2026-04-18T14:20:03.999Z</time></trkpt><trkpt lat="42.845890808087404" lon="13.623740272911201"><ele>110.0</ele><time>2026-04-18T14:20:10.999Z</time></trkpt><trkpt lat="42.84594364554534" lon="13.623665486139055"><ele>110.0</ele><time>2026-04-18T14:20:21.999Z</time></trkpt><trkpt lat="42.84599202367029" lon="13.623608002216187"><ele>110.0</ele><time>2026-04-18T14:20:24.999Z</time></trkpt><trkpt lat="42.846004941979054" lon="13.623522480323734"><ele>110.0</ele><time>2026-04-18T14:20:27.998Z</time></trkpt><trkpt lat="42.84597372905178" lon="13.623444540324765"><ele>109.99999999999999</ele><time>2026-04-18T14:20:33.998Z</time></trkpt><trkpt lat="42.84601508541783" lon="13.623366785700004"><ele>110.0</ele><time>2026-04-18T14:20:39.998Z</time></trkpt><trkpt lat="42.84598798188617" lon="13.623255475506229"><ele>110.28571428571428</ele><time>2026-04-18T14:20:51.998Z</time></trkpt><trkpt lat="42.846021107525196" lon="13.623142756966093"><ele>110.57142857142857</ele><time>2026-04-18T14:21:14.997Z</time></trkpt><trkpt lat="42.84605129139202" lon="13.623057607877266"><ele>110.85714285714286</ele><time>2026-04-18T14:22:21.999Z</time></trkpt><trkpt lat="42.846036138372064" lon="13.622968668491007"><ele>111.14285714285714</ele><time>2026-04-18T14:22:31.999Z</time></trkpt><trkpt lat="42.84604363304962" lon="13.622856283310046"><ele>111.42857142857143</ele><time>2026-04-18T14:22:38.998Z</time></trkpt><trkpt lat="42.84604977625766" lon="13.622769037883444"><ele>111.71428571428571</ele><time>2026-04-18T14:22:44.998Z</time></trkpt><trkpt lat="42.84602249882686" lon="13.622690272108832"><ele>112.0</ele><time>2026-04-18T14:22:53.998Z</time></trkpt><trkpt lat="42.845960055269465" lon="13.622628219118116"><ele>112.28571428571428</ele><time>2026-04-18T14:23:05.998Z</time></trkpt><trkpt lat="42.845892574464244" lon="13.622619483219195"><ele>112.57142857142857</ele><time>2026-04-18T14:23:10.998Z</time></trkpt><trkpt lat="42.84585846583948" lon="13.622542810024434"><ele>112.85714285714286</ele><time>2026-04-18T14:23:24Z</time></trkpt><trkpt lat="42.845792104744305" lon="13.62256070550307"><ele>113.14285714285714</ele><time>2026-04-18T14:23:32Z</time></trkpt><trkpt lat="42.845723996662" lon="13.622572659082689"><ele>113.42857142857142</ele><time>2026-04-18T14:23:49Z</time></trkpt><trkpt lat="42.845661172331674" lon="13.622622065485478"><ele>113.71428571428571</ele><time>2026-04-18T14:23:59Z</time></trkpt><trkpt lat="42.8456958224581" lon="13.622729002904494"><ele>114.0</ele><time>2026-04-18T14:24:12.999Z</time></trkpt><trkpt lat="42.845638641646644" lon="13.62278055849211"><ele>113.71428571428571</ele><time>2026-04-18T14:24:21.999Z</time></trkpt><trkpt lat="42.845613776553556" lon="13.622867205498919"><ele>113.42857142857142</ele><time>2026-04-18T14:24:31.999Z</time></trkpt><trkpt lat="42.84560607494784" lon="13.622961394408554"><ele>113.14285714285714</ele><time>2026-04-18T14:24:40.999Z</time></trkpt><trkpt lat="42.84559277736344" lon="13.623052972412502"><ele>112.85714285714286</ele><time>2026-04-18T14:24:48.998Z</time></trkpt><trkpt lat="42.84556864226766" lon="13.623135537141408"><ele>112.57142857142857</ele><time>2026-04-18T14:24:53.998Z</time></trkpt><trkpt lat="42.84554167159101" lon="13.623220991936313"><ele>112.28571428571428</ele><time>2026-04-18T14:25:00.998Z</time></trkpt><trkpt lat="42.84545074339023" lon="13.623229060528857"><ele>112.0</ele><time>2026-04-18T14:25:17.998Z</time></trkpt><trkpt lat="42.8453806291835" lon="13.623257256029852"><ele>112.0</ele><time>2026-04-18T14:25:21.998Z</time></trkpt><trkpt lat="42.84531717893518" lon="13.623261104219774"><ele>112.0</ele><time>2026-04-18T14:25:27.997Z</time></trkpt><trkpt lat="42.845252804649434" lon="13.623268095255641"><ele>112.0</ele><time>2026-04-18T14:25:38Z</time></trkpt><trkpt lat="42.845237046432274" lon="13.62335330844014"><ele>112.0</ele><time>2026-04-18T14:25:46Z</time></trkpt><trkpt lat="42.84526721657845" lon="13.623276972444762"><ele>112.0</ele><time>2026-04-18T14:26:40.999Z</time></trkpt><trkpt lat="42.84533861712214" lon="13.623256176619025"><ele>112.0</ele><time>2026-04-18T14:26:46.999Z</time></trkpt><trkpt lat="42.84542639066154" lon="13.623324957833551"><ele>112.0</ele><time>2026-04-18T14:26:57.998Z</time></trkpt><trkpt lat="42.84546298074813" lon="13.62340008200151"><ele>112.0</ele><time>2026-04-18T14:27:03.998Z</time></trkpt><trkpt lat="42.84548533450177" lon="13.623496153774608"><ele>112.0</ele><time>2026-04-18T14:27:09.998Z</time></trkpt><trkpt lat="42.8454915233617" lon="13.62358736686678"><ele>112.0</ele><time>2026-04-18T14:27:15.998Z</time></trkpt><trkpt lat="42.84547504249228" lon="13.623682850148542"><ele>112.0</ele><time>2026-04-18T14:27:21.998Z</time></trkpt><trkpt lat="42.845478987429196" lon="13.623769205347385"><ele>112.0</ele><time>2026-04-18T14:27:27.998Z</time></trkpt><trkpt lat="42.84549724960908" lon="13.623852241016206"><ele>112.0</ele><time>2026-04-18T14:27:31.997Z</time></trkpt><trkpt lat="42.84553471400782" lon="13.623930879586647"><ele>112.0</ele><time>2026-04-18T14:27:38.001Z</time></trkpt><trkpt lat="42.84561148844171" lon="13.623954830845621"><ele>111.66666666666667</ele><time>2026-04-18T14:27:52.999Z</time></trkpt><trkpt lat="42.84562194686901" lon="13.62405372667683"><ele>111.33333333333334</ele><time>2026-04-18T14:27:58.999Z</time></trkpt><trkpt lat="42.84560678797873" lon="13.624144139908362"><ele>111.0</ele><time>2026-04-18T14:28:06.999Z</time></trkpt><trkpt lat="42.845646745124505" lon="13.624218348350372"><ele>110.66666666666666</ele><time>2026-04-18T14:28:10.999Z</time></trkpt><trkpt lat="42.845665418771844" lon="13.624300481854764"><ele>110.33333333333333</ele><time>2026-04-18T14:28:18.999Z</time></trkpt><trkpt lat="42.84558598935033" lon="13.624425657529203"><ele>110.0</ele><time>2026-04-18T14:29:40.997Z</time></trkpt><trkpt lat="42.845646259010856" lon="13.624469204002049"><ele>109.99999999999999</ele><time>2026-04-18T14:30:08.999Z</time></trkpt><trkpt lat="42.84565759472846" lon="13.624383029224129"><ele>110.0</ele><time>2026-04-18T14:30:12.999Z</time></trkpt><trkpt lat="42.84569848999599" lon="13.624316142827576"><ele>110.0</ele><time>2026-04-18T14:30:21.999Z</time></trkpt><trkpt lat="42.84573554539075" lon="13.62423197295778"><ele>110.0</ele><time>2026-04-18T14:30:25.999Z</time></trkpt><trkpt lat="42.84568095334235" lon="13.624162877460579"><ele>110.0</ele><time>2026-04-18T14:30:39.998Z</time></trkpt><trkpt lat="42.845606992690605" lon="13.624130854433817"><ele>109.99999999999999</ele><time>2026-04-18T14:30:42.998Z</time></trkpt><trkpt lat="42.845574887506494" lon="13.624053279792056"><ele>110.0</ele><time>2026-04-18T14:30:46.998Z</time></trkpt><trkpt lat="42.84553969756689" lon="13.623959831199038"><ele>109.99999999999999</ele><time>2026-04-18T14:30:50.998Z</time></trkpt><trkpt lat="42.84550133656545" lon="13.623885812063124"><ele>110.0</ele><time>2026-04-18T14:30:57.998Z</time></trkpt><trkpt lat="42.84549658451458" lon="13.623786279318523"><ele>110.0</ele><time>2026-04-18T14:31:03.998Z</time></trkpt><trkpt lat="42.845487642353056" lon="13.623699771097673"><ele>110.0</ele><time>2026-04-18T14:31:09.998Z</time></trkpt><trkpt lat="42.84548883224693" lon="13.623609840282091"><ele>110.0</ele><time>2026-04-18T14:31:16.997Z</time></trkpt><trkpt lat="42.8455033478198" lon="13.623524211226075"><ele>109.99999999999999</ele><time>2026-04-18T14:31:22.997Z</time></trkpt><trkpt lat="42.84552055434851" lon="13.62344101752994"><ele>110.0</ele><time>2026-04-18T14:31:27.997Z</time></trkpt><trkpt lat="42.845530978697866" lon="13.623345208317355"><ele>110.28571428571428</ele><time>2026-04-18T14:31:33.997Z</time></trkpt><trkpt lat="42.84548707353631" lon="13.623263006855975"><ele>110.57142857142857</ele><time>2026-04-18T14:31:41.997Z</time></trkpt><trkpt lat="42.84543553237301" lon="13.623211295763262"><ele>110.85714285714286</ele><time>2026-04-18T14:31:44.997Z</time></trkpt><trkpt lat="42.845370317890854" lon="13.623177361603279"><ele>111.14285714285714</ele><time>2026-04-18T14:31:48Z</time></trkpt><trkpt lat="42.84529270835909" lon="13.623216482670236"><ele>111.42857142857143</ele><time>2026-04-18T14:31:50Z</time></trkpt><trkpt lat="42.84521796603156" lon="13.623243131841079"><ele>111.71428571428571</ele><time>2026-04-18T14:31:52Z</time></trkpt><trkpt lat="42.84518612159905" lon="13.623329511641087"><ele>112.0</ele><time>2026-04-18T14:31:56Z</time></trkpt><trkpt lat="42.845215703342866" lon="13.623411347261388"><ele>112.0</ele><time>2026-04-18T14:32:01Z</time></trkpt><trkpt lat="42.84523034652354" lon="13.623301234659344"><ele>112.0</ele><time>2026-04-18T14:41:45.998Z</time></trkpt><trkpt lat="42.84517154957286" lon="13.623244134773989"><ele>112.0</ele><time>2026-04-18T14:41:49.998Z</time></trkpt><trkpt lat="42.845101320116655" lon="13.623225318111661"><ele>112.0</ele><time>2026-04-18T14:41:52.997Z</time></trkpt><trkpt lat="42.84503885997857" lon="13.62319935040665"><ele>112.0</ele><time>2026-04-18T14:41:54.997Z</time></trkpt><trkpt lat="42.844968319937166" lon="13.623179119526089"><ele>112.0</ele><time>2026-04-18T14:41:58.997Z</time></trkpt><trkpt lat="42.844887905225576" lon="13.623159102583761"><ele>112.0</ele><time>2026-04-18T14:42:07.997Z</time></trkpt><trkpt lat="42.844859510495894" lon="13.623265570315906"><ele>112.39999999999999</ele><time>2026-04-18T14:42:09.997Z</time></trkpt><trkpt lat="42.844835455763025" lon="13.62341487812429"><ele>112.79999999999998</ele><time>2026-04-18T14:42:11.997Z</time></trkpt><trkpt lat="42.84481476118148" lon="13.623570919008479"><ele>113.2</ele><time>2026-04-18T14:42:13.997Z</time></trkpt><trkpt lat="42.84480750348266" lon="13.623657160590897"><ele>113.6</ele><time>2026-04-18T14:42:14.998Z</time></trkpt><trkpt lat="42.84478440630024" lon="13.623823929960844"><ele>114.0</ele><time>2026-04-18T14:42:16.998Z</time></trkpt><trkpt lat="42.84477210670568" lon="13.62391557371253"><ele>114.0</ele><time>2026-04-18T14:42:17.998Z</time></trkpt><trkpt lat="42.84476206430511" lon="13.624016556034626"><ele>114.0</ele><time>2026-04-18T14:42:18.998Z</time></trkpt><trkpt lat="42.8447520537866" lon="13.624119774931613"><ele>114.0</ele><time>2026-04-18T14:42:19.998Z</time></trkpt><trkpt lat="42.84473698455417" lon="13.624209246278467"><ele>114.0</ele><time>2026-04-18T14:42:20.998Z</time></trkpt><trkpt lat="42.84471405913537" lon="13.624346072471592"><ele>114.0</ele><time>2026-04-18T14:42:22.998Z</time></trkpt><trkpt lat="42.844682207009775" lon="13.624480608524793"><ele>114.0</ele><time>2026-04-18T14:42:24.998Z</time></trkpt><trkpt lat="42.844595331771885" lon="13.624501393734247"><ele>114.0</ele><time>2026-04-18T14:42:26.998Z</time></trkpt><trkpt lat="42.844486651268646" lon="13.624443022182694"><ele>114.0</ele><time>2026-04-18T14:42:28.998Z</time></trkpt><trkpt lat="42.84439812446517" lon="13.624424451753407"><ele>114.0</ele><time>2026-04-18T14:42:30.998Z</time></trkpt><trkpt lat="42.84432854258782" lon="13.624335581866706"><ele>114.0</ele><time>2026-04-18T14:42:32.998Z</time></trkpt><trkpt lat="42.84427568541298" lon="13.624246175078001"><ele>114.0</ele><time>2026-04-18T14:42:33.999Z</time></trkpt><trkpt lat="42.8441940780239" lon="13.624189288969045"><ele>114.0</ele><time>2026-04-18T14:42:34.999Z</time></trkpt><trkpt lat="42.844110256751065" lon="13.624181758939383"><ele>114.0</ele><time>2026-04-18T14:42:35.999Z</time></trkpt><trkpt lat="42.84402565475462" lon="13.624277994074752"><ele>114.0</ele><time>2026-04-18T14:42:36.999Z</time></trkpt><trkpt lat="42.84399029178276" lon="13.62441768511095"><ele>114.0</ele><time>2026-04-18T14:42:37.999Z</time></trkpt><trkpt lat="42.843959396044006" lon="13.624582077375925"><ele>114.0</ele><time>2026-04-18T14:42:38.999Z</time></trkpt><trkpt lat="42.843958497136235" lon="13.62478206512999"><ele>113.66666666666666</ele><time>2026-04-18T14:42:39.999Z</time></trkpt><trkpt lat="42.84397194449426" lon="13.625025025202401"><ele>113.33333333333333</ele><time>2026-04-18T14:42:40.999Z</time></trkpt><trkpt lat="42.84399691275553" lon="13.625250416205452"><ele>113.0</ele><time>2026-04-18T14:42:41.999Z</time></trkpt><trkpt lat="42.84398925789291" lon="13.625516734870965"><ele>111.66666666666666</ele><time>2026-04-18T14:42:42.999Z</time></trkpt><trkpt lat="42.844005979085864" lon="13.625783073465382"><ele>110.33333333333334</ele><time>2026-04-18T14:42:43.999Z</time></trkpt><trkpt lat="42.8440237049588" lon="13.626054225536093"><ele>109.0</ele><time>2026-04-18T14:42:44.999Z</time></trkpt><trkpt lat="42.8440418433339" lon="13.626318824853952"><ele>109.0</ele><time>2026-04-18T14:42:45.999Z</time></trkpt><trkpt lat="42.844056559785514" lon="13.62658965855093"><ele>109.0</ele><time>2026-04-18T14:42:46.999Z</time></trkpt><trkpt lat="42.84406853140479" lon="13.626857384795022"><ele>109.0</ele><time>2026-04-18T14:42:47.999Z</time></trkpt><trkpt lat="42.84408345850638" lon="13.627117514518218"><ele>109.66666666666667</ele><time>2026-04-18T14:42:48.999Z</time></trkpt><trkpt lat="42.844101647895805" lon="13.627376537848697"><ele>110.33333333333334</ele><time>2026-04-18T14:42:49.999Z</time></trkpt><trkpt lat="42.844118062823824" lon="13.62767148434857"><ele>111.0</ele><time>2026-04-18T14:42:50.999Z</time></trkpt><trkpt lat="42.844137413333215" lon="13.627948460256704"><ele>111.0</ele><time>2026-04-18T14:42:51.999Z</time></trkpt><trkpt lat="42.84416001723573" lon="13.628228167966844"><ele>111.0</ele><time>2026-04-18T14:42:52.999Z</time></trkpt><trkpt lat="42.844186004573565" lon="13.628506177325185"><ele>111.0</ele><time>2026-04-18T14:42:53.999Z</time></trkpt><trkpt lat="42.84421495976916" lon="13.628768528525198"><ele>110.33333333333334</ele><time>2026-04-18T14:42:54.999Z</time></trkpt><trkpt lat="42.84424637911014" lon="13.629011117301516"><ele>109.66666666666667</ele><time>2026-04-18T14:42:55.999Z</time></trkpt><trkpt lat="42.84427783732454" lon="13.62923783314857"><ele>109.0</ele><time>2026-04-18T14:42:56.999Z</time></trkpt><trkpt lat="42.84431255703892" lon="13.629455855242105"><ele>108.75</ele><time>2026-04-18T14:42:57.999Z</time></trkpt><trkpt lat="42.84434914520203" lon="13.629659393393311"><ele>108.5</ele><time>2026-04-18T14:42:58.999Z</time></trkpt><trkpt lat="42.84438297919679" lon="13.629849774835487"><ele>108.25</ele><time>2026-04-18T14:42:59.999Z</time></trkpt><trkpt lat="42.844413807980764" lon="13.630052222952088"><ele>108.0</ele><time>2026-04-18T14:43:00.999Z</time></trkpt><trkpt lat="42.844446439784306" lon="13.630261559286632"><ele>108.0</ele><time>2026-04-18T14:43:01.999Z</time></trkpt><trkpt lat="42.8444827937078" lon="13.630470882993023"><ele>108.0</ele><time>2026-04-18T14:43:02.999Z</time></trkpt><trkpt lat="42.84451744247992" lon="13.630689578945743"><ele>108.0</ele><time>2026-04-18T14:43:03.999Z</time></trkpt><trkpt lat="42.844549587404714" lon="13.630919026800651"><ele>107.66666666666666</ele><time>2026-04-18T14:43:04.999Z</time></trkpt><trkpt lat="42.84458029845947" lon="13.631145192488196"><ele>107.33333333333333</ele><time>2026-04-18T14:43:05.999Z</time></trkpt><trkpt lat="42.84461018549526" lon="13.631372138729187"><ele>107.0</ele><time>2026-04-18T14:43:06.999Z</time></trkpt><trkpt lat="42.844636083115205" lon="13.631596938934747"><ele>107.0</ele><time>2026-04-18T14:43:07.999Z</time></trkpt><trkpt lat="42.844658830077684" lon="13.631817679854752"><ele>107.0</ele><time>2026-04-18T14:43:08.998Z</time></trkpt><trkpt lat="42.84468233171518" lon="13.632037939375076"><ele>107.0</ele><time>2026-04-18T14:43:09.998Z</time></trkpt><trkpt lat="42.84470600389938" lon="13.632261637975613"><ele>106.66666666666666</ele><time>2026-04-18T14:43:10.998Z</time></trkpt><trkpt lat="42.844728136398196" lon="13.632487921994526"><ele>106.33333333333334</ele><time>2026-04-18T14:43:11.998Z</time></trkpt><trkpt lat="42.84474933987114" lon="13.632709701954916"><ele>106.0</ele><time>2026-04-18T14:43:12.998Z</time></trkpt><trkpt lat="42.84477134649002" lon="13.632917650903007"><ele>105.5</ele><time>2026-04-18T14:43:13.998Z</time></trkpt><trkpt lat="42.844777369980164" lon="13.633120973028351"><ele>105.0</ele><time>2026-04-18T14:43:14.998Z</time></trkpt><trkpt lat="42.84475646020084" lon="13.633295366996895"><ele>104.5</ele><time>2026-04-18T14:43:15.998Z</time></trkpt><trkpt lat="42.844713558008635" lon="13.63341727325842"><ele>104.0</ele><time>2026-04-18T14:43:16.998Z</time></trkpt><trkpt lat="42.8446537076743" lon="13.63351229329413"><ele>104.0</ele><time>2026-04-18T14:43:17.998Z</time></trkpt><trkpt lat="42.8445650599363" lon="13.633621891948643"><ele>104.0</ele><time>2026-04-18T14:43:18.998Z</time></trkpt><trkpt lat="42.8444537249314" lon="13.633740986675162"><ele>104.0</ele><time>2026-04-18T14:43:19.998Z</time></trkpt><trkpt lat="42.84434382555664" lon="13.633894943360277"><ele>104.0</ele><time>2026-04-18T14:43:20.998Z</time></trkpt><trkpt lat="42.844248102758" lon="13.634075174049176"><ele>104.75</ele><time>2026-04-18T14:43:21.998Z</time></trkpt><trkpt lat="42.84414086583356" lon="13.634226992917469"><ele>105.5</ele><time>2026-04-18T14:43:22.998Z</time></trkpt><trkpt lat="42.844007792720745" lon="13.634305618481815"><ele>106.25</ele><time>2026-04-18T14:43:23.998Z</time></trkpt><trkpt lat="42.84387371730348" lon="13.634321049824475"><ele>107.0</ele><time>2026-04-18T14:43:24.998Z</time></trkpt><trkpt lat="42.84375760401818" lon="13.63432678357523"><ele>107.0</ele><time>2026-04-18T14:43:25.998Z</time></trkpt><trkpt lat="42.8436233528566" lon="13.634177464414275"><ele>107.0</ele><time>2026-04-18T14:43:26.998Z</time></trkpt><trkpt lat="42.84349325797477" lon="13.634106351505864"><ele>107.0</ele><time>2026-04-18T14:43:27.998Z</time></trkpt><trkpt lat="42.84335115215972" lon="13.634048746903726"><ele>107.0</ele><time>2026-04-18T14:43:28.998Z</time></trkpt><trkpt lat="42.84320738490204" lon="13.633967694104228"><ele>107.0</ele><time>2026-04-18T14:43:29.998Z</time></trkpt><trkpt lat="42.843062346054126" lon="13.633888670624557"><ele>107.0</ele><time>2026-04-18T14:43:30.998Z</time></trkpt><trkpt lat="42.84292101714495" lon="13.633812914705855"><ele>107.0</ele><time>2026-04-18T14:43:31.998Z</time></trkpt><trkpt lat="42.84277172628883" lon="13.633709183100294"><ele>107.0</ele><time>2026-04-18T14:43:32.998Z</time></trkpt><trkpt lat="42.84259890463241" lon="13.633613409298613"><ele>107.0</ele><time>2026-04-18T14:43:33.998Z</time></trkpt><trkpt lat="42.84242547049908" lon="13.63351729601988"><ele>108.33333333333333</ele><time>2026-04-18T14:43:34.998Z</time></trkpt><trkpt lat="42.84224943390348" lon="13.63341983172516"><ele>109.66666666666666</ele><time>2026-04-18T14:43:35.998Z</time></trkpt><trkpt lat="42.84206511705509" lon="13.63331791361698"><ele>111.0</ele><time>2026-04-18T14:43:36.998Z</time></trkpt><trkpt lat="42.841879643594844" lon="13.633214881534508"><ele>112.33333333333334</ele><time>2026-04-18T14:43:37.998Z</time></trkpt><trkpt lat="42.841700893155256" lon="13.633115100024268"><ele>113.66666666666667</ele><time>2026-04-18T14:43:38.998Z</time></trkpt><trkpt lat="42.84152939019701" lon="13.633018647482904"><ele>115.0</ele><time>2026-04-18T14:43:39.998Z</time></trkpt><trkpt lat="42.84136845385004" lon="13.632930074954334"><ele>115.0</ele><time>2026-04-18T14:43:40.998Z</time></trkpt><trkpt lat="42.84121675929101" lon="13.632845281118307"><ele>115.0</ele><time>2026-04-18T14:43:41.998Z</time></trkpt><trkpt lat="42.84107381300134" lon="13.632769456102942"><ele>115.0</ele><time>2026-04-18T14:43:42.998Z</time></trkpt><trkpt lat="42.84093392519996" lon="13.632738247648852"><ele>116.0</ele><time>2026-04-18T14:43:43.998Z</time></trkpt><trkpt lat="42.84080725663276" lon="13.632696690284034"><ele>117.0</ele><time>2026-04-18T14:43:44.998Z</time></trkpt><trkpt lat="42.840674206633736" lon="13.63271596378591"><ele>118.0</ele><time>2026-04-18T14:43:45.998Z</time></trkpt><trkpt lat="42.84054127738063" lon="13.63271212206848"><ele>119.0</ele><time>2026-04-18T14:43:46.998Z</time></trkpt><trkpt lat="42.840418582323" lon="13.632776685176893"><ele>119.25</ele><time>2026-04-18T14:43:47.998Z</time></trkpt><trkpt lat="42.84030136044516" lon="13.63284564326479"><ele>119.5</ele><time>2026-04-18T14:43:48.998Z</time></trkpt><trkpt lat="42.84018495535386" lon="13.632935786207653"><ele>119.75</ele><time>2026-04-18T14:43:49.998Z</time></trkpt><trkpt lat="42.84006345590542" lon="13.63303934539125"><ele>120.0</ele><time>2026-04-18T14:43:50.998Z</time></trkpt><trkpt lat="42.839940842182905" lon="13.633144769201833"><ele>120.33333333333334</ele><time>2026-04-18T14:43:51.998Z</time></trkpt><trkpt lat="42.83981738539534" lon="13.633252395516626"><ele>120.66666666666667</ele><time>2026-04-18T14:43:52.998Z</time></trkpt><trkpt lat="42.839685906224865" lon="13.633369679163959"><ele>121.0</ele><time>2026-04-18T14:43:53.998Z</time></trkpt><trkpt lat="42.8395466521768" lon="13.63349938187022"><ele>121.0</ele><time>2026-04-18T14:43:54.998Z</time></trkpt><trkpt lat="42.83939849632051" lon="13.633633328527248"><ele>121.0</ele><time>2026-04-18T14:43:55.998Z</time></trkpt><trkpt lat="42.83923156383501" lon="13.633776022218047"><ele>121.0</ele><time>2026-04-18T14:43:56.998Z</time></trkpt><trkpt lat="42.83905431665518" lon="13.633927928177712"><ele>123.0</ele><time>2026-04-18T14:43:57.998Z</time></trkpt><trkpt lat="42.83887794479276" lon="13.634078680458186"><ele>125.0</ele><time>2026-04-18T14:43:58.998Z</time></trkpt><trkpt lat="42.83871600357607" lon="13.634216445401835"><ele>127.0</ele><time>2026-04-18T14:43:59.998Z</time></trkpt><trkpt lat="42.83856420526051" lon="13.634345058751286"><ele>127.5</ele><time>2026-04-18T14:44:00.998Z</time></trkpt><trkpt lat="42.83842324006614" lon="13.63445516152529"><ele>128.0</ele><time>2026-04-18T14:44:01.998Z</time></trkpt><trkpt lat="42.8382759789577" lon="13.634493191633142"><ele>128.5</ele><time>2026-04-18T14:44:02.998Z</time></trkpt><trkpt lat="42.83815517321438" lon="13.634473748838325"><ele>129.0</ele><time>2026-04-18T14:44:03.998Z</time></trkpt><trkpt lat="42.8380504694308" lon="13.634407845430681"><ele>130.0</ele><time>2026-04-18T14:44:04.997Z</time></trkpt><trkpt lat="42.837960888564766" lon="13.634298861135527"><ele>131.0</ele><time>2026-04-18T14:44:05.997Z</time></trkpt><trkpt lat="42.83789905090844" lon="13.634159814656556"><ele>132.0</ele><time>2026-04-18T14:44:06.997Z</time></trkpt><trkpt lat="42.83787501373491" lon="13.63399996776172"><ele>133.0</ele><time>2026-04-18T14:44:07.997Z</time></trkpt><trkpt lat="42.8378817746347" lon="13.633835067155239"><ele>133.0</ele><time>2026-04-18T14:44:08.997Z</time></trkpt><trkpt lat="42.83794124368925" lon="13.63368285751259"><ele>133.0</ele><time>2026-04-18T14:44:09.997Z</time></trkpt><trkpt lat="42.83803474402307" lon="13.633560191634356"><ele>133.0</ele><time>2026-04-18T14:44:10.997Z</time></trkpt><trkpt lat="42.8381521493194" lon="13.633483726631729"><ele>133.0</ele><time>2026-04-18T14:44:11.997Z</time></trkpt><trkpt lat="42.83828035068364" lon="13.633468193987149"><ele>133.0</ele><time>2026-04-18T14:44:12.997Z</time></trkpt><trkpt lat="42.83842319037993" lon="13.633525838332341"><ele>133.0</ele><time>2026-04-18T14:44:13.996Z</time></trkpt><trkpt lat="42.83854387132908" lon="13.633631038006119"><ele>133.0</ele><time>2026-04-18T14:44:14.996Z</time></trkpt><trkpt lat="42.83864037988332" lon="13.63378020530817"><ele>133.0</ele><time>2026-04-18T14:44:15.996Z</time></trkpt><trkpt lat="42.83869878580785" lon="13.633970173290312"><ele>131.33333333333334</ele><time>2026-04-18T14:44:16.996Z</time></trkpt><trkpt lat="42.83873957171059" lon="13.63419623668995"><ele>129.66666666666666</ele><time>2026-04-18T14:44:17.996Z</time></trkpt><trkpt lat="42.83880502972766" lon="13.63442131078051"><ele>128.0</ele><time>2026-04-18T14:44:18.996Z</time></trkpt><trkpt lat="42.83887954970298" lon="13.63466550371016"><ele>128.0</ele><time>2026-04-18T14:44:19.996Z</time></trkpt><trkpt lat="42.83895993905226" lon="13.634933419575713"><ele>128.0</ele><time>2026-04-18T14:44:20.997Z</time></trkpt><trkpt lat="42.83904435010694" lon="13.635217223451088"><ele>128.0</ele><time>2026-04-18T14:44:21.997Z</time></trkpt><trkpt lat="42.83913135766144" lon="13.63551602316955"><ele>128.5</ele><time>2026-04-18T14:44:22.997Z</time></trkpt><trkpt lat="42.839219178381924" lon="13.6358209526618"><ele>129.0</ele><time>2026-04-18T14:44:23.997Z</time></trkpt><trkpt lat="42.8393099970903" lon="13.636136237704196"><ele>127.0</ele><time>2026-04-18T14:44:24.997Z</time></trkpt><trkpt lat="42.839401511105706" lon="13.636454289441561"><ele>125.0</ele><time>2026-04-18T14:44:25.997Z</time></trkpt><trkpt lat="42.839492734885965" lon="13.636772142463368"><ele>126.0</ele><time>2026-04-18T14:44:26.997Z</time></trkpt><trkpt lat="42.83958402330603" lon="13.637099066818509"><ele>127.0</ele><time>2026-04-18T14:44:27.998Z</time></trkpt><trkpt lat="42.839671293919174" lon="13.637428832388132"><ele>127.0</ele><time>2026-04-18T14:44:28.998Z</time></trkpt><trkpt lat="42.83975406590037" lon="13.637757489982159"><ele>127.0</ele><time>2026-04-18T14:44:29.998Z</time></trkpt><trkpt lat="42.839829061755694" lon="13.638084403952806"><ele>127.0</ele><time>2026-04-18T14:44:30.998Z</time></trkpt><trkpt lat="42.83989325661566" lon="13.638418534195466"><ele>127.0</ele><time>2026-04-18T14:44:31.998Z</time></trkpt><trkpt lat="42.83994823118409" lon="13.638753131189727"><ele>124.5</ele><time>2026-04-18T14:44:32.998Z</time></trkpt><trkpt lat="42.83999862939451" lon="13.639087482261752"><ele>122.0</ele><time>2026-04-18T14:44:33.998Z</time></trkpt><trkpt lat="42.84004494464997" lon="13.639423108641507"><ele>117.5</ele><time>2026-04-18T14:44:34.998Z</time></trkpt><trkpt lat="42.84008212373303" lon="13.639759906212182"><ele>113.0</ele><time>2026-04-18T14:44:35.998Z</time></trkpt><trkpt lat="42.84010987743625" lon="13.640101626556019"><ele>112.0</ele><time>2026-04-18T14:44:36.998Z</time></trkpt><trkpt lat="42.84013039372786" lon="13.640443953892985"><ele>111.0</ele><time>2026-04-18T14:44:37.998Z</time></trkpt><trkpt lat="42.840144959547935" lon="13.64078276297222"><ele>109.5</ele><time>2026-04-18T14:44:38.998Z</time></trkpt><trkpt lat="42.84015272729621" lon="13.641125962917066"><ele>108.0</ele><time>2026-04-18T14:44:39.998Z</time></trkpt><trkpt lat="42.84015369898445" lon="13.641467146864837"><ele>108.0</ele><time>2026-04-18T14:44:40.998Z</time></trkpt><trkpt lat="42.84014878190083" lon="13.641804936562686"><ele>108.0</ele><time>2026-04-18T14:44:41.998Z</time></trkpt><trkpt lat="42.840141609177564" lon="13.642146518613684"><ele>109.5</ele><time>2026-04-18T14:44:42.998Z</time></trkpt><trkpt lat="42.84013365608974" lon="13.64248635515449"><ele>111.0</ele><time>2026-04-18T14:44:43.998Z</time></trkpt><trkpt lat="42.840123918310816" lon="13.642834754899292"><ele>115.0</ele><time>2026-04-18T14:44:44.998Z</time></trkpt><trkpt lat="42.84011154486137" lon="13.643177727892354"><ele>119.0</ele><time>2026-04-18T14:44:45.998Z</time></trkpt><trkpt lat="42.8401000627235" lon="13.643514339049945"><ele>120.5</ele><time>2026-04-18T14:44:46.998Z</time></trkpt><trkpt lat="42.840088709044934" lon="13.643854369714582"><ele>122.0</ele><time>2026-04-18T14:44:47.998Z</time></trkpt><trkpt lat="42.84007649430752" lon="13.644191379672774"><ele>123.0</ele><time>2026-04-18T14:44:48.998Z</time></trkpt><trkpt lat="42.84006634984687" lon="13.644528044058005"><ele>124.0</ele><time>2026-04-18T14:44:49.998Z</time></trkpt><trkpt lat="42.84005752654348" lon="13.64486685862569"><ele>124.0</ele><time>2026-04-18T14:44:50.998Z</time></trkpt><trkpt lat="42.84004677318502" lon="13.645204259863622"><ele>124.0</ele><time>2026-04-18T14:44:51.998Z</time></trkpt><trkpt lat="42.840036646069095" lon="13.645522596549734"><ele>123.0</ele><time>2026-04-18T14:44:52.998Z</time></trkpt><trkpt lat="42.84002654788601" lon="13.645822831126589"><ele>122.0</ele><time>2026-04-18T14:44:53.998Z</time></trkpt><trkpt lat="42.84001561355294" lon="13.64611219368378"><ele>121.0</ele><time>2026-04-18T14:44:54.998Z</time></trkpt><trkpt lat="42.840005841348805" lon="13.646388471118424"><ele>121.0</ele><time>2026-04-18T14:44:55.998Z</time></trkpt><trkpt lat="42.83999571283096" lon="13.646663356706725"><ele>121.0</ele><time>2026-04-18T14:44:56.998Z</time></trkpt><trkpt lat="42.839986939380324" lon="13.6469496681719"><ele>121.0</ele><time>2026-04-18T14:44:57.998Z</time></trkpt><trkpt lat="42.839979783460116" lon="13.647239760800701"><ele>121.0</ele><time>2026-04-18T14:44:58.998Z</time></trkpt><trkpt lat="42.83997142377514" lon="13.647537342884586"><ele>121.0</ele><time>2026-04-18T14:44:59.998Z</time></trkpt><trkpt lat="42.83995941496229" lon="13.647840040603276"><ele>121.0</ele><time>2026-04-18T14:45:00.998Z</time></trkpt><trkpt lat="42.83994764531199" lon="13.648152629281276"><ele>118.5</ele><time>2026-04-18T14:45:01.998Z</time></trkpt><trkpt lat="42.839936485268275" lon="13.64846550383731"><ele>116.0</ele><time>2026-04-18T14:45:02.998Z</time></trkpt><trkpt lat="42.83992720156327" lon="13.648780179660845"><ele>115.0</ele><time>2026-04-18T14:45:03.998Z</time></trkpt><trkpt lat="42.839917486425364" lon="13.64909422327984"><ele>114.0</ele><time>2026-04-18T14:45:04.998Z</time></trkpt><trkpt lat="42.839908389116744" lon="13.649402439663788"><ele>113.33333333333334</ele><time>2026-04-18T14:45:05.998Z</time></trkpt><trkpt lat="42.83990062027787" lon="13.649699577336069"><ele>112.66666666666667</ele><time>2026-04-18T14:45:06.998Z</time></trkpt><trkpt lat="42.839894558286595" lon="13.649985103757167"><ele>112.0</ele><time>2026-04-18T14:45:07.998Z</time></trkpt><trkpt lat="42.839886255361634" lon="13.650267042828574"><ele>112.66666666666667</ele><time>2026-04-18T14:45:08.998Z</time></trkpt><trkpt lat="42.8398797394566" lon="13.650545279795566"><ele>113.33333333333334</ele><time>2026-04-18T14:45:09.998Z</time></trkpt><trkpt lat="42.839864789928946" lon="13.650839115084368"><ele>114.0</ele><time>2026-04-18T14:45:10.998Z</time></trkpt><trkpt lat="42.83985402507325" lon="13.651120576017375"><ele>113.33333333333334</ele><time>2026-04-18T14:45:11.998Z</time></trkpt><trkpt lat="42.839845909907744" lon="13.651398842367804"><ele>112.66666666666667</ele><time>2026-04-18T14:45:12.998Z</time></trkpt><trkpt lat="42.83983621771972" lon="13.65168098675907"><ele>112.0</ele><time>2026-04-18T14:45:13.998Z</time></trkpt><trkpt lat="42.83982827361753" lon="13.651975933736129"><ele>110.0</ele><time>2026-04-18T14:45:14.998Z</time></trkpt><trkpt lat="42.83982625826574" lon="13.652274800042008"><ele>108.0</ele><time>2026-04-18T14:45:15.998Z</time></trkpt><trkpt lat="42.83983659028952" lon="13.652597021750099"><ele>108.5</ele><time>2026-04-18T14:45:16.998Z</time></trkpt><trkpt lat="42.83984549942033" lon="13.652931363284738"><ele>109.0</ele><time>2026-04-18T14:45:17.998Z</time></trkpt><trkpt lat="42.839855185582174" lon="13.653275765320648"><ele>111.0</ele><time>2026-04-18T14:45:18.998Z</time></trkpt><trkpt lat="42.83986799988138" lon="13.653626962192257"><ele>113.0</ele><time>2026-04-18T14:45:19.998Z</time></trkpt><trkpt lat="42.83988093531591" lon="13.653977666095097"><ele>113.0</ele><time>2026-04-18T14:45:20.998Z</time></trkpt><trkpt lat="42.83989904238285" lon="13.654333674061252"><ele>113.0</ele><time>2026-04-18T14:45:21.998Z</time></trkpt><trkpt lat="42.839923506161426" lon="13.654693015971391"><ele>112.5</ele><time>2026-04-18T14:45:22.998Z</time></trkpt><trkpt lat="42.8399559023154" lon="13.65505267956517"><ele>112.0</ele><time>2026-04-18T14:45:23.998Z</time></trkpt><trkpt lat="42.839995258954474" lon="13.655413964354814"><ele>113.5</ele><time>2026-04-18T14:45:24.998Z</time></trkpt><trkpt lat="42.84004437752041" lon="13.655765784198984"><ele>115.0</ele><time>2026-04-18T14:45:25.998Z</time></trkpt><trkpt lat="42.84009959313296" lon="13.656117987363004"><ele>111.5</ele><time>2026-04-18T14:45:26.998Z</time></trkpt><trkpt lat="42.84016007275587" lon="13.656473642294054"><ele>108.0</ele><time>2026-04-18T14:45:27.998Z</time></trkpt><trkpt lat="42.84022538758085" lon="13.656823919944753"><ele>107.5</ele><time>2026-04-18T14:45:28.998Z</time></trkpt><trkpt lat="42.84029759439659" lon="13.657172402632115"><ele>107.0</ele><time>2026-04-18T14:45:29.998Z</time></trkpt><trkpt lat="42.84037559736546" lon="13.657522791371536"><ele>107.0</ele><time>2026-04-18T14:45:30.998Z</time></trkpt><trkpt lat="42.84046147596348" lon="13.657868787728187"><ele>107.0</ele><time>2026-04-18T14:45:31.998Z</time></trkpt><trkpt lat="42.84055425424122" lon="13.658214815697654"><ele>107.0</ele><time>2026-04-18T14:45:32.998Z</time></trkpt><trkpt lat="42.84065056757252" lon="13.65855272369585"><ele>107.0</ele><time>2026-04-18T14:45:33.998Z</time></trkpt><trkpt lat="42.84075089589086" lon="13.65888784867115"><ele>109.0</ele><time>2026-04-18T14:45:34.998Z</time></trkpt><trkpt lat="42.84085471466906" lon="13.659225585376817"><ele>111.0</ele><time>2026-04-18T14:45:35.998Z</time></trkpt><trkpt lat="42.84096331461406" lon="13.659561745271835"><ele>110.0</ele><time>2026-04-18T14:45:36.998Z</time></trkpt><trkpt lat="42.84107578065735" lon="13.659898463036498"><ele>109.0</ele><time>2026-04-18T14:45:37.998Z</time></trkpt><trkpt lat="42.84118865036571" lon="13.660236535105488"><ele>110.5</ele><time>2026-04-18T14:45:38.998Z</time></trkpt><trkpt lat="42.84130241100704" lon="13.660580395427186"><ele>112.0</ele><time>2026-04-18T14:45:39.998Z</time></trkpt><trkpt lat="42.8414146628719" lon="13.660916141362575"><ele>112.0</ele><time>2026-04-18T14:45:40.998Z</time></trkpt><trkpt lat="42.84152780405206" lon="13.661258278066656"><ele>112.0</ele><time>2026-04-18T14:45:41.998Z</time></trkpt><trkpt lat="42.841641072008684" lon="13.661602081060979"><ele>112.0</ele><time>2026-04-18T14:45:42.998Z</time></trkpt><trkpt lat="42.841752980742235" lon="13.66193895691559"><ele>112.0</ele><time>2026-04-18T14:45:43.998Z</time></trkpt><trkpt lat="42.84186520991531" lon="13.662281547767428"><ele>106.0</ele><time>2026-04-18T14:45:44.998Z</time></trkpt><trkpt lat="42.84197424872839" lon="13.662624741880627"><ele>100.0</ele><time>2026-04-18T14:45:45.998Z</time></trkpt><trkpt lat="42.84208090308368" lon="13.662971153071355"><ele>100.0</ele><time>2026-04-18T14:45:46.998Z</time></trkpt><trkpt lat="42.842187559887584" lon="13.663315871296126"><ele>100.0</ele><time>2026-04-18T14:45:47.998Z</time></trkpt><trkpt lat="42.84230034515618" lon="13.663669705801516"><ele>101.0</ele><time>2026-04-18T14:45:48.998Z</time></trkpt><trkpt lat="42.842414297400474" lon="13.664009192767406"><ele>102.0</ele><time>2026-04-18T14:45:49.998Z</time></trkpt><trkpt lat="42.84252894180256" lon="13.664353830836383"><ele>99.5</ele><time>2026-04-18T14:45:50.998Z</time></trkpt><trkpt lat="42.84264459482288" lon="13.664701759614857"><ele>97.0</ele><time>2026-04-18T14:45:51.998Z</time></trkpt><trkpt lat="42.842757410708685" lon="13.665044842675986"><ele>97.0</ele><time>2026-04-18T14:45:52.998Z</time></trkpt><trkpt lat="42.84287160712417" lon="13.6653885573722"><ele>97.0</ele><time>2026-04-18T14:45:53.998Z</time></trkpt><trkpt lat="42.84298777825519" lon="13.66572450755438"><ele>97.0</ele><time>2026-04-18T14:45:54.998Z</time></trkpt><trkpt lat="42.84309336426949" lon="13.66609004245663"><ele>97.0</ele><time>2026-04-18T14:45:55.997Z</time></trkpt><trkpt lat="42.843201500832144" lon="13.66643580985219"><ele>97.0</ele><time>2026-04-18T14:45:56.997Z</time></trkpt><trkpt lat="42.84330529561671" lon="13.666788494831657"><ele>97.0</ele><time>2026-04-18T14:45:57.997Z</time></trkpt><trkpt lat="42.84340265348128" lon="13.667142996609906"><ele>95.0</ele><time>2026-04-18T14:45:58.997Z</time></trkpt><trkpt lat="42.843492638139764" lon="13.667499963665872"><ele>93.0</ele><time>2026-04-18T14:45:59.997Z</time></trkpt><trkpt lat="42.84357420171576" lon="13.667861704880018"><ele>93.0</ele><time>2026-04-18T14:46:00.997Z</time></trkpt><trkpt lat="42.843644952111255" lon="13.668223980732364"><ele>93.0</ele><time>2026-04-18T14:46:01.997Z</time></trkpt><trkpt lat="42.84370478506187" lon="13.668590321515147"><ele>94.5</ele><time>2026-04-18T14:46:02.997Z</time></trkpt><trkpt lat="42.843753990924576" lon="13.66895573443649"><ele>96.0</ele><time>2026-04-18T14:46:03.997Z</time></trkpt><trkpt lat="42.84379754981374" lon="13.669323336623806"><ele>98.5</ele><time>2026-04-18T14:46:04.997Z</time></trkpt><trkpt lat="42.843832942726316" lon="13.669689811889121"><ele>101.0</ele><time>2026-04-18T14:46:05.997Z</time></trkpt><trkpt lat="42.8438591263394" lon="13.670059906338233"><ele>100.5</ele><time>2026-04-18T14:46:06.997Z</time></trkpt><trkpt lat="42.84388210758104" lon="13.670424751934108"><ele>100.0</ele><time>2026-04-18T14:46:07.997Z</time></trkpt><trkpt lat="42.84389637150326" lon="13.670797887539115"><ele>98.5</ele><time>2026-04-18T14:46:08.997Z</time></trkpt><trkpt lat="42.84390156880156" lon="13.671165297417915"><ele>97.0</ele><time>2026-04-18T14:46:09.997Z</time></trkpt><trkpt lat="42.843900393802095" lon="13.671527878965781"><ele>97.0</ele><time>2026-04-18T14:46:10.997Z</time></trkpt><trkpt lat="42.843890936755976" lon="13.671890186420903"><ele>97.0</ele><time>2026-04-18T14:46:11.997Z</time></trkpt><trkpt lat="42.8438699236954" lon="13.67225553621002"><ele>94.0</ele><time>2026-04-18T14:46:12.997Z</time></trkpt><trkpt lat="42.843843712792385" lon="13.672617187853673"><ele>91.0</ele><time>2026-04-18T14:46:13.997Z</time></trkpt><trkpt lat="42.843807289069325" lon="13.672985109015967"><ele>87.5</ele><time>2026-04-18T14:46:14.997Z</time></trkpt><trkpt lat="42.84377011905729" lon="13.673354040372248"><ele>84.0</ele><time>2026-04-18T14:46:15.997Z</time></trkpt><trkpt lat="42.843730615687306" lon="13.673715115807095"><ele>83.0</ele><time>2026-04-18T14:46:16.997Z</time></trkpt><trkpt lat="42.843693849897214" lon="13.674084572475165"><ele>82.0</ele><time>2026-04-18T14:46:17.997Z</time></trkpt><trkpt lat="42.8436545125177" lon="13.674447725950921"><ele>82.0</ele><time>2026-04-18T14:46:18.997Z</time></trkpt><trkpt lat="42.84361905013979" lon="13.674815029636168"><ele>82.0</ele><time>2026-04-18T14:46:19.997Z</time></trkpt><trkpt lat="42.84358644354407" lon="13.675183655796152"><ele>81.5</ele><time>2026-04-18T14:46:20.997Z</time></trkpt><trkpt lat="42.84355682017146" lon="13.67554990939276"><ele>81.0</ele><time>2026-04-18T14:46:21.997Z</time></trkpt><trkpt lat="42.84352670543279" lon="13.675925854877262"><ele>78.5</ele><time>2026-04-18T14:46:22.997Z</time></trkpt><trkpt lat="42.84350078465951" lon="13.676306210608221"><ele>76.0</ele><time>2026-04-18T14:46:23.997Z</time></trkpt><trkpt lat="42.84346206303223" lon="13.676657983101151"><ele>88.0</ele><time>2026-04-18T14:46:24.997Z</time></trkpt><trkpt lat="42.843430838316564" lon="13.67702743203123"><ele>100.0</ele><time>2026-04-18T14:46:25.997Z</time></trkpt><trkpt lat="42.84340192786773" lon="13.677392753258111"><ele>100.0</ele><time>2026-04-18T14:46:26.999Z</time></trkpt><trkpt lat="42.84338474828142" lon="13.677759924447384"><ele>100.0</ele><time>2026-04-18T14:46:27.999Z</time></trkpt><trkpt lat="42.84336950443184" lon="13.678130000160719"><ele>97.5</ele><time>2026-04-18T14:46:28.999Z</time></trkpt><trkpt lat="42.84335863163883" lon="13.678496153025254"><ele>95.0</ele><time>2026-04-18T14:46:29.999Z</time></trkpt><trkpt lat="42.84334933508871" lon="13.678866032225848"><ele>94.5</ele><time>2026-04-18T14:46:30.999Z</time></trkpt><trkpt lat="42.84334593752024" lon="13.679231801136543"><ele>94.0</ele><time>2026-04-18T14:46:31.999Z</time></trkpt><trkpt lat="42.843344071313254" lon="13.67960160912461"><ele>93.0</ele><time>2026-04-18T14:46:32.999Z</time></trkpt><trkpt lat="42.843342283521174" lon="13.67996970801526"><ele>92.0</ele><time>2026-04-18T14:46:33.999Z</time></trkpt><trkpt lat="42.84334634369883" lon="13.680332605946639"><ele>90.0</ele><time>2026-04-18T14:46:34.999Z</time></trkpt><trkpt lat="42.843356151975165" lon="13.680696543598533"><ele>88.0</ele><time>2026-04-18T14:46:35.999Z</time></trkpt><trkpt lat="42.843369771432236" lon="13.68106130511593"><ele>87.0</ele><time>2026-04-18T14:46:36.999Z</time></trkpt><trkpt lat="42.84338641890974" lon="13.681420290288749"><ele>86.0</ele><time>2026-04-18T14:46:37.999Z</time></trkpt><trkpt lat="42.84340589163143" lon="13.681781587276408"><ele>86.0</ele><time>2026-04-18T14:46:38.999Z</time></trkpt><trkpt lat="42.84342659896883" lon="13.68213685258051"><ele>86.0</ele><time>2026-04-18T14:46:39.999Z</time></trkpt><trkpt lat="42.843451533837225" lon="13.682493710874162"><ele>80.0</ele><time>2026-04-18T14:46:40.999Z</time></trkpt><trkpt lat="42.84347999630532" lon="13.682854975657344"><ele>74.0</ele><time>2026-04-18T14:46:41.999Z</time></trkpt><trkpt lat="42.84351026388211" lon="13.683209190773976"><ele>74.0</ele><time>2026-04-18T14:46:42.999Z</time></trkpt><trkpt lat="42.84354322357107" lon="13.683561556120765"><ele>74.0</ele><time>2026-04-18T14:46:43.999Z</time></trkpt><trkpt lat="42.84358584493221" lon="13.683919304614689"><ele>79.0</ele><time>2026-04-18T14:46:44.999Z</time></trkpt><trkpt lat="42.84362622205274" lon="13.684278113947038"><ele>84.0</ele><time>2026-04-18T14:46:45.999Z</time></trkpt><trkpt lat="42.84367096395658" lon="13.684634085609257"><ele>88.5</ele><time>2026-04-18T14:46:46.999Z</time></trkpt><trkpt lat="42.84372041153615" lon="13.6849909341358"><ele>93.0</ele><time>2026-04-18T14:46:47.999Z</time></trkpt><trkpt lat="42.84377446687201" lon="13.685351559167563"><ele>94.5</ele><time>2026-04-18T14:46:48.999Z</time></trkpt><trkpt lat="42.84383436485706" lon="13.685711543998059"><ele>96.0</ele><time>2026-04-18T14:46:49.999Z</time></trkpt><trkpt lat="42.8438973840134" lon="13.686073055643146"><ele>94.5</ele><time>2026-04-18T14:46:50.999Z</time></trkpt><trkpt lat="42.84395988881851" lon="13.686434375174217"><ele>93.0</ele><time>2026-04-18T14:46:51.999Z</time></trkpt><trkpt lat="42.84402411434146" lon="13.686798148016157"><ele>93.0</ele><time>2026-04-18T14:46:52.999Z</time></trkpt><trkpt lat="42.8440901551318" lon="13.687156931298752"><ele>93.0</ele><time>2026-04-18T14:46:53.999Z</time></trkpt><trkpt lat="42.84416280794682" lon="13.687525305452032"><ele>94.0</ele><time>2026-04-18T14:46:54.999Z</time></trkpt><trkpt lat="42.8442363186407" lon="13.687887302054452"><ele>95.0</ele><time>2026-04-18T14:46:55.999Z</time></trkpt><trkpt lat="42.84430682317095" lon="13.688245126955485"><ele>93.5</ele><time>2026-04-18T14:46:56.999Z</time></trkpt><trkpt lat="42.84437707275323" lon="13.688610413735903"><ele>92.0</ele><time>2026-04-18T14:46:57.999Z</time></trkpt><trkpt lat="42.844443732594556" lon="13.688971506572768"><ele>92.0</ele><time>2026-04-18T14:46:58.999Z</time></trkpt><trkpt lat="42.84451474449013" lon="13.689338034491586"><ele>92.0</ele><time>2026-04-18T14:46:59.999Z</time></trkpt><trkpt lat="42.84458490160903" lon="13.689699233881965"><ele>91.0</ele><time>2026-04-18T14:47:00.999Z</time></trkpt><trkpt lat="42.84465611780736" lon="13.690062400741787"><ele>90.0</ele><time>2026-04-18T14:47:01.999Z</time></trkpt><trkpt lat="42.84472577754478" lon="13.69042219640994"><ele>89.0</ele><time>2026-04-18T14:47:02.999Z</time></trkpt><trkpt lat="42.84479669582533" lon="13.69078470461579"><ele>88.0</ele><time>2026-04-18T14:47:03.999Z</time></trkpt><trkpt lat="42.84486809566594" lon="13.691149440461682"><ele>88.0</ele><time>2026-04-18T14:47:04.999Z</time></trkpt><trkpt lat="42.84493624184244" lon="13.691511171769879"><ele>88.0</ele><time>2026-04-18T14:47:05.999Z</time></trkpt><trkpt lat="42.84500606032993" lon="13.691874975250832"><ele>88.0</ele><time>2026-04-18T14:47:06.999Z</time></trkpt><trkpt lat="42.845077502175776" lon="13.692240102687606"><ele>88.0</ele><time>2026-04-18T14:47:07.999Z</time></trkpt><trkpt lat="42.8451455836587" lon="13.69259901707222"><ele>82.0</ele><time>2026-04-18T14:47:08.999Z</time></trkpt><trkpt lat="42.84522184694594" lon="13.692965875172549"><ele>76.0</ele><time>2026-04-18T14:47:09.999Z</time></trkpt><trkpt lat="42.84529425543649" lon="13.693326261583064"><ele>79.0</ele><time>2026-04-18T14:47:10.999Z</time></trkpt><trkpt lat="42.84536444330144" lon="13.693687937418375"><ele>82.0</ele><time>2026-04-18T14:47:11.999Z</time></trkpt><trkpt lat="42.845431954092405" lon="13.694046953336423"><ele>82.0</ele><time>2026-04-18T14:47:12.999Z</time></trkpt><trkpt lat="42.84550045575663" lon="13.69440619006024"><ele>82.0</ele><time>2026-04-18T14:47:13.999Z</time></trkpt><trkpt lat="42.84556318328617" lon="13.694764162385939"><ele>83.5</ele><time>2026-04-18T14:47:14.999Z</time></trkpt><trkpt lat="42.84561754586787" lon="13.695118048387002"><ele>85.0</ele><time>2026-04-18T14:47:15.999Z</time></trkpt><trkpt lat="42.84566269101855" lon="13.695471692206244"><ele>85.0</ele><time>2026-04-18T14:47:16.999Z</time></trkpt><trkpt lat="42.845694499275034" lon="13.695824356255764"><ele>85.0</ele><time>2026-04-18T14:47:17.999Z</time></trkpt><trkpt lat="42.845715157967575" lon="13.69617480734576"><ele>86.0</ele><time>2026-04-18T14:47:18.999Z</time></trkpt><trkpt lat="42.845731890730164" lon="13.696525763067916"><ele>87.0</ele><time>2026-04-18T14:47:19.999Z</time></trkpt><trkpt lat="42.84574793175216" lon="13.696876426531576"><ele>86.5</ele><time>2026-04-18T14:47:20.999Z</time></trkpt><trkpt lat="42.845759902173846" lon="13.697224916537547"><ele>86.0</ele><time>2026-04-18T14:47:21.999Z</time></trkpt><trkpt lat="42.84575759797862" lon="13.697571608111497"><ele>86.0</ele><time>2026-04-18T14:47:22.999Z</time></trkpt><trkpt lat="42.84575422476351" lon="13.697914619243507"><ele>86.0</ele><time>2026-04-18T14:47:23.999Z</time></trkpt><trkpt lat="42.84575178818138" lon="13.698257319395324"><ele>86.0</ele><time>2026-04-18T14:47:24.999Z</time></trkpt><trkpt lat="42.84576797236656" lon="13.698612605147186"><ele>86.0</ele><time>2026-04-18T14:47:25.999Z</time></trkpt><trkpt lat="42.84576989575869" lon="13.698956520562861"><ele>86.0</ele><time>2026-04-18T14:47:26.999Z</time></trkpt><trkpt lat="42.84577949806534" lon="13.699302631833683"><ele>86.0</ele><time>2026-04-18T14:47:27.999Z</time></trkpt><trkpt lat="42.84578305250215" lon="13.699646562600456"><ele>86.0</ele><time>2026-04-18T14:47:28.999Z</time></trkpt><trkpt lat="42.845785771700555" lon="13.699988558294615"><ele>86.0</ele><time>2026-04-18T14:47:29.999Z</time></trkpt><trkpt lat="42.84579149467014" lon="13.700333151772664"><ele>86.5</ele><time>2026-04-18T14:47:30.999Z</time></trkpt><trkpt lat="42.845791805542845" lon="13.700678093480777"><ele>87.0</ele><time>2026-04-18T14:47:31.999Z</time></trkpt><trkpt lat="42.84579600825043" lon="13.70101986571072"><ele>86.5</ele><time>2026-04-18T14:47:32.999Z</time></trkpt><trkpt lat="42.84579723928166" lon="13.70136506952636"><ele>86.0</ele><time>2026-04-18T14:47:33.999Z</time></trkpt><trkpt lat="42.84580201143477" lon="13.701706450317882"><ele>85.0</ele><time>2026-04-18T14:47:34.999Z</time></trkpt><trkpt lat="42.845804917751266" lon="13.702045733995512"><ele>84.0</ele><time>2026-04-18T14:47:35.999Z</time></trkpt><trkpt lat="42.84580760223939" lon="13.702385341465293"><ele>84.0</ele><time>2026-04-18T14:47:36.999Z</time></trkpt><trkpt lat="42.84581951277338" lon="13.702722953969513"><ele>84.0</ele><time>2026-04-18T14:47:37.999Z</time></trkpt><trkpt lat="42.84583498781527" lon="13.703061879835253"><ele>84.0</ele><time>2026-04-18T14:47:38.999Z</time></trkpt><trkpt lat="42.845845843122355" lon="13.703403049283873"><ele>84.0</ele><time>2026-04-18T14:47:39.999Z</time></trkpt><trkpt lat="42.84585288164009" lon="13.703741314745328"><ele>83.5</ele><time>2026-04-18T14:47:40.999Z</time></trkpt><trkpt lat="42.8458553005946" lon="13.704085623179473"><ele>83.0</ele><time>2026-04-18T14:47:41.999Z</time></trkpt><trkpt lat="42.84585885615192" lon="13.704426415426164"><ele>81.0</ele><time>2026-04-18T14:47:42.999Z</time></trkpt><trkpt lat="42.84585991715957" lon="13.704771230576299"><ele>79.0</ele><time>2026-04-18T14:47:43.999Z</time></trkpt><trkpt lat="42.84585604814816" lon="13.70511840499114"><ele>76.0</ele><time>2026-04-18T14:47:44.999Z</time></trkpt><trkpt lat="42.845851049993065" lon="13.705466883276367"><ele>73.0</ele><time>2026-04-18T14:47:45.999Z</time></trkpt><trkpt lat="42.84585230466266" lon="13.705814276614031"><ele>74.5</ele><time>2026-04-18T14:47:46.999Z</time></trkpt><trkpt lat="42.84585716404014" lon="13.706159596563111"><ele>76.0</ele><time>2026-04-18T14:47:47.999Z</time></trkpt><trkpt lat="42.84586298105632" lon="13.706514179826113"><ele>76.0</ele><time>2026-04-18T14:47:48.999Z</time></trkpt><trkpt lat="42.84586883105814" lon="13.706863321197437"><ele>76.0</ele><time>2026-04-18T14:47:49.999Z</time></trkpt><trkpt lat="42.84586849870323" lon="13.707217133783882"><ele>79.5</ele><time>2026-04-18T14:47:50.999Z</time></trkpt><trkpt lat="42.845866190242255" lon="13.707566249862344"><ele>83.0</ele><time>2026-04-18T14:47:51.999Z</time></trkpt><trkpt lat="42.84587114148867" lon="13.707919432579615"><ele>83.5</ele><time>2026-04-18T14:47:52.999Z</time></trkpt><trkpt lat="42.84587740217891" lon="13.708273091494574"><ele>84.0</ele><time>2026-04-18T14:47:53.999Z</time></trkpt><trkpt lat="42.84588183544526" lon="13.708628109571121"><ele>84.5</ele><time>2026-04-18T14:47:54.999Z</time></trkpt><trkpt lat="42.84588739672406" lon="13.708978723641662"><ele>85.0</ele><time>2026-04-18T14:47:55.999Z</time></trkpt><trkpt lat="42.84590080930367" lon="13.709328784336448"><ele>86.0</ele><time>2026-04-18T14:47:56.999Z</time></trkpt><trkpt lat="42.845934447714065" lon="13.709673737841348"><ele>87.0</ele><time>2026-04-18T14:47:57.999Z</time></trkpt><trkpt lat="42.84597349567571" lon="13.710012747320954"><ele>85.0</ele><time>2026-04-18T14:47:58.998Z</time></trkpt><trkpt lat="42.84600978908101" lon="13.7103570982303"><ele>83.0</ele><time>2026-04-18T14:47:59.998Z</time></trkpt><trkpt lat="42.84605697073605" lon="13.710694533438854"><ele>83.0</ele><time>2026-04-18T14:48:00.998Z</time></trkpt><trkpt lat="42.84611329901671" lon="13.71103188052346"><ele>83.0</ele><time>2026-04-18T14:48:01.998Z</time></trkpt><trkpt lat="42.84617609543652" lon="13.711363389888804"><ele>83.0</ele><time>2026-04-18T14:48:02.998Z</time></trkpt><trkpt lat="42.846243458474675" lon="13.711690108303225"><ele>83.0</ele><time>2026-04-18T14:48:03.998Z</time></trkpt><trkpt lat="42.846313750352785" lon="13.712021410713394"><ele>82.0</ele><time>2026-04-18T14:48:04.998Z</time></trkpt><trkpt lat="42.84638884460047" lon="13.712346331846756"><ele>81.0</ele><time>2026-04-18T14:48:05.998Z</time></trkpt><trkpt lat="42.84646601889969" lon="13.71266629310137"><ele>80.0</ele><time>2026-04-18T14:48:06.998Z</time></trkpt><trkpt lat="42.84654700507759" lon="13.712987723550322"><ele>79.0</ele><time>2026-04-18T14:48:07.998Z</time></trkpt><trkpt lat="42.84662991574986" lon="13.713312055942021"><ele>79.0</ele><time>2026-04-18T14:48:08.998Z</time></trkpt><trkpt lat="42.84670751400971" lon="13.713634510012076"><ele>79.0</ele><time>2026-04-18T14:48:09.998Z</time></trkpt><trkpt lat="42.84678164203632" lon="13.713959159412772"><ele>78.5</ele><time>2026-04-18T14:48:10.998Z</time></trkpt><trkpt lat="42.84685555115861" lon="13.714287970186303"><ele>78.0</ele><time>2026-04-18T14:48:11.998Z</time></trkpt><trkpt lat="42.84693174839588" lon="13.714614075825043"><ele>78.0</ele><time>2026-04-18T14:48:12.998Z</time></trkpt><trkpt lat="42.84701747756856" lon="13.714936652340594"><ele>78.0</ele><time>2026-04-18T14:48:13.998Z</time></trkpt><trkpt lat="42.84710038610295" lon="13.715264597903953"><ele>76.0</ele><time>2026-04-18T14:48:14.998Z</time></trkpt><trkpt lat="42.847183249126196" lon="13.715595172775396"><ele>74.0</ele><time>2026-04-18T14:48:15.998Z</time></trkpt><trkpt lat="42.847260696478884" lon="13.715922800924478"><ele>73.5</ele><time>2026-04-18T14:48:16.998Z</time></trkpt><trkpt lat="42.84733813749151" lon="13.716252734722818"><ele>73.0</ele><time>2026-04-18T14:48:17.998Z</time></trkpt><trkpt lat="42.84741788433085" lon="13.716582138554125"><ele>71.0</ele><time>2026-04-18T14:48:18.998Z</time></trkpt><trkpt lat="42.847496567929745" lon="13.716912382705182"><ele>69.0</ele><time>2026-04-18T14:48:19.998Z</time></trkpt><trkpt lat="42.8475745109985" lon="13.717244144260615"><ele>63.0</ele><time>2026-04-18T14:48:20.998Z</time></trkpt><trkpt lat="42.84765471839401" lon="13.717573718941706"><ele>57.0</ele><time>2026-04-18T14:48:21.998Z</time></trkpt><trkpt lat="42.84773481536943" lon="13.717907986614733"><ele>57.0</ele><time>2026-04-18T14:48:22.998Z</time></trkpt><trkpt lat="42.8478136511632" lon="13.718242484333825"><ele>57.0</ele><time>2026-04-18T14:48:23.998Z</time></trkpt><trkpt lat="42.847896984542345" lon="13.718579782740818"><ele>56.5</ele><time>2026-04-18T14:48:24.998Z</time></trkpt><trkpt lat="42.847979785195655" lon="13.718920551534923"><ele>56.0</ele><time>2026-04-18T14:48:25.998Z</time></trkpt><trkpt lat="42.848060429970914" lon="13.719261310933165"><ele>57.0</ele><time>2026-04-18T14:48:26.998Z</time></trkpt><trkpt lat="42.848139360635116" lon="13.719600605373527"><ele>58.0</ele><time>2026-04-18T14:48:27.998Z</time></trkpt><trkpt lat="42.84822044717392" lon="13.71994275957018"><ele>56.5</ele><time>2026-04-18T14:48:28.998Z</time></trkpt><trkpt lat="42.84829931409866" lon="13.720282164987381"><ele>55.0</ele><time>2026-04-18T14:48:29.998Z</time></trkpt><trkpt lat="42.84837882907636" lon="13.720617363489321"><ele>55.0</ele><time>2026-04-18T14:48:30.998Z</time></trkpt><trkpt lat="42.848457798526255" lon="13.720950792969523"><ele>55.0</ele><time>2026-04-18T14:48:31.998Z</time></trkpt><trkpt lat="42.84853642339632" lon="13.7212818098359"><ele>54.0</ele><time>2026-04-18T14:48:33Z</time></trkpt><trkpt lat="42.848618632880566" lon="13.721613510117967"><ele>53.0</ele><time>2026-04-18T14:48:34Z</time></trkpt><trkpt lat="42.84870124589517" lon="13.721939712957383"><ele>52.5</ele><time>2026-04-18T14:48:35Z</time></trkpt><trkpt lat="42.84878407067328" lon="13.72227056509737"><ele>52.0</ele><time>2026-04-18T14:48:36Z</time></trkpt><trkpt lat="42.848861494289956" lon="13.722596443331028"><ele>52.0</ele><time>2026-04-18T14:48:37Z</time></trkpt><trkpt lat="42.848937468749845" lon="13.7229253625202"><ele>52.0</ele><time>2026-04-18T14:48:38Z</time></trkpt><trkpt lat="42.84901112890205" lon="13.723255875605256"><ele>52.0</ele><time>2026-04-18T14:48:39Z</time></trkpt><trkpt lat="42.84909156484777" lon="13.723585244687943"><ele>52.0</ele><time>2026-04-18T14:48:40Z</time></trkpt><trkpt lat="42.849169942639875" lon="13.723915613151746"><ele>52.0</ele><time>2026-04-18T14:48:41Z</time></trkpt><trkpt lat="42.849251201774635" lon="13.72424493648552"><ele>52.0</ele><time>2026-04-18T14:48:42Z</time></trkpt><trkpt lat="42.8493351732786" lon="13.724576828598373"><ele>52.0</ele><time>2026-04-18T14:48:43Z</time></trkpt><trkpt lat="42.849414410831514" lon="13.724908367018518"><ele>52.0</ele><time>2026-04-18T14:48:44Z</time></trkpt><trkpt lat="42.84948922159188" lon="13.725244553586156"><ele>51.5</ele><time>2026-04-18T14:48:45Z</time></trkpt><trkpt lat="42.84957650625934" lon="13.725570628533388"><ele>51.0</ele><time>2026-04-18T14:48:46Z</time></trkpt><trkpt lat="42.84965516924015" lon="13.725899374958503"><ele>50.5</ele><time>2026-04-18T14:48:47Z</time></trkpt><trkpt lat="42.84973052724276" lon="13.726228287635212"><ele>50.0</ele><time>2026-04-18T14:48:48Z</time></trkpt><trkpt lat="42.849808473689585" lon="13.726551361870337"><ele>50.0</ele><time>2026-04-18T14:48:49Z</time></trkpt><trkpt lat="42.84988654721617" lon="13.726868909427948"><ele>50.0</ele><time>2026-04-18T14:48:50Z</time></trkpt><trkpt lat="42.84994983497063" lon="13.727152291045536"><ele>49.5</ele><time>2026-04-18T14:48:51Z</time></trkpt><trkpt lat="42.85002479152363" lon="13.727445055316275"><ele>49.0</ele><time>2026-04-18T14:48:52Z</time></trkpt><trkpt lat="42.850105006239545" lon="13.727731628796207"><ele>48.33333333333333</ele><time>2026-04-18T14:48:53Z</time></trkpt><trkpt lat="42.85016586945223" lon="13.728004234345853"><ele>47.666666666666664</ele><time>2026-04-18T14:48:54Z</time></trkpt><trkpt lat="42.85023734319816" lon="13.728280335583445"><ele>47.0</ele><time>2026-04-18T14:48:55Z</time></trkpt><trkpt lat="42.85030094388437" lon="13.72855071197261"><ele>47.33333333333333</ele><time>2026-04-18T14:48:56Z</time></trkpt><trkpt lat="42.85036349644884" lon="13.728821711551692"><ele>47.666666666666664</ele><time>2026-04-18T14:48:57Z</time></trkpt><trkpt lat="42.85043295385774" lon="13.729097156727937"><ele>48.0</ele><time>2026-04-18T14:48:58Z</time></trkpt><trkpt lat="42.85050605769382" lon="13.729375538478724"><ele>48.0</ele><time>2026-04-18T14:48:59Z</time></trkpt><trkpt lat="42.850528255637556" lon="13.729537492086315"><ele>48.0</ele><time>2026-04-18T14:49:00Z</time></trkpt><trkpt lat="42.85057608505668" lon="13.72974371156677"><ele>48.0</ele><time>2026-04-18T14:49:01Z</time></trkpt><trkpt lat="42.8506257080794" lon="13.729951932664385"><ele>48.0</ele><time>2026-04-18T14:49:02Z</time></trkpt><trkpt lat="42.85067608717239" lon="13.730173408076174"><ele>48.33333333333333</ele><time>2026-04-18T14:49:03Z</time></trkpt><trkpt lat="42.85072806336112" lon="13.73039559231797"><ele>48.666666666666664</ele><time>2026-04-18T14:49:04Z</time></trkpt><trkpt lat="42.85078645373365" lon="13.730619484806883"><ele>49.0</ele><time>2026-04-18T14:49:05Z</time></trkpt><trkpt lat="42.85084335399778" lon="13.730848274505107"><ele>49.0</ele><time>2026-04-18T14:49:06Z</time></trkpt><trkpt lat="42.850897885265844" lon="13.731077602195766"><ele>49.0</ele><time>2026-04-18T14:49:07Z</time></trkpt><trkpt lat="42.850952053320306" lon="13.731310388278791"><ele>49.0</ele><time>2026-04-18T14:49:08Z</time></trkpt><trkpt lat="42.85100946760693" lon="13.731538038071434"><ele>49.0</ele><time>2026-04-18T14:49:09Z</time></trkpt><trkpt lat="42.85107438290446" lon="13.731774509601042"><ele>49.0</ele><time>2026-04-18T14:49:10Z</time></trkpt><trkpt lat="42.85113816619041" lon="13.732018338895706"><ele>49.0</ele><time>2026-04-18T14:49:11Z</time></trkpt><trkpt lat="42.85120124696566" lon="13.732261434023831"><ele>49.33333333333333</ele><time>2026-04-18T14:49:11.999Z</time></trkpt><trkpt lat="42.851265244190145" lon="13.7325060067128"><ele>49.66666666666667</ele><time>2026-04-18T14:49:12.999Z</time></trkpt><trkpt lat="42.85132984472756" lon="13.732748951902613"><ele>50.0</ele><time>2026-04-18T14:49:13.999Z</time></trkpt><trkpt lat="42.85139906222063" lon="13.732986184372294"><ele>50.0</ele><time>2026-04-18T14:49:14.999Z</time></trkpt><trkpt lat="42.8514720601758" lon="13.733222855855159"><ele>50.0</ele><time>2026-04-18T14:49:15.999Z</time></trkpt><trkpt lat="42.85154941959033" lon="13.73345825700294"><ele>50.0</ele><time>2026-04-18T14:49:16.999Z</time></trkpt><trkpt lat="42.85162827731871" lon="13.733694724941461"><ele>50.0</ele><time>2026-04-18T14:49:17.999Z</time></trkpt><trkpt lat="42.851710947278356" lon="13.733932791654627"><ele>50.0</ele><time>2026-04-18T14:49:18.999Z</time></trkpt><trkpt lat="42.85179820965237" lon="13.734167885454044"><ele>50.0</ele><time>2026-04-18T14:49:19.999Z</time></trkpt><trkpt lat="42.8518900087655" lon="13.73439908805754"><ele>49.333333333333336</ele><time>2026-04-18T14:49:20.999Z</time></trkpt><trkpt lat="42.851984066969294" lon="13.73463086859814"><ele>48.66666666666667</ele><time>2026-04-18T14:49:21.999Z</time></trkpt><trkpt lat="42.852087849516515" lon="13.734857259834845"><ele>48.0</ele><time>2026-04-18T14:49:22.999Z</time></trkpt><trkpt lat="42.852194099016735" lon="13.735084976643416"><ele>47.333333333333336</ele><time>2026-04-18T14:49:23.999Z</time></trkpt><trkpt lat="42.85230318196632" lon="13.735308711487004"><ele>46.66666666666667</ele><time>2026-04-18T14:49:24.999Z</time></trkpt><trkpt lat="42.85241493261348" lon="13.735531389799887"><ele>46.0</ele><time>2026-04-18T14:49:25.999Z</time></trkpt><trkpt lat="42.85253137484088" lon="13.735750899971642"><ele>45.66666666666667</ele><time>2026-04-18T14:49:26.999Z</time></trkpt><trkpt lat="42.85264968870737" lon="13.735964895812664"><ele>45.333333333333336</ele><time>2026-04-18T14:49:27.999Z</time></trkpt><trkpt lat="42.8527692023293" lon="13.736172412366463"><ele>45.0</ele><time>2026-04-18T14:49:28.999Z</time></trkpt><trkpt lat="42.85288994718576" lon="13.73637846816674"><ele>45.0</ele><time>2026-04-18T14:49:29.999Z</time></trkpt><trkpt lat="42.85301635787926" lon="13.736579926432753"><ele>45.0</ele><time>2026-04-18T14:49:30.999Z</time></trkpt><trkpt lat="42.85314774407209" lon="13.736777447955431"><ele>45.0</ele><time>2026-04-18T14:49:31.999Z</time></trkpt><trkpt lat="42.85328375202395" lon="13.73697180640939"><ele>45.0</ele><time>2026-04-18T14:49:32.999Z</time></trkpt><trkpt lat="42.853421721553666" lon="13.737166759552625"><ele>45.0</ele><time>2026-04-18T14:49:33.999Z</time></trkpt><trkpt lat="42.853566477276324" lon="13.737359817804679"><ele>45.0</ele><time>2026-04-18T14:49:34.999Z</time></trkpt><trkpt lat="42.853716516276194" lon="13.737550102723599"><ele>45.666666666666664</ele><time>2026-04-18T14:49:35.999Z</time></trkpt><trkpt lat="42.85387684328426" lon="13.737738151779194"><ele>46.33333333333333</ele><time>2026-04-18T14:49:36.999Z</time></trkpt><trkpt lat="42.854031614892676" lon="13.737926178762311"><ele>47.0</ele><time>2026-04-18T14:49:37.999Z</time></trkpt><trkpt lat="42.85418137180417" lon="13.738113496324816"><ele>46.0</ele><time>2026-04-18T14:49:38.999Z</time></trkpt><trkpt lat="42.85433369608689" lon="13.738300595976598"><ele>45.0</ele><time>2026-04-18T14:49:39.999Z</time></trkpt><trkpt lat="42.85448438623945" lon="13.738481495375373"><ele>44.0</ele><time>2026-04-18T14:49:40.999Z</time></trkpt><trkpt lat="42.854629971203394" lon="13.73866218857663"><ele>44.0</ele><time>2026-04-18T14:49:41.999Z</time></trkpt><trkpt lat="42.854778430375504" lon="13.738846674096594"><ele>44.0</ele><time>2026-04-18T14:49:42.999Z</time></trkpt><trkpt lat="42.85492825911302" lon="13.739031343276723"><ele>44.0</ele><time>2026-04-18T14:49:43.999Z</time></trkpt><trkpt lat="42.85507611840922" lon="13.739211561987759"><ele>43.0</ele><time>2026-04-18T14:49:44.999Z</time></trkpt><trkpt lat="42.855223363638146" lon="13.739390132027433"><ele>42.0</ele><time>2026-04-18T14:49:45.999Z</time></trkpt><trkpt lat="42.855369474614925" lon="13.739573236777717"><ele>41.0</ele><time>2026-04-18T14:49:46.999Z</time></trkpt><trkpt lat="42.855516084783744" lon="13.739754703293839"><ele>41.0</ele><time>2026-04-18T14:49:47.999Z</time></trkpt><trkpt lat="42.85566052484493" lon="13.73993137775921"><ele>41.0</ele><time>2026-04-18T14:49:48.999Z</time></trkpt><trkpt lat="42.8558053649209" lon="13.7401056605303"><ele>41.0</ele><time>2026-04-18T14:49:49.999Z</time></trkpt><trkpt lat="42.85595113785589" lon="13.740283524329191"><ele>41.0</ele><time>2026-04-18T14:49:50.999Z</time></trkpt><trkpt lat="42.856096059308506" lon="13.740465142384597"><ele>41.0</ele><time>2026-04-18T14:49:51.999Z</time></trkpt><trkpt lat="42.85623996023259" lon="13.74064667178133"><ele>41.0</ele><time>2026-04-18T14:49:52.999Z</time></trkpt><trkpt lat="42.85638742545046" lon="13.740831283807246"><ele>41.0</ele><time>2026-04-18T14:49:53.999Z</time></trkpt><trkpt lat="42.85653411826239" lon="13.74101314957081"><ele>41.0</ele><time>2026-04-18T14:49:54.999Z</time></trkpt><trkpt lat="42.8566787099787" lon="13.741194060229121"><ele>41.0</ele><time>2026-04-18T14:49:55.999Z</time></trkpt><trkpt lat="42.85682437599003" lon="13.741380792372224"><ele>40.666666666666664</ele><time>2026-04-18T14:49:56.999Z</time></trkpt><trkpt lat="42.85696791221512" lon="13.741571125501226"><ele>40.333333333333336</ele><time>2026-04-18T14:49:57.999Z</time></trkpt><trkpt lat="42.85710570423388" lon="13.741766120527952"><ele>40.0</ele><time>2026-04-18T14:49:58.999Z</time></trkpt><trkpt lat="42.85724420465336" lon="13.741966906935975"><ele>40.66666666666667</ele><time>2026-04-18T14:49:59.999Z</time></trkpt><trkpt lat="42.857377710433695" lon="13.742172043221833"><ele>41.333333333333336</ele><time>2026-04-18T14:50:00.999Z</time></trkpt><trkpt lat="42.85750847737434" lon="13.742385343831312"><ele>42.0</ele><time>2026-04-18T14:50:01.999Z</time></trkpt><trkpt lat="42.85763163757783" lon="13.742598844444023"><ele>42.333333333333336</ele><time>2026-04-18T14:50:02.999Z</time></trkpt><trkpt lat="42.85775591849381" lon="13.742821749753055"><ele>42.66666666666667</ele><time>2026-04-18T14:50:03.999Z</time></trkpt><trkpt lat="42.85788192383134" lon="13.743052425869875"><ele>43.0</ele><time>2026-04-18T14:50:04.999Z</time></trkpt><trkpt lat="42.85800105553646" lon="13.743292065738224"><ele>43.0</ele><time>2026-04-18T14:50:05.999Z</time></trkpt><trkpt lat="42.85811291258733" lon="13.743547334914846"><ele>43.0</ele><time>2026-04-18T14:50:06.999Z</time></trkpt><trkpt lat="42.85822385627229" lon="13.743813041791327"><ele>43.0</ele><time>2026-04-18T14:50:07.999Z</time></trkpt><trkpt lat="42.85833436592668" lon="13.744081175887123"><ele>43.0</ele><time>2026-04-18T14:50:08.999Z</time></trkpt><trkpt lat="42.85844525761798" lon="13.744354275494342"><ele>43.0</ele><time>2026-04-18T14:50:09.999Z</time></trkpt><trkpt lat="42.858551400713715" lon="13.744628543158457"><ele>41.5</ele><time>2026-04-18T14:50:10.999Z</time></trkpt><trkpt lat="42.8586520822451" lon="13.744907849307308"><ele>40.0</ele><time>2026-04-18T14:50:11.999Z</time></trkpt><trkpt lat="42.858749755102274" lon="13.745188865353418"><ele>40.0</ele><time>2026-04-18T14:50:12.999Z</time></trkpt><trkpt lat="42.85884154137149" lon="13.745470825233186"><ele>40.0</ele><time>2026-04-18T14:50:13.999Z</time></trkpt><trkpt lat="42.85892342762233" lon="13.745757290638833"><ele>40.0</ele><time>2026-04-18T14:50:14.999Z</time></trkpt><trkpt lat="42.85900129012443" lon="13.74605055039967"><ele>40.0</ele><time>2026-04-18T14:50:15.999Z</time></trkpt><trkpt lat="42.85907209490573" lon="13.746346685365253"><ele>40.0</ele><time>2026-04-18T14:50:16.999Z</time></trkpt><trkpt lat="42.85913731898335" lon="13.746643928853786"><ele>40.0</ele><time>2026-04-18T14:50:17.999Z</time></trkpt><trkpt lat="42.85920226333604" lon="13.74693855188953"><ele>39.5</ele><time>2026-04-18T14:50:18.999Z</time></trkpt><trkpt lat="42.859264578326616" lon="13.747241363207285"><ele>39.0</ele><time>2026-04-18T14:50:19.999Z</time></trkpt><trkpt lat="42.85932431818711" lon="13.747554111397067"><ele>39.0</ele><time>2026-04-18T14:50:20.999Z</time></trkpt><trkpt lat="42.85938258530449" lon="13.747857490205666"><ele>39.0</ele><time>2026-04-18T14:50:21.999Z</time></trkpt><trkpt lat="42.85944217012999" lon="13.748169699969122"><ele>39.0</ele><time>2026-04-18T14:50:22.999Z</time></trkpt><trkpt lat="42.85949790538343" lon="13.7484776331062"><ele>39.0</ele><time>2026-04-18T14:50:23.999Z</time></trkpt><trkpt lat="42.85955535543604" lon="13.74880240689816"><ele>39.5</ele><time>2026-04-18T14:50:24.999Z</time></trkpt><trkpt lat="42.85961138760592" lon="13.749109463759284"><ele>40.0</ele><time>2026-04-18T14:50:25.999Z</time></trkpt><trkpt lat="42.85966897929968" lon="13.749422551205013"><ele>40.0</ele><time>2026-04-18T14:50:26.999Z</time></trkpt><trkpt lat="42.85972634666709" lon="13.749731123972044"><ele>40.0</ele><time>2026-04-18T14:50:27.998Z</time></trkpt><trkpt lat="42.85978385725313" lon="13.750050200215256"><ele>39.5</ele><time>2026-04-18T14:50:28.998Z</time></trkpt><trkpt lat="42.85984011005745" lon="13.75035341101772"><ele>39.0</ele><time>2026-04-18T14:50:29.998Z</time></trkpt><trkpt lat="42.85989968925938" lon="13.750668818461797"><ele>39.0</ele><time>2026-04-18T14:50:30.998Z</time></trkpt><trkpt lat="42.85995639001007" lon="13.750988224782501"><ele>39.0</ele><time>2026-04-18T14:50:31.998Z</time></trkpt><trkpt lat="42.860036072086956" lon="13.751289214743693"><ele>38.5</ele><time>2026-04-18T14:50:32.998Z</time></trkpt><trkpt lat="42.86007071593729" lon="13.751620190389003"><ele>38.0</ele><time>2026-04-18T14:50:33.998Z</time></trkpt><trkpt lat="42.860129119012214" lon="13.751934378358166"><ele>38.0</ele><time>2026-04-18T14:50:34.998Z</time></trkpt><trkpt lat="42.860186754791265" lon="13.75224764902852"><ele>38.0</ele><time>2026-04-18T14:50:35.998Z</time></trkpt><trkpt lat="42.86024448063413" lon="13.752562792541775"><ele>39.0</ele><time>2026-04-18T14:50:36.998Z</time></trkpt><trkpt lat="42.860306210327046" lon="13.752885519616063"><ele>40.0</ele><time>2026-04-18T14:50:37.998Z</time></trkpt><trkpt lat="42.86036077453786" lon="13.753194292262455"><ele>40.0</ele><time>2026-04-18T14:50:39.001Z</time></trkpt><trkpt lat="42.86041928083782" lon="13.75351114302583"><ele>40.0</ele><time>2026-04-18T14:50:40.001Z</time></trkpt><trkpt lat="42.86047683653988" lon="13.753831255660362"><ele>39.5</ele><time>2026-04-18T14:50:41.001Z</time></trkpt><trkpt lat="42.860533954669954" lon="13.754138363183884"><ele>39.0</ele><time>2026-04-18T14:50:42.001Z</time></trkpt><trkpt lat="42.86058618543854" lon="13.754444392155573"><ele>38.0</ele><time>2026-04-18T14:50:43.001Z</time></trkpt><trkpt lat="42.860634368944844" lon="13.754752326626766"><ele>37.0</ele><time>2026-04-18T14:50:44.001Z</time></trkpt><trkpt lat="42.86067791153528" lon="13.755058020270688"><ele>36.5</ele><time>2026-04-18T14:50:45.001Z</time></trkpt><trkpt lat="42.860714040707734" lon="13.755373863554206"><ele>36.0</ele><time>2026-04-18T14:50:46.001Z</time></trkpt><trkpt lat="42.860746689426435" lon="13.755687320973442"><ele>36.0</ele><time>2026-04-18T14:50:47.001Z</time></trkpt><trkpt lat="42.86077595648196" lon="13.75599455130682"><ele>36.0</ele><time>2026-04-18T14:50:48.001Z</time></trkpt><trkpt lat="42.860803944108426" lon="13.756324348919598"><ele>36.0</ele><time>2026-04-18T14:50:49.001Z</time></trkpt><trkpt lat="42.86082018881248" lon="13.756661800114273"><ele>36.0</ele><time>2026-04-18T14:50:50.001Z</time></trkpt><trkpt lat="42.86082957013551" lon="13.757005709452732"><ele>35.5</ele><time>2026-04-18T14:50:51.001Z</time></trkpt><trkpt lat="42.8608280542649" lon="13.757357634868692"><ele>35.0</ele><time>2026-04-18T14:50:52.001Z</time></trkpt><trkpt lat="42.8608208416884" lon="13.757705645357936"><ele>36.0</ele><time>2026-04-18T14:50:53.001Z</time></trkpt><trkpt lat="42.86080509662109" lon="13.758054134174335"><ele>37.0</ele><time>2026-04-18T14:50:54.001Z</time></trkpt><trkpt lat="42.8607812325279" lon="13.75840507714967"><ele>36.0</ele><time>2026-04-18T14:50:55.001Z</time></trkpt><trkpt lat="42.86074801372054" lon="13.758762397268152"><ele>35.0</ele><time>2026-04-18T14:50:56.001Z</time></trkpt><trkpt lat="42.860713684241745" lon="13.759127754341401"><ele>34.5</ele><time>2026-04-18T14:50:57.001Z</time></trkpt><trkpt lat="42.86068413556923" lon="13.759492118640065"><ele>34.0</ele><time>2026-04-18T14:50:58.001Z</time></trkpt><trkpt lat="42.86065589085606" lon="13.759863251626845"><ele>34.5</ele><time>2026-04-18T14:50:59.001Z</time></trkpt><trkpt lat="42.860628987503965" lon="13.760231411803252"><ele>35.0</ele><time>2026-04-18T14:51:00.001Z</time></trkpt><trkpt lat="42.86060021948885" lon="13.760600853231935"><ele>35.0</ele><time>2026-04-18T14:51:01.001Z</time></trkpt><trkpt lat="42.860570895664225" lon="13.760972473954979"><ele>35.0</ele><time>2026-04-18T14:51:02.001Z</time></trkpt><trkpt lat="42.86054171243919" lon="13.761347415204094"><ele>35.0</ele><time>2026-04-18T14:51:03.001Z</time></trkpt><trkpt lat="42.860513969591665" lon="13.761717879978812"><ele>35.0</ele><time>2026-04-18T14:51:04.001Z</time></trkpt><trkpt lat="42.86048524162736" lon="13.762088528360557"><ele>35.0</ele><time>2026-04-18T14:51:05.001Z</time></trkpt><trkpt lat="42.860457810576925" lon="13.762455466072728"><ele>35.0</ele><time>2026-04-18T14:51:06Z</time></trkpt><trkpt lat="42.8604289970359" lon="13.762823585326425"><ele>35.0</ele><time>2026-04-18T14:51:07Z</time></trkpt><trkpt lat="42.8603990859141" lon="13.76318756207748"><ele>35.0</ele><time>2026-04-18T14:51:08Z</time></trkpt><trkpt lat="42.860372028358036" lon="13.763554366187547"><ele>35.0</ele><time>2026-04-18T14:51:09Z</time></trkpt><trkpt lat="42.86034658086231" lon="13.763914107922917"><ele>35.0</ele><time>2026-04-18T14:51:10Z</time></trkpt><trkpt lat="42.86032030476576" lon="13.764275320123705"><ele>35.0</ele><time>2026-04-18T14:51:11Z</time></trkpt><trkpt lat="42.86029506169301" lon="13.764639689503738"><ele>35.0</ele><time>2026-04-18T14:51:12Z</time></trkpt><trkpt lat="42.86027267896997" lon="13.765005118680643"><ele>35.0</ele><time>2026-04-18T14:51:13Z</time></trkpt><trkpt lat="42.86025865060099" lon="13.765372879547371"><ele>35.0</ele><time>2026-04-18T14:51:14Z</time></trkpt><trkpt lat="42.86025654754882" lon="13.765737944549397"><ele>34.5</ele><time>2026-04-18T14:51:15Z</time></trkpt><trkpt lat="42.860263086360824" lon="13.766105470737577"><ele>34.0</ele><time>2026-04-18T14:51:16Z</time></trkpt><trkpt lat="42.860277959423435" lon="13.766475201134392"><ele>34.0</ele><time>2026-04-18T14:51:17Z</time></trkpt><trkpt lat="42.86030050700865" lon="13.766844891015264"><ele>34.0</ele><time>2026-04-18T14:51:18Z</time></trkpt><trkpt lat="42.86032999253885" lon="13.767211938414214"><ele>33.5</ele><time>2026-04-18T14:51:19Z</time></trkpt><trkpt lat="42.86036814309086" lon="13.767578466933106"><ele>33.0</ele><time>2026-04-18T14:51:20Z</time></trkpt><trkpt lat="42.86041258883426" lon="13.767951204432348"><ele>33.0</ele><time>2026-04-18T14:51:21Z</time></trkpt><trkpt lat="42.8604664420158" lon="13.76832610903715"><ele>33.0</ele><time>2026-04-18T14:51:22Z</time></trkpt><trkpt lat="42.860527892003084" lon="13.768705251788166"><ele>33.0</ele><time>2026-04-18T14:51:23Z</time></trkpt><trkpt lat="42.86059651673039" lon="13.769098212628329"><ele>33.0</ele><time>2026-04-18T14:51:24Z</time></trkpt><trkpt lat="42.86067857350826" lon="13.769493550549724"><ele>33.5</ele><time>2026-04-18T14:51:25Z</time></trkpt><trkpt lat="42.86077056930277" lon="13.76988826766346"><ele>34.0</ele><time>2026-04-18T14:51:26Z</time></trkpt><trkpt lat="42.860874604180175" lon="13.770278742002098"><ele>34.0</ele><time>2026-04-18T14:51:27Z</time></trkpt><trkpt lat="42.86098269588965" lon="13.770668571959078"><ele>34.0</ele><time>2026-04-18T14:51:28Z</time></trkpt><trkpt lat="42.86108890927984" lon="13.771062313278374"><ele>34.0</ele><time>2026-04-18T14:51:29Z</time></trkpt><trkpt lat="42.861195933951784" lon="13.771459691176755"><ele>34.0</ele><time>2026-04-18T14:51:30Z</time></trkpt><trkpt lat="42.8613030431105" lon="13.77185164659522"><ele>34.0</ele><time>2026-04-18T14:51:31Z</time></trkpt><trkpt lat="42.861408652304114" lon="13.772240989701535"><ele>34.0</ele><time>2026-04-18T14:51:32Z</time></trkpt><trkpt lat="42.8615142216664" lon="13.772630106725618"><ele>33.0</ele><time>2026-04-18T14:51:33Z</time></trkpt><trkpt lat="42.86162080853047" lon="13.773013894446182"><ele>32.0</ele><time>2026-04-18T14:51:34Z</time></trkpt><trkpt lat="42.86173241394376" lon="13.773398437219011"><ele>32.0</ele><time>2026-04-18T14:51:35Z</time></trkpt><trkpt lat="42.861842654476405" lon="13.77377655324112"><ele>32.0</ele><time>2026-04-18T14:51:36Z</time></trkpt><trkpt lat="42.86194727417882" lon="13.77415652810761"><ele>31.0</ele><time>2026-04-18T14:51:37Z</time></trkpt><trkpt lat="42.86204384830717" lon="13.774535065211772"><ele>30.0</ele><time>2026-04-18T14:51:38Z</time></trkpt><trkpt lat="42.862136025041195" lon="13.77491423871727"><ele>29.5</ele><time>2026-04-18T14:51:39Z</time></trkpt><trkpt lat="42.86222642421088" lon="13.77529327185135"><ele>29.0</ele><time>2026-04-18T14:51:40Z</time></trkpt><trkpt lat="42.86232006667326" lon="13.775668362258774"><ele>29.5</ele><time>2026-04-18T14:51:41Z</time></trkpt><trkpt lat="42.86241715547101" lon="13.776044785171727"><ele>30.0</ele><time>2026-04-18T14:51:42Z</time></trkpt><trkpt lat="42.86251658792336" lon="13.776417974261488"><ele>29.5</ele><time>2026-04-18T14:51:43Z</time></trkpt><trkpt lat="42.86261512424023" lon="13.776792099402856"><ele>29.0</ele><time>2026-04-18T14:51:44Z</time></trkpt><trkpt lat="42.862713401239006" lon="13.777166769003722"><ele>29.0</ele><time>2026-04-18T14:51:45Z</time></trkpt><trkpt lat="42.86281192176515" lon="13.777539364426056"><ele>29.0</ele><time>2026-04-18T14:51:46Z</time></trkpt><trkpt lat="42.862912006628285" lon="13.77791613782398"><ele>29.0</ele><time>2026-04-18T14:51:47Z</time></trkpt><trkpt lat="42.863011902420446" lon="13.778290182628055"><ele>29.0</ele><time>2026-04-18T14:51:48Z</time></trkpt><trkpt lat="42.86311363602082" lon="13.778674899910005"><ele>29.5</ele><time>2026-04-18T14:51:49Z</time></trkpt><trkpt lat="42.86321058965234" lon="13.779049056560922"><ele>30.0</ele><time>2026-04-18T14:51:50Z</time></trkpt><trkpt lat="42.86331600989131" lon="13.779435698808056"><ele>30.0</ele><time>2026-04-18T14:51:51Z</time></trkpt><trkpt lat="42.86341865085347" lon="13.779819638828704"><ele>30.0</ele><time>2026-04-18T14:51:52Z</time></trkpt><trkpt lat="42.863518026587975" lon="13.780202724854007"><ele>28.5</ele><time>2026-04-18T14:51:53Z</time></trkpt><trkpt lat="42.86362032534131" lon="13.780585844537168"><ele>27.0</ele><time>2026-04-18T14:51:54Z</time></trkpt><trkpt lat="42.863724139414266" lon="13.780975743491018"><ele>26.5</ele><time>2026-04-18T14:51:55Z</time></trkpt><trkpt lat="42.863827527581876" lon="13.78136137022506"><ele>26.0</ele><time>2026-04-18T14:51:56Z</time></trkpt><trkpt lat="42.86393227500727" lon="13.78174745792743"><ele>26.5</ele><time>2026-04-18T14:51:57Z</time></trkpt><trkpt lat="42.864034333364074" lon="13.78213327042427"><ele>27.0</ele><time>2026-04-18T14:51:58Z</time></trkpt><trkpt lat="42.86413810895674" lon="13.782520144255683"><ele>27.0</ele><time>2026-04-18T14:51:59Z</time></trkpt><trkpt lat="42.864240776611446" lon="13.782905334081015"><ele>27.0</ele><time>2026-04-18T14:52:00Z</time></trkpt><trkpt lat="42.864345612614564" lon="13.783289437590039"><ele>27.0</ele><time>2026-04-18T14:52:01Z</time></trkpt><trkpt lat="42.86445037786433" lon="13.783675599665738"><ele>27.0</ele><time>2026-04-18T14:52:02Z</time></trkpt><trkpt lat="42.86455521766251" lon="13.784063818030333"><ele>26.0</ele><time>2026-04-18T14:52:03Z</time></trkpt><trkpt lat="42.86465690058023" lon="13.784451169781505"><ele>25.0</ele><time>2026-04-18T14:52:04Z</time></trkpt><trkpt lat="42.864759850802386" lon="13.784838293546434"><ele>24.5</ele><time>2026-04-18T14:52:05Z</time></trkpt><trkpt lat="42.86486186266754" lon="13.785228839038908"><ele>24.0</ele><time>2026-04-18T14:52:06Z</time></trkpt><trkpt lat="42.86496799623137" lon="13.785621549366573"><ele>23.5</ele><time>2026-04-18T14:52:07Z</time></trkpt><trkpt lat="42.86507288463249" lon="13.78601204130634"><ele>23.0</ele><time>2026-04-18T14:52:08Z</time></trkpt><trkpt lat="42.86517908849988" lon="13.786402980093829"><ele>22.5</ele><time>2026-04-18T14:52:09Z</time></trkpt><trkpt lat="42.86528501898137" lon="13.786793020403813"><ele>22.0</ele><time>2026-04-18T14:52:09.999Z</time></trkpt><trkpt lat="42.86539102513484" lon="13.787188182350018"><ele>22.0</ele><time>2026-04-18T14:52:10.999Z</time></trkpt><trkpt lat="42.86549224466443" lon="13.787579372654871"><ele>22.0</ele><time>2026-04-18T14:52:11.999Z</time></trkpt><trkpt lat="42.865592580951265" lon="13.787972061162275"><ele>23.0</ele><time>2026-04-18T14:52:12.999Z</time></trkpt><trkpt lat="42.86569004767511" lon="13.788353966382115"><ele>24.0</ele><time>2026-04-18T14:52:13.999Z</time></trkpt><trkpt lat="42.86579933414426" lon="13.788753607231694"><ele>24.5</ele><time>2026-04-18T14:52:14.999Z</time></trkpt><trkpt lat="42.86590028040997" lon="13.789143742138318"><ele>25.0</ele><time>2026-04-18T14:52:15.999Z</time></trkpt><trkpt lat="42.86600340019105" lon="13.789535375001792"><ele>24.5</ele><time>2026-04-18T14:52:16.999Z</time></trkpt><trkpt lat="42.866104694864404" lon="13.789930532888249"><ele>24.0</ele><time>2026-04-18T14:52:17.999Z</time></trkpt><trkpt lat="42.86621199528338" lon="13.790311090983352"><ele>24.0</ele><time>2026-04-18T14:52:18.999Z</time></trkpt><trkpt lat="42.86631144111281" lon="13.790696143746676"><ele>24.0</ele><time>2026-04-18T14:52:19.999Z</time></trkpt><trkpt lat="42.86641371962834" lon="13.791079717622946"><ele>23.5</ele><time>2026-04-18T14:52:20.999Z</time></trkpt><trkpt lat="42.86651697658635" lon="13.791461197339874"><ele>23.0</ele><time>2026-04-18T14:52:21.999Z</time></trkpt><trkpt lat="42.866621690792066" lon="13.791840454849877"><ele>22.0</ele><time>2026-04-18T14:52:22.999Z</time></trkpt><trkpt lat="42.86672155576132" lon="13.792220063098128"><ele>21.0</ele><time>2026-04-18T14:52:23.999Z</time></trkpt><trkpt lat="42.866823197503976" lon="13.792598904357252"><ele>21.0</ele><time>2026-04-18T14:52:24.999Z</time></trkpt><trkpt lat="42.86693292327495" lon="13.792977576341121"><ele>21.0</ele><time>2026-04-18T14:52:25.999Z</time></trkpt><trkpt lat="42.86704709430076" lon="13.793351889591154"><ele>22.0</ele><time>2026-04-18T14:52:26.999Z</time></trkpt><trkpt lat="42.86716664362629" lon="13.793728998397112"><ele>23.0</ele><time>2026-04-18T14:52:27.999Z</time></trkpt><trkpt lat="42.867290248189484" lon="13.794104846894307"><ele>22.5</ele><time>2026-04-18T14:52:28.999Z</time></trkpt><trkpt lat="42.86741334077948" lon="13.794485282110207"><ele>22.0</ele><time>2026-04-18T14:52:29.999Z</time></trkpt><trkpt lat="42.867538991923595" lon="13.794876203680394"><ele>21.5</ele><time>2026-04-18T14:52:30.999Z</time></trkpt><trkpt lat="42.86766306956749" lon="13.795265078842561"><ele>21.0</ele><time>2026-04-18T14:52:31.999Z</time></trkpt><trkpt lat="42.86778942434105" lon="13.79565144752178"><ele>21.0</ele><time>2026-04-18T14:52:32.999Z</time></trkpt><trkpt lat="42.86791383666271" lon="13.79604005990038"><ele>21.0</ele><time>2026-04-18T14:52:33.999Z</time></trkpt><trkpt lat="42.868039655920356" lon="13.796428265709132"><ele>21.0</ele><time>2026-04-18T14:52:34.999Z</time></trkpt><trkpt lat="42.86816548703927" lon="13.796818947673742"><ele>21.0</ele><time>2026-04-18T14:52:35.999Z</time></trkpt><trkpt lat="42.86828951318717" lon="13.797213611671644"><ele>21.0</ele><time>2026-04-18T14:52:36.999Z</time></trkpt><trkpt lat="42.86841073811447" lon="13.7976065585096"><ele>21.0</ele><time>2026-04-18T14:52:37.999Z</time></trkpt><trkpt lat="42.868534939664464" lon="13.79800410895822"><ele>21.0</ele><time>2026-04-18T14:52:38.999Z</time></trkpt><trkpt lat="42.86866034451291" lon="13.798399024623397"><ele>21.0</ele><time>2026-04-18T14:52:39.999Z</time></trkpt><trkpt lat="42.868787320117434" lon="13.798785743804201"><ele>21.0</ele><time>2026-04-18T14:52:40.999Z</time></trkpt><trkpt lat="42.868914839325065" lon="13.799175796528079"><ele>21.0</ele><time>2026-04-18T14:52:41.999Z</time></trkpt><trkpt lat="42.86904099315745" lon="13.799569481535098"><ele>21.0</ele><time>2026-04-18T14:52:42.999Z</time></trkpt><trkpt lat="42.86916526331514" lon="13.799962763426576"><ele>21.0</ele><time>2026-04-18T14:52:43.999Z</time></trkpt><trkpt lat="42.869292301007796" lon="13.800357824734526"><ele>21.5</ele><time>2026-04-18T14:52:45.002Z</time></trkpt><trkpt lat="42.86942215349618" lon="13.800745894864704"><ele>22.0</ele><time>2026-04-18T14:52:46.002Z</time></trkpt><trkpt lat="42.86956165853477" lon="13.801129466636405"><ele>22.0</ele><time>2026-04-18T14:52:47.002Z</time></trkpt><trkpt lat="42.86971401030255" lon="13.80150221491534"><ele>22.0</ele><time>2026-04-18T14:52:48.002Z</time></trkpt><trkpt lat="42.86987604478362" lon="13.801865575334888"><ele>22.0</ele><time>2026-04-18T14:52:49.002Z</time></trkpt><trkpt lat="42.87003994767677" lon="13.802231771274498"><ele>22.0</ele><time>2026-04-18T14:52:50.002Z</time></trkpt><trkpt lat="42.87020698022865" lon="13.802592730908524"><ele>21.5</ele><time>2026-04-18T14:52:51.002Z</time></trkpt><trkpt lat="42.87038645021001" lon="13.802943017163276"><ele>21.0</ele><time>2026-04-18T14:52:52.002Z</time></trkpt><trkpt lat="42.87057678385062" lon="13.803285938959826"><ele>21.0</ele><time>2026-04-18T14:52:53.002Z</time></trkpt><trkpt lat="42.870776076110296" lon="13.803618075304819"><ele>21.0</ele><time>2026-04-18T14:52:54.001Z</time></trkpt><trkpt lat="42.87098129167467" lon="13.80393236176002"><ele>21.0</ele><time>2026-04-18T14:52:55.001Z</time></trkpt><trkpt lat="42.87119973259799" lon="13.804242129209547"><ele>21.0</ele><time>2026-04-18T14:52:56.001Z</time></trkpt><trkpt lat="42.87142460239852" lon="13.804542464099457"><ele>21.5</ele><time>2026-04-18T14:52:57.001Z</time></trkpt><trkpt lat="42.871655045839304" lon="13.80483016348366"><ele>22.0</ele><time>2026-04-18T14:52:58.001Z</time></trkpt><trkpt lat="42.87189335603037" lon="13.80510357964019"><ele>21.5</ele><time>2026-04-18T14:52:59.001Z</time></trkpt><trkpt lat="42.87213661068239" lon="13.805366313702828"><ele>21.0</ele><time>2026-04-18T14:53:00.001Z</time></trkpt><trkpt lat="42.87238822468584" lon="13.805618313194687"><ele>20.5</ele><time>2026-04-18T14:53:01.001Z</time></trkpt><trkpt lat="42.87264435529721" lon="13.805859521698927"><ele>20.0</ele><time>2026-04-18T14:53:02.001Z</time></trkpt><trkpt lat="42.87290437565615" lon="13.806096316383291"><ele>19.5</ele><time>2026-04-18T14:53:03.001Z</time></trkpt><trkpt lat="42.87316268190283" lon="13.806333115361873"><ele>19.0</ele><time>2026-04-18T14:53:04.001Z</time></trkpt><trkpt lat="42.87342417011814" lon="13.806572210791888"><ele>19.5</ele><time>2026-04-18T14:53:05.001Z</time></trkpt><trkpt lat="42.87368752568471" lon="13.80680901199461"><ele>20.0</ele><time>2026-04-18T14:53:06.001Z</time></trkpt><trkpt lat="42.873949244072925" lon="13.807043280179492"><ele>20.0</ele><time>2026-04-18T14:53:07.001Z</time></trkpt><trkpt lat="42.8742132355276" lon="13.807275751730268"><ele>20.0</ele><time>2026-04-18T14:53:08.001Z</time></trkpt><trkpt lat="42.87447846774848" lon="13.80751312058178"><ele>19.5</ele><time>2026-04-18T14:53:09.001Z</time></trkpt><trkpt lat="42.8747385888163" lon="13.807749346489217"><ele>19.0</ele><time>2026-04-18T14:53:10.001Z</time></trkpt><trkpt lat="42.87499882245448" lon="13.807989226306335"><ele>19.0</ele><time>2026-04-18T14:53:11.001Z</time></trkpt><trkpt lat="42.87525838178795" lon="13.808229720798177"><ele>19.0</ele><time>2026-04-18T14:53:12.001Z</time></trkpt><trkpt lat="42.8755197268317" lon="13.808475186434706"><ele>19.0</ele><time>2026-04-18T14:53:13.001Z</time></trkpt><trkpt lat="42.87577534793245" lon="13.808711597968339"><ele>19.0</ele><time>2026-04-18T14:53:14.001Z</time></trkpt><trkpt lat="42.87603324968228" lon="13.80895417814385"><ele>19.0</ele><time>2026-04-18T14:53:15.001Z</time></trkpt><trkpt lat="42.87628420680415" lon="13.809198777754856"><ele>19.0</ele><time>2026-04-18T14:53:16.001Z</time></trkpt><trkpt lat="42.87653284343906" lon="13.809454255106473"><ele>19.0</ele><time>2026-04-18T14:53:17.001Z</time></trkpt><trkpt lat="42.876768130056" lon="13.809722483725542"><ele>19.0</ele><time>2026-04-18T14:53:18.001Z</time></trkpt><trkpt lat="42.876997361110135" lon="13.810004236524442"><ele>19.0</ele><time>2026-04-18T14:53:19.001Z</time></trkpt><trkpt lat="42.87721837949657" lon="13.810291301856806"><ele>19.0</ele><time>2026-04-18T14:53:20.001Z</time></trkpt><trkpt lat="42.87743589614444" lon="13.810587850580626"><ele>19.0</ele><time>2026-04-18T14:53:21.001Z</time></trkpt><trkpt lat="42.877639749146205" lon="13.81089290828541"><ele>19.0</ele><time>2026-04-18T14:53:22.001Z</time></trkpt><trkpt lat="42.877834179559386" lon="13.811205119384969"><ele>19.0</ele><time>2026-04-18T14:53:23.001Z</time></trkpt><trkpt lat="42.878021264475876" lon="13.81152307974619"><ele>19.0</ele><time>2026-04-18T14:53:24Z</time></trkpt><trkpt lat="42.878203099327685" lon="13.811851403199913"><ele>18.5</ele><time>2026-04-18T14:53:25Z</time></trkpt><trkpt lat="42.87837297036245" lon="13.812184412785127"><ele>18.0</ele><time>2026-04-18T14:53:26Z</time></trkpt><trkpt lat="42.878531662019235" lon="13.812524911525877"><ele>20.0</ele><time>2026-04-18T14:53:27Z</time></trkpt><trkpt lat="42.87868307416374" lon="13.812869272638611"><ele>22.0</ele><time>2026-04-18T14:53:28Z</time></trkpt><trkpt lat="42.87883125712196" lon="13.813217485222387"><ele>20.5</ele><time>2026-04-18T14:53:29Z</time></trkpt><trkpt lat="42.87897321650075" lon="13.813569273175416"><ele>19.0</ele><time>2026-04-18T14:53:30Z</time></trkpt><trkpt lat="42.87910447511636" lon="13.813927325167146"><ele>19.0</ele><time>2026-04-18T14:53:31Z</time></trkpt><trkpt lat="42.87922102660348" lon="13.814283957178542"><ele>19.0</ele><time>2026-04-18T14:53:32Z</time></trkpt><trkpt lat="42.87932449341921" lon="13.814647248171557"><ele>21.0</ele><time>2026-04-18T14:53:33Z</time></trkpt><trkpt lat="42.879418888488" lon="13.81501562067836"><ele>23.0</ele><time>2026-04-18T14:53:34Z</time></trkpt><trkpt lat="42.87950363207171" lon="13.815386021567424"><ele>23.5</ele><time>2026-04-18T14:53:35Z</time></trkpt><trkpt lat="42.87957965827696" lon="13.815767454119978"><ele>24.0</ele><time>2026-04-18T14:53:36Z</time></trkpt><trkpt lat="42.879654655530906" lon="13.816140716794223"><ele>24.0</ele><time>2026-04-18T14:53:37Z</time></trkpt><trkpt lat="42.879737118502256" lon="13.816517584661048"><ele>24.0</ele><time>2026-04-18T14:53:38Z</time></trkpt><trkpt lat="42.87982272378505" lon="13.816891541577924"><ele>24.0</ele><time>2026-04-18T14:53:39Z</time></trkpt><trkpt lat="42.87991377560671" lon="13.817269418471977"><ele>24.0</ele><time>2026-04-18T14:53:40Z</time></trkpt><trkpt lat="42.880006034439944" lon="13.817649665732663"><ele>23.5</ele><time>2026-04-18T14:53:41Z</time></trkpt><trkpt lat="42.88009976193227" lon="13.818031268797048"><ele>23.0</ele><time>2026-04-18T14:53:42Z</time></trkpt><trkpt lat="42.880191880826025" lon="13.818413960072396"><ele>22.0</ele><time>2026-04-18T14:53:43Z</time></trkpt><trkpt lat="42.880278653432974" lon="13.818796476473235"><ele>21.0</ele><time>2026-04-18T14:53:44Z</time></trkpt><trkpt lat="42.88036634282995" lon="13.819184568191455"><ele>22.5</ele><time>2026-04-18T14:53:45Z</time></trkpt><trkpt lat="42.88045563619849" lon="13.819569505815794"><ele>24.0</ele><time>2026-04-18T14:53:46Z</time></trkpt><trkpt lat="42.88054833878871" lon="13.819954586283412"><ele>23.0</ele><time>2026-04-18T14:53:47Z</time></trkpt><trkpt lat="42.88064125738552" lon="13.820337544815374"><ele>22.0</ele><time>2026-04-18T14:53:48Z</time></trkpt><trkpt lat="42.880735540379945" lon="13.820722473654548"><ele>22.0</ele><time>2026-04-18T14:53:49Z</time></trkpt><trkpt lat="42.880829417585566" lon="13.821100247314613"><ele>22.0</ele><time>2026-04-18T14:53:50Z</time></trkpt><trkpt lat="42.880919648464264" lon="13.821480649277955"><ele>20.5</ele><time>2026-04-18T14:53:51Z</time></trkpt><trkpt lat="42.881010791057676" lon="13.821862011361251"><ele>19.0</ele><time>2026-04-18T14:53:52Z</time></trkpt><trkpt lat="42.881099026680246" lon="13.822241611496121"><ele>19.0</ele><time>2026-04-18T14:53:53Z</time></trkpt><trkpt lat="42.881183452022626" lon="13.822618312409434"><ele>19.0</ele><time>2026-04-18T14:53:54Z</time></trkpt><trkpt lat="42.88126956762583" lon="13.822995094359744"><ele>19.0</ele><time>2026-04-18T14:53:55Z</time></trkpt><trkpt lat="42.88135179788674" lon="13.823368517065305"><ele>19.0</ele><time>2026-04-18T14:53:56Z</time></trkpt><trkpt lat="42.881435637565964" lon="13.823738637751395"><ele>19.0</ele><time>2026-04-18T14:53:57Z</time></trkpt><trkpt lat="42.881522657330116" lon="13.824106860850371"><ele>19.0</ele><time>2026-04-18T14:53:58Z</time></trkpt><trkpt lat="42.88161052021121" lon="13.824475095533685"><ele>18.5</ele><time>2026-04-18T14:53:59Z</time></trkpt><trkpt lat="42.881700007400084" lon="13.824839073550496"><ele>18.0</ele><time>2026-04-18T14:54:00Z</time></trkpt><trkpt lat="42.88178996978442" lon="13.82520888909745"><ele>18.0</ele><time>2026-04-18T14:54:01Z</time></trkpt><trkpt lat="42.88187843553834" lon="13.825571363762405"><ele>18.0</ele><time>2026-04-18T14:54:02Z</time></trkpt><trkpt lat="42.881968385748024" lon="13.825939293123442"><ele>18.0</ele><time>2026-04-18T14:54:03Z</time></trkpt><trkpt lat="42.882058694863076" lon="13.826311997371851"><ele>18.0</ele><time>2026-04-18T14:54:04Z</time></trkpt><trkpt lat="42.88214538820053" lon="13.826684246211581"><ele>17.0</ele><time>2026-04-18T14:54:05Z</time></trkpt><trkpt lat="42.8822314734652" lon="13.827059033114613"><ele>16.0</ele><time>2026-04-18T14:54:06Z</time></trkpt><trkpt lat="42.88231676795883" lon="13.827435198859629"><ele>16.0</ele><time>2026-04-18T14:54:07Z</time></trkpt><trkpt lat="42.882400929742055" lon="13.82781264161404"><ele>16.0</ele><time>2026-04-18T14:54:08Z</time></trkpt><trkpt lat="42.882484968022275" lon="13.828189101316985"><ele>16.0</ele><time>2026-04-18T14:54:09Z</time></trkpt><trkpt lat="42.8825710655622" lon="13.82857866667019"><ele>16.0</ele><time>2026-04-18T14:54:10Z</time></trkpt><trkpt lat="42.88265316539249" lon="13.828964519061374"><ele>17.0</ele><time>2026-04-18T14:54:11Z</time></trkpt><trkpt lat="42.882734683584026" lon="13.829350229441436"><ele>18.0</ele><time>2026-04-18T14:54:12Z</time></trkpt><trkpt lat="42.88281660063323" lon="13.829740513015201"><ele>18.0</ele><time>2026-04-18T14:54:13Z</time></trkpt><trkpt lat="42.882898671138" lon="13.830125344214366"><ele>18.0</ele><time>2026-04-18T14:54:14Z</time></trkpt><trkpt lat="42.882983437145576" lon="13.830516306784139"><ele>17.5</ele><time>2026-04-18T14:54:15Z</time></trkpt><trkpt lat="42.88306792877558" lon="13.83090709228169"><ele>17.0</ele><time>2026-04-18T14:54:16Z</time></trkpt><trkpt lat="42.8831511987974" lon="13.831295063215391"><ele>16.0</ele><time>2026-04-18T14:54:16.999Z</time></trkpt><trkpt lat="42.88323850825329" lon="13.831685220221855"><ele>15.0</ele><time>2026-04-18T14:54:17.999Z</time></trkpt><trkpt lat="42.88332543096372" lon="13.832074717035898"><ele>15.0</ele><time>2026-04-18T14:54:18.999Z</time></trkpt><trkpt lat="42.88341127461172" lon="13.832462165793325"><ele>15.0</ele><time>2026-04-18T14:54:19.999Z</time></trkpt><trkpt lat="42.883496445184775" lon="13.832849906474628"><ele>15.0</ele><time>2026-04-18T14:54:20.999Z</time></trkpt><trkpt lat="42.8835798592797" lon="13.833237080087155"><ele>15.0</ele><time>2026-04-18T14:54:21.999Z</time></trkpt><trkpt lat="42.88366176996213" lon="13.833623906675419"><ele>15.0</ele><time>2026-04-18T14:54:22.999Z</time></trkpt><trkpt lat="42.88374314140941" lon="13.834011194328262"><ele>15.0</ele><time>2026-04-18T14:54:23.999Z</time></trkpt><trkpt lat="42.883824651367405" lon="13.83439987412209"><ele>15.0</ele><time>2026-04-18T14:54:24.999Z</time></trkpt><trkpt lat="42.88390771879557" lon="13.834788908292326"><ele>15.0</ele><time>2026-04-18T14:54:25.999Z</time></trkpt><trkpt lat="42.88399072676296" lon="13.835179183017097"><ele>15.0</ele><time>2026-04-18T14:54:26.999Z</time></trkpt><trkpt lat="42.88407299212384" lon="13.835562163678803"><ele>15.0</ele><time>2026-04-18T14:54:27.999Z</time></trkpt><trkpt lat="42.88415650574474" lon="13.835950431672249"><ele>14.5</ele><time>2026-04-18T14:54:28.999Z</time></trkpt><trkpt lat="42.8842443125137" lon="13.836342908494212"><ele>14.0</ele><time>2026-04-18T14:54:29.999Z</time></trkpt><trkpt lat="42.88432867949214" lon="13.836728942908913"><ele>15.0</ele><time>2026-04-18T14:54:30.999Z</time></trkpt><trkpt lat="42.884416381255505" lon="13.83712594361775"><ele>16.0</ele><time>2026-04-18T14:54:31.999Z</time></trkpt><trkpt lat="42.88449966186343" lon="13.837512921268567"><ele>14.0</ele><time>2026-04-18T14:54:32.999Z</time></trkpt><trkpt lat="42.884585104675786" lon="13.837908987022711"><ele>12.0</ele><time>2026-04-18T14:54:33.999Z</time></trkpt><trkpt lat="42.88466620314274" lon="13.838300798200233"><ele>12.5</ele><time>2026-04-18T14:54:34.999Z</time></trkpt><trkpt lat="42.88473930663408" lon="13.838695256600252"><ele>13.0</ele><time>2026-04-18T14:54:35.999Z</time></trkpt><trkpt lat="42.884810290697736" lon="13.83909496518457"><ele>13.0</ele><time>2026-04-18T14:54:36.999Z</time></trkpt><trkpt lat="42.884872050170614" lon="13.839491101385667"><ele>13.0</ele><time>2026-04-18T14:54:37.999Z</time></trkpt><trkpt lat="42.88492117455276" lon="13.839889987258474"><ele>14.0</ele><time>2026-04-18T14:54:38.999Z</time></trkpt><trkpt lat="42.88496607763071" lon="13.84029209249181"><ele>15.0</ele><time>2026-04-18T14:54:39.999Z</time></trkpt><trkpt lat="42.88500416697104" lon="13.840694346402618"><ele>14.5</ele><time>2026-04-18T14:54:40.999Z</time></trkpt><trkpt lat="42.88503616455008" lon="13.841097406190112"><ele>14.0</ele><time>2026-04-18T14:54:41.999Z</time></trkpt><trkpt lat="42.88505150547187" lon="13.841490212848756"><ele>14.5</ele><time>2026-04-18T14:54:42.999Z</time></trkpt><trkpt lat="42.88506331688204" lon="13.841889657834923"><ele>15.0</ele><time>2026-04-18T14:54:43.999Z</time></trkpt><trkpt lat="42.88506873964407" lon="13.842287373174385"><ele>14.0</ele><time>2026-04-18T14:54:44.999Z</time></trkpt><trkpt lat="42.885066895478815" lon="13.8426849118713"><ele>13.0</ele><time>2026-04-18T14:54:45.999Z</time></trkpt><trkpt lat="42.88506277446631" lon="13.843078583300947"><ele>13.0</ele><time>2026-04-18T14:54:46.999Z</time></trkpt><trkpt lat="42.88505330943247" lon="13.843472647385985"><ele>13.0</ele><time>2026-04-18T14:54:47.999Z</time></trkpt><trkpt lat="42.885043354501796" lon="13.84386977802737"><ele>13.0</ele><time>2026-04-18T14:54:48.999Z</time></trkpt><trkpt lat="42.885030332001705" lon="13.844264558127513"><ele>13.0</ele><time>2026-04-18T14:54:49.999Z</time></trkpt><trkpt lat="42.885017671116074" lon="13.84466368408042"><ele>13.0</ele><time>2026-04-18T14:54:51.002Z</time></trkpt><trkpt lat="42.885006536614306" lon="13.84506280216743"><ele>13.0</ele><time>2026-04-18T14:54:52.002Z</time></trkpt><trkpt lat="42.88499515112243" lon="13.845464483890586"><ele>13.0</ele><time>2026-04-18T14:54:53.002Z</time></trkpt><trkpt lat="42.88498675209676" lon="13.845862923455186"><ele>13.0</ele><time>2026-04-18T14:54:54.002Z</time></trkpt><trkpt lat="42.88497412618254" lon="13.846264618496049"><ele>12.5</ele><time>2026-04-18T14:54:55.002Z</time></trkpt><trkpt lat="42.884962212111915" lon="13.846669664161025"><ele>12.0</ele><time>2026-04-18T14:54:56.002Z</time></trkpt><trkpt lat="42.884951657116" lon="13.847073768317934"><ele>12.5</ele><time>2026-04-18T14:54:57.002Z</time></trkpt><trkpt lat="42.88494440255985" lon="13.847479615943875"><ele>13.0</ele><time>2026-04-18T14:54:58.002Z</time></trkpt><trkpt lat="42.88494360492058" lon="13.847886618688618"><ele>13.0</ele><time>2026-04-18T14:54:59.001Z</time></trkpt><trkpt lat="42.884945148943665" lon="13.84828810246022"><ele>13.0</ele><time>2026-04-18T14:55:00.001Z</time></trkpt><trkpt lat="42.88496316991163" lon="13.848714115052339"><ele>12.5</ele><time>2026-04-18T14:55:01.001Z</time></trkpt><trkpt lat="42.88499304232039" lon="13.849126549298475"><ele>12.0</ele><time>2026-04-18T14:55:02.001Z</time></trkpt><trkpt lat="42.88503291202624" lon="13.849541609017512"><ele>12.0</ele><time>2026-04-18T14:55:03.001Z</time></trkpt><trkpt lat="42.88508205706483" lon="13.849953643777598"><ele>12.0</ele><time>2026-04-18T14:55:04.001Z</time></trkpt><trkpt lat="42.8851372420759" lon="13.850362431349856"><ele>11.5</ele><time>2026-04-18T14:55:05.001Z</time></trkpt><trkpt lat="42.88520247044585" lon="13.850768171444269"><ele>11.0</ele><time>2026-04-18T14:55:06.001Z</time></trkpt><trkpt lat="42.885277304889385" lon="13.851170521117398"><ele>11.0</ele><time>2026-04-18T14:55:07.001Z</time></trkpt><trkpt lat="42.88536233949902" lon="13.85156971804853"><ele>11.0</ele><time>2026-04-18T14:55:08.001Z</time></trkpt><trkpt lat="42.88545830205877" lon="13.851960432979668"><ele>10.0</ele><time>2026-04-18T14:55:09.001Z</time></trkpt><trkpt lat="42.88556147920408" lon="13.852344766054737"><ele>9.0</ele><time>2026-04-18T14:55:10.001Z</time></trkpt><trkpt lat="42.885674093548204" lon="13.85272428287205"><ele>9.0</ele><time>2026-04-18T14:55:11.001Z</time></trkpt><trkpt lat="42.88579707014314" lon="13.8530979530228"><ele>9.0</ele><time>2026-04-18T14:55:12.001Z</time></trkpt><trkpt lat="42.88593085654469" lon="13.853466355589013"><ele>9.0</ele><time>2026-04-18T14:55:13.001Z</time></trkpt><trkpt lat="42.88607232875098" lon="13.853831044465467"><ele>9.0</ele><time>2026-04-18T14:55:14.001Z</time></trkpt><trkpt lat="42.88621552054529" lon="13.854197873779357"><ele>9.0</ele><time>2026-04-18T14:55:15.001Z</time></trkpt><trkpt lat="42.88635943636913" lon="13.854560562820879"><ele>9.0</ele><time>2026-04-18T14:55:16.001Z</time></trkpt><trkpt lat="42.88650170573691" lon="13.854918660749956"><ele>9.5</ele><time>2026-04-18T14:55:17.001Z</time></trkpt><trkpt lat="42.8866430088217" lon="13.855278865526186"><ele>10.0</ele><time>2026-04-18T14:55:18.001Z</time></trkpt><trkpt lat="42.88678340723834" lon="13.855639653803728"><ele>10.0</ele><time>2026-04-18T14:55:19.001Z</time></trkpt><trkpt lat="42.886923773472695" lon="13.855998317262262"><ele>10.0</ele><time>2026-04-18T14:55:20.001Z</time></trkpt><trkpt lat="42.88706537243246" lon="13.856355271164489"><ele>10.0</ele><time>2026-04-18T14:55:21.001Z</time></trkpt><trkpt lat="42.88720449870408" lon="13.856710645437266"><ele>10.0</ele><time>2026-04-18T14:55:22.001Z</time></trkpt><trkpt lat="42.8873437876375" lon="13.857063948867166"><ele>9.5</ele><time>2026-04-18T14:55:23.001Z</time></trkpt><trkpt lat="42.88748110976841" lon="13.857423220981532"><ele>9.0</ele><time>2026-04-18T14:55:24.001Z</time></trkpt><trkpt lat="42.88761703697986" lon="13.857771341523879"><ele>9.0</ele><time>2026-04-18T14:55:25.001Z</time></trkpt><trkpt lat="42.88775399390076" lon="13.858126107530667"><ele>9.0</ele><time>2026-04-18T14:55:26.001Z</time></trkpt><trkpt lat="42.88788746128541" lon="13.85847879461314"><ele>8.0</ele><time>2026-04-18T14:55:27.001Z</time></trkpt><trkpt lat="42.888018578257956" lon="13.858838554695755"><ele>7.0</ele><time>2026-04-18T14:55:28.001Z</time></trkpt><trkpt lat="42.88815073066819" lon="13.85919857662621"><ele>6.5</ele><time>2026-04-18T14:55:29.001Z</time></trkpt><trkpt lat="42.88827974891036" lon="13.85955189514082"><ele>6.0</ele><time>2026-04-18T14:55:30.001Z</time></trkpt><trkpt lat="42.88841146296294" lon="13.85990713041555"><ele>6.0</ele><time>2026-04-18T14:55:31Z</time></trkpt><trkpt lat="42.8885479457177" lon="13.860259291921105"><ele>6.0</ele><time>2026-04-18T14:55:32Z</time></trkpt><trkpt lat="42.88868638283281" lon="13.86061252542442"><ele>6.0</ele><time>2026-04-18T14:55:33Z</time></trkpt><trkpt lat="42.88882525600962" lon="13.860957913885816"><ele>6.0</ele><time>2026-04-18T14:55:34Z</time></trkpt><trkpt lat="42.88896221820599" lon="13.861308543994374"><ele>6.0</ele><time>2026-04-18T14:55:35Z</time></trkpt><trkpt lat="42.88909723823835" lon="13.86166113382621"><ele>6.0</ele><time>2026-04-18T14:55:36Z</time></trkpt><trkpt lat="42.88922990673273" lon="13.86201286854201"><ele>6.5</ele><time>2026-04-18T14:55:37Z</time></trkpt><trkpt lat="42.8893604543569" lon="13.862364905091914"><ele>7.0</ele><time>2026-04-18T14:55:38Z</time></trkpt><trkpt lat="42.88949331244484" lon="13.862715214479024"><ele>7.0</ele><time>2026-04-18T14:55:39Z</time></trkpt><trkpt lat="42.88962861028298" lon="13.86306655534114"><ele>7.0</ele><time>2026-04-18T14:55:40Z</time></trkpt><trkpt lat="42.88976621629319" lon="13.863415195387876"><ele>6.5</ele><time>2026-04-18T14:55:41Z</time></trkpt><trkpt lat="42.88990234067618" lon="13.863765143899018"><ele>6.0</ele><time>2026-04-18T14:55:42Z</time></trkpt><trkpt lat="42.89004010678364" lon="13.864110657698802"><ele>6.5</ele><time>2026-04-18T14:55:43Z</time></trkpt><trkpt lat="42.89017434223794" lon="13.8644589401222"><ele>7.0</ele><time>2026-04-18T14:55:44Z</time></trkpt><trkpt lat="42.89030891569123" lon="13.864810751549637"><ele>7.5</ele><time>2026-04-18T14:55:45Z</time></trkpt><trkpt lat="42.89044589059226" lon="13.865160935297633"><ele>8.0</ele><time>2026-04-18T14:55:46Z</time></trkpt><trkpt lat="42.890582716484616" lon="13.865510424211891"><ele>8.0</ele><time>2026-04-18T14:55:47Z</time></trkpt><trkpt lat="42.890719947247774" lon="13.865870966345327"><ele>8.0</ele><time>2026-04-18T14:55:48Z</time></trkpt><trkpt lat="42.890857453828566" lon="13.866218489716687"><ele>8.0</ele><time>2026-04-18T14:55:49Z</time></trkpt><trkpt lat="42.89099301131787" lon="13.866569109130117"><ele>8.0</ele><time>2026-04-18T14:55:50Z</time></trkpt><trkpt lat="42.891127978722345" lon="13.86691934746091"><ele>8.0</ele><time>2026-04-18T14:55:51Z</time></trkpt><trkpt lat="42.891261115269124" lon="13.867269131327273"><ele>8.0</ele><time>2026-04-18T14:55:52Z</time></trkpt><trkpt lat="42.89139600415333" lon="13.867611986380227"><ele>7.0</ele><time>2026-04-18T14:55:53Z</time></trkpt><trkpt lat="42.89152731976877" lon="13.867956018624728"><ele>6.0</ele><time>2026-04-18T14:55:54Z</time></trkpt><trkpt lat="42.89165981028561" lon="13.868298995571552"><ele>6.5</ele><time>2026-04-18T14:55:55Z</time></trkpt><trkpt lat="42.89179146758571" lon="13.868635100554057"><ele>7.0</ele><time>2026-04-18T14:55:56Z</time></trkpt><trkpt lat="42.89192241939725" lon="13.868965056351582"><ele>7.0</ele><time>2026-04-18T14:55:57Z</time></trkpt><trkpt lat="42.89204975657755" lon="13.86929583615124"><ele>7.0</ele><time>2026-04-18T14:55:58Z</time></trkpt><trkpt lat="42.89217669451116" lon="13.869620561430875"><ele>7.0</ele><time>2026-04-18T14:55:59Z</time></trkpt><trkpt lat="42.89230318114083" lon="13.869944861006735"><ele>7.0</ele><time>2026-04-18T14:56:00Z</time></trkpt><trkpt lat="42.89242843719994" lon="13.870269711486497"><ele>7.0</ele><time>2026-04-18T14:56:01Z</time></trkpt><trkpt lat="42.89255425388249" lon="13.870599795695064"><ele>7.0</ele><time>2026-04-18T14:56:02Z</time></trkpt><trkpt lat="42.89267836736664" lon="13.870923250487175"><ele>8.0</ele><time>2026-04-18T14:56:03Z</time></trkpt><trkpt lat="42.89280451333106" lon="13.871252530922574"><ele>9.0</ele><time>2026-04-18T14:56:04Z</time></trkpt><trkpt lat="42.892931510138474" lon="13.871582453934716"><ele>8.0</ele><time>2026-04-18T14:56:05Z</time></trkpt><trkpt lat="42.8930613964441" lon="13.87190895100321"><ele>7.0</ele><time>2026-04-18T14:56:06Z</time></trkpt><trkpt lat="42.893191582964974" lon="13.872237645755204"><ele>7.0</ele><time>2026-04-18T14:56:07Z</time></trkpt><trkpt lat="42.89331917924461" lon="13.872565162501767"><ele>7.0</ele><time>2026-04-18T14:56:08Z</time></trkpt><trkpt lat="42.893446149501806" lon="13.872889529208623"><ele>6.5</ele><time>2026-04-18T14:56:09Z</time></trkpt><trkpt lat="42.89357327841385" lon="13.873225175882913"><ele>6.0</ele><time>2026-04-18T14:56:10Z</time></trkpt><trkpt lat="42.89369742635678" lon="13.87354357825339"><ele>5.0</ele><time>2026-04-18T14:56:11Z</time></trkpt><trkpt lat="42.89381899505991" lon="13.873862178017268"><ele>4.0</ele><time>2026-04-18T14:56:12Z</time></trkpt><trkpt lat="42.893935355989385" lon="13.874184421603166"><ele>4.5</ele><time>2026-04-18T14:56:13Z</time></trkpt><trkpt lat="42.89404885064194" lon="13.874512442457908"><ele>5.0</ele><time>2026-04-18T14:56:14Z</time></trkpt><trkpt lat="42.89415367847861" lon="13.874841854506345"><ele>5.0</ele><time>2026-04-18T14:56:15Z</time></trkpt><trkpt lat="42.8942507757409" lon="13.875177682802981"><ele>5.0</ele><time>2026-04-18T14:56:16Z</time></trkpt><trkpt lat="42.89433806828623" lon="13.875513757160165"><ele>5.0</ele><time>2026-04-18T14:56:17Z</time></trkpt><trkpt lat="42.89441624320372" lon="13.875853196835065"><ele>5.0</ele><time>2026-04-18T14:56:18Z</time></trkpt><trkpt lat="42.8944872987635" lon="13.876181031354225"><ele>5.0</ele><time>2026-04-18T14:56:19Z</time></trkpt><trkpt lat="42.894548679133045" lon="13.876486300158755"><ele>5.0</ele><time>2026-04-18T14:56:19.999Z</time></trkpt><trkpt lat="42.89460346271433" lon="13.876775704894483"><ele>4.666666666666667</ele><time>2026-04-18T14:56:20.999Z</time></trkpt><trkpt lat="42.89464902834238" lon="13.877053556455685"><ele>4.333333333333333</ele><time>2026-04-18T14:56:21.999Z</time></trkpt><trkpt lat="42.894686794379076" lon="13.877326417302438"><ele>4.0</ele><time>2026-04-18T14:56:22.999Z</time></trkpt><trkpt lat="42.89471805920927" lon="13.877589707732698"><ele>4.0</ele><time>2026-04-18T14:56:23.999Z</time></trkpt><trkpt lat="42.894749407935194" lon="13.877849679264388"><ele>4.0</ele><time>2026-04-18T14:56:24.999Z</time></trkpt><trkpt lat="42.89477962202499" lon="13.878110728157441"><ele>4.0</ele><time>2026-04-18T14:56:25.999Z</time></trkpt><trkpt lat="42.89481081639996" lon="13.878367138662673"><ele>4.0</ele><time>2026-04-18T14:56:26.999Z</time></trkpt><trkpt lat="42.894841280418625" lon="13.878615573213374"><ele>4.0</ele><time>2026-04-18T14:56:27.999Z</time></trkpt><trkpt lat="42.89487073923782" lon="13.878850312195368"><ele>4.0</ele><time>2026-04-18T14:56:28.999Z</time></trkpt><trkpt lat="42.8948967848394" lon="13.879073797853271"><ele>4.333333333333333</ele><time>2026-04-18T14:56:29.999Z</time></trkpt><trkpt lat="42.894920023919234" lon="13.879286648532505"><ele>4.666666666666667</ele><time>2026-04-18T14:56:30.999Z</time></trkpt><trkpt lat="42.89494399993718" lon="13.879502817923301"><ele>5.0</ele><time>2026-04-18T14:56:31.999Z</time></trkpt><trkpt lat="42.89496716561428" lon="13.879704733150621"><ele>5.0</ele><time>2026-04-18T14:56:32.999Z</time></trkpt><trkpt lat="42.894989828136" lon="13.879896245556925"><ele>5.0</ele><time>2026-04-18T14:56:33.999Z</time></trkpt><trkpt lat="42.89500793801675" lon="13.880087309840158"><ele>5.0</ele><time>2026-04-18T14:56:34.999Z</time></trkpt><trkpt lat="42.89501726499088" lon="13.880270333112428"><ele>5.0</ele><time>2026-04-18T14:56:35.999Z</time></trkpt><trkpt lat="42.89501206122216" lon="13.880448040624183"><ele>4.75</ele><time>2026-04-18T14:56:36.999Z</time></trkpt><trkpt lat="42.89498677448242" lon="13.88061796788221"><ele>4.5</ele><time>2026-04-18T14:56:37.999Z</time></trkpt><trkpt lat="42.8949510831258" lon="13.880779302846602"><ele>4.25</ele><time>2026-04-18T14:56:38.999Z</time></trkpt><trkpt lat="42.89489167720984" lon="13.88091975568572"><ele>4.0</ele><time>2026-04-18T14:56:39.999Z</time></trkpt><trkpt lat="42.89480137326832" lon="13.88103093364256"><ele>3.25</ele><time>2026-04-18T14:56:40.999Z</time></trkpt><trkpt lat="42.89469551318948" lon="13.881106027104272"><ele>2.5</ele><time>2026-04-18T14:56:41.999Z</time></trkpt><trkpt lat="42.89458475157159" lon="13.881134935238284"><ele>1.75</ele><time>2026-04-18T14:56:42.999Z</time></trkpt><trkpt lat="42.89447211625544" lon="13.881112562027496"><ele>1.0</ele><time>2026-04-18T14:56:43.999Z</time></trkpt><trkpt lat="42.89437783950713" lon="13.881048096295872"><ele>1.0</ele><time>2026-04-18T14:56:44.999Z</time></trkpt><trkpt lat="42.894305881075766" lon="13.880942733154763"><ele>1.0</ele><time>2026-04-18T14:56:45.999Z</time></trkpt><trkpt lat="42.89427516598468" lon="13.880794464808977"><ele>1.0</ele><time>2026-04-18T14:56:46.999Z</time></trkpt><trkpt lat="42.894237657206936" lon="13.880648150616924"><ele>1.0</ele><time>2026-04-18T14:56:47.999Z</time></trkpt><trkpt lat="42.89426966869848" lon="13.880491907960051"><ele>1.75</ele><time>2026-04-18T14:56:48.999Z</time></trkpt><trkpt lat="42.89432030566375" lon="13.880348498850235"><ele>2.5</ele><time>2026-04-18T14:56:49.999Z</time></trkpt><trkpt lat="42.89437997002657" lon="13.880205064687877"><ele>3.25</ele><time>2026-04-18T14:56:50.999Z</time></trkpt><trkpt lat="42.89447888536913" lon="13.88009707087338"><ele>4.0</ele><time>2026-04-18T14:56:51.999Z</time></trkpt><trkpt lat="42.89459438956617" lon="13.880022335821609"><ele>4.25</ele><time>2026-04-18T14:56:52.999Z</time></trkpt><trkpt lat="42.89472103181361" lon="13.879979635463537"><ele>4.5</ele><time>2026-04-18T14:56:53.999Z</time></trkpt><trkpt lat="42.89485363504" lon="13.8799583286632"><ele>4.75</ele><time>2026-04-18T14:56:54.999Z</time></trkpt><trkpt lat="42.89498706823985" lon="13.879932710634987"><ele>5.0</ele><time>2026-04-18T14:56:56.002Z</time></trkpt><trkpt lat="42.89512027916704" lon="13.879903416555129"><ele>5.0</ele><time>2026-04-18T14:56:57.002Z</time></trkpt><trkpt lat="42.89526766971647" lon="13.879869187162848"><ele>5.0</ele><time>2026-04-18T14:56:58.002Z</time></trkpt><trkpt lat="42.89539819289223" lon="13.879836575790499"><ele>5.0</ele><time>2026-04-18T14:56:59.002Z</time></trkpt><trkpt lat="42.89551500151769" lon="13.879798180727306"><ele>5.0</ele><time>2026-04-18T14:57:00.002Z</time></trkpt><trkpt lat="42.895643792461975" lon="13.879770251324304"><ele>5.0</ele><time>2026-04-18T14:57:01.002Z</time></trkpt><trkpt lat="42.89576647341542" lon="13.87975440572259"><ele>5.0</ele><time>2026-04-18T14:57:02.002Z</time></trkpt><trkpt lat="42.895891481441005" lon="13.879751203705416"><ele>5.0</ele><time>2026-04-18T14:57:03.002Z</time></trkpt><trkpt lat="42.896010799301955" lon="13.87976513258171"><ele>5.0</ele><time>2026-04-18T14:57:04.001Z</time></trkpt><trkpt lat="42.89612857545371" lon="13.879799416958653"><ele>5.25</ele><time>2026-04-18T14:57:05.001Z</time></trkpt><trkpt lat="42.89624037908504" lon="13.879856269445513"><ele>5.5</ele><time>2026-04-18T14:57:06.001Z</time></trkpt><trkpt lat="42.896346045430846" lon="13.87993594229097"><ele>5.75</ele><time>2026-04-18T14:57:07.001Z</time></trkpt><trkpt lat="42.89644589439291" lon="13.880033534405491"><ele>6.0</ele><time>2026-04-18T14:57:08.001Z</time></trkpt><trkpt lat="42.896542190438716" lon="13.880140965024419"><ele>6.0</ele><time>2026-04-18T14:57:09.001Z</time></trkpt><trkpt lat="42.89663606008961" lon="13.88025122711799"><ele>6.0</ele><time>2026-04-18T14:57:10.001Z</time></trkpt><trkpt lat="42.89672784433376" lon="13.88036417192433"><ele>6.0</ele><time>2026-04-18T14:57:11.001Z</time></trkpt><trkpt lat="42.89680948187958" lon="13.880472079323868"><ele>6.0</ele><time>2026-04-18T14:57:12.001Z</time></trkpt><trkpt lat="42.896899586229054" lon="13.880547486843762"><ele>6.0</ele><time>2026-04-18T14:57:13.001Z</time></trkpt><trkpt lat="42.896975672591054" lon="13.880642140427453"><ele>6.0</ele><time>2026-04-18T14:57:14.001Z</time></trkpt><trkpt lat="42.89704885751925" lon="13.88073180698288"><ele>6.0</ele><time>2026-04-18T14:57:15.001Z</time></trkpt><trkpt lat="42.89711748821851" lon="13.88081483787749"><ele>6.0</ele><time>2026-04-18T14:57:16.001Z</time></trkpt><trkpt lat="42.89717997186665" lon="13.88088742661445"><ele>6.0</ele><time>2026-04-18T14:57:17.001Z</time></trkpt><trkpt lat="42.897243239904704" lon="13.880958987352674"><ele>6.0</ele><time>2026-04-18T14:57:18.001Z</time></trkpt><trkpt lat="42.89730384060872" lon="13.88102521045799"><ele>6.0</ele><time>2026-04-18T14:57:19.001Z</time></trkpt><trkpt lat="42.89736748008166" lon="13.881094271904171"><ele>6.0</ele><time>2026-04-18T14:57:20.001Z</time></trkpt><trkpt lat="42.89742851873075" lon="13.88116025357934"><ele>6.0</ele><time>2026-04-18T14:57:21.001Z</time></trkpt><trkpt lat="42.89748956820851" lon="13.881226222217366"><ele>6.0</ele><time>2026-04-18T14:57:22.001Z</time></trkpt><trkpt lat="42.89754583154636" lon="13.881288556471505"><ele>6.0</ele><time>2026-04-18T14:57:23.001Z</time></trkpt><trkpt lat="42.89763256292103" lon="13.881384860478066"><ele>6.0</ele><time>2026-04-18T14:57:25.001Z</time></trkpt><trkpt lat="42.89764687545751" lon="13.8815030940898"><ele>6.0</ele><time>2026-04-18T14:57:27.001Z</time></trkpt><trkpt lat="42.897713705336926" lon="13.881544460796318"><ele>6.0</ele><time>2026-04-18T14:58:27.999Z</time></trkpt><trkpt lat="42.89777522357872" lon="13.881607036670394"><ele>6.0</ele><time>2026-04-18T14:58:29.999Z</time></trkpt><trkpt lat="42.89785777251841" lon="13.881636818216808"><ele>6.0</ele><time>2026-04-18T14:58:30.999Z</time></trkpt><trkpt lat="42.897938690424716" lon="13.88172766408452"><ele>6.0</ele><time>2026-04-18T14:58:31.999Z</time></trkpt><trkpt lat="42.898021604886694" lon="13.881814529126476"><ele>6.0</ele><time>2026-04-18T14:58:32.999Z</time></trkpt><trkpt lat="42.89811502770678" lon="13.881910877796523"><ele>6.0</ele><time>2026-04-18T14:58:33.999Z</time></trkpt><trkpt lat="42.898205508662706" lon="13.882055042374226"><ele>6.0</ele><time>2026-04-18T14:58:34.999Z</time></trkpt><trkpt lat="42.89825647681084" lon="13.882229588005497"><ele>6.0</ele><time>2026-04-18T14:58:35.999Z</time></trkpt><trkpt lat="42.89833199881744" lon="13.882391794026798"><ele>6.0</ele><time>2026-04-18T14:58:36.999Z</time></trkpt><trkpt lat="42.89839616953574" lon="13.882575117365878"><ele>6.0</ele><time>2026-04-18T14:58:37.999Z</time></trkpt><trkpt lat="42.89845482483595" lon="13.882771552911862"><ele>6.0</ele><time>2026-04-18T14:58:38.999Z</time></trkpt><trkpt lat="42.898511285782256" lon="13.882975110718128"><ele>6.333333333333334</ele><time>2026-04-18T14:58:39.999Z</time></trkpt><trkpt lat="42.898568527848525" lon="13.883180747917029"><ele>6.666666666666667</ele><time>2026-04-18T14:58:40.999Z</time></trkpt><trkpt lat="42.898624232248515" lon="13.883391469599017"><ele>7.0</ele><time>2026-04-18T14:58:41.999Z</time></trkpt><trkpt lat="42.89867982884355" lon="13.883601032686101"><ele>5.666666666666667</ele><time>2026-04-18T14:58:42.999Z</time></trkpt><trkpt lat="42.898734451135184" lon="13.883806053674597"><ele>4.333333333333334</ele><time>2026-04-18T14:58:43.999Z</time></trkpt><trkpt lat="42.89878880664714" lon="13.884002693280499"><ele>3.0</ele><time>2026-04-18T14:58:44.999Z</time></trkpt><trkpt lat="42.89882880964873" lon="13.88418698911312"><ele>2.75</ele><time>2026-04-18T14:58:45.999Z</time></trkpt><trkpt lat="42.89883621551708" lon="13.88437485803504"><ele>2.5</ele><time>2026-04-18T14:58:46.999Z</time></trkpt><trkpt lat="42.89882588337527" lon="13.88453417198236"><ele>2.25</ele><time>2026-04-18T14:58:47.999Z</time></trkpt><trkpt lat="42.898807933454336" lon="13.884685265997794"><ele>2.0</ele><time>2026-04-18T14:58:48.999Z</time></trkpt><trkpt lat="42.89872862660475" lon="13.884799786009745"><ele>2.0</ele><time>2026-04-18T14:58:49.999Z</time></trkpt><trkpt lat="42.89864014792634" lon="13.884893132261135"><ele>2.0</ele><time>2026-04-18T14:58:50.999Z</time></trkpt><trkpt lat="42.898530985333466" lon="13.884939035571477"><ele>2.0</ele><time>2026-04-18T14:58:51.999Z</time></trkpt><trkpt lat="42.898415053281795" lon="13.884944449961857"><ele>2.0</ele><time>2026-04-18T14:58:52.999Z</time></trkpt><trkpt lat="42.89829269646262" lon="13.88492413407907"><ele>2.25</ele><time>2026-04-18T14:58:53.999Z</time></trkpt><trkpt lat="42.89818924107612" lon="13.884820844248864"><ele>2.5</ele><time>2026-04-18T14:58:54.999Z</time></trkpt><trkpt lat="42.89811679567405" lon="13.884685299667872"><ele>2.75</ele><time>2026-04-18T14:58:55.999Z</time></trkpt><trkpt lat="42.89807439731407" lon="13.884519172287934"><ele>3.0</ele><time>2026-04-18T14:58:56.999Z</time></trkpt><trkpt lat="42.89807742970835" lon="13.884349469858694"><ele>3.0</ele><time>2026-04-18T14:58:57.999Z</time></trkpt><trkpt lat="42.898130064252804" lon="13.884184447170066"><ele>3.0</ele><time>2026-04-18T14:58:58.999Z</time></trkpt><trkpt lat="42.89821678484346" lon="13.884036365120293"><ele>3.0</ele><time>2026-04-18T14:58:59.999Z</time></trkpt><trkpt lat="42.898327077225396" lon="13.88390857935919"><ele>3.0</ele><time>2026-04-18T14:59:01.001Z</time></trkpt><trkpt lat="42.898452856536416" lon="13.883798817127229"><ele>3.0</ele><time>2026-04-18T14:59:02.001Z</time></trkpt><trkpt lat="42.89858848860782" lon="13.883695237100573"><ele>3.0</ele><time>2026-04-18T14:59:03.001Z</time></trkpt><trkpt lat="42.89874527590057" lon="13.883618692849806"><ele>3.0</ele><time>2026-04-18T14:59:04.001Z</time></trkpt><trkpt lat="42.89891063521876" lon="13.88354000052893"><ele>3.0</ele><time>2026-04-18T14:59:05.001Z</time></trkpt><trkpt lat="42.89908365393768" lon="13.883453239506387"><ele>3.0</ele><time>2026-04-18T14:59:06.001Z</time></trkpt><trkpt lat="42.89925866040131" lon="13.88336120970134"><ele>3.0</ele><time>2026-04-18T14:59:07.001Z</time></trkpt><trkpt lat="42.899444209418846" lon="13.883266743883464"><ele>3.666666666666667</ele><time>2026-04-18T14:59:08.001Z</time></trkpt><trkpt lat="42.89963732931779" lon="13.88316774203887"><ele>4.333333333333334</ele><time>2026-04-18T14:59:09.001Z</time></trkpt><trkpt lat="42.89983797358275" lon="13.883062880946682"><ele>5.0</ele><time>2026-04-18T14:59:10.001Z</time></trkpt><trkpt lat="42.90004634351186" lon="13.882956273603357"><ele>4.0</ele><time>2026-04-18T14:59:11.001Z</time></trkpt><trkpt lat="42.9002604223686" lon="13.882846369042918"><ele>3.0</ele><time>2026-04-18T14:59:12.001Z</time></trkpt><trkpt lat="42.90047962879439" lon="13.882737283659141"><ele>3.0</ele><time>2026-04-18T14:59:13.001Z</time></trkpt><trkpt lat="42.90070130857374" lon="13.882625416616055"><ele>3.0</ele><time>2026-04-18T14:59:14.001Z</time></trkpt><trkpt lat="42.90092860574341" lon="13.882511873172838"><ele>2.0</ele><time>2026-04-18T14:59:15.001Z</time></trkpt><trkpt lat="42.90115767142335" lon="13.882400320913373"><ele>1.0</ele><time>2026-04-18T14:59:16.001Z</time></trkpt><trkpt lat="42.90139100618331" lon="13.882285408102746"><ele>1.0</ele><time>2026-04-18T14:59:17.001Z</time></trkpt><trkpt lat="42.901625388771585" lon="13.882169054450843"><ele>1.0</ele><time>2026-04-18T14:59:18.001Z</time></trkpt><trkpt lat="42.90186334248917" lon="13.88204982406496"><ele>1.0</ele><time>2026-04-18T14:59:19.001Z</time></trkpt><trkpt lat="42.90210249410408" lon="13.88193219211453"><ele>1.0</ele><time>2026-04-18T14:59:20.001Z</time></trkpt><trkpt lat="42.902340591117394" lon="13.881813239694292"><ele>1.0</ele><time>2026-04-18T14:59:21.001Z</time></trkpt><trkpt lat="42.902578768624764" lon="13.881692341317747"><ele>1.0</ele><time>2026-04-18T14:59:22.001Z</time></trkpt><trkpt lat="42.90281579008102" lon="13.88157429460625"><ele>2.0</ele><time>2026-04-18T14:59:23.001Z</time></trkpt><trkpt lat="42.90305509110231" lon="13.881456408309418"><ele>3.0</ele><time>2026-04-18T14:59:24.001Z</time></trkpt><trkpt lat="42.90329153600141" lon="13.881338968358104"><ele>2.0</ele><time>2026-04-18T14:59:25.001Z</time></trkpt><trkpt lat="42.90353709687471" lon="13.881220514389174"><ele>1.0</ele><time>2026-04-18T14:59:26.001Z</time></trkpt><trkpt lat="42.90378429131087" lon="13.881099220781014"><ele>1.0</ele><time>2026-04-18T14:59:27.001Z</time></trkpt><trkpt lat="42.90402875480516" lon="13.8809759648778"><ele>1.0</ele><time>2026-04-18T14:59:28.001Z</time></trkpt><trkpt lat="42.90427503341983" lon="13.880854057360205"><ele>2.5</ele><time>2026-04-18T14:59:29.001Z</time></trkpt><trkpt lat="42.90451532386678" lon="13.880731223392912"><ele>4.0</ele><time>2026-04-18T14:59:30.001Z</time></trkpt><trkpt lat="42.90475635121087" lon="13.880608704544612"><ele>4.0</ele><time>2026-04-18T14:59:31.001Z</time></trkpt><trkpt lat="42.9050000179152" lon="13.88048639184781"><ele>4.0</ele><time>2026-04-18T14:59:32.001Z</time></trkpt><trkpt lat="42.90524440123314" lon="13.880364944164528"><ele>3.0</ele><time>2026-04-18T14:59:33.001Z</time></trkpt><trkpt lat="42.9054843113198" lon="13.880248895725508"><ele>2.0</ele><time>2026-04-18T14:59:34.001Z</time></trkpt><trkpt lat="42.90572984608426" lon="13.880138979848098"><ele>3.5</ele><time>2026-04-18T14:59:35.001Z</time></trkpt><trkpt lat="42.9059781600516" lon="13.88003442854743"><ele>5.0</ele><time>2026-04-18T14:59:36.001Z</time></trkpt><trkpt lat="42.90622253375571" lon="13.879935808529762"><ele>5.0</ele><time>2026-04-18T14:59:37.001Z</time></trkpt><trkpt lat="42.906471744993986" lon="13.879844180090192"><ele>5.0</ele><time>2026-04-18T14:59:38.001Z</time></trkpt><trkpt lat="42.90672563403909" lon="13.87976224562289"><ele>5.0</ele><time>2026-04-18T14:59:39Z</time></trkpt><trkpt lat="42.906976555934136" lon="13.879689754991368"><ele>5.0</ele><time>2026-04-18T14:59:40Z</time></trkpt><trkpt lat="42.90722985214082" lon="13.879628728298087"><ele>5.0</ele><time>2026-04-18T14:59:41Z</time></trkpt><trkpt lat="42.90748749024055" lon="13.879569619995996"><ele>5.0</ele><time>2026-04-18T14:59:42Z</time></trkpt><trkpt lat="42.90774793449682" lon="13.879517755087868"><ele>6.0</ele><time>2026-04-18T14:59:43Z</time></trkpt><trkpt lat="42.90800702599331" lon="13.879476543728932"><ele>7.0</ele><time>2026-04-18T14:59:44Z</time></trkpt><trkpt lat="42.90826557550219" lon="13.879444877114675"><ele>8.5</ele><time>2026-04-18T14:59:45Z</time></trkpt><trkpt lat="42.90852709467975" lon="13.879423455963462"><ele>10.0</ele><time>2026-04-18T14:59:46Z</time></trkpt><trkpt lat="42.90878584645282" lon="13.879412541768403"><ele>10.0</ele><time>2026-04-18T14:59:47Z</time></trkpt><trkpt lat="42.9090423645783" lon="13.879406918027223"><ele>10.0</ele><time>2026-04-18T14:59:48Z</time></trkpt><trkpt lat="42.90929799111865" lon="13.879411589793458"><ele>11.5</ele><time>2026-04-18T14:59:49Z</time></trkpt><trkpt lat="42.90955457096192" lon="13.879423661234673"><ele>13.0</ele><time>2026-04-18T14:59:50Z</time></trkpt><trkpt lat="42.90980913209719" lon="13.879441486872736"><ele>13.0</ele><time>2026-04-18T14:59:51Z</time></trkpt><trkpt lat="42.910061187670024" lon="13.879465988902444"><ele>13.0</ele><time>2026-04-18T14:59:52Z</time></trkpt><trkpt lat="42.91031746855239" lon="13.879497969374643"><ele>15.0</ele><time>2026-04-18T14:59:53Z</time></trkpt><trkpt lat="42.91056929088565" lon="13.879541490054068"><ele>17.0</ele><time>2026-04-18T14:59:54Z</time></trkpt><trkpt lat="42.910825416348885" lon="13.879594278289943"><ele>20.0</ele><time>2026-04-18T14:59:55Z</time></trkpt><trkpt lat="42.91107935474515" lon="13.87965125638498"><ele>23.0</ele><time>2026-04-18T14:59:56Z</time></trkpt><trkpt lat="42.91132861547405" lon="13.879710992779682"><ele>23.0</ele><time>2026-04-18T14:59:57Z</time></trkpt><trkpt lat="42.91158624366475" lon="13.879770448001556"><ele>23.0</ele><time>2026-04-18T14:59:58Z</time></trkpt><trkpt lat="42.91183001860522" lon="13.879833075129456"><ele>24.5</ele><time>2026-04-18T14:59:59Z</time></trkpt><trkpt lat="42.912077770225345" lon="13.879898543407505"><ele>26.0</ele><time>2026-04-18T15:00:00Z</time></trkpt><trkpt lat="42.91232686333236" lon="13.879965029664287"><ele>28.5</ele><time>2026-04-18T15:00:01Z</time></trkpt><trkpt lat="42.91257631852013" lon="13.880031964833563"><ele>31.0</ele><time>2026-04-18T15:00:02Z</time></trkpt><trkpt lat="42.91282235878586" lon="13.880093090457642"><ele>30.0</ele><time>2026-04-18T15:00:03Z</time></trkpt><trkpt lat="42.9130692885794" lon="13.880153388644299"><ele>29.0</ele><time>2026-04-18T15:00:03.999Z</time></trkpt><trkpt lat="42.91331665694928" lon="13.88021391060197"><ele>32.5</ele><time>2026-04-18T15:00:04.999Z</time></trkpt><trkpt lat="42.91356257443026" lon="13.880276432286369"><ele>36.0</ele><time>2026-04-18T15:00:05.999Z</time></trkpt><trkpt lat="42.91380571921704" lon="13.880341219476632"><ele>36.0</ele><time>2026-04-18T15:00:06.999Z</time></trkpt><trkpt lat="42.91405287578918" lon="13.88040505454335"><ele>36.0</ele><time>2026-04-18T15:00:07.999Z</time></trkpt><trkpt lat="42.91429990233534" lon="13.880466843194066"><ele>43.5</ele><time>2026-04-18T15:00:08.999Z</time></trkpt><trkpt lat="42.91454615356978" lon="13.880527785050862"><ele>51.0</ele><time>2026-04-18T15:00:09.999Z</time></trkpt><trkpt lat="42.91479821808886" lon="13.88058434044385"><ele>51.0</ele><time>2026-04-18T15:00:10.999Z</time></trkpt><trkpt lat="42.91505489167423" lon="13.880630177297965"><ele>51.0</ele><time>2026-04-18T15:00:11.999Z</time></trkpt><trkpt lat="42.91531968293202" lon="13.880671997799068"><ele>56.5</ele><time>2026-04-18T15:00:12.999Z</time></trkpt><trkpt lat="42.915585586276414" lon="13.88071239967032"><ele>62.0</ele><time>2026-04-18T15:00:13.999Z</time></trkpt><trkpt lat="42.91585110708224" lon="13.880751035699488"><ele>66.0</ele><time>2026-04-18T15:00:14.999Z</time></trkpt><trkpt lat="42.91611443344543" lon="13.880789026726006"><ele>70.0</ele><time>2026-04-18T15:00:15.999Z</time></trkpt><trkpt lat="42.91639381691436" lon="13.880829845967265"><ele>41.0</ele><time>2026-04-18T15:00:17.066Z</time></trkpt><trkpt lat="42.923207462095284" lon="13.882118775826132"><ele>31.5</ele><time>2026-04-18T15:00:38.998Z</time></trkpt><trkpt lat="42.92343954081431" lon="13.882113939109487"><ele>22.0</ele><time>2026-04-18T15:00:39.998Z</time></trkpt><trkpt lat="42.92374982965775" lon="13.882013796752302"><ele>22.0</ele><time>2026-04-18T15:00:40.998Z</time></trkpt><trkpt lat="42.92406149982344" lon="13.88196055130146"><ele>22.0</ele><time>2026-04-18T15:00:41.998Z</time></trkpt><trkpt lat="42.92436677451883" lon="13.88191698340471"><ele>20.5</ele><time>2026-04-18T15:00:42.998Z</time></trkpt><trkpt lat="42.92468201622228" lon="13.881862162374969"><ele>19.0</ele><time>2026-04-18T15:00:43.998Z</time></trkpt><trkpt lat="42.924994819067074" lon="13.881811478904043"><ele>30.0</ele><time>2026-04-18T15:00:44.998Z</time></trkpt><trkpt lat="42.925298054409765" lon="13.881759738829269"><ele>41.0</ele><time>2026-04-18T15:00:45.998Z</time></trkpt><trkpt lat="42.925604347563365" lon="13.881709140023913"><ele>48.0</ele><time>2026-04-18T15:00:46.998Z</time></trkpt><trkpt lat="42.92591384601373" lon="13.88166003942391"><ele>55.0</ele><time>2026-04-18T15:00:47.998Z</time></trkpt><trkpt lat="42.92622379297089" lon="13.88160684154269"><ele>55.0</ele><time>2026-04-18T15:00:48.998Z</time></trkpt><trkpt lat="42.926528890530854" lon="13.881538913487281"><ele>55.0</ele><time>2026-04-18T15:00:49.998Z</time></trkpt><trkpt lat="42.92683406544137" lon="13.881448321532279"><ele>55.0</ele><time>2026-04-18T15:00:50.998Z</time></trkpt><trkpt lat="42.9271375505599" lon="13.881336035132607"><ele>55.0</ele><time>2026-04-18T15:00:51.998Z</time></trkpt><trkpt lat="42.927442196893054" lon="13.881210136953925"><ele>52.0</ele><time>2026-04-18T15:00:52.998Z</time></trkpt><trkpt lat="42.9277458906441" lon="13.881075567525679"><ele>49.0</ele><time>2026-04-18T15:00:53.998Z</time></trkpt><trkpt lat="42.928038314373666" lon="13.880913134418615"><ele>52.5</ele><time>2026-04-18T15:00:54.998Z</time></trkpt><trkpt lat="42.92833271700726" lon="13.880733154259726"><ele>56.0</ele><time>2026-04-18T15:00:55.998Z</time></trkpt><trkpt lat="42.92861792724022" lon="13.880532735230384"><ele>56.0</ele><time>2026-04-18T15:00:56.998Z</time></trkpt><trkpt lat="42.92889921530473" lon="13.880329479385454"><ele>56.0</ele><time>2026-04-18T15:00:57.998Z</time></trkpt><trkpt lat="42.929178112037086" lon="13.880115244712092"><ele>57.5</ele><time>2026-04-18T15:00:58.998Z</time></trkpt><trkpt lat="42.929453552145084" lon="13.879899189230835"><ele>59.0</ele><time>2026-04-18T15:00:59.998Z</time></trkpt><trkpt lat="42.929737390617376" lon="13.879688665764967"><ele>59.0</ele><time>2026-04-18T15:01:00.998Z</time></trkpt><trkpt lat="42.93001498392416" lon="13.879478098185103"><ele>59.0</ele><time>2026-04-18T15:01:01.998Z</time></trkpt><trkpt lat="42.9302970053776" lon="13.87926977343851"><ele>61.5</ele><time>2026-04-18T15:01:02.998Z</time></trkpt><trkpt lat="42.930578767088114" lon="13.879058850285627"><ele>64.0</ele><time>2026-04-18T15:01:03.998Z</time></trkpt><trkpt lat="42.930858797673" lon="13.87884494541554"><ele>63.0</ele><time>2026-04-18T15:01:04.997Z</time></trkpt><trkpt lat="42.931141352583715" lon="13.878628210647452"><ele>62.0</ele><time>2026-04-18T15:01:05.997Z</time></trkpt><trkpt lat="42.93142195327759" lon="13.878417712824398"><ele>65.0</ele><time>2026-04-18T15:01:07Z</time></trkpt><trkpt lat="42.931708487682876" lon="13.878215099992717"><ele>68.0</ele><time>2026-04-18T15:01:08Z</time></trkpt><trkpt lat="42.93199957606703" lon="13.878028814815893"><ele>62.0</ele><time>2026-04-18T15:01:09Z</time></trkpt><trkpt lat="42.932296694759906" lon="13.877858477266651"><ele>56.0</ele><time>2026-04-18T15:01:10Z</time></trkpt><trkpt lat="42.93259641651085" lon="13.87771162074299"><ele>60.0</ele><time>2026-04-18T15:01:11Z</time></trkpt><trkpt lat="42.932900897725666" lon="13.87757590638661"><ele>64.0</ele><time>2026-04-18T15:01:12Z</time></trkpt><trkpt lat="42.93320768339293" lon="13.877462283727178"><ele>63.5</ele><time>2026-04-18T15:01:13Z</time></trkpt><trkpt lat="42.93351241287066" lon="13.877363812811737"><ele>63.0</ele><time>2026-04-18T15:01:14Z</time></trkpt><trkpt lat="42.93382840201736" lon="13.87727978919971"><ele>63.0</ele><time>2026-04-18T15:01:15Z</time></trkpt><trkpt lat="42.934147360313574" lon="13.877206778108924"><ele>63.0</ele><time>2026-04-18T15:01:16Z</time></trkpt><trkpt lat="42.934462251072155" lon="13.877133180539962"><ele>61.0</ele><time>2026-04-18T15:01:17Z</time></trkpt><trkpt lat="42.93477609566268" lon="13.877058889238901"><ele>59.0</ele><time>2026-04-18T15:01:18Z</time></trkpt><trkpt lat="42.93509269202573" lon="13.876976058534158"><ele>55.5</ele><time>2026-04-18T15:01:19Z</time></trkpt><trkpt lat="42.93540449966508" lon="13.876889525957479"><ele>52.0</ele><time>2026-04-18T15:01:20Z</time></trkpt><trkpt lat="42.935715992164646" lon="13.876807492773544"><ele>57.5</ele><time>2026-04-18T15:01:21Z</time></trkpt><trkpt lat="42.93603031164134" lon="13.876727415229542"><ele>63.0</ele><time>2026-04-18T15:01:22Z</time></trkpt><trkpt lat="42.93633990724389" lon="13.876644374729478"><ele>63.0</ele><time>2026-04-18T15:01:23Z</time></trkpt><trkpt lat="42.93664546896686" lon="13.87654736154735"><ele>63.0</ele><time>2026-04-18T15:01:24Z</time></trkpt><trkpt lat="42.93694931047878" lon="13.87643395961577"><ele>59.5</ele><time>2026-04-18T15:01:25Z</time></trkpt><trkpt lat="42.937247145954835" lon="13.876294758106733"><ele>56.0</ele><time>2026-04-18T15:01:26Z</time></trkpt><trkpt lat="42.93753295612421" lon="13.87612671525771"><ele>58.0</ele><time>2026-04-18T15:01:27Z</time></trkpt><trkpt lat="42.93780962258484" lon="13.87592778500906"><ele>60.0</ele><time>2026-04-18T15:01:28Z</time></trkpt><trkpt lat="42.93807595216636" lon="13.875705040182858"><ele>60.0</ele><time>2026-04-18T15:01:29Z</time></trkpt><trkpt lat="42.93833188474079" lon="13.875463701318328"><ele>60.0</ele><time>2026-04-18T15:01:30Z</time></trkpt><trkpt lat="42.93857704726308" lon="13.875197590700424"><ele>60.0</ele><time>2026-04-18T15:01:31Z</time></trkpt><trkpt lat="42.93880750413964" lon="13.874909946354128"><ele>60.0</ele><time>2026-04-18T15:01:32Z</time></trkpt><trkpt lat="42.93902173362758" lon="13.874594833377014"><ele>60.5</ele><time>2026-04-18T15:01:33Z</time></trkpt><trkpt lat="42.9392297958905" lon="13.874270216605312"><ele>61.0</ele><time>2026-04-18T15:01:34Z</time></trkpt><trkpt lat="42.93943212208743" lon="13.873936314577051"><ele>61.0</ele><time>2026-04-18T15:01:35Z</time></trkpt><trkpt lat="42.9396300833555" lon="13.873606689106913"><ele>61.0</ele><time>2026-04-18T15:01:36Z</time></trkpt><trkpt lat="42.93983110387223" lon="13.873273849816021"><ele>65.5</ele><time>2026-04-18T15:01:37Z</time></trkpt><trkpt lat="42.94003301527419" lon="13.872946506368587"><ele>70.0</ele><time>2026-04-18T15:01:38Z</time></trkpt><trkpt lat="42.94023286264343" lon="13.872619163030562"><ele>72.5</ele><time>2026-04-18T15:01:39Z</time></trkpt><trkpt lat="42.940432492482536" lon="13.872290417255495"><ele>75.0</ele><time>2026-04-18T15:01:40Z</time></trkpt><trkpt lat="42.94063327771548" lon="13.871953898794942"><ele>80.0</ele><time>2026-04-18T15:01:41Z</time></trkpt><trkpt lat="42.940833543740176" lon="13.871619990692796"><ele>85.0</ele><time>2026-04-18T15:01:41.999Z</time></trkpt><trkpt lat="42.94103879895787" lon="13.871288630650296"><ele>89.5</ele><time>2026-04-18T15:01:42.999Z</time></trkpt><trkpt lat="42.94124474254966" lon="13.870955545384321"><ele>94.0</ele><time>2026-04-18T15:01:43.999Z</time></trkpt><trkpt lat="42.94145248729365" lon="13.870623781126696"><ele>101.0</ele><time>2026-04-18T15:01:44.999Z</time></trkpt><trkpt lat="42.941655910907244" lon="13.870298075482534"><ele>108.0</ele><time>2026-04-18T15:01:45.999Z</time></trkpt><trkpt lat="42.94186934316372" lon="13.869973804606106"><ele>116.0</ele><time>2026-04-18T15:01:46.999Z</time></trkpt><trkpt lat="42.94208450632453" lon="13.869627343932164"><ele>124.0</ele><time>2026-04-18T15:01:48.061Z</time></trkpt><trkpt lat="42.942291753228886" lon="13.869297006585041"><ele>127.0</ele><time>2026-04-18T15:01:49.059Z</time></trkpt><trkpt lat="42.942507762112186" lon="13.868976775168708"><ele>130.0</ele><time>2026-04-18T15:01:50.062Z</time></trkpt><trkpt lat="42.94272944611329" lon="13.868671983246728"><ele>35.0</ele><time>2026-04-18T15:01:51.056Z</time></trkpt><trkpt lat="42.94603857992056" lon="13.866792783266808"><ele>39.0</ele><time>2026-04-18T15:02:01.999Z</time></trkpt><trkpt lat="42.94638652144383" lon="13.866725613603345"><ele>43.0</ele><time>2026-04-18T15:02:02.999Z</time></trkpt><trkpt lat="42.94670128907225" lon="13.866745609935412"><ele>39.5</ele><time>2026-04-18T15:02:03.999Z</time></trkpt><trkpt lat="42.94702080298863" lon="13.866776804450229"><ele>36.0</ele><time>2026-04-18T15:02:04.999Z</time></trkpt><trkpt lat="42.947344421220485" lon="13.866861574905279"><ele>34.5</ele><time>2026-04-18T15:02:05.999Z</time></trkpt><trkpt lat="42.947669864146675" lon="13.8669577078014"><ele>33.0</ele><time>2026-04-18T15:02:06.999Z</time></trkpt><trkpt lat="42.94798520729298" lon="13.867090420763406"><ele>33.0</ele><time>2026-04-18T15:02:07.999Z</time></trkpt><trkpt lat="42.94829536725237" lon="13.867254164828262"><ele>33.0</ele><time>2026-04-18T15:02:08.999Z</time></trkpt><trkpt lat="42.94859536784436" lon="13.867435572699613"><ele>25.0</ele><time>2026-04-18T15:02:09.999Z</time></trkpt><trkpt lat="42.94888575582391" lon="13.867619679134092"><ele>17.0</ele><time>2026-04-18T15:02:10.999Z</time></trkpt><trkpt lat="42.94916946180504" lon="13.86782350124987"><ele>22.0</ele><time>2026-04-18T15:02:11.999Z</time></trkpt><trkpt lat="42.94945099508974" lon="13.868035726347161"><ele>27.0</ele><time>2026-04-18T15:02:12.999Z</time></trkpt><trkpt lat="42.94973252975983" lon="13.86824380757953"><ele>27.0</ele><time>2026-04-18T15:02:13.999Z</time></trkpt><trkpt lat="42.95001762401883" lon="13.86843595388094"><ele>27.0</ele><time>2026-04-18T15:02:14.999Z</time></trkpt><trkpt lat="42.95030484408587" lon="13.868626466250484"><ele>37.5</ele><time>2026-04-18T15:02:15.999Z</time></trkpt><trkpt lat="42.9505888342726" lon="13.868804161330136"><ele>48.0</ele><time>2026-04-18T15:02:16.999Z</time></trkpt><trkpt lat="42.950875581982345" lon="13.868980994235109"><ele>46.5</ele><time>2026-04-18T15:02:17.999Z</time></trkpt><trkpt lat="42.951159881813886" lon="13.869155108221511"><ele>45.0</ele><time>2026-04-18T15:02:18.999Z</time></trkpt><trkpt lat="42.95144465148765" lon="13.869319764186905"><ele>48.0</ele><time>2026-04-18T15:02:19.999Z</time></trkpt><trkpt lat="42.95173356368415" lon="13.869470350945532"><ele>51.0</ele><time>2026-04-18T15:02:20.999Z</time></trkpt><trkpt lat="42.95202868054381" lon="13.869591357747124"><ele>51.0</ele><time>2026-04-18T15:02:21.998Z</time></trkpt><trkpt lat="42.95233027899588" lon="13.869686930294492"><ele>51.0</ele><time>2026-04-18T15:02:22.998Z</time></trkpt><trkpt lat="42.95263795905582" lon="13.869758291344732"><ele>53.5</ele><time>2026-04-18T15:02:23.998Z</time></trkpt><trkpt lat="42.95294738292605" lon="13.86979597517877"><ele>56.0</ele><time>2026-04-18T15:02:24.998Z</time></trkpt><trkpt lat="42.953258028932076" lon="13.86981509034168"><ele>57.0</ele><time>2026-04-18T15:02:25.998Z</time></trkpt><trkpt lat="42.953567023031574" lon="13.869845685015948"><ele>58.0</ele><time>2026-04-18T15:02:26.998Z</time></trkpt><trkpt lat="42.95387696468459" lon="13.869875872396687"><ele>58.0</ele><time>2026-04-18T15:02:27.998Z</time></trkpt><trkpt lat="42.95418580163975" lon="13.869912536863529"><ele>58.0</ele><time>2026-04-18T15:02:28.998Z</time></trkpt><trkpt lat="42.95449423845187" lon="13.869962725771307"><ele>56.0</ele><time>2026-04-18T15:02:29.998Z</time></trkpt><trkpt lat="42.954797862985416" lon="13.870027983263634"><ele>54.0</ele><time>2026-04-18T15:02:30.998Z</time></trkpt><trkpt lat="42.95510289435027" lon="13.870113192684554"><ele>54.0</ele><time>2026-04-18T15:02:31.998Z</time></trkpt><trkpt lat="42.955406281860746" lon="13.870209434620964"><ele>54.0</ele><time>2026-04-18T15:02:32.998Z</time></trkpt><trkpt lat="42.95570719666536" lon="13.870308327709974"><ele>54.5</ele><time>2026-04-18T15:02:33.998Z</time></trkpt><trkpt lat="42.956011484841575" lon="13.870404670610467"><ele>55.0</ele><time>2026-04-18T15:02:34.998Z</time></trkpt><trkpt lat="42.956315110709994" lon="13.870500759063912"><ele>55.0</ele><time>2026-04-18T15:02:35.998Z</time></trkpt><trkpt lat="42.95661849038323" lon="13.870598687373036"><ele>55.0</ele><time>2026-04-18T15:02:36.998Z</time></trkpt><trkpt lat="42.95692406913134" lon="13.870692837069148"><ele>56.5</ele><time>2026-04-18T15:02:37.998Z</time></trkpt><trkpt lat="42.95722842184199" lon="13.870784852908287"><ele>58.0</ele><time>2026-04-18T15:02:38.998Z</time></trkpt><trkpt lat="42.95753605589376" lon="13.870876449530334"><ele>56.0</ele><time>2026-04-18T15:02:39.998Z</time></trkpt><trkpt lat="42.957841818594254" lon="13.870965793545558"><ele>54.0</ele><time>2026-04-18T15:02:40.998Z</time></trkpt><trkpt lat="42.95814661558091" lon="13.871043669550184"><ele>55.5</ele><time>2026-04-18T15:02:41.998Z</time></trkpt><trkpt lat="42.9584540651497" lon="13.871102052993281"><ele>57.0</ele><time>2026-04-18T15:02:42.998Z</time></trkpt><trkpt lat="42.958763243932275" lon="13.871135205845848"><ele>57.0</ele><time>2026-04-18T15:02:43.998Z</time></trkpt><trkpt lat="42.95907554377371" lon="13.871146744102733"><ele>57.0</ele><time>2026-04-18T15:02:44.998Z</time></trkpt><trkpt lat="42.95938438253616" lon="13.87113494514326"><ele>53.5</ele><time>2026-04-18T15:02:45.998Z</time></trkpt><trkpt lat="42.959692818270575" lon="13.871098200811405"><ele>50.0</ele><time>2026-04-18T15:02:46.998Z</time></trkpt><trkpt lat="42.95999885776495" lon="13.871038595153156"><ele>48.0</ele><time>2026-04-18T15:02:47.998Z</time></trkpt><trkpt lat="42.9602994083073" lon="13.870955801663525"><ele>46.0</ele><time>2026-04-18T15:02:48.998Z</time></trkpt><trkpt lat="42.96059297345774" lon="13.87085062667392"><ele>46.0</ele><time>2026-04-18T15:02:49.998Z</time></trkpt><trkpt lat="42.96088430457781" lon="13.870727139368954"><ele>46.0</ele><time>2026-04-18T15:02:50.998Z</time></trkpt><trkpt lat="42.9611740442155" lon="13.870589911105737"><ele>46.0</ele><time>2026-04-18T15:02:51.998Z</time></trkpt><trkpt lat="42.9614654020151" lon="13.87045265552174"><ele>46.0</ele><time>2026-04-18T15:02:52.998Z</time></trkpt><trkpt lat="42.96175772900793" lon="13.870314766116007"><ele>47.0</ele><time>2026-04-18T15:02:53.998Z</time></trkpt><trkpt lat="42.96205197970844" lon="13.870181057856431"><ele>48.0</ele><time>2026-04-18T15:02:54.998Z</time></trkpt><trkpt lat="42.96234980312148" lon="13.870050655426004"><ele>44.5</ele><time>2026-04-18T15:02:55.998Z</time></trkpt><trkpt lat="42.96264956438186" lon="13.86992914315477"><ele>41.0</ele><time>2026-04-18T15:02:56.998Z</time></trkpt><trkpt lat="42.96295596059631" lon="13.869822277133103"><ele>41.0</ele><time>2026-04-18T15:02:57.998Z</time></trkpt><trkpt lat="42.96326627382151" lon="13.86973404752677"><ele>41.0</ele><time>2026-04-18T15:02:58.998Z</time></trkpt><trkpt lat="42.963583295581955" lon="13.869673938443182"><ele>36.0</ele><time>2026-04-18T15:02:59.998Z</time></trkpt><trkpt lat="42.96390289664278" lon="13.869641249414334"><ele>31.0</ele><time>2026-04-18T15:03:00.998Z</time></trkpt><trkpt lat="42.964223954929665" lon="13.869640994149627"><ele>27.5</ele><time>2026-04-18T15:03:01.998Z</time></trkpt><trkpt lat="42.96453982555082" lon="13.869663745942857"><ele>24.0</ele><time>2026-04-18T15:03:02.998Z</time></trkpt><trkpt lat="42.96485445366291" lon="13.869705967018719"><ele>27.0</ele><time>2026-04-18T15:03:03.997Z</time></trkpt><trkpt lat="42.96516681733393" lon="13.869763657962094"><ele>30.0</ele><time>2026-04-18T15:03:04.997Z</time></trkpt><trkpt lat="42.96548157435981" lon="13.869824526026413"><ele>30.0</ele><time>2026-04-18T15:03:05.997Z</time></trkpt><trkpt lat="42.96579670078621" lon="13.869887560093515"><ele>30.0</ele><time>2026-04-18T15:03:06.997Z</time></trkpt><trkpt lat="42.966107490427184" lon="13.869948709811249"><ele>31.0</ele><time>2026-04-18T15:03:07.997Z</time></trkpt><trkpt lat="42.96642579542122" lon="13.870010657170619"><ele>32.0</ele><time>2026-04-18T15:03:08.997Z</time></trkpt><trkpt lat="42.966743793449126" lon="13.870070229115687"><ele>26.0</ele><time>2026-04-18T15:03:09.997Z</time></trkpt><trkpt lat="42.96705734275805" lon="13.870127504195677"><ele>20.0</ele><time>2026-04-18T15:03:10.997Z</time></trkpt><trkpt lat="42.96737457573421" lon="13.870184642601254"><ele>20.0</ele><time>2026-04-18T15:03:11.997Z</time></trkpt><trkpt lat="42.967694938137576" lon="13.870246265117142"><ele>20.0</ele><time>2026-04-18T15:03:13Z</time></trkpt><trkpt lat="42.968007913171036" lon="13.87030554312288"><ele>20.0</ele><time>2026-04-18T15:03:14Z</time></trkpt><trkpt lat="42.96832365717272" lon="13.870365894132243"><ele>20.0</ele><time>2026-04-18T15:03:15Z</time></trkpt><trkpt lat="42.96864032057486" lon="13.870421300628568"><ele>20.5</ele><time>2026-04-18T15:03:16Z</time></trkpt><trkpt lat="42.96895778035411" lon="13.870466578175634"><ele>21.0</ele><time>2026-04-18T15:03:17Z</time></trkpt><trkpt lat="42.969278287946146" lon="13.87049548756238"><ele>21.0</ele><time>2026-04-18T15:03:18Z</time></trkpt><trkpt lat="42.96959577975015" lon="13.870497329699475"><ele>21.0</ele><time>2026-04-18T15:03:19Z</time></trkpt><trkpt lat="42.96991552399747" lon="13.870465445951249"><ele>18.5</ele><time>2026-04-18T15:03:20Z</time></trkpt><trkpt lat="42.970233078416456" lon="13.870417336884227"><ele>16.0</ele><time>2026-04-18T15:03:21Z</time></trkpt><trkpt lat="42.97054817840152" lon="13.870343241574227"><ele>17.0</ele><time>2026-04-18T15:03:22Z</time></trkpt><trkpt lat="42.970859801561964" lon="13.870246047579409"><ele>18.0</ele><time>2026-04-18T15:03:23Z</time></trkpt><trkpt lat="42.97116416072328" lon="13.870129035222229"><ele>24.5</ele><time>2026-04-18T15:03:24Z</time></trkpt><trkpt lat="42.97146402443884" lon="13.869987543466126"><ele>31.0</ele><time>2026-04-18T15:03:25Z</time></trkpt><trkpt lat="42.971748510867485" lon="13.869830926433766"><ele>31.0</ele><time>2026-04-18T15:03:26Z</time></trkpt><trkpt lat="42.97202350830855" lon="13.869652965509594"><ele>31.0</ele><time>2026-04-18T15:03:27Z</time></trkpt><trkpt lat="42.972292661784586" lon="13.869463569449321"><ele>29.5</ele><time>2026-04-18T15:03:28Z</time></trkpt><trkpt lat="42.97256062657227" lon="13.869278458634529"><ele>28.0</ele><time>2026-04-18T15:03:29Z</time></trkpt><trkpt lat="42.972829150369485" lon="13.869094916833758"><ele>33.0</ele><time>2026-04-18T15:03:30Z</time></trkpt><trkpt lat="42.97310771127908" lon="13.868888359171041"><ele>38.0</ele><time>2026-04-18T15:03:31.057Z</time></trkpt><trkpt lat="42.97336840746948" lon="13.868686461817584"><ele>38.0</ele><time>2026-04-18T15:03:32.053Z</time></trkpt><trkpt lat="42.97363032070554" lon="13.868508219458676"><ele>38.0</ele><time>2026-04-18T15:03:33.049Z</time></trkpt><trkpt lat="42.973881639302526" lon="13.86832672046914"><ele>49.0</ele><time>2026-04-18T15:03:34.052Z</time></trkpt><trkpt lat="42.97414201977809" lon="13.868145924426655"><ele>60.0</ele><time>2026-04-18T15:03:35.051Z</time></trkpt><trkpt lat="42.97768698496883" lon="13.86456093226281"><ele>34.5</ele><time>2026-04-18T15:03:48Z</time></trkpt><trkpt lat="42.977949812765985" lon="13.86406270209015"><ele>9.0</ele><time>2026-04-18T15:03:49Z</time></trkpt><trkpt lat="42.9781520356418" lon="13.863883853320146"><ele>8.5</ele><time>2026-04-18T15:03:49.999Z</time></trkpt><trkpt lat="42.97844361305698" lon="13.86362473527513"><ele>8.0</ele><time>2026-04-18T15:03:50.999Z</time></trkpt><trkpt lat="42.97873190111335" lon="13.863420746019267"><ele>8.0</ele><time>2026-04-18T15:03:51.999Z</time></trkpt><trkpt lat="42.97902887527417" lon="13.86320503521983"><ele>8.0</ele><time>2026-04-18T15:03:52.999Z</time></trkpt><trkpt lat="42.97934394920802" lon="13.863015021038175"><ele>8.5</ele><time>2026-04-18T15:03:53.999Z</time></trkpt><trkpt lat="42.979675080059906" lon="13.86284979857633"><ele>9.0</ele><time>2026-04-18T15:03:54.999Z</time></trkpt><trkpt lat="42.98001424344023" lon="13.862702881840985"><ele>9.5</ele><time>2026-04-18T15:03:55.999Z</time></trkpt><trkpt lat="42.980349098250315" lon="13.862580223094772"><ele>10.0</ele><time>2026-04-18T15:03:56.999Z</time></trkpt><trkpt lat="42.980684999507865" lon="13.86248214910607"><ele>10.5</ele><time>2026-04-18T15:03:57.999Z</time></trkpt><trkpt lat="42.98102100531012" lon="13.862405244157223"><ele>11.0</ele><time>2026-04-18T15:03:58.999Z</time></trkpt><trkpt lat="42.9813549979966" lon="13.862346838159159"><ele>13.0</ele><time>2026-04-18T15:03:59.999Z</time></trkpt><trkpt lat="42.981688162471166" lon="13.862304101831562"><ele>15.0</ele><time>2026-04-18T15:04:00.999Z</time></trkpt><trkpt lat="42.9820162914208" lon="13.86226777868334"><ele>15.0</ele><time>2026-04-18T15:04:01.999Z</time></trkpt><trkpt lat="42.9823412602083" lon="13.86223636031789"><ele>15.0</ele><time>2026-04-18T15:04:02.999Z</time></trkpt><trkpt lat="42.982662948264306" lon="13.8622046531534"><ele>17.0</ele><time>2026-04-18T15:04:03.999Z</time></trkpt><trkpt lat="42.982987207815086" lon="13.862169963278516"><ele>19.0</ele><time>2026-04-18T15:04:04.999Z</time></trkpt><trkpt lat="42.98331122859978" lon="13.862132345873459"><ele>20.0</ele><time>2026-04-18T15:04:05.999Z</time></trkpt><trkpt lat="42.98363353562437" lon="13.862100898436339"><ele>21.0</ele><time>2026-04-18T15:04:06.999Z</time></trkpt><trkpt lat="42.98395875489943" lon="13.862071829894097"><ele>23.5</ele><time>2026-04-18T15:04:07.999Z</time></trkpt><trkpt lat="42.98428191404769" lon="13.86204552605823"><ele>26.0</ele><time>2026-04-18T15:04:08.999Z</time></trkpt><trkpt lat="42.984604300560804" lon="13.86201861819681"><ele>26.0</ele><time>2026-04-18T15:04:09.999Z</time></trkpt><trkpt lat="42.98492262190128" lon="13.861992084716492"><ele>26.0</ele><time>2026-04-18T15:04:10.999Z</time></trkpt><trkpt lat="42.98524505161495" lon="13.861967081003819"><ele>29.0</ele><time>2026-04-18T15:04:11.999Z</time></trkpt><trkpt lat="42.98556296663604" lon="13.861939946323627"><ele>32.0</ele><time>2026-04-18T15:04:12.999Z</time></trkpt><trkpt lat="42.98588199888795" lon="13.86191321440899"><ele>38.0</ele><time>2026-04-18T15:04:13.999Z</time></trkpt><trkpt lat="42.98620262991451" lon="13.861886909741191"><ele>44.0</ele><time>2026-04-18T15:04:14.999Z</time></trkpt><trkpt lat="42.986523630886936" lon="13.861860300054895"><ele>47.5</ele><time>2026-04-18T15:04:15.999Z</time></trkpt><trkpt lat="42.98684408057745" lon="13.86182937577444"><ele>51.0</ele><time>2026-04-18T15:04:16.999Z</time></trkpt><trkpt lat="42.98716448307394" lon="13.861789446880266"><ele>53.5</ele><time>2026-04-18T15:04:17.999Z</time></trkpt><trkpt lat="42.98748852621531" lon="13.86174780277966"><ele>56.0</ele><time>2026-04-18T15:04:18.999Z</time></trkpt><trkpt lat="42.98781763281427" lon="13.861703440147188"><ele>59.0</ele><time>2026-04-18T15:04:19.999Z</time></trkpt><trkpt lat="42.988149168031356" lon="13.861655175015253"><ele>62.0</ele><time>2026-04-18T15:04:20.999Z</time></trkpt><trkpt lat="42.988485255857356" lon="13.861601531454841"><ele>66.0</ele><time>2026-04-18T15:04:21.999Z</time></trkpt><trkpt lat="42.98884215602305" lon="13.86153928149714"><ele>70.0</ele><time>2026-04-18T15:04:23.053Z</time></trkpt><trkpt lat="42.98918672111506" lon="13.861473784612317"><ele>66.5</ele><time>2026-04-18T15:04:24.056Z</time></trkpt><trkpt lat="42.989528267390504" lon="13.861405741618777"><ele>63.0</ele><time>2026-04-18T15:04:25.043Z</time></trkpt><trkpt lat="42.99815467953726" lon="13.86663042578381"><ele>64.0</ele><time>2026-04-18T15:04:53.998Z</time></trkpt><trkpt lat="42.998453807633446" lon="13.866769774847818"><ele>65.0</ele><time>2026-04-18T15:04:54.998Z</time></trkpt><trkpt lat="42.99869901527056" lon="13.866965198684806"><ele>54.0</ele><time>2026-04-18T15:04:55.998Z</time></trkpt><trkpt lat="42.99898353017145" lon="13.867031307985075"><ele>43.0</ele><time>2026-04-18T15:04:56.998Z</time></trkpt><trkpt lat="42.99927859362997" lon="13.867058543763049"><ele>43.0</ele><time>2026-04-18T15:04:57.998Z</time></trkpt><trkpt lat="42.99956685555481" lon="13.867055646002184"><ele>43.0</ele><time>2026-04-18T15:04:58.998Z</time></trkpt><trkpt lat="42.99986382778657" lon="13.867009672381187"><ele>43.0</ele><time>2026-04-18T15:04:59.998Z</time></trkpt><trkpt lat="43.000158798091206" lon="13.866929546667592"><ele>43.0</ele><time>2026-04-18T15:05:00.998Z</time></trkpt><trkpt lat="43.000449210677246" lon="13.866814514136038"><ele>46.5</ele><time>2026-04-18T15:05:01.998Z</time></trkpt><trkpt lat="43.00072944295835" lon="13.866676915908224"><ele>50.0</ele><time>2026-04-18T15:05:02.998Z</time></trkpt><trkpt lat="43.00100547044949" lon="13.866529089014733"><ele>50.0</ele><time>2026-04-18T15:05:03.998Z</time></trkpt><trkpt lat="43.00127421217897" lon="13.866351240426978"><ele>50.0</ele><time>2026-04-18T15:05:04.998Z</time></trkpt><trkpt lat="43.001530269290434" lon="13.866141671866217"><ele>52.0</ele><time>2026-04-18T15:05:05.998Z</time></trkpt><trkpt lat="43.001773998646975" lon="13.865904260620729"><ele>54.0</ele><time>2026-04-18T15:05:06.998Z</time></trkpt><trkpt lat="43.00201516366783" lon="13.865647870197098"><ele>54.0</ele><time>2026-04-18T15:05:07.998Z</time></trkpt><trkpt lat="43.00225223315649" lon="13.865382664434263"><ele>54.0</ele><time>2026-04-18T15:05:08.998Z</time></trkpt><trkpt lat="43.00248907282379" lon="13.865121613014312"><ele>56.0</ele><time>2026-04-18T15:05:09.998Z</time></trkpt><trkpt lat="43.00272549757983" lon="13.864854158487564"><ele>58.0</ele><time>2026-04-18T15:05:10.997Z</time></trkpt><trkpt lat="43.00296254798437" lon="13.864605425397995"><ele>58.0</ele><time>2026-04-18T15:05:11.997Z</time></trkpt><trkpt lat="43.00321616390712" lon="13.864306627281334"><ele>58.0</ele><time>2026-04-18T15:05:12.997Z</time></trkpt><trkpt lat="43.00346372584431" lon="13.86401484497791"><ele>76.0</ele><time>2026-04-18T15:05:13.997Z</time></trkpt><trkpt lat="43.00371326555297" lon="13.863713900802237"><ele>94.0</ele><time>2026-04-18T15:05:14.997Z</time></trkpt><trkpt lat="43.00394999970522" lon="13.86344423138174"><ele>101.0</ele><time>2026-04-18T15:05:15.997Z</time></trkpt><trkpt lat="43.00418745041572" lon="13.863161693877338"><ele>108.0</ele><time>2026-04-18T15:05:16.997Z</time></trkpt><trkpt lat="43.004443867691336" lon="13.862861580969728"><ele>109.5</ele><time>2026-04-18T15:05:18.055Z</time></trkpt><trkpt lat="43.00464709176446" lon="13.86259658600062"><ele>111.0</ele><time>2026-04-18T15:05:19.054Z</time></trkpt><trkpt lat="43.00491199960277" lon="13.862368055318505"><ele>111.0</ele><time>2026-04-18T15:05:20.054Z</time></trkpt><trkpt lat="43.00517427742162" lon="13.862139998799861"><ele>111.0</ele><time>2026-04-18T15:05:21.055Z</time></trkpt><trkpt lat="43.00544074575557" lon="13.86193186560843"><ele>86.0</ele><time>2026-04-18T15:05:22.053Z</time></trkpt><trkpt lat="43.007317147759515" lon="13.860984837315103"><ele>67.0</ele><time>2026-04-18T15:05:28.997Z</time></trkpt><trkpt lat="43.00760493572912" lon="13.860870387174081"><ele>48.0</ele><time>2026-04-18T15:05:30Z</time></trkpt><trkpt lat="43.008140957432694" lon="13.860783914334252"><ele>52.5</ele><time>2026-04-18T15:05:31Z</time></trkpt><trkpt lat="43.008480788828194" lon="13.860620199818712"><ele>57.0</ele><time>2026-04-18T15:05:32Z</time></trkpt><trkpt lat="43.01296060253528" lon="13.858679420638563"><ele>64.5</ele><time>2026-04-18T15:05:46Z</time></trkpt><trkpt lat="43.01328029551234" lon="13.858543536303573"><ele>72.0</ele><time>2026-04-18T15:05:47Z</time></trkpt><trkpt lat="43.01361143153354" lon="13.858405405310862"><ele>104.0</ele><time>2026-04-18T15:05:48Z</time></trkpt><trkpt lat="43.01700517924534" lon="13.856342622802533"><ele>115.0</ele><time>2026-04-18T15:05:56.99Z</time></trkpt><trkpt lat="43.017726671583326" lon="13.855837685809393"><ele>114.0</ele><time>2026-04-18T15:05:57.992Z</time></trkpt><trkpt lat="43.01844751341362" lon="13.85533389424929"><ele>102.0</ele><time>2026-04-18T15:05:58.992Z</time></trkpt><trkpt lat="43.01916808280281" lon="13.854829359454026"><ele>102.0</ele><time>2026-04-18T15:05:59.992Z</time></trkpt><trkpt lat="43.01988709416046" lon="13.85432084877365"><ele>109.0</ele><time>2026-04-18T15:06:00.991Z</time></trkpt><trkpt lat="43.020610106103646" lon="13.853822634260682"><ele>94.0</ele><time>2026-04-18T15:06:01.992Z</time></trkpt><trkpt lat="43.02135847292783" lon="13.853404499391704"><ele>39.0</ele><time>2026-04-18T15:06:02.991Z</time></trkpt><trkpt lat="43.022955344034955" lon="13.852895517293591"><ele>39.0</ele><time>2026-04-18T15:06:17.999Z</time></trkpt><trkpt lat="43.023230329330026" lon="13.852817223297366"><ele>39.0</ele><time>2026-04-18T15:06:18.999Z</time></trkpt><trkpt lat="43.02355331428308" lon="13.852805362416026"><ele>32.0</ele><time>2026-04-18T15:06:19.999Z</time></trkpt><trkpt lat="43.02386434373455" lon="13.852814074413578"><ele>25.0</ele><time>2026-04-18T15:06:20.999Z</time></trkpt><trkpt lat="43.02418351259223" lon="13.852802771087811"><ele>22.5</ele><time>2026-04-18T15:06:21.999Z</time></trkpt><trkpt lat="43.02451085115702" lon="13.852771019277666"><ele>20.0</ele><time>2026-04-18T15:06:22.999Z</time></trkpt><trkpt lat="43.02483023275078" lon="13.852738568068137"><ele>25.5</ele><time>2026-04-18T15:06:23.999Z</time></trkpt><trkpt lat="43.02514737852862" lon="13.852696985012466"><ele>31.0</ele><time>2026-04-18T15:06:24.999Z</time></trkpt><trkpt lat="43.0254663798955" lon="13.852642044635811"><ele>35.5</ele><time>2026-04-18T15:06:25.999Z</time></trkpt><trkpt lat="43.02578050202164" lon="13.852577863218436"><ele>40.0</ele><time>2026-04-18T15:06:26.999Z</time></trkpt><trkpt lat="43.02610358840137" lon="13.85249902626566"><ele>49.5</ele><time>2026-04-18T15:06:27.999Z</time></trkpt><trkpt lat="43.026427488905426" lon="13.852416060578438"><ele>59.0</ele><time>2026-04-18T15:06:28.999Z</time></trkpt><trkpt lat="43.02675433142017" lon="13.852332806286118"><ele>69.5</ele><time>2026-04-18T15:06:29.999Z</time></trkpt><trkpt lat="43.02707685473158" lon="13.852253782143892"><ele>80.0</ele><time>2026-04-18T15:06:30.999Z</time></trkpt><trkpt lat="43.02740139887693" lon="13.852171957449775"><ele>82.0</ele><time>2026-04-18T15:06:31.999Z</time></trkpt><trkpt lat="43.027748011644334" lon="13.852083248623112"><ele>84.0</ele><time>2026-04-18T15:06:33.062Z</time></trkpt><trkpt lat="43.02806868804481" lon="13.852005197135679"><ele>92.0</ele><time>2026-04-18T15:06:34.056Z</time></trkpt><trkpt lat="43.02839622153885" lon="13.851922349221445"><ele>100.0</ele><time>2026-04-18T15:06:35.054Z</time></trkpt><trkpt lat="43.02872086485407" lon="13.851838405481507"><ele>115.0</ele><time>2026-04-18T15:06:36.046Z</time></trkpt><trkpt lat="43.030762943824286" lon="13.851487872466757"><ele>27.0</ele><time>2026-04-18T15:06:39.99Z</time></trkpt><trkpt lat="43.03379635274857" lon="13.850764195327805"><ele>23.5</ele><time>2026-04-18T15:06:50.998Z</time></trkpt><trkpt lat="43.03414097245247" lon="13.850572452090178"><ele>20.0</ele><time>2026-04-18T15:06:51.998Z</time></trkpt><trkpt lat="43.0344830968876" lon="13.850617192093454"><ele>20.0</ele><time>2026-04-18T15:06:52.998Z</time></trkpt><trkpt lat="43.03478371140833" lon="13.850566056191028"><ele>20.0</ele><time>2026-04-18T15:06:53.998Z</time></trkpt><trkpt lat="43.03508419360659" lon="13.850496925263961"><ele>17.0</ele><time>2026-04-18T15:06:54.998Z</time></trkpt><trkpt lat="43.03550311765329" lon="13.850504420731317"><ele>14.0</ele><time>2026-04-18T15:06:55.998Z</time></trkpt><trkpt lat="43.03583795703824" lon="13.850453431634312"><ele>12.5</ele><time>2026-04-18T15:06:56.998Z</time></trkpt><trkpt lat="43.036183410359534" lon="13.850400848403156"><ele>11.0</ele><time>2026-04-18T15:06:57.998Z</time></trkpt><trkpt lat="43.03653091151869" lon="13.850339086059776"><ele>10.0</ele><time>2026-04-18T15:06:58.998Z</time></trkpt><trkpt lat="43.0368874545082" lon="13.850277731925637"><ele>9.0</ele><time>2026-04-18T15:06:59.998Z</time></trkpt><trkpt lat="43.03725061392153" lon="13.850207254750517"><ele>8.0</ele><time>2026-04-18T15:07:00.998Z</time></trkpt><trkpt lat="43.03762319093497" lon="13.850138731487215"><ele>7.0</ele><time>2026-04-18T15:07:01.998Z</time></trkpt><trkpt lat="43.03799832859654" lon="13.850072146255124"><ele>7.5</ele><time>2026-04-18T15:07:02.998Z</time></trkpt><trkpt lat="43.038377158884344" lon="13.85001381570355"><ele>8.0</ele><time>2026-04-18T15:07:03.998Z</time></trkpt><trkpt lat="43.03875010577485" lon="13.849968937942904"><ele>8.0</ele><time>2026-04-18T15:07:04.998Z</time></trkpt><trkpt lat="43.039114502266166" lon="13.849925226326713"><ele>8.0</ele><time>2026-04-18T15:07:05.998Z</time></trkpt><trkpt lat="43.0394709513198" lon="13.849867268282765"><ele>7.0</ele><time>2026-04-18T15:07:06.998Z</time></trkpt><trkpt lat="43.039817182633264" lon="13.849799518354956"><ele>6.0</ele><time>2026-04-18T15:07:07.998Z</time></trkpt><trkpt lat="43.04015850193884" lon="13.849734858596136"><ele>6.0</ele><time>2026-04-18T15:07:08.998Z</time></trkpt><trkpt lat="43.04049411147979" lon="13.849671154691329"><ele>6.0</ele><time>2026-04-18T15:07:09.998Z</time></trkpt><trkpt lat="43.0408234021647" lon="13.84959879177285"><ele>7.0</ele><time>2026-04-18T15:07:10.998Z</time></trkpt><trkpt lat="43.04115478465971" lon="13.849521448838347"><ele>8.0</ele><time>2026-04-18T15:07:11.998Z</time></trkpt><trkpt lat="43.04147755876871" lon="13.849441167049372"><ele>11.0</ele><time>2026-04-18T15:07:12.998Z</time></trkpt><trkpt lat="43.04179390671449" lon="13.849354082175054"><ele>14.0</ele><time>2026-04-18T15:07:13.998Z</time></trkpt><trkpt lat="43.04210907485047" lon="13.849261630900775"><ele>15.0</ele><time>2026-04-18T15:07:14.998Z</time></trkpt><trkpt lat="43.04241910195798" lon="13.84915645293904"><ele>16.0</ele><time>2026-04-18T15:07:15.998Z</time></trkpt><trkpt lat="43.042725950631514" lon="13.849045422950297"><ele>18.5</ele><time>2026-04-18T15:07:16.998Z</time></trkpt><trkpt lat="43.04303205711555" lon="13.848936629705387"><ele>21.0</ele><time>2026-04-18T15:07:17.998Z</time></trkpt><trkpt lat="43.043335899996976" lon="13.848820496181553"><ele>22.5</ele><time>2026-04-18T15:07:18.998Z</time></trkpt><trkpt lat="43.04363676426359" lon="13.848695355099762"><ele>24.0</ele><time>2026-04-18T15:07:19.998Z</time></trkpt><trkpt lat="43.04393822370966" lon="13.848567918367033"><ele>26.0</ele><time>2026-04-18T15:07:20.998Z</time></trkpt><trkpt lat="43.04424110270891" lon="13.848444040427355"><ele>28.0</ele><time>2026-04-18T15:07:21.997Z</time></trkpt><trkpt lat="43.044544309459134" lon="13.848325972368874"><ele>28.0</ele><time>2026-04-18T15:07:22.997Z</time></trkpt><trkpt lat="43.044851274921115" lon="13.84821071995639"><ele>28.0</ele><time>2026-04-18T15:07:23.997Z</time></trkpt><trkpt lat="43.045157424921996" lon="13.848094740041072"><ele>31.5</ele><time>2026-04-18T15:07:24.997Z</time></trkpt><trkpt lat="43.04546424248026" lon="13.847982575116244"><ele>35.0</ele><time>2026-04-18T15:07:25.997Z</time></trkpt><trkpt lat="43.04577369202095" lon="13.847877019388523"><ele>38.5</ele><time>2026-04-18T15:07:26.997Z</time></trkpt><trkpt lat="43.04608324893924" lon="13.847771991332806"><ele>42.0</ele><time>2026-04-18T15:07:27.997Z</time></trkpt><trkpt lat="43.04639394726029" lon="13.847665722305164"><ele>44.0</ele><time>2026-04-18T15:07:28.997Z</time></trkpt><trkpt lat="43.046706387265395" lon="13.84755857578239"><ele>46.0</ele><time>2026-04-18T15:07:29.997Z</time></trkpt><trkpt lat="43.047016247389756" lon="13.84744771437065"><ele>46.0</ele><time>2026-04-18T15:07:30.997Z</time></trkpt><trkpt lat="43.04732434298487" lon="13.847336487552417"><ele>46.0</ele><time>2026-04-18T15:07:31.997Z</time></trkpt><trkpt lat="43.0476368733865" lon="13.84722516857347"><ele>47.0</ele><time>2026-04-18T15:07:32.997Z</time></trkpt><trkpt lat="43.04794957075521" lon="13.847116265703644"><ele>48.0</ele><time>2026-04-18T15:07:33.997Z</time></trkpt><trkpt lat="43.04826514650631" lon="13.847011109197581"><ele>48.5</ele><time>2026-04-18T15:07:35Z</time></trkpt><trkpt lat="43.04857910896747" lon="13.846912500454403"><ele>49.0</ele><time>2026-04-18T15:07:36Z</time></trkpt><trkpt lat="43.04889116313415" lon="13.846812556807153"><ele>51.0</ele><time>2026-04-18T15:07:37Z</time></trkpt><trkpt lat="43.049202015303045" lon="13.846709405985289"><ele>53.0</ele><time>2026-04-18T15:07:38Z</time></trkpt><trkpt lat="43.04951451589926" lon="13.846604839802268"><ele>53.0</ele><time>2026-04-18T15:07:39Z</time></trkpt><trkpt lat="43.0498239245115" lon="13.846494347558151"><ele>53.0</ele><time>2026-04-18T15:07:40Z</time></trkpt><trkpt lat="43.05013390113722" lon="13.846382382303787"><ele>57.5</ele><time>2026-04-18T15:07:41Z</time></trkpt><trkpt lat="43.050447287073105" lon="13.846271721664378"><ele>62.0</ele><time>2026-04-18T15:07:42Z</time></trkpt><trkpt lat="43.050763394844324" lon="13.846162957844806"><ele>67.5</ele><time>2026-04-18T15:07:43Z</time></trkpt><trkpt lat="43.05108198816094" lon="13.84605730607733"><ele>73.0</ele><time>2026-04-18T15:07:44Z</time></trkpt><trkpt lat="43.0514064880794" lon="13.845954882797185"><ele>78.5</ele><time>2026-04-18T15:07:45Z</time></trkpt><trkpt lat="43.0517526142352" lon="13.845848129383452"><ele>84.0</ele><time>2026-04-18T15:07:46.064Z</time></trkpt><trkpt lat="43.05207346692169" lon="13.845747608493122"><ele>55.0</ele><time>2026-04-18T15:07:47.053Z</time></trkpt><trkpt lat="43.05360575682108" lon="13.845126768819206"><ele>55.0</ele><time>2026-04-18T15:07:52Z</time></trkpt><trkpt lat="43.053926381028646" lon="13.845011358347955"><ele>55.0</ele><time>2026-04-18T15:07:53Z</time></trkpt><trkpt lat="43.05427367684243" lon="13.844866038877155"><ele>50.5</ele><time>2026-04-18T15:07:54Z</time></trkpt><trkpt lat="43.054605795695416" lon="13.844742086867878"><ele>46.0</ele><time>2026-04-18T15:07:55Z</time></trkpt><trkpt lat="43.05492706896168" lon="13.844625046393464"><ele>42.0</ele><time>2026-04-18T15:07:56Z</time></trkpt><trkpt lat="43.05523208811485" lon="13.844556769445806"><ele>38.0</ele><time>2026-04-18T15:07:57Z</time></trkpt><trkpt lat="43.05550184707552" lon="13.844507567509032"><ele>38.0</ele><time>2026-04-18T15:07:58Z</time></trkpt><trkpt lat="43.055773682810695" lon="13.844475905291741"><ele>38.0</ele><time>2026-04-18T15:07:59Z</time></trkpt><trkpt lat="43.05599360851125" lon="13.84447024028767"><ele>35.0</ele><time>2026-04-18T15:08:00Z</time></trkpt><trkpt lat="43.056220186162534" lon="13.844485911500005"><ele>32.0</ele><time>2026-04-18T15:08:01Z</time></trkpt><trkpt lat="43.05647488265189" lon="13.844515949385183"><ele>34.5</ele><time>2026-04-18T15:08:02Z</time></trkpt><trkpt lat="43.05674442479326" lon="13.84458232352108"><ele>37.0</ele><time>2026-04-18T15:08:03Z</time></trkpt><trkpt lat="43.057013466343086" lon="13.844648147064454"><ele>37.0</ele><time>2026-04-18T15:08:04Z</time></trkpt><trkpt lat="43.057281064607515" lon="13.844743968788409"><ele>37.0</ele><time>2026-04-18T15:08:05Z</time></trkpt><trkpt lat="43.057548173749716" lon="13.844867113159724"><ele>36.5</ele><time>2026-04-18T15:08:06Z</time></trkpt><trkpt lat="43.05781385273917" lon="13.84500891045105"><ele>36.0</ele><time>2026-04-18T15:08:07Z</time></trkpt><trkpt lat="43.05807448049039" lon="13.845167920643656"><ele>37.0</ele><time>2026-04-18T15:08:08Z</time></trkpt><trkpt lat="43.05833751512848" lon="13.845341994501466"><ele>38.0</ele><time>2026-04-18T15:08:09Z</time></trkpt><trkpt lat="43.05860044832739" lon="13.845522420546928"><ele>38.0</ele><time>2026-04-18T15:08:10Z</time></trkpt><trkpt lat="43.05886316336263" lon="13.845702259682593"><ele>38.0</ele><time>2026-04-18T15:08:11Z</time></trkpt><trkpt lat="43.05912852545116" lon="13.84588072928181"><ele>42.0</ele><time>2026-04-18T15:08:12Z</time></trkpt><trkpt lat="43.05939527584673" lon="13.846053318436338"><ele>46.0</ele><time>2026-04-18T15:08:13Z</time></trkpt><trkpt lat="43.05966345234903" lon="13.846228527093311"><ele>46.0</ele><time>2026-04-18T15:08:14Z</time></trkpt><trkpt lat="43.059933395064895" lon="13.846397307950443"><ele>46.0</ele><time>2026-04-18T15:08:15Z</time></trkpt><trkpt lat="43.060209540670435" lon="13.846546489829963"><ele>48.0</ele><time>2026-04-18T15:08:16Z</time></trkpt><trkpt lat="43.06049184870694" lon="13.846671775528035"><ele>50.0</ele><time>2026-04-18T15:08:16.999Z</time></trkpt><trkpt lat="43.06078221726357" lon="13.846753041338262"><ele>47.5</ele><time>2026-04-18T15:08:17.999Z</time></trkpt><trkpt lat="43.061078923301544" lon="13.846826252835081"><ele>45.0</ele><time>2026-04-18T15:08:18.999Z</time></trkpt><trkpt lat="43.06138203681655" lon="13.84686567060066"><ele>47.5</ele><time>2026-04-18T15:08:19.999Z</time></trkpt><trkpt lat="43.061690465164105" lon="13.84689415034155"><ele>50.0</ele><time>2026-04-18T15:08:20.999Z</time></trkpt><trkpt lat="43.06196925658027" lon="13.846883964550315"><ele>50.0</ele><time>2026-04-18T15:08:21.999Z</time></trkpt><trkpt lat="43.062227834014735" lon="13.846875699963899"><ele>50.0</ele><time>2026-04-18T15:08:22.999Z</time></trkpt><trkpt lat="43.06247236809029" lon="13.84686188904632"><ele>49.66666666666667</ele><time>2026-04-18T15:08:23.999Z</time></trkpt><trkpt lat="43.062700450963355" lon="13.846847179692697"><ele>49.33333333333333</ele><time>2026-04-18T15:08:24.999Z</time></trkpt><trkpt lat="43.06291403650361" lon="13.846835293823306"><ele>49.0</ele><time>2026-04-18T15:08:25.999Z</time></trkpt><trkpt lat="43.063112153079075" lon="13.846825285407162"><ele>48.0</ele><time>2026-04-18T15:08:26.999Z</time></trkpt><trkpt lat="43.06329803963701" lon="13.846815941352043"><ele>47.0</ele><time>2026-04-18T15:08:27.999Z</time></trkpt><trkpt lat="43.06347208627914" lon="13.846804807417252"><ele>46.0</ele><time>2026-04-18T15:08:28.999Z</time></trkpt><trkpt lat="43.06364776289441" lon="13.846794659032359"><ele>51.0</ele><time>2026-04-18T15:08:29.999Z</time></trkpt><trkpt lat="43.063833392333336" lon="13.846780106595372"><ele>56.0</ele><time>2026-04-18T15:08:30.999Z</time></trkpt><trkpt lat="43.064031085801055" lon="13.846762635675445"><ele>61.0</ele><time>2026-04-18T15:08:31.999Z</time></trkpt><trkpt lat="43.06423833743121" lon="13.846746565908914"><ele>61.666666666666664</ele><time>2026-04-18T15:08:32.999Z</time></trkpt><trkpt lat="43.06445456917733" lon="13.846730875645795"><ele>62.33333333333333</ele><time>2026-04-18T15:08:33.999Z</time></trkpt><trkpt lat="43.06467738717903" lon="13.846716148835831"><ele>63.0</ele><time>2026-04-18T15:08:34.999Z</time></trkpt><trkpt lat="43.06490789574577" lon="13.84670220148135"><ele>62.0</ele><time>2026-04-18T15:08:35.999Z</time></trkpt><trkpt lat="43.06514523231451" lon="13.846687712398944"><ele>61.0</ele><time>2026-04-18T15:08:36.999Z</time></trkpt><trkpt lat="43.065387225408536" lon="13.846670466829508"><ele>61.0</ele><time>2026-04-18T15:08:37.999Z</time></trkpt><trkpt lat="43.065636881120206" lon="13.846651220566113"><ele>61.0</ele><time>2026-04-18T15:08:38.999Z</time></trkpt><trkpt lat="43.065890110628" lon="13.846629657856603"><ele>58.0</ele><time>2026-04-18T15:08:39.999Z</time></trkpt><trkpt lat="43.066144958826406" lon="13.846601830905664"><ele>55.0</ele><time>2026-04-18T15:08:40.999Z</time></trkpt><trkpt lat="43.06639973674011" lon="13.846566473731523"><ele>50.0</ele><time>2026-04-18T15:08:41.999Z</time></trkpt><trkpt lat="43.06665960899286" lon="13.846524238619606"><ele>45.0</ele><time>2026-04-18T15:08:42.999Z</time></trkpt><trkpt lat="43.06691794304711" lon="13.846476177040225"><ele>45.0</ele><time>2026-04-18T15:08:43.999Z</time></trkpt><trkpt lat="43.06717922750301" lon="13.84642000018799"><ele>45.0</ele><time>2026-04-18T15:08:44.999Z</time></trkpt><trkpt lat="43.06744391917392" lon="13.846354570446085"><ele>40.0</ele><time>2026-04-18T15:08:45.999Z</time></trkpt><trkpt lat="43.06771185533533" lon="13.846279373083867"><ele>35.0</ele><time>2026-04-18T15:08:46.999Z</time></trkpt><trkpt lat="43.067978652043095" lon="13.84619570530913"><ele>35.0</ele><time>2026-04-18T15:08:47.999Z</time></trkpt><trkpt lat="43.068245402169254" lon="13.846108442927694"><ele>35.0</ele><time>2026-04-18T15:08:48.999Z</time></trkpt><trkpt lat="43.068511974114664" lon="13.846017950777481"><ele>25.5</ele><time>2026-04-18T15:08:49.999Z</time></trkpt><trkpt lat="43.06878634278826" lon="13.845922892742767"><ele>16.0</ele><time>2026-04-18T15:08:50.999Z</time></trkpt><trkpt lat="43.06906015361572" lon="13.845828125742727"><ele>16.5</ele><time>2026-04-18T15:08:51.999Z</time></trkpt><trkpt lat="43.069343640169535" lon="13.845724868858325"><ele>17.0</ele><time>2026-04-18T15:08:52.999Z</time></trkpt><trkpt lat="43.069623180049085" lon="13.845626022009327"><ele>17.0</ele><time>2026-04-18T15:08:53.999Z</time></trkpt><trkpt lat="43.06990944247266" lon="13.845524396721329"><ele>17.0</ele><time>2026-04-18T15:08:54.998Z</time></trkpt><trkpt lat="43.07020532373779" lon="13.845409433417233"><ele>19.5</ele><time>2026-04-18T15:08:55.998Z</time></trkpt><trkpt lat="43.07049143412021" lon="13.84530444614003"><ele>22.0</ele><time>2026-04-18T15:08:56.998Z</time></trkpt><trkpt lat="43.07077807152459" lon="13.845201953423373"><ele>32.0</ele><time>2026-04-18T15:08:57.998Z</time></trkpt><trkpt lat="43.07107086451853" lon="13.84509797979957"><ele>42.0</ele><time>2026-04-18T15:08:58.998Z</time></trkpt><trkpt lat="43.071367655743586" lon="13.844991731537512"><ele>40.5</ele><time>2026-04-18T15:08:59.998Z</time></trkpt><trkpt lat="43.07165668394631" lon="13.844886842672638"><ele>39.0</ele><time>2026-04-18T15:09:00.998Z</time></trkpt><trkpt lat="43.07194101163388" lon="13.844780592016205"><ele>39.0</ele><time>2026-04-18T15:09:01.998Z</time></trkpt><trkpt lat="43.072231716543854" lon="13.844672718908791"><ele>39.0</ele><time>2026-04-18T15:09:02.998Z</time></trkpt><trkpt lat="43.07251934989708" lon="13.844561605896706"><ele>39.0</ele><time>2026-04-18T15:09:03.998Z</time></trkpt><trkpt lat="43.07280760670141" lon="13.844447145862086"><ele>39.0</ele><time>2026-04-18T15:09:04.998Z</time></trkpt><trkpt lat="43.07309271577114" lon="13.844335616401391"><ele>39.0</ele><time>2026-04-18T15:09:05.998Z</time></trkpt><trkpt lat="43.07337136360471" lon="13.844228994018602"><ele>39.0</ele><time>2026-04-18T15:09:06.998Z</time></trkpt><trkpt lat="43.07364639689443" lon="13.844123894950998"><ele>39.0</ele><time>2026-04-18T15:09:07.998Z</time></trkpt><trkpt lat="43.0739219574211" lon="13.844023305209172"><ele>39.0</ele><time>2026-04-18T15:09:08.998Z</time></trkpt><trkpt lat="43.07419234544978" lon="13.843927467695844"><ele>36.5</ele><time>2026-04-18T15:09:09.998Z</time></trkpt><trkpt lat="43.07446086343032" lon="13.843834583220808"><ele>34.0</ele><time>2026-04-18T15:09:10.998Z</time></trkpt><trkpt lat="43.07472451452981" lon="13.843744279610089"><ele>33.0</ele><time>2026-04-18T15:09:11.998Z</time></trkpt><trkpt lat="43.07499194480361" lon="13.843649025979477"><ele>32.0</ele><time>2026-04-18T15:09:12.998Z</time></trkpt><trkpt lat="43.07525570127767" lon="13.843555406843603"><ele>33.0</ele><time>2026-04-18T15:09:13.998Z</time></trkpt><trkpt lat="43.07551843552682" lon="13.843463635633512"><ele>34.0</ele><time>2026-04-18T15:09:14.998Z</time></trkpt><trkpt lat="43.075782036074386" lon="13.843378522142295"><ele>34.0</ele><time>2026-04-18T15:09:15.998Z</time></trkpt><trkpt lat="43.07604495255146" lon="13.843297880340513"><ele>34.0</ele><time>2026-04-18T15:09:16.998Z</time></trkpt><trkpt lat="43.07630366702094" lon="13.843215381537448"><ele>34.0</ele><time>2026-04-18T15:09:17.998Z</time></trkpt><trkpt lat="43.07656227573556" lon="13.84313302598064"><ele>34.0</ele><time>2026-04-18T15:09:18.998Z</time></trkpt><trkpt lat="43.07682385939109" lon="13.843062890303253"><ele>32.5</ele><time>2026-04-18T15:09:19.998Z</time></trkpt><trkpt lat="43.077085498618956" lon="13.843007337259962"><ele>31.0</ele><time>2026-04-18T15:09:20.998Z</time></trkpt><trkpt lat="43.07734413446264" lon="13.84297037404684"><ele>29.5</ele><time>2026-04-18T15:09:21.998Z</time></trkpt><trkpt lat="43.07759985862573" lon="13.842941818063204"><ele>28.0</ele><time>2026-04-18T15:09:22.998Z</time></trkpt><trkpt lat="43.07785419031622" lon="13.842918844237296"><ele>28.0</ele><time>2026-04-18T15:09:23.998Z</time></trkpt><trkpt lat="43.078108604942095" lon="13.842907797324319"><ele>28.0</ele><time>2026-04-18T15:09:24.998Z</time></trkpt><trkpt lat="43.078365955726994" lon="13.842912709709376"><ele>28.0</ele><time>2026-04-18T15:09:25.998Z</time></trkpt><trkpt lat="43.07862592933835" lon="13.84293105963276"><ele>28.0</ele><time>2026-04-18T15:09:26.998Z</time></trkpt><trkpt lat="43.07889017771877" lon="13.842963094443936"><ele>26.0</ele><time>2026-04-18T15:09:27.998Z</time></trkpt><trkpt lat="43.07915445468163" lon="13.843009787566332"><ele>24.0</ele><time>2026-04-18T15:09:28.998Z</time></trkpt><trkpt lat="43.07942339764302" lon="13.843069084063767"><ele>24.0</ele><time>2026-04-18T15:09:29.998Z</time></trkpt><trkpt lat="43.07969582992948" lon="13.843134939322217"><ele>24.0</ele><time>2026-04-18T15:09:30.998Z</time></trkpt><trkpt lat="43.07996547000038" lon="13.84320396466975"><ele>29.0</ele><time>2026-04-18T15:09:31.998Z</time></trkpt><trkpt lat="43.08023931770045" lon="13.843277214088529"><ele>34.0</ele><time>2026-04-18T15:09:32.998Z</time></trkpt><trkpt lat="43.080511983605746" lon="13.84334592135141"><ele>30.5</ele><time>2026-04-18T15:09:33.997Z</time></trkpt><trkpt lat="43.0807882752274" lon="13.843419428826182"><ele>27.0</ele><time>2026-04-18T15:09:34.997Z</time></trkpt><trkpt lat="43.081064523468136" lon="13.843490062681632"><ele>27.0</ele><time>2026-04-18T15:09:35.997Z</time></trkpt><trkpt lat="43.08133691833481" lon="13.84355626206702"><ele>27.0</ele><time>2026-04-18T15:09:36.997Z</time></trkpt><trkpt lat="43.081614641666384" lon="13.843624021941451"><ele>27.5</ele><time>2026-04-18T15:09:37.997Z</time></trkpt><trkpt lat="43.08189383599236" lon="13.843692224326928"><ele>28.0</ele><time>2026-04-18T15:09:38.997Z</time></trkpt><trkpt lat="43.082176903316096" lon="13.84376482861528"><ele>27.0</ele><time>2026-04-18T15:09:40Z</time></trkpt><trkpt lat="43.08245985830384" lon="13.84383886209694"><ele>26.0</ele><time>2026-04-18T15:09:41Z</time></trkpt><trkpt lat="43.08274783731902" lon="13.843912835943637"><ele>26.0</ele><time>2026-04-18T15:09:42Z</time></trkpt><trkpt lat="43.08303633765707" lon="13.843979576466886"><ele>26.0</ele><time>2026-04-18T15:09:43Z</time></trkpt><trkpt lat="43.08332989312794" lon="13.844041813090445"><ele>26.5</ele><time>2026-04-18T15:09:44Z</time></trkpt><trkpt lat="43.08361609544271" lon="13.844088227285747"><ele>27.0</ele><time>2026-04-18T15:09:45Z</time></trkpt><trkpt lat="43.083904901313296" lon="13.844117757954276"><ele>27.5</ele><time>2026-04-18T15:09:46Z</time></trkpt><trkpt lat="43.08418972091433" lon="13.844127772116485"><ele>28.0</ele><time>2026-04-18T15:09:47Z</time></trkpt><trkpt lat="43.084466820000685" lon="13.84411418575156"><ele>28.0</ele><time>2026-04-18T15:09:48Z</time></trkpt><trkpt lat="43.08474272414775" lon="13.844082479471481"><ele>28.0</ele><time>2026-04-18T15:09:49Z</time></trkpt><trkpt lat="43.08502067195909" lon="13.844029126912305"><ele>27.0</ele><time>2026-04-18T15:09:50Z</time></trkpt><trkpt lat="43.085299031203284" lon="13.843952030171714"><ele>26.0</ele><time>2026-04-18T15:09:51Z</time></trkpt><trkpt lat="43.08557264549714" lon="13.843848856526845"><ele>28.5</ele><time>2026-04-18T15:09:52Z</time></trkpt><trkpt lat="43.08583495268279" lon="13.843728122958934"><ele>31.0</ele><time>2026-04-18T15:09:53Z</time></trkpt><trkpt lat="43.08610730403481" lon="13.843597064025882"><ele>42.0</ele><time>2026-04-18T15:09:54Z</time></trkpt><trkpt lat="43.08637812389062" lon="13.843454916667463"><ele>53.0</ele><time>2026-04-18T15:09:55Z</time></trkpt><trkpt lat="43.086653942633355" lon="13.843308435323106"><ele>63.5</ele><time>2026-04-18T15:09:56Z</time></trkpt><trkpt lat="43.08692482975695" lon="13.843166796505708"><ele>74.0</ele><time>2026-04-18T15:09:57Z</time></trkpt><trkpt lat="43.08719543622941" lon="13.843019793381476"><ele>77.0</ele><time>2026-04-18T15:09:58Z</time></trkpt><trkpt lat="43.08747963499914" lon="13.842853914981996"><ele>80.0</ele><time>2026-04-18T15:09:59.043Z</time></trkpt><trkpt lat="43.08775538365161" lon="13.842707232787523"><ele>10.0</ele><time>2026-04-18T15:10:00.042Z</time></trkpt><trkpt lat="43.09519610904109" lon="13.83734205632035"><ele>10.0</ele><time>2026-04-18T15:10:26.999Z</time></trkpt><trkpt lat="43.09547581583098" lon="13.837040847007948"><ele>10.0</ele><time>2026-04-18T15:10:27.999Z</time></trkpt><trkpt lat="43.095742246895256" lon="13.836876388679608"><ele>9.5</ele><time>2026-04-18T15:10:28.999Z</time></trkpt><trkpt lat="43.09601590964703" lon="13.83665906505179"><ele>9.0</ele><time>2026-04-18T15:10:29.999Z</time></trkpt><trkpt lat="43.09630414766045" lon="13.836449918245345"><ele>9.0</ele><time>2026-04-18T15:10:30.999Z</time></trkpt><trkpt lat="43.09657924315544" lon="13.836248400297075"><ele>9.0</ele><time>2026-04-18T15:10:31.999Z</time></trkpt><trkpt lat="43.09685189484284" lon="13.83605787980435"><ele>8.5</ele><time>2026-04-18T15:10:32.999Z</time></trkpt><trkpt lat="43.09712003400779" lon="13.835871246968765"><ele>8.0</ele><time>2026-04-18T15:10:33.999Z</time></trkpt><trkpt lat="43.097383879589465" lon="13.835677667190126"><ele>7.0</ele><time>2026-04-18T15:10:34.999Z</time></trkpt><trkpt lat="43.09764703827374" lon="13.835480278012314"><ele>6.0</ele><time>2026-04-18T15:10:35.999Z</time></trkpt><trkpt lat="43.09791038274598" lon="13.835285049543497"><ele>6.0</ele><time>2026-04-18T15:10:36.999Z</time></trkpt><trkpt lat="43.09817474334746" lon="13.835089843805061"><ele>6.0</ele><time>2026-04-18T15:10:37.999Z</time></trkpt><trkpt lat="43.098440700074526" lon="13.834897707510086"><ele>6.5</ele><time>2026-04-18T15:10:38.999Z</time></trkpt><trkpt lat="43.09870356936879" lon="13.834703025918943"><ele>7.0</ele><time>2026-04-18T15:10:39.999Z</time></trkpt><trkpt lat="43.098964546112185" lon="13.834512248617648"><ele>6.5</ele><time>2026-04-18T15:10:40.999Z</time></trkpt><trkpt lat="43.09922930263724" lon="13.834322220166811"><ele>6.0</ele><time>2026-04-18T15:10:41.999Z</time></trkpt><trkpt lat="43.099492711502755" lon="13.83413158092427"><ele>5.5</ele><time>2026-04-18T15:10:42.999Z</time></trkpt><trkpt lat="43.0997581960782" lon="13.833942891979449"><ele>5.0</ele><time>2026-04-18T15:10:43.999Z</time></trkpt><trkpt lat="43.1000203814545" lon="13.833754253392891"><ele>5.0</ele><time>2026-04-18T15:10:44.999Z</time></trkpt><trkpt lat="43.100287627551886" lon="13.833572167408864"><ele>5.0</ele><time>2026-04-18T15:10:45.999Z</time></trkpt><trkpt lat="43.10055118262611" lon="13.833387995813887"><ele>5.0</ele><time>2026-04-18T15:10:46.999Z</time></trkpt><trkpt lat="43.100814283247026" lon="13.83320818540881"><ele>5.0</ele><time>2026-04-18T15:10:47.999Z</time></trkpt><trkpt lat="43.10108408219628" lon="13.833024774811488"><ele>5.0</ele><time>2026-04-18T15:10:48.999Z</time></trkpt><trkpt lat="43.101354019886024" lon="13.832837375902864"><ele>5.0</ele><time>2026-04-18T15:10:49.999Z</time></trkpt><trkpt lat="43.10162290219335" lon="13.832647076814034"><ele>6.0</ele><time>2026-04-18T15:10:50.999Z</time></trkpt><trkpt lat="43.10189258359475" lon="13.832457837191596"><ele>7.0</ele><time>2026-04-18T15:10:51.999Z</time></trkpt><trkpt lat="43.10215581155019" lon="13.832272256031983"><ele>7.5</ele><time>2026-04-18T15:10:52.999Z</time></trkpt><trkpt lat="43.10242242753143" lon="13.832093154097484"><ele>8.0</ele><time>2026-04-18T15:10:53.999Z</time></trkpt><trkpt lat="43.10269385795252" lon="13.831926187062583"><ele>8.5</ele><time>2026-04-18T15:10:54.999Z</time></trkpt><trkpt lat="43.10297371693046" lon="13.831769635101484"><ele>9.0</ele><time>2026-04-18T15:10:55.999Z</time></trkpt><trkpt lat="43.10325926439184" lon="13.831634252941475"><ele>11.5</ele><time>2026-04-18T15:10:56.999Z</time></trkpt><trkpt lat="43.1035533923603" lon="13.831525515808623"><ele>14.0</ele><time>2026-04-18T15:10:57.999Z</time></trkpt><trkpt lat="43.10384725948983" lon="13.831448360221202"><ele>17.0</ele><time>2026-04-18T15:10:58.999Z</time></trkpt><trkpt lat="43.10414441186728" lon="13.83140359703136"><ele>20.0</ele><time>2026-04-18T15:10:59.999Z</time></trkpt><trkpt lat="43.104444696244656" lon="13.83137699059175"><ele>20.0</ele><time>2026-04-18T15:11:00.999Z</time></trkpt><trkpt lat="43.10474763095877" lon="13.83138609098936"><ele>20.0</ele><time>2026-04-18T15:11:01.998Z</time></trkpt><trkpt lat="43.105051711962545" lon="13.831418800466523"><ele>22.0</ele><time>2026-04-18T15:11:02.998Z</time></trkpt><trkpt lat="43.10535055727287" lon="13.831478441197824"><ele>24.0</ele><time>2026-04-18T15:11:03.998Z</time></trkpt><trkpt lat="43.10564945028989" lon="13.831562424378808"><ele>22.0</ele><time>2026-04-18T15:11:04.998Z</time></trkpt><trkpt lat="43.10594452466485" lon="13.83167069474461"><ele>20.0</ele><time>2026-04-18T15:11:05.998Z</time></trkpt><trkpt lat="43.1062322865583" lon="13.83181125385964"><ele>20.0</ele><time>2026-04-18T15:11:06.998Z</time></trkpt><trkpt lat="43.106511882216786" lon="13.831976194650203"><ele>20.0</ele><time>2026-04-18T15:11:07.998Z</time></trkpt><trkpt lat="43.10678169579029" lon="13.832164938671845"><ele>20.0</ele><time>2026-04-18T15:11:08.998Z</time></trkpt><trkpt lat="43.107040295480694" lon="13.832374485668282"><ele>20.0</ele><time>2026-04-18T15:11:09.998Z</time></trkpt><trkpt lat="43.10728997029822" lon="13.832604199126274"><ele>22.0</ele><time>2026-04-18T15:11:10.998Z</time></trkpt><trkpt lat="43.10753383776074" lon="13.832843665253208"><ele>24.0</ele><time>2026-04-18T15:11:11.998Z</time></trkpt><trkpt lat="43.10777377478696" lon="13.833084360128794"><ele>24.0</ele><time>2026-04-18T15:11:12.998Z</time></trkpt><trkpt lat="43.10801869988144" lon="13.833325699801087"><ele>24.0</ele><time>2026-04-18T15:11:13.998Z</time></trkpt><trkpt lat="43.10826651628286" lon="13.833570745947782"><ele>24.5</ele><time>2026-04-18T15:11:14.998Z</time></trkpt><trkpt lat="43.108517370207565" lon="13.83381276248432"><ele>25.0</ele><time>2026-04-18T15:11:15.998Z</time></trkpt><trkpt lat="43.10877380573591" lon="13.834055250033972"><ele>25.0</ele><time>2026-04-18T15:11:16.998Z</time></trkpt><trkpt lat="43.10903678677895" lon="13.834294381356735"><ele>25.0</ele><time>2026-04-18T15:11:17.998Z</time></trkpt><trkpt lat="43.10930501519504" lon="13.834517471873443"><ele>23.5</ele><time>2026-04-18T15:11:18.998Z</time></trkpt><trkpt lat="43.10958516141869" lon="13.83472278303883"><ele>22.0</ele><time>2026-04-18T15:11:19.998Z</time></trkpt><trkpt lat="43.10987594856386" lon="13.834891403492776"><ele>22.5</ele><time>2026-04-18T15:11:20.998Z</time></trkpt><trkpt lat="43.110170431038625" lon="13.835031681808976"><ele>23.0</ele><time>2026-04-18T15:11:21.998Z</time></trkpt><trkpt lat="43.1104731030275" lon="13.835135590291248"><ele>16.0</ele><time>2026-04-18T15:11:22.998Z</time></trkpt><trkpt lat="43.11077510961431" lon="13.835215211584648"><ele>9.0</ele><time>2026-04-18T15:11:23.998Z</time></trkpt><trkpt lat="43.11107928735869" lon="13.835270761464525"><ele>9.0</ele><time>2026-04-18T15:11:24.998Z</time></trkpt><trkpt lat="43.111379652006036" lon="13.835297661419418"><ele>9.0</ele><time>2026-04-18T15:11:25.998Z</time></trkpt><trkpt lat="43.111672459719806" lon="13.83529346688427"><ele>8.5</ele><time>2026-04-18T15:11:26.998Z</time></trkpt><trkpt lat="43.11196074286353" lon="13.83525894098166"><ele>8.0</ele><time>2026-04-18T15:11:27.998Z</time></trkpt><trkpt lat="43.112242413364086" lon="13.835206534398132"><ele>14.0</ele><time>2026-04-18T15:11:28.998Z</time></trkpt><trkpt lat="43.112516243150004" lon="13.835130127565678"><ele>20.0</ele><time>2026-04-18T15:11:29.998Z</time></trkpt><trkpt lat="43.112785105930605" lon="13.835034210967383"><ele>20.0</ele><time>2026-04-18T15:11:30.998Z</time></trkpt><trkpt lat="43.113048193750814" lon="13.83492426822748"><ele>20.0</ele><time>2026-04-18T15:11:31.998Z</time></trkpt><trkpt lat="43.11330967131013" lon="13.834803916933364"><ele>16.0</ele><time>2026-04-18T15:11:32.998Z</time></trkpt><trkpt lat="43.11356829721494" lon="13.834676834180991"><ele>12.0</ele><time>2026-04-18T15:11:33.998Z</time></trkpt><trkpt lat="43.11383057807911" lon="13.834546316253704"><ele>14.0</ele><time>2026-04-18T15:11:34.998Z</time></trkpt><trkpt lat="43.11409961415497" lon="13.834411165907538"><ele>16.0</ele><time>2026-04-18T15:11:35.998Z</time></trkpt><trkpt lat="43.11437420065685" lon="13.834274821471832"><ele>16.0</ele><time>2026-04-18T15:11:36.998Z</time></trkpt><trkpt lat="43.11465323284111" lon="13.83413639389582"><ele>16.0</ele><time>2026-04-18T15:11:37.998Z</time></trkpt><trkpt lat="43.11493760488281" lon="13.833996041191675"><ele>13.5</ele><time>2026-04-18T15:11:38.998Z</time></trkpt><trkpt lat="43.11522230709875" lon="13.83385564547065"><ele>11.0</ele><time>2026-04-18T15:11:39.997Z</time></trkpt><trkpt lat="43.11551391349373" lon="13.833710172286368"><ele>9.0</ele><time>2026-04-18T15:11:40.997Z</time></trkpt><trkpt lat="43.11581172842736" lon="13.8335650867393"><ele>7.0</ele><time>2026-04-18T15:11:41.997Z</time></trkpt><trkpt lat="43.11611402929154" lon="13.833417293657625"><ele>8.5</ele><time>2026-04-18T15:11:42.997Z</time></trkpt><trkpt lat="43.11642465401035" lon="13.833264925563572"><ele>10.0</ele><time>2026-04-18T15:11:43.997Z</time></trkpt><trkpt lat="43.116737900757755" lon="13.833110490145984"><ele>10.0</ele><time>2026-04-18T15:11:44.997Z</time></trkpt><trkpt lat="43.11705604213521" lon="13.83295263795039"><ele>10.0</ele><time>2026-04-18T15:11:46Z</time></trkpt><trkpt lat="43.117372246269404" lon="13.832793107189659"><ele>13.0</ele><time>2026-04-18T15:11:47Z</time></trkpt><trkpt lat="43.1176908004748" lon="13.832633839446274"><ele>16.0</ele><time>2026-04-18T15:11:48Z</time></trkpt><trkpt lat="43.118011131520106" lon="13.832476871363403"><ele>12.0</ele><time>2026-04-18T15:11:49Z</time></trkpt><trkpt lat="43.11832928374755" lon="13.832327836973977"><ele>8.0</ele><time>2026-04-18T15:11:50Z</time></trkpt><trkpt lat="43.11864620701969" lon="13.832183126103555"><ele>8.0</ele><time>2026-04-18T15:11:51Z</time></trkpt><trkpt lat="43.11896069312291" lon="13.832037008576886"><ele>8.0</ele><time>2026-04-18T15:11:52Z</time></trkpt><trkpt lat="43.119270938436536" lon="13.831885113286656"><ele>10.5</ele><time>2026-04-18T15:11:53Z</time></trkpt><trkpt lat="43.11957996125228" lon="13.83173109440568"><ele>13.0</ele><time>2026-04-18T15:11:54Z</time></trkpt><trkpt lat="43.119889191532856" lon="13.831577659140063"><ele>8.5</ele><time>2026-04-18T15:11:55Z</time></trkpt><trkpt lat="43.12019636234986" lon="13.831422353249351"><ele>4.0</ele><time>2026-04-18T15:11:56Z</time></trkpt><trkpt lat="43.12050309059329" lon="13.831267754429728"><ele>3.0</ele><time>2026-04-18T15:11:57Z</time></trkpt><trkpt lat="43.12081165396331" lon="13.83111313164673"><ele>2.0</ele><time>2026-04-18T15:11:58Z</time></trkpt><trkpt lat="43.12111891282265" lon="13.83095986869161"><ele>4.5</ele><time>2026-04-18T15:11:59Z</time></trkpt><trkpt lat="43.121425342997256" lon="13.830806592463897"><ele>7.0</ele><time>2026-04-18T15:12:00Z</time></trkpt><trkpt lat="43.121731210849894" lon="13.83065654373603"><ele>7.0</ele><time>2026-04-18T15:12:01Z</time></trkpt><trkpt lat="43.122036749068805" lon="13.83050790689759"><ele>7.0</ele><time>2026-04-18T15:12:02Z</time></trkpt><trkpt lat="43.122340719689866" lon="13.830355125552673"><ele>4.5</ele><time>2026-04-18T15:12:03Z</time></trkpt><trkpt lat="43.12264406408444" lon="13.830202589568986"><ele>2.0</ele><time>2026-04-18T15:12:04Z</time></trkpt><trkpt lat="43.12294791547115" lon="13.830051244292239"><ele>4.0</ele><time>2026-04-18T15:12:05Z</time></trkpt><trkpt lat="43.12325131547042" lon="13.829901569374083"><ele>6.0</ele><time>2026-04-18T15:12:06Z</time></trkpt><trkpt lat="43.12355312222863" lon="13.829751726296156"><ele>6.0</ele><time>2026-04-18T15:12:07Z</time></trkpt><trkpt lat="43.12385775211905" lon="13.829600193006913"><ele>6.0</ele><time>2026-04-18T15:12:08Z</time></trkpt><trkpt lat="43.124160360350075" lon="13.829449681802046"><ele>11.5</ele><time>2026-04-18T15:12:09Z</time></trkpt><trkpt lat="43.12446366245701" lon="13.829299058719217"><ele>17.0</ele><time>2026-04-18T15:12:10Z</time></trkpt><trkpt lat="43.124768630305404" lon="13.829145483555212"><ele>13.0</ele><time>2026-04-18T15:12:11Z</time></trkpt><trkpt lat="43.12507806951422" lon="13.82898872958037"><ele>9.0</ele><time>2026-04-18T15:12:12Z</time></trkpt><trkpt lat="43.12539090202152" lon="13.828828364162774"><ele>9.0</ele><time>2026-04-18T15:12:13Z</time></trkpt><trkpt lat="43.1256847570402" lon="13.8286819097938"><ele>9.0</ele><time>2026-04-18T15:12:14Z</time></trkpt><trkpt lat="43.12597935475928" lon="13.828536088137493"><ele>6.5</ele><time>2026-04-18T15:12:15Z</time></trkpt><trkpt lat="43.12626380123977" lon="13.828405271921083"><ele>4.0</ele><time>2026-04-18T15:12:16Z</time></trkpt><trkpt lat="43.12656453443179" lon="13.828251057213595"><ele>4.0</ele><time>2026-04-18T15:12:17Z</time></trkpt><trkpt lat="43.12685996415983" lon="13.828095889786633"><ele>4.0</ele><time>2026-04-18T15:12:18Z</time></trkpt><trkpt lat="43.12714727626588" lon="13.827933831446176"><ele>2.5</ele><time>2026-04-18T15:12:19Z</time></trkpt><trkpt lat="43.12744687417783" lon="13.827753173207313"><ele>1.0</ele><time>2026-04-18T15:12:20Z</time></trkpt><trkpt lat="43.127724693936166" lon="13.827565829364625"><ele>4.0</ele><time>2026-04-18T15:12:21Z</time></trkpt><trkpt lat="43.12800842418534" lon="13.82737336186314"><ele>7.0</ele><time>2026-04-18T15:12:22Z</time></trkpt><trkpt lat="43.12828898576869" lon="13.827168854585093"><ele>7.0</ele><time>2026-04-18T15:12:23Z</time></trkpt><trkpt lat="43.12856301499664" lon="13.826954779756395"><ele>7.0</ele><time>2026-04-18T15:12:24Z</time></trkpt><trkpt lat="43.128833371286845" lon="13.826740648410148"><ele>7.5</ele><time>2026-04-18T15:12:25Z</time></trkpt><trkpt lat="43.12910415793446" lon="13.82651698404739"><ele>8.0</ele><time>2026-04-18T15:12:26Z</time></trkpt><trkpt lat="43.12937125032389" lon="13.826284032086072"><ele>8.0</ele><time>2026-04-18T15:12:27Z</time></trkpt><trkpt lat="43.12963924760531" lon="13.826041667816488"><ele>8.0</ele><time>2026-04-18T15:12:28Z</time></trkpt><trkpt lat="43.1299024895144" lon="13.825799136389254"><ele>8.5</ele><time>2026-04-18T15:12:29Z</time></trkpt><trkpt lat="43.13016874047919" lon="13.825560725146627"><ele>9.0</ele><time>2026-04-18T15:12:30Z</time></trkpt><trkpt lat="43.13043519694396" lon="13.825324074105275"><ele>8.5</ele><time>2026-04-18T15:12:31Z</time></trkpt><trkpt lat="43.13070044280484" lon="13.825087680241728"><ele>8.0</ele><time>2026-04-18T15:12:32Z</time></trkpt><trkpt lat="43.13096563849045" lon="13.824853631105148"><ele>8.0</ele><time>2026-04-18T15:12:32.999Z</time></trkpt><trkpt lat="43.1312302518414" lon="13.82461957866633"><ele>8.0</ele><time>2026-04-18T15:12:33.999Z</time></trkpt><trkpt lat="43.131495887673886" lon="13.824383623583584"><ele>9.0</ele><time>2026-04-18T15:12:34.999Z</time></trkpt><trkpt lat="43.13176166977945" lon="13.824149887149408"><ele>10.0</ele><time>2026-04-18T15:12:35.999Z</time></trkpt><trkpt lat="43.13202824140055" lon="13.82391711766249"><ele>10.0</ele><time>2026-04-18T15:12:36.999Z</time></trkpt><trkpt lat="43.13229660150654" lon="13.82368380037002"><ele>10.0</ele><time>2026-04-18T15:12:37.999Z</time></trkpt><trkpt lat="43.13256167435079" lon="13.823449936668764"><ele>10.0</ele><time>2026-04-18T15:12:38.999Z</time></trkpt><trkpt lat="43.13282711332544" lon="13.823209504375784"><ele>10.0</ele><time>2026-04-18T15:12:39.999Z</time></trkpt><trkpt lat="43.133094825382685" lon="13.822970530026712"><ele>7.5</ele><time>2026-04-18T15:12:40.999Z</time></trkpt><trkpt lat="43.13336586888679" lon="13.82272962371482"><ele>5.0</ele><time>2026-04-18T15:12:41.999Z</time></trkpt><trkpt lat="43.133639610048" lon="13.822486079544124"><ele>5.0</ele><time>2026-04-18T15:12:42.999Z</time></trkpt><trkpt lat="43.13390945907407" lon="13.822244320757031"><ele>5.0</ele><time>2026-04-18T15:12:43.999Z</time></trkpt><trkpt lat="43.13417668173081" lon="13.822003122501188"><ele>4.0</ele><time>2026-04-18T15:12:44.999Z</time></trkpt><trkpt lat="43.13444336542486" lon="13.821764787753288"><ele>3.0</ele><time>2026-04-18T15:12:45.999Z</time></trkpt><trkpt lat="43.13470981909155" lon="13.821526156044994"><ele>3.5</ele><time>2026-04-18T15:12:46.999Z</time></trkpt><trkpt lat="43.13497879176322" lon="13.821287180578274"><ele>4.0</ele><time>2026-04-18T15:12:47.999Z</time></trkpt><trkpt lat="43.135245364700076" lon="13.82104943578217"><ele>4.0</ele><time>2026-04-18T15:12:48.999Z</time></trkpt><trkpt lat="43.13551358609935" lon="13.820811248453161"><ele>4.0</ele><time>2026-04-18T15:12:49.999Z</time></trkpt><trkpt lat="43.135784324609546" lon="13.820575152354781"><ele>4.0</ele><time>2026-04-18T15:12:50.999Z</time></trkpt><trkpt lat="43.136053877243405" lon="13.82033950533153"><ele>4.0</ele><time>2026-04-18T15:12:51.999Z</time></trkpt><trkpt lat="43.13632081371492" lon="13.820108651913428"><ele>5.5</ele><time>2026-04-18T15:12:52.999Z</time></trkpt><trkpt lat="43.13658832802854" lon="13.8198755005443"><ele>7.0</ele><time>2026-04-18T15:12:53.999Z</time></trkpt><trkpt lat="43.13685767199112" lon="13.819641453296539"><ele>7.0</ele><time>2026-04-18T15:12:54.999Z</time></trkpt><trkpt lat="43.13712762729124" lon="13.819415163844864"><ele>7.0</ele><time>2026-04-18T15:12:55.999Z</time></trkpt><trkpt lat="43.137401251727034" lon="13.819187905174275"><ele>9.0</ele><time>2026-04-18T15:12:56.999Z</time></trkpt><trkpt lat="43.13767856391563" lon="13.81895608299087"><ele>11.0</ele><time>2026-04-18T15:12:57.999Z</time></trkpt><trkpt lat="43.137955264681906" lon="13.818721538681299"><ele>11.0</ele><time>2026-04-18T15:12:58.999Z</time></trkpt><trkpt lat="43.13823692418447" lon="13.818483039954756"><ele>11.0</ele><time>2026-04-18T15:12:59.999Z</time></trkpt><trkpt lat="43.138526001598514" lon="13.81823929816227"><ele>11.0</ele><time>2026-04-18T15:13:00.999Z</time></trkpt><trkpt lat="43.13881860771728" lon="13.817991192668881"><ele>11.0</ele><time>2026-04-18T15:13:01.999Z</time></trkpt><trkpt lat="43.13911479986477" lon="13.817739352029902"><ele>10.5</ele><time>2026-04-18T15:13:02.999Z</time></trkpt><trkpt lat="43.13941034439651" lon="13.817487782224614"><ele>10.0</ele><time>2026-04-18T15:13:03.999Z</time></trkpt><trkpt lat="43.13970919825196" lon="13.817231272292185"><ele>10.0</ele><time>2026-04-18T15:13:04.999Z</time></trkpt><trkpt lat="43.13999680417071" lon="13.816982431519591"><ele>10.0</ele><time>2026-04-18T15:13:05.999Z</time></trkpt><trkpt lat="43.14028296674917" lon="13.816731271590449"><ele>10.0</ele><time>2026-04-18T15:13:06.999Z</time></trkpt><trkpt lat="43.14056486029169" lon="13.81648229042513"><ele>10.0</ele><time>2026-04-18T15:13:07.999Z</time></trkpt><trkpt lat="43.140835318727866" lon="13.81623127500838"><ele>11.0</ele><time>2026-04-18T15:13:08.999Z</time></trkpt><trkpt lat="43.14109496294949" lon="13.815963275419225"><ele>12.0</ele><time>2026-04-18T15:13:09.998Z</time></trkpt><trkpt lat="43.14135127979319" lon="13.815670874573977"><ele>12.5</ele><time>2026-04-18T15:13:10.998Z</time></trkpt><trkpt lat="43.14160099535813" lon="13.8153746534669"><ele>13.0</ele><time>2026-04-18T15:13:11.998Z</time></trkpt><trkpt lat="43.14184357535181" lon="13.815063200469044"><ele>13.0</ele><time>2026-04-18T15:13:12.998Z</time></trkpt><trkpt lat="43.14207807955233" lon="13.814739104008465"><ele>13.0</ele><time>2026-04-18T15:13:13.998Z</time></trkpt><trkpt lat="43.142309373748496" lon="13.814404075892579"><ele>15.0</ele><time>2026-04-18T15:13:14.998Z</time></trkpt><trkpt lat="43.14253707969191" lon="13.814057326305612"><ele>17.0</ele><time>2026-04-18T15:13:15.998Z</time></trkpt><trkpt lat="43.1427497678598" lon="13.81369910326429"><ele>23.5</ele><time>2026-04-18T15:13:16.998Z</time></trkpt><trkpt lat="43.14295294113962" lon="13.813326208440904"><ele>30.0</ele><time>2026-04-18T15:13:17.998Z</time></trkpt><trkpt lat="43.1431527689361" lon="13.812937614903355"><ele>24.0</ele><time>2026-04-18T15:13:18.998Z</time></trkpt><trkpt lat="43.143347845820806" lon="13.812541683998095"><ele>18.0</ele><time>2026-04-18T15:13:19.998Z</time></trkpt><trkpt lat="43.143545583618355" lon="13.812144023390136"><ele>22.0</ele><time>2026-04-18T15:13:20.998Z</time></trkpt><trkpt lat="43.14374820927643" lon="13.811747130958405"><ele>26.0</ele><time>2026-04-18T15:13:21.998Z</time></trkpt><trkpt lat="43.1439525163462" lon="13.811353215318096"><ele>20.0</ele><time>2026-04-18T15:13:22.998Z</time></trkpt><trkpt lat="43.14415674903215" lon="13.810958420615867"><ele>14.0</ele><time>2026-04-18T15:13:23.998Z</time></trkpt><trkpt lat="43.144364409874356" lon="13.810560866232741"><ele>14.0</ele><time>2026-04-18T15:13:24.998Z</time></trkpt><trkpt lat="43.14457777693169" lon="13.810170404793901"><ele>14.0</ele><time>2026-04-18T15:13:25.998Z</time></trkpt><trkpt lat="43.14480751726021" lon="13.809791509785088"><ele>17.0</ele><time>2026-04-18T15:13:26.998Z</time></trkpt><trkpt lat="43.14506966998352" lon="13.80943781213471"><ele>20.0</ele><time>2026-04-18T15:13:27.998Z</time></trkpt><trkpt lat="43.14536757374862" lon="13.809120442490817"><ele>23.5</ele><time>2026-04-18T15:13:28.998Z</time></trkpt><trkpt lat="43.14568140972148" lon="13.808829170996468"><ele>27.0</ele><time>2026-04-18T15:13:29.998Z</time></trkpt><trkpt lat="43.14602017237868" lon="13.808572206107646"><ele>28.0</ele><time>2026-04-18T15:13:30.998Z</time></trkpt><trkpt lat="43.14637326757264" lon="13.808332451167354"><ele>29.0</ele><time>2026-04-18T15:13:31.998Z</time></trkpt><trkpt lat="43.14672762553068" lon="13.808099220949384"><ele>29.0</ele><time>2026-04-18T15:13:32.998Z</time></trkpt><trkpt lat="43.147087620392774" lon="13.807861450714737"><ele>29.0</ele><time>2026-04-18T15:13:33.998Z</time></trkpt><trkpt lat="43.147450129570565" lon="13.807622959819541"><ele>32.5</ele><time>2026-04-18T15:13:34.998Z</time></trkpt><trkpt lat="43.147814593218015" lon="13.807383320445794"><ele>36.0</ele><time>2026-04-18T15:13:35.998Z</time></trkpt><trkpt lat="43.14818436330979" lon="13.807144566219955"><ele>35.5</ele><time>2026-04-18T15:13:36.998Z</time></trkpt><trkpt lat="43.14855683497439" lon="13.806906418410644"><ele>35.0</ele><time>2026-04-18T15:13:37.998Z</time></trkpt><trkpt lat="43.14893153584802" lon="13.806668843755425"><ele>34.0</ele><time>2026-04-18T15:13:38.998Z</time></trkpt><trkpt lat="43.14930736794233" lon="13.80642794654526"><ele>33.0</ele><time>2026-04-18T15:13:39.998Z</time></trkpt><trkpt lat="43.149689296654884" lon="13.80619147964602"><ele>32.0</ele><time>2026-04-18T15:13:40.998Z</time></trkpt><trkpt lat="43.15007694849801" lon="13.805967413962131"><ele>31.0</ele><time>2026-04-18T15:13:41.998Z</time></trkpt><trkpt lat="43.150474605148325" lon="13.805763432009583"><ele>29.0</ele><time>2026-04-18T15:13:42.998Z</time></trkpt><trkpt lat="43.15088113671857" lon="13.805589417267438"><ele>27.0</ele><time>2026-04-18T15:13:43.998Z</time></trkpt><trkpt lat="43.151295850439766" lon="13.805439631813474"><ele>26.5</ele><time>2026-04-18T15:13:44.998Z</time></trkpt><trkpt lat="43.15171365181072" lon="13.805316453563695"><ele>26.0</ele><time>2026-04-18T15:13:45.998Z</time></trkpt><trkpt lat="43.152137676627405" lon="13.805218041497172"><ele>30.0</ele><time>2026-04-18T15:13:46.997Z</time></trkpt><trkpt lat="43.15254328355248" lon="13.80512667559557"><ele>34.0</ele><time>2026-04-18T15:13:47.997Z</time></trkpt><trkpt lat="43.15293375421567" lon="13.805036822563283"><ele>33.5</ele><time>2026-04-18T15:13:48.997Z</time></trkpt><trkpt lat="43.15331661434517" lon="13.80494160584821"><ele>33.0</ele><time>2026-04-18T15:13:49.997Z</time></trkpt><trkpt lat="43.15368198051055" lon="13.804849639483043"><ele>33.0</ele><time>2026-04-18T15:13:50.997Z</time></trkpt><trkpt lat="43.15403750633376" lon="13.804766074902258"><ele>33.0</ele><time>2026-04-18T15:13:52Z</time></trkpt><trkpt lat="43.15438434656332" lon="13.80468456665651"><ele>31.0</ele><time>2026-04-18T15:13:53.001Z</time></trkpt><trkpt lat="43.154724554597536" lon="13.804596431007965"><ele>29.0</ele><time>2026-04-18T15:13:54Z</time></trkpt><trkpt lat="43.155056345839725" lon="13.804494985982938"><ele>30.0</ele><time>2026-04-18T15:13:55Z</time></trkpt><trkpt lat="43.155360569622594" lon="13.80437013883343"><ele>31.0</ele><time>2026-04-18T15:13:56.001Z</time></trkpt><trkpt lat="43.15565190460523" lon="13.804217624091576"><ele>26.5</ele><time>2026-04-18T15:13:57Z</time></trkpt><trkpt lat="43.15592636954788" lon="13.80402037399903"><ele>22.0</ele><time>2026-04-18T15:13:58.001Z</time></trkpt><trkpt lat="43.15618733974419" lon="13.803802116552527"><ele>22.0</ele><time>2026-04-18T15:13:59.001Z</time></trkpt><trkpt lat="43.15642693097288" lon="13.803552161912"><ele>22.0</ele><time>2026-04-18T15:14:00Z</time></trkpt><trkpt lat="43.156647459622086" lon="13.80329958782129"><ele>22.0</ele><time>2026-04-18T15:14:01.001Z</time></trkpt><trkpt lat="43.15684955000057" lon="13.803026976095465"><ele>22.0</ele><time>2026-04-18T15:14:02.001Z</time></trkpt><trkpt lat="43.15704219079642" lon="13.802736932189514"><ele>25.0</ele><time>2026-04-18T15:14:03Z</time></trkpt><trkpt lat="43.15721390485102" lon="13.8024286807002"><ele>28.0</ele><time>2026-04-18T15:14:04.001Z</time></trkpt><trkpt lat="43.157360564195415" lon="13.802125188476477"><ele>24.0</ele><time>2026-04-18T15:14:05.001Z</time></trkpt><trkpt lat="43.15748708898803" lon="13.801826007208254"><ele>20.0</ele><time>2026-04-18T15:14:06Z</time></trkpt><trkpt lat="43.157613869148484" lon="13.801536850650399"><ele>20.0</ele><time>2026-04-18T15:14:07Z</time></trkpt><trkpt lat="43.15774291514424" lon="13.801286644261692"><ele>20.0</ele><time>2026-04-18T15:14:08Z</time></trkpt><trkpt lat="43.157870205865734" lon="13.801037112279591"><ele>20.0</ele><time>2026-04-18T15:14:09Z</time></trkpt><trkpt lat="43.157999096477766" lon="13.800788788684542"><ele>20.0</ele><time>2026-04-18T15:14:10Z</time></trkpt><trkpt lat="43.1581296293261" lon="13.800553961281679"><ele>20.0</ele><time>2026-04-18T15:14:11Z</time></trkpt><trkpt lat="43.15826171164632" lon="13.80033482403969"><ele>20.0</ele><time>2026-04-18T15:14:12Z</time></trkpt><trkpt lat="43.15839240511118" lon="13.800140609868185"><ele>17.0</ele><time>2026-04-18T15:14:13Z</time></trkpt><trkpt lat="43.1585304892066" lon="13.799957550197327"><ele>14.0</ele><time>2026-04-18T15:14:14Z</time></trkpt><trkpt lat="43.15866335239528" lon="13.799788711623762"><ele>11.0</ele><time>2026-04-18T15:14:15Z</time></trkpt><trkpt lat="43.15878616442002" lon="13.799635158315352"><ele>11.0</ele><time>2026-04-18T15:14:16Z</time></trkpt><trkpt lat="43.158918065543695" lon="13.799491509217525"><ele>11.0</ele><time>2026-04-18T15:14:17Z</time></trkpt><trkpt lat="43.15904528702693" lon="13.799365726001534"><ele>11.0</ele><time>2026-04-18T15:14:18Z</time></trkpt><trkpt lat="43.15917238831795" lon="13.799249369835575"><ele>9.75</ele><time>2026-04-18T15:14:19Z</time></trkpt><trkpt lat="43.159295401628896" lon="13.799146894465101"><ele>8.5</ele><time>2026-04-18T15:14:20Z</time></trkpt><trkpt lat="43.1594196575818" lon="13.799057463747738"><ele>7.25</ele><time>2026-04-18T15:14:21Z</time></trkpt><trkpt lat="43.15954482037752" lon="13.798989085916922"><ele>6.0</ele><time>2026-04-18T15:14:22Z</time></trkpt><trkpt lat="43.15966629577422" lon="13.798942337032345"><ele>6.0</ele><time>2026-04-18T15:14:23Z</time></trkpt><trkpt lat="43.159785725351696" lon="13.79891263078507"><ele>6.0</ele><time>2026-04-18T15:14:24Z</time></trkpt><trkpt lat="43.159902630411956" lon="13.798897953099566"><ele>6.0</ele><time>2026-04-18T15:14:25Z</time></trkpt><trkpt lat="43.160019009730604" lon="13.798898929145572"><ele>6.0</ele><time>2026-04-18T15:14:26Z</time></trkpt><trkpt lat="43.160128560494556" lon="13.798911626190607"><ele>5.6</ele><time>2026-04-18T15:14:27Z</time></trkpt><trkpt lat="43.16023507616731" lon="13.798937047337086"><ele>5.199999999999999</ele><time>2026-04-18T15:14:28Z</time></trkpt><trkpt lat="43.16033394384457" lon="13.7989788317003"><ele>4.800000000000001</ele><time>2026-04-18T15:14:29Z</time></trkpt><trkpt lat="43.160422323238514" lon="13.799030296993099"><ele>4.4</ele><time>2026-04-18T15:14:30Z</time></trkpt><trkpt lat="43.16049312750116" lon="13.799083173018285"><ele>4.0</ele><time>2026-04-18T15:14:31Z</time></trkpt><trkpt lat="43.16055628551289" lon="13.799141518931158"><ele>3.9999999999999996</ele><time>2026-04-18T15:14:32Z</time></trkpt><trkpt lat="43.160607774626335" lon="13.799199964383607"><ele>4.0</ele><time>2026-04-18T15:14:33Z</time></trkpt><trkpt lat="43.16065802626923" lon="13.799260704464714"><ele>4.0</ele><time>2026-04-18T15:14:34Z</time></trkpt><trkpt lat="43.16070317171942" lon="13.799324814687298"><ele>4.0</ele><time>2026-04-18T15:14:35Z</time></trkpt><trkpt lat="43.16079194349789" lon="13.799460661561588"><ele>3.9999999999999996</ele><time>2026-04-18T15:14:37Z</time></trkpt><trkpt lat="43.16084151377765" lon="13.799534763813353"><ele>4.0</ele><time>2026-04-18T15:14:38Z</time></trkpt><trkpt lat="43.16088434759038" lon="13.799605788577749"><ele>4.0</ele><time>2026-04-18T15:14:39Z</time></trkpt><trkpt lat="43.160954746456866" lon="13.799737719079133"><ele>4.0</ele><time>2026-04-18T15:14:41Z</time></trkpt><trkpt lat="43.161017756829644" lon="13.799860753107037"><ele>4.0</ele><time>2026-04-18T15:14:42.999Z</time></trkpt><trkpt lat="43.16106905884647" lon="13.799952389781248"><ele>4.0</ele><time>2026-04-18T15:14:44.999Z</time></trkpt><trkpt lat="43.16113236848594" lon="13.800050471180572"><ele>4.0</ele><time>2026-04-18T15:14:46.999Z</time></trkpt><trkpt lat="43.16117884130584" lon="13.80011142871738"><ele>3.9999999999999996</ele><time>2026-04-18T15:14:49.999Z</time></trkpt><trkpt lat="43.16113585622262" lon="13.800047157688592"><ele>4.0</ele><time>2026-04-18T15:14:52.999Z</time></trkpt><trkpt lat="43.161227285602095" lon="13.800082559282028"><ele>4.0</ele><time>2026-04-18T15:15:10.998Z</time></trkpt><trkpt lat="43.16123287179036" lon="13.800268660257839"><ele>4.0</ele><time>2026-04-18T15:15:12.998Z</time></trkpt><trkpt lat="43.16127364778692" lon="13.800336833281854"><ele>3.9999999999999996</ele><time>2026-04-18T15:15:13.998Z</time></trkpt><trkpt lat="43.16131609655938" lon="13.800406609584826"><ele>4.0</ele><time>2026-04-18T15:15:14.998Z</time></trkpt><trkpt lat="43.161355688798366" lon="13.80047495768734"><ele>4.0</ele><time>2026-04-18T15:15:15.998Z</time></trkpt><trkpt lat="43.16139721506389" lon="13.800612879457763"><ele>4.0</ele><time>2026-04-18T15:15:17.998Z</time></trkpt><trkpt lat="43.1613853784615" lon="13.800741755429296"><ele>4.0</ele><time>2026-04-18T15:15:19.997Z</time></trkpt><trkpt lat="43.16133576509143" lon="13.800800872331905"><ele>4.0</ele><time>2026-04-18T15:15:27.997Z</time></trkpt><trkpt lat="43.16124847206368" lon="13.800896095495386"><ele>4.0</ele><time>2026-04-18T15:15:29.997Z</time></trkpt><trkpt lat="43.1611792409912" lon="13.800964352646002"><ele>3.6666666666666665</ele><time>2026-04-18T15:15:30.997Z</time></trkpt><trkpt lat="43.16112241428792" lon="13.801054450004743"><ele>3.333333333333333</ele><time>2026-04-18T15:15:31.997Z</time></trkpt><trkpt lat="43.161091815618384" lon="13.80115781147184"><ele>3.0</ele><time>2026-04-18T15:15:32.997Z</time></trkpt><trkpt lat="43.16108632520649" lon="13.801277114579278"><ele>2.6666666666666665</ele><time>2026-04-18T15:15:33.997Z</time></trkpt><trkpt lat="43.1611090476033" lon="13.801399340843039"><ele>2.333333333333333</ele><time>2026-04-18T15:15:34.997Z</time></trkpt><trkpt lat="43.161158103127406" lon="13.801504055813938"><ele>2.0</ele><time>2026-04-18T15:15:35.997Z</time></trkpt><trkpt lat="43.16123210757999" lon="13.80158767994757"><ele>2.0</ele><time>2026-04-18T15:15:36.997Z</time></trkpt><trkpt lat="43.16132131080458" lon="13.801635904878117"><ele>2.0</ele><time>2026-04-18T15:15:37.997Z</time></trkpt><trkpt lat="43.16141652569075" lon="13.80165156059457"><ele>2.0</ele><time>2026-04-18T15:15:38.997Z</time></trkpt><trkpt lat="43.16151363560732" lon="13.801628750268494"><ele>2.0</ele><time>2026-04-18T15:15:39.997Z</time></trkpt><trkpt lat="43.161601361444795" lon="13.801561342064224"><ele>2.0</ele><time>2026-04-18T15:15:40.997Z</time></trkpt><trkpt lat="43.161677401144935" lon="13.801466188642065"><ele>1.8</ele><time>2026-04-18T15:15:41.997Z</time></trkpt><trkpt lat="43.161741167313316" lon="13.801357405872208"><ele>1.6</ele><time>2026-04-18T15:15:42.997Z</time></trkpt><trkpt lat="43.161808592881805" lon="13.801261611235986"><ele>1.4000000000000001</ele><time>2026-04-18T15:15:43.997Z</time></trkpt><trkpt lat="43.161890621134006" lon="13.801199025542935"><ele>1.2000000000000002</ele><time>2026-04-18T15:15:44.997Z</time></trkpt><trkpt lat="43.161982123246645" lon="13.801168524709663"><ele>1.0</ele><time>2026-04-18T15:15:45.997Z</time></trkpt><trkpt lat="43.16207691984551" lon="13.801155814369103"><ele>1.0</ele><time>2026-04-18T15:15:46.997Z</time></trkpt><trkpt lat="43.162176030643245" lon="13.801158909469113"><ele>1.0</ele><time>2026-04-18T15:15:47.997Z</time></trkpt><trkpt lat="43.16227772811295" lon="13.801177949531166"><ele>1.0</ele><time>2026-04-18T15:15:48.997Z</time></trkpt><trkpt lat="43.16237382521691" lon="13.801194622884676"><ele>1.0</ele><time>2026-04-18T15:15:49.997Z</time></trkpt><trkpt lat="43.16245939806757" lon="13.801208463966542"><ele>1.0</ele><time>2026-04-18T15:15:50.997Z</time></trkpt><trkpt lat="43.162535915653756" lon="13.801217760240641"><ele>1.4</ele><time>2026-04-18T15:15:51.997Z</time></trkpt><trkpt lat="43.16260112414325" lon="13.801223877579865"><ele>1.8</ele><time>2026-04-18T15:15:52.997Z</time></trkpt><trkpt lat="43.16271887213532" lon="13.801261774023668"><ele>2.1999999999999997</ele><time>2026-04-18T15:15:54.997Z</time></trkpt><trkpt lat="43.16280517571707" lon="13.801380131488122"><ele>2.6</ele><time>2026-04-18T15:15:56.996Z</time></trkpt><trkpt lat="43.1628334462932" lon="13.801462214788824"><ele>3.0</ele><time>2026-04-18T15:15:58Z</time></trkpt><trkpt lat="43.1628897525747" lon="13.80159994458841"><ele>3.0</ele><time>2026-04-18T15:16:00Z</time></trkpt><trkpt lat="43.16298609259615" lon="13.801669457472922"><ele>3.0</ele><time>2026-04-18T15:16:02Z</time></trkpt><trkpt lat="43.163050430753394" lon="13.80163720410968"><ele>3.0</ele><time>2026-04-18T15:16:03Z</time></trkpt><trkpt lat="43.16311174124635" lon="13.801572781113416"><ele>3.0</ele><time>2026-04-18T15:16:04Z</time></trkpt><trkpt lat="43.1631494621323" lon="13.801479243667327"><ele>3.0</ele><time>2026-04-18T15:16:05Z</time></trkpt><trkpt lat="43.163130159669116" lon="13.801359228510739"><ele>3.0</ele><time>2026-04-18T15:16:06Z</time></trkpt><trkpt lat="43.16309131464519" lon="13.801275275880325"><ele>3.0</ele><time>2026-04-18T15:16:07Z</time></trkpt><trkpt lat="43.16302710903597" lon="13.801203912044505"><ele>3.0</ele><time>2026-04-18T15:16:08Z</time></trkpt><trkpt lat="43.16294265432568" lon="13.801157369030562"><ele>3.0</ele><time>2026-04-18T15:16:09Z</time></trkpt><trkpt lat="43.162860490973756" lon="13.801138129416536"><ele>3.0</ele><time>2026-04-18T15:16:10Z</time></trkpt><trkpt lat="43.16278328360976" lon="13.801105612805088"><ele>3.0</ele><time>2026-04-18T15:16:11Z</time></trkpt><trkpt lat="43.16273513586408" lon="13.801016972133809"><ele>3.0</ele><time>2026-04-18T15:16:12Z</time></trkpt><trkpt lat="43.16273754105935" lon="13.800883338493422"><ele>2.8</ele><time>2026-04-18T15:16:13Z</time></trkpt><trkpt lat="43.16271398418054" lon="13.800759964865518"><ele>2.5999999999999996</ele><time>2026-04-18T15:16:14Z</time></trkpt><trkpt lat="43.16271739260793" lon="13.80063704721533"><ele>2.4000000000000004</ele><time>2026-04-18T15:16:15Z</time></trkpt><trkpt lat="43.16272021120168" lon="13.800514633032776"><ele>2.2</ele><time>2026-04-18T15:16:16Z</time></trkpt><trkpt lat="43.16272158475675" lon="13.800389257391155"><ele>2.0</ele><time>2026-04-18T15:16:16.999Z</time></trkpt><trkpt lat="43.16272865692483" lon="13.800256675194792"><ele>2.2</ele><time>2026-04-18T15:16:17.999Z</time></trkpt><trkpt lat="43.162740462870254" lon="13.800130272033947"><ele>2.4000000000000004</ele><time>2026-04-18T15:16:18.999Z</time></trkpt><trkpt lat="43.16275388296922" lon="13.800005489822937"><ele>2.5999999999999996</ele><time>2026-04-18T15:16:19.999Z</time></trkpt><trkpt lat="43.16277622414161" lon="13.799865273188114"><ele>2.8</ele><time>2026-04-18T15:16:20.999Z</time></trkpt><trkpt lat="43.16279295140526" lon="13.799732492113266"><ele>3.0</ele><time>2026-04-18T15:16:21.999Z</time></trkpt><trkpt lat="43.16280340040242" lon="13.799617056406754"><ele>3.0</ele><time>2026-04-18T15:16:22.999Z</time></trkpt><trkpt lat="43.162828048235" lon="13.799467952858855"><ele>3.0</ele><time>2026-04-18T15:16:23.999Z</time></trkpt><trkpt lat="43.1628531431127" lon="13.799335464324344"><ele>3.0</ele><time>2026-04-18T15:16:24.999Z</time></trkpt><trkpt lat="43.16286999978665" lon="13.79919653692561"><ele>3.0</ele><time>2026-04-18T15:16:25.999Z</time></trkpt><trkpt lat="43.162886152352414" lon="13.79905965124658"><ele>3.0</ele><time>2026-04-18T15:16:26.999Z</time></trkpt><trkpt lat="43.16290250426354" lon="13.798925284421784"><ele>3.2</ele><time>2026-04-18T15:16:27.999Z</time></trkpt><trkpt lat="43.162903370934735" lon="13.798789374258927"><ele>3.4</ele><time>2026-04-18T15:16:28.999Z</time></trkpt><trkpt lat="43.162900230107226" lon="13.798652406730163"><ele>3.6000000000000005</ele><time>2026-04-18T15:16:29.999Z</time></trkpt><trkpt lat="43.162892888135204" lon="13.798512974996495"><ele>3.8000000000000003</ele><time>2026-04-18T15:16:30.999Z</time></trkpt><trkpt lat="43.16288568916745" lon="13.798373225264122"><ele>4.0</ele><time>2026-04-18T15:16:31.999Z</time></trkpt><trkpt lat="43.16287591859686" lon="13.798231744697338"><ele>4.0</ele><time>2026-04-18T15:16:32.999Z</time></trkpt><trkpt lat="43.162864083678244" lon="13.79808902050736"><ele>4.0</ele><time>2026-04-18T15:16:33.999Z</time></trkpt><trkpt lat="43.16285273936439" lon="13.797945807279621"><ele>4.0</ele><time>2026-04-18T15:16:34.999Z</time></trkpt><trkpt lat="43.16284463204377" lon="13.79779964207404"><ele>4.0</ele><time>2026-04-18T15:16:35.999Z</time></trkpt><trkpt lat="43.162836200056844" lon="13.797650073303322"><ele>4.0</ele><time>2026-04-18T15:16:36.999Z</time></trkpt><trkpt lat="43.162829243890066" lon="13.797497804054153"><ele>4.25</ele><time>2026-04-18T15:16:37.999Z</time></trkpt><trkpt lat="43.16282144128139" lon="13.79734463640426"><ele>4.5</ele><time>2026-04-18T15:16:38.999Z</time></trkpt><trkpt lat="43.162809008587054" lon="13.7971958485739"><ele>4.75</ele><time>2026-04-18T15:16:39.999Z</time></trkpt><trkpt lat="43.162795504699446" lon="13.797045392402305"><ele>5.0</ele><time>2026-04-18T15:16:40.999Z</time></trkpt><trkpt lat="43.162788755604154" lon="13.796877582543301"><ele>5.0</ele><time>2026-04-18T15:16:41.999Z</time></trkpt><trkpt lat="43.16279306446857" lon="13.796700358898374"><ele>5.0</ele><time>2026-04-18T15:16:42.999Z</time></trkpt><trkpt lat="43.162793995395944" lon="13.79653336792812"><ele>5.0</ele><time>2026-04-18T15:16:43.999Z</time></trkpt><trkpt lat="43.16280637247094" lon="13.79636476710271"><ele>5.0</ele><time>2026-04-18T15:16:44.999Z</time></trkpt><trkpt lat="43.162824213456254" lon="13.796194953544344"><ele>5.0</ele><time>2026-04-18T15:16:45.999Z</time></trkpt><trkpt lat="43.16284008257049" lon="13.796023264725939"><ele>5.0</ele><time>2026-04-18T15:16:46.999Z</time></trkpt><trkpt lat="43.16285508947196" lon="13.795848042076186"><ele>5.0</ele><time>2026-04-18T15:16:47.999Z</time></trkpt><trkpt lat="43.16286987713928" lon="13.795667597888384"><ele>5.0</ele><time>2026-04-18T15:16:48.999Z</time></trkpt><trkpt lat="43.162883403616185" lon="13.795489340264758"><ele>5.25</ele><time>2026-04-18T15:16:49.999Z</time></trkpt><trkpt lat="43.16289828091714" lon="13.795307842636022"><ele>5.5</ele><time>2026-04-18T15:16:50.999Z</time></trkpt><trkpt lat="43.162904980820706" lon="13.795125809583467"><ele>5.75</ele><time>2026-04-18T15:16:51.999Z</time></trkpt><trkpt lat="43.162904089657744" lon="13.794943972991454"><ele>6.0</ele><time>2026-04-18T15:16:52.998Z</time></trkpt><trkpt lat="43.16289627198419" lon="13.79476280730705"><ele>6.25</ele><time>2026-04-18T15:16:53.998Z</time></trkpt><trkpt lat="43.162882661537814" lon="13.794584221222966"><ele>6.5</ele><time>2026-04-18T15:16:54.998Z</time></trkpt><trkpt lat="43.1628723369714" lon="13.794403092157907"><ele>6.75</ele><time>2026-04-18T15:16:55.998Z</time></trkpt><trkpt lat="43.162863913539134" lon="13.79423625547621"><ele>7.0</ele><time>2026-04-18T15:16:56.998Z</time></trkpt><trkpt lat="43.16285646665792" lon="13.794079510489118"><ele>7.199999999999999</ele><time>2026-04-18T15:16:57.998Z</time></trkpt><trkpt lat="43.16284750146056" lon="13.79393418623653"><ele>7.3999999999999995</ele><time>2026-04-18T15:16:58.998Z</time></trkpt><trkpt lat="43.1628428699396" lon="13.793797115432056"><ele>7.6000000000000005</ele><time>2026-04-18T15:16:59.998Z</time></trkpt><trkpt lat="43.16283939664513" lon="13.793669669379586"><ele>7.800000000000001</ele><time>2026-04-18T15:17:00.998Z</time></trkpt><trkpt lat="43.1628359804744" lon="13.793551470842173"><ele>8.0</ele><time>2026-04-18T15:17:01.998Z</time></trkpt><trkpt lat="43.16283086921028" lon="13.793438391990279"><ele>8.0</ele><time>2026-04-18T15:17:02.998Z</time></trkpt><trkpt lat="43.16282611870565" lon="13.793322915977065"><ele>8.0</ele><time>2026-04-18T15:17:03.998Z</time></trkpt><trkpt lat="43.16282064278866" lon="13.793203765645499"><ele>8.0</ele><time>2026-04-18T15:17:04.998Z</time></trkpt><trkpt lat="43.16280891043053" lon="13.793081731907405"><ele>8.0</ele><time>2026-04-18T15:17:05.998Z</time></trkpt><trkpt lat="43.16280097063702" lon="13.792955354972468"><ele>8.0</ele><time>2026-04-18T15:17:06.998Z</time></trkpt><trkpt lat="43.16279827466133" lon="13.792821296119586"><ele>8.0</ele><time>2026-04-18T15:17:07.998Z</time></trkpt><trkpt lat="43.16279323461849" lon="13.792686350374499"><ele>8.0</ele><time>2026-04-18T15:17:08.998Z</time></trkpt><trkpt lat="43.16278764670453" lon="13.792546350224722"><ele>8.0</ele><time>2026-04-18T15:17:09.998Z</time></trkpt><trkpt lat="43.162780400883165" lon="13.792410482629203"><ele>8.0</ele><time>2026-04-18T15:17:10.998Z</time></trkpt><trkpt lat="43.16277289073739" lon="13.792284903032083"><ele>8.0</ele><time>2026-04-18T15:17:11.998Z</time></trkpt><trkpt lat="43.162768631720965" lon="13.792170779284865"><ele>8.200000000000001</ele><time>2026-04-18T15:17:12.998Z</time></trkpt><trkpt lat="43.16277041092688" lon="13.7920724558175"><ele>8.4</ele><time>2026-04-18T15:17:13.998Z</time></trkpt><trkpt lat="43.1627524738984" lon="13.791890287139202"><ele>8.600000000000001</ele><time>2026-04-18T15:17:15.998Z</time></trkpt><trkpt lat="43.16274522811938" lon="13.791757233713504"><ele>8.8</ele><time>2026-04-18T15:17:16.998Z</time></trkpt><trkpt lat="43.16273892151705" lon="13.791604722239244"><ele>9.0</ele><time>2026-04-18T15:17:17.998Z</time></trkpt><trkpt lat="43.16273615054464" lon="13.791436382563662"><ele>9.0</ele><time>2026-04-18T15:17:18.998Z</time></trkpt><trkpt lat="43.16272250713608" lon="13.791264682139936"><ele>9.0</ele><time>2026-04-18T15:17:19.998Z</time></trkpt><trkpt lat="43.16270161573812" lon="13.791086518971653"><ele>9.0</ele><time>2026-04-18T15:17:20.998Z</time></trkpt><trkpt lat="43.16266505858861" lon="13.790910800401884"><ele>9.0</ele><time>2026-04-18T15:17:21.998Z</time></trkpt><trkpt lat="43.162619229117965" lon="13.790735330241708"><ele>9.0</ele><time>2026-04-18T15:17:22.998Z</time></trkpt><trkpt lat="43.16255983510231" lon="13.790565960197908"><ele>9.0</ele><time>2026-04-18T15:17:23.998Z</time></trkpt><trkpt lat="43.16249387530284" lon="13.790399573707267"><ele>9.0</ele><time>2026-04-18T15:17:24.998Z</time></trkpt><trkpt lat="43.16242305923509" lon="13.79023598291553"><ele>9.0</ele><time>2026-04-18T15:17:25.998Z</time></trkpt><trkpt lat="43.16234906071699" lon="13.790066055820464"><ele>9.0</ele><time>2026-04-18T15:17:26.998Z</time></trkpt><trkpt lat="43.16226469483324" lon="13.78988602806907"><ele>9.0</ele><time>2026-04-18T15:17:27.998Z</time></trkpt><trkpt lat="43.16217394955493" lon="13.789703012664893"><ele>9.0</ele><time>2026-04-18T15:17:28.998Z</time></trkpt><trkpt lat="43.162090955776144" lon="13.789530958299945"><ele>9.0</ele><time>2026-04-18T15:17:29.997Z</time></trkpt><trkpt lat="43.16201574089212" lon="13.789383525454383"><ele>9.0</ele><time>2026-04-18T15:17:30.997Z</time></trkpt><trkpt lat="43.161945821086285" lon="13.789240799728873"><ele>9.0</ele><time>2026-04-18T15:17:31.997Z</time></trkpt><trkpt lat="43.161889533689646" lon="13.789104635291771"><ele>9.0</ele><time>2026-04-18T15:17:32.997Z</time></trkpt><trkpt lat="43.161842417170945" lon="13.78895674950459"><ele>9.5</ele><time>2026-04-18T15:17:33.997Z</time></trkpt><trkpt lat="43.16180899745303" lon="13.788788406611069"><ele>10.0</ele><time>2026-04-18T15:17:34.997Z</time></trkpt><trkpt lat="43.16179641226332" lon="13.788597166026054"><ele>10.5</ele><time>2026-04-18T15:17:35.997Z</time></trkpt><trkpt lat="43.161794645591016" lon="13.788394848666329"><ele>11.0</ele><time>2026-04-18T15:17:36.997Z</time></trkpt><trkpt lat="43.161775796920594" lon="13.788193387940412"><ele>11.5</ele><time>2026-04-18T15:17:37.997Z</time></trkpt><trkpt lat="43.161747473442354" lon="13.787984079685073"><ele>12.0</ele><time>2026-04-18T15:17:38.997Z</time></trkpt><trkpt lat="43.16172357923232" lon="13.78777837410851"><ele>12.5</ele><time>2026-04-18T15:17:39.997Z</time></trkpt><trkpt lat="43.16170374339079" lon="13.787587335327391"><ele>13.0</ele><time>2026-04-18T15:17:40.997Z</time></trkpt><trkpt lat="43.161677954246656" lon="13.787419846289787"><ele>13.600000000000001</ele><time>2026-04-18T15:17:41.997Z</time></trkpt><trkpt lat="43.16165285422588" lon="13.787273118994372"><ele>14.200000000000001</ele><time>2026-04-18T15:17:42.997Z</time></trkpt><trkpt lat="43.16163347193469" lon="13.787125421222182"><ele>14.8</ele><time>2026-04-18T15:17:43.997Z</time></trkpt><trkpt lat="43.16161665204158" lon="13.78698257024577"><ele>15.4</ele><time>2026-04-18T15:17:44.997Z</time></trkpt><trkpt lat="43.161603298675274" lon="13.786851428063335"><ele>16.0</ele><time>2026-04-18T15:17:45.997Z</time></trkpt><trkpt lat="43.16159834118197" lon="13.78673963575756"><ele>15.8</ele><time>2026-04-18T15:17:46.997Z</time></trkpt><trkpt lat="43.1615916132622" lon="13.786622155052502"><ele>15.600000000000001</ele><time>2026-04-18T15:17:47.997Z</time></trkpt><trkpt lat="43.161576433322736" lon="13.786483594262199"><ele>15.4</ele><time>2026-04-18T15:17:48.997Z</time></trkpt><trkpt lat="43.161556677135316" lon="13.78633384209029"><ele>15.2</ele><time>2026-04-18T15:17:49.997Z</time></trkpt><trkpt lat="43.16153642935385" lon="13.786171656492385"><ele>15.0</ele><time>2026-04-18T15:17:50.997Z</time></trkpt><trkpt lat="43.1615154448568" lon="13.78600558295089"><ele>15.0</ele><time>2026-04-18T15:17:51.997Z</time></trkpt><trkpt lat="43.1614929865305" lon="13.785838717078976"><ele>15.0</ele><time>2026-04-18T15:17:52.997Z</time></trkpt><trkpt lat="43.16147203107745" lon="13.78566458135717"><ele>15.0</ele><time>2026-04-18T15:17:53.997Z</time></trkpt><trkpt lat="43.16145278888126" lon="13.785483458453083"><ele>15.0</ele><time>2026-04-18T15:17:54.997Z</time></trkpt><trkpt lat="43.16143444451422" lon="13.785301053717513"><ele>16.0</ele><time>2026-04-18T15:17:55.997Z</time></trkpt><trkpt lat="43.161417571194725" lon="13.785115029504308"><ele>17.0</ele><time>2026-04-18T15:17:56.997Z</time></trkpt><trkpt lat="43.16139875976075" lon="13.784929477475485"><ele>18.0</ele><time>2026-04-18T15:17:57.997Z</time></trkpt><trkpt lat="43.16137833943004" lon="13.784742034130058"><ele>19.0</ele><time>2026-04-18T15:17:58.997Z</time></trkpt><trkpt lat="43.161355546332864" lon="13.784562294296938"><ele>19.0</ele><time>2026-04-18T15:17:59.997Z</time></trkpt><trkpt lat="43.161336297824356" lon="13.784394596521922"><ele>19.0</ele><time>2026-04-18T15:18:00.997Z</time></trkpt><trkpt lat="43.16132041329177" lon="13.784247371632391"><ele>19.0</ele><time>2026-04-18T15:18:01.997Z</time></trkpt><trkpt lat="43.16130539148658" lon="13.78410851321286"><ele>19.0</ele><time>2026-04-18T15:18:02.997Z</time></trkpt><trkpt lat="43.16129356912147" lon="13.783977688253659"><ele>19.0</ele><time>2026-04-18T15:18:04Z</time></trkpt><trkpt lat="43.16128629452293" lon="13.783868253247897"><ele>20.4</ele><time>2026-04-18T15:18:05Z</time></trkpt><trkpt lat="43.16127651337466" lon="13.78376556089933"><ele>21.799999999999997</ele><time>2026-04-18T15:18:06Z</time></trkpt><trkpt lat="43.161258190051164" lon="13.78364585578332"><ele>23.200000000000003</ele><time>2026-04-18T15:18:07Z</time></trkpt><trkpt lat="43.16123576905509" lon="13.783499183439579"><ele>24.6</ele><time>2026-04-18T15:18:08Z</time></trkpt><trkpt lat="43.16121588670932" lon="13.783345004697601"><ele>26.0</ele><time>2026-04-18T15:18:09Z</time></trkpt><trkpt lat="43.16119493076482" lon="13.78318074633042"><ele>27.5</ele><time>2026-04-18T15:18:10Z</time></trkpt><trkpt lat="43.16117383676743" lon="13.783006605747845"><ele>29.0</ele><time>2026-04-18T15:18:11Z</time></trkpt><trkpt lat="43.1611544478297" lon="13.782823744453555"><ele>30.5</ele><time>2026-04-18T15:18:12Z</time></trkpt><trkpt lat="43.16113135432169" lon="13.782627570036311"><ele>32.0</ele><time>2026-04-18T15:18:13Z</time></trkpt><trkpt lat="43.16111089426795" lon="13.782417389738274"><ele>33.666666666666664</ele><time>2026-04-18T15:18:14Z</time></trkpt><trkpt lat="43.16108698895383" lon="13.782198637299953"><ele>35.333333333333336</ele><time>2026-04-18T15:18:15Z</time></trkpt><trkpt lat="43.16106699667292" lon="13.781969801568053"><ele>37.0</ele><time>2026-04-18T15:18:16Z</time></trkpt><trkpt lat="43.16105248530794" lon="13.781726451274396"><ele>39.0</ele><time>2026-04-18T15:18:17Z</time></trkpt><trkpt lat="43.161063730939475" lon="13.781477978252427"><ele>41.0</ele><time>2026-04-18T15:18:18Z</time></trkpt><trkpt lat="43.161096598334865" lon="13.781221512657726"><ele>43.0</ele><time>2026-04-18T15:18:19Z</time></trkpt><trkpt lat="43.161138080312426" lon="13.78094429013916"><ele>45.333333333333336</ele><time>2026-04-18T15:18:20Z</time></trkpt><trkpt lat="43.16117728911508" lon="13.780671107847684"><ele>47.66666666666667</ele><time>2026-04-18T15:18:21Z</time></trkpt><trkpt lat="43.161218228482845" lon="13.78037346518418"><ele>50.0</ele><time>2026-04-18T15:18:22Z</time></trkpt><trkpt lat="43.16125973912171" lon="13.780037266042859"><ele>52.5</ele><time>2026-04-18T15:18:23Z</time></trkpt><trkpt lat="43.161301309010945" lon="13.77970479641493"><ele>55.0</ele><time>2026-04-18T15:18:24Z</time></trkpt><trkpt lat="43.16133136784072" lon="13.779421927170013"><ele>55.33333333333333</ele><time>2026-04-18T15:18:25Z</time></trkpt><trkpt lat="43.16136293364027" lon="13.779159040731255"><ele>55.66666666666667</ele><time>2026-04-18T15:18:26Z</time></trkpt><trkpt lat="43.16139314926217" lon="13.778916918034732"><ele>56.0</ele><time>2026-04-18T15:18:26.999Z</time></trkpt><trkpt lat="43.16142061983904" lon="13.778705133786227"><ele>55.25</ele><time>2026-04-18T15:18:27.999Z</time></trkpt><trkpt lat="43.16145021976351" lon="13.778513729718203"><ele>54.5</ele><time>2026-04-18T15:18:28.999Z</time></trkpt><trkpt lat="43.161506925114445" lon="13.778349689207058"><ele>53.75</ele><time>2026-04-18T15:18:29.999Z</time></trkpt><trkpt lat="43.161572241767026" lon="13.778197620754963"><ele>53.0</ele><time>2026-04-18T15:18:30.999Z</time></trkpt><trkpt lat="43.16166614750269" lon="13.778056015400963"><ele>52.333333333333336</ele><time>2026-04-18T15:18:31.999Z</time></trkpt><trkpt lat="43.1617976911009" lon="13.777913239897781"><ele>51.66666666666667</ele><time>2026-04-18T15:18:32.999Z</time></trkpt><trkpt lat="43.161959710914395" lon="13.777750246043466"><ele>51.0</ele><time>2026-04-18T15:18:33.999Z</time></trkpt><trkpt lat="43.16213069288376" lon="13.777551397338545"><ele>55.5</ele><time>2026-04-18T15:18:34.999Z</time></trkpt><trkpt lat="43.16233750277034" lon="13.777352818466762"><ele>60.0</ele><time>2026-04-18T15:18:35.999Z</time></trkpt><trkpt lat="43.16256277601507" lon="13.77714507996466"><ele>60.0</ele><time>2026-04-18T15:18:36.999Z</time></trkpt><trkpt lat="43.162800344028796" lon="13.776914734328331"><ele>60.0</ele><time>2026-04-18T15:18:37.999Z</time></trkpt><trkpt lat="43.163025837392624" lon="13.776678126368772"><ele>63.5</ele><time>2026-04-18T15:18:38.999Z</time></trkpt><trkpt lat="43.16323169667731" lon="13.776443377222302"><ele>67.0</ele><time>2026-04-18T15:18:39.999Z</time></trkpt><trkpt lat="43.163410960615764" lon="13.776178108644197"><ele>70.0</ele><time>2026-04-18T15:18:40.999Z</time></trkpt><trkpt lat="43.16357577654459" lon="13.77584999642223"><ele>73.0</ele><time>2026-04-18T15:18:41.999Z</time></trkpt><trkpt lat="43.163741267166614" lon="13.775486681796417"><ele>74.0</ele><time>2026-04-18T15:18:42.999Z</time></trkpt><trkpt lat="43.16392504669965" lon="13.775119840486187"><ele>75.0</ele><time>2026-04-18T15:18:43.999Z</time></trkpt><trkpt lat="43.16411991939456" lon="13.774763995044685"><ele>76.5</ele><time>2026-04-18T15:18:44.999Z</time></trkpt><trkpt lat="43.16429416577665" lon="13.774446258872668"><ele>78.0</ele><time>2026-04-18T15:18:45.999Z</time></trkpt><trkpt lat="43.164440375069155" lon="13.774150621527605"><ele>78.5</ele><time>2026-04-18T15:18:46.999Z</time></trkpt><trkpt lat="43.16456522933957" lon="13.773844428822779"><ele>79.0</ele><time>2026-04-18T15:18:47.999Z</time></trkpt><trkpt lat="43.1646705423576" lon="13.773516819025462"><ele>78.0</ele><time>2026-04-18T15:18:48.999Z</time></trkpt><trkpt lat="43.16475211869533" lon="13.773201178155212"><ele>77.0</ele><time>2026-04-18T15:18:49.999Z</time></trkpt><trkpt lat="43.16483845192195" lon="13.772899873038241"><ele>83.0</ele><time>2026-04-18T15:18:50.999Z</time></trkpt><trkpt lat="43.16494687308153" lon="13.772614028793203"><ele>89.0</ele><time>2026-04-18T15:18:51.999Z</time></trkpt><trkpt lat="43.16507725163797" lon="13.772353254632096"><ele>89.0</ele><time>2026-04-18T15:18:52.999Z</time></trkpt><trkpt lat="43.1652093076401" lon="13.772126370041075"><ele>89.0</ele><time>2026-04-18T15:18:53.999Z</time></trkpt><trkpt lat="43.165339370102124" lon="13.771928545945105"><ele>89.0</ele><time>2026-04-18T15:18:54.999Z</time></trkpt><trkpt lat="43.16550721158126" lon="13.771780234869112"><ele>87.0</ele><time>2026-04-18T15:18:55.999Z</time></trkpt><trkpt lat="43.16568288646244" lon="13.771608795077539"><ele>85.0</ele><time>2026-04-18T15:18:56.999Z</time></trkpt><trkpt lat="43.16587128247042" lon="13.771450596143687"><ele>83.0</ele><time>2026-04-18T15:18:57.999Z</time></trkpt><trkpt lat="43.166041665254305" lon="13.771262318948454"><ele>86.0</ele><time>2026-04-18T15:18:58.999Z</time></trkpt><trkpt lat="43.16618647763858" lon="13.771057383406903"><ele>89.0</ele><time>2026-04-18T15:18:59.999Z</time></trkpt><trkpt lat="43.166314351219256" lon="13.770876601764547"><ele>92.0</ele><time>2026-04-18T15:19:00.999Z</time></trkpt><trkpt lat="43.16646305056969" lon="13.770783026670816"><ele>98.0</ele><time>2026-04-18T15:19:01.999Z</time></trkpt><trkpt lat="43.16662556578023" lon="13.770703072788535"><ele>104.0</ele><time>2026-04-18T15:19:02.999Z</time></trkpt><trkpt lat="43.16680659900299" lon="13.77061827784132"><ele>110.0</ele><time>2026-04-18T15:19:03.998Z</time></trkpt><trkpt lat="43.16698593084202" lon="13.770544992620673"><ele>110.0</ele><time>2026-04-18T15:19:04.998Z</time></trkpt><trkpt lat="43.16713716878454" lon="13.770461993081579"><ele>110.0</ele><time>2026-04-18T15:19:05.998Z</time></trkpt><trkpt lat="43.16727099219204" lon="13.770325392996462"><ele>110.0</ele><time>2026-04-18T15:19:06.998Z</time></trkpt><trkpt lat="43.16736294540036" lon="13.770107284776396"><ele>110.66666666666666</ele><time>2026-04-18T15:19:07.998Z</time></trkpt><trkpt lat="43.167412736734576" lon="13.76983333852779"><ele>111.33333333333334</ele><time>2026-04-18T15:19:08.998Z</time></trkpt><trkpt lat="43.16743712286208" lon="13.769516195823678"><ele>112.0</ele><time>2026-04-18T15:19:09.998Z</time></trkpt><trkpt lat="43.16745884953753" lon="13.769173985573609"><ele>112.0</ele><time>2026-04-18T15:19:10.998Z</time></trkpt><trkpt lat="43.167489160157906" lon="13.768815976742513"><ele>112.0</ele><time>2026-04-18T15:19:11.998Z</time></trkpt><trkpt lat="43.16749348860768" lon="13.768455951119149"><ele>113.0</ele><time>2026-04-18T15:19:12.998Z</time></trkpt><trkpt lat="43.16747671599067" lon="13.768103100116157"><ele>114.0</ele><time>2026-04-18T15:19:13.998Z</time></trkpt><trkpt lat="43.16747796369878" lon="13.767797355312359"><ele>113.66666666666666</ele><time>2026-04-18T15:19:14.998Z</time></trkpt><trkpt lat="43.16749463986428" lon="13.76750111152708"><ele>113.33333333333333</ele><time>2026-04-18T15:19:15.998Z</time></trkpt><trkpt lat="43.167545543220825" lon="13.76719139117335"><ele>113.0</ele><time>2026-04-18T15:19:16.998Z</time></trkpt><trkpt lat="43.16760403906755" lon="13.766839865307801"><ele>113.0</ele><time>2026-04-18T15:19:17.998Z</time></trkpt><trkpt lat="43.16767461344348" lon="13.766465394662514"><ele>113.0</ele><time>2026-04-18T15:19:18.998Z</time></trkpt><trkpt lat="43.167743423547456" lon="13.766065887379153"><ele>110.5</ele><time>2026-04-18T15:19:19.998Z</time></trkpt><trkpt lat="43.16780851911731" lon="13.765705894866688"><ele>108.0</ele><time>2026-04-18T15:19:20.998Z</time></trkpt><trkpt lat="43.167884985544774" lon="13.765384019030186"><ele>106.0</ele><time>2026-04-18T15:19:21.998Z</time></trkpt><trkpt lat="43.1679529367677" lon="13.765056752637168"><ele>104.0</ele><time>2026-04-18T15:19:22.998Z</time></trkpt><trkpt lat="43.16812330015304" lon="13.76474220951574"><ele>115.5</ele><time>2026-04-18T15:19:23.998Z</time></trkpt><trkpt lat="43.16827068882067" lon="13.76444845483771"><ele>127.0</ele><time>2026-04-18T15:19:24.998Z</time></trkpt><trkpt lat="43.16838742975109" lon="13.764178993782739"><ele>127.0</ele><time>2026-04-18T15:19:25.998Z</time></trkpt><trkpt lat="43.16849134366306" lon="13.763936305161195"><ele>127.0</ele><time>2026-04-18T15:19:26.998Z</time></trkpt><trkpt lat="43.16859380612128" lon="13.76372750935083"><ele>127.0</ele><time>2026-04-18T15:19:27.998Z</time></trkpt><trkpt lat="43.16871437829372" lon="13.763538824559944"><ele>125.66666666666667</ele><time>2026-04-18T15:19:28.998Z</time></trkpt><trkpt lat="43.168857928495534" lon="13.76337701155492"><ele>124.33333333333334</ele><time>2026-04-18T15:19:29.998Z</time></trkpt><trkpt lat="43.1690112353809" lon="13.763213762668581"><ele>123.0</ele><time>2026-04-18T15:19:30.998Z</time></trkpt><trkpt lat="43.16915515638955" lon="13.763025725466623"><ele>125.66666666666666</ele><time>2026-04-18T15:19:31.998Z</time></trkpt><trkpt lat="43.16928400307235" lon="13.762801983613016"><ele>128.33333333333331</ele><time>2026-04-18T15:19:32.998Z</time></trkpt><trkpt lat="43.16940630551904" lon="13.762569043937079"><ele>131.0</ele><time>2026-04-18T15:19:33.998Z</time></trkpt><trkpt lat="43.169534177942765" lon="13.762337022372073"><ele>131.0</ele><time>2026-04-18T15:19:34.998Z</time></trkpt><trkpt lat="43.16966127385982" lon="13.762114073333576"><ele>131.0</ele><time>2026-04-18T15:19:35.998Z</time></trkpt><trkpt lat="43.169789131569146" lon="13.761897999946044"><ele>131.0</ele><time>2026-04-18T15:19:36.998Z</time></trkpt><trkpt lat="43.16991171520105" lon="13.761679737883131"><ele>134.33333333333331</ele><time>2026-04-18T15:19:37.998Z</time></trkpt><trkpt lat="43.17002163618087" lon="13.76144466264556"><ele>137.66666666666666</ele><time>2026-04-18T15:19:38.998Z</time></trkpt><trkpt lat="43.17010942413821" lon="13.761187140939752"><ele>141.0</ele><time>2026-04-18T15:19:39.998Z</time></trkpt><trkpt lat="43.17017793235924" lon="13.76091325693936"><ele>141.0</ele><time>2026-04-18T15:19:40.997Z</time></trkpt><trkpt lat="43.17023434316568" lon="13.760637426336013"><ele>141.0</ele><time>2026-04-18T15:19:41.997Z</time></trkpt><trkpt lat="43.17028219256795" lon="13.760383022757305"><ele>141.0</ele><time>2026-04-18T15:19:42.997Z</time></trkpt><trkpt lat="43.17033900834588" lon="13.760143737757817"><ele>139.33333333333334</ele><time>2026-04-18T15:19:43.997Z</time></trkpt><trkpt lat="43.17040198748055" lon="13.759928286905922"><ele>137.66666666666669</ele><time>2026-04-18T15:19:44.997Z</time></trkpt><trkpt lat="43.1704686825744" lon="13.759723034674506"><ele>136.0</ele><time>2026-04-18T15:19:45.997Z</time></trkpt><trkpt lat="43.17053810896254" lon="13.759537061188597"><ele>134.33333333333334</ele><time>2026-04-18T15:19:46.997Z</time></trkpt><trkpt lat="43.17061645920195" lon="13.759351086354359"><ele>132.66666666666666</ele><time>2026-04-18T15:19:47.997Z</time></trkpt><trkpt lat="43.1707038236789" lon="13.759163355035318"><ele>131.0</ele><time>2026-04-18T15:19:48.997Z</time></trkpt><trkpt lat="43.17078628371578" lon="13.758966474515107"><ele>134.33333333333331</ele><time>2026-04-18T15:19:49.997Z</time></trkpt><trkpt lat="43.17085711621626" lon="13.75874216169597"><ele>137.66666666666666</ele><time>2026-04-18T15:19:50.997Z</time></trkpt><trkpt lat="43.170918989492314" lon="13.758505533909755"><ele>141.0</ele><time>2026-04-18T15:19:51.997Z</time></trkpt><trkpt lat="43.17096765787762" lon="13.75828343062358"><ele>141.0</ele><time>2026-04-18T15:19:52.997Z</time></trkpt><trkpt lat="43.171001230924404" lon="13.758083222392912"><ele>141.0</ele><time>2026-04-18T15:19:53.997Z</time></trkpt><trkpt lat="43.17102932997079" lon="13.75789645783755"><ele>141.0</ele><time>2026-04-18T15:19:54.997Z</time></trkpt><trkpt lat="43.17105914619135" lon="13.757703875401251"><ele>141.0</ele><time>2026-04-18T15:19:55.997Z</time></trkpt><trkpt lat="43.17109073654277" lon="13.757496615198264"><ele>141.0</ele><time>2026-04-18T15:19:56.997Z</time></trkpt><trkpt lat="43.17111633256625" lon="13.757279620477295"><ele>141.0</ele><time>2026-04-18T15:19:57.997Z</time></trkpt><trkpt lat="43.17112449242732" lon="13.7570513446641"><ele>141.0</ele><time>2026-04-18T15:19:58.997Z</time></trkpt><trkpt lat="43.171113894869805" lon="13.7568143738056"><ele>141.0</ele><time>2026-04-18T15:19:59.997Z</time></trkpt><trkpt lat="43.17108707438971" lon="13.756571183670614"><ele>141.0</ele><time>2026-04-18T15:20:00.997Z</time></trkpt><trkpt lat="43.17106082561667" lon="13.75631669464679"><ele>141.0</ele><time>2026-04-18T15:20:01.997Z</time></trkpt><trkpt lat="43.17104078915274" lon="13.756061559698797"><ele>140.66666666666666</ele><time>2026-04-18T15:20:02.997Z</time></trkpt><trkpt lat="43.17102888209483" lon="13.755814530612664"><ele>140.33333333333331</ele><time>2026-04-18T15:20:03.997Z</time></trkpt><trkpt lat="43.17102601699606" lon="13.755557814396305"><ele>140.0</ele><time>2026-04-18T15:20:04.997Z</time></trkpt><trkpt lat="43.1710277530995" lon="13.755312556622865"><ele>138.33333333333331</ele><time>2026-04-18T15:20:05.997Z</time></trkpt><trkpt lat="43.17103049487561" lon="13.755071359797082"><ele>136.66666666666666</ele><time>2026-04-18T15:20:06.997Z</time></trkpt><trkpt lat="43.171031747821345" lon="13.754838266584805"><ele>135.0</ele><time>2026-04-18T15:20:07.997Z</time></trkpt><trkpt lat="43.1710290215165" lon="13.754611563003236"><ele>135.0</ele><time>2026-04-18T15:20:08.997Z</time></trkpt><trkpt lat="43.17102485026744" lon="13.754388476156118"><ele>135.0</ele><time>2026-04-18T15:20:10Z</time></trkpt><trkpt lat="43.17101957955897" lon="13.754153979315008"><ele>135.0</ele><time>2026-04-18T15:20:11Z</time></trkpt><trkpt lat="43.17100977965307" lon="13.75390405762303"><ele>133.66666666666666</ele><time>2026-04-18T15:20:12Z</time></trkpt><trkpt lat="43.17100115015167" lon="13.75364909086498"><ele>132.33333333333331</ele><time>2026-04-18T15:20:13Z</time></trkpt><trkpt lat="43.170988284410114" lon="13.75339486547173"><ele>131.0</ele><time>2026-04-18T15:20:14Z</time></trkpt><trkpt lat="43.170966069243406" lon="13.753146269983523"><ele>131.0</ele><time>2026-04-18T15:20:15Z</time></trkpt><trkpt lat="43.170925947616944" lon="13.752896551984291"><ele>131.0</ele><time>2026-04-18T15:20:16Z</time></trkpt><trkpt lat="43.17085938354624" lon="13.752654176417769"><ele>131.0</ele><time>2026-04-18T15:20:17Z</time></trkpt><trkpt lat="43.17077655929954" lon="13.75241751029338"><ele>131.33333333333331</ele><time>2026-04-18T15:20:18Z</time></trkpt><trkpt lat="43.170693915584636" lon="13.752185614861292"><ele>131.66666666666666</ele><time>2026-04-18T15:20:19Z</time></trkpt><trkpt lat="43.17061442532405" lon="13.751950028668109"><ele>132.0</ele><time>2026-04-18T15:20:20Z</time></trkpt><trkpt lat="43.1705405519386" lon="13.751720993415205"><ele>132.33333333333334</ele><time>2026-04-18T15:20:21Z</time></trkpt><trkpt lat="43.17046877854116" lon="13.751495916335518"><ele>132.66666666666669</ele><time>2026-04-18T15:20:22Z</time></trkpt><trkpt lat="43.17040065143272" lon="13.751278365119482"><ele>133.0</ele><time>2026-04-18T15:20:23Z</time></trkpt><trkpt lat="43.170331708742175" lon="13.751065339371465"><ele>135.0</ele><time>2026-04-18T15:20:24Z</time></trkpt><trkpt lat="43.170264919917656" lon="13.750854565998662"><ele>137.0</ele><time>2026-04-18T15:20:25Z</time></trkpt><trkpt lat="43.170196792022004" lon="13.750648899088112"><ele>139.0</ele><time>2026-04-18T15:20:26Z</time></trkpt><trkpt lat="43.17012619733112" lon="13.750435529173796"><ele>139.0</ele><time>2026-04-18T15:20:27Z</time></trkpt><trkpt lat="43.170053750222245" lon="13.750224599061884"><ele>139.0</ele><time>2026-04-18T15:20:28Z</time></trkpt><trkpt lat="43.16997920895172" lon="13.750007549096342"><ele>139.0</ele><time>2026-04-18T15:20:29Z</time></trkpt><trkpt lat="43.169897572200654" lon="13.749783965724701"><ele>140.0</ele><time>2026-04-18T15:20:30Z</time></trkpt><trkpt lat="43.16981871716967" lon="13.74956421407605"><ele>141.0</ele><time>2026-04-18T15:20:31Z</time></trkpt><trkpt lat="43.16975048665182" lon="13.749346761210385"><ele>142.0</ele><time>2026-04-18T15:20:32Z</time></trkpt><trkpt lat="43.169687474871694" lon="13.749107797346975"><ele>142.0</ele><time>2026-04-18T15:20:33Z</time></trkpt><trkpt lat="43.16963334982744" lon="13.748859524521"><ele>142.0</ele><time>2026-04-18T15:20:34Z</time></trkpt><trkpt lat="43.16958817267938" lon="13.748636401219397"><ele>142.0</ele><time>2026-04-18T15:20:35Z</time></trkpt><trkpt lat="43.169544484512976" lon="13.748425715094724"><ele>143.66666666666669</ele><time>2026-04-18T15:20:36Z</time></trkpt><trkpt lat="43.16950219401229" lon="13.748223272671053"><ele>145.33333333333334</ele><time>2026-04-18T15:20:37Z</time></trkpt><trkpt lat="43.169460690757575" lon="13.748021799593994"><ele>147.0</ele><time>2026-04-18T15:20:38Z</time></trkpt><trkpt lat="43.16941633513942" lon="13.74782660625302"><ele>147.25</ele><time>2026-04-18T15:20:38.999Z</time></trkpt><trkpt lat="43.1693749442947" lon="13.747627033687948"><ele>147.5</ele><time>2026-04-18T15:20:39.999Z</time></trkpt><trkpt lat="43.16933367908771" lon="13.747429490583444"><ele>147.75</ele><time>2026-04-18T15:20:40.999Z</time></trkpt><trkpt lat="43.16929237328668" lon="13.747238997142043"><ele>148.0</ele><time>2026-04-18T15:20:41.999Z</time></trkpt><trkpt lat="43.16925130902264" lon="13.747047112331078"><ele>147.66666666666669</ele><time>2026-04-18T15:20:42.999Z</time></trkpt><trkpt lat="43.16920559697423" lon="13.74683991063431"><ele>147.33333333333334</ele><time>2026-04-18T15:20:43.999Z</time></trkpt><trkpt lat="43.169155659295186" lon="13.74662786862341"><ele>147.0</ele><time>2026-04-18T15:20:44.999Z</time></trkpt><trkpt lat="43.169119910371585" lon="13.746388459456544"><ele>147.0</ele><time>2026-04-18T15:20:45.999Z</time></trkpt><trkpt lat="43.16907022337147" lon="13.74613624988893"><ele>147.0</ele><time>2026-04-18T15:20:46.999Z</time></trkpt><trkpt lat="43.16901916552659" lon="13.745877081956003"><ele>147.0</ele><time>2026-04-18T15:20:47.999Z</time></trkpt><trkpt lat="43.16896067470783" lon="13.745615818799493"><ele>146.0</ele><time>2026-04-18T15:20:48.999Z</time></trkpt><trkpt lat="43.16892488225036" lon="13.745346484114485"><ele>145.0</ele><time>2026-04-18T15:20:49.999Z</time></trkpt><trkpt lat="43.16889219390347" lon="13.745081657720277"><ele>144.0</ele><time>2026-04-18T15:20:50.999Z</time></trkpt><trkpt lat="43.168858442990356" lon="13.744814670963743"><ele>144.0</ele><time>2026-04-18T15:20:51.999Z</time></trkpt><trkpt lat="43.16881917939484" lon="13.7445455729566"><ele>144.0</ele><time>2026-04-18T15:20:52.999Z</time></trkpt><trkpt lat="43.168773098506854" lon="13.74428105717674"><ele>144.0</ele><time>2026-04-18T15:20:53.999Z</time></trkpt><trkpt lat="43.16871926334472" lon="13.744017728370235"><ele>144.0</ele><time>2026-04-18T15:20:54.999Z</time></trkpt><trkpt lat="43.16866313065616" lon="13.7437377771869"><ele>144.0</ele><time>2026-04-18T15:20:55.999Z</time></trkpt><trkpt lat="43.16860920425386" lon="13.743466834128592"><ele>144.0</ele><time>2026-04-18T15:20:56.999Z</time></trkpt><trkpt lat="43.168552366519876" lon="13.743197437936098"><ele>146.0</ele><time>2026-04-18T15:20:57.999Z</time></trkpt><trkpt lat="43.16849564730361" lon="13.742931525601689"><ele>148.0</ele><time>2026-04-18T15:20:58.999Z</time></trkpt><trkpt lat="43.16843521808117" lon="13.742669991928677"><ele>150.0</ele><time>2026-04-18T15:20:59.999Z</time></trkpt><trkpt lat="43.168366524222854" lon="13.742417627837634"><ele>150.66666666666666</ele><time>2026-04-18T15:21:00.999Z</time></trkpt><trkpt lat="43.16829192931706" lon="13.742168400842687"><ele>151.33333333333331</ele><time>2026-04-18T15:21:01.999Z</time></trkpt><trkpt lat="43.16821940227284" lon="13.741924230440631"><ele>152.0</ele><time>2026-04-18T15:21:02.999Z</time></trkpt><trkpt lat="43.16814503920613" lon="13.74167818163561"><ele>153.33333333333331</ele><time>2026-04-18T15:21:03.999Z</time></trkpt><trkpt lat="43.16807335388712" lon="13.741431203668888"><ele>154.66666666666666</ele><time>2026-04-18T15:21:04.999Z</time></trkpt><trkpt lat="43.16800244500638" lon="13.741186419005354"><ele>156.0</ele><time>2026-04-18T15:21:05.999Z</time></trkpt><trkpt lat="43.16793009387431" lon="13.740941979955904"><ele>157.66666666666666</ele><time>2026-04-18T15:21:06.999Z</time></trkpt><trkpt lat="43.167856313710075" lon="13.740696252837072"><ele>159.33333333333331</ele><time>2026-04-18T15:21:07.999Z</time></trkpt><trkpt lat="43.16778495455335" lon="13.740453103619226"><ele>161.0</ele><time>2026-04-18T15:21:08.999Z</time></trkpt><trkpt lat="43.16771250383067" lon="13.740211578255916"><ele>162.0</ele><time>2026-04-18T15:21:09.999Z</time></trkpt><trkpt lat="43.16764073283445" lon="13.739974210857508"><ele>163.0</ele><time>2026-04-18T15:21:10.999Z</time></trkpt><trkpt lat="43.167571922357446" lon="13.739734137003927"><ele>164.0</ele><time>2026-04-18T15:21:11.999Z</time></trkpt><trkpt lat="43.16750755542764" lon="13.739487061328221"><ele>164.0</ele><time>2026-04-18T15:21:12.999Z</time></trkpt><trkpt lat="43.16745553904899" lon="13.739240999674962"><ele>164.0</ele><time>2026-04-18T15:21:13.999Z</time></trkpt><trkpt lat="43.167413292897976" lon="13.738995617609975"><ele>164.0</ele><time>2026-04-18T15:21:14.998Z</time></trkpt><trkpt lat="43.16738017730815" lon="13.738754284739688"><ele>161.33333333333331</ele><time>2026-04-18T15:21:15.998Z</time></trkpt><trkpt lat="43.167352695151095" lon="13.738517913474116"><ele>158.66666666666666</ele><time>2026-04-18T15:21:16.998Z</time></trkpt><trkpt lat="43.16732130966277" lon="13.73828512707233"><ele>156.0</ele><time>2026-04-18T15:21:17.998Z</time></trkpt><trkpt lat="43.16729275369767" lon="13.738055903864575"><ele>156.0</ele><time>2026-04-18T15:21:18.998Z</time></trkpt><trkpt lat="43.16726467452226" lon="13.737852955729142"><ele>156.0</ele><time>2026-04-18T15:21:19.998Z</time></trkpt><trkpt lat="43.16723839975916" lon="13.737657418524236"><ele>156.0</ele><time>2026-04-18T15:21:20.998Z</time></trkpt><trkpt lat="43.167216062634374" lon="13.737469646102038"><ele>156.0</ele><time>2026-04-18T15:21:21.998Z</time></trkpt><trkpt lat="43.16719057880618" lon="13.737264491035564"><ele>158.0</ele><time>2026-04-18T15:21:22.998Z</time></trkpt><trkpt lat="43.16716392388609" lon="13.737047733225399"><ele>160.0</ele><time>2026-04-18T15:21:23.998Z</time></trkpt><trkpt lat="43.16714469504098" lon="13.736830692218923"><ele>162.0</ele><time>2026-04-18T15:21:24.998Z</time></trkpt><trkpt lat="43.16713116970869" lon="13.73661222323896"><ele>163.0</ele><time>2026-04-18T15:21:25.998Z</time></trkpt><trkpt lat="43.167124922058804" lon="13.736408398469381"><ele>164.0</ele><time>2026-04-18T15:21:26.998Z</time></trkpt><trkpt lat="43.16712106345" lon="13.736202847072143"><ele>165.0</ele><time>2026-04-18T15:21:27.998Z</time></trkpt><trkpt lat="43.16711901372121" lon="13.736015749182325"><ele>166.0</ele><time>2026-04-18T15:21:28.998Z</time></trkpt><trkpt lat="43.167113517869595" lon="13.735847497100607"><ele>166.60000000000002</ele><time>2026-04-18T15:21:29.998Z</time></trkpt><trkpt lat="43.16711022880875" lon="13.735695675678683"><ele>167.2</ele><time>2026-04-18T15:21:30.998Z</time></trkpt><trkpt lat="43.1671058419141" lon="13.735562590136865"><ele>167.8</ele><time>2026-04-18T15:21:31.998Z</time></trkpt><trkpt lat="43.167102774647375" lon="13.73545923407363"><ele>168.39999999999998</ele><time>2026-04-18T15:21:32.998Z</time></trkpt><trkpt lat="43.16712195488996" lon="13.735321086019784"><ele>169.0</ele><time>2026-04-18T15:21:34.998Z</time></trkpt><trkpt lat="43.16729752648039" lon="13.735298420542238"><ele>169.66666666666669</ele><time>2026-04-18T15:21:36.998Z</time></trkpt><trkpt lat="43.16739282848227" lon="13.73532311413387"><ele>170.33333333333334</ele><time>2026-04-18T15:21:37.998Z</time></trkpt><trkpt lat="43.16747847514435" lon="13.735318144152192"><ele>171.0</ele><time>2026-04-18T15:21:38.998Z</time></trkpt><trkpt lat="43.16756809404416" lon="13.735314914663531"><ele>171.66666666666666</ele><time>2026-04-18T15:21:39.998Z</time></trkpt><trkpt lat="43.167648976549586" lon="13.735312351317603"><ele>172.33333333333331</ele><time>2026-04-18T15:21:40.998Z</time></trkpt><trkpt lat="43.16773131148873" lon="13.735309206202707"><ele>173.0</ele><time>2026-04-18T15:21:41.998Z</time></trkpt><trkpt lat="43.16780140255712" lon="13.735337041136107"><ele>173.60000000000002</ele><time>2026-04-18T15:21:42.998Z</time></trkpt><trkpt lat="43.16788019712685" lon="13.7352110475225"><ele>174.20000000000002</ele><time>2026-04-18T15:21:43.998Z</time></trkpt><trkpt lat="43.167948073240154" lon="13.735120040857902"><ele>174.8</ele><time>2026-04-18T15:21:44.998Z</time></trkpt><trkpt lat="43.16802058918681" lon="13.735026973323738"><ele>175.4</ele><time>2026-04-18T15:21:45.998Z</time></trkpt><trkpt lat="43.16810113961201" lon="13.734946530865324"><ele>176.0</ele><time>2026-04-18T15:21:46.998Z</time></trkpt><trkpt lat="43.16818949623986" lon="13.734883355009636"><ele>175.0</ele><time>2026-04-18T15:21:47.998Z</time></trkpt><trkpt lat="43.16828562385515" lon="13.734846200165402"><ele>174.0</ele><time>2026-04-18T15:21:48.998Z</time></trkpt><trkpt lat="43.16838345903842" lon="13.734817099840102"><ele>173.0</ele><time>2026-04-18T15:21:49.998Z</time></trkpt><trkpt lat="43.16848129619256" lon="13.734797731994808"><ele>172.0</ele><time>2026-04-18T15:21:50.998Z</time></trkpt><trkpt lat="43.168575934551185" lon="13.734787271922754"><ele>171.0</ele><time>2026-04-18T15:21:51.997Z</time></trkpt><trkpt lat="43.16866904996285" lon="13.734774074246012"><ele>171.0</ele><time>2026-04-18T15:21:52.997Z</time></trkpt><trkpt lat="43.16875562104912" lon="13.734760221242714"><ele>171.0</ele><time>2026-04-18T15:21:53.997Z</time></trkpt><trkpt lat="43.1688352903605" lon="13.734743166365826"><ele>171.0</ele><time>2026-04-18T15:21:54.997Z</time></trkpt><trkpt lat="43.168914291242004" lon="13.734731026505296"><ele>171.0</ele><time>2026-04-18T15:21:55.997Z</time></trkpt><trkpt lat="43.16899476232406" lon="13.734723920321153"><ele>171.0</ele><time>2026-04-18T15:21:56.997Z</time></trkpt><trkpt lat="43.16908153715433" lon="13.73471930403877"><ele>171.0</ele><time>2026-04-18T15:21:57.997Z</time></trkpt><trkpt lat="43.16916780199911" lon="13.73471755936699"><ele>172.0</ele><time>2026-04-18T15:21:58.997Z</time></trkpt><trkpt lat="43.16925438643261" lon="13.734710564772246"><ele>173.0</ele><time>2026-04-18T15:21:59.997Z</time></trkpt><trkpt lat="43.16933835904651" lon="13.73469180601458"><ele>174.0</ele><time>2026-04-18T15:22:00.997Z</time></trkpt><trkpt lat="43.16941344012348" lon="13.734664614298465"><ele>175.0</ele><time>2026-04-18T15:22:01.997Z</time></trkpt><trkpt lat="43.169479155563636" lon="13.734633686233432"><ele>176.0</ele><time>2026-04-18T15:22:02.997Z</time></trkpt><trkpt lat="43.169587965738785" lon="13.734560041873287"><ele>177.0</ele><time>2026-04-18T15:22:04.997Z</time></trkpt><trkpt lat="43.169682359797925" lon="13.734460957832322"><ele>177.0</ele><time>2026-04-18T15:22:06.997Z</time></trkpt><trkpt lat="43.16972865659208" lon="13.734398968283683"><ele>177.0</ele><time>2026-04-18T15:22:07.997Z</time></trkpt><trkpt lat="43.16977960349253" lon="13.73433353766397"><ele>177.0</ele><time>2026-04-18T15:22:08.997Z</time></trkpt><trkpt lat="43.16983757462359" lon="13.73428782779395"><ele>177.0</ele><time>2026-04-18T15:22:09.997Z</time></trkpt><trkpt lat="43.16993621624052" lon="13.734207093343784"><ele>177.0</ele><time>2026-04-18T15:22:11.997Z</time></trkpt><trkpt lat="43.1700138105007" lon="13.734109810301984"><ele>177.0</ele><time>2026-04-18T15:22:13.997Z</time></trkpt><trkpt lat="43.170100654808834" lon="13.734041821998446"><ele>178.66666666666666</ele><time>2026-04-18T15:22:16Z</time></trkpt><trkpt lat="43.17015341746743" lon="13.733982806182384"><ele>180.33333333333334</ele><time>2026-04-18T15:22:17Z</time></trkpt><trkpt lat="43.17021923042324" lon="13.733916225159055"><ele>182.0</ele><time>2026-04-18T15:22:19Z</time></trkpt><trkpt lat="43.17027759465745" lon="13.733849367878753"><ele>183.66666666666669</ele><time>2026-04-18T15:22:21Z</time></trkpt><trkpt lat="43.170351834251186" lon="13.733797656263748"><ele>185.33333333333334</ele><time>2026-04-18T15:22:23Z</time></trkpt><trkpt lat="43.17045527808653" lon="13.733802428541274"><ele>187.0</ele><time>2026-04-18T15:22:25Z</time></trkpt><trkpt lat="43.1705122498811" lon="13.733844881626595"><ele>187.0</ele><time>2026-04-18T15:22:26Z</time></trkpt><trkpt lat="43.170603432160036" lon="13.733942904166176"><ele>187.0</ele><time>2026-04-18T15:22:28Z</time></trkpt><trkpt lat="43.17068216178843" lon="13.73402050629089"><ele>187.0</ele><time>2026-04-18T15:22:30Z</time></trkpt><trkpt lat="43.17074097819169" lon="13.73380198008981"><ele>187.0</ele><time>2026-04-18T15:22:36Z</time></trkpt><trkpt lat="43.170702665806544" lon="13.733715378131913"><ele>187.0</ele><time>2026-04-18T15:22:37Z</time></trkpt><trkpt lat="43.17066939605628" lon="13.733619373679707"><ele>187.0</ele><time>2026-04-18T15:22:38Z</time></trkpt><trkpt lat="43.17063636294442" lon="13.733521879847778"><ele>187.0</ele><time>2026-04-18T15:22:39Z</time></trkpt><trkpt lat="43.17061738023975" lon="13.733403387831167"><ele>187.0</ele><time>2026-04-18T15:22:40Z</time></trkpt><trkpt lat="43.170584394609826" lon="13.733296480730411"><ele>187.0</ele><time>2026-04-18T15:22:41Z</time></trkpt><trkpt lat="43.1705525708802" lon="13.733192396096014"><ele>187.0</ele><time>2026-04-18T15:22:42Z</time></trkpt><trkpt lat="43.17050825648457" lon="13.733094826018096"><ele>187.16666666666669</ele><time>2026-04-18T15:22:43Z</time></trkpt><trkpt lat="43.170488957041975" lon="13.732996743329108"><ele>187.33333333333334</ele><time>2026-04-18T15:22:44Z</time></trkpt><trkpt lat="43.17046663278823" lon="13.732908433534224"><ele>187.5</ele><time>2026-04-18T15:22:45Z</time></trkpt><trkpt lat="43.170432695055894" lon="13.732819251265836"><ele>187.66666666666666</ele><time>2026-04-18T15:22:46Z</time></trkpt><trkpt lat="43.17041594557964" lon="13.732706362660462"><ele>187.83333333333331</ele><time>2026-04-18T15:22:47Z</time></trkpt><trkpt lat="43.17039133814133" lon="13.73258558319258"><ele>188.0</ele><time>2026-04-18T15:22:48Z</time></trkpt><trkpt lat="43.170363559772305" lon="13.732459227936081"><ele>188.0</ele><time>2026-04-18T15:22:49Z</time></trkpt><trkpt lat="43.17033816447678" lon="13.732322005648156"><ele>188.0</ele><time>2026-04-18T15:22:49.999Z</time></trkpt><trkpt lat="43.17030751970152" lon="13.732177683919618"><ele>188.0</ele><time>2026-04-18T15:22:50.999Z</time></trkpt><trkpt lat="43.17027669134891" lon="13.732027135479257"><ele>188.0</ele><time>2026-04-18T15:22:51.999Z</time></trkpt><trkpt lat="43.1702475019291" lon="13.731876531298303"><ele>188.0</ele><time>2026-04-18T15:22:52.999Z</time></trkpt><trkpt lat="43.170218180660484" lon="13.731735512342107"><ele>187.2</ele><time>2026-04-18T15:22:53.999Z</time></trkpt><trkpt lat="43.17018936787487" lon="13.731599696240831"><ele>186.4</ele><time>2026-04-18T15:22:54.999Z</time></trkpt><trkpt lat="43.17015658947985" lon="13.731460945444844"><ele>185.6</ele><time>2026-04-18T15:22:55.999Z</time></trkpt><trkpt lat="43.17012410455046" lon="13.731320032445195"><ele>184.79999999999998</ele><time>2026-04-18T15:22:56.999Z</time></trkpt><trkpt lat="43.170092183454756" lon="13.731178418151123"><ele>184.0</ele><time>2026-04-18T15:22:57.999Z</time></trkpt><trkpt lat="43.17005994968247" lon="13.731038089362698"><ele>183.39999999999998</ele><time>2026-04-18T15:22:58.999Z</time></trkpt><trkpt lat="43.17003113159149" lon="13.730904993506787"><ele>182.8</ele><time>2026-04-18T15:22:59.999Z</time></trkpt><trkpt lat="43.17000216471957" lon="13.730775976525655"><ele>182.2</ele><time>2026-04-18T15:23:00.999Z</time></trkpt><trkpt lat="43.16997664247765" lon="13.730647129401229"><ele>181.60000000000002</ele><time>2026-04-18T15:23:01.999Z</time></trkpt><trkpt lat="43.16994792822685" lon="13.730513528188593"><ele>181.0</ele><time>2026-04-18T15:23:02.999Z</time></trkpt><trkpt lat="43.1699260539568" lon="13.730376102088059"><ele>181.0</ele><time>2026-04-18T15:23:03.999Z</time></trkpt><trkpt lat="43.16991368003343" lon="13.73023322249955"><ele>181.0</ele><time>2026-04-18T15:23:04.999Z</time></trkpt><trkpt lat="43.169891833881074" lon="13.7300871192436"><ele>181.0</ele><time>2026-04-18T15:23:05.999Z</time></trkpt><trkpt lat="43.16986829984362" lon="13.729946640960302"><ele>181.0</ele><time>2026-04-18T15:23:06.999Z</time></trkpt><trkpt lat="43.16984200885227" lon="13.729813018863442"><ele>181.0</ele><time>2026-04-18T15:23:07.999Z</time></trkpt><trkpt lat="43.169815296350194" lon="13.729682647678523"><ele>183.33333333333334</ele><time>2026-04-18T15:23:08.999Z</time></trkpt><trkpt lat="43.1697881700477" lon="13.729558399716081"><ele>185.66666666666669</ele><time>2026-04-18T15:23:09.999Z</time></trkpt><trkpt lat="43.16976307725668" lon="13.729438670228287"><ele>188.0</ele><time>2026-04-18T15:23:10.999Z</time></trkpt><trkpt lat="43.169738727743834" lon="13.729324689960128"><ele>190.33333333333334</ele><time>2026-04-18T15:23:11.999Z</time></trkpt><trkpt lat="43.169712989477134" lon="13.729225959747339"><ele>192.66666666666666</ele><time>2026-04-18T15:23:12.999Z</time></trkpt><trkpt lat="43.16968848056925" lon="13.729138893417481"><ele>195.0</ele><time>2026-04-18T15:23:13.999Z</time></trkpt><trkpt lat="43.169667343606264" lon="13.729056883010184"><ele>195.0</ele><time>2026-04-18T15:23:14.999Z</time></trkpt><trkpt lat="43.1696368600028" lon="13.728933610717917"><ele>195.0</ele><time>2026-04-18T15:23:16.999Z</time></trkpt><trkpt lat="43.16961734009724" lon="13.728836622846416"><ele>195.0</ele><time>2026-04-18T15:23:19.999Z</time></trkpt><trkpt lat="43.16958526473022" lon="13.728728058044076"><ele>195.0</ele><time>2026-04-18T15:23:23.999Z</time></trkpt><trkpt lat="43.16960459393545" lon="13.72886866413782"><ele>195.0</ele><time>2026-04-18T15:23:58.998Z</time></trkpt><trkpt lat="43.169651694266165" lon="13.729024792614462"><ele>195.0</ele><time>2026-04-18T15:24:00.998Z</time></trkpt><trkpt lat="43.16968866617055" lon="13.729106108688638"><ele>195.0</ele><time>2026-04-18T15:24:01.998Z</time></trkpt><trkpt lat="43.16969269926127" lon="13.72920490971831"><ele>195.0</ele><time>2026-04-18T15:24:02.997Z</time></trkpt><trkpt lat="43.16972998895649" lon="13.729296193741664"><ele>195.0</ele><time>2026-04-18T15:24:03.997Z</time></trkpt><trkpt lat="43.169739712192175" lon="13.729471653335983"><ele>195.0</ele><time>2026-04-18T15:24:04.997Z</time></trkpt><trkpt lat="43.16977227020092" lon="13.729599728541016"><ele>195.0</ele><time>2026-04-18T15:24:05.997Z</time></trkpt><trkpt lat="43.16979547214763" lon="13.729718711912243"><ele>195.5</ele><time>2026-04-18T15:24:06.997Z</time></trkpt><trkpt lat="43.16981951371611" lon="13.72983895358575"><ele>196.0</ele><time>2026-04-18T15:24:07.997Z</time></trkpt><trkpt lat="43.16984234738369" lon="13.729962095169066"><ele>196.5</ele><time>2026-04-18T15:24:08.997Z</time></trkpt><trkpt lat="43.16986699176025" lon="13.730083173193234"><ele>197.0</ele><time>2026-04-18T15:24:09.997Z</time></trkpt><trkpt lat="43.1698680081228" lon="13.730203375087045"><ele>197.5</ele><time>2026-04-18T15:24:10.997Z</time></trkpt><trkpt lat="43.16988827973733" lon="13.730308318458059"><ele>198.0</ele><time>2026-04-18T15:24:11.997Z</time></trkpt><trkpt lat="43.169906739095346" lon="13.730403880006614"><ele>198.0</ele><time>2026-04-18T15:24:12.997Z</time></trkpt><trkpt lat="43.16994885788158" lon="13.730534461279271"><ele>198.0</ele><time>2026-04-18T15:24:14.997Z</time></trkpt><trkpt lat="43.169923880726444" lon="13.730629245757623"><ele>198.0</ele><time>2026-04-18T15:24:17.997Z</time></trkpt><trkpt lat="43.16971763604973" lon="13.730713023940305"><ele>198.0</ele><time>2026-04-18T15:24:19.997Z</time></trkpt><trkpt lat="43.169650722611784" lon="13.730736977239548"><ele>198.0</ele><time>2026-04-18T15:24:21Z</time></trkpt><trkpt lat="43.169583149193805" lon="13.73076534327957"><ele>198.0</ele><time>2026-04-18T15:24:22Z</time></trkpt><trkpt lat="43.16949134143654" lon="13.73081342777411"><ele>198.0</ele><time>2026-04-18T15:24:24Z</time></trkpt><trkpt lat="43.16937864043583" lon="13.730914013615662"><ele>198.0</ele><time>2026-04-18T15:24:28Z</time></trkpt><trkpt lat="43.16931057383841" lon="13.73100177350354"><ele>198.0</ele><time>2026-04-18T15:24:29Z</time></trkpt><trkpt lat="43.16922339510257" lon="13.731054079451969"><ele>197.83333333333334</ele><time>2026-04-18T15:24:30Z</time></trkpt><trkpt lat="43.16913263179265" lon="13.731104410609522"><ele>197.66666666666669</ele><time>2026-04-18T15:24:31Z</time></trkpt><trkpt lat="43.16904804762054" lon="13.731152234706636"><ele>197.5</ele><time>2026-04-18T15:24:32Z</time></trkpt><trkpt lat="43.16898631846152" lon="13.731199900695445"><ele>197.33333333333334</ele><time>2026-04-18T15:24:33Z</time></trkpt><trkpt lat="43.168919322205255" lon="13.731226199147756"><ele>197.16666666666669</ele><time>2026-04-18T15:24:40Z</time></trkpt><trkpt lat="43.16884432378999" lon="13.731134093093107"><ele>197.0</ele><time>2026-04-18T15:24:42Z</time></trkpt><trkpt lat="43.168825437790126" lon="13.731023711944662"><ele>198.6</ele><time>2026-04-18T15:24:43Z</time></trkpt><trkpt lat="43.168788458064924" lon="13.730923051320753"><ele>200.2</ele><time>2026-04-18T15:24:44Z</time></trkpt><trkpt lat="43.168745171428434" lon="13.730807101611548"><ele>201.8</ele><time>2026-04-18T15:24:45Z</time></trkpt><trkpt lat="43.168699707956755" lon="13.730697267932467"><ele>203.4</ele><time>2026-04-18T15:24:46Z</time></trkpt><trkpt lat="43.168654334730576" lon="13.730588012439323"><ele>205.0</ele><time>2026-04-18T15:24:47Z</time></trkpt><trkpt lat="43.16860811725038" lon="13.730470307673789"><ele>205.0</ele><time>2026-04-18T15:24:48Z</time></trkpt><trkpt lat="43.16856256527756" lon="13.730350166665245"><ele>205.0</ele><time>2026-04-18T15:24:49Z</time></trkpt><trkpt lat="43.168515441815366" lon="13.730232799394456"><ele>205.0</ele><time>2026-04-18T15:24:50Z</time></trkpt><trkpt lat="43.16846504336381" lon="13.73011371119146"><ele>205.0</ele><time>2026-04-18T15:24:51Z</time></trkpt><trkpt lat="43.16841678516426" lon="13.729994378048863"><ele>205.0</ele><time>2026-04-18T15:24:52Z</time></trkpt><trkpt lat="43.16837032911894" lon="13.72986555551006"><ele>205.6</ele><time>2026-04-18T15:24:53Z</time></trkpt><trkpt lat="43.16832079294799" lon="13.729735229122214"><ele>206.2</ele><time>2026-04-18T15:24:54Z</time></trkpt><trkpt lat="43.168266934055396" lon="13.729608497308039"><ele>206.8</ele><time>2026-04-18T15:24:55Z</time></trkpt><trkpt lat="43.168218504953536" lon="13.729486884366207"><ele>207.4</ele><time>2026-04-18T15:24:56Z</time></trkpt><trkpt lat="43.16817078679796" lon="13.729368979703729"><ele>208.0</ele><time>2026-04-18T15:24:57Z</time></trkpt><trkpt lat="43.168129873115554" lon="13.729253965244482"><ele>207.99999999999997</ele><time>2026-04-18T15:24:58Z</time></trkpt><trkpt lat="43.16808697592107" lon="13.729141957122105"><ele>208.0</ele><time>2026-04-18T15:24:59Z</time></trkpt><trkpt lat="43.16804027124409" lon="13.72903626388169"><ele>208.0</ele><time>2026-04-18T15:25:00Z</time></trkpt><trkpt lat="43.16799342560569" lon="13.728936270768363"><ele>208.0</ele><time>2026-04-18T15:25:01Z</time></trkpt><trkpt lat="43.167945281219296" lon="13.72883717691142"><ele>207.99999999999997</ele><time>2026-04-18T15:25:01.999Z</time></trkpt><trkpt lat="43.16789326256615" lon="13.728742850810939"><ele>208.0</ele><time>2026-04-18T15:25:02.999Z</time></trkpt><trkpt lat="43.167842307674746" lon="13.728657822899025"><ele>207.99999999999997</ele><time>2026-04-18T15:25:03.999Z</time></trkpt><trkpt lat="43.16779810143986" lon="13.7285707582596"><ele>208.0</ele><time>2026-04-18T15:25:04.999Z</time></trkpt><trkpt lat="43.1677587221561" lon="13.72847562645957"><ele>208.0</ele><time>2026-04-18T15:25:05.999Z</time></trkpt><trkpt lat="43.167716447783945" lon="13.72838732523774"><ele>208.0</ele><time>2026-04-18T15:25:06.999Z</time></trkpt><trkpt lat="43.167671203489526" lon="13.72828676535888"><ele>207.99999999999997</ele><time>2026-04-18T15:25:07.999Z</time></trkpt><trkpt lat="43.16762284031209" lon="13.728182459493272"><ele>208.0</ele><time>2026-04-18T15:25:08.999Z</time></trkpt><trkpt lat="43.167571455605135" lon="13.728075490670436"><ele>208.0</ele><time>2026-04-18T15:25:09.999Z</time></trkpt><trkpt lat="43.16752114078178" lon="13.727941448578015"><ele>208.0</ele><time>2026-04-18T15:25:10.999Z</time></trkpt><trkpt lat="43.16746385599082" lon="13.727825079640404"><ele>208.0</ele><time>2026-04-18T15:25:11.999Z</time></trkpt><trkpt lat="43.16741358745786" lon="13.727722963582162"><ele>208.0</ele><time>2026-04-18T15:25:12.999Z</time></trkpt><trkpt lat="43.167355319005516" lon="13.727604596671577"><ele>208.0</ele><time>2026-04-18T15:25:13.999Z</time></trkpt><trkpt lat="43.167295934226345" lon="13.727484997107963"><ele>208.33333333333331</ele><time>2026-04-18T15:25:14.999Z</time></trkpt><trkpt lat="43.16723072972041" lon="13.727388852912764"><ele>208.66666666666666</ele><time>2026-04-18T15:25:15.999Z</time></trkpt><trkpt lat="43.16718456462834" lon="13.727293226588971"><ele>209.0</ele><time>2026-04-18T15:25:16.999Z</time></trkpt><trkpt lat="43.167142984257346" lon="13.727207227302928"><ele>209.33333333333331</ele><time>2026-04-18T15:25:17.999Z</time></trkpt><trkpt lat="43.1671060022143" lon="13.727130286372839"><ele>209.66666666666666</ele><time>2026-04-18T15:25:18.999Z</time></trkpt><trkpt lat="43.16706813156552" lon="13.727019281360189"><ele>210.0</ele><time>2026-04-18T15:25:20.999Z</time></trkpt><trkpt lat="43.16701621788045" lon="13.726911926644517"><ele>210.16666666666666</ele><time>2026-04-18T15:25:56.998Z</time></trkpt><trkpt lat="43.16698038771307" lon="13.726839634762307"><ele>210.33333333333331</ele><time>2026-04-18T15:25:57.998Z</time></trkpt><trkpt lat="43.16693635984953" lon="13.726750802938083"><ele>210.5</ele><time>2026-04-18T15:25:58.998Z</time></trkpt><trkpt lat="43.16688790432573" lon="13.726656606756404"><ele>210.66666666666666</ele><time>2026-04-18T15:25:59.998Z</time></trkpt><trkpt lat="43.16683729076865" lon="13.726558532408044"><ele>210.83333333333331</ele><time>2026-04-18T15:26:00.998Z</time></trkpt><trkpt lat="43.16677493756899" lon="13.72644112739371"><ele>211.0</ele><time>2026-04-18T15:26:01.998Z</time></trkpt><trkpt lat="43.1667071944907" lon="13.726314359955634"><ele>211.0</ele><time>2026-04-18T15:26:02.998Z</time></trkpt><trkpt lat="43.16663822848308" lon="13.726183819487353"><ele>211.0</ele><time>2026-04-18T15:26:03.998Z</time></trkpt><trkpt lat="43.166565422570955" lon="13.726045931377982"><ele>211.0</ele><time>2026-04-18T15:26:04.998Z</time></trkpt><trkpt lat="43.166492124440865" lon="13.725905624271247"><ele>211.0</ele><time>2026-04-18T15:26:05.998Z</time></trkpt><trkpt lat="43.166416527083626" lon="13.725761580706617"><ele>210.75</ele><time>2026-04-18T15:26:06.998Z</time></trkpt><trkpt lat="43.16633931215586" lon="13.7256140798186"><ele>210.5</ele><time>2026-04-18T15:26:07.998Z</time></trkpt><trkpt lat="43.166245966361885" lon="13.725472257087699"><ele>210.25</ele><time>2026-04-18T15:26:08.998Z</time></trkpt><trkpt lat="43.16616544256606" lon="13.725318191153137"><ele>210.0</ele><time>2026-04-18T15:26:09.998Z</time></trkpt><trkpt lat="43.166086833458635" lon="13.725160729876698"><ele>211.25</ele><time>2026-04-18T15:26:10.998Z</time></trkpt><trkpt lat="43.16600627120055" lon="13.725003448411572"><ele>212.5</ele><time>2026-04-18T15:26:11.998Z</time></trkpt><trkpt lat="43.16592406617386" lon="13.72484801235829"><ele>213.75</ele><time>2026-04-18T15:26:12.998Z</time></trkpt><trkpt lat="43.16584353995987" lon="13.724697142430852"><ele>215.0</ele><time>2026-04-18T15:26:13.997Z</time></trkpt><trkpt lat="43.165761692094996" lon="13.724543340282773"><ele>215.25</ele><time>2026-04-18T15:26:14.997Z</time></trkpt><trkpt lat="43.165682556793726" lon="13.724397115710524"><ele>215.5</ele><time>2026-04-18T15:26:15.997Z</time></trkpt><trkpt lat="43.165607248926555" lon="13.724248288099501"><ele>215.75</ele><time>2026-04-18T15:26:16.997Z</time></trkpt><trkpt lat="43.1655315838307" lon="13.72411035753369"><ele>216.0</ele><time>2026-04-18T15:26:17.997Z</time></trkpt><trkpt lat="43.165458096648344" lon="13.723968039954805"><ele>216.0</ele><time>2026-04-18T15:26:18.997Z</time></trkpt><trkpt lat="43.16539135751274" lon="13.723824311758642"><ele>216.00000000000003</ele><time>2026-04-18T15:26:19.997Z</time></trkpt><trkpt lat="43.16532375298119" lon="13.72368551786278"><ele>216.00000000000003</ele><time>2026-04-18T15:26:20.997Z</time></trkpt><trkpt lat="43.16524940265166" lon="13.723570178040221"><ele>216.0</ele><time>2026-04-18T15:26:21.997Z</time></trkpt><trkpt lat="43.165195401993564" lon="13.723474358851652"><ele>216.0</ele><time>2026-04-18T15:26:22.997Z</time></trkpt><trkpt lat="43.16512291882195" lon="13.723382896451483"><ele>216.66666666666666</ele><time>2026-04-18T15:26:24.997Z</time></trkpt><trkpt lat="43.165063774741064" lon="13.723287944267884"><ele>217.33333333333331</ele><time>2026-04-18T15:26:27Z</time></trkpt><trkpt lat="43.165021751924414" lon="13.723220181665344"><ele>218.0</ele><time>2026-04-18T15:26:28Z</time></trkpt><trkpt lat="43.16496582974204" lon="13.723146295088794"><ele>218.66666666666666</ele><time>2026-04-18T15:26:29Z</time></trkpt><trkpt lat="43.16490358135783" lon="13.72306324027299"><ele>219.33333333333331</ele><time>2026-04-18T15:26:30Z</time></trkpt><trkpt lat="43.16483680196715" lon="13.722968524962381"><ele>220.0</ele><time>2026-04-18T15:26:31Z</time></trkpt><trkpt lat="43.16476713330552" lon="13.722870686270529"><ele>220.5</ele><time>2026-04-18T15:26:32Z</time></trkpt><trkpt lat="43.16468558420413" lon="13.722755223158385"><ele>221.0</ele><time>2026-04-18T15:26:33Z</time></trkpt><trkpt lat="43.16460075543486" lon="13.722636108554443"><ele>221.5</ele><time>2026-04-18T15:26:34Z</time></trkpt><trkpt lat="43.16451378841511" lon="13.722511966585019"><ele>222.0</ele><time>2026-04-18T15:26:35Z</time></trkpt><trkpt lat="43.16442927803429" lon="13.722393312339184"><ele>223.25</ele><time>2026-04-18T15:26:36Z</time></trkpt><trkpt lat="43.16434135376796" lon="13.722279240006861"><ele>224.5</ele><time>2026-04-18T15:26:37Z</time></trkpt><trkpt lat="43.164307128104916" lon="13.722135562976773"><ele>225.75</ele><time>2026-04-18T15:26:38Z</time></trkpt><trkpt lat="43.164288316994146" lon="13.72198196907148"><ele>227.0</ele><time>2026-04-18T15:26:39Z</time></trkpt><trkpt lat="43.16429102488898" lon="13.721821377210594"><ele>227.0</ele><time>2026-04-18T15:26:40Z</time></trkpt><trkpt lat="43.16430814524379" lon="13.721657364128433"><ele>227.0</ele><time>2026-04-18T15:26:41Z</time></trkpt><trkpt lat="43.16433439691914" lon="13.721499425721994"><ele>227.0</ele><time>2026-04-18T15:26:42Z</time></trkpt><trkpt lat="43.16436245015876" lon="13.721343821527451"><ele>227.0</ele><time>2026-04-18T15:26:43Z</time></trkpt><trkpt lat="43.16438604241147" lon="13.72118452137434"><ele>227.5</ele><time>2026-04-18T15:26:44Z</time></trkpt><trkpt lat="43.164398531865686" lon="13.721020869939839"><ele>228.0</ele><time>2026-04-18T15:26:45Z</time></trkpt><trkpt lat="43.164394749703135" lon="13.720851690496453"><ele>228.5</ele><time>2026-04-18T15:26:46Z</time></trkpt><trkpt lat="43.16438253209608" lon="13.720677330740985"><ele>229.0</ele><time>2026-04-18T15:26:47Z</time></trkpt><trkpt lat="43.16436775367363" lon="13.720500418931243"><ele>229.0</ele><time>2026-04-18T15:26:48Z</time></trkpt><trkpt lat="43.16435193790502" lon="13.720320088404305"><ele>229.0</ele><time>2026-04-18T15:26:49Z</time></trkpt><trkpt lat="43.16433514133039" lon="13.720131652849684"><ele>229.0</ele><time>2026-04-18T15:26:50Z</time></trkpt><trkpt lat="43.16431687248828" lon="13.719939736173194"><ele>229.0</ele><time>2026-04-18T15:26:51Z</time></trkpt><trkpt lat="43.16429758874125" lon="13.719743223191049"><ele>229.33333333333331</ele><time>2026-04-18T15:26:52Z</time></trkpt><trkpt lat="43.1642762357644" lon="13.719532078907777"><ele>229.66666666666669</ele><time>2026-04-18T15:26:53Z</time></trkpt><trkpt lat="43.164259287560064" lon="13.719308560908248"><ele>230.0</ele><time>2026-04-18T15:26:54Z</time></trkpt><trkpt lat="43.16425535589094" lon="13.71908302787398"><ele>229.0</ele><time>2026-04-18T15:26:55Z</time></trkpt><trkpt lat="43.164267425964994" lon="13.718857986320986"><ele>228.0</ele><time>2026-04-18T15:26:56Z</time></trkpt><trkpt lat="43.164285920017306" lon="13.718647947462857"><ele>227.0</ele><time>2026-04-18T15:26:57Z</time></trkpt><trkpt lat="43.16431279495944" lon="13.718452850002697"><ele>227.0</ele><time>2026-04-18T15:26:58Z</time></trkpt><trkpt lat="43.16433456781927" lon="13.718212699197158"><ele>227.0</ele><time>2026-04-18T15:26:59Z</time></trkpt><trkpt lat="43.164352776553805" lon="13.717970844577811"><ele>227.0</ele><time>2026-04-18T15:27:00Z</time></trkpt><trkpt lat="43.16437548884578" lon="13.717732899058614"><ele>227.33333333333334</ele><time>2026-04-18T15:27:01Z</time></trkpt><trkpt lat="43.16439971301793" lon="13.717503793470717"><ele>227.66666666666669</ele><time>2026-04-18T15:27:02Z</time></trkpt><trkpt lat="43.16442202831169" lon="13.717272585378653"><ele>228.0</ele><time>2026-04-18T15:27:03Z</time></trkpt><trkpt lat="43.16441416230663" lon="13.717035198868503"><ele>227.66666666666669</ele><time>2026-04-18T15:27:04Z</time></trkpt><trkpt lat="43.164369804064975" lon="13.716806558123565"><ele>227.33333333333334</ele><time>2026-04-18T15:27:05Z</time></trkpt><trkpt lat="43.16431320318735" lon="13.71659240241505"><ele>227.0</ele><time>2026-04-18T15:27:06Z</time></trkpt><trkpt lat="43.1642431103988" lon="13.716396829644394"><ele>227.0</ele><time>2026-04-18T15:27:07Z</time></trkpt><trkpt lat="43.16417354625201" lon="13.716212055053898"><ele>227.0</ele><time>2026-04-18T15:27:08Z</time></trkpt><trkpt lat="43.16410179685711" lon="13.716040191518212"><ele>227.0</ele><time>2026-04-18T15:27:09Z</time></trkpt><trkpt lat="43.16404240788976" lon="13.71585403245343"><ele>227.0</ele><time>2026-04-18T15:27:10Z</time></trkpt><trkpt lat="43.16396796018329" lon="13.71567988161791"><ele>230.25</ele><time>2026-04-18T15:27:10.999Z</time></trkpt><trkpt lat="43.16389476580953" lon="13.715504730539402"><ele>233.5</ele><time>2026-04-18T15:27:11.999Z</time></trkpt><trkpt lat="43.163823280297976" lon="13.715329265991308"><ele>236.75</ele><time>2026-04-18T15:27:12.999Z</time></trkpt><trkpt lat="43.163750795974956" lon="13.71515135011748"><ele>240.0</ele><time>2026-04-18T15:27:13.999Z</time></trkpt><trkpt lat="43.16368128875173" lon="13.71498074158348"><ele>240.0</ele><time>2026-04-18T15:27:14.999Z</time></trkpt><trkpt lat="43.163611636470776" lon="13.714805080620152"><ele>240.0</ele><time>2026-04-18T15:27:15.999Z</time></trkpt><trkpt lat="43.163543338343665" lon="13.714632848628867"><ele>240.0</ele><time>2026-04-18T15:27:16.999Z</time></trkpt><trkpt lat="43.16347666411991" lon="13.714462149078821"><ele>240.0</ele><time>2026-04-18T15:27:17.999Z</time></trkpt><trkpt lat="43.16341301782929" lon="13.71429858831817"><ele>237.5</ele><time>2026-04-18T15:27:18.999Z</time></trkpt><trkpt lat="43.1633514892582" lon="13.71414046979009"><ele>235.0</ele><time>2026-04-18T15:27:19.999Z</time></trkpt><trkpt lat="43.16329445481545" lon="13.71399390042354"><ele>232.5</ele><time>2026-04-18T15:27:20.999Z</time></trkpt><trkpt lat="43.16322800276287" lon="13.713869724378151"><ele>230.0</ele><time>2026-04-18T15:27:21.999Z</time></trkpt><trkpt lat="43.163180355295516" lon="13.713738544125347"><ele>233.4</ele><time>2026-04-18T15:27:22.999Z</time></trkpt><trkpt lat="43.16313852223" lon="13.713603019487119"><ele>236.8</ele><time>2026-04-18T15:27:23.999Z</time></trkpt><trkpt lat="43.163109829050576" lon="13.713467590016865"><ele>240.2</ele><time>2026-04-18T15:27:24.999Z</time></trkpt><trkpt lat="43.16309914399871" lon="13.713332840158209"><ele>243.6</ele><time>2026-04-18T15:27:25.999Z</time></trkpt><trkpt lat="43.16311398290983" lon="13.71319851109034"><ele>247.0</ele><time>2026-04-18T15:27:26.999Z</time></trkpt><trkpt lat="43.16314217566331" lon="13.713058748663432"><ele>247.0</ele><time>2026-04-18T15:27:27.999Z</time></trkpt><trkpt lat="43.16317650796277" lon="13.71290784557153"><ele>247.0</ele><time>2026-04-18T15:27:28.999Z</time></trkpt><trkpt lat="43.163204385453284" lon="13.712751025253764"><ele>247.0</ele><time>2026-04-18T15:27:29.999Z</time></trkpt><trkpt lat="43.16322779819841" lon="13.712597845515868"><ele>247.0</ele><time>2026-04-18T15:27:30.999Z</time></trkpt><trkpt lat="43.16325076241354" lon="13.712436588770354"><ele>238.5</ele><time>2026-04-18T15:27:31.999Z</time></trkpt><trkpt lat="43.16326681276214" lon="13.712272624151375"><ele>230.0</ele><time>2026-04-18T15:27:32.999Z</time></trkpt><trkpt lat="43.16326428722469" lon="13.712105050851639"><ele>221.5</ele><time>2026-04-18T15:27:33.999Z</time></trkpt><trkpt lat="43.16324786485504" lon="13.711947915918048"><ele>213.0</ele><time>2026-04-18T15:27:34.999Z</time></trkpt><trkpt lat="43.163230325096066" lon="13.711801595135952"><ele>212.4</ele><time>2026-04-18T15:27:35.999Z</time></trkpt><trkpt lat="43.16322801550476" lon="13.711662862960512"><ele>211.8</ele><time>2026-04-18T15:27:36.999Z</time></trkpt><trkpt lat="43.16324711116073" lon="13.711533089487853"><ele>211.2</ele><time>2026-04-18T15:27:37.999Z</time></trkpt><trkpt lat="43.163260499629345" lon="13.711391941846157"><ele>210.6</ele><time>2026-04-18T15:27:38.999Z</time></trkpt><trkpt lat="43.1632454261492" lon="13.711260643902518"><ele>210.0</ele><time>2026-04-18T15:27:39.999Z</time></trkpt><trkpt lat="43.163200131543256" lon="13.711141243979077"><ele>212.2</ele><time>2026-04-18T15:27:40.999Z</time></trkpt><trkpt lat="43.16313672032585" lon="13.711044162687239"><ele>214.4</ele><time>2026-04-18T15:27:41.999Z</time></trkpt><trkpt lat="43.163075028790246" lon="13.71095883773763"><ele>216.60000000000002</ele><time>2026-04-18T15:27:42.999Z</time></trkpt><trkpt lat="43.163027394157915" lon="13.710860924634547"><ele>218.8</ele><time>2026-04-18T15:27:43.999Z</time></trkpt><trkpt lat="43.1629701818821" lon="13.710766480804887"><ele>221.0</ele><time>2026-04-18T15:27:44.999Z</time></trkpt><trkpt lat="43.16295705565322" lon="13.71061902683513"><ele>221.0</ele><time>2026-04-18T15:27:45.999Z</time></trkpt><trkpt lat="43.162930689159296" lon="13.71049517864261"><ele>221.00000000000003</ele><time>2026-04-18T15:27:46.998Z</time></trkpt><trkpt lat="43.16290445110999" lon="13.710370470920484"><ele>221.00000000000003</ele><time>2026-04-18T15:27:47.998Z</time></trkpt><trkpt lat="43.162874592674065" lon="13.710247351527382"><ele>221.0</ele><time>2026-04-18T15:27:48.998Z</time></trkpt><trkpt lat="43.16283996389874" lon="13.710122661495957"><ele>221.0</ele><time>2026-04-18T15:27:49.998Z</time></trkpt><trkpt lat="43.16280828789553" lon="13.709992439862491"><ele>220.4</ele><time>2026-04-18T15:27:50.998Z</time></trkpt><trkpt lat="43.16277509403672" lon="13.709861377772395"><ele>219.8</ele><time>2026-04-18T15:27:51.998Z</time></trkpt><trkpt lat="43.162743336781205" lon="13.7097225214983"><ele>219.20000000000002</ele><time>2026-04-18T15:27:52.998Z</time></trkpt><trkpt lat="43.162713155141425" lon="13.709581737582345"><ele>218.60000000000002</ele><time>2026-04-18T15:27:53.998Z</time></trkpt><trkpt lat="43.16268563638421" lon="13.709438939227294"><ele>218.0</ele><time>2026-04-18T15:27:54.998Z</time></trkpt><trkpt lat="43.162653519536825" lon="13.709298716321051"><ele>217.60000000000002</ele><time>2026-04-18T15:27:55.998Z</time></trkpt><trkpt lat="43.16262483037117" lon="13.70916163463835"><ele>217.20000000000002</ele><time>2026-04-18T15:27:56.998Z</time></trkpt><trkpt lat="43.162598298136565" lon="13.709034027389333"><ele>216.8</ele><time>2026-04-18T15:27:57.998Z</time></trkpt><trkpt lat="43.162571485452375" lon="13.708907300737659"><ele>216.4</ele><time>2026-04-18T15:27:58.998Z</time></trkpt><trkpt lat="43.16255453064468" lon="13.708780477737072"><ele>216.0</ele><time>2026-04-18T15:27:59.998Z</time></trkpt><trkpt lat="43.162552247459374" lon="13.70865515880469"><ele>216.20000000000002</ele><time>2026-04-18T15:28:00.998Z</time></trkpt><trkpt lat="43.162564908584606" lon="13.708537093272685"><ele>216.40000000000003</ele><time>2026-04-18T15:28:01.998Z</time></trkpt><trkpt lat="43.16259233065206" lon="13.708426508333778"><ele>216.6</ele><time>2026-04-18T15:28:02.998Z</time></trkpt><trkpt lat="43.16263669418814" lon="13.708318830581284"><ele>216.8</ele><time>2026-04-18T15:28:03.998Z</time></trkpt><trkpt lat="43.162689667980395" lon="13.708214648949417"><ele>217.0</ele><time>2026-04-18T15:28:04.998Z</time></trkpt><trkpt lat="43.162744104894294" lon="13.708106863593732"><ele>217.0</ele><time>2026-04-18T15:28:05.998Z</time></trkpt><trkpt lat="43.16279662309742" lon="13.707999244301025"><ele>217.0</ele><time>2026-04-18T15:28:06.998Z</time></trkpt><trkpt lat="43.16284740529362" lon="13.707887380745197"><ele>217.0</ele><time>2026-04-18T15:28:07.998Z</time></trkpt><trkpt lat="43.162902939558954" lon="13.707775761053622"><ele>217.0</ele><time>2026-04-18T15:28:08.998Z</time></trkpt><trkpt lat="43.16296486537363" lon="13.707666590042678"><ele>217.0</ele><time>2026-04-18T15:28:09.998Z</time></trkpt><trkpt lat="43.163021727007084" lon="13.707556135998855"><ele>218.2</ele><time>2026-04-18T15:28:10.998Z</time></trkpt><trkpt lat="43.163077751460285" lon="13.707442582771048"><ele>219.39999999999998</ele><time>2026-04-18T15:28:11.998Z</time></trkpt><trkpt lat="43.16313325605073" lon="13.70733205587045"><ele>220.60000000000002</ele><time>2026-04-18T15:28:12.998Z</time></trkpt><trkpt lat="43.16319085720355" lon="13.707220463993625"><ele>221.8</ele><time>2026-04-18T15:28:13.998Z</time></trkpt><trkpt lat="43.1632496391171" lon="13.707107326871263"><ele>223.0</ele><time>2026-04-18T15:28:14.998Z</time></trkpt><trkpt lat="43.16330933266934" lon="13.706991558060105"><ele>221.2</ele><time>2026-04-18T15:28:15.998Z</time></trkpt><trkpt lat="43.16336921435409" lon="13.706872571637213"><ele>219.4</ele><time>2026-04-18T15:28:16.998Z</time></trkpt><trkpt lat="43.163425577501826" lon="13.706750708560898"><ele>217.59999999999997</ele><time>2026-04-18T15:28:17.998Z</time></trkpt><trkpt lat="43.16348218842889" lon="13.706628690524534"><ele>215.79999999999998</ele><time>2026-04-18T15:28:18.998Z</time></trkpt><trkpt lat="43.163538525062215" lon="13.706508026685759"><ele>214.0</ele><time>2026-04-18T15:28:19.998Z</time></trkpt><trkpt lat="43.16358163551736" lon="13.706386743232162"><ele>214.0</ele><time>2026-04-18T15:28:20.998Z</time></trkpt><trkpt lat="43.16361215467368" lon="13.706244917388748"><ele>213.99999999999997</ele><time>2026-04-18T15:28:21.998Z</time></trkpt><trkpt lat="43.163633039299434" lon="13.706107727905275"><ele>213.99999999999997</ele><time>2026-04-18T15:28:22.997Z</time></trkpt><trkpt lat="43.163649273825094" lon="13.705973810028473"><ele>214.0</ele><time>2026-04-18T15:28:23.997Z</time></trkpt><trkpt lat="43.163666730195125" lon="13.70583905372659"><ele>214.0</ele><time>2026-04-18T15:28:24.997Z</time></trkpt><trkpt lat="43.16368675295089" lon="13.705699894638133"><ele>214.39999999999998</ele><time>2026-04-18T15:28:25.997Z</time></trkpt><trkpt lat="43.1637011812497" lon="13.705559614147187"><ele>214.79999999999998</ele><time>2026-04-18T15:28:26.997Z</time></trkpt><trkpt lat="43.1637154544188" lon="13.705419266992344"><ele>215.20000000000002</ele><time>2026-04-18T15:28:27.997Z</time></trkpt><trkpt lat="43.16373451889039" lon="13.705280048179448"><ele>215.60000000000002</ele><time>2026-04-18T15:28:28.997Z</time></trkpt><trkpt lat="43.16375397716287" lon="13.705146581677807"><ele>216.0</ele><time>2026-04-18T15:28:29.997Z</time></trkpt><trkpt lat="43.16377226674663" lon="13.705009685284894"><ele>216.0</ele><time>2026-04-18T15:28:31Z</time></trkpt><trkpt lat="43.16379449110694" lon="13.704871959367953"><ele>216.00000000000003</ele><time>2026-04-18T15:28:32.001Z</time></trkpt><trkpt lat="43.16382703017778" lon="13.704742264000906"><ele>216.00000000000003</ele><time>2026-04-18T15:28:33Z</time></trkpt><trkpt lat="43.16387825790673" lon="13.704629771778473"><ele>216.0</ele><time>2026-04-18T15:28:34Z</time></trkpt><trkpt lat="43.16393953796859" lon="13.704533749474951"><ele>216.0</ele><time>2026-04-18T15:28:35.001Z</time></trkpt><trkpt lat="43.16400143532024" lon="13.704457509308018"><ele>213.66666666666666</ele><time>2026-04-18T15:28:36Z</time></trkpt><trkpt lat="43.16406690049026" lon="13.704395556569098"><ele>211.33333333333331</ele><time>2026-04-18T15:28:37.001Z</time></trkpt><trkpt lat="43.16413548337746" lon="13.7043523399913"><ele>209.0</ele><time>2026-04-18T15:28:38.001Z</time></trkpt><trkpt lat="43.16420921074509" lon="13.704332133434198"><ele>206.66666666666666</ele><time>2026-04-18T15:28:39Z</time></trkpt><trkpt lat="43.1642849213382" lon="13.70434473732275"><ele>204.33333333333331</ele><time>2026-04-18T15:28:40Z</time></trkpt><trkpt lat="43.16436045062921" lon="13.704388178139805"><ele>202.0</ele><time>2026-04-18T15:28:41Z</time></trkpt><trkpt lat="43.1644399399383" lon="13.704435754453971"><ele>201.39999999999998</ele><time>2026-04-18T15:28:42Z</time></trkpt><trkpt lat="43.16452833267065" lon="13.704469394038574"><ele>200.79999999999998</ele><time>2026-04-18T15:28:43Z</time></trkpt><trkpt lat="43.164622847538" lon="13.704493886581805"><ele>200.2</ele><time>2026-04-18T15:28:44Z</time></trkpt><trkpt lat="43.164721465252164" lon="13.704515627180998"><ele>199.6</ele><time>2026-04-18T15:28:45Z</time></trkpt><trkpt lat="43.164821016645426" lon="13.704539217948168"><ele>199.0</ele><time>2026-04-18T15:28:46Z</time></trkpt><trkpt lat="43.16492328261685" lon="13.704557627980883"><ele>199.0</ele><time>2026-04-18T15:28:47Z</time></trkpt><trkpt lat="43.165026768702745" lon="13.704577622040636"><ele>199.0</ele><time>2026-04-18T15:28:48Z</time></trkpt><trkpt lat="43.16513205656932" lon="13.704602793229451"><ele>199.0</ele><time>2026-04-18T15:28:49Z</time></trkpt><trkpt lat="43.16523532902707" lon="13.704619553417105"><ele>199.0</ele><time>2026-04-18T15:28:50Z</time></trkpt><trkpt lat="43.16533679010619" lon="13.704636935255904"><ele>199.0</ele><time>2026-04-18T15:28:51Z</time></trkpt><trkpt lat="43.16543228376561" lon="13.704654356561955"><ele>198.99999999999997</ele><time>2026-04-18T15:28:52Z</time></trkpt><trkpt lat="43.16552671442732" lon="13.704672971091084"><ele>199.0</ele><time>2026-04-18T15:28:53Z</time></trkpt><trkpt lat="43.165617065085456" lon="13.704690462906369"><ele>199.0</ele><time>2026-04-18T15:28:54Z</time></trkpt><trkpt lat="43.16569987329074" lon="13.704704580704561"><ele>199.0</ele><time>2026-04-18T15:28:55Z</time></trkpt><trkpt lat="43.16577653654952" lon="13.704719314210196"><ele>198.99999999999997</ele><time>2026-04-18T15:28:56Z</time></trkpt><trkpt lat="43.165843987817844" lon="13.704735140129024"><ele>199.0</ele><time>2026-04-18T15:28:57Z</time></trkpt><trkpt lat="43.16593836550361" lon="13.704765738454098"><ele>198.6</ele><time>2026-04-18T15:28:59Z</time></trkpt><trkpt lat="43.16601461559256" lon="13.704830925894143"><ele>198.2</ele><time>2026-04-18T15:29:01Z</time></trkpt><trkpt lat="43.16606655848813" lon="13.705004778642213"><ele>197.79999999999998</ele><time>2026-04-18T15:29:03Z</time></trkpt><trkpt lat="43.166099750365234" lon="13.705102388854156"><ele>197.39999999999998</ele><time>2026-04-18T15:29:04Z</time></trkpt><trkpt lat="43.16613985147119" lon="13.705205467817652"><ele>197.0</ele><time>2026-04-18T15:29:05Z</time></trkpt><trkpt lat="43.16618457266479" lon="13.70531833041911"><ele>197.0</ele><time>2026-04-18T15:29:06Z</time></trkpt><trkpt lat="43.166230521435615" lon="13.705437030559493"><ele>197.0</ele><time>2026-04-18T15:29:07Z</time></trkpt><trkpt lat="43.16627875055968" lon="13.705561677645669"><ele>197.0</ele><time>2026-04-18T15:29:08Z</time></trkpt><trkpt lat="43.1663277328892" lon="13.705696626863407"><ele>197.0</ele><time>2026-04-18T15:29:09Z</time></trkpt><trkpt lat="43.16638473823091" lon="13.705840450997767"><ele>197.0</ele><time>2026-04-18T15:29:10Z</time></trkpt><trkpt lat="43.16644904899532" lon="13.705998387425886"><ele>195.75</ele><time>2026-04-18T15:29:11Z</time></trkpt><trkpt lat="43.16651741237475" lon="13.706170696765989"><ele>194.5</ele><time>2026-04-18T15:29:12Z</time></trkpt><trkpt lat="43.1665901622234" lon="13.706348857370578"><ele>193.25</ele><time>2026-04-18T15:29:13Z</time></trkpt><trkpt lat="43.166656276632395" lon="13.706523842726327"><ele>192.0</ele><time>2026-04-18T15:29:14Z</time></trkpt><trkpt lat="43.16671990692021" lon="13.70668415011832"><ele>193.75</ele><time>2026-04-18T15:29:15Z</time></trkpt><trkpt lat="43.166780370612436" lon="13.706826282062282"><ele>195.5</ele><time>2026-04-18T15:29:16Z</time></trkpt><trkpt lat="43.16683128526493" lon="13.706973637072911"><ele>197.25</ele><time>2026-04-18T15:29:17Z</time></trkpt><trkpt lat="43.16688700681463" lon="13.707129316674353"><ele>199.0</ele><time>2026-04-18T15:29:18Z</time></trkpt><trkpt lat="43.16695019473736" lon="13.707287457597198"><ele>199.0</ele><time>2026-04-18T15:29:18.999Z</time></trkpt><trkpt lat="43.16701008377701" lon="13.707451192150849"><ele>199.0</ele><time>2026-04-18T15:29:19.999Z</time></trkpt><trkpt lat="43.167077434970786" lon="13.707613846752393"><ele>199.0</ele><time>2026-04-18T15:29:20.999Z</time></trkpt><trkpt lat="43.167145024475126" lon="13.707778102214016"><ele>199.0</ele><time>2026-04-18T15:29:21.999Z</time></trkpt><trkpt lat="43.16721469165499" lon="13.707947638523532"><ele>197.66666666666666</ele><time>2026-04-18T15:29:22.999Z</time></trkpt><trkpt lat="43.16728440091074" lon="13.708123094018472"><ele>196.33333333333331</ele><time>2026-04-18T15:29:23.999Z</time></trkpt><trkpt lat="43.167353726535595" lon="13.70830561674481"><ele>195.0</ele><time>2026-04-18T15:29:24.999Z</time></trkpt><trkpt lat="43.16744171785585" lon="13.70848329883923"><ele>196.0</ele><time>2026-04-18T15:29:25.999Z</time></trkpt><trkpt lat="43.16753506404303" lon="13.708662098243424"><ele>197.0</ele><time>2026-04-18T15:29:26.999Z</time></trkpt><trkpt lat="43.167636759140564" lon="13.708833656111876"><ele>198.0</ele><time>2026-04-18T15:29:27.999Z</time></trkpt><trkpt lat="43.167745696942056" lon="13.70900405338579"><ele>198.0</ele><time>2026-04-18T15:29:28.999Z</time></trkpt><trkpt lat="43.16785237933202" lon="13.709185485157743"><ele>198.0</ele><time>2026-04-18T15:29:29.999Z</time></trkpt><trkpt lat="43.167955196074026" lon="13.709358033673334"><ele>198.0</ele><time>2026-04-18T15:29:30.999Z</time></trkpt><trkpt lat="43.16806741514919" lon="13.709533715755263"><ele>195.66666666666666</ele><time>2026-04-18T15:29:31.999Z</time></trkpt><trkpt lat="43.168183674826885" lon="13.709694767262073"><ele>193.33333333333331</ele><time>2026-04-18T15:29:32.999Z</time></trkpt><trkpt lat="43.16830499243017" lon="13.709850776043533"><ele>191.0</ele><time>2026-04-18T15:29:33.999Z</time></trkpt><trkpt lat="43.16842701749878" lon="13.710006716951442"><ele>192.66666666666666</ele><time>2026-04-18T15:29:34.999Z</time></trkpt><trkpt lat="43.16854640388094" lon="13.710158723681662"><ele>194.33333333333331</ele><time>2026-04-18T15:29:35.999Z</time></trkpt><trkpt lat="43.168664637227316" lon="13.710307208554497"><ele>196.0</ele><time>2026-04-18T15:29:36.999Z</time></trkpt><trkpt lat="43.168782578903425" lon="13.710458232828989"><ele>196.0</ele><time>2026-04-18T15:29:37.999Z</time></trkpt><trkpt lat="43.168898916576104" lon="13.710613141632395"><ele>196.0</ele><time>2026-04-18T15:29:38.998Z</time></trkpt><trkpt lat="43.169015031015235" lon="13.710762707479981"><ele>196.0</ele><time>2026-04-18T15:29:39.998Z</time></trkpt><trkpt lat="43.16913371619575" lon="13.710913115094414"><ele>198.0</ele><time>2026-04-18T15:29:40.998Z</time></trkpt><trkpt lat="43.16925483410474" lon="13.71105917592452"><ele>200.0</ele><time>2026-04-18T15:29:41.998Z</time></trkpt><trkpt lat="43.169376826844434" lon="13.71120859650246"><ele>202.0</ele><time>2026-04-18T15:29:42.998Z</time></trkpt><trkpt lat="43.16950296381329" lon="13.711361284525776"><ele>202.0</ele><time>2026-04-18T15:29:43.998Z</time></trkpt><trkpt lat="43.16962312968463" lon="13.71152181870105"><ele>202.0</ele><time>2026-04-18T15:29:44.998Z</time></trkpt><trkpt lat="43.169738781052594" lon="13.711688062086909"><ele>202.0</ele><time>2026-04-18T15:29:45.998Z</time></trkpt><trkpt lat="43.169850668838095" lon="13.711864524403751"><ele>204.33333333333331</ele><time>2026-04-18T15:29:46.998Z</time></trkpt><trkpt lat="43.16994921377385" lon="13.712040847338768"><ele>206.66666666666669</ele><time>2026-04-18T15:29:47.998Z</time></trkpt><trkpt lat="43.1700471726769" lon="13.712219900517452"><ele>209.0</ele><time>2026-04-18T15:29:48.998Z</time></trkpt><trkpt lat="43.1701429006087" lon="13.712400618540928"><ele>209.0</ele><time>2026-04-18T15:29:49.998Z</time></trkpt><trkpt lat="43.17024664316826" lon="13.712569888952885"><ele>209.0</ele><time>2026-04-18T15:29:50.998Z</time></trkpt><trkpt lat="43.17035734936149" lon="13.712730156802165"><ele>209.0</ele><time>2026-04-18T15:29:51.998Z</time></trkpt><trkpt lat="43.17047630992722" lon="13.71287726278558"><ele>210.33333333333334</ele><time>2026-04-18T15:29:52.998Z</time></trkpt><trkpt lat="43.17059590062844" lon="13.713023231599237"><ele>211.66666666666669</ele><time>2026-04-18T15:29:53.998Z</time></trkpt><trkpt lat="43.17071389684741" lon="13.713173030482068"><ele>213.0</ele><time>2026-04-18T15:29:54.997Z</time></trkpt><trkpt lat="43.170829064194265" lon="13.713318816122676"><ele>213.0</ele><time>2026-04-18T15:29:55.997Z</time></trkpt><trkpt lat="43.170944503012414" lon="13.713470381705852"><ele>213.0</ele><time>2026-04-18T15:29:56.997Z</time></trkpt><trkpt lat="43.171058079760996" lon="13.713622452066053"><ele>213.0</ele><time>2026-04-18T15:29:57.997Z</time></trkpt><trkpt lat="43.17117281366856" lon="13.713771954299594"><ele>213.0</ele><time>2026-04-18T15:29:58.997Z</time></trkpt><trkpt lat="43.17128907649224" lon="13.713916169072839"><ele>213.0</ele><time>2026-04-18T15:29:59.997Z</time></trkpt><trkpt lat="43.171411219729784" lon="13.714055100043554"><ele>213.0</ele><time>2026-04-18T15:30:00.997Z</time></trkpt><trkpt lat="43.17154008938159" lon="13.714174407373132"><ele>213.0</ele><time>2026-04-18T15:30:01.997Z</time></trkpt><trkpt lat="43.17167549166799" lon="13.714282143880615"><ele>213.0</ele><time>2026-04-18T15:30:02.997Z</time></trkpt><trkpt lat="43.1718134879828" lon="13.714396525334749"><ele>213.0</ele><time>2026-04-18T15:30:03.997Z</time></trkpt><trkpt lat="43.17194760929938" lon="13.714504689016074"><ele>209.66666666666669</ele><time>2026-04-18T15:30:04.997Z</time></trkpt><trkpt lat="43.172079943200416" lon="13.714618411138556"><ele>206.33333333333334</ele><time>2026-04-18T15:30:05.997Z</time></trkpt><trkpt lat="43.1722097878762" lon="13.714735610944853"><ele>203.0</ele><time>2026-04-18T15:30:06.997Z</time></trkpt><trkpt lat="43.172335394607416" lon="13.714863390551823"><ele>202.33333333333334</ele><time>2026-04-18T15:30:07.997Z</time></trkpt><trkpt lat="43.172448977726866" lon="13.715004880720173"><ele>201.66666666666669</ele><time>2026-04-18T15:30:08.997Z</time></trkpt><trkpt lat="43.17255201802466" lon="13.71516180792616"><ele>201.0</ele><time>2026-04-18T15:30:09.997Z</time></trkpt><trkpt lat="43.17264661144791" lon="13.71532826010259"><ele>201.0</ele><time>2026-04-18T15:30:10.997Z</time></trkpt><trkpt lat="43.17273186105319" lon="13.715503843412026"><ele>201.0</ele><time>2026-04-18T15:30:11.997Z</time></trkpt><trkpt lat="43.17281217027702" lon="13.71568710830157"><ele>201.0</ele><time>2026-04-18T15:30:12.997Z</time></trkpt><trkpt lat="43.1728911184137" lon="13.715865045123136"><ele>201.0</ele><time>2026-04-18T15:30:13.997Z</time></trkpt><trkpt lat="43.17296930524244" lon="13.71604977331882"><ele>201.0</ele><time>2026-04-18T15:30:14.997Z</time></trkpt><trkpt lat="43.17304991960468" lon="13.716236451819931"><ele>201.0</ele><time>2026-04-18T15:30:15.997Z</time></trkpt><trkpt lat="43.17313170062075" lon="13.716425781945803"><ele>198.66666666666669</ele><time>2026-04-18T15:30:16.997Z</time></trkpt><trkpt lat="43.173209518377234" lon="13.716621670653755"><ele>196.33333333333334</ele><time>2026-04-18T15:30:17.997Z</time></trkpt><trkpt lat="43.17325917051793" lon="13.71683146383704"><ele>194.0</ele><time>2026-04-18T15:30:18.997Z</time></trkpt><trkpt lat="43.173309483219015" lon="13.717045637115321"><ele>193.33333333333334</ele><time>2026-04-18T15:30:19.997Z</time></trkpt><trkpt lat="43.17336782912774" lon="13.717254205704588"><ele>192.66666666666669</ele><time>2026-04-18T15:30:20.997Z</time></trkpt><trkpt lat="43.17340162629211" lon="13.717479062627818"><ele>192.0</ele><time>2026-04-18T15:30:21.997Z</time></trkpt><trkpt lat="43.17344195013717" lon="13.717698935231065"><ele>190.0</ele><time>2026-04-18T15:30:22.997Z</time></trkpt><trkpt lat="43.17348541402887" lon="13.717911099481283"><ele>188.0</ele><time>2026-04-18T15:30:23.997Z</time></trkpt><trkpt lat="43.173527224738265" lon="13.718125650424989"><ele>186.0</ele><time>2026-04-18T15:30:24.997Z</time></trkpt><trkpt lat="43.17356757319312" lon="13.718335575772883"><ele>186.0</ele><time>2026-04-18T15:30:25.997Z</time></trkpt><trkpt lat="43.17360916626554" lon="13.718552762660503"><ele>186.0</ele><time>2026-04-18T15:30:26.997Z</time></trkpt><trkpt lat="43.17365088005012" lon="13.718769960154868"><ele>186.0</ele><time>2026-04-18T15:30:27.997Z</time></trkpt><trkpt lat="43.173694337888946" lon="13.71898940264895"><ele>184.33333333333334</ele><time>2026-04-18T15:30:28.997Z</time></trkpt><trkpt lat="43.17373787254278" lon="13.719204047642473"><ele>182.66666666666669</ele><time>2026-04-18T15:30:29.997Z</time></trkpt><trkpt lat="43.17378016408046" lon="13.719425003483144"><ele>181.0</ele><time>2026-04-18T15:30:30.996Z</time></trkpt><trkpt lat="43.17382010197861" lon="13.719649372562483"><ele>178.0</ele><time>2026-04-18T15:30:31.996Z</time></trkpt><trkpt lat="43.17386218635658" lon="13.719865506209207"><ele>175.0</ele><time>2026-04-18T15:30:32.996Z</time></trkpt><trkpt lat="43.17390669937239" lon="13.720090236872442"><ele>172.0</ele><time>2026-04-18T15:30:33.996Z</time></trkpt><trkpt lat="43.17394944315565" lon="13.720305909875002"><ele>171.0</ele><time>2026-04-18T15:30:34.996Z</time></trkpt><trkpt lat="43.173994884750726" lon="13.720515205674117"><ele>170.0</ele><time>2026-04-18T15:30:35.996Z</time></trkpt><trkpt lat="43.1740425679496" lon="13.720724523709512"><ele>169.0</ele><time>2026-04-18T15:30:37Z</time></trkpt><trkpt lat="43.17409973497968" lon="13.720925796302922"><ele>166.33333333333334</ele><time>2026-04-18T15:30:38Z</time></trkpt><trkpt lat="43.17417279618391" lon="13.72111602077228"><ele>163.66666666666666</ele><time>2026-04-18T15:30:39Z</time></trkpt><trkpt lat="43.17425404223083" lon="13.721295111102362"><ele>161.0</ele><time>2026-04-18T15:30:40Z</time></trkpt><trkpt lat="43.17433971808062" lon="13.721468158027582"><ele>161.0</ele><time>2026-04-18T15:30:41Z</time></trkpt><trkpt lat="43.17442147909241" lon="13.721639528148064"><ele>161.0</ele><time>2026-04-18T15:30:42Z</time></trkpt><trkpt lat="43.174499454510936" lon="13.721803940831556"><ele>161.0</ele><time>2026-04-18T15:30:43Z</time></trkpt><trkpt lat="43.174572019197235" lon="13.72196224671024"><ele>161.0</ele><time>2026-04-18T15:30:44Z</time></trkpt><trkpt lat="43.174644314780885" lon="13.722123658683374"><ele>159.0</ele><time>2026-04-18T15:30:45Z</time></trkpt><trkpt lat="43.174715029762474" lon="13.722282638043783"><ele>157.0</ele><time>2026-04-18T15:30:46Z</time></trkpt><trkpt lat="43.17479006414997" lon="13.722429432339016"><ele>155.0</ele><time>2026-04-18T15:30:47Z</time></trkpt><trkpt lat="43.17483757627306" lon="13.722589279317695"><ele>153.0</ele><time>2026-04-18T15:30:48Z</time></trkpt><trkpt lat="43.174890029238014" lon="13.722748479754102"><ele>153.0</ele><time>2026-04-18T15:30:49Z</time></trkpt><trkpt lat="43.17494006615577" lon="13.722922723802736"><ele>153.0</ele><time>2026-04-18T15:30:50Z</time></trkpt><trkpt lat="43.17500187313418" lon="13.72309806101359"><ele>153.0</ele><time>2026-04-18T15:30:51Z</time></trkpt><trkpt lat="43.17505209191841" lon="13.723290309320996"><ele>153.0</ele><time>2026-04-18T15:30:52Z</time></trkpt><trkpt lat="43.17511612546486" lon="13.72347904256088"><ele>151.0</ele><time>2026-04-18T15:30:53Z</time></trkpt><trkpt lat="43.17518583340099" lon="13.723651784641302"><ele>149.0</ele><time>2026-04-18T15:30:53.999Z</time></trkpt><trkpt lat="43.17525836023001" lon="13.723814960290088"><ele>147.0</ele><time>2026-04-18T15:30:54.999Z</time></trkpt><trkpt lat="43.1753277102553" lon="13.723968075247626"><ele>145.0</ele><time>2026-04-18T15:30:55.999Z</time></trkpt><trkpt lat="43.175396505099044" lon="13.724115174271123"><ele>145.0</ele><time>2026-04-18T15:30:56.999Z</time></trkpt><trkpt lat="43.17546949622743" lon="13.724252198458206"><ele>145.0</ele><time>2026-04-18T15:30:57.999Z</time></trkpt><trkpt lat="43.175541467758556" lon="13.724382001768197"><ele>145.0</ele><time>2026-04-18T15:30:58.999Z</time></trkpt><trkpt lat="43.1756103268091" lon="13.724512730824086"><ele>145.0</ele><time>2026-04-18T15:30:59.999Z</time></trkpt><trkpt lat="43.17567514659103" lon="13.724633597516663"><ele>145.0</ele><time>2026-04-18T15:31:00.999Z</time></trkpt><trkpt lat="43.17573931737412" lon="13.724746403998072"><ele>145.0</ele><time>2026-04-18T15:31:01.999Z</time></trkpt><trkpt lat="43.17580028185024" lon="13.72485748369229"><ele>145.0</ele><time>2026-04-18T15:31:02.999Z</time></trkpt><trkpt lat="43.175853737757066" lon="13.724971988783265"><ele>145.0</ele><time>2026-04-18T15:31:03.999Z</time></trkpt><trkpt lat="43.17590154627382" lon="13.725092562085733"><ele>145.0</ele><time>2026-04-18T15:31:04.999Z</time></trkpt><trkpt lat="43.17594996897227" lon="13.72521604054484"><ele>144.5</ele><time>2026-04-18T15:31:05.999Z</time></trkpt><trkpt lat="43.17599816560845" lon="13.725347638235739"><ele>144.0</ele><time>2026-04-18T15:31:06.999Z</time></trkpt><trkpt lat="43.17605004121071" lon="13.725484525134089"><ele>143.5</ele><time>2026-04-18T15:31:07.999Z</time></trkpt><trkpt lat="43.17609735995944" lon="13.725629185194078"><ele>143.0</ele><time>2026-04-18T15:31:08.999Z</time></trkpt><trkpt lat="43.17614367221264" lon="13.725776946446404"><ele>143.0</ele><time>2026-04-18T15:31:09.999Z</time></trkpt><trkpt lat="43.17618893721791" lon="13.725927365377666"><ele>143.0</ele><time>2026-04-18T15:31:10.999Z</time></trkpt><trkpt lat="43.17623353268594" lon="13.726076994953438"><ele>143.0</ele><time>2026-04-18T15:31:11.999Z</time></trkpt><trkpt lat="43.17628051233676" lon="13.72622453243404"><ele>143.0</ele><time>2026-04-18T15:31:12.999Z</time></trkpt><trkpt lat="43.17632555976909" lon="13.726370852687683"><ele>141.8</ele><time>2026-04-18T15:31:13.999Z</time></trkpt><trkpt lat="43.17636347821207" lon="13.726519794714324"><ele>140.60000000000002</ele><time>2026-04-18T15:31:14.999Z</time></trkpt><trkpt lat="43.176395457774376" lon="13.726667506468374"><ele>139.39999999999998</ele><time>2026-04-18T15:31:15.999Z</time></trkpt><trkpt lat="43.176427668097396" lon="13.726813754192898"><ele>138.2</ele><time>2026-04-18T15:31:16.999Z</time></trkpt><trkpt lat="43.17646421423464" lon="13.726949269404146"><ele>137.0</ele><time>2026-04-18T15:31:17.999Z</time></trkpt><trkpt lat="43.176502144247266" lon="13.727079923326274"><ele>136.6</ele><time>2026-04-18T15:31:18.999Z</time></trkpt><trkpt lat="43.17653960985567" lon="13.727205674087282"><ele>136.2</ele><time>2026-04-18T15:31:19.999Z</time></trkpt><trkpt lat="43.176573109959996" lon="13.727329184915792"><ele>135.8</ele><time>2026-04-18T15:31:20.999Z</time></trkpt><trkpt lat="43.176604133142305" lon="13.72745319645765"><ele>135.4</ele><time>2026-04-18T15:31:21.999Z</time></trkpt><trkpt lat="43.17663168690684" lon="13.727566088688297"><ele>135.0</ele><time>2026-04-18T15:31:22.999Z</time></trkpt><trkpt lat="43.176655854854474" lon="13.727659942910234"><ele>134.4</ele><time>2026-04-18T15:31:23.999Z</time></trkpt><trkpt lat="43.17667436709135" lon="13.727785382644662"><ele>133.8</ele><time>2026-04-18T15:31:25.999Z</time></trkpt><trkpt lat="43.176564975519895" lon="13.72789400795829"><ele>133.2</ele><time>2026-04-18T15:31:28.999Z</time></trkpt><trkpt lat="43.176442563997036" lon="13.72793114797089"><ele>132.6</ele><time>2026-04-18T15:31:30.998Z</time></trkpt><trkpt lat="43.17638065598387" lon="13.727960652050498"><ele>132.0</ele><time>2026-04-18T15:31:31.998Z</time></trkpt><trkpt lat="43.1763171770765" lon="13.727992129749293"><ele>130.14285714285714</ele><time>2026-04-18T15:31:32.998Z</time></trkpt><trkpt lat="43.17625205277063" lon="13.728026172119183"><ele>128.28571428571428</ele><time>2026-04-18T15:31:33.998Z</time></trkpt><trkpt lat="43.17618643804171" lon="13.728057950914733"><ele>126.42857142857143</ele><time>2026-04-18T15:31:34.998Z</time></trkpt><trkpt lat="43.17611647356133" lon="13.72808931124564"><ele>124.57142857142857</ele><time>2026-04-18T15:31:35.998Z</time></trkpt><trkpt lat="43.17604908250817" lon="13.728117921886897"><ele>122.71428571428572</ele><time>2026-04-18T15:31:36.998Z</time></trkpt><trkpt lat="43.17598388663495" lon="13.728137294307432"><ele>120.85714285714286</ele><time>2026-04-18T15:31:37.998Z</time></trkpt><trkpt lat="43.175914916898144" lon="13.728137345297588"><ele>119.0</ele><time>2026-04-18T15:31:38.998Z</time></trkpt><trkpt lat="43.17584841635654" lon="13.72812622571225"><ele>118.99999999999999</ele><time>2026-04-18T15:31:39.998Z</time></trkpt><trkpt lat="43.175725889200734" lon="13.72808942290152"><ele>119.0</ele><time>2026-04-18T15:31:41.998Z</time></trkpt><trkpt lat="43.17566519756647" lon="13.72806266331544"><ele>119.0</ele><time>2026-04-18T15:31:42.998Z</time></trkpt><trkpt lat="43.17560651411102" lon="13.72803101982755"><ele>119.0</ele><time>2026-04-18T15:31:43.998Z</time></trkpt><trkpt lat="43.175547381599785" lon="13.728000265562333"><ele>118.99999999999999</ele><time>2026-04-18T15:31:44.998Z</time></trkpt><trkpt lat="43.17543582171316" lon="13.72793379325154"><ele>119.0</ele><time>2026-04-18T15:31:46.998Z</time></trkpt><trkpt lat="43.175328546715726" lon="13.727866913114903"><ele>117.33333333333333</ele><time>2026-04-18T15:31:48.998Z</time></trkpt><trkpt lat="43.175259733344156" lon="13.727783958967937"><ele>115.66666666666666</ele><time>2026-04-18T15:31:50.998Z</time></trkpt><trkpt lat="43.17522045555154" lon="13.727709749080416"><ele>114.0</ele><time>2026-04-18T15:35:14Z</time></trkpt><trkpt lat="43.17517327322162" lon="13.727625816418561"><ele>112.33333333333334</ele><time>2026-04-18T15:35:16.999Z</time></trkpt><trkpt lat="43.17511056158871" lon="13.727551820504734"><ele>110.66666666666667</ele><time>2026-04-18T15:35:19.999Z</time></trkpt><trkpt lat="43.17508258690489" lon="13.727465798239539"><ele>109.0</ele><time>2026-04-18T15:35:23.999Z</time></trkpt><trkpt lat="43.175288732422445" lon="13.727176328513501"><ele>109.00000000000001</ele><time>2026-04-18T15:35:25.999Z</time></trkpt><trkpt lat="43.17522285315793" lon="13.727272632613"><ele>109.0</ele><time>2026-04-18T15:39:51.009Z</time></trkpt><trkpt lat="43.175278934266785" lon="13.727325598907177"><ele>109.0</ele><time>2026-04-18T15:41:47.01Z</time></trkpt><trkpt lat="43.17529070769596" lon="13.727148663660492"><ele>109.0</ele><time>2026-04-18T15:44:40.008Z</time></trkpt><trkpt lat="43.17534722550344" lon="13.727073636810495"><ele>109.00000000000001</ele><time>2026-04-18T15:45:43.014Z</time></trkpt><trkpt lat="43.17535272682991" lon="13.727165455163123"><ele>109.0</ele><time>2026-04-18T15:46:04.015Z</time></trkpt><trkpt lat="43.17530831880999" lon="13.727240570860463"><ele>109.0</ele><time>2026-04-18T15:46:07.015Z</time></trkpt><trkpt lat="43.1752434272443" lon="13.727324936605001"><ele>109.0</ele><time>2026-04-18T15:46:10.015Z</time></trkpt><trkpt lat="43.17528747354996" lon="13.727153388248793"><ele>109.0</ele><time>2026-04-18T15:46:40.007Z</time></trkpt></trkseg></trk></gpx>